<?xml version="1.0" encoding="UTF-8" standalone="no" ?>
<gpx xmlns="http://www.topografix.com/GPX/1/1" xmlns:xsi="http://www.w3.org/2001/XMLSchema-instance" xsi:schemaLocation="http://www.topografix.com/GPX/1/1 http://www.topografix.com/GPX/1/1/gpx.xsd" version="1.1" creator="VisuGPX - https://www.visugpx.com">
  <metadata>
    <name>02/10/2021</name>
    <desc><![CDATA[boucle au départ de payolle puis col d'aspin, col de la hourquette d'ancizan et retour]]></desc>
  </metadata>
  <trk>
    <name><![CDATA[02/10/2021_1]]></name>
    <trkseg>
      <trkpt lat="42.94232" lon="0.28486">
        <ele>1113.8</ele>
        <time>2021-10-02T06:45:01Z</time>
      </trkpt>
      <trkpt lat="42.94227" lon="0.28485">
        <ele>1096.4</ele>
        <time>2021-10-02T06:45:14Z</time>
      </trkpt>
      <trkpt lat="42.94224" lon="0.28486">
        <ele>1096.4</ele>
        <time>2021-10-02T06:45:16Z</time>
      </trkpt>
      <trkpt lat="42.94222" lon="0.28488">
        <ele>1096.4</ele>
        <time>2021-10-02T06:45:17Z</time>
      </trkpt>
      <trkpt lat="42.94221" lon="0.2849">
        <ele>1096.4</ele>
        <time>2021-10-02T06:45:18Z</time>
      </trkpt>
      <trkpt lat="42.94219" lon="0.28492">
        <ele>1096.4</ele>
        <time>2021-10-02T06:45:19Z</time>
      </trkpt>
      <trkpt lat="42.94217" lon="0.28493">
        <ele>1096.6</ele>
        <time>2021-10-02T06:45:20Z</time>
      </trkpt>
      <trkpt lat="42.94215" lon="0.28495">
        <ele>1096.8</ele>
        <time>2021-10-02T06:45:21Z</time>
      </trkpt>
      <trkpt lat="42.94209" lon="0.28501">
        <ele>1097.6</ele>
        <time>2021-10-02T06:45:24Z</time>
      </trkpt>
      <trkpt lat="42.94208" lon="0.28503">
        <ele>1097.8</ele>
        <time>2021-10-02T06:45:25Z</time>
      </trkpt>
      <trkpt lat="42.94201" lon="0.28509">
        <ele>1098.8</ele>
        <time>2021-10-02T06:45:28Z</time>
      </trkpt>
      <trkpt lat="42.94191" lon="0.28521">
        <ele>1099.4</ele>
        <time>2021-10-02T06:45:33Z</time>
      </trkpt>
      <trkpt lat="42.94188" lon="0.28523">
        <ele>1099.6</ele>
        <time>2021-10-02T06:45:34Z</time>
      </trkpt>
      <trkpt lat="42.94186" lon="0.28526">
        <ele>1099.8</ele>
        <time>2021-10-02T06:45:35Z</time>
      </trkpt>
      <trkpt lat="42.94184" lon="0.28529">
        <ele>1100</ele>
        <time>2021-10-02T06:45:36Z</time>
      </trkpt>
      <trkpt lat="42.94181" lon="0.28532">
        <ele>1100.2</ele>
        <time>2021-10-02T06:45:37Z</time>
      </trkpt>
      <trkpt lat="42.94179" lon="0.28535">
        <ele>1100.2</ele>
        <time>2021-10-02T06:45:38Z</time>
      </trkpt>
      <trkpt lat="42.94176" lon="0.28538">
        <ele>1100.6</ele>
        <time>2021-10-02T06:45:39Z</time>
      </trkpt>
      <trkpt lat="42.94173" lon="0.28541">
        <ele>1100.8</ele>
        <time>2021-10-02T06:45:40Z</time>
      </trkpt>
      <trkpt lat="42.9417" lon="0.28544">
        <ele>1101</ele>
        <time>2021-10-02T06:45:41Z</time>
      </trkpt>
      <trkpt lat="42.94168" lon="0.28547">
        <ele>1101</ele>
        <time>2021-10-02T06:45:42Z</time>
      </trkpt>
      <trkpt lat="42.94165" lon="0.2855">
        <ele>1101.2</ele>
        <time>2021-10-02T06:45:43Z</time>
      </trkpt>
      <trkpt lat="42.94162" lon="0.28553">
        <ele>1101.4</ele>
        <time>2021-10-02T06:45:44Z</time>
      </trkpt>
      <trkpt lat="42.94159" lon="0.28557">
        <ele>1101.6</ele>
        <time>2021-10-02T06:45:45Z</time>
      </trkpt>
      <trkpt lat="42.94156" lon="0.28561">
        <ele>1101.6</ele>
        <time>2021-10-02T06:45:46Z</time>
      </trkpt>
      <trkpt lat="42.94153" lon="0.28564">
        <ele>1101.8</ele>
        <time>2021-10-02T06:45:47Z</time>
      </trkpt>
      <trkpt lat="42.9415" lon="0.28568">
        <ele>1102</ele>
        <time>2021-10-02T06:45:48Z</time>
      </trkpt>
      <trkpt lat="42.94147" lon="0.28571">
        <ele>1102</ele>
        <time>2021-10-02T06:45:49Z</time>
      </trkpt>
      <trkpt lat="42.94143" lon="0.28575">
        <ele>1102.2</ele>
        <time>2021-10-02T06:45:50Z</time>
      </trkpt>
      <trkpt lat="42.9414" lon="0.28578">
        <ele>1102.2</ele>
        <time>2021-10-02T06:45:51Z</time>
      </trkpt>
      <trkpt lat="42.94137" lon="0.28582">
        <ele>1102.4</ele>
        <time>2021-10-02T06:45:52Z</time>
      </trkpt>
      <trkpt lat="42.94134" lon="0.28585">
        <ele>1102.6</ele>
        <time>2021-10-02T06:45:53Z</time>
      </trkpt>
      <trkpt lat="42.9413" lon="0.28588">
        <ele>1102.8</ele>
        <time>2021-10-02T06:45:54Z</time>
      </trkpt>
      <trkpt lat="42.94126" lon="0.28593">
        <ele>1102.8</ele>
        <time>2021-10-02T06:45:55Z</time>
      </trkpt>
      <trkpt lat="42.94122" lon="0.28597">
        <ele>1102.8</ele>
        <time>2021-10-02T06:45:56Z</time>
      </trkpt>
      <trkpt lat="42.94119" lon="0.28601">
        <ele>1103</ele>
        <time>2021-10-02T06:45:57Z</time>
      </trkpt>
      <trkpt lat="42.94116" lon="0.28605">
        <ele>1103</ele>
        <time>2021-10-02T06:45:58Z</time>
      </trkpt>
      <trkpt lat="42.94113" lon="0.2861">
        <ele>1103</ele>
        <time>2021-10-02T06:45:59Z</time>
      </trkpt>
      <trkpt lat="42.94109" lon="0.28614">
        <ele>1103.2</ele>
        <time>2021-10-02T06:46:00Z</time>
      </trkpt>
      <trkpt lat="42.94106" lon="0.28619">
        <ele>1103.4</ele>
        <time>2021-10-02T06:46:01Z</time>
      </trkpt>
      <trkpt lat="42.94103" lon="0.28623">
        <ele>1103.4</ele>
        <time>2021-10-02T06:46:02Z</time>
      </trkpt>
      <trkpt lat="42.941" lon="0.28627">
        <ele>1103.6</ele>
        <time>2021-10-02T06:46:03Z</time>
      </trkpt>
      <trkpt lat="42.94097" lon="0.28632">
        <ele>1103.6</ele>
        <time>2021-10-02T06:46:04Z</time>
      </trkpt>
      <trkpt lat="42.94094" lon="0.28637">
        <ele>1103.8</ele>
        <time>2021-10-02T06:46:05Z</time>
      </trkpt>
      <trkpt lat="42.94091" lon="0.28642">
        <ele>1103.8</ele>
        <time>2021-10-02T06:46:06Z</time>
      </trkpt>
      <trkpt lat="42.94089" lon="0.28646">
        <ele>1103.8</ele>
        <time>2021-10-02T06:46:07Z</time>
      </trkpt>
      <trkpt lat="42.94086" lon="0.28651">
        <ele>1104</ele>
        <time>2021-10-02T06:46:08Z</time>
      </trkpt>
      <trkpt lat="42.94083" lon="0.28655">
        <ele>1104.2</ele>
        <time>2021-10-02T06:46:09Z</time>
      </trkpt>
      <trkpt lat="42.94081" lon="0.2866">
        <ele>1104.2</ele>
        <time>2021-10-02T06:46:10Z</time>
      </trkpt>
      <trkpt lat="42.94078" lon="0.28665">
        <ele>1104.4</ele>
        <time>2021-10-02T06:46:11Z</time>
      </trkpt>
      <trkpt lat="42.94076" lon="0.28669">
        <ele>1104.4</ele>
        <time>2021-10-02T06:46:12Z</time>
      </trkpt>
      <trkpt lat="42.94074" lon="0.28674">
        <ele>1104.6</ele>
        <time>2021-10-02T06:46:13Z</time>
      </trkpt>
      <trkpt lat="42.94072" lon="0.28679">
        <ele>1104.8</ele>
        <time>2021-10-02T06:46:14Z</time>
      </trkpt>
      <trkpt lat="42.94071" lon="0.28684">
        <ele>1105</ele>
        <time>2021-10-02T06:46:15Z</time>
      </trkpt>
      <trkpt lat="42.9407" lon="0.28689">
        <ele>1105</ele>
        <time>2021-10-02T06:46:16Z</time>
      </trkpt>
      <trkpt lat="42.94069" lon="0.28695">
        <ele>1105.2</ele>
        <time>2021-10-02T06:46:17Z</time>
      </trkpt>
      <trkpt lat="42.94068" lon="0.28702">
        <ele>1105.4</ele>
        <time>2021-10-02T06:46:18Z</time>
      </trkpt>
      <trkpt lat="42.94067" lon="0.28707">
        <ele>1105.4</ele>
        <time>2021-10-02T06:46:19Z</time>
      </trkpt>
      <trkpt lat="42.94065" lon="0.28713">
        <ele>1105.6</ele>
        <time>2021-10-02T06:46:20Z</time>
      </trkpt>
      <trkpt lat="42.94064" lon="0.28718">
        <ele>1105.6</ele>
        <time>2021-10-02T06:46:21Z</time>
      </trkpt>
      <trkpt lat="42.94063" lon="0.28723">
        <ele>1105.8</ele>
        <time>2021-10-02T06:46:22Z</time>
      </trkpt>
      <trkpt lat="42.94061" lon="0.28729">
        <ele>1105.8</ele>
        <time>2021-10-02T06:46:23Z</time>
      </trkpt>
      <trkpt lat="42.9406" lon="0.28734">
        <ele>1106</ele>
        <time>2021-10-02T06:46:24Z</time>
      </trkpt>
      <trkpt lat="42.94059" lon="0.28739">
        <ele>1106</ele>
        <time>2021-10-02T06:46:25Z</time>
      </trkpt>
      <trkpt lat="42.94058" lon="0.28743">
        <ele>1106.2</ele>
        <time>2021-10-02T06:46:26Z</time>
      </trkpt>
      <trkpt lat="42.94057" lon="0.28748">
        <ele>1106.4</ele>
        <time>2021-10-02T06:46:27Z</time>
      </trkpt>
      <trkpt lat="42.94055" lon="0.28753">
        <ele>1106.6</ele>
        <time>2021-10-02T06:46:28Z</time>
      </trkpt>
      <trkpt lat="42.94054" lon="0.28758">
        <ele>1106.8</ele>
        <time>2021-10-02T06:46:29Z</time>
      </trkpt>
      <trkpt lat="42.94054" lon="0.28762">
        <ele>1107</ele>
        <time>2021-10-02T06:46:30Z</time>
      </trkpt>
      <trkpt lat="42.94052" lon="0.28768">
        <ele>1107.2</ele>
        <time>2021-10-02T06:46:31Z</time>
      </trkpt>
      <trkpt lat="42.94051" lon="0.28771">
        <ele>1107.2</ele>
        <time>2021-10-02T06:46:32Z</time>
      </trkpt>
      <trkpt lat="42.9405" lon="0.28776">
        <ele>1107.6</ele>
        <time>2021-10-02T06:46:33Z</time>
      </trkpt>
      <trkpt lat="42.94049" lon="0.28782">
        <ele>1107.8</ele>
        <time>2021-10-02T06:46:34Z</time>
      </trkpt>
      <trkpt lat="42.94047" lon="0.28786">
        <ele>1107.8</ele>
        <time>2021-10-02T06:46:35Z</time>
      </trkpt>
      <trkpt lat="42.94046" lon="0.2879">
        <ele>1108</ele>
        <time>2021-10-02T06:46:36Z</time>
      </trkpt>
      <trkpt lat="42.94045" lon="0.28795">
        <ele>1108.2</ele>
        <time>2021-10-02T06:46:37Z</time>
      </trkpt>
      <trkpt lat="42.94043" lon="0.28799">
        <ele>1108.4</ele>
        <time>2021-10-02T06:46:38Z</time>
      </trkpt>
      <trkpt lat="42.94041" lon="0.28804">
        <ele>1108.6</ele>
        <time>2021-10-02T06:46:39Z</time>
      </trkpt>
      <trkpt lat="42.9404" lon="0.28808">
        <ele>1108.8</ele>
        <time>2021-10-02T06:46:40Z</time>
      </trkpt>
      <trkpt lat="42.94038" lon="0.28812">
        <ele>1108.8</ele>
        <time>2021-10-02T06:46:41Z</time>
      </trkpt>
      <trkpt lat="42.94037" lon="0.28816">
        <ele>1109</ele>
        <time>2021-10-02T06:46:42Z</time>
      </trkpt>
      <trkpt lat="42.94035" lon="0.2882">
        <ele>1109</ele>
        <time>2021-10-02T06:46:43Z</time>
      </trkpt>
      <trkpt lat="42.94034" lon="0.28824">
        <ele>1109.2</ele>
        <time>2021-10-02T06:46:44Z</time>
      </trkpt>
      <trkpt lat="42.94032" lon="0.28829">
        <ele>1109.4</ele>
        <time>2021-10-02T06:46:45Z</time>
      </trkpt>
      <trkpt lat="42.94031" lon="0.28832">
        <ele>1109.6</ele>
        <time>2021-10-02T06:46:46Z</time>
      </trkpt>
      <trkpt lat="42.94029" lon="0.28837">
        <ele>1109.8</ele>
        <time>2021-10-02T06:46:47Z</time>
      </trkpt>
      <trkpt lat="42.94027" lon="0.28841">
        <ele>1110</ele>
        <time>2021-10-02T06:46:48Z</time>
      </trkpt>
      <trkpt lat="42.94026" lon="0.28845">
        <ele>1110.2</ele>
        <time>2021-10-02T06:46:49Z</time>
      </trkpt>
      <trkpt lat="42.94025" lon="0.28849">
        <ele>1110.6</ele>
        <time>2021-10-02T06:46:50Z</time>
      </trkpt>
      <trkpt lat="42.94023" lon="0.28854">
        <ele>1110.8</ele>
        <time>2021-10-02T06:46:51Z</time>
      </trkpt>
      <trkpt lat="42.94022" lon="0.28858">
        <ele>1111.2</ele>
        <time>2021-10-02T06:46:52Z</time>
      </trkpt>
      <trkpt lat="42.94021" lon="0.28863">
        <ele>1111.4</ele>
        <time>2021-10-02T06:46:53Z</time>
      </trkpt>
      <trkpt lat="42.9402" lon="0.28867">
        <ele>1111.4</ele>
        <time>2021-10-02T06:46:54Z</time>
      </trkpt>
      <trkpt lat="42.94019" lon="0.28873">
        <ele>1111.6</ele>
        <time>2021-10-02T06:46:55Z</time>
      </trkpt>
      <trkpt lat="42.94018" lon="0.28876">
        <ele>1111.8</ele>
        <time>2021-10-02T06:46:56Z</time>
      </trkpt>
      <trkpt lat="42.94017" lon="0.28881">
        <ele>1111.8</ele>
        <time>2021-10-02T06:46:57Z</time>
      </trkpt>
      <trkpt lat="42.94017" lon="0.28886">
        <ele>1112</ele>
        <time>2021-10-02T06:46:58Z</time>
      </trkpt>
      <trkpt lat="42.94016" lon="0.28891">
        <ele>1112.2</ele>
        <time>2021-10-02T06:46:59Z</time>
      </trkpt>
      <trkpt lat="42.94015" lon="0.28896">
        <ele>1112.2</ele>
        <time>2021-10-02T06:47:00Z</time>
      </trkpt>
      <trkpt lat="42.94014" lon="0.28902">
        <ele>1112.4</ele>
        <time>2021-10-02T06:47:01Z</time>
      </trkpt>
      <trkpt lat="42.94013" lon="0.28905">
        <ele>1112.6</ele>
        <time>2021-10-02T06:47:02Z</time>
      </trkpt>
      <trkpt lat="42.94012" lon="0.2891">
        <ele>1112.8</ele>
        <time>2021-10-02T06:47:03Z</time>
      </trkpt>
      <trkpt lat="42.94011" lon="0.28916">
        <ele>1112.8</ele>
        <time>2021-10-02T06:47:04Z</time>
      </trkpt>
      <trkpt lat="42.9401" lon="0.28921">
        <ele>1113</ele>
        <time>2021-10-02T06:47:05Z</time>
      </trkpt>
      <trkpt lat="42.9401" lon="0.28925">
        <ele>1113.2</ele>
        <time>2021-10-02T06:47:06Z</time>
      </trkpt>
      <trkpt lat="42.94009" lon="0.2893">
        <ele>1113.4</ele>
        <time>2021-10-02T06:47:07Z</time>
      </trkpt>
      <trkpt lat="42.94008" lon="0.28934">
        <ele>1113.6</ele>
        <time>2021-10-02T06:47:08Z</time>
      </trkpt>
      <trkpt lat="42.94007" lon="0.28939">
        <ele>1113.6</ele>
        <time>2021-10-02T06:47:09Z</time>
      </trkpt>
      <trkpt lat="42.94007" lon="0.28944">
        <ele>1113.6</ele>
        <time>2021-10-02T06:47:10Z</time>
      </trkpt>
      <trkpt lat="42.94006" lon="0.28949">
        <ele>1113.8</ele>
        <time>2021-10-02T06:47:11Z</time>
      </trkpt>
      <trkpt lat="42.94006" lon="0.28954">
        <ele>1114</ele>
        <time>2021-10-02T06:47:12Z</time>
      </trkpt>
      <trkpt lat="42.94005" lon="0.28959">
        <ele>1114.2</ele>
        <time>2021-10-02T06:47:13Z</time>
      </trkpt>
      <trkpt lat="42.94005" lon="0.28964">
        <ele>1114.4</ele>
        <time>2021-10-02T06:47:14Z</time>
      </trkpt>
      <trkpt lat="42.94004" lon="0.28969">
        <ele>1114.4</ele>
        <time>2021-10-02T06:47:15Z</time>
      </trkpt>
      <trkpt lat="42.94004" lon="0.28974">
        <ele>1114.6</ele>
        <time>2021-10-02T06:47:16Z</time>
      </trkpt>
      <trkpt lat="42.94003" lon="0.28979">
        <ele>1114.6</ele>
        <time>2021-10-02T06:47:17Z</time>
      </trkpt>
      <trkpt lat="42.94003" lon="0.28984">
        <ele>1114.8</ele>
        <time>2021-10-02T06:47:18Z</time>
      </trkpt>
      <trkpt lat="42.94003" lon="0.28989">
        <ele>1114.8</ele>
        <time>2021-10-02T06:47:19Z</time>
      </trkpt>
      <trkpt lat="42.94003" lon="0.28994">
        <ele>1114.8</ele>
        <time>2021-10-02T06:47:20Z</time>
      </trkpt>
      <trkpt lat="42.94003" lon="0.28999">
        <ele>1115</ele>
        <time>2021-10-02T06:47:21Z</time>
      </trkpt>
      <trkpt lat="42.94003" lon="0.29004">
        <ele>1115</ele>
        <time>2021-10-02T06:47:22Z</time>
      </trkpt>
      <trkpt lat="42.94003" lon="0.29009">
        <ele>1115.2</ele>
        <time>2021-10-02T06:47:23Z</time>
      </trkpt>
      <trkpt lat="42.94002" lon="0.29014">
        <ele>1115.2</ele>
        <time>2021-10-02T06:47:24Z</time>
      </trkpt>
      <trkpt lat="42.94002" lon="0.29019">
        <ele>1115.4</ele>
        <time>2021-10-02T06:47:25Z</time>
      </trkpt>
      <trkpt lat="42.94002" lon="0.29024">
        <ele>1115.6</ele>
        <time>2021-10-02T06:47:26Z</time>
      </trkpt>
      <trkpt lat="42.94002" lon="0.29029">
        <ele>1115.6</ele>
        <time>2021-10-02T06:47:27Z</time>
      </trkpt>
      <trkpt lat="42.94001" lon="0.29034">
        <ele>1115.8</ele>
        <time>2021-10-02T06:47:28Z</time>
      </trkpt>
      <trkpt lat="42.94001" lon="0.29039">
        <ele>1116</ele>
        <time>2021-10-02T06:47:29Z</time>
      </trkpt>
      <trkpt lat="42.94" lon="0.29044">
        <ele>1116.2</ele>
        <time>2021-10-02T06:47:30Z</time>
      </trkpt>
      <trkpt lat="42.93999" lon="0.2905">
        <ele>1116.4</ele>
        <time>2021-10-02T06:47:31Z</time>
      </trkpt>
      <trkpt lat="42.93998" lon="0.29054">
        <ele>1116.4</ele>
        <time>2021-10-02T06:47:32Z</time>
      </trkpt>
      <trkpt lat="42.93997" lon="0.29059">
        <ele>1116.4</ele>
        <time>2021-10-02T06:47:33Z</time>
      </trkpt>
      <trkpt lat="42.93996" lon="0.29064">
        <ele>1116.6</ele>
        <time>2021-10-02T06:47:34Z</time>
      </trkpt>
      <trkpt lat="42.93995" lon="0.29068">
        <ele>1116.6</ele>
        <time>2021-10-02T06:47:35Z</time>
      </trkpt>
      <trkpt lat="42.93994" lon="0.29073">
        <ele>1116.8</ele>
        <time>2021-10-02T06:47:36Z</time>
      </trkpt>
      <trkpt lat="42.93993" lon="0.29077">
        <ele>1117</ele>
        <time>2021-10-02T06:47:37Z</time>
      </trkpt>
      <trkpt lat="42.93991" lon="0.29082">
        <ele>1117.2</ele>
        <time>2021-10-02T06:47:38Z</time>
      </trkpt>
      <trkpt lat="42.93989" lon="0.29087">
        <ele>1117.4</ele>
        <time>2021-10-02T06:47:39Z</time>
      </trkpt>
      <trkpt lat="42.93986" lon="0.29091">
        <ele>1117.4</ele>
        <time>2021-10-02T06:47:40Z</time>
      </trkpt>
      <trkpt lat="42.93984" lon="0.29095">
        <ele>1117.6</ele>
        <time>2021-10-02T06:47:41Z</time>
      </trkpt>
      <trkpt lat="42.93981" lon="0.29099">
        <ele>1117.8</ele>
        <time>2021-10-02T06:47:42Z</time>
      </trkpt>
      <trkpt lat="42.93978" lon="0.29102">
        <ele>1117.8</ele>
        <time>2021-10-02T06:47:43Z</time>
      </trkpt>
      <trkpt lat="42.93975" lon="0.29105">
        <ele>1118</ele>
        <time>2021-10-02T06:47:44Z</time>
      </trkpt>
      <trkpt lat="42.93972" lon="0.29109">
        <ele>1118</ele>
        <time>2021-10-02T06:47:45Z</time>
      </trkpt>
      <trkpt lat="42.9397" lon="0.29111">
        <ele>1118.2</ele>
        <time>2021-10-02T06:47:46Z</time>
      </trkpt>
      <trkpt lat="42.93967" lon="0.29116">
        <ele>1118.2</ele>
        <time>2021-10-02T06:47:47Z</time>
      </trkpt>
      <trkpt lat="42.93964" lon="0.29119">
        <ele>1118.4</ele>
        <time>2021-10-02T06:47:48Z</time>
      </trkpt>
      <trkpt lat="42.93961" lon="0.29122">
        <ele>1118.4</ele>
        <time>2021-10-02T06:47:49Z</time>
      </trkpt>
      <trkpt lat="42.93957" lon="0.29125">
        <ele>1118.4</ele>
        <time>2021-10-02T06:47:50Z</time>
      </trkpt>
      <trkpt lat="42.93954" lon="0.29126">
        <ele>1118.4</ele>
        <time>2021-10-02T06:47:51Z</time>
      </trkpt>
      <trkpt lat="42.93951" lon="0.29127">
        <ele>1118.4</ele>
        <time>2021-10-02T06:47:52Z</time>
      </trkpt>
      <trkpt lat="42.93946" lon="0.29128">
        <ele>1118.6</ele>
        <time>2021-10-02T06:47:53Z</time>
      </trkpt>
      <trkpt lat="42.93941" lon="0.29129">
        <ele>1118.8</ele>
        <time>2021-10-02T06:47:54Z</time>
      </trkpt>
      <trkpt lat="42.93938" lon="0.29129">
        <ele>1118.8</ele>
        <time>2021-10-02T06:47:55Z</time>
      </trkpt>
      <trkpt lat="42.93933" lon="0.2913">
        <ele>1119</ele>
        <time>2021-10-02T06:47:56Z</time>
      </trkpt>
      <trkpt lat="42.93927" lon="0.29131">
        <ele>1119</ele>
        <time>2021-10-02T06:47:57Z</time>
      </trkpt>
      <trkpt lat="42.93921" lon="0.29131">
        <ele>1119</ele>
        <time>2021-10-02T06:47:58Z</time>
      </trkpt>
      <trkpt lat="42.93916" lon="0.29131">
        <ele>1119</ele>
        <time>2021-10-02T06:47:59Z</time>
      </trkpt>
      <trkpt lat="42.9391" lon="0.29132">
        <ele>1119</ele>
        <time>2021-10-02T06:48:00Z</time>
      </trkpt>
      <trkpt lat="42.93906" lon="0.29132">
        <ele>1119</ele>
        <time>2021-10-02T06:48:01Z</time>
      </trkpt>
      <trkpt lat="42.93898" lon="0.29132">
        <ele>1118.8</ele>
        <time>2021-10-02T06:48:02Z</time>
      </trkpt>
      <trkpt lat="42.93893" lon="0.29132">
        <ele>1118.6</ele>
        <time>2021-10-02T06:48:03Z</time>
      </trkpt>
      <trkpt lat="42.93887" lon="0.29132">
        <ele>1118.6</ele>
        <time>2021-10-02T06:48:04Z</time>
      </trkpt>
      <trkpt lat="42.93856" lon="0.29124">
        <ele>1117.4</ele>
        <time>2021-10-02T06:48:09Z</time>
      </trkpt>
      <trkpt lat="42.93849" lon="0.29122">
        <ele>1117.2</ele>
        <time>2021-10-02T06:48:10Z</time>
      </trkpt>
      <trkpt lat="42.93844" lon="0.29121">
        <ele>1117.2</ele>
        <time>2021-10-02T06:48:11Z</time>
      </trkpt>
      <trkpt lat="42.93838" lon="0.29121">
        <ele>1116.8</ele>
        <time>2021-10-02T06:48:12Z</time>
      </trkpt>
      <trkpt lat="42.93833" lon="0.29123">
        <ele>1116.6</ele>
        <time>2021-10-02T06:48:13Z</time>
      </trkpt>
      <trkpt lat="42.93829" lon="0.29126">
        <ele>1116.6</ele>
        <time>2021-10-02T06:48:14Z</time>
      </trkpt>
      <trkpt lat="42.93826" lon="0.2913">
        <ele>1116.6</ele>
        <time>2021-10-02T06:48:15Z</time>
      </trkpt>
      <trkpt lat="42.93823" lon="0.29134">
        <ele>1116.6</ele>
        <time>2021-10-02T06:48:16Z</time>
      </trkpt>
      <trkpt lat="42.93821" lon="0.29139">
        <ele>1116.6</ele>
        <time>2021-10-02T06:48:17Z</time>
      </trkpt>
      <trkpt lat="42.93819" lon="0.29143">
        <ele>1116.6</ele>
        <time>2021-10-02T06:48:18Z</time>
      </trkpt>
      <trkpt lat="42.93817" lon="0.29147">
        <ele>1116.6</ele>
        <time>2021-10-02T06:48:19Z</time>
      </trkpt>
      <trkpt lat="42.93815" lon="0.29151">
        <ele>1116.8</ele>
        <time>2021-10-02T06:48:20Z</time>
      </trkpt>
      <trkpt lat="42.93806" lon="0.29161">
        <ele>1117.2</ele>
        <time>2021-10-02T06:48:23Z</time>
      </trkpt>
      <trkpt lat="42.93803" lon="0.29164">
        <ele>1117.4</ele>
        <time>2021-10-02T06:48:24Z</time>
      </trkpt>
      <trkpt lat="42.93801" lon="0.29167">
        <ele>1117.4</ele>
        <time>2021-10-02T06:48:25Z</time>
      </trkpt>
      <trkpt lat="42.93798" lon="0.29169">
        <ele>1117.6</ele>
        <time>2021-10-02T06:48:26Z</time>
      </trkpt>
      <trkpt lat="42.93795" lon="0.29171">
        <ele>1118</ele>
        <time>2021-10-02T06:48:27Z</time>
      </trkpt>
      <trkpt lat="42.93792" lon="0.29173">
        <ele>1118</ele>
        <time>2021-10-02T06:48:28Z</time>
      </trkpt>
      <trkpt lat="42.93789" lon="0.29175">
        <ele>1118.2</ele>
        <time>2021-10-02T06:48:29Z</time>
      </trkpt>
      <trkpt lat="42.93787" lon="0.29178">
        <ele>1118.6</ele>
        <time>2021-10-02T06:48:30Z</time>
      </trkpt>
      <trkpt lat="42.93784" lon="0.29181">
        <ele>1119</ele>
        <time>2021-10-02T06:48:31Z</time>
      </trkpt>
      <trkpt lat="42.93782" lon="0.29183">
        <ele>1119.2</ele>
        <time>2021-10-02T06:48:32Z</time>
      </trkpt>
      <trkpt lat="42.9378" lon="0.29185">
        <ele>1119.4</ele>
        <time>2021-10-02T06:48:33Z</time>
      </trkpt>
      <trkpt lat="42.93777" lon="0.29188">
        <ele>1119.8</ele>
        <time>2021-10-02T06:48:34Z</time>
      </trkpt>
      <trkpt lat="42.93775" lon="0.2919">
        <ele>1120</ele>
        <time>2021-10-02T06:48:35Z</time>
      </trkpt>
      <trkpt lat="42.93772" lon="0.29193">
        <ele>1120.4</ele>
        <time>2021-10-02T06:48:36Z</time>
      </trkpt>
      <trkpt lat="42.9377" lon="0.29195">
        <ele>1120.6</ele>
        <time>2021-10-02T06:48:37Z</time>
      </trkpt>
      <trkpt lat="42.93767" lon="0.29198">
        <ele>1121</ele>
        <time>2021-10-02T06:48:38Z</time>
      </trkpt>
      <trkpt lat="42.93765" lon="0.29201">
        <ele>1121.2</ele>
        <time>2021-10-02T06:48:39Z</time>
      </trkpt>
      <trkpt lat="42.93763" lon="0.29204">
        <ele>1121.6</ele>
        <time>2021-10-02T06:48:40Z</time>
      </trkpt>
      <trkpt lat="42.9376" lon="0.29207">
        <ele>1121.8</ele>
        <time>2021-10-02T06:48:41Z</time>
      </trkpt>
      <trkpt lat="42.93757" lon="0.2921">
        <ele>1122</ele>
        <time>2021-10-02T06:48:42Z</time>
      </trkpt>
      <trkpt lat="42.93755" lon="0.29213">
        <ele>1122.2</ele>
        <time>2021-10-02T06:48:43Z</time>
      </trkpt>
      <trkpt lat="42.93752" lon="0.29216">
        <ele>1122.4</ele>
        <time>2021-10-02T06:48:44Z</time>
      </trkpt>
      <trkpt lat="42.93749" lon="0.29219">
        <ele>1122.6</ele>
        <time>2021-10-02T06:48:45Z</time>
      </trkpt>
      <trkpt lat="42.93746" lon="0.29222">
        <ele>1122.8</ele>
        <time>2021-10-02T06:48:46Z</time>
      </trkpt>
      <trkpt lat="42.93744" lon="0.29224">
        <ele>1123</ele>
        <time>2021-10-02T06:48:47Z</time>
      </trkpt>
      <trkpt lat="42.93741" lon="0.29227">
        <ele>1123.2</ele>
        <time>2021-10-02T06:48:48Z</time>
      </trkpt>
      <trkpt lat="42.93738" lon="0.2923">
        <ele>1123.2</ele>
        <time>2021-10-02T06:48:49Z</time>
      </trkpt>
      <trkpt lat="42.93735" lon="0.29232">
        <ele>1123.4</ele>
        <time>2021-10-02T06:48:50Z</time>
      </trkpt>
      <trkpt lat="42.93732" lon="0.29235">
        <ele>1123.4</ele>
        <time>2021-10-02T06:48:51Z</time>
      </trkpt>
      <trkpt lat="42.93729" lon="0.29237">
        <ele>1123.6</ele>
        <time>2021-10-02T06:48:52Z</time>
      </trkpt>
      <trkpt lat="42.93726" lon="0.29239">
        <ele>1123.8</ele>
        <time>2021-10-02T06:48:53Z</time>
      </trkpt>
      <trkpt lat="42.93723" lon="0.29241">
        <ele>1124</ele>
        <time>2021-10-02T06:48:54Z</time>
      </trkpt>
      <trkpt lat="42.9372" lon="0.29242">
        <ele>1124</ele>
        <time>2021-10-02T06:48:55Z</time>
      </trkpt>
      <trkpt lat="42.93717" lon="0.29244">
        <ele>1124.2</ele>
        <time>2021-10-02T06:48:56Z</time>
      </trkpt>
      <trkpt lat="42.93713" lon="0.29245">
        <ele>1124.4</ele>
        <time>2021-10-02T06:48:57Z</time>
      </trkpt>
      <trkpt lat="42.9371" lon="0.29246">
        <ele>1124.6</ele>
        <time>2021-10-02T06:48:58Z</time>
      </trkpt>
      <trkpt lat="42.93707" lon="0.29247">
        <ele>1124.6</ele>
        <time>2021-10-02T06:48:59Z</time>
      </trkpt>
      <trkpt lat="42.93704" lon="0.29248">
        <ele>1124.8</ele>
        <time>2021-10-02T06:49:00Z</time>
      </trkpt>
      <trkpt lat="42.937" lon="0.29248">
        <ele>1124.8</ele>
        <time>2021-10-02T06:49:01Z</time>
      </trkpt>
      <trkpt lat="42.93697" lon="0.29248">
        <ele>1125</ele>
        <time>2021-10-02T06:49:02Z</time>
      </trkpt>
      <trkpt lat="42.93693" lon="0.29248">
        <ele>1125.2</ele>
        <time>2021-10-02T06:49:03Z</time>
      </trkpt>
      <trkpt lat="42.9369" lon="0.29248">
        <ele>1125.4</ele>
        <time>2021-10-02T06:49:04Z</time>
      </trkpt>
      <trkpt lat="42.93686" lon="0.29247">
        <ele>1125.4</ele>
        <time>2021-10-02T06:49:05Z</time>
      </trkpt>
      <trkpt lat="42.93682" lon="0.29246">
        <ele>1125.6</ele>
        <time>2021-10-02T06:49:06Z</time>
      </trkpt>
      <trkpt lat="42.93678" lon="0.29244">
        <ele>1125.8</ele>
        <time>2021-10-02T06:49:07Z</time>
      </trkpt>
      <trkpt lat="42.93674" lon="0.29242">
        <ele>1126</ele>
        <time>2021-10-02T06:49:08Z</time>
      </trkpt>
      <trkpt lat="42.93671" lon="0.2924">
        <ele>1126</ele>
        <time>2021-10-02T06:49:09Z</time>
      </trkpt>
      <trkpt lat="42.93667" lon="0.29237">
        <ele>1126.2</ele>
        <time>2021-10-02T06:49:10Z</time>
      </trkpt>
      <trkpt lat="42.93664" lon="0.29235">
        <ele>1126.2</ele>
        <time>2021-10-02T06:49:11Z</time>
      </trkpt>
      <trkpt lat="42.9366" lon="0.29232">
        <ele>1126.4</ele>
        <time>2021-10-02T06:49:12Z</time>
      </trkpt>
      <trkpt lat="42.93657" lon="0.29229">
        <ele>1126.4</ele>
        <time>2021-10-02T06:49:13Z</time>
      </trkpt>
      <trkpt lat="42.93654" lon="0.29226">
        <ele>1126.6</ele>
        <time>2021-10-02T06:49:14Z</time>
      </trkpt>
      <trkpt lat="42.9365" lon="0.29224">
        <ele>1126.6</ele>
        <time>2021-10-02T06:49:15Z</time>
      </trkpt>
      <trkpt lat="42.93647" lon="0.29221">
        <ele>1126.8</ele>
        <time>2021-10-02T06:49:16Z</time>
      </trkpt>
      <trkpt lat="42.93644" lon="0.29218">
        <ele>1126.8</ele>
        <time>2021-10-02T06:49:17Z</time>
      </trkpt>
      <trkpt lat="42.93641" lon="0.29215">
        <ele>1127</ele>
        <time>2021-10-02T06:49:18Z</time>
      </trkpt>
      <trkpt lat="42.93637" lon="0.29213">
        <ele>1127.2</ele>
        <time>2021-10-02T06:49:19Z</time>
      </trkpt>
      <trkpt lat="42.93634" lon="0.2921">
        <ele>1127.2</ele>
        <time>2021-10-02T06:49:20Z</time>
      </trkpt>
      <trkpt lat="42.93631" lon="0.29207">
        <ele>1127.4</ele>
        <time>2021-10-02T06:49:21Z</time>
      </trkpt>
      <trkpt lat="42.93628" lon="0.29205">
        <ele>1127.4</ele>
        <time>2021-10-02T06:49:22Z</time>
      </trkpt>
      <trkpt lat="42.93626" lon="0.29202">
        <ele>1127.6</ele>
        <time>2021-10-02T06:49:23Z</time>
      </trkpt>
      <trkpt lat="42.93623" lon="0.29199">
        <ele>1128</ele>
        <time>2021-10-02T06:49:24Z</time>
      </trkpt>
      <trkpt lat="42.93621" lon="0.29197">
        <ele>1127.8</ele>
        <time>2021-10-02T06:49:25Z</time>
      </trkpt>
      <trkpt lat="42.93618" lon="0.29194">
        <ele>1128</ele>
        <time>2021-10-02T06:49:26Z</time>
      </trkpt>
      <trkpt lat="42.93615" lon="0.29192">
        <ele>1128.2</ele>
        <time>2021-10-02T06:49:27Z</time>
      </trkpt>
      <trkpt lat="42.93612" lon="0.29189">
        <ele>1128.4</ele>
        <time>2021-10-02T06:49:28Z</time>
      </trkpt>
      <trkpt lat="42.93609" lon="0.29186">
        <ele>1128.6</ele>
        <time>2021-10-02T06:49:29Z</time>
      </trkpt>
      <trkpt lat="42.93606" lon="0.29184">
        <ele>1128.8</ele>
        <time>2021-10-02T06:49:30Z</time>
      </trkpt>
      <trkpt lat="42.93603" lon="0.29181">
        <ele>1128.8</ele>
        <time>2021-10-02T06:49:31Z</time>
      </trkpt>
      <trkpt lat="42.936" lon="0.29179">
        <ele>1129</ele>
        <time>2021-10-02T06:49:32Z</time>
      </trkpt>
      <trkpt lat="42.93597" lon="0.29176">
        <ele>1129</ele>
        <time>2021-10-02T06:49:33Z</time>
      </trkpt>
      <trkpt lat="42.93595" lon="0.29174">
        <ele>1129.2</ele>
        <time>2021-10-02T06:49:34Z</time>
      </trkpt>
      <trkpt lat="42.93591" lon="0.29171">
        <ele>1129.2</ele>
        <time>2021-10-02T06:49:35Z</time>
      </trkpt>
      <trkpt lat="42.93589" lon="0.29169">
        <ele>1129.4</ele>
        <time>2021-10-02T06:49:36Z</time>
      </trkpt>
      <trkpt lat="42.93586" lon="0.29166">
        <ele>1129.4</ele>
        <time>2021-10-02T06:49:37Z</time>
      </trkpt>
      <trkpt lat="42.93583" lon="0.29164">
        <ele>1129.8</ele>
        <time>2021-10-02T06:49:38Z</time>
      </trkpt>
      <trkpt lat="42.9358" lon="0.29161">
        <ele>1129.8</ele>
        <time>2021-10-02T06:49:39Z</time>
      </trkpt>
      <trkpt lat="42.93577" lon="0.29158">
        <ele>1130</ele>
        <time>2021-10-02T06:49:40Z</time>
      </trkpt>
      <trkpt lat="42.93574" lon="0.29156">
        <ele>1130.2</ele>
        <time>2021-10-02T06:49:41Z</time>
      </trkpt>
      <trkpt lat="42.93571" lon="0.29153">
        <ele>1130.2</ele>
        <time>2021-10-02T06:49:42Z</time>
      </trkpt>
      <trkpt lat="42.93568" lon="0.2915">
        <ele>1130.4</ele>
        <time>2021-10-02T06:49:43Z</time>
      </trkpt>
      <trkpt lat="42.93565" lon="0.29147">
        <ele>1130.4</ele>
        <time>2021-10-02T06:49:44Z</time>
      </trkpt>
      <trkpt lat="42.93562" lon="0.29145">
        <ele>1130.4</ele>
        <time>2021-10-02T06:49:45Z</time>
      </trkpt>
      <trkpt lat="42.93559" lon="0.29142">
        <ele>1130.6</ele>
        <time>2021-10-02T06:49:46Z</time>
      </trkpt>
      <trkpt lat="42.93556" lon="0.2914">
        <ele>1130.6</ele>
        <time>2021-10-02T06:49:47Z</time>
      </trkpt>
      <trkpt lat="42.93553" lon="0.29138">
        <ele>1130.8</ele>
        <time>2021-10-02T06:49:48Z</time>
      </trkpt>
      <trkpt lat="42.9355" lon="0.29136">
        <ele>1130.8</ele>
        <time>2021-10-02T06:49:49Z</time>
      </trkpt>
      <trkpt lat="42.93547" lon="0.29133">
        <ele>1130.8</ele>
        <time>2021-10-02T06:49:50Z</time>
      </trkpt>
      <trkpt lat="42.93544" lon="0.29131">
        <ele>1131</ele>
        <time>2021-10-02T06:49:51Z</time>
      </trkpt>
      <trkpt lat="42.93541" lon="0.29128">
        <ele>1131.2</ele>
        <time>2021-10-02T06:49:52Z</time>
      </trkpt>
      <trkpt lat="42.93538" lon="0.29126">
        <ele>1131.2</ele>
        <time>2021-10-02T06:49:53Z</time>
      </trkpt>
      <trkpt lat="42.93535" lon="0.29123">
        <ele>1131.4</ele>
        <time>2021-10-02T06:49:54Z</time>
      </trkpt>
      <trkpt lat="42.93532" lon="0.29121">
        <ele>1131.6</ele>
        <time>2021-10-02T06:49:55Z</time>
      </trkpt>
      <trkpt lat="42.93529" lon="0.29119">
        <ele>1131.6</ele>
        <time>2021-10-02T06:49:56Z</time>
      </trkpt>
      <trkpt lat="42.93526" lon="0.29117">
        <ele>1131.8</ele>
        <time>2021-10-02T06:49:57Z</time>
      </trkpt>
      <trkpt lat="42.93523" lon="0.29115">
        <ele>1131.8</ele>
        <time>2021-10-02T06:49:58Z</time>
      </trkpt>
      <trkpt lat="42.93519" lon="0.29114">
        <ele>1132</ele>
        <time>2021-10-02T06:49:59Z</time>
      </trkpt>
      <trkpt lat="42.93516" lon="0.29114">
        <ele>1132</ele>
        <time>2021-10-02T06:50:00Z</time>
      </trkpt>
      <trkpt lat="42.93513" lon="0.29114">
        <ele>1132.2</ele>
        <time>2021-10-02T06:50:01Z</time>
      </trkpt>
      <trkpt lat="42.93509" lon="0.29115">
        <ele>1132.2</ele>
        <time>2021-10-02T06:50:02Z</time>
      </trkpt>
      <trkpt lat="42.93506" lon="0.29115">
        <ele>1132.2</ele>
        <time>2021-10-02T06:50:03Z</time>
      </trkpt>
      <trkpt lat="42.93503" lon="0.29116">
        <ele>1132.4</ele>
        <time>2021-10-02T06:50:04Z</time>
      </trkpt>
      <trkpt lat="42.935" lon="0.29117">
        <ele>1132.6</ele>
        <time>2021-10-02T06:50:05Z</time>
      </trkpt>
      <trkpt lat="42.93497" lon="0.29119">
        <ele>1132.6</ele>
        <time>2021-10-02T06:50:06Z</time>
      </trkpt>
      <trkpt lat="42.93494" lon="0.2912">
        <ele>1132.8</ele>
        <time>2021-10-02T06:50:07Z</time>
      </trkpt>
      <trkpt lat="42.93491" lon="0.29122">
        <ele>1132.8</ele>
        <time>2021-10-02T06:50:08Z</time>
      </trkpt>
      <trkpt lat="42.93487" lon="0.29123">
        <ele>1132.8</ele>
        <time>2021-10-02T06:50:09Z</time>
      </trkpt>
      <trkpt lat="42.93484" lon="0.29125">
        <ele>1133</ele>
        <time>2021-10-02T06:50:10Z</time>
      </trkpt>
      <trkpt lat="42.93481" lon="0.29127">
        <ele>1133</ele>
        <time>2021-10-02T06:50:11Z</time>
      </trkpt>
      <trkpt lat="42.93478" lon="0.29128">
        <ele>1133.2</ele>
        <time>2021-10-02T06:50:12Z</time>
      </trkpt>
      <trkpt lat="42.93475" lon="0.2913">
        <ele>1133.2</ele>
        <time>2021-10-02T06:50:13Z</time>
      </trkpt>
      <trkpt lat="42.93472" lon="0.29131">
        <ele>1133.4</ele>
        <time>2021-10-02T06:50:14Z</time>
      </trkpt>
      <trkpt lat="42.93469" lon="0.29133">
        <ele>1133.6</ele>
        <time>2021-10-02T06:50:15Z</time>
      </trkpt>
      <trkpt lat="42.93466" lon="0.29134">
        <ele>1133.6</ele>
        <time>2021-10-02T06:50:16Z</time>
      </trkpt>
      <trkpt lat="42.93463" lon="0.29136">
        <ele>1133.8</ele>
        <time>2021-10-02T06:50:17Z</time>
      </trkpt>
      <trkpt lat="42.9346" lon="0.29137">
        <ele>1134</ele>
        <time>2021-10-02T06:50:18Z</time>
      </trkpt>
      <trkpt lat="42.93457" lon="0.29139">
        <ele>1134</ele>
        <time>2021-10-02T06:50:19Z</time>
      </trkpt>
      <trkpt lat="42.93455" lon="0.2914">
        <ele>1134.2</ele>
        <time>2021-10-02T06:50:20Z</time>
      </trkpt>
      <trkpt lat="42.93451" lon="0.29142">
        <ele>1134.2</ele>
        <time>2021-10-02T06:50:21Z</time>
      </trkpt>
      <trkpt lat="42.93448" lon="0.29144">
        <ele>1134.4</ele>
        <time>2021-10-02T06:50:22Z</time>
      </trkpt>
      <trkpt lat="42.93445" lon="0.29146">
        <ele>1134.4</ele>
        <time>2021-10-02T06:50:23Z</time>
      </trkpt>
      <trkpt lat="42.93442" lon="0.29148">
        <ele>1134.6</ele>
        <time>2021-10-02T06:50:24Z</time>
      </trkpt>
      <trkpt lat="42.9344" lon="0.29149">
        <ele>1134.6</ele>
        <time>2021-10-02T06:50:25Z</time>
      </trkpt>
      <trkpt lat="42.93437" lon="0.29151">
        <ele>1134.8</ele>
        <time>2021-10-02T06:50:26Z</time>
      </trkpt>
      <trkpt lat="42.93434" lon="0.29153">
        <ele>1135</ele>
        <time>2021-10-02T06:50:27Z</time>
      </trkpt>
      <trkpt lat="42.93431" lon="0.29155">
        <ele>1135</ele>
        <time>2021-10-02T06:50:28Z</time>
      </trkpt>
      <trkpt lat="42.93428" lon="0.29157">
        <ele>1135.4</ele>
        <time>2021-10-02T06:50:29Z</time>
      </trkpt>
      <trkpt lat="42.93425" lon="0.29159">
        <ele>1135.4</ele>
        <time>2021-10-02T06:50:30Z</time>
      </trkpt>
      <trkpt lat="42.93422" lon="0.29161">
        <ele>1135.6</ele>
        <time>2021-10-02T06:50:31Z</time>
      </trkpt>
      <trkpt lat="42.93419" lon="0.29163">
        <ele>1135.8</ele>
        <time>2021-10-02T06:50:32Z</time>
      </trkpt>
      <trkpt lat="42.93416" lon="0.29165">
        <ele>1135.8</ele>
        <time>2021-10-02T06:50:33Z</time>
      </trkpt>
      <trkpt lat="42.93414" lon="0.29167">
        <ele>1136</ele>
        <time>2021-10-02T06:50:34Z</time>
      </trkpt>
      <trkpt lat="42.93411" lon="0.29169">
        <ele>1136.2</ele>
        <time>2021-10-02T06:50:35Z</time>
      </trkpt>
      <trkpt lat="42.93408" lon="0.29171">
        <ele>1136.2</ele>
        <time>2021-10-02T06:50:36Z</time>
      </trkpt>
      <trkpt lat="42.93406" lon="0.29173">
        <ele>1136.4</ele>
        <time>2021-10-02T06:50:37Z</time>
      </trkpt>
      <trkpt lat="42.93403" lon="0.29175">
        <ele>1136.4</ele>
        <time>2021-10-02T06:50:38Z</time>
      </trkpt>
      <trkpt lat="42.934" lon="0.29177">
        <ele>1136.6</ele>
        <time>2021-10-02T06:50:39Z</time>
      </trkpt>
      <trkpt lat="42.93398" lon="0.2918">
        <ele>1136.8</ele>
        <time>2021-10-02T06:50:40Z</time>
      </trkpt>
      <trkpt lat="42.93395" lon="0.29182">
        <ele>1137</ele>
        <time>2021-10-02T06:50:41Z</time>
      </trkpt>
      <trkpt lat="42.93392" lon="0.29184">
        <ele>1137</ele>
        <time>2021-10-02T06:50:42Z</time>
      </trkpt>
      <trkpt lat="42.93389" lon="0.29186">
        <ele>1137.2</ele>
        <time>2021-10-02T06:50:43Z</time>
      </trkpt>
      <trkpt lat="42.93387" lon="0.29187">
        <ele>1137.2</ele>
        <time>2021-10-02T06:50:44Z</time>
      </trkpt>
      <trkpt lat="42.93384" lon="0.29189">
        <ele>1137.4</ele>
        <time>2021-10-02T06:50:45Z</time>
      </trkpt>
      <trkpt lat="42.93381" lon="0.29191">
        <ele>1137.4</ele>
        <time>2021-10-02T06:50:46Z</time>
      </trkpt>
      <trkpt lat="42.93378" lon="0.29194">
        <ele>1137.6</ele>
        <time>2021-10-02T06:50:47Z</time>
      </trkpt>
      <trkpt lat="42.93376" lon="0.29195">
        <ele>1137.8</ele>
        <time>2021-10-02T06:50:48Z</time>
      </trkpt>
      <trkpt lat="42.93373" lon="0.29197">
        <ele>1137.8</ele>
        <time>2021-10-02T06:50:49Z</time>
      </trkpt>
      <trkpt lat="42.9337" lon="0.29199">
        <ele>1138</ele>
        <time>2021-10-02T06:50:50Z</time>
      </trkpt>
      <trkpt lat="42.93368" lon="0.29202">
        <ele>1138</ele>
        <time>2021-10-02T06:50:51Z</time>
      </trkpt>
      <trkpt lat="42.93365" lon="0.29204">
        <ele>1138.2</ele>
        <time>2021-10-02T06:50:52Z</time>
      </trkpt>
      <trkpt lat="42.93362" lon="0.29206">
        <ele>1138.2</ele>
        <time>2021-10-02T06:50:53Z</time>
      </trkpt>
      <trkpt lat="42.9336" lon="0.29208">
        <ele>1138.6</ele>
        <time>2021-10-02T06:50:54Z</time>
      </trkpt>
      <trkpt lat="42.93357" lon="0.2921">
        <ele>1138.8</ele>
        <time>2021-10-02T06:50:55Z</time>
      </trkpt>
      <trkpt lat="42.93354" lon="0.29212">
        <ele>1139</ele>
        <time>2021-10-02T06:50:56Z</time>
      </trkpt>
      <trkpt lat="42.93352" lon="0.29215">
        <ele>1139.2</ele>
        <time>2021-10-02T06:50:57Z</time>
      </trkpt>
      <trkpt lat="42.93349" lon="0.29217">
        <ele>1139.4</ele>
        <time>2021-10-02T06:50:58Z</time>
      </trkpt>
      <trkpt lat="42.93347" lon="0.29219">
        <ele>1139.4</ele>
        <time>2021-10-02T06:50:59Z</time>
      </trkpt>
      <trkpt lat="42.93345" lon="0.29221">
        <ele>1139.6</ele>
        <time>2021-10-02T06:51:00Z</time>
      </trkpt>
      <trkpt lat="42.93343" lon="0.29224">
        <ele>1139.8</ele>
        <time>2021-10-02T06:51:01Z</time>
      </trkpt>
      <trkpt lat="42.93341" lon="0.29227">
        <ele>1140</ele>
        <time>2021-10-02T06:51:02Z</time>
      </trkpt>
      <trkpt lat="42.93338" lon="0.2923">
        <ele>1140.2</ele>
        <time>2021-10-02T06:51:03Z</time>
      </trkpt>
      <trkpt lat="42.93336" lon="0.29232">
        <ele>1140.2</ele>
        <time>2021-10-02T06:51:04Z</time>
      </trkpt>
      <trkpt lat="42.93334" lon="0.29235">
        <ele>1140.6</ele>
        <time>2021-10-02T06:51:05Z</time>
      </trkpt>
      <trkpt lat="42.93332" lon="0.29238">
        <ele>1140.6</ele>
        <time>2021-10-02T06:51:06Z</time>
      </trkpt>
      <trkpt lat="42.9333" lon="0.29241">
        <ele>1140.8</ele>
        <time>2021-10-02T06:51:07Z</time>
      </trkpt>
      <trkpt lat="42.93328" lon="0.29244">
        <ele>1140.8</ele>
        <time>2021-10-02T06:51:08Z</time>
      </trkpt>
      <trkpt lat="42.93327" lon="0.29247">
        <ele>1141.2</ele>
        <time>2021-10-02T06:51:09Z</time>
      </trkpt>
      <trkpt lat="42.93325" lon="0.2925">
        <ele>1141.2</ele>
        <time>2021-10-02T06:51:10Z</time>
      </trkpt>
      <trkpt lat="42.93324" lon="0.29253">
        <ele>1141.4</ele>
        <time>2021-10-02T06:51:11Z</time>
      </trkpt>
      <trkpt lat="42.93322" lon="0.29256">
        <ele>1141.6</ele>
        <time>2021-10-02T06:51:12Z</time>
      </trkpt>
      <trkpt lat="42.9332" lon="0.29259">
        <ele>1141.6</ele>
        <time>2021-10-02T06:51:13Z</time>
      </trkpt>
      <trkpt lat="42.93319" lon="0.29262">
        <ele>1141.8</ele>
        <time>2021-10-02T06:51:14Z</time>
      </trkpt>
      <trkpt lat="42.93317" lon="0.29265">
        <ele>1142</ele>
        <time>2021-10-02T06:51:15Z</time>
      </trkpt>
      <trkpt lat="42.93315" lon="0.29267">
        <ele>1142.2</ele>
        <time>2021-10-02T06:51:16Z</time>
      </trkpt>
      <trkpt lat="42.93313" lon="0.2927">
        <ele>1142.4</ele>
        <time>2021-10-02T06:51:17Z</time>
      </trkpt>
      <trkpt lat="42.93311" lon="0.29272">
        <ele>1142.6</ele>
        <time>2021-10-02T06:51:18Z</time>
      </trkpt>
      <trkpt lat="42.93309" lon="0.29274">
        <ele>1142.8</ele>
        <time>2021-10-02T06:51:19Z</time>
      </trkpt>
      <trkpt lat="42.93307" lon="0.29277">
        <ele>1143.2</ele>
        <time>2021-10-02T06:51:20Z</time>
      </trkpt>
      <trkpt lat="42.93305" lon="0.29279">
        <ele>1143.2</ele>
        <time>2021-10-02T06:51:21Z</time>
      </trkpt>
      <trkpt lat="42.93304" lon="0.29282">
        <ele>1143.4</ele>
        <time>2021-10-02T06:51:22Z</time>
      </trkpt>
      <trkpt lat="42.93302" lon="0.29284">
        <ele>1143.6</ele>
        <time>2021-10-02T06:51:23Z</time>
      </trkpt>
      <trkpt lat="42.933" lon="0.29287">
        <ele>1144</ele>
        <time>2021-10-02T06:51:24Z</time>
      </trkpt>
      <trkpt lat="42.93298" lon="0.29289">
        <ele>1144.2</ele>
        <time>2021-10-02T06:51:25Z</time>
      </trkpt>
      <trkpt lat="42.93296" lon="0.29291">
        <ele>1144.4</ele>
        <time>2021-10-02T06:51:26Z</time>
      </trkpt>
      <trkpt lat="42.93294" lon="0.29293">
        <ele>1144.4</ele>
        <time>2021-10-02T06:51:27Z</time>
      </trkpt>
      <trkpt lat="42.93291" lon="0.29296">
        <ele>1144.6</ele>
        <time>2021-10-02T06:51:28Z</time>
      </trkpt>
      <trkpt lat="42.93289" lon="0.29298">
        <ele>1144.8</ele>
        <time>2021-10-02T06:51:29Z</time>
      </trkpt>
      <trkpt lat="42.93287" lon="0.293">
        <ele>1144.8</ele>
        <time>2021-10-02T06:51:30Z</time>
      </trkpt>
      <trkpt lat="42.93284" lon="0.29302">
        <ele>1145</ele>
        <time>2021-10-02T06:51:31Z</time>
      </trkpt>
      <trkpt lat="42.93282" lon="0.29304">
        <ele>1145.2</ele>
        <time>2021-10-02T06:51:32Z</time>
      </trkpt>
      <trkpt lat="42.93279" lon="0.29306">
        <ele>1145.2</ele>
        <time>2021-10-02T06:51:33Z</time>
      </trkpt>
      <trkpt lat="42.93276" lon="0.29308">
        <ele>1145.2</ele>
        <time>2021-10-02T06:51:34Z</time>
      </trkpt>
      <trkpt lat="42.93273" lon="0.2931">
        <ele>1145.4</ele>
        <time>2021-10-02T06:51:35Z</time>
      </trkpt>
      <trkpt lat="42.93271" lon="0.29312">
        <ele>1145.4</ele>
        <time>2021-10-02T06:51:36Z</time>
      </trkpt>
      <trkpt lat="42.93268" lon="0.29314">
        <ele>1145.6</ele>
        <time>2021-10-02T06:51:37Z</time>
      </trkpt>
      <trkpt lat="42.93266" lon="0.29316">
        <ele>1145.8</ele>
        <time>2021-10-02T06:51:38Z</time>
      </trkpt>
      <trkpt lat="42.93263" lon="0.29318">
        <ele>1145.8</ele>
        <time>2021-10-02T06:51:39Z</time>
      </trkpt>
      <trkpt lat="42.9326" lon="0.29319">
        <ele>1146</ele>
        <time>2021-10-02T06:51:40Z</time>
      </trkpt>
      <trkpt lat="42.93257" lon="0.29321">
        <ele>1146</ele>
        <time>2021-10-02T06:51:41Z</time>
      </trkpt>
      <trkpt lat="42.93255" lon="0.29323">
        <ele>1146</ele>
        <time>2021-10-02T06:51:42Z</time>
      </trkpt>
      <trkpt lat="42.93252" lon="0.29324">
        <ele>1146.2</ele>
        <time>2021-10-02T06:51:43Z</time>
      </trkpt>
      <trkpt lat="42.93249" lon="0.29327">
        <ele>1146.4</ele>
        <time>2021-10-02T06:51:44Z</time>
      </trkpt>
      <trkpt lat="42.93247" lon="0.29329">
        <ele>1146.6</ele>
        <time>2021-10-02T06:51:45Z</time>
      </trkpt>
      <trkpt lat="42.93244" lon="0.2933">
        <ele>1146.6</ele>
        <time>2021-10-02T06:51:46Z</time>
      </trkpt>
      <trkpt lat="42.93242" lon="0.29332">
        <ele>1146.8</ele>
        <time>2021-10-02T06:51:47Z</time>
      </trkpt>
      <trkpt lat="42.93239" lon="0.29334">
        <ele>1146.8</ele>
        <time>2021-10-02T06:51:48Z</time>
      </trkpt>
      <trkpt lat="42.93237" lon="0.29335">
        <ele>1146.8</ele>
        <time>2021-10-02T06:51:49Z</time>
      </trkpt>
      <trkpt lat="42.93234" lon="0.29337">
        <ele>1146.8</ele>
        <time>2021-10-02T06:51:50Z</time>
      </trkpt>
      <trkpt lat="42.93231" lon="0.29338">
        <ele>1147</ele>
        <time>2021-10-02T06:51:51Z</time>
      </trkpt>
      <trkpt lat="42.93229" lon="0.29339">
        <ele>1147</ele>
        <time>2021-10-02T06:51:52Z</time>
      </trkpt>
      <trkpt lat="42.93227" lon="0.29341">
        <ele>1147</ele>
        <time>2021-10-02T06:51:53Z</time>
      </trkpt>
      <trkpt lat="42.93224" lon="0.29343">
        <ele>1147</ele>
        <time>2021-10-02T06:51:54Z</time>
      </trkpt>
      <trkpt lat="42.93222" lon="0.29345">
        <ele>1147.4</ele>
        <time>2021-10-02T06:51:55Z</time>
      </trkpt>
      <trkpt lat="42.9322" lon="0.29347">
        <ele>1147.4</ele>
        <time>2021-10-02T06:51:56Z</time>
      </trkpt>
      <trkpt lat="42.93218" lon="0.29348">
        <ele>1147.6</ele>
        <time>2021-10-02T06:51:57Z</time>
      </trkpt>
      <trkpt lat="42.93216" lon="0.29349">
        <ele>1147.6</ele>
        <time>2021-10-02T06:51:58Z</time>
      </trkpt>
      <trkpt lat="42.93214" lon="0.29351">
        <ele>1147.8</ele>
        <time>2021-10-02T06:51:59Z</time>
      </trkpt>
      <trkpt lat="42.93212" lon="0.29352">
        <ele>1147.8</ele>
        <time>2021-10-02T06:52:00Z</time>
      </trkpt>
      <trkpt lat="42.9321" lon="0.29354">
        <ele>1148</ele>
        <time>2021-10-02T06:52:01Z</time>
      </trkpt>
      <trkpt lat="42.93208" lon="0.29355">
        <ele>1148.2</ele>
        <time>2021-10-02T06:52:02Z</time>
      </trkpt>
      <trkpt lat="42.93206" lon="0.29357">
        <ele>1148.2</ele>
        <time>2021-10-02T06:52:03Z</time>
      </trkpt>
      <trkpt lat="42.93204" lon="0.29358">
        <ele>1148.4</ele>
        <time>2021-10-02T06:52:04Z</time>
      </trkpt>
      <trkpt lat="42.93202" lon="0.29359">
        <ele>1148.4</ele>
        <time>2021-10-02T06:52:05Z</time>
      </trkpt>
      <trkpt lat="42.932" lon="0.29361">
        <ele>1148.6</ele>
        <time>2021-10-02T06:52:06Z</time>
      </trkpt>
      <trkpt lat="42.93198" lon="0.29362">
        <ele>1148.8</ele>
        <time>2021-10-02T06:52:07Z</time>
      </trkpt>
      <trkpt lat="42.93196" lon="0.29363">
        <ele>1149</ele>
        <time>2021-10-02T06:52:08Z</time>
      </trkpt>
      <trkpt lat="42.93193" lon="0.29364">
        <ele>1149.2</ele>
        <time>2021-10-02T06:52:09Z</time>
      </trkpt>
      <trkpt lat="42.93192" lon="0.29365">
        <ele>1149.4</ele>
        <time>2021-10-02T06:52:10Z</time>
      </trkpt>
      <trkpt lat="42.93189" lon="0.29365">
        <ele>1149.6</ele>
        <time>2021-10-02T06:52:11Z</time>
      </trkpt>
      <trkpt lat="42.93187" lon="0.29366">
        <ele>1149.8</ele>
        <time>2021-10-02T06:52:12Z</time>
      </trkpt>
      <trkpt lat="42.93185" lon="0.29367">
        <ele>1149.8</ele>
        <time>2021-10-02T06:52:13Z</time>
      </trkpt>
      <trkpt lat="42.93182" lon="0.29368">
        <ele>1150</ele>
        <time>2021-10-02T06:52:14Z</time>
      </trkpt>
      <trkpt lat="42.93181" lon="0.29369">
        <ele>1150.2</ele>
        <time>2021-10-02T06:52:15Z</time>
      </trkpt>
      <trkpt lat="42.93179" lon="0.29369">
        <ele>1150.4</ele>
        <time>2021-10-02T06:52:16Z</time>
      </trkpt>
      <trkpt lat="42.93176" lon="0.2937">
        <ele>1150.6</ele>
        <time>2021-10-02T06:52:17Z</time>
      </trkpt>
      <trkpt lat="42.93174" lon="0.29371">
        <ele>1150.8</ele>
        <time>2021-10-02T06:52:18Z</time>
      </trkpt>
      <trkpt lat="42.93172" lon="0.29372">
        <ele>1151</ele>
        <time>2021-10-02T06:52:19Z</time>
      </trkpt>
      <trkpt lat="42.9317" lon="0.29373">
        <ele>1151</ele>
        <time>2021-10-02T06:52:20Z</time>
      </trkpt>
      <trkpt lat="42.93168" lon="0.29374">
        <ele>1151.4</ele>
        <time>2021-10-02T06:52:21Z</time>
      </trkpt>
      <trkpt lat="42.93165" lon="0.29375">
        <ele>1151.6</ele>
        <time>2021-10-02T06:52:22Z</time>
      </trkpt>
      <trkpt lat="42.93164" lon="0.29376">
        <ele>1152</ele>
        <time>2021-10-02T06:52:23Z</time>
      </trkpt>
      <trkpt lat="42.93162" lon="0.29376">
        <ele>1152</ele>
        <time>2021-10-02T06:52:24Z</time>
      </trkpt>
      <trkpt lat="42.9316" lon="0.29376">
        <ele>1152.2</ele>
        <time>2021-10-02T06:52:25Z</time>
      </trkpt>
      <trkpt lat="42.93158" lon="0.29377">
        <ele>1152.4</ele>
        <time>2021-10-02T06:52:26Z</time>
      </trkpt>
      <trkpt lat="42.93156" lon="0.29377">
        <ele>1152.6</ele>
        <time>2021-10-02T06:52:27Z</time>
      </trkpt>
      <trkpt lat="42.93154" lon="0.29378">
        <ele>1152.8</ele>
        <time>2021-10-02T06:52:28Z</time>
      </trkpt>
      <trkpt lat="42.93152" lon="0.29378">
        <ele>1153</ele>
        <time>2021-10-02T06:52:29Z</time>
      </trkpt>
      <trkpt lat="42.93149" lon="0.29378">
        <ele>1153.2</ele>
        <time>2021-10-02T06:52:30Z</time>
      </trkpt>
      <trkpt lat="42.93147" lon="0.29378">
        <ele>1153.6</ele>
        <time>2021-10-02T06:52:31Z</time>
      </trkpt>
      <trkpt lat="42.93145" lon="0.29379">
        <ele>1153.8</ele>
        <time>2021-10-02T06:52:32Z</time>
      </trkpt>
      <trkpt lat="42.93144" lon="0.29379">
        <ele>1154</ele>
        <time>2021-10-02T06:52:33Z</time>
      </trkpt>
      <trkpt lat="42.93142" lon="0.29379">
        <ele>1154.4</ele>
        <time>2021-10-02T06:52:34Z</time>
      </trkpt>
      <trkpt lat="42.9314" lon="0.29379">
        <ele>1154.4</ele>
        <time>2021-10-02T06:52:35Z</time>
      </trkpt>
      <trkpt lat="42.93138" lon="0.29378">
        <ele>1155</ele>
        <time>2021-10-02T06:52:36Z</time>
      </trkpt>
      <trkpt lat="42.93136" lon="0.29378">
        <ele>1155.2</ele>
        <time>2021-10-02T06:52:37Z</time>
      </trkpt>
      <trkpt lat="42.93134" lon="0.29378">
        <ele>1155.4</ele>
        <time>2021-10-02T06:52:38Z</time>
      </trkpt>
      <trkpt lat="42.93131" lon="0.29378">
        <ele>1155.6</ele>
        <time>2021-10-02T06:52:39Z</time>
      </trkpt>
      <trkpt lat="42.93129" lon="0.29378">
        <ele>1155.8</ele>
        <time>2021-10-02T06:52:40Z</time>
      </trkpt>
      <trkpt lat="42.93127" lon="0.29378">
        <ele>1156</ele>
        <time>2021-10-02T06:52:41Z</time>
      </trkpt>
      <trkpt lat="42.93126" lon="0.29377">
        <ele>1156.2</ele>
        <time>2021-10-02T06:52:42Z</time>
      </trkpt>
      <trkpt lat="42.93123" lon="0.29377">
        <ele>1156.4</ele>
        <time>2021-10-02T06:52:43Z</time>
      </trkpt>
      <trkpt lat="42.93121" lon="0.29377">
        <ele>1156.6</ele>
        <time>2021-10-02T06:52:44Z</time>
      </trkpt>
      <trkpt lat="42.93119" lon="0.29377">
        <ele>1156.8</ele>
        <time>2021-10-02T06:52:45Z</time>
      </trkpt>
      <trkpt lat="42.93117" lon="0.29377">
        <ele>1156.8</ele>
        <time>2021-10-02T06:52:46Z</time>
      </trkpt>
      <trkpt lat="42.93115" lon="0.29377">
        <ele>1157</ele>
        <time>2021-10-02T06:52:47Z</time>
      </trkpt>
      <trkpt lat="42.93112" lon="0.29377">
        <ele>1157.4</ele>
        <time>2021-10-02T06:52:48Z</time>
      </trkpt>
      <trkpt lat="42.9311" lon="0.29378">
        <ele>1157.6</ele>
        <time>2021-10-02T06:52:49Z</time>
      </trkpt>
      <trkpt lat="42.93108" lon="0.29378">
        <ele>1157.8</ele>
        <time>2021-10-02T06:52:50Z</time>
      </trkpt>
      <trkpt lat="42.93105" lon="0.29378">
        <ele>1158</ele>
        <time>2021-10-02T06:52:51Z</time>
      </trkpt>
      <trkpt lat="42.93103" lon="0.29377">
        <ele>1158.2</ele>
        <time>2021-10-02T06:52:52Z</time>
      </trkpt>
      <trkpt lat="42.93101" lon="0.29378">
        <ele>1158.4</ele>
        <time>2021-10-02T06:52:53Z</time>
      </trkpt>
      <trkpt lat="42.93099" lon="0.29377">
        <ele>1158.4</ele>
        <time>2021-10-02T06:52:54Z</time>
      </trkpt>
      <trkpt lat="42.93096" lon="0.29377">
        <ele>1158.6</ele>
        <time>2021-10-02T06:52:55Z</time>
      </trkpt>
      <trkpt lat="42.93093" lon="0.29377">
        <ele>1158.8</ele>
        <time>2021-10-02T06:52:56Z</time>
      </trkpt>
      <trkpt lat="42.93091" lon="0.29378">
        <ele>1159</ele>
        <time>2021-10-02T06:52:57Z</time>
      </trkpt>
      <trkpt lat="42.93089" lon="0.29378">
        <ele>1159</ele>
        <time>2021-10-02T06:52:58Z</time>
      </trkpt>
      <trkpt lat="42.93086" lon="0.29378">
        <ele>1159</ele>
        <time>2021-10-02T06:52:59Z</time>
      </trkpt>
      <trkpt lat="42.93084" lon="0.29378">
        <ele>1159.4</ele>
        <time>2021-10-02T06:53:00Z</time>
      </trkpt>
      <trkpt lat="42.93082" lon="0.29379">
        <ele>1159.6</ele>
        <time>2021-10-02T06:53:01Z</time>
      </trkpt>
      <trkpt lat="42.93079" lon="0.29379">
        <ele>1159.6</ele>
        <time>2021-10-02T06:53:02Z</time>
      </trkpt>
      <trkpt lat="42.93077" lon="0.29379">
        <ele>1160</ele>
        <time>2021-10-02T06:53:03Z</time>
      </trkpt>
      <trkpt lat="42.93074" lon="0.2938">
        <ele>1160</ele>
        <time>2021-10-02T06:53:04Z</time>
      </trkpt>
      <trkpt lat="42.93072" lon="0.29381">
        <ele>1160.2</ele>
        <time>2021-10-02T06:53:05Z</time>
      </trkpt>
      <trkpt lat="42.9307" lon="0.29381">
        <ele>1160.4</ele>
        <time>2021-10-02T06:53:06Z</time>
      </trkpt>
      <trkpt lat="42.93068" lon="0.29381">
        <ele>1160.6</ele>
        <time>2021-10-02T06:53:07Z</time>
      </trkpt>
      <trkpt lat="42.93065" lon="0.29381">
        <ele>1160.6</ele>
        <time>2021-10-02T06:53:08Z</time>
      </trkpt>
      <trkpt lat="42.93062" lon="0.29381">
        <ele>1160.6</ele>
        <time>2021-10-02T06:53:09Z</time>
      </trkpt>
      <trkpt lat="42.9306" lon="0.29381">
        <ele>1160.8</ele>
        <time>2021-10-02T06:53:10Z</time>
      </trkpt>
      <trkpt lat="42.93058" lon="0.29382">
        <ele>1160.8</ele>
        <time>2021-10-02T06:53:11Z</time>
      </trkpt>
      <trkpt lat="42.93054" lon="0.29382">
        <ele>1161.2</ele>
        <time>2021-10-02T06:53:12Z</time>
      </trkpt>
      <trkpt lat="42.93052" lon="0.29382">
        <ele>1161.4</ele>
        <time>2021-10-02T06:53:13Z</time>
      </trkpt>
      <trkpt lat="42.9305" lon="0.29382">
        <ele>1161.4</ele>
        <time>2021-10-02T06:53:14Z</time>
      </trkpt>
      <trkpt lat="42.93047" lon="0.29381">
        <ele>1161.6</ele>
        <time>2021-10-02T06:53:15Z</time>
      </trkpt>
      <trkpt lat="42.93045" lon="0.29381">
        <ele>1161.6</ele>
        <time>2021-10-02T06:53:16Z</time>
      </trkpt>
      <trkpt lat="42.93043" lon="0.2938">
        <ele>1161.8</ele>
        <time>2021-10-02T06:53:17Z</time>
      </trkpt>
      <trkpt lat="42.93041" lon="0.2938">
        <ele>1162</ele>
        <time>2021-10-02T06:53:18Z</time>
      </trkpt>
      <trkpt lat="42.93038" lon="0.2938">
        <ele>1162</ele>
        <time>2021-10-02T06:53:19Z</time>
      </trkpt>
      <trkpt lat="42.93036" lon="0.2938">
        <ele>1162.2</ele>
        <time>2021-10-02T06:53:20Z</time>
      </trkpt>
      <trkpt lat="42.93034" lon="0.2938">
        <ele>1162.2</ele>
        <time>2021-10-02T06:53:21Z</time>
      </trkpt>
      <trkpt lat="42.93032" lon="0.29381">
        <ele>1162.4</ele>
        <time>2021-10-02T06:53:22Z</time>
      </trkpt>
      <trkpt lat="42.9303" lon="0.29381">
        <ele>1162.4</ele>
        <time>2021-10-02T06:53:23Z</time>
      </trkpt>
      <trkpt lat="42.93028" lon="0.2938">
        <ele>1162.4</ele>
        <time>2021-10-02T06:53:24Z</time>
      </trkpt>
      <trkpt lat="42.93026" lon="0.2938">
        <ele>1162.6</ele>
        <time>2021-10-02T06:53:25Z</time>
      </trkpt>
      <trkpt lat="42.93023" lon="0.29379">
        <ele>1162.8</ele>
        <time>2021-10-02T06:53:26Z</time>
      </trkpt>
      <trkpt lat="42.93021" lon="0.29379">
        <ele>1163</ele>
        <time>2021-10-02T06:53:27Z</time>
      </trkpt>
      <trkpt lat="42.93019" lon="0.29378">
        <ele>1163.2</ele>
        <time>2021-10-02T06:53:28Z</time>
      </trkpt>
      <trkpt lat="42.93017" lon="0.29378">
        <ele>1163.4</ele>
        <time>2021-10-02T06:53:29Z</time>
      </trkpt>
      <trkpt lat="42.93015" lon="0.29377">
        <ele>1163.6</ele>
        <time>2021-10-02T06:53:30Z</time>
      </trkpt>
      <trkpt lat="42.93012" lon="0.29377">
        <ele>1163.6</ele>
        <time>2021-10-02T06:53:31Z</time>
      </trkpt>
      <trkpt lat="42.9301" lon="0.29376">
        <ele>1163.8</ele>
        <time>2021-10-02T06:53:32Z</time>
      </trkpt>
      <trkpt lat="42.93006" lon="0.29377">
        <ele>1164</ele>
        <time>2021-10-02T06:53:33Z</time>
      </trkpt>
      <trkpt lat="42.93003" lon="0.29376">
        <ele>1164.2</ele>
        <time>2021-10-02T06:53:35Z</time>
      </trkpt>
      <trkpt lat="42.93" lon="0.29376">
        <ele>1164.4</ele>
        <time>2021-10-02T06:53:36Z</time>
      </trkpt>
      <trkpt lat="42.92998" lon="0.29375">
        <ele>1164.4</ele>
        <time>2021-10-02T06:53:37Z</time>
      </trkpt>
      <trkpt lat="42.92995" lon="0.29375">
        <ele>1164.6</ele>
        <time>2021-10-02T06:53:38Z</time>
      </trkpt>
      <trkpt lat="42.92992" lon="0.29374">
        <ele>1164.8</ele>
        <time>2021-10-02T06:53:39Z</time>
      </trkpt>
      <trkpt lat="42.92989" lon="0.29374">
        <ele>1165</ele>
        <time>2021-10-02T06:53:40Z</time>
      </trkpt>
      <trkpt lat="42.92986" lon="0.29374">
        <ele>1165</ele>
        <time>2021-10-02T06:53:41Z</time>
      </trkpt>
      <trkpt lat="42.92983" lon="0.29373">
        <ele>1165.2</ele>
        <time>2021-10-02T06:53:42Z</time>
      </trkpt>
      <trkpt lat="42.92981" lon="0.29373">
        <ele>1165.2</ele>
        <time>2021-10-02T06:53:43Z</time>
      </trkpt>
      <trkpt lat="42.92979" lon="0.29374">
        <ele>1165.4</ele>
        <time>2021-10-02T06:53:44Z</time>
      </trkpt>
      <trkpt lat="42.92977" lon="0.29373">
        <ele>1165.6</ele>
        <time>2021-10-02T06:53:45Z</time>
      </trkpt>
      <trkpt lat="42.92974" lon="0.29373">
        <ele>1166</ele>
        <time>2021-10-02T06:53:46Z</time>
      </trkpt>
      <trkpt lat="42.92972" lon="0.29372">
        <ele>1166</ele>
        <time>2021-10-02T06:53:47Z</time>
      </trkpt>
      <trkpt lat="42.9297" lon="0.29372">
        <ele>1166.2</ele>
        <time>2021-10-02T06:53:48Z</time>
      </trkpt>
      <trkpt lat="42.92967" lon="0.29372">
        <ele>1166.2</ele>
        <time>2021-10-02T06:53:49Z</time>
      </trkpt>
      <trkpt lat="42.92965" lon="0.29372">
        <ele>1166.4</ele>
        <time>2021-10-02T06:53:50Z</time>
      </trkpt>
      <trkpt lat="42.92963" lon="0.29373">
        <ele>1166.6</ele>
        <time>2021-10-02T06:53:51Z</time>
      </trkpt>
      <trkpt lat="42.92961" lon="0.29373">
        <ele>1166.8</ele>
        <time>2021-10-02T06:53:52Z</time>
      </trkpt>
      <trkpt lat="42.92959" lon="0.29373">
        <ele>1167.2</ele>
        <time>2021-10-02T06:53:53Z</time>
      </trkpt>
      <trkpt lat="42.92957" lon="0.29372">
        <ele>1167.4</ele>
        <time>2021-10-02T06:53:54Z</time>
      </trkpt>
      <trkpt lat="42.92955" lon="0.29372">
        <ele>1167.4</ele>
        <time>2021-10-02T06:53:55Z</time>
      </trkpt>
      <trkpt lat="42.92952" lon="0.29371">
        <ele>1167.6</ele>
        <time>2021-10-02T06:53:56Z</time>
      </trkpt>
      <trkpt lat="42.92949" lon="0.29371">
        <ele>1167.8</ele>
        <time>2021-10-02T06:53:57Z</time>
      </trkpt>
      <trkpt lat="42.92947" lon="0.29371">
        <ele>1168</ele>
        <time>2021-10-02T06:53:58Z</time>
      </trkpt>
      <trkpt lat="42.92944" lon="0.29371">
        <ele>1168.2</ele>
        <time>2021-10-02T06:53:59Z</time>
      </trkpt>
      <trkpt lat="42.92941" lon="0.2937">
        <ele>1168.2</ele>
        <time>2021-10-02T06:54:00Z</time>
      </trkpt>
      <trkpt lat="42.92939" lon="0.29369">
        <ele>1168.4</ele>
        <time>2021-10-02T06:54:01Z</time>
      </trkpt>
      <trkpt lat="42.92937" lon="0.29369">
        <ele>1168.4</ele>
        <time>2021-10-02T06:54:02Z</time>
      </trkpt>
      <trkpt lat="42.92935" lon="0.29368">
        <ele>1168.6</ele>
        <time>2021-10-02T06:54:03Z</time>
      </trkpt>
      <trkpt lat="42.92933" lon="0.29368">
        <ele>1168.6</ele>
        <time>2021-10-02T06:54:04Z</time>
      </trkpt>
      <trkpt lat="42.92932" lon="0.29367">
        <ele>1168.8</ele>
        <time>2021-10-02T06:54:05Z</time>
      </trkpt>
      <trkpt lat="42.9293" lon="0.29366">
        <ele>1169</ele>
        <time>2021-10-02T06:54:06Z</time>
      </trkpt>
      <trkpt lat="42.92928" lon="0.29365">
        <ele>1169.2</ele>
        <time>2021-10-02T06:54:07Z</time>
      </trkpt>
      <trkpt lat="42.92927" lon="0.29364">
        <ele>1169.4</ele>
        <time>2021-10-02T06:54:08Z</time>
      </trkpt>
      <trkpt lat="42.92925" lon="0.29364">
        <ele>1169.6</ele>
        <time>2021-10-02T06:54:09Z</time>
      </trkpt>
      <trkpt lat="42.92923" lon="0.29364">
        <ele>1169.8</ele>
        <time>2021-10-02T06:54:10Z</time>
      </trkpt>
      <trkpt lat="42.92921" lon="0.29363">
        <ele>1170.2</ele>
        <time>2021-10-02T06:54:11Z</time>
      </trkpt>
      <trkpt lat="42.92919" lon="0.29363">
        <ele>1170.4</ele>
        <time>2021-10-02T06:54:12Z</time>
      </trkpt>
      <trkpt lat="42.92916" lon="0.29363">
        <ele>1170.6</ele>
        <time>2021-10-02T06:54:13Z</time>
      </trkpt>
      <trkpt lat="42.92913" lon="0.29363">
        <ele>1170.6</ele>
        <time>2021-10-02T06:54:14Z</time>
      </trkpt>
      <trkpt lat="42.92912" lon="0.29363">
        <ele>1170.8</ele>
        <time>2021-10-02T06:54:15Z</time>
      </trkpt>
      <trkpt lat="42.9291" lon="0.29362">
        <ele>1170.8</ele>
        <time>2021-10-02T06:54:16Z</time>
      </trkpt>
      <trkpt lat="42.92907" lon="0.29362">
        <ele>1171</ele>
        <time>2021-10-02T06:54:17Z</time>
      </trkpt>
      <trkpt lat="42.92905" lon="0.29361">
        <ele>1171.4</ele>
        <time>2021-10-02T06:54:18Z</time>
      </trkpt>
      <trkpt lat="42.92903" lon="0.29361">
        <ele>1171.4</ele>
        <time>2021-10-02T06:54:19Z</time>
      </trkpt>
      <trkpt lat="42.92902" lon="0.29361">
        <ele>1171.6</ele>
        <time>2021-10-02T06:54:20Z</time>
      </trkpt>
      <trkpt lat="42.92899" lon="0.29361">
        <ele>1171.8</ele>
        <time>2021-10-02T06:54:21Z</time>
      </trkpt>
      <trkpt lat="42.92897" lon="0.2936">
        <ele>1172</ele>
        <time>2021-10-02T06:54:22Z</time>
      </trkpt>
      <trkpt lat="42.92895" lon="0.2936">
        <ele>1172.2</ele>
        <time>2021-10-02T06:54:23Z</time>
      </trkpt>
      <trkpt lat="42.92892" lon="0.29359">
        <ele>1172.4</ele>
        <time>2021-10-02T06:54:24Z</time>
      </trkpt>
      <trkpt lat="42.92891" lon="0.29358">
        <ele>1172.6</ele>
        <time>2021-10-02T06:54:25Z</time>
      </trkpt>
      <trkpt lat="42.92888" lon="0.29358">
        <ele>1173</ele>
        <time>2021-10-02T06:54:26Z</time>
      </trkpt>
      <trkpt lat="42.92887" lon="0.29358">
        <ele>1173</ele>
        <time>2021-10-02T06:54:27Z</time>
      </trkpt>
      <trkpt lat="42.92883" lon="0.29357">
        <ele>1173.2</ele>
        <time>2021-10-02T06:54:28Z</time>
      </trkpt>
      <trkpt lat="42.92879" lon="0.29356">
        <ele>1173.2</ele>
        <time>2021-10-02T06:54:29Z</time>
      </trkpt>
      <trkpt lat="42.92877" lon="0.29356">
        <ele>1173.8</ele>
        <time>2021-10-02T06:54:30Z</time>
      </trkpt>
      <trkpt lat="42.92875" lon="0.29355">
        <ele>1174</ele>
        <time>2021-10-02T06:54:31Z</time>
      </trkpt>
      <trkpt lat="42.92872" lon="0.29356">
        <ele>1174</ele>
        <time>2021-10-02T06:54:32Z</time>
      </trkpt>
      <trkpt lat="42.9287" lon="0.29355">
        <ele>1174.2</ele>
        <time>2021-10-02T06:54:33Z</time>
      </trkpt>
      <trkpt lat="42.92868" lon="0.29355">
        <ele>1174.4</ele>
        <time>2021-10-02T06:54:34Z</time>
      </trkpt>
      <trkpt lat="42.92866" lon="0.29354">
        <ele>1174.6</ele>
        <time>2021-10-02T06:54:35Z</time>
      </trkpt>
      <trkpt lat="42.92865" lon="0.29354">
        <ele>1174.6</ele>
        <time>2021-10-02T06:54:36Z</time>
      </trkpt>
      <trkpt lat="42.92863" lon="0.29354">
        <ele>1174.8</ele>
        <time>2021-10-02T06:54:37Z</time>
      </trkpt>
      <trkpt lat="42.92861" lon="0.29355">
        <ele>1175</ele>
        <time>2021-10-02T06:54:38Z</time>
      </trkpt>
      <trkpt lat="42.92859" lon="0.29355">
        <ele>1175.2</ele>
        <time>2021-10-02T06:54:39Z</time>
      </trkpt>
      <trkpt lat="42.92856" lon="0.29355">
        <ele>1175.4</ele>
        <time>2021-10-02T06:54:40Z</time>
      </trkpt>
      <trkpt lat="42.92854" lon="0.29354">
        <ele>1175.6</ele>
        <time>2021-10-02T06:54:41Z</time>
      </trkpt>
      <trkpt lat="42.92852" lon="0.29354">
        <ele>1175.6</ele>
        <time>2021-10-02T06:54:42Z</time>
      </trkpt>
      <trkpt lat="42.9285" lon="0.29354">
        <ele>1176</ele>
        <time>2021-10-02T06:54:43Z</time>
      </trkpt>
      <trkpt lat="42.92848" lon="0.29354">
        <ele>1176</ele>
        <time>2021-10-02T06:54:44Z</time>
      </trkpt>
      <trkpt lat="42.92845" lon="0.29354">
        <ele>1176.6</ele>
        <time>2021-10-02T06:54:45Z</time>
      </trkpt>
      <trkpt lat="42.92844" lon="0.29354">
        <ele>1176.8</ele>
        <time>2021-10-02T06:54:46Z</time>
      </trkpt>
      <trkpt lat="42.92842" lon="0.29354">
        <ele>1177</ele>
        <time>2021-10-02T06:54:47Z</time>
      </trkpt>
      <trkpt lat="42.9284" lon="0.29354">
        <ele>1177.2</ele>
        <time>2021-10-02T06:54:48Z</time>
      </trkpt>
      <trkpt lat="42.92838" lon="0.29355">
        <ele>1177.4</ele>
        <time>2021-10-02T06:54:49Z</time>
      </trkpt>
      <trkpt lat="42.92835" lon="0.29355">
        <ele>1177.8</ele>
        <time>2021-10-02T06:54:50Z</time>
      </trkpt>
      <trkpt lat="42.92834" lon="0.29355">
        <ele>1177.8</ele>
        <time>2021-10-02T06:54:51Z</time>
      </trkpt>
      <trkpt lat="42.92831" lon="0.29355">
        <ele>1178.4</ele>
        <time>2021-10-02T06:54:52Z</time>
      </trkpt>
      <trkpt lat="42.9283" lon="0.29355">
        <ele>1178.4</ele>
        <time>2021-10-02T06:54:53Z</time>
      </trkpt>
      <trkpt lat="42.92827" lon="0.29356">
        <ele>1178.6</ele>
        <time>2021-10-02T06:54:54Z</time>
      </trkpt>
      <trkpt lat="42.92826" lon="0.29356">
        <ele>1178.8</ele>
        <time>2021-10-02T06:54:55Z</time>
      </trkpt>
      <trkpt lat="42.92824" lon="0.29356">
        <ele>1179</ele>
        <time>2021-10-02T06:54:56Z</time>
      </trkpt>
      <trkpt lat="42.92822" lon="0.29357">
        <ele>1179.2</ele>
        <time>2021-10-02T06:54:57Z</time>
      </trkpt>
      <trkpt lat="42.9282" lon="0.29357">
        <ele>1179.4</ele>
        <time>2021-10-02T06:54:58Z</time>
      </trkpt>
      <trkpt lat="42.92819" lon="0.29357">
        <ele>1179.6</ele>
        <time>2021-10-02T06:54:59Z</time>
      </trkpt>
      <trkpt lat="42.92817" lon="0.29358">
        <ele>1180</ele>
        <time>2021-10-02T06:55:00Z</time>
      </trkpt>
      <trkpt lat="42.92815" lon="0.29358">
        <ele>1180.2</ele>
        <time>2021-10-02T06:55:01Z</time>
      </trkpt>
      <trkpt lat="42.92814" lon="0.29358">
        <ele>1180.6</ele>
        <time>2021-10-02T06:55:02Z</time>
      </trkpt>
      <trkpt lat="42.92812" lon="0.29359">
        <ele>1180.8</ele>
        <time>2021-10-02T06:55:03Z</time>
      </trkpt>
      <trkpt lat="42.92811" lon="0.29359">
        <ele>1181.2</ele>
        <time>2021-10-02T06:55:04Z</time>
      </trkpt>
      <trkpt lat="42.92809" lon="0.29359">
        <ele>1181.4</ele>
        <time>2021-10-02T06:55:05Z</time>
      </trkpt>
      <trkpt lat="42.92807" lon="0.29359">
        <ele>1181.6</ele>
        <time>2021-10-02T06:55:06Z</time>
      </trkpt>
      <trkpt lat="42.92805" lon="0.29359">
        <ele>1181.8</ele>
        <time>2021-10-02T06:55:07Z</time>
      </trkpt>
      <trkpt lat="42.92803" lon="0.29359">
        <ele>1182.2</ele>
        <time>2021-10-02T06:55:08Z</time>
      </trkpt>
      <trkpt lat="42.92802" lon="0.2936">
        <ele>1182.4</ele>
        <time>2021-10-02T06:55:09Z</time>
      </trkpt>
      <trkpt lat="42.92801" lon="0.2936">
        <ele>1182.4</ele>
        <time>2021-10-02T06:55:10Z</time>
      </trkpt>
      <trkpt lat="42.92799" lon="0.2936">
        <ele>1183</ele>
        <time>2021-10-02T06:55:11Z</time>
      </trkpt>
      <trkpt lat="42.92796" lon="0.2936">
        <ele>1183.2</ele>
        <time>2021-10-02T06:55:12Z</time>
      </trkpt>
      <trkpt lat="42.92794" lon="0.2936">
        <ele>1183.6</ele>
        <time>2021-10-02T06:55:13Z</time>
      </trkpt>
      <trkpt lat="42.92792" lon="0.29361">
        <ele>1183.6</ele>
        <time>2021-10-02T06:55:14Z</time>
      </trkpt>
      <trkpt lat="42.9279" lon="0.29361">
        <ele>1183.8</ele>
        <time>2021-10-02T06:55:15Z</time>
      </trkpt>
      <trkpt lat="42.92788" lon="0.2936">
        <ele>1183.8</ele>
        <time>2021-10-02T06:55:16Z</time>
      </trkpt>
      <trkpt lat="42.92787" lon="0.2936">
        <ele>1184.4</ele>
        <time>2021-10-02T06:55:17Z</time>
      </trkpt>
      <trkpt lat="42.92784" lon="0.2936">
        <ele>1184.4</ele>
        <time>2021-10-02T06:55:18Z</time>
      </trkpt>
      <trkpt lat="42.92782" lon="0.29359">
        <ele>1184.8</ele>
        <time>2021-10-02T06:55:19Z</time>
      </trkpt>
      <trkpt lat="42.92781" lon="0.29359">
        <ele>1184.8</ele>
        <time>2021-10-02T06:55:20Z</time>
      </trkpt>
      <trkpt lat="42.92779" lon="0.29358">
        <ele>1185</ele>
        <time>2021-10-02T06:55:21Z</time>
      </trkpt>
      <trkpt lat="42.92776" lon="0.29358">
        <ele>1185.2</ele>
        <time>2021-10-02T06:55:22Z</time>
      </trkpt>
      <trkpt lat="42.92774" lon="0.29357">
        <ele>1185.4</ele>
        <time>2021-10-02T06:55:23Z</time>
      </trkpt>
      <trkpt lat="42.92771" lon="0.29356">
        <ele>1185.6</ele>
        <time>2021-10-02T06:55:24Z</time>
      </trkpt>
      <trkpt lat="42.92769" lon="0.29356">
        <ele>1185.8</ele>
        <time>2021-10-02T06:55:25Z</time>
      </trkpt>
      <trkpt lat="42.92767" lon="0.29356">
        <ele>1186</ele>
        <time>2021-10-02T06:55:26Z</time>
      </trkpt>
      <trkpt lat="42.92765" lon="0.29356">
        <ele>1186.2</ele>
        <time>2021-10-02T06:55:27Z</time>
      </trkpt>
      <trkpt lat="42.92763" lon="0.29356">
        <ele>1186.4</ele>
        <time>2021-10-02T06:55:28Z</time>
      </trkpt>
      <trkpt lat="42.92761" lon="0.29356">
        <ele>1186.6</ele>
        <time>2021-10-02T06:55:29Z</time>
      </trkpt>
      <trkpt lat="42.92758" lon="0.29354">
        <ele>1186.8</ele>
        <time>2021-10-02T06:55:30Z</time>
      </trkpt>
      <trkpt lat="42.92756" lon="0.29353">
        <ele>1187</ele>
        <time>2021-10-02T06:55:31Z</time>
      </trkpt>
      <trkpt lat="42.92754" lon="0.29352">
        <ele>1187.4</ele>
        <time>2021-10-02T06:55:32Z</time>
      </trkpt>
      <trkpt lat="42.92752" lon="0.29351">
        <ele>1187.4</ele>
        <time>2021-10-02T06:55:33Z</time>
      </trkpt>
      <trkpt lat="42.9275" lon="0.2935">
        <ele>1187.4</ele>
        <time>2021-10-02T06:55:34Z</time>
      </trkpt>
      <trkpt lat="42.92747" lon="0.2935">
        <ele>1187.6</ele>
        <time>2021-10-02T06:55:35Z</time>
      </trkpt>
      <trkpt lat="42.92744" lon="0.2935">
        <ele>1187.8</ele>
        <time>2021-10-02T06:55:36Z</time>
      </trkpt>
      <trkpt lat="42.92741" lon="0.29349">
        <ele>1188</ele>
        <time>2021-10-02T06:55:37Z</time>
      </trkpt>
      <trkpt lat="42.92738" lon="0.29348">
        <ele>1188.2</ele>
        <time>2021-10-02T06:55:38Z</time>
      </trkpt>
      <trkpt lat="42.92736" lon="0.29348">
        <ele>1188.4</ele>
        <time>2021-10-02T06:55:39Z</time>
      </trkpt>
      <trkpt lat="42.92734" lon="0.29347">
        <ele>1188.6</ele>
        <time>2021-10-02T06:55:40Z</time>
      </trkpt>
      <trkpt lat="42.92732" lon="0.29346">
        <ele>1188.8</ele>
        <time>2021-10-02T06:55:41Z</time>
      </trkpt>
      <trkpt lat="42.9273" lon="0.29346">
        <ele>1189</ele>
        <time>2021-10-02T06:55:42Z</time>
      </trkpt>
      <trkpt lat="42.92728" lon="0.29346">
        <ele>1189.2</ele>
        <time>2021-10-02T06:55:43Z</time>
      </trkpt>
      <trkpt lat="42.92726" lon="0.29345">
        <ele>1189.2</ele>
        <time>2021-10-02T06:55:44Z</time>
      </trkpt>
      <trkpt lat="42.92725" lon="0.29345">
        <ele>1189.4</ele>
        <time>2021-10-02T06:55:45Z</time>
      </trkpt>
      <trkpt lat="42.92723" lon="0.29344">
        <ele>1189.6</ele>
        <time>2021-10-02T06:55:46Z</time>
      </trkpt>
      <trkpt lat="42.9272" lon="0.29343">
        <ele>1189.6</ele>
        <time>2021-10-02T06:55:47Z</time>
      </trkpt>
      <trkpt lat="42.92719" lon="0.29343">
        <ele>1189.6</ele>
        <time>2021-10-02T06:55:48Z</time>
      </trkpt>
      <trkpt lat="42.92717" lon="0.29342">
        <ele>1189.8</ele>
        <time>2021-10-02T06:55:49Z</time>
      </trkpt>
      <trkpt lat="42.92715" lon="0.29341">
        <ele>1190.2</ele>
        <time>2021-10-02T06:55:50Z</time>
      </trkpt>
      <trkpt lat="42.92713" lon="0.29341">
        <ele>1190.4</ele>
        <time>2021-10-02T06:55:51Z</time>
      </trkpt>
      <trkpt lat="42.92711" lon="0.2934">
        <ele>1190.4</ele>
        <time>2021-10-02T06:55:52Z</time>
      </trkpt>
      <trkpt lat="42.92709" lon="0.2934">
        <ele>1190.6</ele>
        <time>2021-10-02T06:55:53Z</time>
      </trkpt>
      <trkpt lat="42.92707" lon="0.29339">
        <ele>1190.6</ele>
        <time>2021-10-02T06:55:54Z</time>
      </trkpt>
      <trkpt lat="42.92705" lon="0.29338">
        <ele>1190.8</ele>
        <time>2021-10-02T06:55:55Z</time>
      </trkpt>
      <trkpt lat="42.92703" lon="0.29338">
        <ele>1190.8</ele>
        <time>2021-10-02T06:55:56Z</time>
      </trkpt>
      <trkpt lat="42.92701" lon="0.29337">
        <ele>1191</ele>
        <time>2021-10-02T06:55:57Z</time>
      </trkpt>
      <trkpt lat="42.92699" lon="0.29337">
        <ele>1191</ele>
        <time>2021-10-02T06:55:58Z</time>
      </trkpt>
      <trkpt lat="42.92697" lon="0.29337">
        <ele>1191.2</ele>
        <time>2021-10-02T06:55:59Z</time>
      </trkpt>
      <trkpt lat="42.92694" lon="0.29336">
        <ele>1191.4</ele>
        <time>2021-10-02T06:56:00Z</time>
      </trkpt>
      <trkpt lat="42.92693" lon="0.29336">
        <ele>1191.6</ele>
        <time>2021-10-02T06:56:01Z</time>
      </trkpt>
      <trkpt lat="42.92691" lon="0.29336">
        <ele>1191.8</ele>
        <time>2021-10-02T06:56:02Z</time>
      </trkpt>
      <trkpt lat="42.92689" lon="0.29335">
        <ele>1192</ele>
        <time>2021-10-02T06:56:03Z</time>
      </trkpt>
      <trkpt lat="42.92687" lon="0.29334">
        <ele>1192</ele>
        <time>2021-10-02T06:56:04Z</time>
      </trkpt>
      <trkpt lat="42.92685" lon="0.29333">
        <ele>1192.2</ele>
        <time>2021-10-02T06:56:05Z</time>
      </trkpt>
      <trkpt lat="42.92684" lon="0.29333">
        <ele>1192.2</ele>
        <time>2021-10-02T06:56:06Z</time>
      </trkpt>
      <trkpt lat="42.92682" lon="0.29332">
        <ele>1192.4</ele>
        <time>2021-10-02T06:56:07Z</time>
      </trkpt>
      <trkpt lat="42.9268" lon="0.29331">
        <ele>1192.6</ele>
        <time>2021-10-02T06:56:08Z</time>
      </trkpt>
      <trkpt lat="42.92679" lon="0.29331">
        <ele>1192.8</ele>
        <time>2021-10-02T06:56:09Z</time>
      </trkpt>
      <trkpt lat="42.92676" lon="0.29331">
        <ele>1193</ele>
        <time>2021-10-02T06:56:10Z</time>
      </trkpt>
      <trkpt lat="42.92675" lon="0.2933">
        <ele>1193</ele>
        <time>2021-10-02T06:56:11Z</time>
      </trkpt>
      <trkpt lat="42.92673" lon="0.2933">
        <ele>1193.2</ele>
        <time>2021-10-02T06:56:12Z</time>
      </trkpt>
      <trkpt lat="42.92671" lon="0.29329">
        <ele>1193.4</ele>
        <time>2021-10-02T06:56:13Z</time>
      </trkpt>
      <trkpt lat="42.92669" lon="0.29328">
        <ele>1193.6</ele>
        <time>2021-10-02T06:56:14Z</time>
      </trkpt>
      <trkpt lat="42.92667" lon="0.29328">
        <ele>1193.6</ele>
        <time>2021-10-02T06:56:15Z</time>
      </trkpt>
      <trkpt lat="42.92666" lon="0.29327">
        <ele>1194</ele>
        <time>2021-10-02T06:56:16Z</time>
      </trkpt>
      <trkpt lat="42.92664" lon="0.29327">
        <ele>1194</ele>
        <time>2021-10-02T06:56:17Z</time>
      </trkpt>
      <trkpt lat="42.92662" lon="0.29327">
        <ele>1194.2</ele>
        <time>2021-10-02T06:56:18Z</time>
      </trkpt>
      <trkpt lat="42.9266" lon="0.29326">
        <ele>1194.4</ele>
        <time>2021-10-02T06:56:19Z</time>
      </trkpt>
      <trkpt lat="42.92659" lon="0.29326">
        <ele>1194.6</ele>
        <time>2021-10-02T06:56:20Z</time>
      </trkpt>
      <trkpt lat="42.92657" lon="0.29325">
        <ele>1194.8</ele>
        <time>2021-10-02T06:56:21Z</time>
      </trkpt>
      <trkpt lat="42.92656" lon="0.29325">
        <ele>1195</ele>
        <time>2021-10-02T06:56:22Z</time>
      </trkpt>
      <trkpt lat="42.92654" lon="0.29324">
        <ele>1195</ele>
        <time>2021-10-02T06:56:23Z</time>
      </trkpt>
      <trkpt lat="42.92652" lon="0.29323">
        <ele>1195.2</ele>
        <time>2021-10-02T06:56:24Z</time>
      </trkpt>
      <trkpt lat="42.9265" lon="0.29323">
        <ele>1195.4</ele>
        <time>2021-10-02T06:56:25Z</time>
      </trkpt>
      <trkpt lat="42.92648" lon="0.29322">
        <ele>1195.6</ele>
        <time>2021-10-02T06:56:26Z</time>
      </trkpt>
      <trkpt lat="42.92646" lon="0.29321">
        <ele>1195.8</ele>
        <time>2021-10-02T06:56:27Z</time>
      </trkpt>
      <trkpt lat="42.92645" lon="0.29321">
        <ele>1195.8</ele>
        <time>2021-10-02T06:56:28Z</time>
      </trkpt>
      <trkpt lat="42.92643" lon="0.29321">
        <ele>1195.8</ele>
        <time>2021-10-02T06:56:29Z</time>
      </trkpt>
      <trkpt lat="42.92641" lon="0.2932">
        <ele>1196.2</ele>
        <time>2021-10-02T06:56:30Z</time>
      </trkpt>
      <trkpt lat="42.92639" lon="0.2932">
        <ele>1196.4</ele>
        <time>2021-10-02T06:56:31Z</time>
      </trkpt>
      <trkpt lat="42.92637" lon="0.29319">
        <ele>1196.6</ele>
        <time>2021-10-02T06:56:32Z</time>
      </trkpt>
      <trkpt lat="42.92635" lon="0.29319">
        <ele>1196.8</ele>
        <time>2021-10-02T06:56:33Z</time>
      </trkpt>
      <trkpt lat="42.92634" lon="0.29318">
        <ele>1197</ele>
        <time>2021-10-02T06:56:34Z</time>
      </trkpt>
      <trkpt lat="42.92632" lon="0.29317">
        <ele>1197.2</ele>
        <time>2021-10-02T06:56:35Z</time>
      </trkpt>
      <trkpt lat="42.92631" lon="0.29317">
        <ele>1197.2</ele>
        <time>2021-10-02T06:56:36Z</time>
      </trkpt>
      <trkpt lat="42.92629" lon="0.29316">
        <ele>1197.4</ele>
        <time>2021-10-02T06:56:37Z</time>
      </trkpt>
      <trkpt lat="42.92628" lon="0.29316">
        <ele>1197.4</ele>
        <time>2021-10-02T06:56:38Z</time>
      </trkpt>
      <trkpt lat="42.92626" lon="0.29315">
        <ele>1197.8</ele>
        <time>2021-10-02T06:56:39Z</time>
      </trkpt>
      <trkpt lat="42.92624" lon="0.29315">
        <ele>1197.8</ele>
        <time>2021-10-02T06:56:40Z</time>
      </trkpt>
      <trkpt lat="42.92622" lon="0.29314">
        <ele>1198.2</ele>
        <time>2021-10-02T06:56:41Z</time>
      </trkpt>
      <trkpt lat="42.92621" lon="0.29313">
        <ele>1198.4</ele>
        <time>2021-10-02T06:56:42Z</time>
      </trkpt>
      <trkpt lat="42.92619" lon="0.29312">
        <ele>1198.6</ele>
        <time>2021-10-02T06:56:43Z</time>
      </trkpt>
      <trkpt lat="42.92616" lon="0.29312">
        <ele>1198.6</ele>
        <time>2021-10-02T06:56:44Z</time>
      </trkpt>
      <trkpt lat="42.92614" lon="0.29312">
        <ele>1199</ele>
        <time>2021-10-02T06:56:45Z</time>
      </trkpt>
      <trkpt lat="42.92611" lon="0.29311">
        <ele>1199.2</ele>
        <time>2021-10-02T06:56:46Z</time>
      </trkpt>
      <trkpt lat="42.92609" lon="0.2931">
        <ele>1199.4</ele>
        <time>2021-10-02T06:56:47Z</time>
      </trkpt>
      <trkpt lat="42.92607" lon="0.29309">
        <ele>1199.6</ele>
        <time>2021-10-02T06:56:48Z</time>
      </trkpt>
      <trkpt lat="42.92605" lon="0.29309">
        <ele>1199.8</ele>
        <time>2021-10-02T06:56:49Z</time>
      </trkpt>
      <trkpt lat="42.92603" lon="0.29307">
        <ele>1200</ele>
        <time>2021-10-02T06:56:50Z</time>
      </trkpt>
      <trkpt lat="42.926" lon="0.29306">
        <ele>1200.2</ele>
        <time>2021-10-02T06:56:51Z</time>
      </trkpt>
      <trkpt lat="42.92598" lon="0.29305">
        <ele>1200.4</ele>
        <time>2021-10-02T06:56:52Z</time>
      </trkpt>
      <trkpt lat="42.92596" lon="0.29304">
        <ele>1200.4</ele>
        <time>2021-10-02T06:56:53Z</time>
      </trkpt>
      <trkpt lat="42.92594" lon="0.29302">
        <ele>1200.8</ele>
        <time>2021-10-02T06:56:54Z</time>
      </trkpt>
      <trkpt lat="42.92592" lon="0.29301">
        <ele>1201</ele>
        <time>2021-10-02T06:56:55Z</time>
      </trkpt>
      <trkpt lat="42.9259" lon="0.293">
        <ele>1201.2</ele>
        <time>2021-10-02T06:56:56Z</time>
      </trkpt>
      <trkpt lat="42.92588" lon="0.29299">
        <ele>1201.4</ele>
        <time>2021-10-02T06:56:57Z</time>
      </trkpt>
      <trkpt lat="42.92587" lon="0.29298">
        <ele>1201.6</ele>
        <time>2021-10-02T06:56:58Z</time>
      </trkpt>
      <trkpt lat="42.92585" lon="0.29297">
        <ele>1201.6</ele>
        <time>2021-10-02T06:56:59Z</time>
      </trkpt>
      <trkpt lat="42.92583" lon="0.29296">
        <ele>1201.8</ele>
        <time>2021-10-02T06:57:00Z</time>
      </trkpt>
      <trkpt lat="42.92581" lon="0.29296">
        <ele>1202</ele>
        <time>2021-10-02T06:57:01Z</time>
      </trkpt>
      <trkpt lat="42.92579" lon="0.29296">
        <ele>1202.2</ele>
        <time>2021-10-02T06:57:02Z</time>
      </trkpt>
      <trkpt lat="42.92577" lon="0.29295">
        <ele>1202.4</ele>
        <time>2021-10-02T06:57:03Z</time>
      </trkpt>
      <trkpt lat="42.92575" lon="0.29293">
        <ele>1202.6</ele>
        <time>2021-10-02T06:57:04Z</time>
      </trkpt>
      <trkpt lat="42.92574" lon="0.29293">
        <ele>1202.8</ele>
        <time>2021-10-02T06:57:05Z</time>
      </trkpt>
      <trkpt lat="42.92573" lon="0.29292">
        <ele>1202.8</ele>
        <time>2021-10-02T06:57:06Z</time>
      </trkpt>
      <trkpt lat="42.92571" lon="0.29291">
        <ele>1203</ele>
        <time>2021-10-02T06:57:07Z</time>
      </trkpt>
      <trkpt lat="42.9257" lon="0.2929">
        <ele>1203.2</ele>
        <time>2021-10-02T06:57:08Z</time>
      </trkpt>
      <trkpt lat="42.92569" lon="0.29289">
        <ele>1203.4</ele>
        <time>2021-10-02T06:57:09Z</time>
      </trkpt>
      <trkpt lat="42.92568" lon="0.29289">
        <ele>1203.6</ele>
        <time>2021-10-02T06:57:10Z</time>
      </trkpt>
      <trkpt lat="42.92567" lon="0.29289">
        <ele>1203.8</ele>
        <time>2021-10-02T06:57:11Z</time>
      </trkpt>
      <trkpt lat="42.92565" lon="0.29288">
        <ele>1203.8</ele>
        <time>2021-10-02T06:57:12Z</time>
      </trkpt>
      <trkpt lat="42.92563" lon="0.29287">
        <ele>1204.2</ele>
        <time>2021-10-02T06:57:13Z</time>
      </trkpt>
      <trkpt lat="42.92561" lon="0.29287">
        <ele>1204.2</ele>
        <time>2021-10-02T06:57:14Z</time>
      </trkpt>
      <trkpt lat="42.92559" lon="0.29286">
        <ele>1204.4</ele>
        <time>2021-10-02T06:57:15Z</time>
      </trkpt>
      <trkpt lat="42.92558" lon="0.29286">
        <ele>1204.6</ele>
        <time>2021-10-02T06:57:16Z</time>
      </trkpt>
      <trkpt lat="42.92557" lon="0.29285">
        <ele>1204.8</ele>
        <time>2021-10-02T06:57:17Z</time>
      </trkpt>
      <trkpt lat="42.92555" lon="0.29284">
        <ele>1205</ele>
        <time>2021-10-02T06:57:18Z</time>
      </trkpt>
      <trkpt lat="42.92553" lon="0.29284">
        <ele>1205.2</ele>
        <time>2021-10-02T06:57:19Z</time>
      </trkpt>
      <trkpt lat="42.92551" lon="0.29283">
        <ele>1205.4</ele>
        <time>2021-10-02T06:57:20Z</time>
      </trkpt>
      <trkpt lat="42.9255" lon="0.29283">
        <ele>1205.6</ele>
        <time>2021-10-02T06:57:21Z</time>
      </trkpt>
      <trkpt lat="42.92548" lon="0.29282">
        <ele>1205.6</ele>
        <time>2021-10-02T06:57:22Z</time>
      </trkpt>
      <trkpt lat="42.92547" lon="0.29282">
        <ele>1206</ele>
        <time>2021-10-02T06:57:23Z</time>
      </trkpt>
      <trkpt lat="42.92545" lon="0.29282">
        <ele>1206</ele>
        <time>2021-10-02T06:57:24Z</time>
      </trkpt>
      <trkpt lat="42.92543" lon="0.29282">
        <ele>1206.4</ele>
        <time>2021-10-02T06:57:25Z</time>
      </trkpt>
      <trkpt lat="42.92541" lon="0.29282">
        <ele>1206.4</ele>
        <time>2021-10-02T06:57:26Z</time>
      </trkpt>
      <trkpt lat="42.9254" lon="0.29282">
        <ele>1206.6</ele>
        <time>2021-10-02T06:57:27Z</time>
      </trkpt>
      <trkpt lat="42.92539" lon="0.29281">
        <ele>1206.6</ele>
        <time>2021-10-02T06:57:28Z</time>
      </trkpt>
      <trkpt lat="42.92538" lon="0.29281">
        <ele>1206.8</ele>
        <time>2021-10-02T06:57:29Z</time>
      </trkpt>
      <trkpt lat="42.92536" lon="0.2928">
        <ele>1207</ele>
        <time>2021-10-02T06:57:30Z</time>
      </trkpt>
      <trkpt lat="42.92534" lon="0.29279">
        <ele>1207.2</ele>
        <time>2021-10-02T06:57:31Z</time>
      </trkpt>
      <trkpt lat="42.92532" lon="0.29279">
        <ele>1207.4</ele>
        <time>2021-10-02T06:57:32Z</time>
      </trkpt>
      <trkpt lat="42.9253" lon="0.29278">
        <ele>1207.4</ele>
        <time>2021-10-02T06:57:33Z</time>
      </trkpt>
      <trkpt lat="42.92527" lon="0.29278">
        <ele>1207.8</ele>
        <time>2021-10-02T06:57:34Z</time>
      </trkpt>
      <trkpt lat="42.92524" lon="0.29278">
        <ele>1207.8</ele>
        <time>2021-10-02T06:57:35Z</time>
      </trkpt>
      <trkpt lat="42.92522" lon="0.29279">
        <ele>1208</ele>
        <time>2021-10-02T06:57:36Z</time>
      </trkpt>
      <trkpt lat="42.9252" lon="0.2928">
        <ele>1208.2</ele>
        <time>2021-10-02T06:57:37Z</time>
      </trkpt>
      <trkpt lat="42.92518" lon="0.2928">
        <ele>1208.2</ele>
        <time>2021-10-02T06:57:38Z</time>
      </trkpt>
      <trkpt lat="42.92515" lon="0.2928">
        <ele>1208.4</ele>
        <time>2021-10-02T06:57:39Z</time>
      </trkpt>
      <trkpt lat="42.92514" lon="0.2928">
        <ele>1208.8</ele>
        <time>2021-10-02T06:57:40Z</time>
      </trkpt>
      <trkpt lat="42.92511" lon="0.2928">
        <ele>1209</ele>
        <time>2021-10-02T06:57:41Z</time>
      </trkpt>
      <trkpt lat="42.9251" lon="0.29279">
        <ele>1209.2</ele>
        <time>2021-10-02T06:57:42Z</time>
      </trkpt>
      <trkpt lat="42.92508" lon="0.29279">
        <ele>1209.4</ele>
        <time>2021-10-02T06:57:43Z</time>
      </trkpt>
      <trkpt lat="42.92507" lon="0.29279">
        <ele>1209.4</ele>
        <time>2021-10-02T06:57:44Z</time>
      </trkpt>
      <trkpt lat="42.92506" lon="0.29279">
        <ele>1209.6</ele>
        <time>2021-10-02T06:57:45Z</time>
      </trkpt>
      <trkpt lat="42.92505" lon="0.29279">
        <ele>1209.6</ele>
        <time>2021-10-02T06:57:46Z</time>
      </trkpt>
      <trkpt lat="42.92504" lon="0.29278">
        <ele>1209.8</ele>
        <time>2021-10-02T06:57:47Z</time>
      </trkpt>
      <trkpt lat="42.92503" lon="0.29278">
        <ele>1210</ele>
        <time>2021-10-02T06:57:48Z</time>
      </trkpt>
      <trkpt lat="42.92501" lon="0.29278">
        <ele>1210</ele>
        <time>2021-10-02T06:57:49Z</time>
      </trkpt>
      <trkpt lat="42.92499" lon="0.29278">
        <ele>1210.2</ele>
        <time>2021-10-02T06:57:50Z</time>
      </trkpt>
      <trkpt lat="42.92497" lon="0.29279">
        <ele>1210.2</ele>
        <time>2021-10-02T06:57:51Z</time>
      </trkpt>
      <trkpt lat="42.92495" lon="0.29279">
        <ele>1210.6</ele>
        <time>2021-10-02T06:57:52Z</time>
      </trkpt>
      <trkpt lat="42.92492" lon="0.2928">
        <ele>1210.8</ele>
        <time>2021-10-02T06:57:53Z</time>
      </trkpt>
      <trkpt lat="42.92489" lon="0.29281">
        <ele>1210.8</ele>
        <time>2021-10-02T06:57:54Z</time>
      </trkpt>
      <trkpt lat="42.92487" lon="0.29281">
        <ele>1211</ele>
        <time>2021-10-02T06:57:55Z</time>
      </trkpt>
      <trkpt lat="42.92485" lon="0.29281">
        <ele>1211.2</ele>
        <time>2021-10-02T06:57:56Z</time>
      </trkpt>
      <trkpt lat="42.92483" lon="0.29282">
        <ele>1211.4</ele>
        <time>2021-10-02T06:57:57Z</time>
      </trkpt>
      <trkpt lat="42.9248" lon="0.29282">
        <ele>1211.6</ele>
        <time>2021-10-02T06:57:58Z</time>
      </trkpt>
      <trkpt lat="42.92477" lon="0.29282">
        <ele>1211.8</ele>
        <time>2021-10-02T06:57:59Z</time>
      </trkpt>
      <trkpt lat="42.92475" lon="0.29282">
        <ele>1211.8</ele>
        <time>2021-10-02T06:58:00Z</time>
      </trkpt>
      <trkpt lat="42.92474" lon="0.29282">
        <ele>1212</ele>
        <time>2021-10-02T06:58:01Z</time>
      </trkpt>
      <trkpt lat="42.92472" lon="0.29284">
        <ele>1212.2</ele>
        <time>2021-10-02T06:58:02Z</time>
      </trkpt>
      <trkpt lat="42.9247" lon="0.29285">
        <ele>1212.4</ele>
        <time>2021-10-02T06:58:03Z</time>
      </trkpt>
      <trkpt lat="42.92468" lon="0.29285">
        <ele>1212.6</ele>
        <time>2021-10-02T06:58:04Z</time>
      </trkpt>
      <trkpt lat="42.92466" lon="0.29285">
        <ele>1212.6</ele>
        <time>2021-10-02T06:58:05Z</time>
      </trkpt>
      <trkpt lat="42.92465" lon="0.29285">
        <ele>1212.6</ele>
        <time>2021-10-02T06:58:06Z</time>
      </trkpt>
      <trkpt lat="42.92462" lon="0.29284">
        <ele>1212.8</ele>
        <time>2021-10-02T06:58:07Z</time>
      </trkpt>
      <trkpt lat="42.9246" lon="0.29285">
        <ele>1213</ele>
        <time>2021-10-02T06:58:08Z</time>
      </trkpt>
      <trkpt lat="42.92459" lon="0.29285">
        <ele>1213.2</ele>
        <time>2021-10-02T06:58:09Z</time>
      </trkpt>
      <trkpt lat="42.92457" lon="0.29285">
        <ele>1213.4</ele>
        <time>2021-10-02T06:58:10Z</time>
      </trkpt>
      <trkpt lat="42.92456" lon="0.29286">
        <ele>1213.4</ele>
        <time>2021-10-02T06:58:11Z</time>
      </trkpt>
      <trkpt lat="42.92454" lon="0.29286">
        <ele>1213.6</ele>
        <time>2021-10-02T06:58:12Z</time>
      </trkpt>
      <trkpt lat="42.92453" lon="0.29286">
        <ele>1214</ele>
        <time>2021-10-02T06:58:13Z</time>
      </trkpt>
      <trkpt lat="42.9245" lon="0.29288">
        <ele>1214</ele>
        <time>2021-10-02T06:58:14Z</time>
      </trkpt>
      <trkpt lat="42.92447" lon="0.29289">
        <ele>1214.2</ele>
        <time>2021-10-02T06:58:15Z</time>
      </trkpt>
      <trkpt lat="42.92445" lon="0.29289">
        <ele>1214.6</ele>
        <time>2021-10-02T06:58:16Z</time>
      </trkpt>
      <trkpt lat="42.92443" lon="0.2929">
        <ele>1214.6</ele>
        <time>2021-10-02T06:58:17Z</time>
      </trkpt>
      <trkpt lat="42.92441" lon="0.29292">
        <ele>1214.8</ele>
        <time>2021-10-02T06:58:18Z</time>
      </trkpt>
      <trkpt lat="42.92439" lon="0.29292">
        <ele>1215</ele>
        <time>2021-10-02T06:58:19Z</time>
      </trkpt>
      <trkpt lat="42.92437" lon="0.29292">
        <ele>1215.2</ele>
        <time>2021-10-02T06:58:20Z</time>
      </trkpt>
      <trkpt lat="42.92435" lon="0.29293">
        <ele>1215.2</ele>
        <time>2021-10-02T06:58:21Z</time>
      </trkpt>
      <trkpt lat="42.92434" lon="0.29293">
        <ele>1215.6</ele>
        <time>2021-10-02T06:58:22Z</time>
      </trkpt>
      <trkpt lat="42.92431" lon="0.29294">
        <ele>1215.6</ele>
        <time>2021-10-02T06:58:23Z</time>
      </trkpt>
      <trkpt lat="42.9243" lon="0.29294">
        <ele>1215.8</ele>
        <time>2021-10-02T06:58:24Z</time>
      </trkpt>
      <trkpt lat="42.92427" lon="0.29296">
        <ele>1215.8</ele>
        <time>2021-10-02T06:58:25Z</time>
      </trkpt>
      <trkpt lat="42.92425" lon="0.29297">
        <ele>1216.2</ele>
        <time>2021-10-02T06:58:26Z</time>
      </trkpt>
      <trkpt lat="42.92422" lon="0.29298">
        <ele>1216.2</ele>
        <time>2021-10-02T06:58:27Z</time>
      </trkpt>
      <trkpt lat="42.9242" lon="0.29299">
        <ele>1216.6</ele>
        <time>2021-10-02T06:58:28Z</time>
      </trkpt>
      <trkpt lat="42.92417" lon="0.29298">
        <ele>1216.6</ele>
        <time>2021-10-02T06:58:29Z</time>
      </trkpt>
      <trkpt lat="42.92414" lon="0.29299">
        <ele>1216.8</ele>
        <time>2021-10-02T06:58:30Z</time>
      </trkpt>
      <trkpt lat="42.92412" lon="0.29299">
        <ele>1216.8</ele>
        <time>2021-10-02T06:58:31Z</time>
      </trkpt>
      <trkpt lat="42.92411" lon="0.29298">
        <ele>1217</ele>
        <time>2021-10-02T06:58:32Z</time>
      </trkpt>
      <trkpt lat="42.92409" lon="0.29298">
        <ele>1217</ele>
        <time>2021-10-02T06:58:33Z</time>
      </trkpt>
      <trkpt lat="42.92407" lon="0.29299">
        <ele>1217.2</ele>
        <time>2021-10-02T06:58:34Z</time>
      </trkpt>
      <trkpt lat="42.92405" lon="0.293">
        <ele>1217.2</ele>
        <time>2021-10-02T06:58:35Z</time>
      </trkpt>
      <trkpt lat="42.92403" lon="0.293">
        <ele>1217.4</ele>
        <time>2021-10-02T06:58:36Z</time>
      </trkpt>
      <trkpt lat="42.92402" lon="0.29302">
        <ele>1217.8</ele>
        <time>2021-10-02T06:58:37Z</time>
      </trkpt>
      <trkpt lat="42.924" lon="0.29303">
        <ele>1218</ele>
        <time>2021-10-02T06:58:38Z</time>
      </trkpt>
      <trkpt lat="42.92399" lon="0.29304">
        <ele>1218.4</ele>
        <time>2021-10-02T06:58:39Z</time>
      </trkpt>
      <trkpt lat="42.92397" lon="0.29305">
        <ele>1218.4</ele>
        <time>2021-10-02T06:58:40Z</time>
      </trkpt>
      <trkpt lat="42.92395" lon="0.29306">
        <ele>1218.6</ele>
        <time>2021-10-02T06:58:41Z</time>
      </trkpt>
      <trkpt lat="42.92393" lon="0.29306">
        <ele>1218.8</ele>
        <time>2021-10-02T06:58:42Z</time>
      </trkpt>
      <trkpt lat="42.92392" lon="0.29307">
        <ele>1219</ele>
        <time>2021-10-02T06:58:43Z</time>
      </trkpt>
      <trkpt lat="42.9239" lon="0.29308">
        <ele>1219.2</ele>
        <time>2021-10-02T06:58:44Z</time>
      </trkpt>
      <trkpt lat="42.92387" lon="0.29308">
        <ele>1219.2</ele>
        <time>2021-10-02T06:58:45Z</time>
      </trkpt>
      <trkpt lat="42.92384" lon="0.29308">
        <ele>1219.4</ele>
        <time>2021-10-02T06:58:46Z</time>
      </trkpt>
      <trkpt lat="42.92383" lon="0.29308">
        <ele>1219.6</ele>
        <time>2021-10-02T06:58:47Z</time>
      </trkpt>
      <trkpt lat="42.92382" lon="0.29309">
        <ele>1219.8</ele>
        <time>2021-10-02T06:58:48Z</time>
      </trkpt>
      <trkpt lat="42.92379" lon="0.2931">
        <ele>1220</ele>
        <time>2021-10-02T06:58:49Z</time>
      </trkpt>
      <trkpt lat="42.92377" lon="0.29311">
        <ele>1220</ele>
        <time>2021-10-02T06:58:50Z</time>
      </trkpt>
      <trkpt lat="42.92376" lon="0.29311">
        <ele>1220</ele>
        <time>2021-10-02T06:58:51Z</time>
      </trkpt>
      <trkpt lat="42.92374" lon="0.29311">
        <ele>1220.2</ele>
        <time>2021-10-02T06:58:52Z</time>
      </trkpt>
      <trkpt lat="42.92373" lon="0.29311">
        <ele>1220.4</ele>
        <time>2021-10-02T06:58:53Z</time>
      </trkpt>
      <trkpt lat="42.92371" lon="0.29312">
        <ele>1220.4</ele>
        <time>2021-10-02T06:58:54Z</time>
      </trkpt>
      <trkpt lat="42.92369" lon="0.29312">
        <ele>1220.8</ele>
        <time>2021-10-02T06:58:55Z</time>
      </trkpt>
      <trkpt lat="42.92367" lon="0.29313">
        <ele>1221</ele>
        <time>2021-10-02T06:58:56Z</time>
      </trkpt>
      <trkpt lat="42.92365" lon="0.29315">
        <ele>1221.2</ele>
        <time>2021-10-02T06:58:57Z</time>
      </trkpt>
      <trkpt lat="42.92363" lon="0.29315">
        <ele>1221.2</ele>
        <time>2021-10-02T06:58:58Z</time>
      </trkpt>
      <trkpt lat="42.92359" lon="0.29316">
        <ele>1221.4</ele>
        <time>2021-10-02T06:58:59Z</time>
      </trkpt>
      <trkpt lat="42.92356" lon="0.29317">
        <ele>1221.6</ele>
        <time>2021-10-02T06:59:00Z</time>
      </trkpt>
      <trkpt lat="42.92354" lon="0.29318">
        <ele>1221.8</ele>
        <time>2021-10-02T06:59:01Z</time>
      </trkpt>
      <trkpt lat="42.92352" lon="0.29319">
        <ele>1222</ele>
        <time>2021-10-02T06:59:02Z</time>
      </trkpt>
      <trkpt lat="42.92349" lon="0.29321">
        <ele>1222</ele>
        <time>2021-10-02T06:59:03Z</time>
      </trkpt>
      <trkpt lat="42.92348" lon="0.29324">
        <ele>1222.4</ele>
        <time>2021-10-02T06:59:04Z</time>
      </trkpt>
      <trkpt lat="42.92347" lon="0.29326">
        <ele>1222.6</ele>
        <time>2021-10-02T06:59:05Z</time>
      </trkpt>
      <trkpt lat="42.92347" lon="0.29328">
        <ele>1223</ele>
        <time>2021-10-02T06:59:06Z</time>
      </trkpt>
      <trkpt lat="42.92347" lon="0.29329">
        <ele>1223</ele>
        <time>2021-10-02T06:59:07Z</time>
      </trkpt>
      <trkpt lat="42.92348" lon="0.29328">
        <ele>1223.2</ele>
        <time>2021-10-02T06:59:08Z</time>
      </trkpt>
      <trkpt lat="42.92348" lon="0.29326">
        <ele>1223.4</ele>
        <time>2021-10-02T06:59:09Z</time>
      </trkpt>
      <trkpt lat="42.92349" lon="0.29323">
        <ele>1223.6</ele>
        <time>2021-10-02T06:59:10Z</time>
      </trkpt>
      <trkpt lat="42.92349" lon="0.2932">
        <ele>1223.6</ele>
        <time>2021-10-02T06:59:11Z</time>
      </trkpt>
      <trkpt lat="42.9235" lon="0.29319">
        <ele>1223.6</ele>
        <time>2021-10-02T06:59:12Z</time>
      </trkpt>
      <trkpt lat="42.92351" lon="0.29319">
        <ele>1223.8</ele>
        <time>2021-10-02T06:59:13Z</time>
      </trkpt>
      <trkpt lat="42.92353" lon="0.29319">
        <ele>1224</ele>
        <time>2021-10-02T06:59:14Z</time>
      </trkpt>
      <trkpt lat="42.92354" lon="0.29319">
        <ele>1224</ele>
        <time>2021-10-02T06:59:15Z</time>
      </trkpt>
      <trkpt lat="42.92354" lon="0.29319">
        <ele>1224.2</ele>
        <time>2021-10-02T06:59:16Z</time>
      </trkpt>
      <trkpt lat="42.92358" lon="0.29322">
        <ele>1224</ele>
        <time>2021-10-02T06:59:17Z</time>
      </trkpt>
      <trkpt lat="42.9236" lon="0.29322">
        <ele>1224.2</ele>
        <time>2021-10-02T06:59:18Z</time>
      </trkpt>
      <trkpt lat="42.92362" lon="0.29321">
        <ele>1224.2</ele>
        <time>2021-10-02T06:59:19Z</time>
      </trkpt>
      <trkpt lat="42.92364" lon="0.29321">
        <ele>1224.4</ele>
        <time>2021-10-02T06:59:20Z</time>
      </trkpt>
      <trkpt lat="42.92365" lon="0.29322">
        <ele>1224.4</ele>
        <time>2021-10-02T06:59:21Z</time>
      </trkpt>
      <trkpt lat="42.92367" lon="0.29323">
        <ele>1224.4</ele>
        <time>2021-10-02T06:59:22Z</time>
      </trkpt>
      <trkpt lat="42.92368" lon="0.29324">
        <ele>1224.6</ele>
        <time>2021-10-02T06:59:23Z</time>
      </trkpt>
      <trkpt lat="42.92369" lon="0.29325">
        <ele>1224.8</ele>
        <time>2021-10-02T06:59:24Z</time>
      </trkpt>
      <trkpt lat="42.92371" lon="0.29325">
        <ele>1225</ele>
        <time>2021-10-02T06:59:25Z</time>
      </trkpt>
      <trkpt lat="42.92372" lon="0.29326">
        <ele>1225.2</ele>
        <time>2021-10-02T06:59:26Z</time>
      </trkpt>
      <trkpt lat="42.92373" lon="0.29327">
        <ele>1225.2</ele>
        <time>2021-10-02T06:59:27Z</time>
      </trkpt>
      <trkpt lat="42.92374" lon="0.29328">
        <ele>1225.4</ele>
        <time>2021-10-02T06:59:28Z</time>
      </trkpt>
      <trkpt lat="42.92375" lon="0.29329">
        <ele>1225.6</ele>
        <time>2021-10-02T06:59:29Z</time>
      </trkpt>
      <trkpt lat="42.92377" lon="0.29329">
        <ele>1225.8</ele>
        <time>2021-10-02T06:59:30Z</time>
      </trkpt>
      <trkpt lat="42.92378" lon="0.2933">
        <ele>1225.8</ele>
        <time>2021-10-02T06:59:31Z</time>
      </trkpt>
      <trkpt lat="42.92378" lon="0.29331">
        <ele>1226</ele>
        <time>2021-10-02T06:59:32Z</time>
      </trkpt>
      <trkpt lat="42.92379" lon="0.29332">
        <ele>1226.2</ele>
        <time>2021-10-02T06:59:33Z</time>
      </trkpt>
      <trkpt lat="42.92379" lon="0.29332">
        <ele>1226.4</ele>
        <time>2021-10-02T06:59:34Z</time>
      </trkpt>
      <trkpt lat="42.92381" lon="0.29334">
        <ele>1226.6</ele>
        <time>2021-10-02T06:59:35Z</time>
      </trkpt>
      <trkpt lat="42.92382" lon="0.29334">
        <ele>1226.8</ele>
        <time>2021-10-02T06:59:36Z</time>
      </trkpt>
      <trkpt lat="42.92384" lon="0.29335">
        <ele>1226.8</ele>
        <time>2021-10-02T06:59:37Z</time>
      </trkpt>
      <trkpt lat="42.92385" lon="0.29336">
        <ele>1227</ele>
        <time>2021-10-02T06:59:38Z</time>
      </trkpt>
      <trkpt lat="42.92387" lon="0.29337">
        <ele>1227.2</ele>
        <time>2021-10-02T06:59:39Z</time>
      </trkpt>
      <trkpt lat="42.92388" lon="0.29337">
        <ele>1227.4</ele>
        <time>2021-10-02T06:59:40Z</time>
      </trkpt>
      <trkpt lat="42.9239" lon="0.29338">
        <ele>1227.6</ele>
        <time>2021-10-02T06:59:41Z</time>
      </trkpt>
      <trkpt lat="42.92391" lon="0.29339">
        <ele>1227.8</ele>
        <time>2021-10-02T06:59:42Z</time>
      </trkpt>
      <trkpt lat="42.92392" lon="0.2934">
        <ele>1227.8</ele>
        <time>2021-10-02T06:59:43Z</time>
      </trkpt>
      <trkpt lat="42.92392" lon="0.2934">
        <ele>1228.2</ele>
        <time>2021-10-02T06:59:44Z</time>
      </trkpt>
      <trkpt lat="42.92392" lon="0.2934">
        <ele>1228.2</ele>
        <time>2021-10-02T06:59:45Z</time>
      </trkpt>
      <trkpt lat="42.92392" lon="0.2934">
        <ele>1228.4</ele>
        <time>2021-10-02T06:59:47Z</time>
      </trkpt>
      <trkpt lat="42.92394" lon="0.29341">
        <ele>1228.8</ele>
        <time>2021-10-02T06:59:48Z</time>
      </trkpt>
      <trkpt lat="42.92394" lon="0.29341">
        <ele>1228.8</ele>
        <time>2021-10-02T06:59:49Z</time>
      </trkpt>
      <trkpt lat="42.92396" lon="0.29342">
        <ele>1229.2</ele>
        <time>2021-10-02T06:59:50Z</time>
      </trkpt>
      <trkpt lat="42.92398" lon="0.29344">
        <ele>1229.2</ele>
        <time>2021-10-02T06:59:51Z</time>
      </trkpt>
      <trkpt lat="42.92401" lon="0.29346">
        <ele>1229.6</ele>
        <time>2021-10-02T06:59:52Z</time>
      </trkpt>
      <trkpt lat="42.92403" lon="0.29348">
        <ele>1229.6</ele>
        <time>2021-10-02T06:59:53Z</time>
      </trkpt>
      <trkpt lat="42.92406" lon="0.29349">
        <ele>1229.8</ele>
        <time>2021-10-02T06:59:54Z</time>
      </trkpt>
      <trkpt lat="42.92408" lon="0.29351">
        <ele>1230</ele>
        <time>2021-10-02T06:59:55Z</time>
      </trkpt>
      <trkpt lat="42.92409" lon="0.29353">
        <ele>1230.2</ele>
        <time>2021-10-02T06:59:56Z</time>
      </trkpt>
      <trkpt lat="42.9241" lon="0.29353">
        <ele>1230.4</ele>
        <time>2021-10-02T06:59:57Z</time>
      </trkpt>
      <trkpt lat="42.9241" lon="0.29353">
        <ele>1230.6</ele>
        <time>2021-10-02T06:59:58Z</time>
      </trkpt>
      <trkpt lat="42.9241" lon="0.29353">
        <ele>1230.6</ele>
        <time>2021-10-02T06:59:59Z</time>
      </trkpt>
      <trkpt lat="42.92412" lon="0.29354">
        <ele>1231</ele>
        <time>2021-10-02T07:00:00Z</time>
      </trkpt>
      <trkpt lat="42.92414" lon="0.29356">
        <ele>1231</ele>
        <time>2021-10-02T07:00:01Z</time>
      </trkpt>
      <trkpt lat="42.92416" lon="0.29357">
        <ele>1231.2</ele>
        <time>2021-10-02T07:00:02Z</time>
      </trkpt>
      <trkpt lat="42.92417" lon="0.29357">
        <ele>1231.4</ele>
        <time>2021-10-02T07:00:03Z</time>
      </trkpt>
      <trkpt lat="42.9242" lon="0.29357">
        <ele>1231.6</ele>
        <time>2021-10-02T07:00:04Z</time>
      </trkpt>
      <trkpt lat="42.92423" lon="0.29359">
        <ele>1231.8</ele>
        <time>2021-10-02T07:00:05Z</time>
      </trkpt>
      <trkpt lat="42.92425" lon="0.29361">
        <ele>1232</ele>
        <time>2021-10-02T07:00:06Z</time>
      </trkpt>
      <trkpt lat="42.92428" lon="0.29362">
        <ele>1232</ele>
        <time>2021-10-02T07:00:07Z</time>
      </trkpt>
      <trkpt lat="42.92428" lon="0.29362">
        <ele>1232</ele>
        <time>2021-10-02T07:00:08Z</time>
      </trkpt>
      <trkpt lat="42.9243" lon="0.29363">
        <ele>1232.2</ele>
        <time>2021-10-02T07:00:09Z</time>
      </trkpt>
      <trkpt lat="42.92431" lon="0.29364">
        <ele>1232.4</ele>
        <time>2021-10-02T07:00:10Z</time>
      </trkpt>
      <trkpt lat="42.92431" lon="0.29367">
        <ele>1232.8</ele>
        <time>2021-10-02T07:00:11Z</time>
      </trkpt>
      <trkpt lat="42.92433" lon="0.29367">
        <ele>1233</ele>
        <time>2021-10-02T07:00:12Z</time>
      </trkpt>
      <trkpt lat="42.92434" lon="0.29368">
        <ele>1233.2</ele>
        <time>2021-10-02T07:00:13Z</time>
      </trkpt>
      <trkpt lat="42.92435" lon="0.29369">
        <ele>1233.2</ele>
        <time>2021-10-02T07:00:14Z</time>
      </trkpt>
      <trkpt lat="42.92436" lon="0.2937">
        <ele>1233.6</ele>
        <time>2021-10-02T07:00:15Z</time>
      </trkpt>
      <trkpt lat="42.92437" lon="0.29371">
        <ele>1233.8</ele>
        <time>2021-10-02T07:00:16Z</time>
      </trkpt>
      <trkpt lat="42.92438" lon="0.29372">
        <ele>1234</ele>
        <time>2021-10-02T07:00:17Z</time>
      </trkpt>
      <trkpt lat="42.9244" lon="0.29373">
        <ele>1234</ele>
        <time>2021-10-02T07:00:18Z</time>
      </trkpt>
      <trkpt lat="42.92442" lon="0.29374">
        <ele>1234.2</ele>
        <time>2021-10-02T07:00:19Z</time>
      </trkpt>
      <trkpt lat="42.92443" lon="0.29375">
        <ele>1234.4</ele>
        <time>2021-10-02T07:00:20Z</time>
      </trkpt>
      <trkpt lat="42.92445" lon="0.29376">
        <ele>1234.6</ele>
        <time>2021-10-02T07:00:21Z</time>
      </trkpt>
      <trkpt lat="42.92446" lon="0.29378">
        <ele>1234.8</ele>
        <time>2021-10-02T07:00:22Z</time>
      </trkpt>
      <trkpt lat="42.92447" lon="0.29379">
        <ele>1235.2</ele>
        <time>2021-10-02T07:00:23Z</time>
      </trkpt>
      <trkpt lat="42.92448" lon="0.2938">
        <ele>1235.2</ele>
        <time>2021-10-02T07:00:24Z</time>
      </trkpt>
      <trkpt lat="42.92449" lon="0.29382">
        <ele>1235.4</ele>
        <time>2021-10-02T07:00:25Z</time>
      </trkpt>
      <trkpt lat="42.92451" lon="0.29384">
        <ele>1235.4</ele>
        <time>2021-10-02T07:00:26Z</time>
      </trkpt>
      <trkpt lat="42.92452" lon="0.29386">
        <ele>1235.4</ele>
        <time>2021-10-02T07:00:27Z</time>
      </trkpt>
      <trkpt lat="42.92453" lon="0.29387">
        <ele>1235.6</ele>
        <time>2021-10-02T07:00:28Z</time>
      </trkpt>
      <trkpt lat="42.92454" lon="0.29388">
        <ele>1235.8</ele>
        <time>2021-10-02T07:00:29Z</time>
      </trkpt>
      <trkpt lat="42.92455" lon="0.2939">
        <ele>1236.2</ele>
        <time>2021-10-02T07:00:30Z</time>
      </trkpt>
      <trkpt lat="42.92456" lon="0.29391">
        <ele>1236.4</ele>
        <time>2021-10-02T07:00:31Z</time>
      </trkpt>
      <trkpt lat="42.92457" lon="0.29392">
        <ele>1236.6</ele>
        <time>2021-10-02T07:00:32Z</time>
      </trkpt>
      <trkpt lat="42.92457" lon="0.29393">
        <ele>1236.6</ele>
        <time>2021-10-02T07:00:33Z</time>
      </trkpt>
      <trkpt lat="42.92458" lon="0.29394">
        <ele>1236.8</ele>
        <time>2021-10-02T07:00:34Z</time>
      </trkpt>
      <trkpt lat="42.92458" lon="0.29394">
        <ele>1237</ele>
        <time>2021-10-02T07:00:35Z</time>
      </trkpt>
      <trkpt lat="42.92459" lon="0.29395">
        <ele>1237.2</ele>
        <time>2021-10-02T07:00:36Z</time>
      </trkpt>
      <trkpt lat="42.92461" lon="0.29397">
        <ele>1237.2</ele>
        <time>2021-10-02T07:00:37Z</time>
      </trkpt>
      <trkpt lat="42.92462" lon="0.29398">
        <ele>1237.6</ele>
        <time>2021-10-02T07:00:38Z</time>
      </trkpt>
      <trkpt lat="42.92463" lon="0.29399">
        <ele>1237.8</ele>
        <time>2021-10-02T07:00:39Z</time>
      </trkpt>
      <trkpt lat="42.92463" lon="0.29401">
        <ele>1238</ele>
        <time>2021-10-02T07:00:40Z</time>
      </trkpt>
      <trkpt lat="42.92463" lon="0.29402">
        <ele>1238</ele>
        <time>2021-10-02T07:00:41Z</time>
      </trkpt>
      <trkpt lat="42.92463" lon="0.29404">
        <ele>1238.2</ele>
        <time>2021-10-02T07:00:42Z</time>
      </trkpt>
      <trkpt lat="42.92464" lon="0.29405">
        <ele>1238.4</ele>
        <time>2021-10-02T07:00:43Z</time>
      </trkpt>
      <trkpt lat="42.92464" lon="0.29405">
        <ele>1238.6</ele>
        <time>2021-10-02T07:00:44Z</time>
      </trkpt>
      <trkpt lat="42.92465" lon="0.29406">
        <ele>1238.6</ele>
        <time>2021-10-02T07:00:45Z</time>
      </trkpt>
      <trkpt lat="42.92465" lon="0.29407">
        <ele>1238.8</ele>
        <time>2021-10-02T07:00:46Z</time>
      </trkpt>
      <trkpt lat="42.92467" lon="0.29409">
        <ele>1239</ele>
        <time>2021-10-02T07:00:47Z</time>
      </trkpt>
      <trkpt lat="42.92469" lon="0.29412">
        <ele>1239.2</ele>
        <time>2021-10-02T07:00:48Z</time>
      </trkpt>
      <trkpt lat="42.9247" lon="0.29413">
        <ele>1239.4</ele>
        <time>2021-10-02T07:00:49Z</time>
      </trkpt>
      <trkpt lat="42.92471" lon="0.29414">
        <ele>1239.4</ele>
        <time>2021-10-02T07:00:50Z</time>
      </trkpt>
      <trkpt lat="42.92472" lon="0.29415">
        <ele>1239.6</ele>
        <time>2021-10-02T07:00:51Z</time>
      </trkpt>
      <trkpt lat="42.92473" lon="0.29415">
        <ele>1239.6</ele>
        <time>2021-10-02T07:00:52Z</time>
      </trkpt>
      <trkpt lat="42.92474" lon="0.29416">
        <ele>1239.8</ele>
        <time>2021-10-02T07:00:53Z</time>
      </trkpt>
      <trkpt lat="42.92475" lon="0.29417">
        <ele>1240</ele>
        <time>2021-10-02T07:00:54Z</time>
      </trkpt>
      <trkpt lat="42.92475" lon="0.29417">
        <ele>1240</ele>
        <time>2021-10-02T07:00:55Z</time>
      </trkpt>
      <trkpt lat="42.92475" lon="0.29418">
        <ele>1240.2</ele>
        <time>2021-10-02T07:00:56Z</time>
      </trkpt>
      <trkpt lat="42.92476" lon="0.29419">
        <ele>1240.4</ele>
        <time>2021-10-02T07:00:57Z</time>
      </trkpt>
      <trkpt lat="42.92477" lon="0.2942">
        <ele>1240.4</ele>
        <time>2021-10-02T07:00:58Z</time>
      </trkpt>
      <trkpt lat="42.92477" lon="0.2942">
        <ele>1240.8</ele>
        <time>2021-10-02T07:00:59Z</time>
      </trkpt>
      <trkpt lat="42.92477" lon="0.2942">
        <ele>1240.8</ele>
        <time>2021-10-02T07:01:00Z</time>
      </trkpt>
      <trkpt lat="42.92477" lon="0.2942">
        <ele>1241.2</ele>
        <time>2021-10-02T07:01:01Z</time>
      </trkpt>
      <trkpt lat="42.92477" lon="0.29421">
        <ele>1241.4</ele>
        <time>2021-10-02T07:01:02Z</time>
      </trkpt>
      <trkpt lat="42.92477" lon="0.29422">
        <ele>1241.6</ele>
        <time>2021-10-02T07:01:03Z</time>
      </trkpt>
      <trkpt lat="42.92478" lon="0.29423">
        <ele>1241.6</ele>
        <time>2021-10-02T07:01:04Z</time>
      </trkpt>
      <trkpt lat="42.92479" lon="0.29424">
        <ele>1241.8</ele>
        <time>2021-10-02T07:01:05Z</time>
      </trkpt>
      <trkpt lat="42.92479" lon="0.29424">
        <ele>1241.8</ele>
        <time>2021-10-02T07:01:06Z</time>
      </trkpt>
      <trkpt lat="42.9248" lon="0.29425">
        <ele>1242.4</ele>
        <time>2021-10-02T07:01:10Z</time>
      </trkpt>
      <trkpt lat="42.92481" lon="0.29426">
        <ele>1242.4</ele>
        <time>2021-10-02T07:01:11Z</time>
      </trkpt>
      <trkpt lat="42.92481" lon="0.29426">
        <ele>1242.8</ele>
        <time>2021-10-02T07:01:12Z</time>
      </trkpt>
      <trkpt lat="42.92483" lon="0.29429">
        <ele>1243</ele>
        <time>2021-10-02T07:01:13Z</time>
      </trkpt>
      <trkpt lat="42.92483" lon="0.29429">
        <ele>1243.2</ele>
        <time>2021-10-02T07:01:14Z</time>
      </trkpt>
      <trkpt lat="42.92483" lon="0.29429">
        <ele>1243.4</ele>
        <time>2021-10-02T07:01:15Z</time>
      </trkpt>
      <trkpt lat="42.92484" lon="0.2943">
        <ele>1243.6</ele>
        <time>2021-10-02T07:01:16Z</time>
      </trkpt>
      <trkpt lat="42.92485" lon="0.29431">
        <ele>1243.6</ele>
        <time>2021-10-02T07:01:17Z</time>
      </trkpt>
      <trkpt lat="42.92485" lon="0.29431">
        <ele>1243.8</ele>
        <time>2021-10-02T07:01:18Z</time>
      </trkpt>
      <trkpt lat="42.92486" lon="0.29432">
        <ele>1244</ele>
        <time>2021-10-02T07:01:19Z</time>
      </trkpt>
      <trkpt lat="42.92488" lon="0.29433">
        <ele>1244.2</ele>
        <time>2021-10-02T07:01:20Z</time>
      </trkpt>
      <trkpt lat="42.92492" lon="0.29436">
        <ele>1244.4</ele>
        <time>2021-10-02T07:01:21Z</time>
      </trkpt>
      <trkpt lat="42.92494" lon="0.29438">
        <ele>1244.6</ele>
        <time>2021-10-02T07:01:22Z</time>
      </trkpt>
      <trkpt lat="42.92496" lon="0.29439">
        <ele>1244.6</ele>
        <time>2021-10-02T07:01:23Z</time>
      </trkpt>
      <trkpt lat="42.92498" lon="0.2944">
        <ele>1244.8</ele>
        <time>2021-10-02T07:01:24Z</time>
      </trkpt>
      <trkpt lat="42.92499" lon="0.29441">
        <ele>1244.8</ele>
        <time>2021-10-02T07:01:25Z</time>
      </trkpt>
      <trkpt lat="42.92499" lon="0.29442">
        <ele>1245</ele>
        <time>2021-10-02T07:01:26Z</time>
      </trkpt>
      <trkpt lat="42.92501" lon="0.29443">
        <ele>1245.2</ele>
        <time>2021-10-02T07:01:27Z</time>
      </trkpt>
      <trkpt lat="42.92503" lon="0.29445">
        <ele>1245.4</ele>
        <time>2021-10-02T07:01:28Z</time>
      </trkpt>
      <trkpt lat="42.92504" lon="0.29447">
        <ele>1245.6</ele>
        <time>2021-10-02T07:01:29Z</time>
      </trkpt>
      <trkpt lat="42.92507" lon="0.29449">
        <ele>1245.8</ele>
        <time>2021-10-02T07:01:30Z</time>
      </trkpt>
      <trkpt lat="42.92511" lon="0.29451">
        <ele>1245.8</ele>
        <time>2021-10-02T07:01:31Z</time>
      </trkpt>
      <trkpt lat="42.92513" lon="0.29452">
        <ele>1246</ele>
        <time>2021-10-02T07:01:32Z</time>
      </trkpt>
      <trkpt lat="42.92513" lon="0.29452">
        <ele>1246</ele>
        <time>2021-10-02T07:01:33Z</time>
      </trkpt>
      <trkpt lat="42.92514" lon="0.29452">
        <ele>1246.2</ele>
        <time>2021-10-02T07:01:34Z</time>
      </trkpt>
      <trkpt lat="42.92515" lon="0.29454">
        <ele>1246.4</ele>
        <time>2021-10-02T07:01:35Z</time>
      </trkpt>
      <trkpt lat="42.92515" lon="0.29456">
        <ele>1246.4</ele>
        <time>2021-10-02T07:01:36Z</time>
      </trkpt>
      <trkpt lat="42.92518" lon="0.29459">
        <ele>1246.8</ele>
        <time>2021-10-02T07:01:37Z</time>
      </trkpt>
      <trkpt lat="42.92521" lon="0.29461">
        <ele>1246.8</ele>
        <time>2021-10-02T07:01:38Z</time>
      </trkpt>
      <trkpt lat="42.92522" lon="0.29462">
        <ele>1247</ele>
        <time>2021-10-02T07:01:39Z</time>
      </trkpt>
      <trkpt lat="42.92522" lon="0.29463">
        <ele>1247</ele>
        <time>2021-10-02T07:01:40Z</time>
      </trkpt>
      <trkpt lat="42.92523" lon="0.29464">
        <ele>1247.2</ele>
        <time>2021-10-02T07:01:41Z</time>
      </trkpt>
      <trkpt lat="42.92525" lon="0.29465">
        <ele>1247.4</ele>
        <time>2021-10-02T07:01:42Z</time>
      </trkpt>
      <trkpt lat="42.92526" lon="0.29466">
        <ele>1247.8</ele>
        <time>2021-10-02T07:01:43Z</time>
      </trkpt>
      <trkpt lat="42.92526" lon="0.29467">
        <ele>1248</ele>
        <time>2021-10-02T07:01:44Z</time>
      </trkpt>
      <trkpt lat="42.92527" lon="0.29468">
        <ele>1248</ele>
        <time>2021-10-02T07:01:45Z</time>
      </trkpt>
      <trkpt lat="42.92528" lon="0.29468">
        <ele>1248.2</ele>
        <time>2021-10-02T07:01:46Z</time>
      </trkpt>
      <trkpt lat="42.92529" lon="0.29468">
        <ele>1248</ele>
        <time>2021-10-02T07:01:47Z</time>
      </trkpt>
      <trkpt lat="42.9253" lon="0.29469">
        <ele>1248.2</ele>
        <time>2021-10-02T07:01:48Z</time>
      </trkpt>
      <trkpt lat="42.92532" lon="0.2947">
        <ele>1248.4</ele>
        <time>2021-10-02T07:01:49Z</time>
      </trkpt>
      <trkpt lat="42.92533" lon="0.2947">
        <ele>1248.6</ele>
        <time>2021-10-02T07:01:50Z</time>
      </trkpt>
      <trkpt lat="42.92534" lon="0.29471">
        <ele>1248.8</ele>
        <time>2021-10-02T07:01:51Z</time>
      </trkpt>
      <trkpt lat="42.92535" lon="0.29471">
        <ele>1249</ele>
        <time>2021-10-02T07:01:52Z</time>
      </trkpt>
      <trkpt lat="42.92535" lon="0.29472">
        <ele>1249</ele>
        <time>2021-10-02T07:01:53Z</time>
      </trkpt>
      <trkpt lat="42.92536" lon="0.29473">
        <ele>1249.4</ele>
        <time>2021-10-02T07:01:54Z</time>
      </trkpt>
      <trkpt lat="42.92537" lon="0.29474">
        <ele>1249.8</ele>
        <time>2021-10-02T07:01:55Z</time>
      </trkpt>
      <trkpt lat="42.92538" lon="0.29475">
        <ele>1250</ele>
        <time>2021-10-02T07:01:56Z</time>
      </trkpt>
      <trkpt lat="42.92539" lon="0.29475">
        <ele>1250</ele>
        <time>2021-10-02T07:01:57Z</time>
      </trkpt>
      <trkpt lat="42.92541" lon="0.29476">
        <ele>1250.2</ele>
        <time>2021-10-02T07:01:58Z</time>
      </trkpt>
      <trkpt lat="42.92542" lon="0.29477">
        <ele>1250.4</ele>
        <time>2021-10-02T07:01:59Z</time>
      </trkpt>
      <trkpt lat="42.92543" lon="0.29478">
        <ele>1250.6</ele>
        <time>2021-10-02T07:02:00Z</time>
      </trkpt>
      <trkpt lat="42.92544" lon="0.29479">
        <ele>1250.8</ele>
        <time>2021-10-02T07:02:01Z</time>
      </trkpt>
      <trkpt lat="42.92544" lon="0.2948">
        <ele>1251</ele>
        <time>2021-10-02T07:02:02Z</time>
      </trkpt>
      <trkpt lat="42.92546" lon="0.2948">
        <ele>1251</ele>
        <time>2021-10-02T07:02:03Z</time>
      </trkpt>
      <trkpt lat="42.92547" lon="0.29481">
        <ele>1251.2</ele>
        <time>2021-10-02T07:02:04Z</time>
      </trkpt>
      <trkpt lat="42.92548" lon="0.29482">
        <ele>1251.4</ele>
        <time>2021-10-02T07:02:05Z</time>
      </trkpt>
      <trkpt lat="42.9255" lon="0.29483">
        <ele>1251.4</ele>
        <time>2021-10-02T07:02:06Z</time>
      </trkpt>
      <trkpt lat="42.92551" lon="0.29485">
        <ele>1251.6</ele>
        <time>2021-10-02T07:02:07Z</time>
      </trkpt>
      <trkpt lat="42.92552" lon="0.29485">
        <ele>1251.6</ele>
        <time>2021-10-02T07:02:08Z</time>
      </trkpt>
      <trkpt lat="42.92553" lon="0.29486">
        <ele>1251.8</ele>
        <time>2021-10-02T07:02:09Z</time>
      </trkpt>
      <trkpt lat="42.92554" lon="0.29486">
        <ele>1252</ele>
        <time>2021-10-02T07:02:10Z</time>
      </trkpt>
      <trkpt lat="42.92555" lon="0.29487">
        <ele>1252</ele>
        <time>2021-10-02T07:02:11Z</time>
      </trkpt>
      <trkpt lat="42.92557" lon="0.29488">
        <ele>1252.2</ele>
        <time>2021-10-02T07:02:12Z</time>
      </trkpt>
      <trkpt lat="42.92559" lon="0.29489">
        <ele>1252.4</ele>
        <time>2021-10-02T07:02:13Z</time>
      </trkpt>
      <trkpt lat="42.9256" lon="0.29489">
        <ele>1252.6</ele>
        <time>2021-10-02T07:02:14Z</time>
      </trkpt>
      <trkpt lat="42.92561" lon="0.2949">
        <ele>1252.8</ele>
        <time>2021-10-02T07:02:15Z</time>
      </trkpt>
      <trkpt lat="42.92563" lon="0.2949">
        <ele>1252.8</ele>
        <time>2021-10-02T07:02:16Z</time>
      </trkpt>
      <trkpt lat="42.92564" lon="0.29491">
        <ele>1253</ele>
        <time>2021-10-02T07:02:17Z</time>
      </trkpt>
      <trkpt lat="42.92567" lon="0.29494">
        <ele>1253</ele>
        <time>2021-10-02T07:02:18Z</time>
      </trkpt>
      <trkpt lat="42.92569" lon="0.29496">
        <ele>1253.2</ele>
        <time>2021-10-02T07:02:19Z</time>
      </trkpt>
      <trkpt lat="42.92571" lon="0.29497">
        <ele>1253.4</ele>
        <time>2021-10-02T07:02:20Z</time>
      </trkpt>
      <trkpt lat="42.92571" lon="0.29498">
        <ele>1253.6</ele>
        <time>2021-10-02T07:02:21Z</time>
      </trkpt>
      <trkpt lat="42.92572" lon="0.29499">
        <ele>1253.8</ele>
        <time>2021-10-02T07:02:22Z</time>
      </trkpt>
      <trkpt lat="42.92573" lon="0.29499">
        <ele>1254</ele>
        <time>2021-10-02T07:02:23Z</time>
      </trkpt>
      <trkpt lat="42.92574" lon="0.29499">
        <ele>1254.2</ele>
        <time>2021-10-02T07:02:24Z</time>
      </trkpt>
      <trkpt lat="42.92575" lon="0.295">
        <ele>1254.6</ele>
        <time>2021-10-02T07:02:25Z</time>
      </trkpt>
      <trkpt lat="42.92576" lon="0.295">
        <ele>1254.6</ele>
        <time>2021-10-02T07:02:26Z</time>
      </trkpt>
      <trkpt lat="42.92576" lon="0.29501">
        <ele>1254.8</ele>
        <time>2021-10-02T07:02:27Z</time>
      </trkpt>
      <trkpt lat="42.92577" lon="0.29501">
        <ele>1255</ele>
        <time>2021-10-02T07:02:28Z</time>
      </trkpt>
      <trkpt lat="42.92577" lon="0.29502">
        <ele>1255</ele>
        <time>2021-10-02T07:02:29Z</time>
      </trkpt>
      <trkpt lat="42.92578" lon="0.29502">
        <ele>1255</ele>
        <time>2021-10-02T07:02:30Z</time>
      </trkpt>
      <trkpt lat="42.92579" lon="0.29503">
        <ele>1255.2</ele>
        <time>2021-10-02T07:02:31Z</time>
      </trkpt>
      <trkpt lat="42.9258" lon="0.29504">
        <ele>1255.6</ele>
        <time>2021-10-02T07:02:32Z</time>
      </trkpt>
      <trkpt lat="42.92581" lon="0.29504">
        <ele>1255.8</ele>
        <time>2021-10-02T07:02:33Z</time>
      </trkpt>
      <trkpt lat="42.92583" lon="0.29505">
        <ele>1256</ele>
        <time>2021-10-02T07:02:34Z</time>
      </trkpt>
      <trkpt lat="42.92584" lon="0.29504">
        <ele>1255.8</ele>
        <time>2021-10-02T07:02:35Z</time>
      </trkpt>
      <trkpt lat="42.92585" lon="0.29505">
        <ele>1256.2</ele>
        <time>2021-10-02T07:02:36Z</time>
      </trkpt>
      <trkpt lat="42.92586" lon="0.29506">
        <ele>1256.4</ele>
        <time>2021-10-02T07:02:37Z</time>
      </trkpt>
      <trkpt lat="42.92588" lon="0.29507">
        <ele>1256.6</ele>
        <time>2021-10-02T07:02:38Z</time>
      </trkpt>
      <trkpt lat="42.92589" lon="0.29508">
        <ele>1256.8</ele>
        <time>2021-10-02T07:02:39Z</time>
      </trkpt>
      <trkpt lat="42.92591" lon="0.29509">
        <ele>1257</ele>
        <time>2021-10-02T07:02:40Z</time>
      </trkpt>
      <trkpt lat="42.92592" lon="0.2951">
        <ele>1257</ele>
        <time>2021-10-02T07:02:41Z</time>
      </trkpt>
      <trkpt lat="42.92593" lon="0.2951">
        <ele>1257.2</ele>
        <time>2021-10-02T07:02:42Z</time>
      </trkpt>
      <trkpt lat="42.92594" lon="0.29512">
        <ele>1257.2</ele>
        <time>2021-10-02T07:02:43Z</time>
      </trkpt>
      <trkpt lat="42.92595" lon="0.29513">
        <ele>1257.4</ele>
        <time>2021-10-02T07:02:44Z</time>
      </trkpt>
      <trkpt lat="42.92597" lon="0.29514">
        <ele>1257.6</ele>
        <time>2021-10-02T07:02:45Z</time>
      </trkpt>
      <trkpt lat="42.92599" lon="0.29515">
        <ele>1257.8</ele>
        <time>2021-10-02T07:02:46Z</time>
      </trkpt>
      <trkpt lat="42.926" lon="0.29516">
        <ele>1257.8</ele>
        <time>2021-10-02T07:02:47Z</time>
      </trkpt>
      <trkpt lat="42.92601" lon="0.29517">
        <ele>1258</ele>
        <time>2021-10-02T07:02:48Z</time>
      </trkpt>
      <trkpt lat="42.92602" lon="0.29517">
        <ele>1258.2</ele>
        <time>2021-10-02T07:02:49Z</time>
      </trkpt>
      <trkpt lat="42.92603" lon="0.29518">
        <ele>1258.4</ele>
        <time>2021-10-02T07:02:50Z</time>
      </trkpt>
      <trkpt lat="42.92604" lon="0.2952">
        <ele>1258.4</ele>
        <time>2021-10-02T07:02:51Z</time>
      </trkpt>
      <trkpt lat="42.92604" lon="0.2952">
        <ele>1258.6</ele>
        <time>2021-10-02T07:02:52Z</time>
      </trkpt>
      <trkpt lat="42.92605" lon="0.29521">
        <ele>1258.8</ele>
        <time>2021-10-02T07:02:53Z</time>
      </trkpt>
      <trkpt lat="42.92607" lon="0.29522">
        <ele>1258.8</ele>
        <time>2021-10-02T07:02:54Z</time>
      </trkpt>
      <trkpt lat="42.92609" lon="0.29523">
        <ele>1259.4</ele>
        <time>2021-10-02T07:02:55Z</time>
      </trkpt>
      <trkpt lat="42.92611" lon="0.29524">
        <ele>1259.6</ele>
        <time>2021-10-02T07:02:56Z</time>
      </trkpt>
      <trkpt lat="42.92611" lon="0.29524">
        <ele>1259.8</ele>
        <time>2021-10-02T07:02:57Z</time>
      </trkpt>
      <trkpt lat="42.92612" lon="0.29525">
        <ele>1259.8</ele>
        <time>2021-10-02T07:02:58Z</time>
      </trkpt>
      <trkpt lat="42.92613" lon="0.29526">
        <ele>1260</ele>
        <time>2021-10-02T07:02:59Z</time>
      </trkpt>
      <trkpt lat="42.92614" lon="0.29527">
        <ele>1260</ele>
        <time>2021-10-02T07:03:00Z</time>
      </trkpt>
      <trkpt lat="42.92616" lon="0.29527">
        <ele>1260.2</ele>
        <time>2021-10-02T07:03:01Z</time>
      </trkpt>
      <trkpt lat="42.92617" lon="0.29528">
        <ele>1260.4</ele>
        <time>2021-10-02T07:03:02Z</time>
      </trkpt>
      <trkpt lat="42.92618" lon="0.29528">
        <ele>1260.6</ele>
        <time>2021-10-02T07:03:03Z</time>
      </trkpt>
      <trkpt lat="42.92619" lon="0.29529">
        <ele>1260.6</ele>
        <time>2021-10-02T07:03:04Z</time>
      </trkpt>
      <trkpt lat="42.92621" lon="0.2953">
        <ele>1260.8</ele>
        <time>2021-10-02T07:03:05Z</time>
      </trkpt>
      <trkpt lat="42.92622" lon="0.29531">
        <ele>1261</ele>
        <time>2021-10-02T07:03:06Z</time>
      </trkpt>
      <trkpt lat="42.92624" lon="0.29531">
        <ele>1261</ele>
        <time>2021-10-02T07:03:07Z</time>
      </trkpt>
      <trkpt lat="42.92625" lon="0.29532">
        <ele>1261.2</ele>
        <time>2021-10-02T07:03:08Z</time>
      </trkpt>
      <trkpt lat="42.92625" lon="0.29532">
        <ele>1261.4</ele>
        <time>2021-10-02T07:03:09Z</time>
      </trkpt>
      <trkpt lat="42.92627" lon="0.29532">
        <ele>1261.4</ele>
        <time>2021-10-02T07:03:10Z</time>
      </trkpt>
      <trkpt lat="42.92628" lon="0.29532">
        <ele>1261.6</ele>
        <time>2021-10-02T07:03:11Z</time>
      </trkpt>
      <trkpt lat="42.92629" lon="0.29533">
        <ele>1261.8</ele>
        <time>2021-10-02T07:03:12Z</time>
      </trkpt>
      <trkpt lat="42.9263" lon="0.29533">
        <ele>1262</ele>
        <time>2021-10-02T07:03:13Z</time>
      </trkpt>
      <trkpt lat="42.9263" lon="0.29534">
        <ele>1262.2</ele>
        <time>2021-10-02T07:03:14Z</time>
      </trkpt>
      <trkpt lat="42.92631" lon="0.29534">
        <ele>1262.2</ele>
        <time>2021-10-02T07:03:15Z</time>
      </trkpt>
      <trkpt lat="42.92632" lon="0.29534">
        <ele>1262.4</ele>
        <time>2021-10-02T07:03:16Z</time>
      </trkpt>
      <trkpt lat="42.92633" lon="0.29535">
        <ele>1262.6</ele>
        <time>2021-10-02T07:03:17Z</time>
      </trkpt>
      <trkpt lat="42.92635" lon="0.29536">
        <ele>1262.8</ele>
        <time>2021-10-02T07:03:18Z</time>
      </trkpt>
      <trkpt lat="42.92635" lon="0.29536">
        <ele>1263</ele>
        <time>2021-10-02T07:03:19Z</time>
      </trkpt>
      <trkpt lat="42.92635" lon="0.29536">
        <ele>1263.2</ele>
        <time>2021-10-02T07:03:20Z</time>
      </trkpt>
      <trkpt lat="42.92635" lon="0.29536">
        <ele>1263.4</ele>
        <time>2021-10-02T07:03:21Z</time>
      </trkpt>
      <trkpt lat="42.92637" lon="0.29537">
        <ele>1263.6</ele>
        <time>2021-10-02T07:03:22Z</time>
      </trkpt>
      <trkpt lat="42.92638" lon="0.29537">
        <ele>1263.6</ele>
        <time>2021-10-02T07:03:23Z</time>
      </trkpt>
      <trkpt lat="42.92639" lon="0.29538">
        <ele>1263.8</ele>
        <time>2021-10-02T07:03:24Z</time>
      </trkpt>
      <trkpt lat="42.9264" lon="0.29539">
        <ele>1264</ele>
        <time>2021-10-02T07:03:25Z</time>
      </trkpt>
      <trkpt lat="42.92641" lon="0.2954">
        <ele>1264.2</ele>
        <time>2021-10-02T07:03:26Z</time>
      </trkpt>
      <trkpt lat="42.92642" lon="0.2954">
        <ele>1264.4</ele>
        <time>2021-10-02T07:03:27Z</time>
      </trkpt>
      <trkpt lat="42.92644" lon="0.29541">
        <ele>1264.4</ele>
        <time>2021-10-02T07:03:28Z</time>
      </trkpt>
      <trkpt lat="42.92645" lon="0.29542">
        <ele>1264.6</ele>
        <time>2021-10-02T07:03:29Z</time>
      </trkpt>
      <trkpt lat="42.92646" lon="0.29542">
        <ele>1264.6</ele>
        <time>2021-10-02T07:03:30Z</time>
      </trkpt>
      <trkpt lat="42.92648" lon="0.29543">
        <ele>1264.6</ele>
        <time>2021-10-02T07:03:31Z</time>
      </trkpt>
      <trkpt lat="42.9265" lon="0.29544">
        <ele>1265</ele>
        <time>2021-10-02T07:03:32Z</time>
      </trkpt>
      <trkpt lat="42.92652" lon="0.29546">
        <ele>1265</ele>
        <time>2021-10-02T07:03:33Z</time>
      </trkpt>
      <trkpt lat="42.92654" lon="0.29548">
        <ele>1265.2</ele>
        <time>2021-10-02T07:03:34Z</time>
      </trkpt>
      <trkpt lat="42.92656" lon="0.2955">
        <ele>1265.4</ele>
        <time>2021-10-02T07:03:35Z</time>
      </trkpt>
      <trkpt lat="42.92658" lon="0.29551">
        <ele>1265.6</ele>
        <time>2021-10-02T07:03:36Z</time>
      </trkpt>
      <trkpt lat="42.9266" lon="0.29552">
        <ele>1265.8</ele>
        <time>2021-10-02T07:03:37Z</time>
      </trkpt>
      <trkpt lat="42.92662" lon="0.29552">
        <ele>1266</ele>
        <time>2021-10-02T07:03:38Z</time>
      </trkpt>
      <trkpt lat="42.92664" lon="0.29553">
        <ele>1266.2</ele>
        <time>2021-10-02T07:03:39Z</time>
      </trkpt>
      <trkpt lat="42.92665" lon="0.29553">
        <ele>1266.2</ele>
        <time>2021-10-02T07:03:40Z</time>
      </trkpt>
      <trkpt lat="42.92666" lon="0.29554">
        <ele>1266.4</ele>
        <time>2021-10-02T07:03:41Z</time>
      </trkpt>
      <trkpt lat="42.92668" lon="0.29555">
        <ele>1266.4</ele>
        <time>2021-10-02T07:03:42Z</time>
      </trkpt>
      <trkpt lat="42.92669" lon="0.29556">
        <ele>1266.8</ele>
        <time>2021-10-02T07:03:43Z</time>
      </trkpt>
      <trkpt lat="42.9267" lon="0.29558">
        <ele>1266.8</ele>
        <time>2021-10-02T07:03:44Z</time>
      </trkpt>
      <trkpt lat="42.92672" lon="0.2956">
        <ele>1267</ele>
        <time>2021-10-02T07:03:45Z</time>
      </trkpt>
      <trkpt lat="42.92673" lon="0.29561">
        <ele>1267</ele>
        <time>2021-10-02T07:03:46Z</time>
      </trkpt>
      <trkpt lat="42.92674" lon="0.29563">
        <ele>1267.2</ele>
        <time>2021-10-02T07:03:47Z</time>
      </trkpt>
      <trkpt lat="42.92675" lon="0.29563">
        <ele>1267.4</ele>
        <time>2021-10-02T07:03:48Z</time>
      </trkpt>
      <trkpt lat="42.92677" lon="0.29564">
        <ele>1267.4</ele>
        <time>2021-10-02T07:03:49Z</time>
      </trkpt>
      <trkpt lat="42.92678" lon="0.29563">
        <ele>1267.4</ele>
        <time>2021-10-02T07:03:50Z</time>
      </trkpt>
      <trkpt lat="42.9268" lon="0.29563">
        <ele>1267.8</ele>
        <time>2021-10-02T07:03:51Z</time>
      </trkpt>
      <trkpt lat="42.92681" lon="0.29563">
        <ele>1268</ele>
        <time>2021-10-02T07:03:52Z</time>
      </trkpt>
      <trkpt lat="42.92682" lon="0.29563">
        <ele>1268.2</ele>
        <time>2021-10-02T07:03:53Z</time>
      </trkpt>
      <trkpt lat="42.92683" lon="0.29563">
        <ele>1268.4</ele>
        <time>2021-10-02T07:03:54Z</time>
      </trkpt>
      <trkpt lat="42.92684" lon="0.29564">
        <ele>1268.6</ele>
        <time>2021-10-02T07:03:55Z</time>
      </trkpt>
      <trkpt lat="42.92685" lon="0.29565">
        <ele>1268.8</ele>
        <time>2021-10-02T07:03:56Z</time>
      </trkpt>
      <trkpt lat="42.92685" lon="0.29565">
        <ele>1269</ele>
        <time>2021-10-02T07:03:57Z</time>
      </trkpt>
      <trkpt lat="42.92686" lon="0.29566">
        <ele>1269.2</ele>
        <time>2021-10-02T07:03:58Z</time>
      </trkpt>
      <trkpt lat="42.92687" lon="0.29567">
        <ele>1269.2</ele>
        <time>2021-10-02T07:03:59Z</time>
      </trkpt>
      <trkpt lat="42.92688" lon="0.29568">
        <ele>1269.8</ele>
        <time>2021-10-02T07:04:00Z</time>
      </trkpt>
      <trkpt lat="42.92689" lon="0.29569">
        <ele>1269.8</ele>
        <time>2021-10-02T07:04:01Z</time>
      </trkpt>
      <trkpt lat="42.92689" lon="0.2957">
        <ele>1270.2</ele>
        <time>2021-10-02T07:04:02Z</time>
      </trkpt>
      <trkpt lat="42.9269" lon="0.2957">
        <ele>1270.2</ele>
        <time>2021-10-02T07:04:03Z</time>
      </trkpt>
      <trkpt lat="42.92691" lon="0.29571">
        <ele>1270.4</ele>
        <time>2021-10-02T07:04:04Z</time>
      </trkpt>
      <trkpt lat="42.92692" lon="0.29571">
        <ele>1270.6</ele>
        <time>2021-10-02T07:04:05Z</time>
      </trkpt>
      <trkpt lat="42.92693" lon="0.29573">
        <ele>1270.8</ele>
        <time>2021-10-02T07:04:06Z</time>
      </trkpt>
      <trkpt lat="42.92695" lon="0.29574">
        <ele>1271</ele>
        <time>2021-10-02T07:04:07Z</time>
      </trkpt>
      <trkpt lat="42.92696" lon="0.29575">
        <ele>1271.2</ele>
        <time>2021-10-02T07:04:08Z</time>
      </trkpt>
      <trkpt lat="42.92697" lon="0.29577">
        <ele>1271.2</ele>
        <time>2021-10-02T07:04:09Z</time>
      </trkpt>
      <trkpt lat="42.92699" lon="0.29579">
        <ele>1271.4</ele>
        <time>2021-10-02T07:04:10Z</time>
      </trkpt>
      <trkpt lat="42.927" lon="0.2958">
        <ele>1271.4</ele>
        <time>2021-10-02T07:04:11Z</time>
      </trkpt>
      <trkpt lat="42.92702" lon="0.29581">
        <ele>1271.6</ele>
        <time>2021-10-02T07:04:12Z</time>
      </trkpt>
      <trkpt lat="42.92704" lon="0.29583">
        <ele>1271.8</ele>
        <time>2021-10-02T07:04:13Z</time>
      </trkpt>
      <trkpt lat="42.92706" lon="0.29584">
        <ele>1272</ele>
        <time>2021-10-02T07:04:14Z</time>
      </trkpt>
      <trkpt lat="42.92707" lon="0.29586">
        <ele>1272.2</ele>
        <time>2021-10-02T07:04:15Z</time>
      </trkpt>
      <trkpt lat="42.92708" lon="0.29587">
        <ele>1272.2</ele>
        <time>2021-10-02T07:04:16Z</time>
      </trkpt>
      <trkpt lat="42.9271" lon="0.29589">
        <ele>1272.4</ele>
        <time>2021-10-02T07:04:17Z</time>
      </trkpt>
      <trkpt lat="42.92711" lon="0.2959">
        <ele>1272.4</ele>
        <time>2021-10-02T07:04:18Z</time>
      </trkpt>
      <trkpt lat="42.92711" lon="0.29591">
        <ele>1272.6</ele>
        <time>2021-10-02T07:04:19Z</time>
      </trkpt>
      <trkpt lat="42.92713" lon="0.29593">
        <ele>1272.6</ele>
        <time>2021-10-02T07:04:20Z</time>
      </trkpt>
      <trkpt lat="42.92714" lon="0.29595">
        <ele>1273</ele>
        <time>2021-10-02T07:04:21Z</time>
      </trkpt>
      <trkpt lat="42.92715" lon="0.29597">
        <ele>1273</ele>
        <time>2021-10-02T07:04:22Z</time>
      </trkpt>
      <trkpt lat="42.92716" lon="0.29599">
        <ele>1273.4</ele>
        <time>2021-10-02T07:04:23Z</time>
      </trkpt>
      <trkpt lat="42.92717" lon="0.296">
        <ele>1273.4</ele>
        <time>2021-10-02T07:04:24Z</time>
      </trkpt>
      <trkpt lat="42.92718" lon="0.29602">
        <ele>1273.6</ele>
        <time>2021-10-02T07:04:25Z</time>
      </trkpt>
      <trkpt lat="42.92719" lon="0.29604">
        <ele>1273.8</ele>
        <time>2021-10-02T07:04:26Z</time>
      </trkpt>
      <trkpt lat="42.92719" lon="0.29605">
        <ele>1274</ele>
        <time>2021-10-02T07:04:27Z</time>
      </trkpt>
      <trkpt lat="42.9272" lon="0.29607">
        <ele>1274</ele>
        <time>2021-10-02T07:04:28Z</time>
      </trkpt>
      <trkpt lat="42.92721" lon="0.29609">
        <ele>1274.2</ele>
        <time>2021-10-02T07:04:29Z</time>
      </trkpt>
      <trkpt lat="42.92722" lon="0.29611">
        <ele>1274.2</ele>
        <time>2021-10-02T07:04:30Z</time>
      </trkpt>
      <trkpt lat="42.92722" lon="0.29613">
        <ele>1274.4</ele>
        <time>2021-10-02T07:04:31Z</time>
      </trkpt>
      <trkpt lat="42.92722" lon="0.29614">
        <ele>1274.6</ele>
        <time>2021-10-02T07:04:32Z</time>
      </trkpt>
      <trkpt lat="42.92722" lon="0.29616">
        <ele>1274.6</ele>
        <time>2021-10-02T07:04:33Z</time>
      </trkpt>
      <trkpt lat="42.92722" lon="0.29618">
        <ele>1274.8</ele>
        <time>2021-10-02T07:04:34Z</time>
      </trkpt>
      <trkpt lat="42.92722" lon="0.29619">
        <ele>1275</ele>
        <time>2021-10-02T07:04:35Z</time>
      </trkpt>
      <trkpt lat="42.92721" lon="0.29622">
        <ele>1275.2</ele>
        <time>2021-10-02T07:04:36Z</time>
      </trkpt>
      <trkpt lat="42.92721" lon="0.29624">
        <ele>1275.2</ele>
        <time>2021-10-02T07:04:37Z</time>
      </trkpt>
      <trkpt lat="42.9272" lon="0.29625">
        <ele>1275.2</ele>
        <time>2021-10-02T07:04:38Z</time>
      </trkpt>
      <trkpt lat="42.9272" lon="0.29625">
        <ele>1275.2</ele>
        <time>2021-10-02T07:04:39Z</time>
      </trkpt>
      <trkpt lat="42.9272" lon="0.29625">
        <ele>1275.4</ele>
        <time>2021-10-02T07:04:41Z</time>
      </trkpt>
      <trkpt lat="42.9272" lon="0.29625">
        <ele>1276</ele>
        <time>2021-10-02T07:04:54Z</time>
      </trkpt>
      <trkpt lat="42.9272" lon="0.29626">
        <ele>1276</ele>
        <time>2021-10-02T07:04:55Z</time>
      </trkpt>
      <trkpt lat="42.92719" lon="0.29627">
        <ele>1276</ele>
        <time>2021-10-02T07:04:56Z</time>
      </trkpt>
      <trkpt lat="42.92718" lon="0.29629">
        <ele>1276</ele>
        <time>2021-10-02T07:04:57Z</time>
      </trkpt>
      <trkpt lat="42.92717" lon="0.29631">
        <ele>1276</ele>
        <time>2021-10-02T07:04:58Z</time>
      </trkpt>
      <trkpt lat="42.92715" lon="0.29632">
        <ele>1276</ele>
        <time>2021-10-02T07:04:59Z</time>
      </trkpt>
      <trkpt lat="42.92708" lon="0.2964">
        <ele>1276</ele>
        <time>2021-10-02T07:05:04Z</time>
      </trkpt>
      <trkpt lat="42.92695" lon="0.29651">
        <ele>1276.2</ele>
        <time>2021-10-02T07:05:11Z</time>
      </trkpt>
      <trkpt lat="42.92692" lon="0.29653">
        <ele>1276.4</ele>
        <time>2021-10-02T07:05:12Z</time>
      </trkpt>
      <trkpt lat="42.9269" lon="0.29654">
        <ele>1276.2</ele>
        <time>2021-10-02T07:05:13Z</time>
      </trkpt>
      <trkpt lat="42.92687" lon="0.29655">
        <ele>1276.2</ele>
        <time>2021-10-02T07:05:14Z</time>
      </trkpt>
      <trkpt lat="42.92681" lon="0.29662">
        <ele>1276.6</ele>
        <time>2021-10-02T07:05:17Z</time>
      </trkpt>
      <trkpt lat="42.92675" lon="0.29669">
        <ele>1276.6</ele>
        <time>2021-10-02T07:05:20Z</time>
      </trkpt>
      <trkpt lat="42.92674" lon="0.29671">
        <ele>1276.4</ele>
        <time>2021-10-02T07:05:21Z</time>
      </trkpt>
      <trkpt lat="42.92672" lon="0.29674">
        <ele>1276.6</ele>
        <time>2021-10-02T07:05:22Z</time>
      </trkpt>
      <trkpt lat="42.9267" lon="0.29676">
        <ele>1276.6</ele>
        <time>2021-10-02T07:05:23Z</time>
      </trkpt>
      <trkpt lat="42.92667" lon="0.29679">
        <ele>1276.6</ele>
        <time>2021-10-02T07:05:24Z</time>
      </trkpt>
      <trkpt lat="42.92666" lon="0.29682">
        <ele>1276.6</ele>
        <time>2021-10-02T07:05:25Z</time>
      </trkpt>
      <trkpt lat="42.92664" lon="0.29685">
        <ele>1276.8</ele>
        <time>2021-10-02T07:05:26Z</time>
      </trkpt>
      <trkpt lat="42.92653" lon="0.29699">
        <ele>1276.8</ele>
        <time>2021-10-02T07:05:30Z</time>
      </trkpt>
      <trkpt lat="42.92638" lon="0.29718">
        <ele>1277</ele>
        <time>2021-10-02T07:05:37Z</time>
      </trkpt>
      <trkpt lat="42.92633" lon="0.29723">
        <ele>1277.2</ele>
        <time>2021-10-02T07:05:39Z</time>
      </trkpt>
      <trkpt lat="42.92631" lon="0.29726">
        <ele>1277.2</ele>
        <time>2021-10-02T07:05:40Z</time>
      </trkpt>
      <trkpt lat="42.92629" lon="0.2973">
        <ele>1277.2</ele>
        <time>2021-10-02T07:05:41Z</time>
      </trkpt>
      <trkpt lat="42.92628" lon="0.29733">
        <ele>1277.2</ele>
        <time>2021-10-02T07:05:42Z</time>
      </trkpt>
      <trkpt lat="42.9262" lon="0.29742">
        <ele>1277.6</ele>
        <time>2021-10-02T07:05:45Z</time>
      </trkpt>
      <trkpt lat="42.92618" lon="0.29745">
        <ele>1277.6</ele>
        <time>2021-10-02T07:05:46Z</time>
      </trkpt>
      <trkpt lat="42.92613" lon="0.29751">
        <ele>1277.6</ele>
        <time>2021-10-02T07:05:49Z</time>
      </trkpt>
      <trkpt lat="42.92611" lon="0.29754">
        <ele>1277.8</ele>
        <time>2021-10-02T07:05:50Z</time>
      </trkpt>
      <trkpt lat="42.92605" lon="0.29763">
        <ele>1277.8</ele>
        <time>2021-10-02T07:05:53Z</time>
      </trkpt>
      <trkpt lat="42.92603" lon="0.29765">
        <ele>1277.8</ele>
        <time>2021-10-02T07:05:54Z</time>
      </trkpt>
      <trkpt lat="42.92601" lon="0.29767">
        <ele>1277.8</ele>
        <time>2021-10-02T07:05:55Z</time>
      </trkpt>
      <trkpt lat="42.92599" lon="0.29769">
        <ele>1278</ele>
        <time>2021-10-02T07:05:56Z</time>
      </trkpt>
      <trkpt lat="42.92598" lon="0.29771">
        <ele>1278.2</ele>
        <time>2021-10-02T07:05:57Z</time>
      </trkpt>
      <trkpt lat="42.92593" lon="0.29776">
        <ele>1278.4</ele>
        <time>2021-10-02T07:05:59Z</time>
      </trkpt>
      <trkpt lat="42.92585" lon="0.29783">
        <ele>1278.4</ele>
        <time>2021-10-02T07:06:02Z</time>
      </trkpt>
      <trkpt lat="42.92573" lon="0.298">
        <ele>1278.6</ele>
        <time>2021-10-02T07:06:07Z</time>
      </trkpt>
      <trkpt lat="42.92562" lon="0.29819">
        <ele>1279.2</ele>
        <time>2021-10-02T07:06:13Z</time>
      </trkpt>
      <trkpt lat="42.92548" lon="0.29839">
        <ele>1279.6</ele>
        <time>2021-10-02T07:06:20Z</time>
      </trkpt>
      <trkpt lat="42.92546" lon="0.29844">
        <ele>1279.6</ele>
        <time>2021-10-02T07:06:22Z</time>
      </trkpt>
      <trkpt lat="42.92543" lon="0.29849">
        <ele>1279.6</ele>
        <time>2021-10-02T07:06:24Z</time>
      </trkpt>
      <trkpt lat="42.9254" lon="0.29853">
        <ele>1279.6</ele>
        <time>2021-10-02T07:06:25Z</time>
      </trkpt>
      <trkpt lat="42.92536" lon="0.29859">
        <ele>1279.6</ele>
        <time>2021-10-02T07:06:27Z</time>
      </trkpt>
      <trkpt lat="42.92532" lon="0.29864">
        <ele>1279.6</ele>
        <time>2021-10-02T07:06:29Z</time>
      </trkpt>
      <trkpt lat="42.92531" lon="0.29868">
        <ele>1279.6</ele>
        <time>2021-10-02T07:06:30Z</time>
      </trkpt>
      <trkpt lat="42.92529" lon="0.29871">
        <ele>1279.6</ele>
        <time>2021-10-02T07:06:31Z</time>
      </trkpt>
      <trkpt lat="42.92528" lon="0.29874">
        <ele>1279.6</ele>
        <time>2021-10-02T07:06:32Z</time>
      </trkpt>
      <trkpt lat="42.92521" lon="0.29891">
        <ele>1279.6</ele>
        <time>2021-10-02T07:06:37Z</time>
      </trkpt>
      <trkpt lat="42.92519" lon="0.29895">
        <ele>1279.6</ele>
        <time>2021-10-02T07:06:38Z</time>
      </trkpt>
      <trkpt lat="42.92518" lon="0.29898">
        <ele>1279.8</ele>
        <time>2021-10-02T07:06:39Z</time>
      </trkpt>
      <trkpt lat="42.92517" lon="0.29913">
        <ele>1279.8</ele>
        <time>2021-10-02T07:06:42Z</time>
      </trkpt>
      <trkpt lat="42.92516" lon="0.29917">
        <ele>1279.8</ele>
        <time>2021-10-02T07:06:43Z</time>
      </trkpt>
      <trkpt lat="42.92511" lon="0.2993">
        <ele>1279.8</ele>
        <time>2021-10-02T07:06:46Z</time>
      </trkpt>
      <trkpt lat="42.92508" lon="0.29934">
        <ele>1279.8</ele>
        <time>2021-10-02T07:06:47Z</time>
      </trkpt>
      <trkpt lat="42.92507" lon="0.29938">
        <ele>1279.8</ele>
        <time>2021-10-02T07:06:48Z</time>
      </trkpt>
      <trkpt lat="42.92507" lon="0.29945">
        <ele>1279.8</ele>
        <time>2021-10-02T07:06:49Z</time>
      </trkpt>
      <trkpt lat="42.92507" lon="0.2995">
        <ele>1279.8</ele>
        <time>2021-10-02T07:06:50Z</time>
      </trkpt>
      <trkpt lat="42.92507" lon="0.29954">
        <ele>1279.8</ele>
        <time>2021-10-02T07:06:51Z</time>
      </trkpt>
      <trkpt lat="42.92506" lon="0.29958">
        <ele>1279.8</ele>
        <time>2021-10-02T07:06:52Z</time>
      </trkpt>
      <trkpt lat="42.92505" lon="0.29973">
        <ele>1280</ele>
        <time>2021-10-02T07:06:56Z</time>
      </trkpt>
      <trkpt lat="42.92505" lon="0.29977">
        <ele>1280.2</ele>
        <time>2021-10-02T07:06:57Z</time>
      </trkpt>
      <trkpt lat="42.92504" lon="0.29981">
        <ele>1280.2</ele>
        <time>2021-10-02T07:06:58Z</time>
      </trkpt>
      <trkpt lat="42.92503" lon="0.29984">
        <ele>1280.2</ele>
        <time>2021-10-02T07:06:59Z</time>
      </trkpt>
      <trkpt lat="42.92503" lon="0.29988">
        <ele>1280.2</ele>
        <time>2021-10-02T07:07:00Z</time>
      </trkpt>
      <trkpt lat="42.92502" lon="0.29992">
        <ele>1280.4</ele>
        <time>2021-10-02T07:07:01Z</time>
      </trkpt>
      <trkpt lat="42.92502" lon="0.29996">
        <ele>1280.2</ele>
        <time>2021-10-02T07:07:02Z</time>
      </trkpt>
      <trkpt lat="42.92501" lon="0.3">
        <ele>1280.4</ele>
        <time>2021-10-02T07:07:03Z</time>
      </trkpt>
      <trkpt lat="42.925" lon="0.30003">
        <ele>1280.6</ele>
        <time>2021-10-02T07:07:04Z</time>
      </trkpt>
      <trkpt lat="42.925" lon="0.30007">
        <ele>1280.8</ele>
        <time>2021-10-02T07:07:05Z</time>
      </trkpt>
      <trkpt lat="42.92497" lon="0.30016">
        <ele>1280.8</ele>
        <time>2021-10-02T07:07:08Z</time>
      </trkpt>
      <trkpt lat="42.92496" lon="0.30019">
        <ele>1281</ele>
        <time>2021-10-02T07:07:09Z</time>
      </trkpt>
      <trkpt lat="42.92495" lon="0.30023">
        <ele>1281.2</ele>
        <time>2021-10-02T07:07:10Z</time>
      </trkpt>
      <trkpt lat="42.92494" lon="0.30027">
        <ele>1281.4</ele>
        <time>2021-10-02T07:07:11Z</time>
      </trkpt>
      <trkpt lat="42.92493" lon="0.30031">
        <ele>1281.4</ele>
        <time>2021-10-02T07:07:12Z</time>
      </trkpt>
      <trkpt lat="42.92492" lon="0.30034">
        <ele>1281.6</ele>
        <time>2021-10-02T07:07:13Z</time>
      </trkpt>
      <trkpt lat="42.92491" lon="0.30037">
        <ele>1281.6</ele>
        <time>2021-10-02T07:07:14Z</time>
      </trkpt>
      <trkpt lat="42.92491" lon="0.30041">
        <ele>1281.6</ele>
        <time>2021-10-02T07:07:15Z</time>
      </trkpt>
      <trkpt lat="42.9249" lon="0.30043">
        <ele>1281.8</ele>
        <time>2021-10-02T07:07:16Z</time>
      </trkpt>
      <trkpt lat="42.92489" lon="0.30046">
        <ele>1282</ele>
        <time>2021-10-02T07:07:17Z</time>
      </trkpt>
      <trkpt lat="42.92489" lon="0.30049">
        <ele>1282.2</ele>
        <time>2021-10-02T07:07:18Z</time>
      </trkpt>
      <trkpt lat="42.92488" lon="0.30053">
        <ele>1282.4</ele>
        <time>2021-10-02T07:07:19Z</time>
      </trkpt>
      <trkpt lat="42.92488" lon="0.30056">
        <ele>1282.4</ele>
        <time>2021-10-02T07:07:20Z</time>
      </trkpt>
      <trkpt lat="42.92487" lon="0.3006">
        <ele>1282.6</ele>
        <time>2021-10-02T07:07:21Z</time>
      </trkpt>
      <trkpt lat="42.92487" lon="0.30063">
        <ele>1282.8</ele>
        <time>2021-10-02T07:07:22Z</time>
      </trkpt>
      <trkpt lat="42.92487" lon="0.30066">
        <ele>1282.8</ele>
        <time>2021-10-02T07:07:23Z</time>
      </trkpt>
      <trkpt lat="42.92487" lon="0.30069">
        <ele>1282.8</ele>
        <time>2021-10-02T07:07:24Z</time>
      </trkpt>
      <trkpt lat="42.92486" lon="0.30072">
        <ele>1283.2</ele>
        <time>2021-10-02T07:07:25Z</time>
      </trkpt>
      <trkpt lat="42.92485" lon="0.30074">
        <ele>1283.2</ele>
        <time>2021-10-02T07:07:26Z</time>
      </trkpt>
      <trkpt lat="42.92486" lon="0.30077">
        <ele>1283.2</ele>
        <time>2021-10-02T07:07:27Z</time>
      </trkpt>
      <trkpt lat="42.92486" lon="0.3008">
        <ele>1283.4</ele>
        <time>2021-10-02T07:07:28Z</time>
      </trkpt>
      <trkpt lat="42.92486" lon="0.30084">
        <ele>1283.6</ele>
        <time>2021-10-02T07:07:29Z</time>
      </trkpt>
      <trkpt lat="42.92485" lon="0.30087">
        <ele>1283.8</ele>
        <time>2021-10-02T07:07:30Z</time>
      </trkpt>
      <trkpt lat="42.92484" lon="0.3009">
        <ele>1283.8</ele>
        <time>2021-10-02T07:07:31Z</time>
      </trkpt>
      <trkpt lat="42.92483" lon="0.30093">
        <ele>1283.8</ele>
        <time>2021-10-02T07:07:32Z</time>
      </trkpt>
      <trkpt lat="42.92483" lon="0.30096">
        <ele>1283.8</ele>
        <time>2021-10-02T07:07:33Z</time>
      </trkpt>
      <trkpt lat="42.92483" lon="0.301">
        <ele>1283.8</ele>
        <time>2021-10-02T07:07:34Z</time>
      </trkpt>
      <trkpt lat="42.92483" lon="0.30102">
        <ele>1284</ele>
        <time>2021-10-02T07:07:35Z</time>
      </trkpt>
      <trkpt lat="42.92481" lon="0.30104">
        <ele>1284</ele>
        <time>2021-10-02T07:07:36Z</time>
      </trkpt>
      <trkpt lat="42.9248" lon="0.30106">
        <ele>1284</ele>
        <time>2021-10-02T07:07:37Z</time>
      </trkpt>
      <trkpt lat="42.92478" lon="0.30108">
        <ele>1284.4</ele>
        <time>2021-10-02T07:07:38Z</time>
      </trkpt>
      <trkpt lat="42.92477" lon="0.3011">
        <ele>1284.4</ele>
        <time>2021-10-02T07:07:39Z</time>
      </trkpt>
      <trkpt lat="42.92476" lon="0.30113">
        <ele>1284.8</ele>
        <time>2021-10-02T07:07:40Z</time>
      </trkpt>
      <trkpt lat="42.92475" lon="0.30115">
        <ele>1284.8</ele>
        <time>2021-10-02T07:07:41Z</time>
      </trkpt>
      <trkpt lat="42.92474" lon="0.30118">
        <ele>1285</ele>
        <time>2021-10-02T07:07:42Z</time>
      </trkpt>
      <trkpt lat="42.92473" lon="0.3012">
        <ele>1285.2</ele>
        <time>2021-10-02T07:07:43Z</time>
      </trkpt>
      <trkpt lat="42.92471" lon="0.30122">
        <ele>1285.4</ele>
        <time>2021-10-02T07:07:44Z</time>
      </trkpt>
      <trkpt lat="42.92471" lon="0.30126">
        <ele>1285.4</ele>
        <time>2021-10-02T07:07:45Z</time>
      </trkpt>
      <trkpt lat="42.9247" lon="0.30128">
        <ele>1285.6</ele>
        <time>2021-10-02T07:07:46Z</time>
      </trkpt>
      <trkpt lat="42.92469" lon="0.3013">
        <ele>1285.8</ele>
        <time>2021-10-02T07:07:47Z</time>
      </trkpt>
      <trkpt lat="42.92468" lon="0.30132">
        <ele>1285.8</ele>
        <time>2021-10-02T07:07:48Z</time>
      </trkpt>
      <trkpt lat="42.92466" lon="0.30134">
        <ele>1286</ele>
        <time>2021-10-02T07:07:49Z</time>
      </trkpt>
      <trkpt lat="42.92465" lon="0.30136">
        <ele>1286.2</ele>
        <time>2021-10-02T07:07:50Z</time>
      </trkpt>
      <trkpt lat="42.92464" lon="0.30139">
        <ele>1286.4</ele>
        <time>2021-10-02T07:07:51Z</time>
      </trkpt>
      <trkpt lat="42.92462" lon="0.30141">
        <ele>1286.8</ele>
        <time>2021-10-02T07:07:52Z</time>
      </trkpt>
      <trkpt lat="42.92461" lon="0.30143">
        <ele>1287</ele>
        <time>2021-10-02T07:07:53Z</time>
      </trkpt>
      <trkpt lat="42.9246" lon="0.30145">
        <ele>1287.2</ele>
        <time>2021-10-02T07:07:54Z</time>
      </trkpt>
      <trkpt lat="42.92459" lon="0.30147">
        <ele>1287.4</ele>
        <time>2021-10-02T07:07:55Z</time>
      </trkpt>
      <trkpt lat="42.92458" lon="0.30149">
        <ele>1287.6</ele>
        <time>2021-10-02T07:07:56Z</time>
      </trkpt>
      <trkpt lat="42.92456" lon="0.3015">
        <ele>1287.6</ele>
        <time>2021-10-02T07:07:57Z</time>
      </trkpt>
      <trkpt lat="42.92454" lon="0.30151">
        <ele>1287.8</ele>
        <time>2021-10-02T07:07:58Z</time>
      </trkpt>
      <trkpt lat="42.92452" lon="0.30153">
        <ele>1288</ele>
        <time>2021-10-02T07:07:59Z</time>
      </trkpt>
      <trkpt lat="42.92451" lon="0.30155">
        <ele>1288</ele>
        <time>2021-10-02T07:08:00Z</time>
      </trkpt>
      <trkpt lat="42.92449" lon="0.30158">
        <ele>1288.2</ele>
        <time>2021-10-02T07:08:01Z</time>
      </trkpt>
      <trkpt lat="42.92449" lon="0.30162">
        <ele>1288.2</ele>
        <time>2021-10-02T07:08:02Z</time>
      </trkpt>
      <trkpt lat="42.92449" lon="0.30165">
        <ele>1288.6</ele>
        <time>2021-10-02T07:08:03Z</time>
      </trkpt>
      <trkpt lat="42.9245" lon="0.30169">
        <ele>1288.6</ele>
        <time>2021-10-02T07:08:04Z</time>
      </trkpt>
      <trkpt lat="42.92451" lon="0.30172">
        <ele>1288.8</ele>
        <time>2021-10-02T07:08:05Z</time>
      </trkpt>
      <trkpt lat="42.92452" lon="0.30174">
        <ele>1289</ele>
        <time>2021-10-02T07:08:06Z</time>
      </trkpt>
      <trkpt lat="42.92453" lon="0.30175">
        <ele>1289</ele>
        <time>2021-10-02T07:08:07Z</time>
      </trkpt>
      <trkpt lat="42.92454" lon="0.30177">
        <ele>1289</ele>
        <time>2021-10-02T07:08:08Z</time>
      </trkpt>
      <trkpt lat="42.92454" lon="0.30178">
        <ele>1289.2</ele>
        <time>2021-10-02T07:08:09Z</time>
      </trkpt>
      <trkpt lat="42.92453" lon="0.30179">
        <ele>1289.6</ele>
        <time>2021-10-02T07:08:10Z</time>
      </trkpt>
      <trkpt lat="42.92454" lon="0.30179">
        <ele>1289.6</ele>
        <time>2021-10-02T07:08:11Z</time>
      </trkpt>
      <trkpt lat="42.92454" lon="0.30179">
        <ele>1289.6</ele>
        <time>2021-10-02T07:08:12Z</time>
      </trkpt>
      <trkpt lat="42.92455" lon="0.3018">
        <ele>1289.8</ele>
        <time>2021-10-02T07:08:13Z</time>
      </trkpt>
      <trkpt lat="42.92457" lon="0.30181">
        <ele>1290.2</ele>
        <time>2021-10-02T07:08:14Z</time>
      </trkpt>
      <trkpt lat="42.92458" lon="0.30181">
        <ele>1290.4</ele>
        <time>2021-10-02T07:08:15Z</time>
      </trkpt>
      <trkpt lat="42.92458" lon="0.30182">
        <ele>1290.6</ele>
        <time>2021-10-02T07:08:16Z</time>
      </trkpt>
      <trkpt lat="42.92459" lon="0.30184">
        <ele>1290.8</ele>
        <time>2021-10-02T07:08:17Z</time>
      </trkpt>
      <trkpt lat="42.9246" lon="0.30185">
        <ele>1290.8</ele>
        <time>2021-10-02T07:08:18Z</time>
      </trkpt>
      <trkpt lat="42.9246" lon="0.30186">
        <ele>1291</ele>
        <time>2021-10-02T07:08:19Z</time>
      </trkpt>
      <trkpt lat="42.92461" lon="0.30188">
        <ele>1291.2</ele>
        <time>2021-10-02T07:08:20Z</time>
      </trkpt>
      <trkpt lat="42.92461" lon="0.30189">
        <ele>1291.4</ele>
        <time>2021-10-02T07:08:21Z</time>
      </trkpt>
      <trkpt lat="42.92462" lon="0.30189">
        <ele>1291.4</ele>
        <time>2021-10-02T07:08:22Z</time>
      </trkpt>
      <trkpt lat="42.92463" lon="0.3019">
        <ele>1291.6</ele>
        <time>2021-10-02T07:08:23Z</time>
      </trkpt>
      <trkpt lat="42.92463" lon="0.3019">
        <ele>1291.8</ele>
        <time>2021-10-02T07:08:24Z</time>
      </trkpt>
      <trkpt lat="42.92463" lon="0.30191">
        <ele>1292</ele>
        <time>2021-10-02T07:08:25Z</time>
      </trkpt>
      <trkpt lat="42.92461" lon="0.30191">
        <ele>1292</ele>
        <time>2021-10-02T07:08:26Z</time>
      </trkpt>
      <trkpt lat="42.92462" lon="0.30191">
        <ele>1292</ele>
        <time>2021-10-02T07:08:27Z</time>
      </trkpt>
      <trkpt lat="42.92462" lon="0.30191">
        <ele>1292.4</ele>
        <time>2021-10-02T07:08:28Z</time>
      </trkpt>
      <trkpt lat="42.92462" lon="0.30191">
        <ele>1292.6</ele>
        <time>2021-10-02T07:08:29Z</time>
      </trkpt>
      <trkpt lat="42.92462" lon="0.30191">
        <ele>1292.6</ele>
        <time>2021-10-02T07:08:30Z</time>
      </trkpt>
      <trkpt lat="42.92462" lon="0.30191">
        <ele>1292.8</ele>
        <time>2021-10-02T07:08:31Z</time>
      </trkpt>
      <trkpt lat="42.92462" lon="0.30191">
        <ele>1292.8</ele>
        <time>2021-10-02T07:08:32Z</time>
      </trkpt>
      <trkpt lat="42.92462" lon="0.30191">
        <ele>1293.2</ele>
        <time>2021-10-02T07:08:33Z</time>
      </trkpt>
      <trkpt lat="42.92461" lon="0.30192">
        <ele>1293.4</ele>
        <time>2021-10-02T07:08:34Z</time>
      </trkpt>
      <trkpt lat="42.92461" lon="0.30192">
        <ele>1293.6</ele>
        <time>2021-10-02T07:08:35Z</time>
      </trkpt>
      <trkpt lat="42.92462" lon="0.30192">
        <ele>1293.8</ele>
        <time>2021-10-02T07:08:36Z</time>
      </trkpt>
      <trkpt lat="42.92464" lon="0.30192">
        <ele>1294</ele>
        <time>2021-10-02T07:08:37Z</time>
      </trkpt>
      <trkpt lat="42.92465" lon="0.30193">
        <ele>1294</ele>
        <time>2021-10-02T07:08:38Z</time>
      </trkpt>
      <trkpt lat="42.92466" lon="0.30194">
        <ele>1294.2</ele>
        <time>2021-10-02T07:08:39Z</time>
      </trkpt>
      <trkpt lat="42.92467" lon="0.30195">
        <ele>1294.2</ele>
        <time>2021-10-02T07:08:40Z</time>
      </trkpt>
      <trkpt lat="42.92468" lon="0.30195">
        <ele>1294.4</ele>
        <time>2021-10-02T07:08:41Z</time>
      </trkpt>
      <trkpt lat="42.92468" lon="0.30195">
        <ele>1294.6</ele>
        <time>2021-10-02T07:08:42Z</time>
      </trkpt>
      <trkpt lat="42.92467" lon="0.30193">
        <ele>1294.6</ele>
        <time>2021-10-02T07:08:43Z</time>
      </trkpt>
      <trkpt lat="42.92466" lon="0.30191">
        <ele>1294.8</ele>
        <time>2021-10-02T07:08:44Z</time>
      </trkpt>
      <trkpt lat="42.92466" lon="0.30191">
        <ele>1294.8</ele>
        <time>2021-10-02T07:08:45Z</time>
      </trkpt>
      <trkpt lat="42.92466" lon="0.30191">
        <ele>1295.2</ele>
        <time>2021-10-02T07:08:46Z</time>
      </trkpt>
      <trkpt lat="42.92467" lon="0.3019">
        <ele>1295.4</ele>
        <time>2021-10-02T07:08:47Z</time>
      </trkpt>
      <trkpt lat="42.92468" lon="0.30191">
        <ele>1295.6</ele>
        <time>2021-10-02T07:08:48Z</time>
      </trkpt>
      <trkpt lat="42.92468" lon="0.30191">
        <ele>1295.8</ele>
        <time>2021-10-02T07:08:49Z</time>
      </trkpt>
      <trkpt lat="42.92469" lon="0.30191">
        <ele>1295.8</ele>
        <time>2021-10-02T07:08:50Z</time>
      </trkpt>
      <trkpt lat="42.9247" lon="0.30191">
        <ele>1296</ele>
        <time>2021-10-02T07:08:51Z</time>
      </trkpt>
      <trkpt lat="42.92471" lon="0.30191">
        <ele>1296.2</ele>
        <time>2021-10-02T07:08:52Z</time>
      </trkpt>
      <trkpt lat="42.92472" lon="0.30191">
        <ele>1296.2</ele>
        <time>2021-10-02T07:08:53Z</time>
      </trkpt>
      <trkpt lat="42.92473" lon="0.30191">
        <ele>1296.4</ele>
        <time>2021-10-02T07:08:54Z</time>
      </trkpt>
      <trkpt lat="42.92474" lon="0.3019">
        <ele>1296.6</ele>
        <time>2021-10-02T07:08:55Z</time>
      </trkpt>
      <trkpt lat="42.92476" lon="0.3019">
        <ele>1296.6</ele>
        <time>2021-10-02T07:08:56Z</time>
      </trkpt>
      <trkpt lat="42.92477" lon="0.30191">
        <ele>1296.8</ele>
        <time>2021-10-02T07:08:57Z</time>
      </trkpt>
      <trkpt lat="42.92479" lon="0.30191">
        <ele>1296.8</ele>
        <time>2021-10-02T07:08:58Z</time>
      </trkpt>
      <trkpt lat="42.92481" lon="0.30192">
        <ele>1296.8</ele>
        <time>2021-10-02T07:08:59Z</time>
      </trkpt>
      <trkpt lat="42.92483" lon="0.30192">
        <ele>1297.2</ele>
        <time>2021-10-02T07:09:00Z</time>
      </trkpt>
      <trkpt lat="42.92485" lon="0.30193">
        <ele>1297.4</ele>
        <time>2021-10-02T07:09:01Z</time>
      </trkpt>
      <trkpt lat="42.92487" lon="0.30194">
        <ele>1297.8</ele>
        <time>2021-10-02T07:09:02Z</time>
      </trkpt>
      <trkpt lat="42.92488" lon="0.30194">
        <ele>1297.8</ele>
        <time>2021-10-02T07:09:03Z</time>
      </trkpt>
      <trkpt lat="42.9249" lon="0.30195">
        <ele>1298</ele>
        <time>2021-10-02T07:09:04Z</time>
      </trkpt>
      <trkpt lat="42.92492" lon="0.30195">
        <ele>1298</ele>
        <time>2021-10-02T07:09:05Z</time>
      </trkpt>
      <trkpt lat="42.92493" lon="0.30196">
        <ele>1298.2</ele>
        <time>2021-10-02T07:09:06Z</time>
      </trkpt>
      <trkpt lat="42.92495" lon="0.30196">
        <ele>1298.2</ele>
        <time>2021-10-02T07:09:07Z</time>
      </trkpt>
      <trkpt lat="42.92496" lon="0.30195">
        <ele>1298.4</ele>
        <time>2021-10-02T07:09:08Z</time>
      </trkpt>
      <trkpt lat="42.92499" lon="0.30195">
        <ele>1298.6</ele>
        <time>2021-10-02T07:09:09Z</time>
      </trkpt>
      <trkpt lat="42.92501" lon="0.30196">
        <ele>1298.8</ele>
        <time>2021-10-02T07:09:10Z</time>
      </trkpt>
      <trkpt lat="42.92503" lon="0.30196">
        <ele>1298.8</ele>
        <time>2021-10-02T07:09:11Z</time>
      </trkpt>
      <trkpt lat="42.92505" lon="0.30197">
        <ele>1299</ele>
        <time>2021-10-02T07:09:12Z</time>
      </trkpt>
      <trkpt lat="42.92508" lon="0.30198">
        <ele>1299</ele>
        <time>2021-10-02T07:09:13Z</time>
      </trkpt>
      <trkpt lat="42.9251" lon="0.30199">
        <ele>1299.2</ele>
        <time>2021-10-02T07:09:14Z</time>
      </trkpt>
      <trkpt lat="42.92512" lon="0.302">
        <ele>1299.4</ele>
        <time>2021-10-02T07:09:15Z</time>
      </trkpt>
      <trkpt lat="42.92513" lon="0.30201">
        <ele>1299.6</ele>
        <time>2021-10-02T07:09:16Z</time>
      </trkpt>
      <trkpt lat="42.92516" lon="0.30202">
        <ele>1300</ele>
        <time>2021-10-02T07:09:17Z</time>
      </trkpt>
      <trkpt lat="42.92518" lon="0.30203">
        <ele>1300.2</ele>
        <time>2021-10-02T07:09:18Z</time>
      </trkpt>
      <trkpt lat="42.9252" lon="0.30203">
        <ele>1300.4</ele>
        <time>2021-10-02T07:09:19Z</time>
      </trkpt>
      <trkpt lat="42.92523" lon="0.30205">
        <ele>1300.4</ele>
        <time>2021-10-02T07:09:20Z</time>
      </trkpt>
      <trkpt lat="42.92526" lon="0.30206">
        <ele>1300.6</ele>
        <time>2021-10-02T07:09:21Z</time>
      </trkpt>
      <trkpt lat="42.92528" lon="0.30207">
        <ele>1300.6</ele>
        <time>2021-10-02T07:09:22Z</time>
      </trkpt>
      <trkpt lat="42.92529" lon="0.30208">
        <ele>1301</ele>
        <time>2021-10-02T07:09:23Z</time>
      </trkpt>
      <trkpt lat="42.9253" lon="0.30208">
        <ele>1301</ele>
        <time>2021-10-02T07:09:24Z</time>
      </trkpt>
      <trkpt lat="42.92531" lon="0.30209">
        <ele>1301.2</ele>
        <time>2021-10-02T07:09:25Z</time>
      </trkpt>
      <trkpt lat="42.92533" lon="0.3021">
        <ele>1301.2</ele>
        <time>2021-10-02T07:09:26Z</time>
      </trkpt>
      <trkpt lat="42.92533" lon="0.3021">
        <ele>1301.6</ele>
        <time>2021-10-02T07:09:27Z</time>
      </trkpt>
      <trkpt lat="42.92533" lon="0.3021">
        <ele>1301.6</ele>
        <time>2021-10-02T07:09:28Z</time>
      </trkpt>
      <trkpt lat="42.92534" lon="0.30211">
        <ele>1301.8</ele>
        <time>2021-10-02T07:09:29Z</time>
      </trkpt>
      <trkpt lat="42.92536" lon="0.30212">
        <ele>1302</ele>
        <time>2021-10-02T07:09:30Z</time>
      </trkpt>
      <trkpt lat="42.92538" lon="0.30212">
        <ele>1302</ele>
        <time>2021-10-02T07:09:31Z</time>
      </trkpt>
      <trkpt lat="42.92539" lon="0.30212">
        <ele>1302.2</ele>
        <time>2021-10-02T07:09:32Z</time>
      </trkpt>
      <trkpt lat="42.9254" lon="0.30211">
        <ele>1302.4</ele>
        <time>2021-10-02T07:09:33Z</time>
      </trkpt>
      <trkpt lat="42.92542" lon="0.30211">
        <ele>1302.6</ele>
        <time>2021-10-02T07:09:34Z</time>
      </trkpt>
      <trkpt lat="42.92543" lon="0.3021">
        <ele>1302.6</ele>
        <time>2021-10-02T07:09:35Z</time>
      </trkpt>
      <trkpt lat="42.92544" lon="0.30209">
        <ele>1303</ele>
        <time>2021-10-02T07:09:36Z</time>
      </trkpt>
      <trkpt lat="42.92544" lon="0.3021">
        <ele>1303</ele>
        <time>2021-10-02T07:09:37Z</time>
      </trkpt>
      <trkpt lat="42.92545" lon="0.3021">
        <ele>1303.4</ele>
        <time>2021-10-02T07:09:38Z</time>
      </trkpt>
      <trkpt lat="42.92547" lon="0.3021">
        <ele>1303.6</ele>
        <time>2021-10-02T07:09:39Z</time>
      </trkpt>
      <trkpt lat="42.92548" lon="0.30211">
        <ele>1303.8</ele>
        <time>2021-10-02T07:09:40Z</time>
      </trkpt>
      <trkpt lat="42.9255" lon="0.3021">
        <ele>1303.8</ele>
        <time>2021-10-02T07:09:41Z</time>
      </trkpt>
      <trkpt lat="42.92551" lon="0.3021">
        <ele>1303.8</ele>
        <time>2021-10-02T07:09:42Z</time>
      </trkpt>
      <trkpt lat="42.92552" lon="0.3021">
        <ele>1303.8</ele>
        <time>2021-10-02T07:09:43Z</time>
      </trkpt>
      <trkpt lat="42.92554" lon="0.3021">
        <ele>1304</ele>
        <time>2021-10-02T07:09:44Z</time>
      </trkpt>
      <trkpt lat="42.92555" lon="0.30211">
        <ele>1304.2</ele>
        <time>2021-10-02T07:09:45Z</time>
      </trkpt>
      <trkpt lat="42.92557" lon="0.30211">
        <ele>1304.4</ele>
        <time>2021-10-02T07:09:46Z</time>
      </trkpt>
      <trkpt lat="42.92559" lon="0.30211">
        <ele>1304.6</ele>
        <time>2021-10-02T07:09:47Z</time>
      </trkpt>
      <trkpt lat="42.9256" lon="0.30211">
        <ele>1304.6</ele>
        <time>2021-10-02T07:09:48Z</time>
      </trkpt>
      <trkpt lat="42.92561" lon="0.30211">
        <ele>1304.8</ele>
        <time>2021-10-02T07:09:49Z</time>
      </trkpt>
      <trkpt lat="42.92563" lon="0.30212">
        <ele>1305</ele>
        <time>2021-10-02T07:09:50Z</time>
      </trkpt>
      <trkpt lat="42.92564" lon="0.30212">
        <ele>1305.2</ele>
        <time>2021-10-02T07:09:51Z</time>
      </trkpt>
      <trkpt lat="42.92566" lon="0.30213">
        <ele>1305.2</ele>
        <time>2021-10-02T07:09:52Z</time>
      </trkpt>
      <trkpt lat="42.92568" lon="0.30213">
        <ele>1305.4</ele>
        <time>2021-10-02T07:09:53Z</time>
      </trkpt>
      <trkpt lat="42.92568" lon="0.30213">
        <ele>1305.6</ele>
        <time>2021-10-02T07:09:54Z</time>
      </trkpt>
      <trkpt lat="42.9257" lon="0.30213">
        <ele>1305.8</ele>
        <time>2021-10-02T07:09:55Z</time>
      </trkpt>
      <trkpt lat="42.92572" lon="0.30212">
        <ele>1305.8</ele>
        <time>2021-10-02T07:09:56Z</time>
      </trkpt>
      <trkpt lat="42.92572" lon="0.30212">
        <ele>1306</ele>
        <time>2021-10-02T07:09:57Z</time>
      </trkpt>
      <trkpt lat="42.92573" lon="0.30212">
        <ele>1306.2</ele>
        <time>2021-10-02T07:09:58Z</time>
      </trkpt>
      <trkpt lat="42.92573" lon="0.30212">
        <ele>1306.4</ele>
        <time>2021-10-02T07:09:59Z</time>
      </trkpt>
      <trkpt lat="42.92574" lon="0.30212">
        <ele>1306.6</ele>
        <time>2021-10-02T07:10:00Z</time>
      </trkpt>
      <trkpt lat="42.92575" lon="0.30212">
        <ele>1306.8</ele>
        <time>2021-10-02T07:10:01Z</time>
      </trkpt>
      <trkpt lat="42.92577" lon="0.30211">
        <ele>1306.8</ele>
        <time>2021-10-02T07:10:02Z</time>
      </trkpt>
      <trkpt lat="42.92579" lon="0.30211">
        <ele>1307</ele>
        <time>2021-10-02T07:10:03Z</time>
      </trkpt>
      <trkpt lat="42.92581" lon="0.30211">
        <ele>1307.2</ele>
        <time>2021-10-02T07:10:04Z</time>
      </trkpt>
      <trkpt lat="42.92583" lon="0.30211">
        <ele>1307.2</ele>
        <time>2021-10-02T07:10:05Z</time>
      </trkpt>
      <trkpt lat="42.92585" lon="0.30211">
        <ele>1307.4</ele>
        <time>2021-10-02T07:10:06Z</time>
      </trkpt>
      <trkpt lat="42.92587" lon="0.30212">
        <ele>1307.4</ele>
        <time>2021-10-02T07:10:07Z</time>
      </trkpt>
      <trkpt lat="42.9259" lon="0.30212">
        <ele>1307.4</ele>
        <time>2021-10-02T07:10:08Z</time>
      </trkpt>
      <trkpt lat="42.92592" lon="0.30213">
        <ele>1307.6</ele>
        <time>2021-10-02T07:10:09Z</time>
      </trkpt>
      <trkpt lat="42.92594" lon="0.30214">
        <ele>1307.8</ele>
        <time>2021-10-02T07:10:10Z</time>
      </trkpt>
      <trkpt lat="42.92597" lon="0.30214">
        <ele>1308.2</ele>
        <time>2021-10-02T07:10:11Z</time>
      </trkpt>
      <trkpt lat="42.926" lon="0.30214">
        <ele>1308.4</ele>
        <time>2021-10-02T07:10:12Z</time>
      </trkpt>
      <trkpt lat="42.92601" lon="0.30214">
        <ele>1308.6</ele>
        <time>2021-10-02T07:10:13Z</time>
      </trkpt>
      <trkpt lat="42.92603" lon="0.30215">
        <ele>1308.8</ele>
        <time>2021-10-02T07:10:14Z</time>
      </trkpt>
      <trkpt lat="42.92605" lon="0.30216">
        <ele>1308.8</ele>
        <time>2021-10-02T07:10:15Z</time>
      </trkpt>
      <trkpt lat="42.92607" lon="0.30216">
        <ele>1309</ele>
        <time>2021-10-02T07:10:16Z</time>
      </trkpt>
      <trkpt lat="42.92608" lon="0.30217">
        <ele>1309</ele>
        <time>2021-10-02T07:10:17Z</time>
      </trkpt>
      <trkpt lat="42.9261" lon="0.30218">
        <ele>1309.2</ele>
        <time>2021-10-02T07:10:18Z</time>
      </trkpt>
      <trkpt lat="42.92613" lon="0.30218">
        <ele>1309.4</ele>
        <time>2021-10-02T07:10:19Z</time>
      </trkpt>
      <trkpt lat="42.92615" lon="0.30219">
        <ele>1309.4</ele>
        <time>2021-10-02T07:10:20Z</time>
      </trkpt>
      <trkpt lat="42.92617" lon="0.3022">
        <ele>1309.6</ele>
        <time>2021-10-02T07:10:21Z</time>
      </trkpt>
      <trkpt lat="42.92619" lon="0.30222">
        <ele>1309.8</ele>
        <time>2021-10-02T07:10:22Z</time>
      </trkpt>
      <trkpt lat="42.92621" lon="0.30222">
        <ele>1310</ele>
        <time>2021-10-02T07:10:23Z</time>
      </trkpt>
      <trkpt lat="42.92623" lon="0.30223">
        <ele>1310.2</ele>
        <time>2021-10-02T07:10:24Z</time>
      </trkpt>
      <trkpt lat="42.92625" lon="0.30223">
        <ele>1310.4</ele>
        <time>2021-10-02T07:10:25Z</time>
      </trkpt>
      <trkpt lat="42.92627" lon="0.30225">
        <ele>1310.6</ele>
        <time>2021-10-02T07:10:26Z</time>
      </trkpt>
      <trkpt lat="42.92629" lon="0.30226">
        <ele>1310.6</ele>
        <time>2021-10-02T07:10:27Z</time>
      </trkpt>
      <trkpt lat="42.92631" lon="0.30226">
        <ele>1310.8</ele>
        <time>2021-10-02T07:10:28Z</time>
      </trkpt>
      <trkpt lat="42.92632" lon="0.30226">
        <ele>1310.8</ele>
        <time>2021-10-02T07:10:29Z</time>
      </trkpt>
      <trkpt lat="42.92633" lon="0.30227">
        <ele>1311</ele>
        <time>2021-10-02T07:10:30Z</time>
      </trkpt>
      <trkpt lat="42.92635" lon="0.30228">
        <ele>1311.2</ele>
        <time>2021-10-02T07:10:31Z</time>
      </trkpt>
      <trkpt lat="42.92637" lon="0.30229">
        <ele>1311.2</ele>
        <time>2021-10-02T07:10:32Z</time>
      </trkpt>
      <trkpt lat="42.92638" lon="0.30228">
        <ele>1311.6</ele>
        <time>2021-10-02T07:10:33Z</time>
      </trkpt>
      <trkpt lat="42.9264" lon="0.30228">
        <ele>1311.6</ele>
        <time>2021-10-02T07:10:34Z</time>
      </trkpt>
      <trkpt lat="42.92642" lon="0.30226">
        <ele>1311.8</ele>
        <time>2021-10-02T07:10:35Z</time>
      </trkpt>
      <trkpt lat="42.92644" lon="0.30225">
        <ele>1312</ele>
        <time>2021-10-02T07:10:36Z</time>
      </trkpt>
      <trkpt lat="42.92645" lon="0.30225">
        <ele>1312.2</ele>
        <time>2021-10-02T07:10:37Z</time>
      </trkpt>
      <trkpt lat="42.92647" lon="0.30226">
        <ele>1312.4</ele>
        <time>2021-10-02T07:10:38Z</time>
      </trkpt>
      <trkpt lat="42.92647" lon="0.30226">
        <ele>1312.6</ele>
        <time>2021-10-02T07:10:39Z</time>
      </trkpt>
      <trkpt lat="42.92648" lon="0.30228">
        <ele>1312.8</ele>
        <time>2021-10-02T07:10:40Z</time>
      </trkpt>
      <trkpt lat="42.9265" lon="0.3023">
        <ele>1313</ele>
        <time>2021-10-02T07:10:41Z</time>
      </trkpt>
      <trkpt lat="42.92654" lon="0.30232">
        <ele>1313.2</ele>
        <time>2021-10-02T07:10:42Z</time>
      </trkpt>
      <trkpt lat="42.92654" lon="0.30233">
        <ele>1313.4</ele>
        <time>2021-10-02T07:10:43Z</time>
      </trkpt>
      <trkpt lat="42.92655" lon="0.30233">
        <ele>1313.4</ele>
        <time>2021-10-02T07:10:44Z</time>
      </trkpt>
      <trkpt lat="42.92656" lon="0.30234">
        <ele>1313.8</ele>
        <time>2021-10-02T07:10:45Z</time>
      </trkpt>
      <trkpt lat="42.92657" lon="0.30235">
        <ele>1313.8</ele>
        <time>2021-10-02T07:10:46Z</time>
      </trkpt>
      <trkpt lat="42.92659" lon="0.30237">
        <ele>1314</ele>
        <time>2021-10-02T07:10:47Z</time>
      </trkpt>
      <trkpt lat="42.92661" lon="0.30238">
        <ele>1314.2</ele>
        <time>2021-10-02T07:10:48Z</time>
      </trkpt>
      <trkpt lat="42.92663" lon="0.30238">
        <ele>1314.4</ele>
        <time>2021-10-02T07:10:49Z</time>
      </trkpt>
      <trkpt lat="42.92664" lon="0.3024">
        <ele>1314.4</ele>
        <time>2021-10-02T07:10:50Z</time>
      </trkpt>
      <trkpt lat="42.92665" lon="0.30239">
        <ele>1314.6</ele>
        <time>2021-10-02T07:10:51Z</time>
      </trkpt>
      <trkpt lat="42.92668" lon="0.30241">
        <ele>1314.6</ele>
        <time>2021-10-02T07:10:52Z</time>
      </trkpt>
      <trkpt lat="42.92671" lon="0.30243">
        <ele>1314.8</ele>
        <time>2021-10-02T07:10:53Z</time>
      </trkpt>
      <trkpt lat="42.92673" lon="0.30244">
        <ele>1315</ele>
        <time>2021-10-02T07:10:54Z</time>
      </trkpt>
      <trkpt lat="42.92676" lon="0.30246">
        <ele>1315.2</ele>
        <time>2021-10-02T07:10:55Z</time>
      </trkpt>
      <trkpt lat="42.92677" lon="0.30248">
        <ele>1315.4</ele>
        <time>2021-10-02T07:10:56Z</time>
      </trkpt>
      <trkpt lat="42.92679" lon="0.3025">
        <ele>1315.4</ele>
        <time>2021-10-02T07:10:57Z</time>
      </trkpt>
      <trkpt lat="42.92681" lon="0.30253">
        <ele>1315.8</ele>
        <time>2021-10-02T07:10:58Z</time>
      </trkpt>
      <trkpt lat="42.92683" lon="0.30255">
        <ele>1315.8</ele>
        <time>2021-10-02T07:10:59Z</time>
      </trkpt>
      <trkpt lat="42.92684" lon="0.30256">
        <ele>1316</ele>
        <time>2021-10-02T07:11:00Z</time>
      </trkpt>
      <trkpt lat="42.92685" lon="0.30257">
        <ele>1316</ele>
        <time>2021-10-02T07:11:01Z</time>
      </trkpt>
      <trkpt lat="42.92687" lon="0.30258">
        <ele>1316.2</ele>
        <time>2021-10-02T07:11:02Z</time>
      </trkpt>
      <trkpt lat="42.92688" lon="0.30259">
        <ele>1316.4</ele>
        <time>2021-10-02T07:11:03Z</time>
      </trkpt>
      <trkpt lat="42.9269" lon="0.30262">
        <ele>1316.4</ele>
        <time>2021-10-02T07:11:04Z</time>
      </trkpt>
      <trkpt lat="42.9269" lon="0.30264">
        <ele>1316.6</ele>
        <time>2021-10-02T07:11:05Z</time>
      </trkpt>
      <trkpt lat="42.92691" lon="0.30266">
        <ele>1317</ele>
        <time>2021-10-02T07:11:06Z</time>
      </trkpt>
      <trkpt lat="42.92692" lon="0.30267">
        <ele>1317</ele>
        <time>2021-10-02T07:11:07Z</time>
      </trkpt>
      <trkpt lat="42.92694" lon="0.30265">
        <ele>1317.4</ele>
        <time>2021-10-02T07:11:08Z</time>
      </trkpt>
      <trkpt lat="42.92695" lon="0.30266">
        <ele>1317.4</ele>
        <time>2021-10-02T07:11:09Z</time>
      </trkpt>
      <trkpt lat="42.92693" lon="0.30267">
        <ele>1317.4</ele>
        <time>2021-10-02T07:11:10Z</time>
      </trkpt>
      <trkpt lat="42.92694" lon="0.30268">
        <ele>1317.6</ele>
        <time>2021-10-02T07:11:11Z</time>
      </trkpt>
      <trkpt lat="42.92694" lon="0.3027">
        <ele>1317.8</ele>
        <time>2021-10-02T07:11:12Z</time>
      </trkpt>
      <trkpt lat="42.92694" lon="0.30272">
        <ele>1318</ele>
        <time>2021-10-02T07:11:13Z</time>
      </trkpt>
      <trkpt lat="42.92695" lon="0.30273">
        <ele>1318.2</ele>
        <time>2021-10-02T07:11:14Z</time>
      </trkpt>
      <trkpt lat="42.92696" lon="0.30274">
        <ele>1318.4</ele>
        <time>2021-10-02T07:11:15Z</time>
      </trkpt>
      <trkpt lat="42.92696" lon="0.30276">
        <ele>1318.4</ele>
        <time>2021-10-02T07:11:16Z</time>
      </trkpt>
      <trkpt lat="42.92697" lon="0.30276">
        <ele>1318.8</ele>
        <time>2021-10-02T07:11:17Z</time>
      </trkpt>
      <trkpt lat="42.92697" lon="0.30277">
        <ele>1319</ele>
        <time>2021-10-02T07:11:18Z</time>
      </trkpt>
      <trkpt lat="42.92697" lon="0.30279">
        <ele>1319.2</ele>
        <time>2021-10-02T07:11:19Z</time>
      </trkpt>
      <trkpt lat="42.92698" lon="0.30281">
        <ele>1319.2</ele>
        <time>2021-10-02T07:11:20Z</time>
      </trkpt>
      <trkpt lat="42.92698" lon="0.30282">
        <ele>1319.6</ele>
        <time>2021-10-02T07:11:21Z</time>
      </trkpt>
      <trkpt lat="42.92698" lon="0.30283">
        <ele>1319.6</ele>
        <time>2021-10-02T07:11:22Z</time>
      </trkpt>
      <trkpt lat="42.92698" lon="0.30284">
        <ele>1319.8</ele>
        <time>2021-10-02T07:11:23Z</time>
      </trkpt>
      <trkpt lat="42.92697" lon="0.30285">
        <ele>1320</ele>
        <time>2021-10-02T07:11:24Z</time>
      </trkpt>
      <trkpt lat="42.92698" lon="0.30287">
        <ele>1320.2</ele>
        <time>2021-10-02T07:11:25Z</time>
      </trkpt>
      <trkpt lat="42.92699" lon="0.3029">
        <ele>1320.2</ele>
        <time>2021-10-02T07:11:26Z</time>
      </trkpt>
      <trkpt lat="42.92698" lon="0.30292">
        <ele>1320.4</ele>
        <time>2021-10-02T07:11:27Z</time>
      </trkpt>
      <trkpt lat="42.92699" lon="0.30294">
        <ele>1320.4</ele>
        <time>2021-10-02T07:11:28Z</time>
      </trkpt>
      <trkpt lat="42.927" lon="0.30296">
        <ele>1320.6</ele>
        <time>2021-10-02T07:11:29Z</time>
      </trkpt>
      <trkpt lat="42.927" lon="0.30298">
        <ele>1320.6</ele>
        <time>2021-10-02T07:11:30Z</time>
      </trkpt>
      <trkpt lat="42.92699" lon="0.303">
        <ele>1320.8</ele>
        <time>2021-10-02T07:11:31Z</time>
      </trkpt>
      <trkpt lat="42.92699" lon="0.30302">
        <ele>1321</ele>
        <time>2021-10-02T07:11:32Z</time>
      </trkpt>
      <trkpt lat="42.92699" lon="0.30305">
        <ele>1321</ele>
        <time>2021-10-02T07:11:33Z</time>
      </trkpt>
      <trkpt lat="42.92699" lon="0.30307">
        <ele>1321.2</ele>
        <time>2021-10-02T07:11:34Z</time>
      </trkpt>
      <trkpt lat="42.92699" lon="0.30309">
        <ele>1321.4</ele>
        <time>2021-10-02T07:11:35Z</time>
      </trkpt>
      <trkpt lat="42.92699" lon="0.30311">
        <ele>1321.4</ele>
        <time>2021-10-02T07:11:36Z</time>
      </trkpt>
      <trkpt lat="42.92699" lon="0.30312">
        <ele>1321.8</ele>
        <time>2021-10-02T07:11:37Z</time>
      </trkpt>
      <trkpt lat="42.92699" lon="0.30313">
        <ele>1322</ele>
        <time>2021-10-02T07:11:38Z</time>
      </trkpt>
      <trkpt lat="42.92698" lon="0.30315">
        <ele>1322.2</ele>
        <time>2021-10-02T07:11:39Z</time>
      </trkpt>
      <trkpt lat="42.92699" lon="0.30317">
        <ele>1322.4</ele>
        <time>2021-10-02T07:11:40Z</time>
      </trkpt>
      <trkpt lat="42.92698" lon="0.30318">
        <ele>1322.6</ele>
        <time>2021-10-02T07:11:41Z</time>
      </trkpt>
      <trkpt lat="42.92698" lon="0.3032">
        <ele>1322.8</ele>
        <time>2021-10-02T07:11:42Z</time>
      </trkpt>
      <trkpt lat="42.92698" lon="0.30322">
        <ele>1323</ele>
        <time>2021-10-02T07:11:43Z</time>
      </trkpt>
      <trkpt lat="42.92698" lon="0.30324">
        <ele>1323.2</ele>
        <time>2021-10-02T07:11:44Z</time>
      </trkpt>
      <trkpt lat="42.92699" lon="0.30326">
        <ele>1323.4</ele>
        <time>2021-10-02T07:11:45Z</time>
      </trkpt>
      <trkpt lat="42.92699" lon="0.30328">
        <ele>1323.6</ele>
        <time>2021-10-02T07:11:46Z</time>
      </trkpt>
      <trkpt lat="42.927" lon="0.3033">
        <ele>1323.6</ele>
        <time>2021-10-02T07:11:47Z</time>
      </trkpt>
      <trkpt lat="42.927" lon="0.30332">
        <ele>1323.8</ele>
        <time>2021-10-02T07:11:48Z</time>
      </trkpt>
      <trkpt lat="42.92701" lon="0.30334">
        <ele>1323.8</ele>
        <time>2021-10-02T07:11:49Z</time>
      </trkpt>
      <trkpt lat="42.92701" lon="0.30336">
        <ele>1324</ele>
        <time>2021-10-02T07:11:50Z</time>
      </trkpt>
      <trkpt lat="42.927" lon="0.30337">
        <ele>1324.2</ele>
        <time>2021-10-02T07:11:51Z</time>
      </trkpt>
      <trkpt lat="42.927" lon="0.30339">
        <ele>1324.4</ele>
        <time>2021-10-02T07:11:52Z</time>
      </trkpt>
      <trkpt lat="42.927" lon="0.30341">
        <ele>1324.6</ele>
        <time>2021-10-02T07:11:53Z</time>
      </trkpt>
      <trkpt lat="42.927" lon="0.30342">
        <ele>1324.6</ele>
        <time>2021-10-02T07:11:54Z</time>
      </trkpt>
      <trkpt lat="42.927" lon="0.30344">
        <ele>1324.8</ele>
        <time>2021-10-02T07:11:55Z</time>
      </trkpt>
      <trkpt lat="42.927" lon="0.30346">
        <ele>1325</ele>
        <time>2021-10-02T07:11:56Z</time>
      </trkpt>
      <trkpt lat="42.927" lon="0.30347">
        <ele>1325</ele>
        <time>2021-10-02T07:11:57Z</time>
      </trkpt>
      <trkpt lat="42.92702" lon="0.30349">
        <ele>1325.2</ele>
        <time>2021-10-02T07:11:58Z</time>
      </trkpt>
      <trkpt lat="42.92702" lon="0.30352">
        <ele>1325.2</ele>
        <time>2021-10-02T07:11:59Z</time>
      </trkpt>
      <trkpt lat="42.92702" lon="0.30355">
        <ele>1325.4</ele>
        <time>2021-10-02T07:12:00Z</time>
      </trkpt>
      <trkpt lat="42.92702" lon="0.30357">
        <ele>1325.6</ele>
        <time>2021-10-02T07:12:01Z</time>
      </trkpt>
      <trkpt lat="42.92702" lon="0.30359">
        <ele>1325.8</ele>
        <time>2021-10-02T07:12:02Z</time>
      </trkpt>
      <trkpt lat="42.92702" lon="0.3036">
        <ele>1326</ele>
        <time>2021-10-02T07:12:03Z</time>
      </trkpt>
      <trkpt lat="42.92701" lon="0.30361">
        <ele>1326.2</ele>
        <time>2021-10-02T07:12:04Z</time>
      </trkpt>
      <trkpt lat="42.92701" lon="0.30363">
        <ele>1326.4</ele>
        <time>2021-10-02T07:12:05Z</time>
      </trkpt>
      <trkpt lat="42.92701" lon="0.30364">
        <ele>1326.4</ele>
        <time>2021-10-02T07:12:06Z</time>
      </trkpt>
      <trkpt lat="42.92701" lon="0.30367">
        <ele>1326.6</ele>
        <time>2021-10-02T07:12:07Z</time>
      </trkpt>
      <trkpt lat="42.92702" lon="0.30369">
        <ele>1326.6</ele>
        <time>2021-10-02T07:12:08Z</time>
      </trkpt>
      <trkpt lat="42.92702" lon="0.3037">
        <ele>1326.8</ele>
        <time>2021-10-02T07:12:09Z</time>
      </trkpt>
      <trkpt lat="42.92703" lon="0.30373">
        <ele>1327</ele>
        <time>2021-10-02T07:12:10Z</time>
      </trkpt>
      <trkpt lat="42.92704" lon="0.30375">
        <ele>1327</ele>
        <time>2021-10-02T07:12:11Z</time>
      </trkpt>
      <trkpt lat="42.92704" lon="0.30377">
        <ele>1327.2</ele>
        <time>2021-10-02T07:12:12Z</time>
      </trkpt>
      <trkpt lat="42.92704" lon="0.30378">
        <ele>1327.2</ele>
        <time>2021-10-02T07:12:13Z</time>
      </trkpt>
      <trkpt lat="42.92705" lon="0.30379">
        <ele>1327.4</ele>
        <time>2021-10-02T07:12:14Z</time>
      </trkpt>
      <trkpt lat="42.92705" lon="0.30381">
        <ele>1327.8</ele>
        <time>2021-10-02T07:12:15Z</time>
      </trkpt>
      <trkpt lat="42.92703" lon="0.30384">
        <ele>1328</ele>
        <time>2021-10-02T07:12:16Z</time>
      </trkpt>
      <trkpt lat="42.92702" lon="0.30386">
        <ele>1328.2</ele>
        <time>2021-10-02T07:12:17Z</time>
      </trkpt>
      <trkpt lat="42.92701" lon="0.30388">
        <ele>1328.2</ele>
        <time>2021-10-02T07:12:18Z</time>
      </trkpt>
      <trkpt lat="42.92701" lon="0.3039">
        <ele>1328.4</ele>
        <time>2021-10-02T07:12:19Z</time>
      </trkpt>
      <trkpt lat="42.92701" lon="0.30391">
        <ele>1328.6</ele>
        <time>2021-10-02T07:12:20Z</time>
      </trkpt>
      <trkpt lat="42.92701" lon="0.30392">
        <ele>1328.8</ele>
        <time>2021-10-02T07:12:21Z</time>
      </trkpt>
      <trkpt lat="42.92701" lon="0.30393">
        <ele>1329</ele>
        <time>2021-10-02T07:12:22Z</time>
      </trkpt>
      <trkpt lat="42.92701" lon="0.30394">
        <ele>1329</ele>
        <time>2021-10-02T07:12:23Z</time>
      </trkpt>
      <trkpt lat="42.92701" lon="0.30395">
        <ele>1329.2</ele>
        <time>2021-10-02T07:12:24Z</time>
      </trkpt>
      <trkpt lat="42.92701" lon="0.30396">
        <ele>1329.4</ele>
        <time>2021-10-02T07:12:25Z</time>
      </trkpt>
      <trkpt lat="42.92702" lon="0.30398">
        <ele>1329.6</ele>
        <time>2021-10-02T07:12:26Z</time>
      </trkpt>
      <trkpt lat="42.92702" lon="0.30399">
        <ele>1329.6</ele>
        <time>2021-10-02T07:12:27Z</time>
      </trkpt>
      <trkpt lat="42.92703" lon="0.30401">
        <ele>1329.8</ele>
        <time>2021-10-02T07:12:28Z</time>
      </trkpt>
      <trkpt lat="42.92703" lon="0.30403">
        <ele>1330</ele>
        <time>2021-10-02T07:12:29Z</time>
      </trkpt>
      <trkpt lat="42.92703" lon="0.30405">
        <ele>1330.2</ele>
        <time>2021-10-02T07:12:30Z</time>
      </trkpt>
      <trkpt lat="42.92703" lon="0.30407">
        <ele>1330.4</ele>
        <time>2021-10-02T07:12:31Z</time>
      </trkpt>
      <trkpt lat="42.92702" lon="0.30408">
        <ele>1330.4</ele>
        <time>2021-10-02T07:12:32Z</time>
      </trkpt>
      <trkpt lat="42.92702" lon="0.3041">
        <ele>1330.6</ele>
        <time>2021-10-02T07:12:33Z</time>
      </trkpt>
      <trkpt lat="42.92702" lon="0.30412">
        <ele>1330.8</ele>
        <time>2021-10-02T07:12:34Z</time>
      </trkpt>
      <trkpt lat="42.92703" lon="0.30413">
        <ele>1331</ele>
        <time>2021-10-02T07:12:35Z</time>
      </trkpt>
      <trkpt lat="42.92702" lon="0.30414">
        <ele>1331.2</ele>
        <time>2021-10-02T07:12:36Z</time>
      </trkpt>
      <trkpt lat="42.92703" lon="0.30415">
        <ele>1331.2</ele>
        <time>2021-10-02T07:12:37Z</time>
      </trkpt>
      <trkpt lat="42.92705" lon="0.30418">
        <ele>1331.2</ele>
        <time>2021-10-02T07:12:38Z</time>
      </trkpt>
      <trkpt lat="42.92705" lon="0.3042">
        <ele>1331.4</ele>
        <time>2021-10-02T07:12:39Z</time>
      </trkpt>
      <trkpt lat="42.92705" lon="0.30422">
        <ele>1331.6</ele>
        <time>2021-10-02T07:12:40Z</time>
      </trkpt>
      <trkpt lat="42.92705" lon="0.30424">
        <ele>1331.8</ele>
        <time>2021-10-02T07:12:41Z</time>
      </trkpt>
      <trkpt lat="42.92706" lon="0.30427">
        <ele>1332</ele>
        <time>2021-10-02T07:12:42Z</time>
      </trkpt>
      <trkpt lat="42.92708" lon="0.30429">
        <ele>1332</ele>
        <time>2021-10-02T07:12:43Z</time>
      </trkpt>
      <trkpt lat="42.92708" lon="0.3043">
        <ele>1332.2</ele>
        <time>2021-10-02T07:12:44Z</time>
      </trkpt>
      <trkpt lat="42.92706" lon="0.30433">
        <ele>1332.4</ele>
        <time>2021-10-02T07:12:45Z</time>
      </trkpt>
      <trkpt lat="42.92705" lon="0.30435">
        <ele>1332.6</ele>
        <time>2021-10-02T07:12:46Z</time>
      </trkpt>
      <trkpt lat="42.92705" lon="0.30437">
        <ele>1332.8</ele>
        <time>2021-10-02T07:12:47Z</time>
      </trkpt>
      <trkpt lat="42.92705" lon="0.30439">
        <ele>1332.8</ele>
        <time>2021-10-02T07:12:48Z</time>
      </trkpt>
      <trkpt lat="42.92705" lon="0.30442">
        <ele>1333</ele>
        <time>2021-10-02T07:12:49Z</time>
      </trkpt>
      <trkpt lat="42.92706" lon="0.30444">
        <ele>1333.2</ele>
        <time>2021-10-02T07:12:50Z</time>
      </trkpt>
      <trkpt lat="42.92706" lon="0.30447">
        <ele>1333.2</ele>
        <time>2021-10-02T07:12:51Z</time>
      </trkpt>
      <trkpt lat="42.92705" lon="0.30447">
        <ele>1333.4</ele>
        <time>2021-10-02T07:12:52Z</time>
      </trkpt>
      <trkpt lat="42.92705" lon="0.30448">
        <ele>1333.4</ele>
        <time>2021-10-02T07:12:53Z</time>
      </trkpt>
      <trkpt lat="42.92705" lon="0.30448">
        <ele>1333.6</ele>
        <time>2021-10-02T07:12:54Z</time>
      </trkpt>
      <trkpt lat="42.92705" lon="0.30449">
        <ele>1333.8</ele>
        <time>2021-10-02T07:12:55Z</time>
      </trkpt>
      <trkpt lat="42.92705" lon="0.3045">
        <ele>1334</ele>
        <time>2021-10-02T07:12:56Z</time>
      </trkpt>
      <trkpt lat="42.92704" lon="0.30452">
        <ele>1334.2</ele>
        <time>2021-10-02T07:12:57Z</time>
      </trkpt>
      <trkpt lat="42.92704" lon="0.30453">
        <ele>1334.4</ele>
        <time>2021-10-02T07:12:58Z</time>
      </trkpt>
      <trkpt lat="42.92704" lon="0.30455">
        <ele>1334.6</ele>
        <time>2021-10-02T07:12:59Z</time>
      </trkpt>
      <trkpt lat="42.92704" lon="0.30456">
        <ele>1334.8</ele>
        <time>2021-10-02T07:13:00Z</time>
      </trkpt>
      <trkpt lat="42.92704" lon="0.30457">
        <ele>1334.6</ele>
        <time>2021-10-02T07:13:01Z</time>
      </trkpt>
      <trkpt lat="42.92704" lon="0.30459">
        <ele>1334.8</ele>
        <time>2021-10-02T07:13:02Z</time>
      </trkpt>
      <trkpt lat="42.92705" lon="0.3046">
        <ele>1335</ele>
        <time>2021-10-02T07:13:03Z</time>
      </trkpt>
      <trkpt lat="42.92704" lon="0.30461">
        <ele>1335.2</ele>
        <time>2021-10-02T07:13:04Z</time>
      </trkpt>
      <trkpt lat="42.92704" lon="0.30461">
        <ele>1335.2</ele>
        <time>2021-10-02T07:13:05Z</time>
      </trkpt>
      <trkpt lat="42.92704" lon="0.30462">
        <ele>1335.4</ele>
        <time>2021-10-02T07:13:06Z</time>
      </trkpt>
      <trkpt lat="42.92705" lon="0.30464">
        <ele>1335.4</ele>
        <time>2021-10-02T07:13:07Z</time>
      </trkpt>
      <trkpt lat="42.92706" lon="0.30465">
        <ele>1335.6</ele>
        <time>2021-10-02T07:13:08Z</time>
      </trkpt>
      <trkpt lat="42.92706" lon="0.30467">
        <ele>1335.8</ele>
        <time>2021-10-02T07:13:09Z</time>
      </trkpt>
      <trkpt lat="42.92706" lon="0.30469">
        <ele>1335.8</ele>
        <time>2021-10-02T07:13:10Z</time>
      </trkpt>
      <trkpt lat="42.92706" lon="0.30471">
        <ele>1336</ele>
        <time>2021-10-02T07:13:11Z</time>
      </trkpt>
      <trkpt lat="42.92705" lon="0.30473">
        <ele>1336.2</ele>
        <time>2021-10-02T07:13:12Z</time>
      </trkpt>
      <trkpt lat="42.92706" lon="0.30474">
        <ele>1336.4</ele>
        <time>2021-10-02T07:13:13Z</time>
      </trkpt>
      <trkpt lat="42.92706" lon="0.30476">
        <ele>1336.4</ele>
        <time>2021-10-02T07:13:14Z</time>
      </trkpt>
      <trkpt lat="42.92707" lon="0.3048">
        <ele>1336.8</ele>
        <time>2021-10-02T07:13:15Z</time>
      </trkpt>
      <trkpt lat="42.92708" lon="0.30483">
        <ele>1336.8</ele>
        <time>2021-10-02T07:13:16Z</time>
      </trkpt>
      <trkpt lat="42.92708" lon="0.30485">
        <ele>1337</ele>
        <time>2021-10-02T07:13:17Z</time>
      </trkpt>
      <trkpt lat="42.92708" lon="0.30486">
        <ele>1337.2</ele>
        <time>2021-10-02T07:13:18Z</time>
      </trkpt>
      <trkpt lat="42.92707" lon="0.30489">
        <ele>1337.2</ele>
        <time>2021-10-02T07:13:19Z</time>
      </trkpt>
      <trkpt lat="42.92706" lon="0.30491">
        <ele>1337.4</ele>
        <time>2021-10-02T07:13:20Z</time>
      </trkpt>
      <trkpt lat="42.92706" lon="0.30492">
        <ele>1337.6</ele>
        <time>2021-10-02T07:13:21Z</time>
      </trkpt>
      <trkpt lat="42.92706" lon="0.30494">
        <ele>1337.6</ele>
        <time>2021-10-02T07:13:22Z</time>
      </trkpt>
      <trkpt lat="42.92706" lon="0.30498">
        <ele>1338</ele>
        <time>2021-10-02T07:13:23Z</time>
      </trkpt>
      <trkpt lat="42.92706" lon="0.305">
        <ele>1338.2</ele>
        <time>2021-10-02T07:13:24Z</time>
      </trkpt>
      <trkpt lat="42.92707" lon="0.30502">
        <ele>1338.2</ele>
        <time>2021-10-02T07:13:25Z</time>
      </trkpt>
      <trkpt lat="42.92707" lon="0.30505">
        <ele>1338.4</ele>
        <time>2021-10-02T07:13:26Z</time>
      </trkpt>
      <trkpt lat="42.92707" lon="0.30507">
        <ele>1338.6</ele>
        <time>2021-10-02T07:13:27Z</time>
      </trkpt>
      <trkpt lat="42.92708" lon="0.3051">
        <ele>1338.8</ele>
        <time>2021-10-02T07:13:28Z</time>
      </trkpt>
      <trkpt lat="42.92709" lon="0.30515">
        <ele>1339.2</ele>
        <time>2021-10-02T07:13:29Z</time>
      </trkpt>
      <trkpt lat="42.9271" lon="0.30517">
        <ele>1339.4</ele>
        <time>2021-10-02T07:13:30Z</time>
      </trkpt>
      <trkpt lat="42.92709" lon="0.30519">
        <ele>1339.4</ele>
        <time>2021-10-02T07:13:31Z</time>
      </trkpt>
      <trkpt lat="42.92709" lon="0.30521">
        <ele>1339.4</ele>
        <time>2021-10-02T07:13:32Z</time>
      </trkpt>
      <trkpt lat="42.9271" lon="0.30524">
        <ele>1339.4</ele>
        <time>2021-10-02T07:13:33Z</time>
      </trkpt>
      <trkpt lat="42.92711" lon="0.30526">
        <ele>1339.6</ele>
        <time>2021-10-02T07:13:34Z</time>
      </trkpt>
      <trkpt lat="42.92711" lon="0.30529">
        <ele>1339.6</ele>
        <time>2021-10-02T07:13:35Z</time>
      </trkpt>
      <trkpt lat="42.92711" lon="0.30532">
        <ele>1339.8</ele>
        <time>2021-10-02T07:13:36Z</time>
      </trkpt>
      <trkpt lat="42.9271" lon="0.30534">
        <ele>1340</ele>
        <time>2021-10-02T07:13:37Z</time>
      </trkpt>
      <trkpt lat="42.92709" lon="0.30535">
        <ele>1340.2</ele>
        <time>2021-10-02T07:13:38Z</time>
      </trkpt>
      <trkpt lat="42.9271" lon="0.30537">
        <ele>1340.4</ele>
        <time>2021-10-02T07:13:39Z</time>
      </trkpt>
      <trkpt lat="42.9271" lon="0.30539">
        <ele>1340.6</ele>
        <time>2021-10-02T07:13:40Z</time>
      </trkpt>
      <trkpt lat="42.92709" lon="0.30541">
        <ele>1340.6</ele>
        <time>2021-10-02T07:13:41Z</time>
      </trkpt>
      <trkpt lat="42.92708" lon="0.30542">
        <ele>1341</ele>
        <time>2021-10-02T07:13:42Z</time>
      </trkpt>
      <trkpt lat="42.92707" lon="0.30543">
        <ele>1341.2</ele>
        <time>2021-10-02T07:13:43Z</time>
      </trkpt>
      <trkpt lat="42.92706" lon="0.30544">
        <ele>1341.4</ele>
        <time>2021-10-02T07:13:44Z</time>
      </trkpt>
      <trkpt lat="42.92706" lon="0.30546">
        <ele>1341.4</ele>
        <time>2021-10-02T07:13:45Z</time>
      </trkpt>
      <trkpt lat="42.92706" lon="0.30547">
        <ele>1341.8</ele>
        <time>2021-10-02T07:13:46Z</time>
      </trkpt>
      <trkpt lat="42.92705" lon="0.30548">
        <ele>1342</ele>
        <time>2021-10-02T07:13:47Z</time>
      </trkpt>
      <trkpt lat="42.92705" lon="0.3055">
        <ele>1342.2</ele>
        <time>2021-10-02T07:13:48Z</time>
      </trkpt>
      <trkpt lat="42.92705" lon="0.30552">
        <ele>1342.2</ele>
        <time>2021-10-02T07:13:49Z</time>
      </trkpt>
      <trkpt lat="42.92705" lon="0.30553">
        <ele>1342.4</ele>
        <time>2021-10-02T07:13:50Z</time>
      </trkpt>
      <trkpt lat="42.92704" lon="0.30555">
        <ele>1342.8</ele>
        <time>2021-10-02T07:13:51Z</time>
      </trkpt>
      <trkpt lat="42.92703" lon="0.30556">
        <ele>1342.8</ele>
        <time>2021-10-02T07:13:52Z</time>
      </trkpt>
      <trkpt lat="42.92702" lon="0.30557">
        <ele>1343</ele>
        <time>2021-10-02T07:13:53Z</time>
      </trkpt>
      <trkpt lat="42.92702" lon="0.30559">
        <ele>1343</ele>
        <time>2021-10-02T07:13:54Z</time>
      </trkpt>
      <trkpt lat="42.92701" lon="0.3056">
        <ele>1343.2</ele>
        <time>2021-10-02T07:13:55Z</time>
      </trkpt>
      <trkpt lat="42.92701" lon="0.30561">
        <ele>1343.2</ele>
        <time>2021-10-02T07:13:56Z</time>
      </trkpt>
      <trkpt lat="42.92701" lon="0.30562">
        <ele>1343.4</ele>
        <time>2021-10-02T07:13:57Z</time>
      </trkpt>
      <trkpt lat="42.927" lon="0.30563">
        <ele>1343.6</ele>
        <time>2021-10-02T07:13:58Z</time>
      </trkpt>
      <trkpt lat="42.92699" lon="0.30565">
        <ele>1343.8</ele>
        <time>2021-10-02T07:13:59Z</time>
      </trkpt>
      <trkpt lat="42.92699" lon="0.30566">
        <ele>1344</ele>
        <time>2021-10-02T07:14:00Z</time>
      </trkpt>
      <trkpt lat="42.92699" lon="0.30567">
        <ele>1344.2</ele>
        <time>2021-10-02T07:14:01Z</time>
      </trkpt>
      <trkpt lat="42.92698" lon="0.30568">
        <ele>1344.4</ele>
        <time>2021-10-02T07:14:02Z</time>
      </trkpt>
      <trkpt lat="42.92697" lon="0.3057">
        <ele>1344.6</ele>
        <time>2021-10-02T07:14:03Z</time>
      </trkpt>
      <trkpt lat="42.92696" lon="0.30571">
        <ele>1344.8</ele>
        <time>2021-10-02T07:14:04Z</time>
      </trkpt>
      <trkpt lat="42.92694" lon="0.30571">
        <ele>1344.8</ele>
        <time>2021-10-02T07:14:05Z</time>
      </trkpt>
      <trkpt lat="42.92693" lon="0.30572">
        <ele>1344.8</ele>
        <time>2021-10-02T07:14:06Z</time>
      </trkpt>
      <trkpt lat="42.92692" lon="0.30573">
        <ele>1345</ele>
        <time>2021-10-02T07:14:07Z</time>
      </trkpt>
      <trkpt lat="42.92691" lon="0.30575">
        <ele>1345.2</ele>
        <time>2021-10-02T07:14:08Z</time>
      </trkpt>
      <trkpt lat="42.9269" lon="0.30576">
        <ele>1345.6</ele>
        <time>2021-10-02T07:14:09Z</time>
      </trkpt>
      <trkpt lat="42.9269" lon="0.30578">
        <ele>1345.8</ele>
        <time>2021-10-02T07:14:10Z</time>
      </trkpt>
      <trkpt lat="42.92689" lon="0.3058">
        <ele>1346</ele>
        <time>2021-10-02T07:14:11Z</time>
      </trkpt>
      <trkpt lat="42.92688" lon="0.30582">
        <ele>1346.2</ele>
        <time>2021-10-02T07:14:12Z</time>
      </trkpt>
      <trkpt lat="42.92687" lon="0.30583">
        <ele>1346.2</ele>
        <time>2021-10-02T07:14:13Z</time>
      </trkpt>
      <trkpt lat="42.92686" lon="0.30585">
        <ele>1346.4</ele>
        <time>2021-10-02T07:14:14Z</time>
      </trkpt>
      <trkpt lat="42.92685" lon="0.30587">
        <ele>1346.6</ele>
        <time>2021-10-02T07:14:15Z</time>
      </trkpt>
      <trkpt lat="42.92684" lon="0.30589">
        <ele>1346.4</ele>
        <time>2021-10-02T07:14:16Z</time>
      </trkpt>
      <trkpt lat="42.92683" lon="0.30591">
        <ele>1346.6</ele>
        <time>2021-10-02T07:14:17Z</time>
      </trkpt>
      <trkpt lat="42.92683" lon="0.30593">
        <ele>1346.8</ele>
        <time>2021-10-02T07:14:18Z</time>
      </trkpt>
      <trkpt lat="42.92681" lon="0.30594">
        <ele>1347</ele>
        <time>2021-10-02T07:14:19Z</time>
      </trkpt>
      <trkpt lat="42.9268" lon="0.30595">
        <ele>1347.2</ele>
        <time>2021-10-02T07:14:20Z</time>
      </trkpt>
      <trkpt lat="42.9268" lon="0.30596">
        <ele>1347.4</ele>
        <time>2021-10-02T07:14:21Z</time>
      </trkpt>
      <trkpt lat="42.9268" lon="0.30597">
        <ele>1347.6</ele>
        <time>2021-10-02T07:14:22Z</time>
      </trkpt>
      <trkpt lat="42.9268" lon="0.30599">
        <ele>1347.8</ele>
        <time>2021-10-02T07:14:23Z</time>
      </trkpt>
      <trkpt lat="42.92679" lon="0.306">
        <ele>1348</ele>
        <time>2021-10-02T07:14:24Z</time>
      </trkpt>
      <trkpt lat="42.92678" lon="0.30602">
        <ele>1348</ele>
        <time>2021-10-02T07:14:25Z</time>
      </trkpt>
      <trkpt lat="42.92677" lon="0.30603">
        <ele>1348.2</ele>
        <time>2021-10-02T07:14:26Z</time>
      </trkpt>
      <trkpt lat="42.92676" lon="0.30604">
        <ele>1348.4</ele>
        <time>2021-10-02T07:14:27Z</time>
      </trkpt>
      <trkpt lat="42.92674" lon="0.30605">
        <ele>1348.6</ele>
        <time>2021-10-02T07:14:28Z</time>
      </trkpt>
      <trkpt lat="42.92673" lon="0.30606">
        <ele>1348.8</ele>
        <time>2021-10-02T07:14:29Z</time>
      </trkpt>
      <trkpt lat="42.92671" lon="0.30607">
        <ele>1349</ele>
        <time>2021-10-02T07:14:30Z</time>
      </trkpt>
      <trkpt lat="42.9267" lon="0.30608">
        <ele>1349.2</ele>
        <time>2021-10-02T07:14:31Z</time>
      </trkpt>
      <trkpt lat="42.92669" lon="0.3061">
        <ele>1349.2</ele>
        <time>2021-10-02T07:14:32Z</time>
      </trkpt>
      <trkpt lat="42.92668" lon="0.30611">
        <ele>1349.4</ele>
        <time>2021-10-02T07:14:33Z</time>
      </trkpt>
      <trkpt lat="42.92667" lon="0.30612">
        <ele>1349.4</ele>
        <time>2021-10-02T07:14:34Z</time>
      </trkpt>
      <trkpt lat="42.92667" lon="0.30614">
        <ele>1349.6</ele>
        <time>2021-10-02T07:14:35Z</time>
      </trkpt>
      <trkpt lat="42.92666" lon="0.30616">
        <ele>1349.8</ele>
        <time>2021-10-02T07:14:36Z</time>
      </trkpt>
      <trkpt lat="42.92665" lon="0.30618">
        <ele>1350.2</ele>
        <time>2021-10-02T07:14:37Z</time>
      </trkpt>
      <trkpt lat="42.92664" lon="0.30619">
        <ele>1350.4</ele>
        <time>2021-10-02T07:14:38Z</time>
      </trkpt>
      <trkpt lat="42.92664" lon="0.30621">
        <ele>1350.8</ele>
        <time>2021-10-02T07:14:39Z</time>
      </trkpt>
      <trkpt lat="42.92663" lon="0.30622">
        <ele>1350.8</ele>
        <time>2021-10-02T07:14:40Z</time>
      </trkpt>
      <trkpt lat="42.92662" lon="0.30624">
        <ele>1351</ele>
        <time>2021-10-02T07:14:41Z</time>
      </trkpt>
      <trkpt lat="42.92661" lon="0.30625">
        <ele>1351</ele>
        <time>2021-10-02T07:14:42Z</time>
      </trkpt>
      <trkpt lat="42.92661" lon="0.30627">
        <ele>1351.2</ele>
        <time>2021-10-02T07:14:43Z</time>
      </trkpt>
      <trkpt lat="42.92661" lon="0.30627">
        <ele>1351.4</ele>
        <time>2021-10-02T07:14:44Z</time>
      </trkpt>
      <trkpt lat="42.9266" lon="0.30628">
        <ele>1351.4</ele>
        <time>2021-10-02T07:14:45Z</time>
      </trkpt>
      <trkpt lat="42.92659" lon="0.30629">
        <ele>1351.6</ele>
        <time>2021-10-02T07:14:46Z</time>
      </trkpt>
      <trkpt lat="42.92658" lon="0.30631">
        <ele>1351.6</ele>
        <time>2021-10-02T07:14:47Z</time>
      </trkpt>
      <trkpt lat="42.92657" lon="0.30631">
        <ele>1351.8</ele>
        <time>2021-10-02T07:14:48Z</time>
      </trkpt>
      <trkpt lat="42.92656" lon="0.30632">
        <ele>1352</ele>
        <time>2021-10-02T07:14:49Z</time>
      </trkpt>
      <trkpt lat="42.92655" lon="0.30633">
        <ele>1352.2</ele>
        <time>2021-10-02T07:14:50Z</time>
      </trkpt>
      <trkpt lat="42.92654" lon="0.30634">
        <ele>1352.2</ele>
        <time>2021-10-02T07:14:51Z</time>
      </trkpt>
      <trkpt lat="42.92653" lon="0.30635">
        <ele>1352.6</ele>
        <time>2021-10-02T07:14:52Z</time>
      </trkpt>
      <trkpt lat="42.92652" lon="0.30637">
        <ele>1352.6</ele>
        <time>2021-10-02T07:14:53Z</time>
      </trkpt>
      <trkpt lat="42.92651" lon="0.30638">
        <ele>1352.8</ele>
        <time>2021-10-02T07:14:54Z</time>
      </trkpt>
      <trkpt lat="42.92649" lon="0.30639">
        <ele>1352.8</ele>
        <time>2021-10-02T07:14:55Z</time>
      </trkpt>
      <trkpt lat="42.92648" lon="0.30641">
        <ele>1353.2</ele>
        <time>2021-10-02T07:14:56Z</time>
      </trkpt>
      <trkpt lat="42.92648" lon="0.30642">
        <ele>1353.2</ele>
        <time>2021-10-02T07:14:57Z</time>
      </trkpt>
      <trkpt lat="42.92648" lon="0.30645">
        <ele>1353.6</ele>
        <time>2021-10-02T07:14:58Z</time>
      </trkpt>
      <trkpt lat="42.92647" lon="0.30646">
        <ele>1353.8</ele>
        <time>2021-10-02T07:14:59Z</time>
      </trkpt>
      <trkpt lat="42.92646" lon="0.30647">
        <ele>1353.8</ele>
        <time>2021-10-02T07:15:00Z</time>
      </trkpt>
      <trkpt lat="42.92645" lon="0.30649">
        <ele>1354</ele>
        <time>2021-10-02T07:15:01Z</time>
      </trkpt>
      <trkpt lat="42.92644" lon="0.30651">
        <ele>1354.2</ele>
        <time>2021-10-02T07:15:02Z</time>
      </trkpt>
      <trkpt lat="42.92644" lon="0.30653">
        <ele>1354.4</ele>
        <time>2021-10-02T07:15:03Z</time>
      </trkpt>
      <trkpt lat="42.92643" lon="0.30654">
        <ele>1354.4</ele>
        <time>2021-10-02T07:15:04Z</time>
      </trkpt>
      <trkpt lat="42.92641" lon="0.30655">
        <ele>1354.6</ele>
        <time>2021-10-02T07:15:05Z</time>
      </trkpt>
      <trkpt lat="42.92641" lon="0.30656">
        <ele>1354.8</ele>
        <time>2021-10-02T07:15:06Z</time>
      </trkpt>
      <trkpt lat="42.9264" lon="0.30658">
        <ele>1355</ele>
        <time>2021-10-02T07:15:07Z</time>
      </trkpt>
      <trkpt lat="42.92639" lon="0.30659">
        <ele>1355.2</ele>
        <time>2021-10-02T07:15:08Z</time>
      </trkpt>
      <trkpt lat="42.92638" lon="0.30661">
        <ele>1355.4</ele>
        <time>2021-10-02T07:15:09Z</time>
      </trkpt>
      <trkpt lat="42.92637" lon="0.30664">
        <ele>1355.6</ele>
        <time>2021-10-02T07:15:10Z</time>
      </trkpt>
      <trkpt lat="42.92637" lon="0.30666">
        <ele>1355.8</ele>
        <time>2021-10-02T07:15:11Z</time>
      </trkpt>
      <trkpt lat="42.92636" lon="0.30667">
        <ele>1355.8</ele>
        <time>2021-10-02T07:15:12Z</time>
      </trkpt>
      <trkpt lat="42.92635" lon="0.30668">
        <ele>1356</ele>
        <time>2021-10-02T07:15:13Z</time>
      </trkpt>
      <trkpt lat="42.92635" lon="0.30669">
        <ele>1356</ele>
        <time>2021-10-02T07:15:14Z</time>
      </trkpt>
      <trkpt lat="42.92634" lon="0.3067">
        <ele>1356.2</ele>
        <time>2021-10-02T07:15:15Z</time>
      </trkpt>
      <trkpt lat="42.92633" lon="0.30672">
        <ele>1356.4</ele>
        <time>2021-10-02T07:15:16Z</time>
      </trkpt>
      <trkpt lat="42.92633" lon="0.30672">
        <ele>1356.4</ele>
        <time>2021-10-02T07:15:17Z</time>
      </trkpt>
      <trkpt lat="42.92632" lon="0.30673">
        <ele>1356.6</ele>
        <time>2021-10-02T07:15:18Z</time>
      </trkpt>
      <trkpt lat="42.92631" lon="0.30674">
        <ele>1356.6</ele>
        <time>2021-10-02T07:15:19Z</time>
      </trkpt>
      <trkpt lat="42.9263" lon="0.30675">
        <ele>1356.8</ele>
        <time>2021-10-02T07:15:20Z</time>
      </trkpt>
      <trkpt lat="42.92629" lon="0.30675">
        <ele>1357</ele>
        <time>2021-10-02T07:15:21Z</time>
      </trkpt>
      <trkpt lat="42.92628" lon="0.30676">
        <ele>1357.2</ele>
        <time>2021-10-02T07:15:22Z</time>
      </trkpt>
      <trkpt lat="42.92628" lon="0.30677">
        <ele>1357.4</ele>
        <time>2021-10-02T07:15:23Z</time>
      </trkpt>
      <trkpt lat="42.92627" lon="0.30678">
        <ele>1357.6</ele>
        <time>2021-10-02T07:15:24Z</time>
      </trkpt>
      <trkpt lat="42.92626" lon="0.30679">
        <ele>1357.8</ele>
        <time>2021-10-02T07:15:25Z</time>
      </trkpt>
      <trkpt lat="42.92625" lon="0.30681">
        <ele>1357.8</ele>
        <time>2021-10-02T07:15:26Z</time>
      </trkpt>
      <trkpt lat="42.92624" lon="0.30683">
        <ele>1357.8</ele>
        <time>2021-10-02T07:15:27Z</time>
      </trkpt>
      <trkpt lat="42.92623" lon="0.30685">
        <ele>1357.8</ele>
        <time>2021-10-02T07:15:28Z</time>
      </trkpt>
      <trkpt lat="42.92622" lon="0.30686">
        <ele>1358</ele>
        <time>2021-10-02T07:15:29Z</time>
      </trkpt>
      <trkpt lat="42.92621" lon="0.30688">
        <ele>1358.2</ele>
        <time>2021-10-02T07:15:30Z</time>
      </trkpt>
      <trkpt lat="42.92621" lon="0.3069">
        <ele>1358.4</ele>
        <time>2021-10-02T07:15:31Z</time>
      </trkpt>
      <trkpt lat="42.9262" lon="0.30691">
        <ele>1358.6</ele>
        <time>2021-10-02T07:15:32Z</time>
      </trkpt>
      <trkpt lat="42.92619" lon="0.30692">
        <ele>1358.8</ele>
        <time>2021-10-02T07:15:33Z</time>
      </trkpt>
      <trkpt lat="42.92618" lon="0.30694">
        <ele>1359</ele>
        <time>2021-10-02T07:15:34Z</time>
      </trkpt>
      <trkpt lat="42.92617" lon="0.30695">
        <ele>1359</ele>
        <time>2021-10-02T07:15:35Z</time>
      </trkpt>
      <trkpt lat="42.92617" lon="0.30697">
        <ele>1359.2</ele>
        <time>2021-10-02T07:15:36Z</time>
      </trkpt>
      <trkpt lat="42.92616" lon="0.30698">
        <ele>1359.2</ele>
        <time>2021-10-02T07:15:37Z</time>
      </trkpt>
      <trkpt lat="42.92615" lon="0.30699">
        <ele>1359.4</ele>
        <time>2021-10-02T07:15:38Z</time>
      </trkpt>
      <trkpt lat="42.92615" lon="0.30701">
        <ele>1359.4</ele>
        <time>2021-10-02T07:15:39Z</time>
      </trkpt>
      <trkpt lat="42.92614" lon="0.30703">
        <ele>1359.8</ele>
        <time>2021-10-02T07:15:40Z</time>
      </trkpt>
      <trkpt lat="42.92613" lon="0.30704">
        <ele>1359.8</ele>
        <time>2021-10-02T07:15:41Z</time>
      </trkpt>
      <trkpt lat="42.92613" lon="0.30705">
        <ele>1360.2</ele>
        <time>2021-10-02T07:15:42Z</time>
      </trkpt>
      <trkpt lat="42.92613" lon="0.30707">
        <ele>1360.2</ele>
        <time>2021-10-02T07:15:43Z</time>
      </trkpt>
      <trkpt lat="42.92613" lon="0.30708">
        <ele>1360.4</ele>
        <time>2021-10-02T07:15:44Z</time>
      </trkpt>
      <trkpt lat="42.92611" lon="0.30709">
        <ele>1360.4</ele>
        <time>2021-10-02T07:15:45Z</time>
      </trkpt>
      <trkpt lat="42.92609" lon="0.3071">
        <ele>1360.4</ele>
        <time>2021-10-02T07:15:46Z</time>
      </trkpt>
      <trkpt lat="42.92608" lon="0.30713">
        <ele>1360.6</ele>
        <time>2021-10-02T07:15:47Z</time>
      </trkpt>
      <trkpt lat="42.92607" lon="0.30713">
        <ele>1360.6</ele>
        <time>2021-10-02T07:15:48Z</time>
      </trkpt>
      <trkpt lat="42.92606" lon="0.30715">
        <ele>1360.8</ele>
        <time>2021-10-02T07:15:49Z</time>
      </trkpt>
      <trkpt lat="42.92606" lon="0.30718">
        <ele>1361</ele>
        <time>2021-10-02T07:15:50Z</time>
      </trkpt>
      <trkpt lat="42.92605" lon="0.30721">
        <ele>1361.2</ele>
        <time>2021-10-02T07:15:51Z</time>
      </trkpt>
      <trkpt lat="42.92604" lon="0.30722">
        <ele>1361.2</ele>
        <time>2021-10-02T07:15:52Z</time>
      </trkpt>
      <trkpt lat="42.92604" lon="0.30723">
        <ele>1361.6</ele>
        <time>2021-10-02T07:15:53Z</time>
      </trkpt>
      <trkpt lat="42.92603" lon="0.30723">
        <ele>1361.6</ele>
        <time>2021-10-02T07:15:54Z</time>
      </trkpt>
      <trkpt lat="42.92603" lon="0.30723">
        <ele>1361.8</ele>
        <time>2021-10-02T07:15:55Z</time>
      </trkpt>
      <trkpt lat="42.92602" lon="0.30725">
        <ele>1362</ele>
        <time>2021-10-02T07:15:56Z</time>
      </trkpt>
      <trkpt lat="42.92601" lon="0.30726">
        <ele>1362</ele>
        <time>2021-10-02T07:15:57Z</time>
      </trkpt>
      <trkpt lat="42.92601" lon="0.30727">
        <ele>1362.2</ele>
        <time>2021-10-02T07:15:58Z</time>
      </trkpt>
      <trkpt lat="42.92601" lon="0.30727">
        <ele>1362.6</ele>
        <time>2021-10-02T07:15:59Z</time>
      </trkpt>
      <trkpt lat="42.926" lon="0.30728">
        <ele>1362.6</ele>
        <time>2021-10-02T07:16:00Z</time>
      </trkpt>
      <trkpt lat="42.926" lon="0.30728">
        <ele>1362.8</ele>
        <time>2021-10-02T07:16:01Z</time>
      </trkpt>
      <trkpt lat="42.926" lon="0.30728">
        <ele>1363</ele>
        <time>2021-10-02T07:16:02Z</time>
      </trkpt>
      <trkpt lat="42.92599" lon="0.3073">
        <ele>1363.4</ele>
        <time>2021-10-02T07:16:05Z</time>
      </trkpt>
      <trkpt lat="42.92597" lon="0.3073">
        <ele>1363.6</ele>
        <time>2021-10-02T07:16:06Z</time>
      </trkpt>
      <trkpt lat="42.92595" lon="0.3073">
        <ele>1363.8</ele>
        <time>2021-10-02T07:16:07Z</time>
      </trkpt>
      <trkpt lat="42.92594" lon="0.3073">
        <ele>1363.8</ele>
        <time>2021-10-02T07:16:08Z</time>
      </trkpt>
      <trkpt lat="42.92592" lon="0.30731">
        <ele>1364</ele>
        <time>2021-10-02T07:16:09Z</time>
      </trkpt>
      <trkpt lat="42.9259" lon="0.30731">
        <ele>1364</ele>
        <time>2021-10-02T07:16:10Z</time>
      </trkpt>
      <trkpt lat="42.92588" lon="0.30732">
        <ele>1364.2</ele>
        <time>2021-10-02T07:16:11Z</time>
      </trkpt>
      <trkpt lat="42.92586" lon="0.30731">
        <ele>1364.6</ele>
        <time>2021-10-02T07:16:12Z</time>
      </trkpt>
      <trkpt lat="42.92584" lon="0.30732">
        <ele>1364.6</ele>
        <time>2021-10-02T07:16:13Z</time>
      </trkpt>
      <trkpt lat="42.92583" lon="0.30732">
        <ele>1364.8</ele>
        <time>2021-10-02T07:16:14Z</time>
      </trkpt>
      <trkpt lat="42.92583" lon="0.30732">
        <ele>1364.8</ele>
        <time>2021-10-02T07:16:15Z</time>
      </trkpt>
      <trkpt lat="42.92582" lon="0.30732">
        <ele>1365</ele>
        <time>2021-10-02T07:16:16Z</time>
      </trkpt>
      <trkpt lat="42.9258" lon="0.30732">
        <ele>1365</ele>
        <time>2021-10-02T07:16:17Z</time>
      </trkpt>
      <trkpt lat="42.92578" lon="0.30732">
        <ele>1365.4</ele>
        <time>2021-10-02T07:16:18Z</time>
      </trkpt>
      <trkpt lat="42.92576" lon="0.30732">
        <ele>1365.6</ele>
        <time>2021-10-02T07:16:19Z</time>
      </trkpt>
      <trkpt lat="42.92575" lon="0.30733">
        <ele>1365.8</ele>
        <time>2021-10-02T07:16:20Z</time>
      </trkpt>
      <trkpt lat="42.92574" lon="0.30735">
        <ele>1365.8</ele>
        <time>2021-10-02T07:16:21Z</time>
      </trkpt>
      <trkpt lat="42.92573" lon="0.30735">
        <ele>1366</ele>
        <time>2021-10-02T07:16:22Z</time>
      </trkpt>
      <trkpt lat="42.92572" lon="0.30736">
        <ele>1366.2</ele>
        <time>2021-10-02T07:16:23Z</time>
      </trkpt>
      <trkpt lat="42.92571" lon="0.30737">
        <ele>1366.4</ele>
        <time>2021-10-02T07:16:24Z</time>
      </trkpt>
      <trkpt lat="42.92569" lon="0.30738">
        <ele>1366.8</ele>
        <time>2021-10-02T07:16:25Z</time>
      </trkpt>
      <trkpt lat="42.92568" lon="0.3074">
        <ele>1366.8</ele>
        <time>2021-10-02T07:16:26Z</time>
      </trkpt>
      <trkpt lat="42.92566" lon="0.30741">
        <ele>1367</ele>
        <time>2021-10-02T07:16:27Z</time>
      </trkpt>
      <trkpt lat="42.92565" lon="0.30741">
        <ele>1367</ele>
        <time>2021-10-02T07:16:28Z</time>
      </trkpt>
      <trkpt lat="42.92562" lon="0.3074">
        <ele>1367.2</ele>
        <time>2021-10-02T07:16:29Z</time>
      </trkpt>
      <trkpt lat="42.9256" lon="0.30742">
        <ele>1367.4</ele>
        <time>2021-10-02T07:16:30Z</time>
      </trkpt>
      <trkpt lat="42.92558" lon="0.30743">
        <ele>1367.6</ele>
        <time>2021-10-02T07:16:31Z</time>
      </trkpt>
      <trkpt lat="42.92558" lon="0.30745">
        <ele>1367.8</ele>
        <time>2021-10-02T07:16:32Z</time>
      </trkpt>
      <trkpt lat="42.92558" lon="0.30745">
        <ele>1368.2</ele>
        <time>2021-10-02T07:16:33Z</time>
      </trkpt>
      <trkpt lat="42.92558" lon="0.30746">
        <ele>1368.2</ele>
        <time>2021-10-02T07:16:34Z</time>
      </trkpt>
      <trkpt lat="42.92557" lon="0.30746">
        <ele>1368.4</ele>
        <time>2021-10-02T07:16:35Z</time>
      </trkpt>
      <trkpt lat="42.92555" lon="0.30747">
        <ele>1368.6</ele>
        <time>2021-10-02T07:16:36Z</time>
      </trkpt>
      <trkpt lat="42.92554" lon="0.30747">
        <ele>1368.6</ele>
        <time>2021-10-02T07:16:37Z</time>
      </trkpt>
      <trkpt lat="42.92553" lon="0.30747">
        <ele>1368.8</ele>
        <time>2021-10-02T07:16:38Z</time>
      </trkpt>
      <trkpt lat="42.92551" lon="0.30747">
        <ele>1369</ele>
        <time>2021-10-02T07:16:39Z</time>
      </trkpt>
      <trkpt lat="42.9255" lon="0.30747">
        <ele>1369.2</ele>
        <time>2021-10-02T07:16:40Z</time>
      </trkpt>
      <trkpt lat="42.92548" lon="0.30748">
        <ele>1369.4</ele>
        <time>2021-10-02T07:16:41Z</time>
      </trkpt>
      <trkpt lat="42.92547" lon="0.30748">
        <ele>1369.6</ele>
        <time>2021-10-02T07:16:42Z</time>
      </trkpt>
      <trkpt lat="42.92546" lon="0.30749">
        <ele>1369.6</ele>
        <time>2021-10-02T07:16:43Z</time>
      </trkpt>
      <trkpt lat="42.92545" lon="0.30751">
        <ele>1370</ele>
        <time>2021-10-02T07:16:44Z</time>
      </trkpt>
      <trkpt lat="42.92543" lon="0.30753">
        <ele>1370</ele>
        <time>2021-10-02T07:16:45Z</time>
      </trkpt>
      <trkpt lat="42.92542" lon="0.30753">
        <ele>1370.2</ele>
        <time>2021-10-02T07:16:46Z</time>
      </trkpt>
      <trkpt lat="42.9254" lon="0.30753">
        <ele>1370.2</ele>
        <time>2021-10-02T07:16:47Z</time>
      </trkpt>
      <trkpt lat="42.92538" lon="0.30754">
        <ele>1370.4</ele>
        <time>2021-10-02T07:16:48Z</time>
      </trkpt>
      <trkpt lat="42.92537" lon="0.30755">
        <ele>1370.6</ele>
        <time>2021-10-02T07:16:49Z</time>
      </trkpt>
      <trkpt lat="42.92536" lon="0.30755">
        <ele>1370.8</ele>
        <time>2021-10-02T07:16:50Z</time>
      </trkpt>
      <trkpt lat="42.92534" lon="0.30756">
        <ele>1371</ele>
        <time>2021-10-02T07:16:51Z</time>
      </trkpt>
      <trkpt lat="42.92533" lon="0.30757">
        <ele>1371.2</ele>
        <time>2021-10-02T07:16:52Z</time>
      </trkpt>
      <trkpt lat="42.92531" lon="0.30759">
        <ele>1371.2</ele>
        <time>2021-10-02T07:16:53Z</time>
      </trkpt>
      <trkpt lat="42.9253" lon="0.3076">
        <ele>1371.2</ele>
        <time>2021-10-02T07:16:54Z</time>
      </trkpt>
      <trkpt lat="42.92529" lon="0.30761">
        <ele>1371.2</ele>
        <time>2021-10-02T07:16:55Z</time>
      </trkpt>
      <trkpt lat="42.92528" lon="0.30764">
        <ele>1371.6</ele>
        <time>2021-10-02T07:16:56Z</time>
      </trkpt>
      <trkpt lat="42.92527" lon="0.30765">
        <ele>1371.6</ele>
        <time>2021-10-02T07:16:57Z</time>
      </trkpt>
      <trkpt lat="42.92526" lon="0.30767">
        <ele>1371.8</ele>
        <time>2021-10-02T07:16:58Z</time>
      </trkpt>
      <trkpt lat="42.92525" lon="0.30773">
        <ele>1371.8</ele>
        <time>2021-10-02T07:16:59Z</time>
      </trkpt>
      <trkpt lat="42.92525" lon="0.30775">
        <ele>1372</ele>
        <time>2021-10-02T07:17:00Z</time>
      </trkpt>
      <trkpt lat="42.92523" lon="0.30778">
        <ele>1372.2</ele>
        <time>2021-10-02T07:17:01Z</time>
      </trkpt>
      <trkpt lat="42.92522" lon="0.30779">
        <ele>1372.4</ele>
        <time>2021-10-02T07:17:02Z</time>
      </trkpt>
      <trkpt lat="42.9252" lon="0.3078">
        <ele>1372.6</ele>
        <time>2021-10-02T07:17:03Z</time>
      </trkpt>
      <trkpt lat="42.92518" lon="0.30778">
        <ele>1372.6</ele>
        <time>2021-10-02T07:17:04Z</time>
      </trkpt>
      <trkpt lat="42.92514" lon="0.30773">
        <ele>1372.8</ele>
        <time>2021-10-02T07:17:05Z</time>
      </trkpt>
      <trkpt lat="42.92512" lon="0.30769">
        <ele>1373</ele>
        <time>2021-10-02T07:17:06Z</time>
      </trkpt>
      <trkpt lat="42.92511" lon="0.30768">
        <ele>1373.2</ele>
        <time>2021-10-02T07:17:07Z</time>
      </trkpt>
      <trkpt lat="42.9251" lon="0.30769">
        <ele>1373.4</ele>
        <time>2021-10-02T07:17:08Z</time>
      </trkpt>
      <trkpt lat="42.92509" lon="0.3077">
        <ele>1373.6</ele>
        <time>2021-10-02T07:17:09Z</time>
      </trkpt>
      <trkpt lat="42.92508" lon="0.30771">
        <ele>1373.6</ele>
        <time>2021-10-02T07:17:10Z</time>
      </trkpt>
      <trkpt lat="42.92506" lon="0.30771">
        <ele>1373.6</ele>
        <time>2021-10-02T07:17:11Z</time>
      </trkpt>
      <trkpt lat="42.92505" lon="0.30771">
        <ele>1373.8</ele>
        <time>2021-10-02T07:17:12Z</time>
      </trkpt>
      <trkpt lat="42.92504" lon="0.30772">
        <ele>1374</ele>
        <time>2021-10-02T07:17:13Z</time>
      </trkpt>
      <trkpt lat="42.92502" lon="0.30772">
        <ele>1374</ele>
        <time>2021-10-02T07:17:14Z</time>
      </trkpt>
      <trkpt lat="42.92501" lon="0.30773">
        <ele>1374.4</ele>
        <time>2021-10-02T07:17:15Z</time>
      </trkpt>
      <trkpt lat="42.925" lon="0.30773">
        <ele>1374.6</ele>
        <time>2021-10-02T07:17:16Z</time>
      </trkpt>
      <trkpt lat="42.925" lon="0.30774">
        <ele>1375</ele>
        <time>2021-10-02T07:17:17Z</time>
      </trkpt>
      <trkpt lat="42.92499" lon="0.30775">
        <ele>1375</ele>
        <time>2021-10-02T07:17:18Z</time>
      </trkpt>
      <trkpt lat="42.92497" lon="0.30776">
        <ele>1375.2</ele>
        <time>2021-10-02T07:17:19Z</time>
      </trkpt>
      <trkpt lat="42.92496" lon="0.30777">
        <ele>1375.4</ele>
        <time>2021-10-02T07:17:20Z</time>
      </trkpt>
      <trkpt lat="42.92495" lon="0.30778">
        <ele>1375.6</ele>
        <time>2021-10-02T07:17:21Z</time>
      </trkpt>
      <trkpt lat="42.92494" lon="0.30779">
        <ele>1376</ele>
        <time>2021-10-02T07:17:22Z</time>
      </trkpt>
      <trkpt lat="42.92494" lon="0.3078">
        <ele>1376.2</ele>
        <time>2021-10-02T07:17:23Z</time>
      </trkpt>
      <trkpt lat="42.92493" lon="0.30781">
        <ele>1376.4</ele>
        <time>2021-10-02T07:17:24Z</time>
      </trkpt>
      <trkpt lat="42.92492" lon="0.30783">
        <ele>1376.6</ele>
        <time>2021-10-02T07:17:25Z</time>
      </trkpt>
      <trkpt lat="42.92492" lon="0.30784">
        <ele>1376.8</ele>
        <time>2021-10-02T07:17:26Z</time>
      </trkpt>
      <trkpt lat="42.92491" lon="0.30786">
        <ele>1377</ele>
        <time>2021-10-02T07:17:27Z</time>
      </trkpt>
      <trkpt lat="42.9249" lon="0.30788">
        <ele>1377.2</ele>
        <time>2021-10-02T07:17:28Z</time>
      </trkpt>
      <trkpt lat="42.9249" lon="0.30789">
        <ele>1377</ele>
        <time>2021-10-02T07:17:29Z</time>
      </trkpt>
      <trkpt lat="42.9249" lon="0.30792">
        <ele>1377.2</ele>
        <time>2021-10-02T07:17:30Z</time>
      </trkpt>
      <trkpt lat="42.92491" lon="0.30795">
        <ele>1377.4</ele>
        <time>2021-10-02T07:17:31Z</time>
      </trkpt>
      <trkpt lat="42.92492" lon="0.30798">
        <ele>1377.4</ele>
        <time>2021-10-02T07:17:32Z</time>
      </trkpt>
      <trkpt lat="42.92493" lon="0.308">
        <ele>1377.6</ele>
        <time>2021-10-02T07:17:33Z</time>
      </trkpt>
      <trkpt lat="42.92493" lon="0.30802">
        <ele>1377.6</ele>
        <time>2021-10-02T07:17:34Z</time>
      </trkpt>
      <trkpt lat="42.92494" lon="0.30803">
        <ele>1377.6</ele>
        <time>2021-10-02T07:17:35Z</time>
      </trkpt>
      <trkpt lat="42.92496" lon="0.30805">
        <ele>1377.8</ele>
        <time>2021-10-02T07:17:36Z</time>
      </trkpt>
      <trkpt lat="42.92498" lon="0.30806">
        <ele>1377.8</ele>
        <time>2021-10-02T07:17:37Z</time>
      </trkpt>
      <trkpt lat="42.925" lon="0.30807">
        <ele>1378</ele>
        <time>2021-10-02T07:17:38Z</time>
      </trkpt>
      <trkpt lat="42.92502" lon="0.30808">
        <ele>1378</ele>
        <time>2021-10-02T07:17:39Z</time>
      </trkpt>
      <trkpt lat="42.92503" lon="0.3081">
        <ele>1378.2</ele>
        <time>2021-10-02T07:17:40Z</time>
      </trkpt>
      <trkpt lat="42.92504" lon="0.30812">
        <ele>1378.2</ele>
        <time>2021-10-02T07:17:41Z</time>
      </trkpt>
      <trkpt lat="42.92505" lon="0.30813">
        <ele>1378.4</ele>
        <time>2021-10-02T07:17:42Z</time>
      </trkpt>
      <trkpt lat="42.92505" lon="0.30815">
        <ele>1378.6</ele>
        <time>2021-10-02T07:17:43Z</time>
      </trkpt>
      <trkpt lat="42.92505" lon="0.30816">
        <ele>1378.8</ele>
        <time>2021-10-02T07:17:44Z</time>
      </trkpt>
      <trkpt lat="42.92505" lon="0.30818">
        <ele>1379</ele>
        <time>2021-10-02T07:17:45Z</time>
      </trkpt>
      <trkpt lat="42.92506" lon="0.30818">
        <ele>1379.2</ele>
        <time>2021-10-02T07:17:46Z</time>
      </trkpt>
      <trkpt lat="42.92507" lon="0.30819">
        <ele>1379.2</ele>
        <time>2021-10-02T07:17:47Z</time>
      </trkpt>
      <trkpt lat="42.92507" lon="0.3082">
        <ele>1379.4</ele>
        <time>2021-10-02T07:17:48Z</time>
      </trkpt>
      <trkpt lat="42.92508" lon="0.30822">
        <ele>1379.8</ele>
        <time>2021-10-02T07:17:49Z</time>
      </trkpt>
      <trkpt lat="42.92509" lon="0.30823">
        <ele>1379.8</ele>
        <time>2021-10-02T07:17:50Z</time>
      </trkpt>
      <trkpt lat="42.9251" lon="0.30824">
        <ele>1380</ele>
        <time>2021-10-02T07:17:51Z</time>
      </trkpt>
      <trkpt lat="42.92511" lon="0.30826">
        <ele>1380.2</ele>
        <time>2021-10-02T07:17:52Z</time>
      </trkpt>
      <trkpt lat="42.92513" lon="0.30827">
        <ele>1380.6</ele>
        <time>2021-10-02T07:17:53Z</time>
      </trkpt>
      <trkpt lat="42.92514" lon="0.30828">
        <ele>1380.6</ele>
        <time>2021-10-02T07:17:54Z</time>
      </trkpt>
      <trkpt lat="42.92514" lon="0.30829">
        <ele>1380.8</ele>
        <time>2021-10-02T07:17:55Z</time>
      </trkpt>
      <trkpt lat="42.92515" lon="0.3083">
        <ele>1380.8</ele>
        <time>2021-10-02T07:17:56Z</time>
      </trkpt>
      <trkpt lat="42.92516" lon="0.3083">
        <ele>1381.2</ele>
        <time>2021-10-02T07:17:57Z</time>
      </trkpt>
      <trkpt lat="42.92516" lon="0.30831">
        <ele>1381.2</ele>
        <time>2021-10-02T07:17:58Z</time>
      </trkpt>
      <trkpt lat="42.92516" lon="0.30832">
        <ele>1381.4</ele>
        <time>2021-10-02T07:17:59Z</time>
      </trkpt>
      <trkpt lat="42.92517" lon="0.30833">
        <ele>1381.4</ele>
        <time>2021-10-02T07:18:00Z</time>
      </trkpt>
      <trkpt lat="42.92517" lon="0.30834">
        <ele>1381.4</ele>
        <time>2021-10-02T07:18:01Z</time>
      </trkpt>
      <trkpt lat="42.92517" lon="0.30835">
        <ele>1381.6</ele>
        <time>2021-10-02T07:18:02Z</time>
      </trkpt>
      <trkpt lat="42.92517" lon="0.30837">
        <ele>1381.8</ele>
        <time>2021-10-02T07:18:03Z</time>
      </trkpt>
      <trkpt lat="42.92517" lon="0.30838">
        <ele>1381.8</ele>
        <time>2021-10-02T07:18:04Z</time>
      </trkpt>
      <trkpt lat="42.92517" lon="0.30839">
        <ele>1382</ele>
        <time>2021-10-02T07:18:05Z</time>
      </trkpt>
      <trkpt lat="42.92517" lon="0.30841">
        <ele>1382.2</ele>
        <time>2021-10-02T07:18:06Z</time>
      </trkpt>
      <trkpt lat="42.92516" lon="0.30842">
        <ele>1382.2</ele>
        <time>2021-10-02T07:18:07Z</time>
      </trkpt>
      <trkpt lat="42.92516" lon="0.30843">
        <ele>1382.4</ele>
        <time>2021-10-02T07:18:08Z</time>
      </trkpt>
      <trkpt lat="42.92516" lon="0.30845">
        <ele>1382.6</ele>
        <time>2021-10-02T07:18:09Z</time>
      </trkpt>
      <trkpt lat="42.92517" lon="0.30847">
        <ele>1382.8</ele>
        <time>2021-10-02T07:18:10Z</time>
      </trkpt>
      <trkpt lat="42.92517" lon="0.30849">
        <ele>1382.8</ele>
        <time>2021-10-02T07:18:11Z</time>
      </trkpt>
      <trkpt lat="42.92517" lon="0.30851">
        <ele>1383</ele>
        <time>2021-10-02T07:18:12Z</time>
      </trkpt>
      <trkpt lat="42.92517" lon="0.30852">
        <ele>1383</ele>
        <time>2021-10-02T07:18:13Z</time>
      </trkpt>
      <trkpt lat="42.92517" lon="0.30855">
        <ele>1383.2</ele>
        <time>2021-10-02T07:18:14Z</time>
      </trkpt>
      <trkpt lat="42.92518" lon="0.30857">
        <ele>1383.2</ele>
        <time>2021-10-02T07:18:15Z</time>
      </trkpt>
      <trkpt lat="42.92518" lon="0.30859">
        <ele>1383.4</ele>
        <time>2021-10-02T07:18:16Z</time>
      </trkpt>
      <trkpt lat="42.92518" lon="0.3086">
        <ele>1383.4</ele>
        <time>2021-10-02T07:18:17Z</time>
      </trkpt>
      <trkpt lat="42.92518" lon="0.30862">
        <ele>1383.8</ele>
        <time>2021-10-02T07:18:18Z</time>
      </trkpt>
      <trkpt lat="42.92518" lon="0.30864">
        <ele>1384</ele>
        <time>2021-10-02T07:18:19Z</time>
      </trkpt>
      <trkpt lat="42.92518" lon="0.30866">
        <ele>1384.2</ele>
        <time>2021-10-02T07:18:20Z</time>
      </trkpt>
      <trkpt lat="42.92518" lon="0.30867">
        <ele>1384.4</ele>
        <time>2021-10-02T07:18:21Z</time>
      </trkpt>
      <trkpt lat="42.92519" lon="0.30869">
        <ele>1384.4</ele>
        <time>2021-10-02T07:18:22Z</time>
      </trkpt>
      <trkpt lat="42.92519" lon="0.3087">
        <ele>1384.6</ele>
        <time>2021-10-02T07:18:23Z</time>
      </trkpt>
      <trkpt lat="42.9252" lon="0.30872">
        <ele>1384.6</ele>
        <time>2021-10-02T07:18:24Z</time>
      </trkpt>
      <trkpt lat="42.9252" lon="0.30874">
        <ele>1385</ele>
        <time>2021-10-02T07:18:25Z</time>
      </trkpt>
      <trkpt lat="42.92521" lon="0.30876">
        <ele>1385</ele>
        <time>2021-10-02T07:18:26Z</time>
      </trkpt>
      <trkpt lat="42.92521" lon="0.30877">
        <ele>1385.4</ele>
        <time>2021-10-02T07:18:27Z</time>
      </trkpt>
      <trkpt lat="42.92521" lon="0.30878">
        <ele>1385.4</ele>
        <time>2021-10-02T07:18:28Z</time>
      </trkpt>
      <trkpt lat="42.92521" lon="0.30879">
        <ele>1385.6</ele>
        <time>2021-10-02T07:18:29Z</time>
      </trkpt>
      <trkpt lat="42.92521" lon="0.30879">
        <ele>1385.8</ele>
        <time>2021-10-02T07:18:30Z</time>
      </trkpt>
      <trkpt lat="42.92521" lon="0.3088">
        <ele>1385.8</ele>
        <time>2021-10-02T07:18:31Z</time>
      </trkpt>
      <trkpt lat="42.92521" lon="0.30881">
        <ele>1386</ele>
        <time>2021-10-02T07:18:32Z</time>
      </trkpt>
      <trkpt lat="42.92522" lon="0.30883">
        <ele>1386</ele>
        <time>2021-10-02T07:18:33Z</time>
      </trkpt>
      <trkpt lat="42.92523" lon="0.30885">
        <ele>1386.2</ele>
        <time>2021-10-02T07:18:34Z</time>
      </trkpt>
      <trkpt lat="42.92523" lon="0.30887">
        <ele>1386.4</ele>
        <time>2021-10-02T07:18:35Z</time>
      </trkpt>
      <trkpt lat="42.92523" lon="0.30889">
        <ele>1386.6</ele>
        <time>2021-10-02T07:18:36Z</time>
      </trkpt>
      <trkpt lat="42.92523" lon="0.30891">
        <ele>1386.8</ele>
        <time>2021-10-02T07:18:37Z</time>
      </trkpt>
      <trkpt lat="42.92523" lon="0.30892">
        <ele>1386.8</ele>
        <time>2021-10-02T07:18:38Z</time>
      </trkpt>
      <trkpt lat="42.92524" lon="0.30893">
        <ele>1387</ele>
        <time>2021-10-02T07:18:39Z</time>
      </trkpt>
      <trkpt lat="42.92525" lon="0.30893">
        <ele>1387.2</ele>
        <time>2021-10-02T07:18:40Z</time>
      </trkpt>
      <trkpt lat="42.92529" lon="0.30896">
        <ele>1387.4</ele>
        <time>2021-10-02T07:18:41Z</time>
      </trkpt>
      <trkpt lat="42.9253" lon="0.30898">
        <ele>1387.8</ele>
        <time>2021-10-02T07:18:42Z</time>
      </trkpt>
      <trkpt lat="42.9253" lon="0.309">
        <ele>1387.8</ele>
        <time>2021-10-02T07:18:43Z</time>
      </trkpt>
      <trkpt lat="42.9253" lon="0.30902">
        <ele>1388</ele>
        <time>2021-10-02T07:18:44Z</time>
      </trkpt>
      <trkpt lat="42.9253" lon="0.30905">
        <ele>1388</ele>
        <time>2021-10-02T07:18:45Z</time>
      </trkpt>
      <trkpt lat="42.9253" lon="0.30906">
        <ele>1388</ele>
        <time>2021-10-02T07:18:46Z</time>
      </trkpt>
      <trkpt lat="42.9253" lon="0.30907">
        <ele>1388.2</ele>
        <time>2021-10-02T07:18:47Z</time>
      </trkpt>
      <trkpt lat="42.9253" lon="0.30908">
        <ele>1388.4</ele>
        <time>2021-10-02T07:18:48Z</time>
      </trkpt>
      <trkpt lat="42.92529" lon="0.30911">
        <ele>1388.4</ele>
        <time>2021-10-02T07:18:49Z</time>
      </trkpt>
      <trkpt lat="42.92529" lon="0.30913">
        <ele>1388.6</ele>
        <time>2021-10-02T07:18:50Z</time>
      </trkpt>
      <trkpt lat="42.92529" lon="0.30915">
        <ele>1388.8</ele>
        <time>2021-10-02T07:18:51Z</time>
      </trkpt>
      <trkpt lat="42.9253" lon="0.30917">
        <ele>1389.2</ele>
        <time>2021-10-02T07:18:52Z</time>
      </trkpt>
      <trkpt lat="42.92531" lon="0.3092">
        <ele>1389.4</ele>
        <time>2021-10-02T07:18:53Z</time>
      </trkpt>
      <trkpt lat="42.92531" lon="0.3092">
        <ele>1389.6</ele>
        <time>2021-10-02T07:18:54Z</time>
      </trkpt>
      <trkpt lat="42.92532" lon="0.30922">
        <ele>1389.6</ele>
        <time>2021-10-02T07:18:55Z</time>
      </trkpt>
      <trkpt lat="42.92533" lon="0.30924">
        <ele>1389.8</ele>
        <time>2021-10-02T07:18:56Z</time>
      </trkpt>
      <trkpt lat="42.92534" lon="0.30927">
        <ele>1390</ele>
        <time>2021-10-02T07:18:57Z</time>
      </trkpt>
      <trkpt lat="42.92536" lon="0.3093">
        <ele>1390.2</ele>
        <time>2021-10-02T07:18:58Z</time>
      </trkpt>
      <trkpt lat="42.92536" lon="0.30931">
        <ele>1390.4</ele>
        <time>2021-10-02T07:18:59Z</time>
      </trkpt>
      <trkpt lat="42.92537" lon="0.30931">
        <ele>1390.4</ele>
        <time>2021-10-02T07:19:00Z</time>
      </trkpt>
      <trkpt lat="42.92538" lon="0.30932">
        <ele>1390.8</ele>
        <time>2021-10-02T07:19:01Z</time>
      </trkpt>
      <trkpt lat="42.92539" lon="0.30934">
        <ele>1390.8</ele>
        <time>2021-10-02T07:19:02Z</time>
      </trkpt>
      <trkpt lat="42.92542" lon="0.30937">
        <ele>1391</ele>
        <time>2021-10-02T07:19:03Z</time>
      </trkpt>
      <trkpt lat="42.92542" lon="0.30939">
        <ele>1391</ele>
        <time>2021-10-02T07:19:04Z</time>
      </trkpt>
      <trkpt lat="42.92543" lon="0.30941">
        <ele>1391.2</ele>
        <time>2021-10-02T07:19:05Z</time>
      </trkpt>
      <trkpt lat="42.92544" lon="0.30943">
        <ele>1391.2</ele>
        <time>2021-10-02T07:19:06Z</time>
      </trkpt>
      <trkpt lat="42.92545" lon="0.30945">
        <ele>1391.6</ele>
        <time>2021-10-02T07:19:07Z</time>
      </trkpt>
      <trkpt lat="42.92546" lon="0.30946">
        <ele>1391.8</ele>
        <time>2021-10-02T07:19:08Z</time>
      </trkpt>
      <trkpt lat="42.92547" lon="0.30947">
        <ele>1392</ele>
        <time>2021-10-02T07:19:09Z</time>
      </trkpt>
      <trkpt lat="42.92547" lon="0.30948">
        <ele>1392</ele>
        <time>2021-10-02T07:19:10Z</time>
      </trkpt>
      <trkpt lat="42.92548" lon="0.3095">
        <ele>1392.4</ele>
        <time>2021-10-02T07:19:11Z</time>
      </trkpt>
      <trkpt lat="42.92549" lon="0.30951">
        <ele>1392.4</ele>
        <time>2021-10-02T07:19:12Z</time>
      </trkpt>
      <trkpt lat="42.92549" lon="0.30952">
        <ele>1392.6</ele>
        <time>2021-10-02T07:19:13Z</time>
      </trkpt>
      <trkpt lat="42.9255" lon="0.30953">
        <ele>1392.6</ele>
        <time>2021-10-02T07:19:14Z</time>
      </trkpt>
      <trkpt lat="42.9255" lon="0.30954">
        <ele>1393</ele>
        <time>2021-10-02T07:19:15Z</time>
      </trkpt>
      <trkpt lat="42.92551" lon="0.30956">
        <ele>1393.2</ele>
        <time>2021-10-02T07:19:16Z</time>
      </trkpt>
      <trkpt lat="42.92552" lon="0.30957">
        <ele>1393.2</ele>
        <time>2021-10-02T07:19:17Z</time>
      </trkpt>
      <trkpt lat="42.92552" lon="0.30959">
        <ele>1393.4</ele>
        <time>2021-10-02T07:19:18Z</time>
      </trkpt>
      <trkpt lat="42.92553" lon="0.30961">
        <ele>1393.4</ele>
        <time>2021-10-02T07:19:19Z</time>
      </trkpt>
      <trkpt lat="42.92553" lon="0.30962">
        <ele>1393.6</ele>
        <time>2021-10-02T07:19:20Z</time>
      </trkpt>
      <trkpt lat="42.92553" lon="0.30963">
        <ele>1393.4</ele>
        <time>2021-10-02T07:19:21Z</time>
      </trkpt>
      <trkpt lat="42.92553" lon="0.30964">
        <ele>1393.6</ele>
        <time>2021-10-02T07:19:22Z</time>
      </trkpt>
      <trkpt lat="42.92554" lon="0.30965">
        <ele>1393.6</ele>
        <time>2021-10-02T07:19:23Z</time>
      </trkpt>
      <trkpt lat="42.92554" lon="0.30967">
        <ele>1394</ele>
        <time>2021-10-02T07:19:24Z</time>
      </trkpt>
      <trkpt lat="42.92555" lon="0.30969">
        <ele>1394.2</ele>
        <time>2021-10-02T07:19:25Z</time>
      </trkpt>
      <trkpt lat="42.92556" lon="0.30971">
        <ele>1394.4</ele>
        <time>2021-10-02T07:19:26Z</time>
      </trkpt>
      <trkpt lat="42.92557" lon="0.30972">
        <ele>1394.6</ele>
        <time>2021-10-02T07:19:27Z</time>
      </trkpt>
      <trkpt lat="42.92557" lon="0.30974">
        <ele>1394.8</ele>
        <time>2021-10-02T07:19:28Z</time>
      </trkpt>
      <trkpt lat="42.92558" lon="0.30976">
        <ele>1394.8</ele>
        <time>2021-10-02T07:19:29Z</time>
      </trkpt>
      <trkpt lat="42.92558" lon="0.30978">
        <ele>1395.2</ele>
        <time>2021-10-02T07:19:30Z</time>
      </trkpt>
      <trkpt lat="42.92559" lon="0.30978">
        <ele>1395.2</ele>
        <time>2021-10-02T07:19:31Z</time>
      </trkpt>
      <trkpt lat="42.9256" lon="0.3098">
        <ele>1395.4</ele>
        <time>2021-10-02T07:19:32Z</time>
      </trkpt>
      <trkpt lat="42.92562" lon="0.30982">
        <ele>1395.6</ele>
        <time>2021-10-02T07:19:33Z</time>
      </trkpt>
      <trkpt lat="42.92563" lon="0.30983">
        <ele>1395.8</ele>
        <time>2021-10-02T07:19:34Z</time>
      </trkpt>
      <trkpt lat="42.92564" lon="0.30984">
        <ele>1396</ele>
        <time>2021-10-02T07:19:35Z</time>
      </trkpt>
      <trkpt lat="42.92564" lon="0.30984">
        <ele>1396</ele>
        <time>2021-10-02T07:19:36Z</time>
      </trkpt>
      <trkpt lat="42.92565" lon="0.30985">
        <ele>1396.2</ele>
        <time>2021-10-02T07:19:37Z</time>
      </trkpt>
      <trkpt lat="42.92566" lon="0.30985">
        <ele>1396.4</ele>
        <time>2021-10-02T07:19:38Z</time>
      </trkpt>
      <trkpt lat="42.92567" lon="0.30985">
        <ele>1396.6</ele>
        <time>2021-10-02T07:19:39Z</time>
      </trkpt>
      <trkpt lat="42.92567" lon="0.30986">
        <ele>1396.6</ele>
        <time>2021-10-02T07:19:40Z</time>
      </trkpt>
      <trkpt lat="42.92568" lon="0.30987">
        <ele>1396.6</ele>
        <time>2021-10-02T07:19:41Z</time>
      </trkpt>
      <trkpt lat="42.92568" lon="0.30987">
        <ele>1396.8</ele>
        <time>2021-10-02T07:19:42Z</time>
      </trkpt>
      <trkpt lat="42.92568" lon="0.30987">
        <ele>1397</ele>
        <time>2021-10-02T07:19:43Z</time>
      </trkpt>
      <trkpt lat="42.92568" lon="0.30987">
        <ele>1397</ele>
        <time>2021-10-02T07:19:44Z</time>
      </trkpt>
      <trkpt lat="42.92568" lon="0.30987">
        <ele>1397.6</ele>
        <time>2021-10-02T07:19:52Z</time>
      </trkpt>
      <trkpt lat="42.92568" lon="0.30987">
        <ele>1397.8</ele>
        <time>2021-10-02T07:20:00Z</time>
      </trkpt>
      <trkpt lat="42.92568" lon="0.30987">
        <ele>1397.8</ele>
        <time>2021-10-02T07:20:29Z</time>
      </trkpt>
      <trkpt lat="42.92569" lon="0.30987">
        <ele>1397.8</ele>
        <time>2021-10-02T07:22:06Z</time>
      </trkpt>
      <trkpt lat="42.9257" lon="0.30989">
        <ele>1397.8</ele>
        <time>2021-10-02T07:22:07Z</time>
      </trkpt>
      <trkpt lat="42.92571" lon="0.3099">
        <ele>1397.8</ele>
        <time>2021-10-02T07:22:08Z</time>
      </trkpt>
      <trkpt lat="42.92573" lon="0.30991">
        <ele>1397.8</ele>
        <time>2021-10-02T07:22:09Z</time>
      </trkpt>
      <trkpt lat="42.9258" lon="0.30998">
        <ele>1398.2</ele>
        <time>2021-10-02T07:22:13Z</time>
      </trkpt>
      <trkpt lat="42.92581" lon="0.31">
        <ele>1398.4</ele>
        <time>2021-10-02T07:22:14Z</time>
      </trkpt>
      <trkpt lat="42.92584" lon="0.31002">
        <ele>1398.6</ele>
        <time>2021-10-02T07:22:15Z</time>
      </trkpt>
      <trkpt lat="42.92585" lon="0.31004">
        <ele>1398.6</ele>
        <time>2021-10-02T07:22:16Z</time>
      </trkpt>
      <trkpt lat="42.92591" lon="0.3101">
        <ele>1399.4</ele>
        <time>2021-10-02T07:22:21Z</time>
      </trkpt>
      <trkpt lat="42.92593" lon="0.31012">
        <ele>1399.6</ele>
        <time>2021-10-02T07:22:22Z</time>
      </trkpt>
      <trkpt lat="42.92594" lon="0.31014">
        <ele>1399.6</ele>
        <time>2021-10-02T07:22:23Z</time>
      </trkpt>
      <trkpt lat="42.92595" lon="0.31015">
        <ele>1399.8</ele>
        <time>2021-10-02T07:22:24Z</time>
      </trkpt>
      <trkpt lat="42.92597" lon="0.31015">
        <ele>1399.8</ele>
        <time>2021-10-02T07:22:25Z</time>
      </trkpt>
      <trkpt lat="42.92599" lon="0.31016">
        <ele>1399.8</ele>
        <time>2021-10-02T07:22:26Z</time>
      </trkpt>
      <trkpt lat="42.926" lon="0.31017">
        <ele>1399.8</ele>
        <time>2021-10-02T07:22:27Z</time>
      </trkpt>
      <trkpt lat="42.92604" lon="0.3102">
        <ele>1400.4</ele>
        <time>2021-10-02T07:22:30Z</time>
      </trkpt>
      <trkpt lat="42.92605" lon="0.3102">
        <ele>1400.4</ele>
        <time>2021-10-02T07:22:31Z</time>
      </trkpt>
      <trkpt lat="42.92608" lon="0.31024">
        <ele>1400.6</ele>
        <time>2021-10-02T07:22:33Z</time>
      </trkpt>
      <trkpt lat="42.9261" lon="0.31026">
        <ele>1400.8</ele>
        <time>2021-10-02T07:22:34Z</time>
      </trkpt>
      <trkpt lat="42.92612" lon="0.31028">
        <ele>1400.8</ele>
        <time>2021-10-02T07:22:35Z</time>
      </trkpt>
      <trkpt lat="42.92613" lon="0.31029">
        <ele>1400.8</ele>
        <time>2021-10-02T07:22:36Z</time>
      </trkpt>
      <trkpt lat="42.92615" lon="0.3103">
        <ele>1400.8</ele>
        <time>2021-10-02T07:22:37Z</time>
      </trkpt>
      <trkpt lat="42.92616" lon="0.3103">
        <ele>1401</ele>
        <time>2021-10-02T07:22:38Z</time>
      </trkpt>
      <trkpt lat="42.92618" lon="0.31031">
        <ele>1401</ele>
        <time>2021-10-02T07:22:39Z</time>
      </trkpt>
      <trkpt lat="42.92619" lon="0.31032">
        <ele>1401</ele>
        <time>2021-10-02T07:22:40Z</time>
      </trkpt>
      <trkpt lat="42.92621" lon="0.31033">
        <ele>1401.2</ele>
        <time>2021-10-02T07:22:41Z</time>
      </trkpt>
      <trkpt lat="42.92623" lon="0.31034">
        <ele>1401.2</ele>
        <time>2021-10-02T07:22:42Z</time>
      </trkpt>
      <trkpt lat="42.92625" lon="0.31035">
        <ele>1401.2</ele>
        <time>2021-10-02T07:22:43Z</time>
      </trkpt>
      <trkpt lat="42.92631" lon="0.31041">
        <ele>1401.2</ele>
        <time>2021-10-02T07:22:47Z</time>
      </trkpt>
      <trkpt lat="42.92633" lon="0.31043">
        <ele>1401.4</ele>
        <time>2021-10-02T07:22:48Z</time>
      </trkpt>
      <trkpt lat="42.92641" lon="0.31049">
        <ele>1402</ele>
        <time>2021-10-02T07:22:53Z</time>
      </trkpt>
      <trkpt lat="42.92647" lon="0.31054">
        <ele>1402.2</ele>
        <time>2021-10-02T07:22:56Z</time>
      </trkpt>
      <trkpt lat="42.92648" lon="0.31055">
        <ele>1402.4</ele>
        <time>2021-10-02T07:22:57Z</time>
      </trkpt>
      <trkpt lat="42.92651" lon="0.31057">
        <ele>1402.8</ele>
        <time>2021-10-02T07:22:59Z</time>
      </trkpt>
      <trkpt lat="42.92653" lon="0.31059">
        <ele>1402.8</ele>
        <time>2021-10-02T07:23:00Z</time>
      </trkpt>
      <trkpt lat="42.92656" lon="0.31062">
        <ele>1403.2</ele>
        <time>2021-10-02T07:23:02Z</time>
      </trkpt>
      <trkpt lat="42.92657" lon="0.31063">
        <ele>1403.4</ele>
        <time>2021-10-02T07:23:03Z</time>
      </trkpt>
      <trkpt lat="42.92661" lon="0.31065">
        <ele>1403.8</ele>
        <time>2021-10-02T07:23:05Z</time>
      </trkpt>
      <trkpt lat="42.92663" lon="0.31067">
        <ele>1404</ele>
        <time>2021-10-02T07:23:06Z</time>
      </trkpt>
      <trkpt lat="42.92664" lon="0.31068">
        <ele>1404</ele>
        <time>2021-10-02T07:23:07Z</time>
      </trkpt>
      <trkpt lat="42.92666" lon="0.31068">
        <ele>1404.4</ele>
        <time>2021-10-02T07:23:08Z</time>
      </trkpt>
      <trkpt lat="42.92668" lon="0.3107">
        <ele>1404.6</ele>
        <time>2021-10-02T07:23:09Z</time>
      </trkpt>
      <trkpt lat="42.92669" lon="0.31071">
        <ele>1404.8</ele>
        <time>2021-10-02T07:23:10Z</time>
      </trkpt>
      <trkpt lat="42.9267" lon="0.31072">
        <ele>1405</ele>
        <time>2021-10-02T07:23:11Z</time>
      </trkpt>
      <trkpt lat="42.92672" lon="0.31073">
        <ele>1405</ele>
        <time>2021-10-02T07:23:12Z</time>
      </trkpt>
      <trkpt lat="42.92674" lon="0.31074">
        <ele>1405.2</ele>
        <time>2021-10-02T07:23:13Z</time>
      </trkpt>
      <trkpt lat="42.92675" lon="0.31075">
        <ele>1405.2</ele>
        <time>2021-10-02T07:23:14Z</time>
      </trkpt>
      <trkpt lat="42.92676" lon="0.31077">
        <ele>1405.2</ele>
        <time>2021-10-02T07:23:15Z</time>
      </trkpt>
      <trkpt lat="42.92677" lon="0.31078">
        <ele>1405.4</ele>
        <time>2021-10-02T07:23:16Z</time>
      </trkpt>
      <trkpt lat="42.92679" lon="0.31077">
        <ele>1405.4</ele>
        <time>2021-10-02T07:23:17Z</time>
      </trkpt>
      <trkpt lat="42.92681" lon="0.31078">
        <ele>1405.4</ele>
        <time>2021-10-02T07:23:18Z</time>
      </trkpt>
      <trkpt lat="42.92682" lon="0.3108">
        <ele>1405.4</ele>
        <time>2021-10-02T07:23:19Z</time>
      </trkpt>
      <trkpt lat="42.92684" lon="0.31081">
        <ele>1405.6</ele>
        <time>2021-10-02T07:23:20Z</time>
      </trkpt>
      <trkpt lat="42.92686" lon="0.31083">
        <ele>1405.6</ele>
        <time>2021-10-02T07:23:21Z</time>
      </trkpt>
      <trkpt lat="42.92688" lon="0.31085">
        <ele>1406</ele>
        <time>2021-10-02T07:23:22Z</time>
      </trkpt>
      <trkpt lat="42.9269" lon="0.31087">
        <ele>1406.2</ele>
        <time>2021-10-02T07:23:23Z</time>
      </trkpt>
      <trkpt lat="42.92692" lon="0.31088">
        <ele>1406.4</ele>
        <time>2021-10-02T07:23:24Z</time>
      </trkpt>
      <trkpt lat="42.92694" lon="0.3109">
        <ele>1406.6</ele>
        <time>2021-10-02T07:23:25Z</time>
      </trkpt>
      <trkpt lat="42.92695" lon="0.3109">
        <ele>1406.6</ele>
        <time>2021-10-02T07:23:26Z</time>
      </trkpt>
      <trkpt lat="42.92697" lon="0.31092">
        <ele>1406.8</ele>
        <time>2021-10-02T07:23:27Z</time>
      </trkpt>
      <trkpt lat="42.92699" lon="0.31094">
        <ele>1407</ele>
        <time>2021-10-02T07:23:28Z</time>
      </trkpt>
      <trkpt lat="42.927" lon="0.31096">
        <ele>1407.2</ele>
        <time>2021-10-02T07:23:29Z</time>
      </trkpt>
      <trkpt lat="42.92702" lon="0.31098">
        <ele>1407.2</ele>
        <time>2021-10-02T07:23:30Z</time>
      </trkpt>
      <trkpt lat="42.92704" lon="0.311">
        <ele>1407.4</ele>
        <time>2021-10-02T07:23:31Z</time>
      </trkpt>
      <trkpt lat="42.92706" lon="0.31102">
        <ele>1407.4</ele>
        <time>2021-10-02T07:23:32Z</time>
      </trkpt>
      <trkpt lat="42.92708" lon="0.31104">
        <ele>1407.6</ele>
        <time>2021-10-02T07:23:33Z</time>
      </trkpt>
      <trkpt lat="42.92709" lon="0.31105">
        <ele>1407.6</ele>
        <time>2021-10-02T07:23:34Z</time>
      </trkpt>
      <trkpt lat="42.92711" lon="0.31107">
        <ele>1407.8</ele>
        <time>2021-10-02T07:23:35Z</time>
      </trkpt>
      <trkpt lat="42.92713" lon="0.31109">
        <ele>1408</ele>
        <time>2021-10-02T07:23:36Z</time>
      </trkpt>
      <trkpt lat="42.92714" lon="0.3111">
        <ele>1408.4</ele>
        <time>2021-10-02T07:23:37Z</time>
      </trkpt>
      <trkpt lat="42.92715" lon="0.31112">
        <ele>1408.2</ele>
        <time>2021-10-02T07:23:38Z</time>
      </trkpt>
      <trkpt lat="42.92717" lon="0.31114">
        <ele>1408.4</ele>
        <time>2021-10-02T07:23:39Z</time>
      </trkpt>
      <trkpt lat="42.92718" lon="0.31116">
        <ele>1408.6</ele>
        <time>2021-10-02T07:23:40Z</time>
      </trkpt>
      <trkpt lat="42.92719" lon="0.31117">
        <ele>1409</ele>
        <time>2021-10-02T07:23:41Z</time>
      </trkpt>
      <trkpt lat="42.92719" lon="0.31119">
        <ele>1409.2</ele>
        <time>2021-10-02T07:23:42Z</time>
      </trkpt>
      <trkpt lat="42.9272" lon="0.31121">
        <ele>1409.2</ele>
        <time>2021-10-02T07:23:43Z</time>
      </trkpt>
      <trkpt lat="42.92721" lon="0.31123">
        <ele>1409.4</ele>
        <time>2021-10-02T07:23:44Z</time>
      </trkpt>
      <trkpt lat="42.92723" lon="0.31126">
        <ele>1409.6</ele>
        <time>2021-10-02T07:23:45Z</time>
      </trkpt>
      <trkpt lat="42.92723" lon="0.31128">
        <ele>1409.8</ele>
        <time>2021-10-02T07:23:46Z</time>
      </trkpt>
      <trkpt lat="42.92724" lon="0.3113">
        <ele>1410</ele>
        <time>2021-10-02T07:23:47Z</time>
      </trkpt>
      <trkpt lat="42.92724" lon="0.31133">
        <ele>1410.2</ele>
        <time>2021-10-02T07:23:48Z</time>
      </trkpt>
      <trkpt lat="42.92725" lon="0.31134">
        <ele>1410.4</ele>
        <time>2021-10-02T07:23:49Z</time>
      </trkpt>
      <trkpt lat="42.92726" lon="0.31137">
        <ele>1410.6</ele>
        <time>2021-10-02T07:23:50Z</time>
      </trkpt>
      <trkpt lat="42.92726" lon="0.3114">
        <ele>1410.8</ele>
        <time>2021-10-02T07:23:51Z</time>
      </trkpt>
      <trkpt lat="42.92727" lon="0.31142">
        <ele>1411.2</ele>
        <time>2021-10-02T07:23:52Z</time>
      </trkpt>
      <trkpt lat="42.92727" lon="0.31144">
        <ele>1411.2</ele>
        <time>2021-10-02T07:23:53Z</time>
      </trkpt>
      <trkpt lat="42.92727" lon="0.31147">
        <ele>1411.4</ele>
        <time>2021-10-02T07:23:54Z</time>
      </trkpt>
      <trkpt lat="42.92727" lon="0.31149">
        <ele>1411.6</ele>
        <time>2021-10-02T07:23:55Z</time>
      </trkpt>
      <trkpt lat="42.92727" lon="0.31152">
        <ele>1411.8</ele>
        <time>2021-10-02T07:23:56Z</time>
      </trkpt>
      <trkpt lat="42.92726" lon="0.31154">
        <ele>1411.8</ele>
        <time>2021-10-02T07:23:57Z</time>
      </trkpt>
      <trkpt lat="42.92726" lon="0.31156">
        <ele>1412</ele>
        <time>2021-10-02T07:23:58Z</time>
      </trkpt>
      <trkpt lat="42.92726" lon="0.31158">
        <ele>1412</ele>
        <time>2021-10-02T07:23:59Z</time>
      </trkpt>
      <trkpt lat="42.92726" lon="0.31161">
        <ele>1412.2</ele>
        <time>2021-10-02T07:24:00Z</time>
      </trkpt>
      <trkpt lat="42.92725" lon="0.31163">
        <ele>1412.4</ele>
        <time>2021-10-02T07:24:01Z</time>
      </trkpt>
      <trkpt lat="42.92725" lon="0.31165">
        <ele>1412.6</ele>
        <time>2021-10-02T07:24:02Z</time>
      </trkpt>
      <trkpt lat="42.92725" lon="0.31167">
        <ele>1412.6</ele>
        <time>2021-10-02T07:24:03Z</time>
      </trkpt>
      <trkpt lat="42.92725" lon="0.3117">
        <ele>1413</ele>
        <time>2021-10-02T07:24:04Z</time>
      </trkpt>
      <trkpt lat="42.92725" lon="0.31172">
        <ele>1413.2</ele>
        <time>2021-10-02T07:24:05Z</time>
      </trkpt>
      <trkpt lat="42.92725" lon="0.31174">
        <ele>1413.2</ele>
        <time>2021-10-02T07:24:06Z</time>
      </trkpt>
      <trkpt lat="42.92725" lon="0.31177">
        <ele>1413.4</ele>
        <time>2021-10-02T07:24:07Z</time>
      </trkpt>
      <trkpt lat="42.92724" lon="0.31179">
        <ele>1413.6</ele>
        <time>2021-10-02T07:24:08Z</time>
      </trkpt>
      <trkpt lat="42.92725" lon="0.31181">
        <ele>1413.6</ele>
        <time>2021-10-02T07:24:09Z</time>
      </trkpt>
      <trkpt lat="42.92725" lon="0.31184">
        <ele>1414</ele>
        <time>2021-10-02T07:24:10Z</time>
      </trkpt>
      <trkpt lat="42.92725" lon="0.31186">
        <ele>1414.2</ele>
        <time>2021-10-02T07:24:11Z</time>
      </trkpt>
      <trkpt lat="42.92725" lon="0.31188">
        <ele>1414.4</ele>
        <time>2021-10-02T07:24:12Z</time>
      </trkpt>
      <trkpt lat="42.92725" lon="0.3119">
        <ele>1414.6</ele>
        <time>2021-10-02T07:24:13Z</time>
      </trkpt>
      <trkpt lat="42.92726" lon="0.31193">
        <ele>1414.6</ele>
        <time>2021-10-02T07:24:14Z</time>
      </trkpt>
      <trkpt lat="42.92726" lon="0.31196">
        <ele>1414.8</ele>
        <time>2021-10-02T07:24:15Z</time>
      </trkpt>
      <trkpt lat="42.92725" lon="0.31198">
        <ele>1414.8</ele>
        <time>2021-10-02T07:24:16Z</time>
      </trkpt>
      <trkpt lat="42.92725" lon="0.312">
        <ele>1415</ele>
        <time>2021-10-02T07:24:17Z</time>
      </trkpt>
      <trkpt lat="42.92723" lon="0.31202">
        <ele>1415</ele>
        <time>2021-10-02T07:24:18Z</time>
      </trkpt>
      <trkpt lat="42.92722" lon="0.31204">
        <ele>1415.6</ele>
        <time>2021-10-02T07:24:19Z</time>
      </trkpt>
      <trkpt lat="42.92723" lon="0.31206">
        <ele>1415.6</ele>
        <time>2021-10-02T07:24:20Z</time>
      </trkpt>
      <trkpt lat="42.92724" lon="0.31208">
        <ele>1415.8</ele>
        <time>2021-10-02T07:24:21Z</time>
      </trkpt>
      <trkpt lat="42.92724" lon="0.31211">
        <ele>1416</ele>
        <time>2021-10-02T07:24:22Z</time>
      </trkpt>
      <trkpt lat="42.92725" lon="0.31213">
        <ele>1416</ele>
        <time>2021-10-02T07:24:23Z</time>
      </trkpt>
      <trkpt lat="42.92727" lon="0.31215">
        <ele>1416.2</ele>
        <time>2021-10-02T07:24:24Z</time>
      </trkpt>
      <trkpt lat="42.92728" lon="0.31216">
        <ele>1416.2</ele>
        <time>2021-10-02T07:24:25Z</time>
      </trkpt>
      <trkpt lat="42.92729" lon="0.31218">
        <ele>1416.6</ele>
        <time>2021-10-02T07:24:26Z</time>
      </trkpt>
      <trkpt lat="42.92731" lon="0.3122">
        <ele>1416.6</ele>
        <time>2021-10-02T07:24:27Z</time>
      </trkpt>
      <trkpt lat="42.92734" lon="0.31222">
        <ele>1416.8</ele>
        <time>2021-10-02T07:24:28Z</time>
      </trkpt>
      <trkpt lat="42.92735" lon="0.31224">
        <ele>1417</ele>
        <time>2021-10-02T07:24:29Z</time>
      </trkpt>
      <trkpt lat="42.92736" lon="0.31226">
        <ele>1417</ele>
        <time>2021-10-02T07:24:30Z</time>
      </trkpt>
      <trkpt lat="42.92737" lon="0.31228">
        <ele>1417.2</ele>
        <time>2021-10-02T07:24:31Z</time>
      </trkpt>
      <trkpt lat="42.92737" lon="0.31228">
        <ele>1417.2</ele>
        <time>2021-10-02T07:24:32Z</time>
      </trkpt>
      <trkpt lat="42.92736" lon="0.31229">
        <ele>1417.2</ele>
        <time>2021-10-02T07:24:33Z</time>
      </trkpt>
      <trkpt lat="42.92738" lon="0.31232">
        <ele>1417.4</ele>
        <time>2021-10-02T07:24:34Z</time>
      </trkpt>
      <trkpt lat="42.92738" lon="0.31234">
        <ele>1417.6</ele>
        <time>2021-10-02T07:24:35Z</time>
      </trkpt>
      <trkpt lat="42.92739" lon="0.31237">
        <ele>1417.8</ele>
        <time>2021-10-02T07:24:36Z</time>
      </trkpt>
      <trkpt lat="42.92738" lon="0.31238">
        <ele>1417.8</ele>
        <time>2021-10-02T07:24:37Z</time>
      </trkpt>
      <trkpt lat="42.92739" lon="0.3124">
        <ele>1418</ele>
        <time>2021-10-02T07:24:38Z</time>
      </trkpt>
      <trkpt lat="42.92739" lon="0.31243">
        <ele>1418.2</ele>
        <time>2021-10-02T07:24:39Z</time>
      </trkpt>
      <trkpt lat="42.9274" lon="0.31245">
        <ele>1418.4</ele>
        <time>2021-10-02T07:24:40Z</time>
      </trkpt>
      <trkpt lat="42.92741" lon="0.31248">
        <ele>1418.4</ele>
        <time>2021-10-02T07:24:41Z</time>
      </trkpt>
      <trkpt lat="42.92742" lon="0.3125">
        <ele>1418.6</ele>
        <time>2021-10-02T07:24:42Z</time>
      </trkpt>
      <trkpt lat="42.92743" lon="0.31252">
        <ele>1418.6</ele>
        <time>2021-10-02T07:24:43Z</time>
      </trkpt>
      <trkpt lat="42.92744" lon="0.31254">
        <ele>1418.8</ele>
        <time>2021-10-02T07:24:44Z</time>
      </trkpt>
      <trkpt lat="42.92745" lon="0.31257">
        <ele>1419</ele>
        <time>2021-10-02T07:24:45Z</time>
      </trkpt>
      <trkpt lat="42.92747" lon="0.31258">
        <ele>1419</ele>
        <time>2021-10-02T07:24:46Z</time>
      </trkpt>
      <trkpt lat="42.92748" lon="0.3126">
        <ele>1419.2</ele>
        <time>2021-10-02T07:24:47Z</time>
      </trkpt>
      <trkpt lat="42.92748" lon="0.31262">
        <ele>1419.2</ele>
        <time>2021-10-02T07:24:48Z</time>
      </trkpt>
      <trkpt lat="42.92749" lon="0.31263">
        <ele>1419.4</ele>
        <time>2021-10-02T07:24:49Z</time>
      </trkpt>
      <trkpt lat="42.92749" lon="0.31264">
        <ele>1419.4</ele>
        <time>2021-10-02T07:24:50Z</time>
      </trkpt>
      <trkpt lat="42.92749" lon="0.31264">
        <ele>1419.6</ele>
        <time>2021-10-02T07:24:52Z</time>
      </trkpt>
      <trkpt lat="42.92749" lon="0.31264">
        <ele>1419.6</ele>
        <time>2021-10-02T07:25:06Z</time>
      </trkpt>
      <trkpt lat="42.92749" lon="0.31264">
        <ele>1419.8</ele>
        <time>2021-10-02T07:25:10Z</time>
      </trkpt>
      <trkpt lat="42.92749" lon="0.31264">
        <ele>1419.8</ele>
        <time>2021-10-02T07:25:13Z</time>
      </trkpt>
      <trkpt lat="42.9275" lon="0.31265">
        <ele>1419.8</ele>
        <time>2021-10-02T07:25:20Z</time>
      </trkpt>
      <trkpt lat="42.92751" lon="0.31267">
        <ele>1419.8</ele>
        <time>2021-10-02T07:25:21Z</time>
      </trkpt>
      <trkpt lat="42.92752" lon="0.31269">
        <ele>1419.8</ele>
        <time>2021-10-02T07:25:22Z</time>
      </trkpt>
      <trkpt lat="42.92753" lon="0.31271">
        <ele>1419.8</ele>
        <time>2021-10-02T07:25:23Z</time>
      </trkpt>
      <trkpt lat="42.92754" lon="0.31273">
        <ele>1419.8</ele>
        <time>2021-10-02T07:25:24Z</time>
      </trkpt>
      <trkpt lat="42.92756" lon="0.31275">
        <ele>1419.8</ele>
        <time>2021-10-02T07:25:25Z</time>
      </trkpt>
      <trkpt lat="42.92757" lon="0.31276">
        <ele>1419.8</ele>
        <time>2021-10-02T07:25:26Z</time>
      </trkpt>
      <trkpt lat="42.92759" lon="0.31277">
        <ele>1419.8</ele>
        <time>2021-10-02T07:25:27Z</time>
      </trkpt>
      <trkpt lat="42.92759" lon="0.31279">
        <ele>1419.8</ele>
        <time>2021-10-02T07:25:28Z</time>
      </trkpt>
      <trkpt lat="42.92764" lon="0.31285">
        <ele>1419.8</ele>
        <time>2021-10-02T07:25:32Z</time>
      </trkpt>
      <trkpt lat="42.92766" lon="0.31289">
        <ele>1419.8</ele>
        <time>2021-10-02T07:25:34Z</time>
      </trkpt>
      <trkpt lat="42.92768" lon="0.31291">
        <ele>1419.8</ele>
        <time>2021-10-02T07:25:35Z</time>
      </trkpt>
      <trkpt lat="42.92781" lon="0.31304">
        <ele>1420</ele>
        <time>2021-10-02T07:25:43Z</time>
      </trkpt>
      <trkpt lat="42.92783" lon="0.31306">
        <ele>1420</ele>
        <time>2021-10-02T07:25:44Z</time>
      </trkpt>
      <trkpt lat="42.92796" lon="0.31315">
        <ele>1420</ele>
        <time>2021-10-02T07:25:49Z</time>
      </trkpt>
      <trkpt lat="42.92798" lon="0.31316">
        <ele>1420</ele>
        <time>2021-10-02T07:25:50Z</time>
      </trkpt>
      <trkpt lat="42.928" lon="0.31317">
        <ele>1420</ele>
        <time>2021-10-02T07:25:51Z</time>
      </trkpt>
      <trkpt lat="42.92809" lon="0.31325">
        <ele>1420.2</ele>
        <time>2021-10-02T07:25:55Z</time>
      </trkpt>
      <trkpt lat="42.9282" lon="0.31337">
        <ele>1420.2</ele>
        <time>2021-10-02T07:25:59Z</time>
      </trkpt>
      <trkpt lat="42.92822" lon="0.31338">
        <ele>1420.2</ele>
        <time>2021-10-02T07:26:00Z</time>
      </trkpt>
      <trkpt lat="42.92826" lon="0.31341">
        <ele>1420.2</ele>
        <time>2021-10-02T07:26:02Z</time>
      </trkpt>
      <trkpt lat="42.92828" lon="0.31343">
        <ele>1420.2</ele>
        <time>2021-10-02T07:26:03Z</time>
      </trkpt>
      <trkpt lat="42.92831" lon="0.31345">
        <ele>1420.2</ele>
        <time>2021-10-02T07:26:05Z</time>
      </trkpt>
      <trkpt lat="42.92833" lon="0.31345">
        <ele>1420.2</ele>
        <time>2021-10-02T07:26:06Z</time>
      </trkpt>
      <trkpt lat="42.92835" lon="0.31346">
        <ele>1420.4</ele>
        <time>2021-10-02T07:26:07Z</time>
      </trkpt>
      <trkpt lat="42.92837" lon="0.31347">
        <ele>1420.4</ele>
        <time>2021-10-02T07:26:08Z</time>
      </trkpt>
      <trkpt lat="42.9284" lon="0.31349">
        <ele>1420.4</ele>
        <time>2021-10-02T07:26:09Z</time>
      </trkpt>
      <trkpt lat="42.92847" lon="0.31355">
        <ele>1420.6</ele>
        <time>2021-10-02T07:26:13Z</time>
      </trkpt>
      <trkpt lat="42.92849" lon="0.31357">
        <ele>1420.6</ele>
        <time>2021-10-02T07:26:14Z</time>
      </trkpt>
      <trkpt lat="42.92851" lon="0.31359">
        <ele>1420.8</ele>
        <time>2021-10-02T07:26:15Z</time>
      </trkpt>
      <trkpt lat="42.92854" lon="0.31361">
        <ele>1420.8</ele>
        <time>2021-10-02T07:26:16Z</time>
      </trkpt>
      <trkpt lat="42.92859" lon="0.31364">
        <ele>1421</ele>
        <time>2021-10-02T07:26:18Z</time>
      </trkpt>
      <trkpt lat="42.92865" lon="0.31366">
        <ele>1421</ele>
        <time>2021-10-02T07:26:20Z</time>
      </trkpt>
      <trkpt lat="42.92867" lon="0.31365">
        <ele>1421.2</ele>
        <time>2021-10-02T07:26:21Z</time>
      </trkpt>
      <trkpt lat="42.9287" lon="0.31365">
        <ele>1421.2</ele>
        <time>2021-10-02T07:26:22Z</time>
      </trkpt>
      <trkpt lat="42.92878" lon="0.31369">
        <ele>1421.2</ele>
        <time>2021-10-02T07:26:25Z</time>
      </trkpt>
      <trkpt lat="42.92881" lon="0.31369">
        <ele>1421.4</ele>
        <time>2021-10-02T07:26:26Z</time>
      </trkpt>
      <trkpt lat="42.92888" lon="0.31368">
        <ele>1421.4</ele>
        <time>2021-10-02T07:26:28Z</time>
      </trkpt>
      <trkpt lat="42.92895" lon="0.31366">
        <ele>1421.6</ele>
        <time>2021-10-02T07:26:30Z</time>
      </trkpt>
      <trkpt lat="42.92901" lon="0.31369">
        <ele>1421.8</ele>
        <time>2021-10-02T07:26:32Z</time>
      </trkpt>
      <trkpt lat="42.92905" lon="0.31371">
        <ele>1421.8</ele>
        <time>2021-10-02T07:26:33Z</time>
      </trkpt>
      <trkpt lat="42.92908" lon="0.31371">
        <ele>1421.8</ele>
        <time>2021-10-02T07:26:34Z</time>
      </trkpt>
      <trkpt lat="42.92916" lon="0.31376">
        <ele>1421.8</ele>
        <time>2021-10-02T07:26:36Z</time>
      </trkpt>
      <trkpt lat="42.92921" lon="0.31376">
        <ele>1422</ele>
        <time>2021-10-02T07:26:37Z</time>
      </trkpt>
      <trkpt lat="42.92925" lon="0.31376">
        <ele>1422</ele>
        <time>2021-10-02T07:26:38Z</time>
      </trkpt>
      <trkpt lat="42.92929" lon="0.31376">
        <ele>1422</ele>
        <time>2021-10-02T07:26:39Z</time>
      </trkpt>
      <trkpt lat="42.92933" lon="0.31378">
        <ele>1422.2</ele>
        <time>2021-10-02T07:26:40Z</time>
      </trkpt>
      <trkpt lat="42.92938" lon="0.3138">
        <ele>1422.2</ele>
        <time>2021-10-02T07:26:41Z</time>
      </trkpt>
      <trkpt lat="42.92941" lon="0.31381">
        <ele>1422</ele>
        <time>2021-10-02T07:26:42Z</time>
      </trkpt>
      <trkpt lat="42.92962" lon="0.31389">
        <ele>1422</ele>
        <time>2021-10-02T07:26:47Z</time>
      </trkpt>
      <trkpt lat="42.92984" lon="0.31401">
        <ele>1421.4</ele>
        <time>2021-10-02T07:26:51Z</time>
      </trkpt>
      <trkpt lat="42.92989" lon="0.31407">
        <ele>1421.2</ele>
        <time>2021-10-02T07:26:52Z</time>
      </trkpt>
      <trkpt lat="42.92993" lon="0.31413">
        <ele>1421</ele>
        <time>2021-10-02T07:26:53Z</time>
      </trkpt>
      <trkpt lat="42.92998" lon="0.31421">
        <ele>1420.8</ele>
        <time>2021-10-02T07:26:54Z</time>
      </trkpt>
      <trkpt lat="42.93002" lon="0.31427">
        <ele>1420.6</ele>
        <time>2021-10-02T07:26:55Z</time>
      </trkpt>
      <trkpt lat="42.93007" lon="0.3143">
        <ele>1420.4</ele>
        <time>2021-10-02T07:26:56Z</time>
      </trkpt>
      <trkpt lat="42.93013" lon="0.31434">
        <ele>1420</ele>
        <time>2021-10-02T07:26:57Z</time>
      </trkpt>
      <trkpt lat="42.93024" lon="0.31441">
        <ele>1419.4</ele>
        <time>2021-10-02T07:26:59Z</time>
      </trkpt>
      <trkpt lat="42.93049" lon="0.3146">
        <ele>1418</ele>
        <time>2021-10-02T07:27:03Z</time>
      </trkpt>
      <trkpt lat="42.93061" lon="0.31467">
        <ele>1417</ele>
        <time>2021-10-02T07:27:05Z</time>
      </trkpt>
      <trkpt lat="42.93068" lon="0.31465">
        <ele>1416.4</ele>
        <time>2021-10-02T07:27:06Z</time>
      </trkpt>
      <trkpt lat="42.93074" lon="0.31464">
        <ele>1416.2</ele>
        <time>2021-10-02T07:27:07Z</time>
      </trkpt>
      <trkpt lat="42.93081" lon="0.31461">
        <ele>1416</ele>
        <time>2021-10-02T07:27:08Z</time>
      </trkpt>
      <trkpt lat="42.93087" lon="0.31458">
        <ele>1415.6</ele>
        <time>2021-10-02T07:27:09Z</time>
      </trkpt>
      <trkpt lat="42.93092" lon="0.31454">
        <ele>1415</ele>
        <time>2021-10-02T07:27:10Z</time>
      </trkpt>
      <trkpt lat="42.93096" lon="0.31448">
        <ele>1414.8</ele>
        <time>2021-10-02T07:27:11Z</time>
      </trkpt>
      <trkpt lat="42.93098" lon="0.31445">
        <ele>1414.2</ele>
        <time>2021-10-02T07:27:12Z</time>
      </trkpt>
      <trkpt lat="42.93101" lon="0.31441">
        <ele>1413.8</ele>
        <time>2021-10-02T07:27:13Z</time>
      </trkpt>
      <trkpt lat="42.93103" lon="0.31438">
        <ele>1413.6</ele>
        <time>2021-10-02T07:27:14Z</time>
      </trkpt>
      <trkpt lat="42.93106" lon="0.31436">
        <ele>1413.6</ele>
        <time>2021-10-02T07:27:15Z</time>
      </trkpt>
      <trkpt lat="42.93108" lon="0.31433">
        <ele>1413.4</ele>
        <time>2021-10-02T07:27:16Z</time>
      </trkpt>
      <trkpt lat="42.9311" lon="0.3143">
        <ele>1413.2</ele>
        <time>2021-10-02T07:27:17Z</time>
      </trkpt>
      <trkpt lat="42.93112" lon="0.31428">
        <ele>1413.4</ele>
        <time>2021-10-02T07:27:18Z</time>
      </trkpt>
      <trkpt lat="42.93115" lon="0.31425">
        <ele>1413.4</ele>
        <time>2021-10-02T07:27:19Z</time>
      </trkpt>
      <trkpt lat="42.93126" lon="0.31414">
        <ele>1412.8</ele>
        <time>2021-10-02T07:27:22Z</time>
      </trkpt>
      <trkpt lat="42.9313" lon="0.31408">
        <ele>1412.6</ele>
        <time>2021-10-02T07:27:23Z</time>
      </trkpt>
      <trkpt lat="42.93133" lon="0.31403">
        <ele>1412.6</ele>
        <time>2021-10-02T07:27:24Z</time>
      </trkpt>
      <trkpt lat="42.93136" lon="0.31396">
        <ele>1412.2</ele>
        <time>2021-10-02T07:27:25Z</time>
      </trkpt>
      <trkpt lat="42.93138" lon="0.31389">
        <ele>1412.2</ele>
        <time>2021-10-02T07:27:26Z</time>
      </trkpt>
      <trkpt lat="42.93139" lon="0.31381">
        <ele>1411.8</ele>
        <time>2021-10-02T07:27:27Z</time>
      </trkpt>
      <trkpt lat="42.93141" lon="0.31374">
        <ele>1411.6</ele>
        <time>2021-10-02T07:27:28Z</time>
      </trkpt>
      <trkpt lat="42.93143" lon="0.31366">
        <ele>1411.2</ele>
        <time>2021-10-02T07:27:29Z</time>
      </trkpt>
      <trkpt lat="42.93146" lon="0.3136">
        <ele>1411.2</ele>
        <time>2021-10-02T07:27:30Z</time>
      </trkpt>
      <trkpt lat="42.9315" lon="0.31354">
        <ele>1410.8</ele>
        <time>2021-10-02T07:27:31Z</time>
      </trkpt>
      <trkpt lat="42.93155" lon="0.31348">
        <ele>1410.6</ele>
        <time>2021-10-02T07:27:32Z</time>
      </trkpt>
      <trkpt lat="42.93163" lon="0.31342">
        <ele>1409.8</ele>
        <time>2021-10-02T07:27:33Z</time>
      </trkpt>
      <trkpt lat="42.93171" lon="0.31338">
        <ele>1409.4</ele>
        <time>2021-10-02T07:27:34Z</time>
      </trkpt>
      <trkpt lat="42.93187" lon="0.31323">
        <ele>1408.8</ele>
        <time>2021-10-02T07:27:36Z</time>
      </trkpt>
      <trkpt lat="42.93195" lon="0.31315">
        <ele>1408</ele>
        <time>2021-10-02T07:27:37Z</time>
      </trkpt>
      <trkpt lat="42.93203" lon="0.31306">
        <ele>1407.8</ele>
        <time>2021-10-02T07:27:38Z</time>
      </trkpt>
      <trkpt lat="42.9322" lon="0.31289">
        <ele>1406.4</ele>
        <time>2021-10-02T07:27:40Z</time>
      </trkpt>
      <trkpt lat="42.93229" lon="0.31279">
        <ele>1404.6</ele>
        <time>2021-10-02T07:27:41Z</time>
      </trkpt>
      <trkpt lat="42.93238" lon="0.3127">
        <ele>1403.6</ele>
        <time>2021-10-02T07:27:42Z</time>
      </trkpt>
      <trkpt lat="42.93246" lon="0.31262">
        <ele>1402.4</ele>
        <time>2021-10-02T07:27:43Z</time>
      </trkpt>
      <trkpt lat="42.93254" lon="0.31255">
        <ele>1401.6</ele>
        <time>2021-10-02T07:27:44Z</time>
      </trkpt>
      <trkpt lat="42.93262" lon="0.31248">
        <ele>1401</ele>
        <time>2021-10-02T07:27:45Z</time>
      </trkpt>
      <trkpt lat="42.9327" lon="0.3124">
        <ele>1399.4</ele>
        <time>2021-10-02T07:27:46Z</time>
      </trkpt>
      <trkpt lat="42.93285" lon="0.31223">
        <ele>1397.8</ele>
        <time>2021-10-02T07:27:48Z</time>
      </trkpt>
      <trkpt lat="42.93292" lon="0.31214">
        <ele>1397.4</ele>
        <time>2021-10-02T07:27:49Z</time>
      </trkpt>
      <trkpt lat="42.93297" lon="0.31207">
        <ele>1396.4</ele>
        <time>2021-10-02T07:27:50Z</time>
      </trkpt>
      <trkpt lat="42.93302" lon="0.312">
        <ele>1395.4</ele>
        <time>2021-10-02T07:27:51Z</time>
      </trkpt>
      <trkpt lat="42.93306" lon="0.31194">
        <ele>1394.2</ele>
        <time>2021-10-02T07:27:52Z</time>
      </trkpt>
      <trkpt lat="42.93311" lon="0.31187">
        <ele>1393.4</ele>
        <time>2021-10-02T07:27:53Z</time>
      </trkpt>
      <trkpt lat="42.93315" lon="0.3118">
        <ele>1392.6</ele>
        <time>2021-10-02T07:27:54Z</time>
      </trkpt>
      <trkpt lat="42.93318" lon="0.31173">
        <ele>1392.4</ele>
        <time>2021-10-02T07:27:55Z</time>
      </trkpt>
      <trkpt lat="42.93321" lon="0.31168">
        <ele>1392.2</ele>
        <time>2021-10-02T07:27:56Z</time>
      </trkpt>
      <trkpt lat="42.93323" lon="0.31163">
        <ele>1392</ele>
        <time>2021-10-02T07:27:57Z</time>
      </trkpt>
      <trkpt lat="42.93325" lon="0.31158">
        <ele>1392</ele>
        <time>2021-10-02T07:27:58Z</time>
      </trkpt>
      <trkpt lat="42.93327" lon="0.31153">
        <ele>1392</ele>
        <time>2021-10-02T07:27:59Z</time>
      </trkpt>
      <trkpt lat="42.93329" lon="0.31149">
        <ele>1392</ele>
        <time>2021-10-02T07:28:00Z</time>
      </trkpt>
      <trkpt lat="42.93331" lon="0.31146">
        <ele>1392</ele>
        <time>2021-10-02T07:28:01Z</time>
      </trkpt>
      <trkpt lat="42.93333" lon="0.31143">
        <ele>1392.2</ele>
        <time>2021-10-02T07:28:02Z</time>
      </trkpt>
      <trkpt lat="42.93335" lon="0.31139">
        <ele>1392.2</ele>
        <time>2021-10-02T07:28:03Z</time>
      </trkpt>
      <trkpt lat="42.93337" lon="0.31135">
        <ele>1392.4</ele>
        <time>2021-10-02T07:28:04Z</time>
      </trkpt>
      <trkpt lat="42.93338" lon="0.31132">
        <ele>1392.6</ele>
        <time>2021-10-02T07:28:05Z</time>
      </trkpt>
      <trkpt lat="42.93338" lon="0.31128">
        <ele>1392.8</ele>
        <time>2021-10-02T07:28:06Z</time>
      </trkpt>
      <trkpt lat="42.93339" lon="0.31124">
        <ele>1393</ele>
        <time>2021-10-02T07:28:07Z</time>
      </trkpt>
      <trkpt lat="42.93339" lon="0.31121">
        <ele>1393</ele>
        <time>2021-10-02T07:28:08Z</time>
      </trkpt>
      <trkpt lat="42.9334" lon="0.31119">
        <ele>1393.2</ele>
        <time>2021-10-02T07:28:09Z</time>
      </trkpt>
      <trkpt lat="42.93341" lon="0.31116">
        <ele>1393.2</ele>
        <time>2021-10-02T07:28:10Z</time>
      </trkpt>
      <trkpt lat="42.93342" lon="0.31113">
        <ele>1393.4</ele>
        <time>2021-10-02T07:28:11Z</time>
      </trkpt>
      <trkpt lat="42.93342" lon="0.3111">
        <ele>1393.4</ele>
        <time>2021-10-02T07:28:12Z</time>
      </trkpt>
      <trkpt lat="42.93343" lon="0.31104">
        <ele>1393.6</ele>
        <time>2021-10-02T07:28:14Z</time>
      </trkpt>
      <trkpt lat="42.93343" lon="0.31101">
        <ele>1393.8</ele>
        <time>2021-10-02T07:28:15Z</time>
      </trkpt>
      <trkpt lat="42.93344" lon="0.31098">
        <ele>1394.2</ele>
        <time>2021-10-02T07:28:16Z</time>
      </trkpt>
      <trkpt lat="42.93344" lon="0.31095">
        <ele>1394.4</ele>
        <time>2021-10-02T07:28:17Z</time>
      </trkpt>
      <trkpt lat="42.93346" lon="0.31093">
        <ele>1394.6</ele>
        <time>2021-10-02T07:28:18Z</time>
      </trkpt>
      <trkpt lat="42.93347" lon="0.3109">
        <ele>1395</ele>
        <time>2021-10-02T07:28:19Z</time>
      </trkpt>
      <trkpt lat="42.93348" lon="0.31086">
        <ele>1395.6</ele>
        <time>2021-10-02T07:28:21Z</time>
      </trkpt>
      <trkpt lat="42.93352" lon="0.31083">
        <ele>1396</ele>
        <time>2021-10-02T07:28:23Z</time>
      </trkpt>
      <trkpt lat="42.93354" lon="0.31082">
        <ele>1396.4</ele>
        <time>2021-10-02T07:28:24Z</time>
      </trkpt>
      <trkpt lat="42.93356" lon="0.31081">
        <ele>1396.4</ele>
        <time>2021-10-02T07:28:25Z</time>
      </trkpt>
      <trkpt lat="42.93365" lon="0.3108">
        <ele>1397.2</ele>
        <time>2021-10-02T07:28:29Z</time>
      </trkpt>
      <trkpt lat="42.93367" lon="0.3108">
        <ele>1397.4</ele>
        <time>2021-10-02T07:28:30Z</time>
      </trkpt>
      <trkpt lat="42.93369" lon="0.31081">
        <ele>1397.6</ele>
        <time>2021-10-02T07:28:31Z</time>
      </trkpt>
      <trkpt lat="42.9337" lon="0.31082">
        <ele>1397.8</ele>
        <time>2021-10-02T07:28:32Z</time>
      </trkpt>
      <trkpt lat="42.93372" lon="0.31083">
        <ele>1398</ele>
        <time>2021-10-02T07:28:33Z</time>
      </trkpt>
      <trkpt lat="42.93374" lon="0.31085">
        <ele>1398.2</ele>
        <time>2021-10-02T07:28:34Z</time>
      </trkpt>
      <trkpt lat="42.93376" lon="0.31086">
        <ele>1398.4</ele>
        <time>2021-10-02T07:28:35Z</time>
      </trkpt>
      <trkpt lat="42.93378" lon="0.31087">
        <ele>1398.6</ele>
        <time>2021-10-02T07:28:36Z</time>
      </trkpt>
      <trkpt lat="42.93379" lon="0.31088">
        <ele>1398.6</ele>
        <time>2021-10-02T07:28:37Z</time>
      </trkpt>
      <trkpt lat="42.93381" lon="0.3109">
        <ele>1398.6</ele>
        <time>2021-10-02T07:28:38Z</time>
      </trkpt>
      <trkpt lat="42.93383" lon="0.31092">
        <ele>1398.8</ele>
        <time>2021-10-02T07:28:39Z</time>
      </trkpt>
      <trkpt lat="42.93384" lon="0.31093">
        <ele>1399</ele>
        <time>2021-10-02T07:28:40Z</time>
      </trkpt>
      <trkpt lat="42.93385" lon="0.31095">
        <ele>1399.2</ele>
        <time>2021-10-02T07:28:41Z</time>
      </trkpt>
      <trkpt lat="42.93386" lon="0.31097">
        <ele>1399.4</ele>
        <time>2021-10-02T07:28:42Z</time>
      </trkpt>
      <trkpt lat="42.93387" lon="0.31098">
        <ele>1399.6</ele>
        <time>2021-10-02T07:28:43Z</time>
      </trkpt>
      <trkpt lat="42.93388" lon="0.311">
        <ele>1399.8</ele>
        <time>2021-10-02T07:28:44Z</time>
      </trkpt>
      <trkpt lat="42.93389" lon="0.31101">
        <ele>1400</ele>
        <time>2021-10-02T07:28:45Z</time>
      </trkpt>
      <trkpt lat="42.93389" lon="0.31102">
        <ele>1400.2</ele>
        <time>2021-10-02T07:28:46Z</time>
      </trkpt>
      <trkpt lat="42.9339" lon="0.31104">
        <ele>1400.4</ele>
        <time>2021-10-02T07:28:47Z</time>
      </trkpt>
      <trkpt lat="42.93391" lon="0.31106">
        <ele>1400.4</ele>
        <time>2021-10-02T07:28:48Z</time>
      </trkpt>
      <trkpt lat="42.93392" lon="0.31108">
        <ele>1400.6</ele>
        <time>2021-10-02T07:28:49Z</time>
      </trkpt>
      <trkpt lat="42.93392" lon="0.31109">
        <ele>1400.8</ele>
        <time>2021-10-02T07:28:50Z</time>
      </trkpt>
      <trkpt lat="42.93392" lon="0.3111">
        <ele>1400.8</ele>
        <time>2021-10-02T07:28:51Z</time>
      </trkpt>
      <trkpt lat="42.93393" lon="0.31112">
        <ele>1401</ele>
        <time>2021-10-02T07:28:52Z</time>
      </trkpt>
      <trkpt lat="42.93393" lon="0.31114">
        <ele>1401.2</ele>
        <time>2021-10-02T07:28:53Z</time>
      </trkpt>
      <trkpt lat="42.93394" lon="0.31116">
        <ele>1401.4</ele>
        <time>2021-10-02T07:28:54Z</time>
      </trkpt>
      <trkpt lat="42.93395" lon="0.31117">
        <ele>1401.4</ele>
        <time>2021-10-02T07:28:55Z</time>
      </trkpt>
      <trkpt lat="42.93396" lon="0.3112">
        <ele>1401.6</ele>
        <time>2021-10-02T07:28:56Z</time>
      </trkpt>
      <trkpt lat="42.93396" lon="0.31121">
        <ele>1401.8</ele>
        <time>2021-10-02T07:28:57Z</time>
      </trkpt>
      <trkpt lat="42.93397" lon="0.31123">
        <ele>1402</ele>
        <time>2021-10-02T07:28:58Z</time>
      </trkpt>
      <trkpt lat="42.93397" lon="0.31125">
        <ele>1402.2</ele>
        <time>2021-10-02T07:28:59Z</time>
      </trkpt>
      <trkpt lat="42.93398" lon="0.31127">
        <ele>1402.4</ele>
        <time>2021-10-02T07:29:00Z</time>
      </trkpt>
      <trkpt lat="42.93398" lon="0.31129">
        <ele>1402.6</ele>
        <time>2021-10-02T07:29:01Z</time>
      </trkpt>
      <trkpt lat="42.93399" lon="0.31131">
        <ele>1402.8</ele>
        <time>2021-10-02T07:29:02Z</time>
      </trkpt>
      <trkpt lat="42.93399" lon="0.31133">
        <ele>1402.8</ele>
        <time>2021-10-02T07:29:03Z</time>
      </trkpt>
      <trkpt lat="42.93399" lon="0.31134">
        <ele>1403</ele>
        <time>2021-10-02T07:29:04Z</time>
      </trkpt>
      <trkpt lat="42.93399" lon="0.31136">
        <ele>1403</ele>
        <time>2021-10-02T07:29:05Z</time>
      </trkpt>
      <trkpt lat="42.93399" lon="0.31136">
        <ele>1403.2</ele>
        <time>2021-10-02T07:29:06Z</time>
      </trkpt>
      <trkpt lat="42.93399" lon="0.31137">
        <ele>1403.4</ele>
        <time>2021-10-02T07:29:07Z</time>
      </trkpt>
      <trkpt lat="42.934" lon="0.31138">
        <ele>1403.4</ele>
        <time>2021-10-02T07:29:08Z</time>
      </trkpt>
      <trkpt lat="42.934" lon="0.3114">
        <ele>1403.4</ele>
        <time>2021-10-02T07:29:09Z</time>
      </trkpt>
      <trkpt lat="42.934" lon="0.31141">
        <ele>1403.6</ele>
        <time>2021-10-02T07:29:10Z</time>
      </trkpt>
      <trkpt lat="42.93401" lon="0.31143">
        <ele>1403.6</ele>
        <time>2021-10-02T07:29:11Z</time>
      </trkpt>
      <trkpt lat="42.93402" lon="0.31145">
        <ele>1403.8</ele>
        <time>2021-10-02T07:29:12Z</time>
      </trkpt>
      <trkpt lat="42.93402" lon="0.31146">
        <ele>1403.8</ele>
        <time>2021-10-02T07:29:13Z</time>
      </trkpt>
      <trkpt lat="42.93403" lon="0.31147">
        <ele>1404</ele>
        <time>2021-10-02T07:29:14Z</time>
      </trkpt>
      <trkpt lat="42.93404" lon="0.31151">
        <ele>1404.2</ele>
        <time>2021-10-02T07:29:15Z</time>
      </trkpt>
      <trkpt lat="42.93406" lon="0.31156">
        <ele>1404.4</ele>
        <time>2021-10-02T07:29:16Z</time>
      </trkpt>
      <trkpt lat="42.93407" lon="0.31159">
        <ele>1404.6</ele>
        <time>2021-10-02T07:29:17Z</time>
      </trkpt>
      <trkpt lat="42.93408" lon="0.31162">
        <ele>1404.8</ele>
        <time>2021-10-02T07:29:18Z</time>
      </trkpt>
      <trkpt lat="42.93408" lon="0.31164">
        <ele>1404.8</ele>
        <time>2021-10-02T07:29:19Z</time>
      </trkpt>
      <trkpt lat="42.93408" lon="0.31166">
        <ele>1405</ele>
        <time>2021-10-02T07:29:20Z</time>
      </trkpt>
      <trkpt lat="42.93409" lon="0.31168">
        <ele>1405.2</ele>
        <time>2021-10-02T07:29:21Z</time>
      </trkpt>
      <trkpt lat="42.93409" lon="0.31169">
        <ele>1405.4</ele>
        <time>2021-10-02T07:29:22Z</time>
      </trkpt>
      <trkpt lat="42.9341" lon="0.31172">
        <ele>1405.6</ele>
        <time>2021-10-02T07:29:23Z</time>
      </trkpt>
      <trkpt lat="42.93412" lon="0.31175">
        <ele>1405.6</ele>
        <time>2021-10-02T07:29:24Z</time>
      </trkpt>
      <trkpt lat="42.93413" lon="0.31177">
        <ele>1405.8</ele>
        <time>2021-10-02T07:29:25Z</time>
      </trkpt>
      <trkpt lat="42.93413" lon="0.31179">
        <ele>1405.8</ele>
        <time>2021-10-02T07:29:26Z</time>
      </trkpt>
      <trkpt lat="42.93414" lon="0.3118">
        <ele>1406.2</ele>
        <time>2021-10-02T07:29:27Z</time>
      </trkpt>
      <trkpt lat="42.93416" lon="0.31182">
        <ele>1406.2</ele>
        <time>2021-10-02T07:29:28Z</time>
      </trkpt>
      <trkpt lat="42.93417" lon="0.31184">
        <ele>1406.4</ele>
        <time>2021-10-02T07:29:29Z</time>
      </trkpt>
      <trkpt lat="42.93418" lon="0.31187">
        <ele>1406.6</ele>
        <time>2021-10-02T07:29:30Z</time>
      </trkpt>
      <trkpt lat="42.93419" lon="0.3119">
        <ele>1406.6</ele>
        <time>2021-10-02T07:29:31Z</time>
      </trkpt>
      <trkpt lat="42.93419" lon="0.31194">
        <ele>1406.8</ele>
        <time>2021-10-02T07:29:32Z</time>
      </trkpt>
      <trkpt lat="42.93421" lon="0.31198">
        <ele>1407</ele>
        <time>2021-10-02T07:29:33Z</time>
      </trkpt>
      <trkpt lat="42.93422" lon="0.312">
        <ele>1407</ele>
        <time>2021-10-02T07:29:34Z</time>
      </trkpt>
      <trkpt lat="42.93422" lon="0.31202">
        <ele>1407.2</ele>
        <time>2021-10-02T07:29:35Z</time>
      </trkpt>
      <trkpt lat="42.93422" lon="0.31203">
        <ele>1407.4</ele>
        <time>2021-10-02T07:29:36Z</time>
      </trkpt>
      <trkpt lat="42.93424" lon="0.31205">
        <ele>1407.6</ele>
        <time>2021-10-02T07:29:37Z</time>
      </trkpt>
      <trkpt lat="42.93425" lon="0.31206">
        <ele>1407.6</ele>
        <time>2021-10-02T07:29:38Z</time>
      </trkpt>
      <trkpt lat="42.93425" lon="0.31207">
        <ele>1407.8</ele>
        <time>2021-10-02T07:29:39Z</time>
      </trkpt>
      <trkpt lat="42.93425" lon="0.31209">
        <ele>1408</ele>
        <time>2021-10-02T07:29:40Z</time>
      </trkpt>
      <trkpt lat="42.93425" lon="0.3121">
        <ele>1408</ele>
        <time>2021-10-02T07:29:41Z</time>
      </trkpt>
      <trkpt lat="42.93425" lon="0.31211">
        <ele>1408.2</ele>
        <time>2021-10-02T07:29:42Z</time>
      </trkpt>
      <trkpt lat="42.93425" lon="0.31212">
        <ele>1408.4</ele>
        <time>2021-10-02T07:29:43Z</time>
      </trkpt>
      <trkpt lat="42.93425" lon="0.31213">
        <ele>1408.6</ele>
        <time>2021-10-02T07:29:44Z</time>
      </trkpt>
      <trkpt lat="42.93425" lon="0.31215">
        <ele>1408.8</ele>
        <time>2021-10-02T07:29:45Z</time>
      </trkpt>
      <trkpt lat="42.93425" lon="0.31217">
        <ele>1409</ele>
        <time>2021-10-02T07:29:46Z</time>
      </trkpt>
      <trkpt lat="42.93425" lon="0.31219">
        <ele>1409</ele>
        <time>2021-10-02T07:29:47Z</time>
      </trkpt>
      <trkpt lat="42.93425" lon="0.31221">
        <ele>1409.2</ele>
        <time>2021-10-02T07:29:48Z</time>
      </trkpt>
      <trkpt lat="42.93426" lon="0.31224">
        <ele>1409.2</ele>
        <time>2021-10-02T07:29:49Z</time>
      </trkpt>
      <trkpt lat="42.93427" lon="0.31226">
        <ele>1409.6</ele>
        <time>2021-10-02T07:29:50Z</time>
      </trkpt>
      <trkpt lat="42.93428" lon="0.31229">
        <ele>1409.6</ele>
        <time>2021-10-02T07:29:51Z</time>
      </trkpt>
      <trkpt lat="42.93429" lon="0.31231">
        <ele>1409.8</ele>
        <time>2021-10-02T07:29:52Z</time>
      </trkpt>
      <trkpt lat="42.93429" lon="0.31232">
        <ele>1410</ele>
        <time>2021-10-02T07:29:53Z</time>
      </trkpt>
      <trkpt lat="42.93431" lon="0.31235">
        <ele>1410.2</ele>
        <time>2021-10-02T07:29:54Z</time>
      </trkpt>
      <trkpt lat="42.93433" lon="0.31238">
        <ele>1410.2</ele>
        <time>2021-10-02T07:29:55Z</time>
      </trkpt>
      <trkpt lat="42.93434" lon="0.31241">
        <ele>1410.4</ele>
        <time>2021-10-02T07:29:56Z</time>
      </trkpt>
      <trkpt lat="42.93436" lon="0.31244">
        <ele>1410.6</ele>
        <time>2021-10-02T07:29:57Z</time>
      </trkpt>
      <trkpt lat="42.93438" lon="0.31247">
        <ele>1410.8</ele>
        <time>2021-10-02T07:29:58Z</time>
      </trkpt>
      <trkpt lat="42.93439" lon="0.31249">
        <ele>1411</ele>
        <time>2021-10-02T07:29:59Z</time>
      </trkpt>
      <trkpt lat="42.9344" lon="0.31252">
        <ele>1411</ele>
        <time>2021-10-02T07:30:00Z</time>
      </trkpt>
      <trkpt lat="42.93441" lon="0.31254">
        <ele>1411.6</ele>
        <time>2021-10-02T07:30:01Z</time>
      </trkpt>
      <trkpt lat="42.93442" lon="0.31256">
        <ele>1411.8</ele>
        <time>2021-10-02T07:30:02Z</time>
      </trkpt>
      <trkpt lat="42.93444" lon="0.31258">
        <ele>1412</ele>
        <time>2021-10-02T07:30:03Z</time>
      </trkpt>
      <trkpt lat="42.93445" lon="0.3126">
        <ele>1412.2</ele>
        <time>2021-10-02T07:30:04Z</time>
      </trkpt>
      <trkpt lat="42.93446" lon="0.31262">
        <ele>1412.4</ele>
        <time>2021-10-02T07:30:05Z</time>
      </trkpt>
      <trkpt lat="42.93448" lon="0.31265">
        <ele>1412.4</ele>
        <time>2021-10-02T07:30:06Z</time>
      </trkpt>
      <trkpt lat="42.93449" lon="0.31266">
        <ele>1412.8</ele>
        <time>2021-10-02T07:30:07Z</time>
      </trkpt>
      <trkpt lat="42.93451" lon="0.31268">
        <ele>1412.8</ele>
        <time>2021-10-02T07:30:08Z</time>
      </trkpt>
      <trkpt lat="42.93453" lon="0.31271">
        <ele>1413</ele>
        <time>2021-10-02T07:30:09Z</time>
      </trkpt>
      <trkpt lat="42.93454" lon="0.31273">
        <ele>1413.2</ele>
        <time>2021-10-02T07:30:10Z</time>
      </trkpt>
      <trkpt lat="42.93455" lon="0.31275">
        <ele>1413.2</ele>
        <time>2021-10-02T07:30:11Z</time>
      </trkpt>
      <trkpt lat="42.93456" lon="0.31276">
        <ele>1413.4</ele>
        <time>2021-10-02T07:30:12Z</time>
      </trkpt>
      <trkpt lat="42.93458" lon="0.31278">
        <ele>1413.6</ele>
        <time>2021-10-02T07:30:13Z</time>
      </trkpt>
      <trkpt lat="42.93459" lon="0.31281">
        <ele>1413.6</ele>
        <time>2021-10-02T07:30:14Z</time>
      </trkpt>
      <trkpt lat="42.9346" lon="0.31282">
        <ele>1413.8</ele>
        <time>2021-10-02T07:30:15Z</time>
      </trkpt>
      <trkpt lat="42.93461" lon="0.31283">
        <ele>1414</ele>
        <time>2021-10-02T07:30:16Z</time>
      </trkpt>
      <trkpt lat="42.93462" lon="0.31286">
        <ele>1414</ele>
        <time>2021-10-02T07:30:17Z</time>
      </trkpt>
      <trkpt lat="42.93463" lon="0.31288">
        <ele>1414.2</ele>
        <time>2021-10-02T07:30:18Z</time>
      </trkpt>
      <trkpt lat="42.93464" lon="0.31289">
        <ele>1414.2</ele>
        <time>2021-10-02T07:30:19Z</time>
      </trkpt>
      <trkpt lat="42.93464" lon="0.31291">
        <ele>1414.4</ele>
        <time>2021-10-02T07:30:20Z</time>
      </trkpt>
      <trkpt lat="42.93464" lon="0.31292">
        <ele>1414.6</ele>
        <time>2021-10-02T07:30:21Z</time>
      </trkpt>
      <trkpt lat="42.93465" lon="0.31294">
        <ele>1414.8</ele>
        <time>2021-10-02T07:30:22Z</time>
      </trkpt>
      <trkpt lat="42.93466" lon="0.31295">
        <ele>1414.8</ele>
        <time>2021-10-02T07:30:23Z</time>
      </trkpt>
      <trkpt lat="42.93467" lon="0.31298">
        <ele>1415</ele>
        <time>2021-10-02T07:30:24Z</time>
      </trkpt>
      <trkpt lat="42.93468" lon="0.31299">
        <ele>1415</ele>
        <time>2021-10-02T07:30:25Z</time>
      </trkpt>
      <trkpt lat="42.93469" lon="0.31301">
        <ele>1415.2</ele>
        <time>2021-10-02T07:30:26Z</time>
      </trkpt>
      <trkpt lat="42.93469" lon="0.31303">
        <ele>1415.2</ele>
        <time>2021-10-02T07:30:27Z</time>
      </trkpt>
      <trkpt lat="42.9347" lon="0.31305">
        <ele>1415.4</ele>
        <time>2021-10-02T07:30:28Z</time>
      </trkpt>
      <trkpt lat="42.93471" lon="0.31307">
        <ele>1415.6</ele>
        <time>2021-10-02T07:30:29Z</time>
      </trkpt>
      <trkpt lat="42.9347" lon="0.31309">
        <ele>1415.8</ele>
        <time>2021-10-02T07:30:30Z</time>
      </trkpt>
      <trkpt lat="42.9347" lon="0.3131">
        <ele>1416</ele>
        <time>2021-10-02T07:30:31Z</time>
      </trkpt>
      <trkpt lat="42.93471" lon="0.31312">
        <ele>1416.2</ele>
        <time>2021-10-02T07:30:32Z</time>
      </trkpt>
      <trkpt lat="42.93471" lon="0.31314">
        <ele>1416.4</ele>
        <time>2021-10-02T07:30:33Z</time>
      </trkpt>
      <trkpt lat="42.93472" lon="0.31316">
        <ele>1416.4</ele>
        <time>2021-10-02T07:30:34Z</time>
      </trkpt>
      <trkpt lat="42.93472" lon="0.31318">
        <ele>1416.6</ele>
        <time>2021-10-02T07:30:35Z</time>
      </trkpt>
      <trkpt lat="42.93473" lon="0.3132">
        <ele>1416.6</ele>
        <time>2021-10-02T07:30:36Z</time>
      </trkpt>
      <trkpt lat="42.93473" lon="0.31322">
        <ele>1416.8</ele>
        <time>2021-10-02T07:30:37Z</time>
      </trkpt>
      <trkpt lat="42.93474" lon="0.31325">
        <ele>1416.8</ele>
        <time>2021-10-02T07:30:38Z</time>
      </trkpt>
      <trkpt lat="42.93474" lon="0.31328">
        <ele>1416.8</ele>
        <time>2021-10-02T07:30:39Z</time>
      </trkpt>
      <trkpt lat="42.93475" lon="0.3133">
        <ele>1417</ele>
        <time>2021-10-02T07:30:40Z</time>
      </trkpt>
      <trkpt lat="42.93475" lon="0.31333">
        <ele>1417.2</ele>
        <time>2021-10-02T07:30:41Z</time>
      </trkpt>
      <trkpt lat="42.93475" lon="0.31336">
        <ele>1417.4</ele>
        <time>2021-10-02T07:30:42Z</time>
      </trkpt>
      <trkpt lat="42.93476" lon="0.31339">
        <ele>1417.6</ele>
        <time>2021-10-02T07:30:43Z</time>
      </trkpt>
      <trkpt lat="42.93476" lon="0.31341">
        <ele>1417.8</ele>
        <time>2021-10-02T07:30:44Z</time>
      </trkpt>
      <trkpt lat="42.93476" lon="0.31344">
        <ele>1418</ele>
        <time>2021-10-02T07:30:45Z</time>
      </trkpt>
      <trkpt lat="42.93476" lon="0.31347">
        <ele>1418.2</ele>
        <time>2021-10-02T07:30:46Z</time>
      </trkpt>
      <trkpt lat="42.93475" lon="0.31349">
        <ele>1418.4</ele>
        <time>2021-10-02T07:30:47Z</time>
      </trkpt>
      <trkpt lat="42.93475" lon="0.31352">
        <ele>1418.6</ele>
        <time>2021-10-02T07:30:48Z</time>
      </trkpt>
      <trkpt lat="42.93475" lon="0.31355">
        <ele>1419</ele>
        <time>2021-10-02T07:30:49Z</time>
      </trkpt>
      <trkpt lat="42.93475" lon="0.31358">
        <ele>1419</ele>
        <time>2021-10-02T07:30:50Z</time>
      </trkpt>
      <trkpt lat="42.93475" lon="0.3136">
        <ele>1419.2</ele>
        <time>2021-10-02T07:30:51Z</time>
      </trkpt>
      <trkpt lat="42.93476" lon="0.31363">
        <ele>1419.4</ele>
        <time>2021-10-02T07:30:52Z</time>
      </trkpt>
      <trkpt lat="42.93477" lon="0.31366">
        <ele>1419.6</ele>
        <time>2021-10-02T07:30:53Z</time>
      </trkpt>
      <trkpt lat="42.93478" lon="0.31368">
        <ele>1419.6</ele>
        <time>2021-10-02T07:30:54Z</time>
      </trkpt>
      <trkpt lat="42.93478" lon="0.31371">
        <ele>1419.8</ele>
        <time>2021-10-02T07:30:55Z</time>
      </trkpt>
      <trkpt lat="42.93478" lon="0.31373">
        <ele>1420</ele>
        <time>2021-10-02T07:30:56Z</time>
      </trkpt>
      <trkpt lat="42.93478" lon="0.31375">
        <ele>1420</ele>
        <time>2021-10-02T07:30:57Z</time>
      </trkpt>
      <trkpt lat="42.93478" lon="0.31378">
        <ele>1420.4</ele>
        <time>2021-10-02T07:30:58Z</time>
      </trkpt>
      <trkpt lat="42.93478" lon="0.3138">
        <ele>1420.4</ele>
        <time>2021-10-02T07:30:59Z</time>
      </trkpt>
      <trkpt lat="42.93477" lon="0.31382">
        <ele>1420.6</ele>
        <time>2021-10-02T07:31:00Z</time>
      </trkpt>
      <trkpt lat="42.93477" lon="0.31385">
        <ele>1420.6</ele>
        <time>2021-10-02T07:31:01Z</time>
      </trkpt>
      <trkpt lat="42.93477" lon="0.31387">
        <ele>1420.8</ele>
        <time>2021-10-02T07:31:02Z</time>
      </trkpt>
      <trkpt lat="42.93477" lon="0.31389">
        <ele>1420.8</ele>
        <time>2021-10-02T07:31:03Z</time>
      </trkpt>
      <trkpt lat="42.93477" lon="0.31391">
        <ele>1421</ele>
        <time>2021-10-02T07:31:04Z</time>
      </trkpt>
      <trkpt lat="42.93478" lon="0.31393">
        <ele>1421.2</ele>
        <time>2021-10-02T07:31:05Z</time>
      </trkpt>
      <trkpt lat="42.93478" lon="0.31395">
        <ele>1421.4</ele>
        <time>2021-10-02T07:31:06Z</time>
      </trkpt>
      <trkpt lat="42.93479" lon="0.31398">
        <ele>1421.6</ele>
        <time>2021-10-02T07:31:07Z</time>
      </trkpt>
      <trkpt lat="42.9348" lon="0.314">
        <ele>1422</ele>
        <time>2021-10-02T07:31:08Z</time>
      </trkpt>
      <trkpt lat="42.9348" lon="0.31402">
        <ele>1422.2</ele>
        <time>2021-10-02T07:31:09Z</time>
      </trkpt>
      <trkpt lat="42.9348" lon="0.31404">
        <ele>1422.4</ele>
        <time>2021-10-02T07:31:10Z</time>
      </trkpt>
      <trkpt lat="42.9348" lon="0.31406">
        <ele>1422.4</ele>
        <time>2021-10-02T07:31:11Z</time>
      </trkpt>
      <trkpt lat="42.93479" lon="0.31408">
        <ele>1422.6</ele>
        <time>2021-10-02T07:31:12Z</time>
      </trkpt>
      <trkpt lat="42.93479" lon="0.3141">
        <ele>1422.6</ele>
        <time>2021-10-02T07:31:13Z</time>
      </trkpt>
      <trkpt lat="42.93478" lon="0.31413">
        <ele>1422.6</ele>
        <time>2021-10-02T07:31:14Z</time>
      </trkpt>
      <trkpt lat="42.93478" lon="0.31415">
        <ele>1422.8</ele>
        <time>2021-10-02T07:31:15Z</time>
      </trkpt>
      <trkpt lat="42.93478" lon="0.31418">
        <ele>1423</ele>
        <time>2021-10-02T07:31:16Z</time>
      </trkpt>
      <trkpt lat="42.93478" lon="0.3142">
        <ele>1423.4</ele>
        <time>2021-10-02T07:31:17Z</time>
      </trkpt>
      <trkpt lat="42.93478" lon="0.31422">
        <ele>1423.6</ele>
        <time>2021-10-02T07:31:18Z</time>
      </trkpt>
      <trkpt lat="42.93477" lon="0.31423">
        <ele>1423.8</ele>
        <time>2021-10-02T07:31:19Z</time>
      </trkpt>
      <trkpt lat="42.93476" lon="0.31425">
        <ele>1423.8</ele>
        <time>2021-10-02T07:31:20Z</time>
      </trkpt>
      <trkpt lat="42.93475" lon="0.31427">
        <ele>1424</ele>
        <time>2021-10-02T07:31:21Z</time>
      </trkpt>
      <trkpt lat="42.93474" lon="0.3143">
        <ele>1424</ele>
        <time>2021-10-02T07:31:22Z</time>
      </trkpt>
      <trkpt lat="42.93474" lon="0.31431">
        <ele>1424.2</ele>
        <time>2021-10-02T07:31:23Z</time>
      </trkpt>
      <trkpt lat="42.93474" lon="0.31433">
        <ele>1424.4</ele>
        <time>2021-10-02T07:31:24Z</time>
      </trkpt>
      <trkpt lat="42.93473" lon="0.31435">
        <ele>1424.8</ele>
        <time>2021-10-02T07:31:25Z</time>
      </trkpt>
      <trkpt lat="42.93472" lon="0.31437">
        <ele>1424.8</ele>
        <time>2021-10-02T07:31:26Z</time>
      </trkpt>
      <trkpt lat="42.93472" lon="0.31439">
        <ele>1425</ele>
        <time>2021-10-02T07:31:27Z</time>
      </trkpt>
      <trkpt lat="42.93472" lon="0.31441">
        <ele>1425</ele>
        <time>2021-10-02T07:31:28Z</time>
      </trkpt>
      <trkpt lat="42.93471" lon="0.31443">
        <ele>1425</ele>
        <time>2021-10-02T07:31:29Z</time>
      </trkpt>
      <trkpt lat="42.93471" lon="0.31445">
        <ele>1425.2</ele>
        <time>2021-10-02T07:31:30Z</time>
      </trkpt>
      <trkpt lat="42.93471" lon="0.31448">
        <ele>1425.2</ele>
        <time>2021-10-02T07:31:31Z</time>
      </trkpt>
      <trkpt lat="42.93471" lon="0.31452">
        <ele>1425.4</ele>
        <time>2021-10-02T07:31:32Z</time>
      </trkpt>
      <trkpt lat="42.9347" lon="0.31454">
        <ele>1425.6</ele>
        <time>2021-10-02T07:31:33Z</time>
      </trkpt>
      <trkpt lat="42.9347" lon="0.31456">
        <ele>1426</ele>
        <time>2021-10-02T07:31:34Z</time>
      </trkpt>
      <trkpt lat="42.9347" lon="0.31459">
        <ele>1426.2</ele>
        <time>2021-10-02T07:31:35Z</time>
      </trkpt>
      <trkpt lat="42.9347" lon="0.31461">
        <ele>1426.4</ele>
        <time>2021-10-02T07:31:36Z</time>
      </trkpt>
      <trkpt lat="42.9347" lon="0.31463">
        <ele>1426.4</ele>
        <time>2021-10-02T07:31:37Z</time>
      </trkpt>
      <trkpt lat="42.9347" lon="0.31465">
        <ele>1426.6</ele>
        <time>2021-10-02T07:31:38Z</time>
      </trkpt>
      <trkpt lat="42.9347" lon="0.31468">
        <ele>1426.6</ele>
        <time>2021-10-02T07:31:39Z</time>
      </trkpt>
      <trkpt lat="42.9347" lon="0.3147">
        <ele>1427</ele>
        <time>2021-10-02T07:31:40Z</time>
      </trkpt>
      <trkpt lat="42.93469" lon="0.31472">
        <ele>1427</ele>
        <time>2021-10-02T07:31:41Z</time>
      </trkpt>
      <trkpt lat="42.93469" lon="0.31474">
        <ele>1427.2</ele>
        <time>2021-10-02T07:31:42Z</time>
      </trkpt>
      <trkpt lat="42.9347" lon="0.31477">
        <ele>1427.4</ele>
        <time>2021-10-02T07:31:43Z</time>
      </trkpt>
      <trkpt lat="42.9347" lon="0.3148">
        <ele>1427.4</ele>
        <time>2021-10-02T07:31:44Z</time>
      </trkpt>
      <trkpt lat="42.9347" lon="0.31482">
        <ele>1427.6</ele>
        <time>2021-10-02T07:31:45Z</time>
      </trkpt>
      <trkpt lat="42.93469" lon="0.31484">
        <ele>1427.8</ele>
        <time>2021-10-02T07:31:46Z</time>
      </trkpt>
      <trkpt lat="42.93469" lon="0.31486">
        <ele>1428.2</ele>
        <time>2021-10-02T07:31:47Z</time>
      </trkpt>
      <trkpt lat="42.9347" lon="0.31489">
        <ele>1428.2</ele>
        <time>2021-10-02T07:31:48Z</time>
      </trkpt>
      <trkpt lat="42.9347" lon="0.31491">
        <ele>1428.4</ele>
        <time>2021-10-02T07:31:49Z</time>
      </trkpt>
      <trkpt lat="42.93469" lon="0.31493">
        <ele>1428.4</ele>
        <time>2021-10-02T07:31:50Z</time>
      </trkpt>
      <trkpt lat="42.93468" lon="0.31495">
        <ele>1428.6</ele>
        <time>2021-10-02T07:31:51Z</time>
      </trkpt>
      <trkpt lat="42.93468" lon="0.31498">
        <ele>1428.6</ele>
        <time>2021-10-02T07:31:52Z</time>
      </trkpt>
      <trkpt lat="42.93468" lon="0.315">
        <ele>1428.8</ele>
        <time>2021-10-02T07:31:53Z</time>
      </trkpt>
      <trkpt lat="42.93468" lon="0.31502">
        <ele>1428.8</ele>
        <time>2021-10-02T07:31:54Z</time>
      </trkpt>
      <trkpt lat="42.93468" lon="0.31505">
        <ele>1429</ele>
        <time>2021-10-02T07:31:55Z</time>
      </trkpt>
      <trkpt lat="42.93468" lon="0.31507">
        <ele>1429.2</ele>
        <time>2021-10-02T07:31:56Z</time>
      </trkpt>
      <trkpt lat="42.93467" lon="0.31509">
        <ele>1429.4</ele>
        <time>2021-10-02T07:31:57Z</time>
      </trkpt>
      <trkpt lat="42.93467" lon="0.31511">
        <ele>1429.4</ele>
        <time>2021-10-02T07:31:58Z</time>
      </trkpt>
      <trkpt lat="42.93467" lon="0.31513">
        <ele>1429.8</ele>
        <time>2021-10-02T07:31:59Z</time>
      </trkpt>
      <trkpt lat="42.93467" lon="0.31516">
        <ele>1429.8</ele>
        <time>2021-10-02T07:32:00Z</time>
      </trkpt>
      <trkpt lat="42.93467" lon="0.31518">
        <ele>1430</ele>
        <time>2021-10-02T07:32:01Z</time>
      </trkpt>
      <trkpt lat="42.93467" lon="0.3152">
        <ele>1430</ele>
        <time>2021-10-02T07:32:02Z</time>
      </trkpt>
      <trkpt lat="42.93467" lon="0.31522">
        <ele>1430.2</ele>
        <time>2021-10-02T07:32:03Z</time>
      </trkpt>
      <trkpt lat="42.93467" lon="0.31524">
        <ele>1430.4</ele>
        <time>2021-10-02T07:32:04Z</time>
      </trkpt>
      <trkpt lat="42.93466" lon="0.31526">
        <ele>1430.6</ele>
        <time>2021-10-02T07:32:05Z</time>
      </trkpt>
      <trkpt lat="42.93466" lon="0.31528">
        <ele>1430.8</ele>
        <time>2021-10-02T07:32:06Z</time>
      </trkpt>
      <trkpt lat="42.93465" lon="0.3153">
        <ele>1431</ele>
        <time>2021-10-02T07:32:07Z</time>
      </trkpt>
      <trkpt lat="42.93466" lon="0.31533">
        <ele>1431</ele>
        <time>2021-10-02T07:32:08Z</time>
      </trkpt>
      <trkpt lat="42.93466" lon="0.31535">
        <ele>1431.2</ele>
        <time>2021-10-02T07:32:09Z</time>
      </trkpt>
      <trkpt lat="42.93466" lon="0.31538">
        <ele>1431.4</ele>
        <time>2021-10-02T07:32:10Z</time>
      </trkpt>
      <trkpt lat="42.93467" lon="0.31541">
        <ele>1431.6</ele>
        <time>2021-10-02T07:32:11Z</time>
      </trkpt>
      <trkpt lat="42.93466" lon="0.31542">
        <ele>1431.8</ele>
        <time>2021-10-02T07:32:12Z</time>
      </trkpt>
      <trkpt lat="42.93466" lon="0.31544">
        <ele>1432</ele>
        <time>2021-10-02T07:32:13Z</time>
      </trkpt>
      <trkpt lat="42.93466" lon="0.31546">
        <ele>1432</ele>
        <time>2021-10-02T07:32:14Z</time>
      </trkpt>
      <trkpt lat="42.93466" lon="0.31549">
        <ele>1432.2</ele>
        <time>2021-10-02T07:32:15Z</time>
      </trkpt>
      <trkpt lat="42.93467" lon="0.31552">
        <ele>1432.2</ele>
        <time>2021-10-02T07:32:16Z</time>
      </trkpt>
      <trkpt lat="42.93468" lon="0.31554">
        <ele>1432.2</ele>
        <time>2021-10-02T07:32:17Z</time>
      </trkpt>
      <trkpt lat="42.93468" lon="0.31557">
        <ele>1432.4</ele>
        <time>2021-10-02T07:32:18Z</time>
      </trkpt>
      <trkpt lat="42.93468" lon="0.31558">
        <ele>1432.4</ele>
        <time>2021-10-02T07:32:19Z</time>
      </trkpt>
      <trkpt lat="42.93468" lon="0.3156">
        <ele>1432.6</ele>
        <time>2021-10-02T07:32:20Z</time>
      </trkpt>
      <trkpt lat="42.93467" lon="0.31562">
        <ele>1432.6</ele>
        <time>2021-10-02T07:32:21Z</time>
      </trkpt>
      <trkpt lat="42.93467" lon="0.31564">
        <ele>1432.6</ele>
        <time>2021-10-02T07:32:22Z</time>
      </trkpt>
      <trkpt lat="42.93467" lon="0.31566">
        <ele>1432.8</ele>
        <time>2021-10-02T07:32:23Z</time>
      </trkpt>
      <trkpt lat="42.93467" lon="0.31569">
        <ele>1433</ele>
        <time>2021-10-02T07:32:24Z</time>
      </trkpt>
      <trkpt lat="42.93468" lon="0.31571">
        <ele>1433.2</ele>
        <time>2021-10-02T07:32:25Z</time>
      </trkpt>
      <trkpt lat="42.93468" lon="0.31573">
        <ele>1433.2</ele>
        <time>2021-10-02T07:32:26Z</time>
      </trkpt>
      <trkpt lat="42.93468" lon="0.31575">
        <ele>1433.4</ele>
        <time>2021-10-02T07:32:27Z</time>
      </trkpt>
      <trkpt lat="42.93469" lon="0.31577">
        <ele>1433.6</ele>
        <time>2021-10-02T07:32:28Z</time>
      </trkpt>
      <trkpt lat="42.93469" lon="0.31579">
        <ele>1433.8</ele>
        <time>2021-10-02T07:32:29Z</time>
      </trkpt>
      <trkpt lat="42.93469" lon="0.31581">
        <ele>1434</ele>
        <time>2021-10-02T07:32:30Z</time>
      </trkpt>
      <trkpt lat="42.93469" lon="0.31584">
        <ele>1434.2</ele>
        <time>2021-10-02T07:32:31Z</time>
      </trkpt>
      <trkpt lat="42.9347" lon="0.31587">
        <ele>1434.2</ele>
        <time>2021-10-02T07:32:32Z</time>
      </trkpt>
      <trkpt lat="42.9347" lon="0.31589">
        <ele>1434.4</ele>
        <time>2021-10-02T07:32:33Z</time>
      </trkpt>
      <trkpt lat="42.93471" lon="0.31592">
        <ele>1434.4</ele>
        <time>2021-10-02T07:32:34Z</time>
      </trkpt>
      <trkpt lat="42.93471" lon="0.31594">
        <ele>1434.6</ele>
        <time>2021-10-02T07:32:35Z</time>
      </trkpt>
      <trkpt lat="42.9347" lon="0.31596">
        <ele>1434.6</ele>
        <time>2021-10-02T07:32:36Z</time>
      </trkpt>
      <trkpt lat="42.9347" lon="0.31599">
        <ele>1434.6</ele>
        <time>2021-10-02T07:32:37Z</time>
      </trkpt>
      <trkpt lat="42.9347" lon="0.31601">
        <ele>1434.8</ele>
        <time>2021-10-02T07:32:38Z</time>
      </trkpt>
      <trkpt lat="42.9347" lon="0.31602">
        <ele>1435</ele>
        <time>2021-10-02T07:32:39Z</time>
      </trkpt>
      <trkpt lat="42.93469" lon="0.31604">
        <ele>1435</ele>
        <time>2021-10-02T07:32:40Z</time>
      </trkpt>
      <trkpt lat="42.93469" lon="0.31605">
        <ele>1435.2</ele>
        <time>2021-10-02T07:32:41Z</time>
      </trkpt>
      <trkpt lat="42.93469" lon="0.31608">
        <ele>1435.2</ele>
        <time>2021-10-02T07:32:42Z</time>
      </trkpt>
      <trkpt lat="42.93469" lon="0.3161">
        <ele>1435.4</ele>
        <time>2021-10-02T07:32:43Z</time>
      </trkpt>
      <trkpt lat="42.93469" lon="0.31611">
        <ele>1435.4</ele>
        <time>2021-10-02T07:32:44Z</time>
      </trkpt>
      <trkpt lat="42.9347" lon="0.31613">
        <ele>1435.6</ele>
        <time>2021-10-02T07:32:45Z</time>
      </trkpt>
      <trkpt lat="42.93469" lon="0.31616">
        <ele>1435.8</ele>
        <time>2021-10-02T07:32:46Z</time>
      </trkpt>
      <trkpt lat="42.93468" lon="0.31617">
        <ele>1436</ele>
        <time>2021-10-02T07:32:47Z</time>
      </trkpt>
      <trkpt lat="42.93468" lon="0.3162">
        <ele>1436.2</ele>
        <time>2021-10-02T07:32:48Z</time>
      </trkpt>
      <trkpt lat="42.93468" lon="0.31622">
        <ele>1436.4</ele>
        <time>2021-10-02T07:32:49Z</time>
      </trkpt>
      <trkpt lat="42.93468" lon="0.31624">
        <ele>1436.6</ele>
        <time>2021-10-02T07:32:50Z</time>
      </trkpt>
      <trkpt lat="42.93468" lon="0.31625">
        <ele>1436.8</ele>
        <time>2021-10-02T07:32:51Z</time>
      </trkpt>
      <trkpt lat="42.93468" lon="0.31628">
        <ele>1436.8</ele>
        <time>2021-10-02T07:32:52Z</time>
      </trkpt>
      <trkpt lat="42.93468" lon="0.31631">
        <ele>1436.8</ele>
        <time>2021-10-02T07:32:53Z</time>
      </trkpt>
      <trkpt lat="42.93467" lon="0.31633">
        <ele>1437</ele>
        <time>2021-10-02T07:32:54Z</time>
      </trkpt>
      <trkpt lat="42.93467" lon="0.31635">
        <ele>1437.2</ele>
        <time>2021-10-02T07:32:55Z</time>
      </trkpt>
      <trkpt lat="42.93466" lon="0.31637">
        <ele>1437.4</ele>
        <time>2021-10-02T07:32:56Z</time>
      </trkpt>
      <trkpt lat="42.93466" lon="0.31638">
        <ele>1437.4</ele>
        <time>2021-10-02T07:32:57Z</time>
      </trkpt>
      <trkpt lat="42.93466" lon="0.31641">
        <ele>1437.8</ele>
        <time>2021-10-02T07:32:58Z</time>
      </trkpt>
      <trkpt lat="42.93465" lon="0.31642">
        <ele>1438.2</ele>
        <time>2021-10-02T07:32:59Z</time>
      </trkpt>
      <trkpt lat="42.93465" lon="0.31644">
        <ele>1438.2</ele>
        <time>2021-10-02T07:33:00Z</time>
      </trkpt>
      <trkpt lat="42.93465" lon="0.31647">
        <ele>1438.6</ele>
        <time>2021-10-02T07:33:01Z</time>
      </trkpt>
      <trkpt lat="42.93465" lon="0.31648">
        <ele>1438.6</ele>
        <time>2021-10-02T07:33:02Z</time>
      </trkpt>
      <trkpt lat="42.93465" lon="0.31649">
        <ele>1438.8</ele>
        <time>2021-10-02T07:33:03Z</time>
      </trkpt>
      <trkpt lat="42.93464" lon="0.3165">
        <ele>1439</ele>
        <time>2021-10-02T07:33:04Z</time>
      </trkpt>
      <trkpt lat="42.93463" lon="0.31652">
        <ele>1439.2</ele>
        <time>2021-10-02T07:33:05Z</time>
      </trkpt>
      <trkpt lat="42.93461" lon="0.31653">
        <ele>1439.4</ele>
        <time>2021-10-02T07:33:06Z</time>
      </trkpt>
      <trkpt lat="42.9346" lon="0.31656">
        <ele>1439.6</ele>
        <time>2021-10-02T07:33:07Z</time>
      </trkpt>
      <trkpt lat="42.93461" lon="0.3166">
        <ele>1439.6</ele>
        <time>2021-10-02T07:33:08Z</time>
      </trkpt>
      <trkpt lat="42.9346" lon="0.31662">
        <ele>1439.8</ele>
        <time>2021-10-02T07:33:09Z</time>
      </trkpt>
      <trkpt lat="42.93459" lon="0.31665">
        <ele>1440</ele>
        <time>2021-10-02T07:33:10Z</time>
      </trkpt>
      <trkpt lat="42.93458" lon="0.31667">
        <ele>1440.2</ele>
        <time>2021-10-02T07:33:11Z</time>
      </trkpt>
      <trkpt lat="42.93457" lon="0.31669">
        <ele>1440.4</ele>
        <time>2021-10-02T07:33:12Z</time>
      </trkpt>
      <trkpt lat="42.93456" lon="0.3167">
        <ele>1440.4</ele>
        <time>2021-10-02T07:33:13Z</time>
      </trkpt>
      <trkpt lat="42.93455" lon="0.31672">
        <ele>1440.6</ele>
        <time>2021-10-02T07:33:14Z</time>
      </trkpt>
      <trkpt lat="42.93454" lon="0.31674">
        <ele>1440.6</ele>
        <time>2021-10-02T07:33:15Z</time>
      </trkpt>
      <trkpt lat="42.93453" lon="0.31676">
        <ele>1440.8</ele>
        <time>2021-10-02T07:33:16Z</time>
      </trkpt>
      <trkpt lat="42.93452" lon="0.31678">
        <ele>1440.8</ele>
        <time>2021-10-02T07:33:17Z</time>
      </trkpt>
      <trkpt lat="42.93451" lon="0.31679">
        <ele>1440.8</ele>
        <time>2021-10-02T07:33:18Z</time>
      </trkpt>
      <trkpt lat="42.9345" lon="0.31681">
        <ele>1440.8</ele>
        <time>2021-10-02T07:33:19Z</time>
      </trkpt>
      <trkpt lat="42.9345" lon="0.31683">
        <ele>1441.2</ele>
        <time>2021-10-02T07:33:20Z</time>
      </trkpt>
      <trkpt lat="42.93449" lon="0.31685">
        <ele>1441.4</ele>
        <time>2021-10-02T07:33:21Z</time>
      </trkpt>
      <trkpt lat="42.93449" lon="0.31687">
        <ele>1441.6</ele>
        <time>2021-10-02T07:33:22Z</time>
      </trkpt>
      <trkpt lat="42.93449" lon="0.3169">
        <ele>1441.6</ele>
        <time>2021-10-02T07:33:23Z</time>
      </trkpt>
      <trkpt lat="42.93449" lon="0.31693">
        <ele>1441.8</ele>
        <time>2021-10-02T07:33:24Z</time>
      </trkpt>
      <trkpt lat="42.93448" lon="0.31695">
        <ele>1441.8</ele>
        <time>2021-10-02T07:33:25Z</time>
      </trkpt>
      <trkpt lat="42.93448" lon="0.31697">
        <ele>1442</ele>
        <time>2021-10-02T07:33:26Z</time>
      </trkpt>
      <trkpt lat="42.93447" lon="0.31699">
        <ele>1442.2</ele>
        <time>2021-10-02T07:33:27Z</time>
      </trkpt>
      <trkpt lat="42.93446" lon="0.31701">
        <ele>1442.6</ele>
        <time>2021-10-02T07:33:28Z</time>
      </trkpt>
      <trkpt lat="42.93445" lon="0.31703">
        <ele>1442.8</ele>
        <time>2021-10-02T07:33:29Z</time>
      </trkpt>
      <trkpt lat="42.93445" lon="0.31704">
        <ele>1443.2</ele>
        <time>2021-10-02T07:33:30Z</time>
      </trkpt>
      <trkpt lat="42.93444" lon="0.31706">
        <ele>1443.2</ele>
        <time>2021-10-02T07:33:31Z</time>
      </trkpt>
      <trkpt lat="42.93445" lon="0.31709">
        <ele>1443.4</ele>
        <time>2021-10-02T07:33:32Z</time>
      </trkpt>
      <trkpt lat="42.93446" lon="0.31711">
        <ele>1443.6</ele>
        <time>2021-10-02T07:33:33Z</time>
      </trkpt>
      <trkpt lat="42.93447" lon="0.31713">
        <ele>1443.8</ele>
        <time>2021-10-02T07:33:34Z</time>
      </trkpt>
      <trkpt lat="42.93446" lon="0.31715">
        <ele>1444</ele>
        <time>2021-10-02T07:33:35Z</time>
      </trkpt>
      <trkpt lat="42.93447" lon="0.31716">
        <ele>1444.2</ele>
        <time>2021-10-02T07:33:36Z</time>
      </trkpt>
      <trkpt lat="42.93447" lon="0.31718">
        <ele>1444.4</ele>
        <time>2021-10-02T07:33:37Z</time>
      </trkpt>
      <trkpt lat="42.93447" lon="0.3172">
        <ele>1444.4</ele>
        <time>2021-10-02T07:33:38Z</time>
      </trkpt>
      <trkpt lat="42.93447" lon="0.31722">
        <ele>1444.6</ele>
        <time>2021-10-02T07:33:39Z</time>
      </trkpt>
      <trkpt lat="42.93448" lon="0.31724">
        <ele>1444.8</ele>
        <time>2021-10-02T07:33:40Z</time>
      </trkpt>
      <trkpt lat="42.93448" lon="0.31726">
        <ele>1444.6</ele>
        <time>2021-10-02T07:33:41Z</time>
      </trkpt>
      <trkpt lat="42.93448" lon="0.31728">
        <ele>1444.8</ele>
        <time>2021-10-02T07:33:42Z</time>
      </trkpt>
      <trkpt lat="42.93449" lon="0.3173">
        <ele>1445.2</ele>
        <time>2021-10-02T07:33:43Z</time>
      </trkpt>
      <trkpt lat="42.9345" lon="0.31733">
        <ele>1445.2</ele>
        <time>2021-10-02T07:33:44Z</time>
      </trkpt>
      <trkpt lat="42.9345" lon="0.31735">
        <ele>1445.4</ele>
        <time>2021-10-02T07:33:45Z</time>
      </trkpt>
      <trkpt lat="42.93451" lon="0.31736">
        <ele>1445.4</ele>
        <time>2021-10-02T07:33:46Z</time>
      </trkpt>
      <trkpt lat="42.93451" lon="0.31738">
        <ele>1445.6</ele>
        <time>2021-10-02T07:33:47Z</time>
      </trkpt>
      <trkpt lat="42.93452" lon="0.3174">
        <ele>1445.8</ele>
        <time>2021-10-02T07:33:48Z</time>
      </trkpt>
      <trkpt lat="42.93453" lon="0.31742">
        <ele>1446</ele>
        <time>2021-10-02T07:33:49Z</time>
      </trkpt>
      <trkpt lat="42.93454" lon="0.31742">
        <ele>1446.2</ele>
        <time>2021-10-02T07:33:50Z</time>
      </trkpt>
      <trkpt lat="42.93453" lon="0.31744">
        <ele>1446.4</ele>
        <time>2021-10-02T07:33:51Z</time>
      </trkpt>
      <trkpt lat="42.93454" lon="0.31746">
        <ele>1446.6</ele>
        <time>2021-10-02T07:33:52Z</time>
      </trkpt>
      <trkpt lat="42.93454" lon="0.31749">
        <ele>1446.6</ele>
        <time>2021-10-02T07:33:53Z</time>
      </trkpt>
      <trkpt lat="42.93454" lon="0.31751">
        <ele>1446.6</ele>
        <time>2021-10-02T07:33:54Z</time>
      </trkpt>
      <trkpt lat="42.93453" lon="0.31752">
        <ele>1446.8</ele>
        <time>2021-10-02T07:33:55Z</time>
      </trkpt>
      <trkpt lat="42.93453" lon="0.31753">
        <ele>1447</ele>
        <time>2021-10-02T07:33:56Z</time>
      </trkpt>
      <trkpt lat="42.93452" lon="0.31755">
        <ele>1447.2</ele>
        <time>2021-10-02T07:33:57Z</time>
      </trkpt>
      <trkpt lat="42.93454" lon="0.31758">
        <ele>1447.4</ele>
        <time>2021-10-02T07:33:58Z</time>
      </trkpt>
      <trkpt lat="42.93454" lon="0.3176">
        <ele>1447.4</ele>
        <time>2021-10-02T07:33:59Z</time>
      </trkpt>
      <trkpt lat="42.93455" lon="0.31763">
        <ele>1447.6</ele>
        <time>2021-10-02T07:34:00Z</time>
      </trkpt>
      <trkpt lat="42.93455" lon="0.31765">
        <ele>1447.6</ele>
        <time>2021-10-02T07:34:01Z</time>
      </trkpt>
      <trkpt lat="42.93456" lon="0.31767">
        <ele>1447.8</ele>
        <time>2021-10-02T07:34:02Z</time>
      </trkpt>
      <trkpt lat="42.93456" lon="0.31769">
        <ele>1447.8</ele>
        <time>2021-10-02T07:34:03Z</time>
      </trkpt>
      <trkpt lat="42.93457" lon="0.31771">
        <ele>1448</ele>
        <time>2021-10-02T07:34:04Z</time>
      </trkpt>
      <trkpt lat="42.93458" lon="0.31773">
        <ele>1448.2</ele>
        <time>2021-10-02T07:34:05Z</time>
      </trkpt>
      <trkpt lat="42.93458" lon="0.31776">
        <ele>1448.4</ele>
        <time>2021-10-02T07:34:06Z</time>
      </trkpt>
      <trkpt lat="42.93459" lon="0.31778">
        <ele>1448.4</ele>
        <time>2021-10-02T07:34:07Z</time>
      </trkpt>
      <trkpt lat="42.9346" lon="0.3178">
        <ele>1448.6</ele>
        <time>2021-10-02T07:34:08Z</time>
      </trkpt>
      <trkpt lat="42.93461" lon="0.31782">
        <ele>1448.8</ele>
        <time>2021-10-02T07:34:09Z</time>
      </trkpt>
      <trkpt lat="42.93462" lon="0.31785">
        <ele>1448.8</ele>
        <time>2021-10-02T07:34:10Z</time>
      </trkpt>
      <trkpt lat="42.93463" lon="0.31787">
        <ele>1449</ele>
        <time>2021-10-02T07:34:11Z</time>
      </trkpt>
      <trkpt lat="42.93465" lon="0.31789">
        <ele>1449.2</ele>
        <time>2021-10-02T07:34:12Z</time>
      </trkpt>
      <trkpt lat="42.93466" lon="0.31791">
        <ele>1449.4</ele>
        <time>2021-10-02T07:34:13Z</time>
      </trkpt>
      <trkpt lat="42.93467" lon="0.31793">
        <ele>1449.4</ele>
        <time>2021-10-02T07:34:14Z</time>
      </trkpt>
      <trkpt lat="42.93468" lon="0.31795">
        <ele>1449.6</ele>
        <time>2021-10-02T07:34:15Z</time>
      </trkpt>
      <trkpt lat="42.93469" lon="0.31798">
        <ele>1449.6</ele>
        <time>2021-10-02T07:34:16Z</time>
      </trkpt>
      <trkpt lat="42.93471" lon="0.318">
        <ele>1449.8</ele>
        <time>2021-10-02T07:34:17Z</time>
      </trkpt>
      <trkpt lat="42.93472" lon="0.31802">
        <ele>1449.8</ele>
        <time>2021-10-02T07:34:18Z</time>
      </trkpt>
      <trkpt lat="42.93473" lon="0.31804">
        <ele>1449.8</ele>
        <time>2021-10-02T07:34:19Z</time>
      </trkpt>
      <trkpt lat="42.93474" lon="0.31807">
        <ele>1449.8</ele>
        <time>2021-10-02T07:34:20Z</time>
      </trkpt>
      <trkpt lat="42.93475" lon="0.31809">
        <ele>1449.8</ele>
        <time>2021-10-02T07:34:21Z</time>
      </trkpt>
      <trkpt lat="42.93477" lon="0.3181">
        <ele>1450</ele>
        <time>2021-10-02T07:34:22Z</time>
      </trkpt>
      <trkpt lat="42.93478" lon="0.31812">
        <ele>1450</ele>
        <time>2021-10-02T07:34:23Z</time>
      </trkpt>
      <trkpt lat="42.93479" lon="0.31813">
        <ele>1450.2</ele>
        <time>2021-10-02T07:34:24Z</time>
      </trkpt>
      <trkpt lat="42.9348" lon="0.31815">
        <ele>1450.4</ele>
        <time>2021-10-02T07:34:25Z</time>
      </trkpt>
      <trkpt lat="42.9348" lon="0.31817">
        <ele>1450.6</ele>
        <time>2021-10-02T07:34:26Z</time>
      </trkpt>
      <trkpt lat="42.93481" lon="0.31819">
        <ele>1450.8</ele>
        <time>2021-10-02T07:34:27Z</time>
      </trkpt>
      <trkpt lat="42.93482" lon="0.3182">
        <ele>1451</ele>
        <time>2021-10-02T07:34:28Z</time>
      </trkpt>
      <trkpt lat="42.93483" lon="0.31822">
        <ele>1451.2</ele>
        <time>2021-10-02T07:34:29Z</time>
      </trkpt>
      <trkpt lat="42.93484" lon="0.31823">
        <ele>1451.4</ele>
        <time>2021-10-02T07:34:30Z</time>
      </trkpt>
      <trkpt lat="42.93484" lon="0.31824">
        <ele>1451.4</ele>
        <time>2021-10-02T07:34:31Z</time>
      </trkpt>
      <trkpt lat="42.93485" lon="0.31825">
        <ele>1451.6</ele>
        <time>2021-10-02T07:34:32Z</time>
      </trkpt>
      <trkpt lat="42.93487" lon="0.31826">
        <ele>1451.8</ele>
        <time>2021-10-02T07:34:33Z</time>
      </trkpt>
      <trkpt lat="42.93488" lon="0.31828">
        <ele>1452</ele>
        <time>2021-10-02T07:34:34Z</time>
      </trkpt>
      <trkpt lat="42.93489" lon="0.3183">
        <ele>1452.2</ele>
        <time>2021-10-02T07:34:35Z</time>
      </trkpt>
      <trkpt lat="42.9349" lon="0.31832">
        <ele>1452.2</ele>
        <time>2021-10-02T07:34:36Z</time>
      </trkpt>
      <trkpt lat="42.93491" lon="0.31833">
        <ele>1452.4</ele>
        <time>2021-10-02T07:34:37Z</time>
      </trkpt>
      <trkpt lat="42.93492" lon="0.31835">
        <ele>1452.4</ele>
        <time>2021-10-02T07:34:38Z</time>
      </trkpt>
      <trkpt lat="42.93493" lon="0.31836">
        <ele>1452.6</ele>
        <time>2021-10-02T07:34:39Z</time>
      </trkpt>
      <trkpt lat="42.93495" lon="0.31838">
        <ele>1452.6</ele>
        <time>2021-10-02T07:34:40Z</time>
      </trkpt>
      <trkpt lat="42.93497" lon="0.31839">
        <ele>1452.8</ele>
        <time>2021-10-02T07:34:41Z</time>
      </trkpt>
      <trkpt lat="42.93498" lon="0.31841">
        <ele>1453.2</ele>
        <time>2021-10-02T07:34:42Z</time>
      </trkpt>
      <trkpt lat="42.93499" lon="0.31842">
        <ele>1453.2</ele>
        <time>2021-10-02T07:34:43Z</time>
      </trkpt>
      <trkpt lat="42.935" lon="0.31844">
        <ele>1453.6</ele>
        <time>2021-10-02T07:34:44Z</time>
      </trkpt>
      <trkpt lat="42.93501" lon="0.31846">
        <ele>1453.6</ele>
        <time>2021-10-02T07:34:45Z</time>
      </trkpt>
      <trkpt lat="42.93502" lon="0.31847">
        <ele>1453.8</ele>
        <time>2021-10-02T07:34:46Z</time>
      </trkpt>
      <trkpt lat="42.93503" lon="0.31849">
        <ele>1454</ele>
        <time>2021-10-02T07:34:47Z</time>
      </trkpt>
      <trkpt lat="42.93505" lon="0.3185">
        <ele>1454</ele>
        <time>2021-10-02T07:34:48Z</time>
      </trkpt>
      <trkpt lat="42.93506" lon="0.31852">
        <ele>1454</ele>
        <time>2021-10-02T07:34:49Z</time>
      </trkpt>
      <trkpt lat="42.93507" lon="0.31852">
        <ele>1454.2</ele>
        <time>2021-10-02T07:34:50Z</time>
      </trkpt>
      <trkpt lat="42.93508" lon="0.31853">
        <ele>1454.2</ele>
        <time>2021-10-02T07:34:51Z</time>
      </trkpt>
      <trkpt lat="42.93509" lon="0.31854">
        <ele>1454.4</ele>
        <time>2021-10-02T07:34:52Z</time>
      </trkpt>
      <trkpt lat="42.93511" lon="0.31856">
        <ele>1454.6</ele>
        <time>2021-10-02T07:34:53Z</time>
      </trkpt>
      <trkpt lat="42.93512" lon="0.31857">
        <ele>1454.6</ele>
        <time>2021-10-02T07:34:54Z</time>
      </trkpt>
      <trkpt lat="42.93513" lon="0.31858">
        <ele>1454.8</ele>
        <time>2021-10-02T07:34:55Z</time>
      </trkpt>
      <trkpt lat="42.93514" lon="0.31859">
        <ele>1454.8</ele>
        <time>2021-10-02T07:34:56Z</time>
      </trkpt>
      <trkpt lat="42.93515" lon="0.31861">
        <ele>1455</ele>
        <time>2021-10-02T07:34:57Z</time>
      </trkpt>
      <trkpt lat="42.93516" lon="0.31862">
        <ele>1455.2</ele>
        <time>2021-10-02T07:34:58Z</time>
      </trkpt>
      <trkpt lat="42.93517" lon="0.31863">
        <ele>1455.4</ele>
        <time>2021-10-02T07:34:59Z</time>
      </trkpt>
      <trkpt lat="42.93518" lon="0.31865">
        <ele>1455.4</ele>
        <time>2021-10-02T07:35:00Z</time>
      </trkpt>
      <trkpt lat="42.9352" lon="0.31866">
        <ele>1455.6</ele>
        <time>2021-10-02T07:35:01Z</time>
      </trkpt>
      <trkpt lat="42.93521" lon="0.31868">
        <ele>1455.8</ele>
        <time>2021-10-02T07:35:02Z</time>
      </trkpt>
      <trkpt lat="42.93522" lon="0.3187">
        <ele>1456</ele>
        <time>2021-10-02T07:35:03Z</time>
      </trkpt>
      <trkpt lat="42.93523" lon="0.31873">
        <ele>1456</ele>
        <time>2021-10-02T07:35:04Z</time>
      </trkpt>
      <trkpt lat="42.93524" lon="0.31875">
        <ele>1456.2</ele>
        <time>2021-10-02T07:35:05Z</time>
      </trkpt>
      <trkpt lat="42.93525" lon="0.31877">
        <ele>1456.4</ele>
        <time>2021-10-02T07:35:06Z</time>
      </trkpt>
      <trkpt lat="42.93525" lon="0.31879">
        <ele>1456.4</ele>
        <time>2021-10-02T07:35:07Z</time>
      </trkpt>
      <trkpt lat="42.93526" lon="0.31881">
        <ele>1456.4</ele>
        <time>2021-10-02T07:35:08Z</time>
      </trkpt>
      <trkpt lat="42.93526" lon="0.31883">
        <ele>1456.6</ele>
        <time>2021-10-02T07:35:09Z</time>
      </trkpt>
      <trkpt lat="42.93528" lon="0.31885">
        <ele>1456.6</ele>
        <time>2021-10-02T07:35:10Z</time>
      </trkpt>
      <trkpt lat="42.93529" lon="0.31888">
        <ele>1456.8</ele>
        <time>2021-10-02T07:35:11Z</time>
      </trkpt>
      <trkpt lat="42.93531" lon="0.3189">
        <ele>1457</ele>
        <time>2021-10-02T07:35:12Z</time>
      </trkpt>
      <trkpt lat="42.93531" lon="0.31892">
        <ele>1457.2</ele>
        <time>2021-10-02T07:35:13Z</time>
      </trkpt>
      <trkpt lat="42.93532" lon="0.31894">
        <ele>1457.2</ele>
        <time>2021-10-02T07:35:14Z</time>
      </trkpt>
      <trkpt lat="42.93533" lon="0.31895">
        <ele>1457.4</ele>
        <time>2021-10-02T07:35:15Z</time>
      </trkpt>
      <trkpt lat="42.93534" lon="0.31897">
        <ele>1457.6</ele>
        <time>2021-10-02T07:35:16Z</time>
      </trkpt>
      <trkpt lat="42.93535" lon="0.31899">
        <ele>1457.6</ele>
        <time>2021-10-02T07:35:17Z</time>
      </trkpt>
      <trkpt lat="42.93536" lon="0.31901">
        <ele>1457.8</ele>
        <time>2021-10-02T07:35:18Z</time>
      </trkpt>
      <trkpt lat="42.93537" lon="0.31903">
        <ele>1457.8</ele>
        <time>2021-10-02T07:35:19Z</time>
      </trkpt>
      <trkpt lat="42.93538" lon="0.31905">
        <ele>1458.2</ele>
        <time>2021-10-02T07:35:20Z</time>
      </trkpt>
      <trkpt lat="42.9354" lon="0.31907">
        <ele>1458.4</ele>
        <time>2021-10-02T07:35:21Z</time>
      </trkpt>
      <trkpt lat="42.93541" lon="0.31909">
        <ele>1458.4</ele>
        <time>2021-10-02T07:35:22Z</time>
      </trkpt>
      <trkpt lat="42.93542" lon="0.31912">
        <ele>1458.6</ele>
        <time>2021-10-02T07:35:23Z</time>
      </trkpt>
      <trkpt lat="42.93544" lon="0.31913">
        <ele>1458.6</ele>
        <time>2021-10-02T07:35:24Z</time>
      </trkpt>
      <trkpt lat="42.93545" lon="0.31915">
        <ele>1458.8</ele>
        <time>2021-10-02T07:35:25Z</time>
      </trkpt>
      <trkpt lat="42.93547" lon="0.31917">
        <ele>1458.8</ele>
        <time>2021-10-02T07:35:26Z</time>
      </trkpt>
      <trkpt lat="42.93548" lon="0.3192">
        <ele>1459</ele>
        <time>2021-10-02T07:35:27Z</time>
      </trkpt>
      <trkpt lat="42.93549" lon="0.31921">
        <ele>1459</ele>
        <time>2021-10-02T07:35:28Z</time>
      </trkpt>
      <trkpt lat="42.93549" lon="0.31923">
        <ele>1459</ele>
        <time>2021-10-02T07:35:29Z</time>
      </trkpt>
      <trkpt lat="42.93549" lon="0.31925">
        <ele>1459.2</ele>
        <time>2021-10-02T07:35:30Z</time>
      </trkpt>
      <trkpt lat="42.93549" lon="0.31927">
        <ele>1459.2</ele>
        <time>2021-10-02T07:35:31Z</time>
      </trkpt>
      <trkpt lat="42.93549" lon="0.31928">
        <ele>1459.2</ele>
        <time>2021-10-02T07:35:32Z</time>
      </trkpt>
      <trkpt lat="42.9355" lon="0.3193">
        <ele>1459.4</ele>
        <time>2021-10-02T07:35:33Z</time>
      </trkpt>
      <trkpt lat="42.93551" lon="0.31931">
        <ele>1459.4</ele>
        <time>2021-10-02T07:35:34Z</time>
      </trkpt>
      <trkpt lat="42.93552" lon="0.31933">
        <ele>1459.4</ele>
        <time>2021-10-02T07:35:35Z</time>
      </trkpt>
      <trkpt lat="42.93553" lon="0.31934">
        <ele>1459.4</ele>
        <time>2021-10-02T07:35:36Z</time>
      </trkpt>
      <trkpt lat="42.93553" lon="0.31936">
        <ele>1459.4</ele>
        <time>2021-10-02T07:35:37Z</time>
      </trkpt>
      <trkpt lat="42.93554" lon="0.31939">
        <ele>1459.4</ele>
        <time>2021-10-02T07:35:38Z</time>
      </trkpt>
      <trkpt lat="42.93556" lon="0.31944">
        <ele>1459.6</ele>
        <time>2021-10-02T07:35:40Z</time>
      </trkpt>
      <trkpt lat="42.93557" lon="0.31946">
        <ele>1459.6</ele>
        <time>2021-10-02T07:35:41Z</time>
      </trkpt>
      <trkpt lat="42.93559" lon="0.31948">
        <ele>1459.6</ele>
        <time>2021-10-02T07:35:42Z</time>
      </trkpt>
      <trkpt lat="42.9356" lon="0.31951">
        <ele>1459.6</ele>
        <time>2021-10-02T07:35:43Z</time>
      </trkpt>
      <trkpt lat="42.93562" lon="0.31955">
        <ele>1459.6</ele>
        <time>2021-10-02T07:35:45Z</time>
      </trkpt>
      <trkpt lat="42.93565" lon="0.3196">
        <ele>1459.8</ele>
        <time>2021-10-02T07:35:47Z</time>
      </trkpt>
      <trkpt lat="42.93567" lon="0.31961">
        <ele>1459.8</ele>
        <time>2021-10-02T07:35:48Z</time>
      </trkpt>
      <trkpt lat="42.93568" lon="0.31963">
        <ele>1459.8</ele>
        <time>2021-10-02T07:35:49Z</time>
      </trkpt>
      <trkpt lat="42.93569" lon="0.31966">
        <ele>1460</ele>
        <time>2021-10-02T07:35:50Z</time>
      </trkpt>
      <trkpt lat="42.93571" lon="0.31967">
        <ele>1460</ele>
        <time>2021-10-02T07:35:51Z</time>
      </trkpt>
      <trkpt lat="42.93572" lon="0.31969">
        <ele>1460</ele>
        <time>2021-10-02T07:35:52Z</time>
      </trkpt>
      <trkpt lat="42.93574" lon="0.31969">
        <ele>1460</ele>
        <time>2021-10-02T07:35:53Z</time>
      </trkpt>
      <trkpt lat="42.93576" lon="0.3197">
        <ele>1460</ele>
        <time>2021-10-02T07:35:54Z</time>
      </trkpt>
      <trkpt lat="42.93577" lon="0.31971">
        <ele>1460.2</ele>
        <time>2021-10-02T07:35:55Z</time>
      </trkpt>
      <trkpt lat="42.93579" lon="0.31972">
        <ele>1460.2</ele>
        <time>2021-10-02T07:35:56Z</time>
      </trkpt>
      <trkpt lat="42.93581" lon="0.31973">
        <ele>1460.2</ele>
        <time>2021-10-02T07:35:57Z</time>
      </trkpt>
      <trkpt lat="42.9359" lon="0.31979">
        <ele>1460.4</ele>
        <time>2021-10-02T07:36:02Z</time>
      </trkpt>
      <trkpt lat="42.93592" lon="0.31982">
        <ele>1460.6</ele>
        <time>2021-10-02T07:36:03Z</time>
      </trkpt>
      <trkpt lat="42.93594" lon="0.31984">
        <ele>1460.6</ele>
        <time>2021-10-02T07:36:04Z</time>
      </trkpt>
      <trkpt lat="42.93596" lon="0.31986">
        <ele>1460.6</ele>
        <time>2021-10-02T07:36:05Z</time>
      </trkpt>
      <trkpt lat="42.93597" lon="0.31987">
        <ele>1460.6</ele>
        <time>2021-10-02T07:36:06Z</time>
      </trkpt>
      <trkpt lat="42.93599" lon="0.31989">
        <ele>1460.6</ele>
        <time>2021-10-02T07:36:07Z</time>
      </trkpt>
      <trkpt lat="42.93613" lon="0.32">
        <ele>1461</ele>
        <time>2021-10-02T07:36:14Z</time>
      </trkpt>
      <trkpt lat="42.93625" lon="0.32012">
        <ele>1461.4</ele>
        <time>2021-10-02T07:36:20Z</time>
      </trkpt>
      <trkpt lat="42.93628" lon="0.32015">
        <ele>1461.6</ele>
        <time>2021-10-02T07:36:22Z</time>
      </trkpt>
      <trkpt lat="42.9363" lon="0.32017">
        <ele>1461.8</ele>
        <time>2021-10-02T07:36:23Z</time>
      </trkpt>
      <trkpt lat="42.93631" lon="0.32018">
        <ele>1461.8</ele>
        <time>2021-10-02T07:36:24Z</time>
      </trkpt>
      <trkpt lat="42.93633" lon="0.3202">
        <ele>1461.8</ele>
        <time>2021-10-02T07:36:25Z</time>
      </trkpt>
      <trkpt lat="42.93635" lon="0.3202">
        <ele>1462</ele>
        <time>2021-10-02T07:36:26Z</time>
      </trkpt>
      <trkpt lat="42.93638" lon="0.32021">
        <ele>1462</ele>
        <time>2021-10-02T07:36:27Z</time>
      </trkpt>
      <trkpt lat="42.9364" lon="0.32022">
        <ele>1462.2</ele>
        <time>2021-10-02T07:36:28Z</time>
      </trkpt>
      <trkpt lat="42.93642" lon="0.32023">
        <ele>1462.4</ele>
        <time>2021-10-02T07:36:29Z</time>
      </trkpt>
      <trkpt lat="42.93646" lon="0.32023">
        <ele>1462.6</ele>
        <time>2021-10-02T07:36:31Z</time>
      </trkpt>
      <trkpt lat="42.93649" lon="0.32022">
        <ele>1462.8</ele>
        <time>2021-10-02T07:36:32Z</time>
      </trkpt>
      <trkpt lat="42.93651" lon="0.32021">
        <ele>1462.8</ele>
        <time>2021-10-02T07:36:33Z</time>
      </trkpt>
      <trkpt lat="42.93662" lon="0.32015">
        <ele>1463.4</ele>
        <time>2021-10-02T07:36:39Z</time>
      </trkpt>
      <trkpt lat="42.93669" lon="0.32014">
        <ele>1463.8</ele>
        <time>2021-10-02T07:36:42Z</time>
      </trkpt>
      <trkpt lat="42.93671" lon="0.32014">
        <ele>1464</ele>
        <time>2021-10-02T07:36:43Z</time>
      </trkpt>
      <trkpt lat="42.93673" lon="0.32015">
        <ele>1464</ele>
        <time>2021-10-02T07:36:44Z</time>
      </trkpt>
      <trkpt lat="42.93674" lon="0.32015">
        <ele>1464</ele>
        <time>2021-10-02T07:36:45Z</time>
      </trkpt>
      <trkpt lat="42.93675" lon="0.32015">
        <ele>1464.2</ele>
        <time>2021-10-02T07:36:46Z</time>
      </trkpt>
      <trkpt lat="42.93677" lon="0.32015">
        <ele>1464.2</ele>
        <time>2021-10-02T07:36:47Z</time>
      </trkpt>
      <trkpt lat="42.93678" lon="0.32014">
        <ele>1464.4</ele>
        <time>2021-10-02T07:36:48Z</time>
      </trkpt>
      <trkpt lat="42.9368" lon="0.32013">
        <ele>1464.4</ele>
        <time>2021-10-02T07:36:49Z</time>
      </trkpt>
      <trkpt lat="42.93682" lon="0.32012">
        <ele>1464.6</ele>
        <time>2021-10-02T07:36:50Z</time>
      </trkpt>
      <trkpt lat="42.93684" lon="0.32011">
        <ele>1464.6</ele>
        <time>2021-10-02T07:36:51Z</time>
      </trkpt>
      <trkpt lat="42.93687" lon="0.32011">
        <ele>1464.8</ele>
        <time>2021-10-02T07:36:52Z</time>
      </trkpt>
      <trkpt lat="42.9369" lon="0.32011">
        <ele>1464.8</ele>
        <time>2021-10-02T07:36:53Z</time>
      </trkpt>
      <trkpt lat="42.93692" lon="0.32009">
        <ele>1465</ele>
        <time>2021-10-02T07:36:54Z</time>
      </trkpt>
      <trkpt lat="42.93694" lon="0.32006">
        <ele>1465</ele>
        <time>2021-10-02T07:36:55Z</time>
      </trkpt>
      <trkpt lat="42.93696" lon="0.32005">
        <ele>1465.2</ele>
        <time>2021-10-02T07:36:56Z</time>
      </trkpt>
      <trkpt lat="42.93697" lon="0.32005">
        <ele>1465.2</ele>
        <time>2021-10-02T07:36:57Z</time>
      </trkpt>
      <trkpt lat="42.93699" lon="0.32004">
        <ele>1465.4</ele>
        <time>2021-10-02T07:36:58Z</time>
      </trkpt>
      <trkpt lat="42.93701" lon="0.32003">
        <ele>1465.6</ele>
        <time>2021-10-02T07:36:59Z</time>
      </trkpt>
      <trkpt lat="42.93703" lon="0.32001">
        <ele>1465.8</ele>
        <time>2021-10-02T07:37:00Z</time>
      </trkpt>
      <trkpt lat="42.93706" lon="0.31998">
        <ele>1465.8</ele>
        <time>2021-10-02T07:37:01Z</time>
      </trkpt>
      <trkpt lat="42.93709" lon="0.31996">
        <ele>1466</ele>
        <time>2021-10-02T07:37:02Z</time>
      </trkpt>
      <trkpt lat="42.93712" lon="0.31996">
        <ele>1466</ele>
        <time>2021-10-02T07:37:03Z</time>
      </trkpt>
      <trkpt lat="42.93715" lon="0.31995">
        <ele>1465.8</ele>
        <time>2021-10-02T07:37:04Z</time>
      </trkpt>
      <trkpt lat="42.93717" lon="0.31995">
        <ele>1465.8</ele>
        <time>2021-10-02T07:37:05Z</time>
      </trkpt>
      <trkpt lat="42.93719" lon="0.31995">
        <ele>1466</ele>
        <time>2021-10-02T07:37:06Z</time>
      </trkpt>
      <trkpt lat="42.93721" lon="0.31994">
        <ele>1466.2</ele>
        <time>2021-10-02T07:37:07Z</time>
      </trkpt>
      <trkpt lat="42.93724" lon="0.31993">
        <ele>1466.2</ele>
        <time>2021-10-02T07:37:08Z</time>
      </trkpt>
      <trkpt lat="42.93726" lon="0.31991">
        <ele>1466.4</ele>
        <time>2021-10-02T07:37:09Z</time>
      </trkpt>
      <trkpt lat="42.93728" lon="0.31991">
        <ele>1466.6</ele>
        <time>2021-10-02T07:37:10Z</time>
      </trkpt>
      <trkpt lat="42.93729" lon="0.3199">
        <ele>1466.8</ele>
        <time>2021-10-02T07:37:11Z</time>
      </trkpt>
      <trkpt lat="42.93731" lon="0.31991">
        <ele>1467</ele>
        <time>2021-10-02T07:37:12Z</time>
      </trkpt>
      <trkpt lat="42.93734" lon="0.31991">
        <ele>1467</ele>
        <time>2021-10-02T07:37:13Z</time>
      </trkpt>
      <trkpt lat="42.93737" lon="0.3199">
        <ele>1467.2</ele>
        <time>2021-10-02T07:37:14Z</time>
      </trkpt>
      <trkpt lat="42.93739" lon="0.3199">
        <ele>1467.2</ele>
        <time>2021-10-02T07:37:15Z</time>
      </trkpt>
      <trkpt lat="42.93742" lon="0.31991">
        <ele>1467.4</ele>
        <time>2021-10-02T07:37:16Z</time>
      </trkpt>
      <trkpt lat="42.93744" lon="0.31991">
        <ele>1467.6</ele>
        <time>2021-10-02T07:37:17Z</time>
      </trkpt>
      <trkpt lat="42.93746" lon="0.31991">
        <ele>1467.6</ele>
        <time>2021-10-02T07:37:18Z</time>
      </trkpt>
      <trkpt lat="42.93748" lon="0.31991">
        <ele>1467.6</ele>
        <time>2021-10-02T07:37:19Z</time>
      </trkpt>
      <trkpt lat="42.9375" lon="0.31992">
        <ele>1467.8</ele>
        <time>2021-10-02T07:37:20Z</time>
      </trkpt>
      <trkpt lat="42.93752" lon="0.31992">
        <ele>1467.8</ele>
        <time>2021-10-02T07:37:21Z</time>
      </trkpt>
      <trkpt lat="42.93754" lon="0.31992">
        <ele>1467.8</ele>
        <time>2021-10-02T07:37:22Z</time>
      </trkpt>
      <trkpt lat="42.93755" lon="0.31992">
        <ele>1468.2</ele>
        <time>2021-10-02T07:37:23Z</time>
      </trkpt>
      <trkpt lat="42.93757" lon="0.31992">
        <ele>1468.4</ele>
        <time>2021-10-02T07:37:24Z</time>
      </trkpt>
      <trkpt lat="42.93758" lon="0.31991">
        <ele>1468.6</ele>
        <time>2021-10-02T07:37:25Z</time>
      </trkpt>
      <trkpt lat="42.9376" lon="0.3199">
        <ele>1468.8</ele>
        <time>2021-10-02T07:37:26Z</time>
      </trkpt>
      <trkpt lat="42.93763" lon="0.3199">
        <ele>1469</ele>
        <time>2021-10-02T07:37:27Z</time>
      </trkpt>
      <trkpt lat="42.93766" lon="0.3199">
        <ele>1469.2</ele>
        <time>2021-10-02T07:37:28Z</time>
      </trkpt>
      <trkpt lat="42.93768" lon="0.3199">
        <ele>1469.2</ele>
        <time>2021-10-02T07:37:29Z</time>
      </trkpt>
      <trkpt lat="42.93771" lon="0.3199">
        <ele>1469.4</ele>
        <time>2021-10-02T07:37:30Z</time>
      </trkpt>
      <trkpt lat="42.93773" lon="0.3199">
        <ele>1469.6</ele>
        <time>2021-10-02T07:37:31Z</time>
      </trkpt>
      <trkpt lat="42.93775" lon="0.31991">
        <ele>1469.8</ele>
        <time>2021-10-02T07:37:32Z</time>
      </trkpt>
      <trkpt lat="42.93776" lon="0.31993">
        <ele>1470</ele>
        <time>2021-10-02T07:37:33Z</time>
      </trkpt>
      <trkpt lat="42.93778" lon="0.31993">
        <ele>1470.2</ele>
        <time>2021-10-02T07:37:34Z</time>
      </trkpt>
      <trkpt lat="42.93779" lon="0.31994">
        <ele>1470.2</ele>
        <time>2021-10-02T07:37:35Z</time>
      </trkpt>
      <trkpt lat="42.93781" lon="0.31995">
        <ele>1470.6</ele>
        <time>2021-10-02T07:37:36Z</time>
      </trkpt>
      <trkpt lat="42.93783" lon="0.31997">
        <ele>1470.8</ele>
        <time>2021-10-02T07:37:37Z</time>
      </trkpt>
      <trkpt lat="42.93785" lon="0.31998">
        <ele>1471.2</ele>
        <time>2021-10-02T07:37:38Z</time>
      </trkpt>
      <trkpt lat="42.93787" lon="0.31998">
        <ele>1471.2</ele>
        <time>2021-10-02T07:37:39Z</time>
      </trkpt>
      <trkpt lat="42.93789" lon="0.31998">
        <ele>1471.4</ele>
        <time>2021-10-02T07:37:40Z</time>
      </trkpt>
      <trkpt lat="42.93791" lon="0.31998">
        <ele>1471.4</ele>
        <time>2021-10-02T07:37:41Z</time>
      </trkpt>
      <trkpt lat="42.93792" lon="0.31999">
        <ele>1471.6</ele>
        <time>2021-10-02T07:37:42Z</time>
      </trkpt>
      <trkpt lat="42.93795" lon="0.32002">
        <ele>1471.6</ele>
        <time>2021-10-02T07:37:43Z</time>
      </trkpt>
      <trkpt lat="42.93797" lon="0.32005">
        <ele>1472</ele>
        <time>2021-10-02T07:37:44Z</time>
      </trkpt>
      <trkpt lat="42.93799" lon="0.32007">
        <ele>1472.2</ele>
        <time>2021-10-02T07:37:45Z</time>
      </trkpt>
      <trkpt lat="42.938" lon="0.32008">
        <ele>1472.4</ele>
        <time>2021-10-02T07:37:46Z</time>
      </trkpt>
      <trkpt lat="42.93802" lon="0.32011">
        <ele>1472.4</ele>
        <time>2021-10-02T07:37:47Z</time>
      </trkpt>
      <trkpt lat="42.93806" lon="0.32012">
        <ele>1472.4</ele>
        <time>2021-10-02T07:37:48Z</time>
      </trkpt>
      <trkpt lat="42.93809" lon="0.32014">
        <ele>1472.6</ele>
        <time>2021-10-02T07:37:49Z</time>
      </trkpt>
      <trkpt lat="42.93811" lon="0.32014">
        <ele>1472.8</ele>
        <time>2021-10-02T07:37:50Z</time>
      </trkpt>
      <trkpt lat="42.93813" lon="0.32014">
        <ele>1472.8</ele>
        <time>2021-10-02T07:37:51Z</time>
      </trkpt>
      <trkpt lat="42.93815" lon="0.32014">
        <ele>1473</ele>
        <time>2021-10-02T07:37:52Z</time>
      </trkpt>
      <trkpt lat="42.93817" lon="0.32015">
        <ele>1473.2</ele>
        <time>2021-10-02T07:37:53Z</time>
      </trkpt>
      <trkpt lat="42.9382" lon="0.32015">
        <ele>1473.2</ele>
        <time>2021-10-02T07:37:54Z</time>
      </trkpt>
      <trkpt lat="42.9382" lon="0.32016">
        <ele>1473.6</ele>
        <time>2021-10-02T07:37:55Z</time>
      </trkpt>
      <trkpt lat="42.93821" lon="0.32016">
        <ele>1473.6</ele>
        <time>2021-10-02T07:37:56Z</time>
      </trkpt>
      <trkpt lat="42.93823" lon="0.32018">
        <ele>1473.8</ele>
        <time>2021-10-02T07:37:57Z</time>
      </trkpt>
      <trkpt lat="42.93825" lon="0.3202">
        <ele>1474</ele>
        <time>2021-10-02T07:37:58Z</time>
      </trkpt>
      <trkpt lat="42.93828" lon="0.32023">
        <ele>1474</ele>
        <time>2021-10-02T07:37:59Z</time>
      </trkpt>
      <trkpt lat="42.93829" lon="0.32025">
        <ele>1474</ele>
        <time>2021-10-02T07:38:00Z</time>
      </trkpt>
      <trkpt lat="42.93831" lon="0.32027">
        <ele>1474.2</ele>
        <time>2021-10-02T07:38:01Z</time>
      </trkpt>
      <trkpt lat="42.93832" lon="0.32028">
        <ele>1474.2</ele>
        <time>2021-10-02T07:38:02Z</time>
      </trkpt>
      <trkpt lat="42.93833" lon="0.3203">
        <ele>1474.4</ele>
        <time>2021-10-02T07:38:03Z</time>
      </trkpt>
      <trkpt lat="42.93835" lon="0.32031">
        <ele>1474.8</ele>
        <time>2021-10-02T07:38:04Z</time>
      </trkpt>
      <trkpt lat="42.93836" lon="0.32034">
        <ele>1474.8</ele>
        <time>2021-10-02T07:38:05Z</time>
      </trkpt>
      <trkpt lat="42.93838" lon="0.32036">
        <ele>1475.2</ele>
        <time>2021-10-02T07:38:06Z</time>
      </trkpt>
      <trkpt lat="42.9384" lon="0.32037">
        <ele>1475.2</ele>
        <time>2021-10-02T07:38:07Z</time>
      </trkpt>
      <trkpt lat="42.93841" lon="0.32039">
        <ele>1475.6</ele>
        <time>2021-10-02T07:38:08Z</time>
      </trkpt>
      <trkpt lat="42.93843" lon="0.32041">
        <ele>1475.6</ele>
        <time>2021-10-02T07:38:09Z</time>
      </trkpt>
      <trkpt lat="42.93845" lon="0.32042">
        <ele>1476</ele>
        <time>2021-10-02T07:38:10Z</time>
      </trkpt>
      <trkpt lat="42.93846" lon="0.32044">
        <ele>1476</ele>
        <time>2021-10-02T07:38:11Z</time>
      </trkpt>
      <trkpt lat="42.93847" lon="0.32046">
        <ele>1476.2</ele>
        <time>2021-10-02T07:38:12Z</time>
      </trkpt>
      <trkpt lat="42.93848" lon="0.32048">
        <ele>1476.2</ele>
        <time>2021-10-02T07:38:13Z</time>
      </trkpt>
      <trkpt lat="42.9385" lon="0.32051">
        <ele>1476.4</ele>
        <time>2021-10-02T07:38:14Z</time>
      </trkpt>
      <trkpt lat="42.93851" lon="0.32053">
        <ele>1476.4</ele>
        <time>2021-10-02T07:38:15Z</time>
      </trkpt>
      <trkpt lat="42.93853" lon="0.32056">
        <ele>1476.4</ele>
        <time>2021-10-02T07:38:16Z</time>
      </trkpt>
      <trkpt lat="42.93854" lon="0.32058">
        <ele>1476.6</ele>
        <time>2021-10-02T07:38:17Z</time>
      </trkpt>
      <trkpt lat="42.93855" lon="0.32061">
        <ele>1476.8</ele>
        <time>2021-10-02T07:38:18Z</time>
      </trkpt>
      <trkpt lat="42.93857" lon="0.32064">
        <ele>1477</ele>
        <time>2021-10-02T07:38:19Z</time>
      </trkpt>
      <trkpt lat="42.93858" lon="0.32067">
        <ele>1477.2</ele>
        <time>2021-10-02T07:38:20Z</time>
      </trkpt>
      <trkpt lat="42.9386" lon="0.3207">
        <ele>1477.4</ele>
        <time>2021-10-02T07:38:21Z</time>
      </trkpt>
      <trkpt lat="42.93862" lon="0.32073">
        <ele>1477.4</ele>
        <time>2021-10-02T07:38:22Z</time>
      </trkpt>
      <trkpt lat="42.93865" lon="0.32076">
        <ele>1477.6</ele>
        <time>2021-10-02T07:38:23Z</time>
      </trkpt>
      <trkpt lat="42.93866" lon="0.3208">
        <ele>1477.6</ele>
        <time>2021-10-02T07:38:24Z</time>
      </trkpt>
      <trkpt lat="42.93868" lon="0.32083">
        <ele>1477.8</ele>
        <time>2021-10-02T07:38:25Z</time>
      </trkpt>
      <trkpt lat="42.93869" lon="0.32085">
        <ele>1477.8</ele>
        <time>2021-10-02T07:38:26Z</time>
      </trkpt>
      <trkpt lat="42.93871" lon="0.32088">
        <ele>1477.8</ele>
        <time>2021-10-02T07:38:27Z</time>
      </trkpt>
      <trkpt lat="42.93873" lon="0.3209">
        <ele>1477.8</ele>
        <time>2021-10-02T07:38:28Z</time>
      </trkpt>
      <trkpt lat="42.93875" lon="0.32093">
        <ele>1477.8</ele>
        <time>2021-10-02T07:38:29Z</time>
      </trkpt>
      <trkpt lat="42.93876" lon="0.32094">
        <ele>1477.8</ele>
        <time>2021-10-02T07:38:30Z</time>
      </trkpt>
      <trkpt lat="42.93877" lon="0.32097">
        <ele>1478</ele>
        <time>2021-10-02T07:38:31Z</time>
      </trkpt>
      <trkpt lat="42.93878" lon="0.32099">
        <ele>1478</ele>
        <time>2021-10-02T07:38:32Z</time>
      </trkpt>
      <trkpt lat="42.93879" lon="0.32102">
        <ele>1478</ele>
        <time>2021-10-02T07:38:33Z</time>
      </trkpt>
      <trkpt lat="42.93881" lon="0.32105">
        <ele>1478</ele>
        <time>2021-10-02T07:38:34Z</time>
      </trkpt>
      <trkpt lat="42.93883" lon="0.32108">
        <ele>1478</ele>
        <time>2021-10-02T07:38:35Z</time>
      </trkpt>
      <trkpt lat="42.93884" lon="0.32111">
        <ele>1478</ele>
        <time>2021-10-02T07:38:36Z</time>
      </trkpt>
      <trkpt lat="42.93885" lon="0.32114">
        <ele>1478.2</ele>
        <time>2021-10-02T07:38:37Z</time>
      </trkpt>
      <trkpt lat="42.93887" lon="0.32116">
        <ele>1478.2</ele>
        <time>2021-10-02T07:38:38Z</time>
      </trkpt>
      <trkpt lat="42.9389" lon="0.32118">
        <ele>1478.4</ele>
        <time>2021-10-02T07:38:39Z</time>
      </trkpt>
      <trkpt lat="42.93893" lon="0.32121">
        <ele>1478.4</ele>
        <time>2021-10-02T07:38:40Z</time>
      </trkpt>
      <trkpt lat="42.93895" lon="0.32122">
        <ele>1478.4</ele>
        <time>2021-10-02T07:38:41Z</time>
      </trkpt>
      <trkpt lat="42.93897" lon="0.32124">
        <ele>1478.6</ele>
        <time>2021-10-02T07:38:42Z</time>
      </trkpt>
      <trkpt lat="42.93899" lon="0.32124">
        <ele>1478.6</ele>
        <time>2021-10-02T07:38:43Z</time>
      </trkpt>
      <trkpt lat="42.939" lon="0.32125">
        <ele>1478.8</ele>
        <time>2021-10-02T07:38:44Z</time>
      </trkpt>
      <trkpt lat="42.93902" lon="0.32127">
        <ele>1479</ele>
        <time>2021-10-02T07:38:45Z</time>
      </trkpt>
      <trkpt lat="42.93904" lon="0.32129">
        <ele>1479</ele>
        <time>2021-10-02T07:38:46Z</time>
      </trkpt>
      <trkpt lat="42.93907" lon="0.3213">
        <ele>1479.2</ele>
        <time>2021-10-02T07:38:47Z</time>
      </trkpt>
      <trkpt lat="42.93914" lon="0.32134">
        <ele>1479.8</ele>
        <time>2021-10-02T07:38:50Z</time>
      </trkpt>
      <trkpt lat="42.93914" lon="0.32135">
        <ele>1479.8</ele>
        <time>2021-10-02T07:38:51Z</time>
      </trkpt>
      <trkpt lat="42.93914" lon="0.32136">
        <ele>1480</ele>
        <time>2021-10-02T07:38:52Z</time>
      </trkpt>
      <trkpt lat="42.93915" lon="0.32137">
        <ele>1480</ele>
        <time>2021-10-02T07:38:53Z</time>
      </trkpt>
      <trkpt lat="42.93915" lon="0.32138">
        <ele>1480</ele>
        <time>2021-10-02T07:38:54Z</time>
      </trkpt>
      <trkpt lat="42.93918" lon="0.32142">
        <ele>1480.2</ele>
        <time>2021-10-02T07:38:56Z</time>
      </trkpt>
      <trkpt lat="42.93919" lon="0.32143">
        <ele>1480.4</ele>
        <time>2021-10-02T07:38:57Z</time>
      </trkpt>
      <trkpt lat="42.9392" lon="0.32145">
        <ele>1480.6</ele>
        <time>2021-10-02T07:38:58Z</time>
      </trkpt>
      <trkpt lat="42.93922" lon="0.32147">
        <ele>1480.8</ele>
        <time>2021-10-02T07:38:59Z</time>
      </trkpt>
      <trkpt lat="42.93925" lon="0.32149">
        <ele>1480.8</ele>
        <time>2021-10-02T07:39:00Z</time>
      </trkpt>
      <trkpt lat="42.93927" lon="0.3215">
        <ele>1480.8</ele>
        <time>2021-10-02T07:39:01Z</time>
      </trkpt>
      <trkpt lat="42.93929" lon="0.32152">
        <ele>1481</ele>
        <time>2021-10-02T07:39:02Z</time>
      </trkpt>
      <trkpt lat="42.93931" lon="0.32152">
        <ele>1481.2</ele>
        <time>2021-10-02T07:39:03Z</time>
      </trkpt>
      <trkpt lat="42.93933" lon="0.32154">
        <ele>1481.2</ele>
        <time>2021-10-02T07:39:04Z</time>
      </trkpt>
      <trkpt lat="42.93935" lon="0.32155">
        <ele>1481.4</ele>
        <time>2021-10-02T07:39:05Z</time>
      </trkpt>
      <trkpt lat="42.93938" lon="0.32157">
        <ele>1481.6</ele>
        <time>2021-10-02T07:39:06Z</time>
      </trkpt>
      <trkpt lat="42.9394" lon="0.32159">
        <ele>1481.8</ele>
        <time>2021-10-02T07:39:07Z</time>
      </trkpt>
      <trkpt lat="42.93942" lon="0.3216">
        <ele>1481.8</ele>
        <time>2021-10-02T07:39:08Z</time>
      </trkpt>
      <trkpt lat="42.93944" lon="0.32162">
        <ele>1482</ele>
        <time>2021-10-02T07:39:09Z</time>
      </trkpt>
      <trkpt lat="42.93946" lon="0.32163">
        <ele>1482.2</ele>
        <time>2021-10-02T07:39:10Z</time>
      </trkpt>
      <trkpt lat="42.93948" lon="0.32164">
        <ele>1482.4</ele>
        <time>2021-10-02T07:39:11Z</time>
      </trkpt>
      <trkpt lat="42.93951" lon="0.32165">
        <ele>1482.6</ele>
        <time>2021-10-02T07:39:12Z</time>
      </trkpt>
      <trkpt lat="42.93953" lon="0.32165">
        <ele>1482.6</ele>
        <time>2021-10-02T07:39:13Z</time>
      </trkpt>
      <trkpt lat="42.93956" lon="0.32166">
        <ele>1482.8</ele>
        <time>2021-10-02T07:39:14Z</time>
      </trkpt>
      <trkpt lat="42.93958" lon="0.32166">
        <ele>1483</ele>
        <time>2021-10-02T07:39:15Z</time>
      </trkpt>
      <trkpt lat="42.9396" lon="0.32167">
        <ele>1483.2</ele>
        <time>2021-10-02T07:39:16Z</time>
      </trkpt>
      <trkpt lat="42.93962" lon="0.32167">
        <ele>1483.4</ele>
        <time>2021-10-02T07:39:17Z</time>
      </trkpt>
      <trkpt lat="42.93966" lon="0.32169">
        <ele>1483.6</ele>
        <time>2021-10-02T07:39:18Z</time>
      </trkpt>
      <trkpt lat="42.93968" lon="0.32169">
        <ele>1483.6</ele>
        <time>2021-10-02T07:39:19Z</time>
      </trkpt>
      <trkpt lat="42.93971" lon="0.32171">
        <ele>1483.8</ele>
        <time>2021-10-02T07:39:20Z</time>
      </trkpt>
      <trkpt lat="42.93974" lon="0.32171">
        <ele>1484</ele>
        <time>2021-10-02T07:39:21Z</time>
      </trkpt>
      <trkpt lat="42.93976" lon="0.32172">
        <ele>1484.2</ele>
        <time>2021-10-02T07:39:22Z</time>
      </trkpt>
      <trkpt lat="42.93979" lon="0.32172">
        <ele>1484.4</ele>
        <time>2021-10-02T07:39:23Z</time>
      </trkpt>
      <trkpt lat="42.9398" lon="0.32172">
        <ele>1484.4</ele>
        <time>2021-10-02T07:39:24Z</time>
      </trkpt>
      <trkpt lat="42.93983" lon="0.32172">
        <ele>1484.6</ele>
        <time>2021-10-02T07:39:25Z</time>
      </trkpt>
      <trkpt lat="42.93985" lon="0.3217">
        <ele>1484.8</ele>
        <time>2021-10-02T07:39:26Z</time>
      </trkpt>
      <trkpt lat="42.93988" lon="0.32173">
        <ele>1484.8</ele>
        <time>2021-10-02T07:39:27Z</time>
      </trkpt>
      <trkpt lat="42.9399" lon="0.32174">
        <ele>1485</ele>
        <time>2021-10-02T07:39:28Z</time>
      </trkpt>
      <trkpt lat="42.93992" lon="0.32175">
        <ele>1485.2</ele>
        <time>2021-10-02T07:39:29Z</time>
      </trkpt>
      <trkpt lat="42.93993" lon="0.32175">
        <ele>1485.4</ele>
        <time>2021-10-02T07:39:30Z</time>
      </trkpt>
      <trkpt lat="42.93995" lon="0.32176">
        <ele>1485.6</ele>
        <time>2021-10-02T07:39:31Z</time>
      </trkpt>
      <trkpt lat="42.93998" lon="0.32176">
        <ele>1485.8</ele>
        <time>2021-10-02T07:39:32Z</time>
      </trkpt>
      <trkpt lat="42.94" lon="0.32175">
        <ele>1485.8</ele>
        <time>2021-10-02T07:39:33Z</time>
      </trkpt>
      <trkpt lat="42.94002" lon="0.32174">
        <ele>1486</ele>
        <time>2021-10-02T07:39:34Z</time>
      </trkpt>
      <trkpt lat="42.94003" lon="0.32172">
        <ele>1486</ele>
        <time>2021-10-02T07:39:35Z</time>
      </trkpt>
      <trkpt lat="42.94004" lon="0.32171">
        <ele>1486.2</ele>
        <time>2021-10-02T07:39:36Z</time>
      </trkpt>
      <trkpt lat="42.94006" lon="0.3217">
        <ele>1486.2</ele>
        <time>2021-10-02T07:39:37Z</time>
      </trkpt>
      <trkpt lat="42.94008" lon="0.32169">
        <ele>1486.2</ele>
        <time>2021-10-02T07:39:38Z</time>
      </trkpt>
      <trkpt lat="42.9401" lon="0.32168">
        <ele>1486.4</ele>
        <time>2021-10-02T07:39:39Z</time>
      </trkpt>
      <trkpt lat="42.94013" lon="0.32169">
        <ele>1486.4</ele>
        <time>2021-10-02T07:39:40Z</time>
      </trkpt>
      <trkpt lat="42.94015" lon="0.32168">
        <ele>1486.6</ele>
        <time>2021-10-02T07:39:41Z</time>
      </trkpt>
      <trkpt lat="42.94016" lon="0.32168">
        <ele>1486.6</ele>
        <time>2021-10-02T07:39:42Z</time>
      </trkpt>
      <trkpt lat="42.94017" lon="0.32168">
        <ele>1487</ele>
        <time>2021-10-02T07:39:43Z</time>
      </trkpt>
      <trkpt lat="42.94018" lon="0.32167">
        <ele>1487.2</ele>
        <time>2021-10-02T07:39:44Z</time>
      </trkpt>
      <trkpt lat="42.9402" lon="0.32166">
        <ele>1487.6</ele>
        <time>2021-10-02T07:39:45Z</time>
      </trkpt>
      <trkpt lat="42.94022" lon="0.32165">
        <ele>1487.8</ele>
        <time>2021-10-02T07:39:46Z</time>
      </trkpt>
      <trkpt lat="42.94024" lon="0.32165">
        <ele>1488.2</ele>
        <time>2021-10-02T07:39:47Z</time>
      </trkpt>
      <trkpt lat="42.94026" lon="0.32164">
        <ele>1488.4</ele>
        <time>2021-10-02T07:39:48Z</time>
      </trkpt>
      <trkpt lat="42.94029" lon="0.32164">
        <ele>1488.6</ele>
        <time>2021-10-02T07:39:49Z</time>
      </trkpt>
      <trkpt lat="42.9403" lon="0.32164">
        <ele>1488.8</ele>
        <time>2021-10-02T07:39:50Z</time>
      </trkpt>
      <trkpt lat="42.94032" lon="0.32163">
        <ele>1489</ele>
        <time>2021-10-02T07:39:51Z</time>
      </trkpt>
      <trkpt lat="42.94033" lon="0.32162">
        <ele>1489</ele>
        <time>2021-10-02T07:39:52Z</time>
      </trkpt>
      <trkpt lat="42.94035" lon="0.32161">
        <ele>1489.2</ele>
        <time>2021-10-02T07:39:53Z</time>
      </trkpt>
      <trkpt lat="42.94037" lon="0.32161">
        <ele>1489.4</ele>
        <time>2021-10-02T07:39:54Z</time>
      </trkpt>
      <trkpt lat="42.9404" lon="0.32161">
        <ele>1489.4</ele>
        <time>2021-10-02T07:39:55Z</time>
      </trkpt>
      <trkpt lat="42.94042" lon="0.32162">
        <ele>1489.6</ele>
        <time>2021-10-02T07:39:56Z</time>
      </trkpt>
      <trkpt lat="42.94044" lon="0.32162">
        <ele>1489.6</ele>
        <time>2021-10-02T07:39:57Z</time>
      </trkpt>
      <trkpt lat="42.94046" lon="0.32161">
        <ele>1489.8</ele>
        <time>2021-10-02T07:39:58Z</time>
      </trkpt>
      <trkpt lat="42.94048" lon="0.32162">
        <ele>1489.8</ele>
        <time>2021-10-02T07:39:59Z</time>
      </trkpt>
      <trkpt lat="42.94051" lon="0.32161">
        <ele>1490</ele>
        <time>2021-10-02T07:40:00Z</time>
      </trkpt>
      <trkpt lat="42.94053" lon="0.32162">
        <ele>1490.2</ele>
        <time>2021-10-02T07:40:01Z</time>
      </trkpt>
      <trkpt lat="42.94055" lon="0.32162">
        <ele>1490.4</ele>
        <time>2021-10-02T07:40:02Z</time>
      </trkpt>
      <trkpt lat="42.94057" lon="0.32162">
        <ele>1490.4</ele>
        <time>2021-10-02T07:40:03Z</time>
      </trkpt>
      <trkpt lat="42.9406" lon="0.32163">
        <ele>1490.6</ele>
        <time>2021-10-02T07:40:04Z</time>
      </trkpt>
      <trkpt lat="42.94063" lon="0.32164">
        <ele>1490.8</ele>
        <time>2021-10-02T07:40:05Z</time>
      </trkpt>
      <trkpt lat="42.94065" lon="0.32164">
        <ele>1490.8</ele>
        <time>2021-10-02T07:40:06Z</time>
      </trkpt>
      <trkpt lat="42.94068" lon="0.32165">
        <ele>1491</ele>
        <time>2021-10-02T07:40:07Z</time>
      </trkpt>
      <trkpt lat="42.9407" lon="0.32166">
        <ele>1491</ele>
        <time>2021-10-02T07:40:08Z</time>
      </trkpt>
      <trkpt lat="42.94072" lon="0.32169">
        <ele>1491.2</ele>
        <time>2021-10-02T07:40:09Z</time>
      </trkpt>
      <trkpt lat="42.94075" lon="0.32171">
        <ele>1491.2</ele>
        <time>2021-10-02T07:40:10Z</time>
      </trkpt>
      <trkpt lat="42.94077" lon="0.32173">
        <ele>1491.2</ele>
        <time>2021-10-02T07:40:11Z</time>
      </trkpt>
      <trkpt lat="42.94079" lon="0.32174">
        <ele>1491.2</ele>
        <time>2021-10-02T07:40:12Z</time>
      </trkpt>
      <trkpt lat="42.94082" lon="0.32175">
        <ele>1491.4</ele>
        <time>2021-10-02T07:40:13Z</time>
      </trkpt>
      <trkpt lat="42.94085" lon="0.32177">
        <ele>1491.4</ele>
        <time>2021-10-02T07:40:14Z</time>
      </trkpt>
      <trkpt lat="42.94087" lon="0.32178">
        <ele>1491.6</ele>
        <time>2021-10-02T07:40:15Z</time>
      </trkpt>
      <trkpt lat="42.9409" lon="0.32182">
        <ele>1491.6</ele>
        <time>2021-10-02T07:40:16Z</time>
      </trkpt>
      <trkpt lat="42.94092" lon="0.32185">
        <ele>1491.6</ele>
        <time>2021-10-02T07:40:17Z</time>
      </trkpt>
      <trkpt lat="42.94094" lon="0.32188">
        <ele>1491.8</ele>
        <time>2021-10-02T07:40:18Z</time>
      </trkpt>
      <trkpt lat="42.94097" lon="0.32192">
        <ele>1491.8</ele>
        <time>2021-10-02T07:40:19Z</time>
      </trkpt>
      <trkpt lat="42.94099" lon="0.32196">
        <ele>1491.6</ele>
        <time>2021-10-02T07:40:20Z</time>
      </trkpt>
      <trkpt lat="42.94102" lon="0.322">
        <ele>1491.6</ele>
        <time>2021-10-02T07:40:21Z</time>
      </trkpt>
      <trkpt lat="42.94104" lon="0.32204">
        <ele>1491.6</ele>
        <time>2021-10-02T07:40:22Z</time>
      </trkpt>
      <trkpt lat="42.94106" lon="0.32209">
        <ele>1491.4</ele>
        <time>2021-10-02T07:40:23Z</time>
      </trkpt>
      <trkpt lat="42.94113" lon="0.32238">
        <ele>1490.6</ele>
        <time>2021-10-02T07:40:28Z</time>
      </trkpt>
      <trkpt lat="42.94116" lon="0.32251">
        <ele>1490.4</ele>
        <time>2021-10-02T07:40:30Z</time>
      </trkpt>
      <trkpt lat="42.94121" lon="0.3228">
        <ele>1489.8</ele>
        <time>2021-10-02T07:40:34Z</time>
      </trkpt>
      <trkpt lat="42.94123" lon="0.32287">
        <ele>1489.6</ele>
        <time>2021-10-02T07:40:35Z</time>
      </trkpt>
      <trkpt lat="42.94124" lon="0.32296">
        <ele>1489.4</ele>
        <time>2021-10-02T07:40:36Z</time>
      </trkpt>
      <trkpt lat="42.9413" lon="0.32328">
        <ele>1488.8</ele>
        <time>2021-10-02T07:40:40Z</time>
      </trkpt>
      <trkpt lat="42.94131" lon="0.32335">
        <ele>1488.8</ele>
        <time>2021-10-02T07:40:41Z</time>
      </trkpt>
      <trkpt lat="42.94133" lon="0.32342">
        <ele>1488.4</ele>
        <time>2021-10-02T07:40:42Z</time>
      </trkpt>
      <trkpt lat="42.94134" lon="0.32346">
        <ele>1488.4</ele>
        <time>2021-10-02T07:40:43Z</time>
      </trkpt>
      <trkpt lat="42.94134" lon="0.3235">
        <ele>1488.2</ele>
        <time>2021-10-02T07:40:44Z</time>
      </trkpt>
      <trkpt lat="42.94134" lon="0.32354">
        <ele>1488.2</ele>
        <time>2021-10-02T07:40:45Z</time>
      </trkpt>
      <trkpt lat="42.94135" lon="0.32359">
        <ele>1488</ele>
        <time>2021-10-02T07:40:46Z</time>
      </trkpt>
      <trkpt lat="42.9414" lon="0.32395">
        <ele>1487.4</ele>
        <time>2021-10-02T07:40:52Z</time>
      </trkpt>
      <trkpt lat="42.94142" lon="0.32417">
        <ele>1487.2</ele>
        <time>2021-10-02T07:40:55Z</time>
      </trkpt>
      <trkpt lat="42.94145" lon="0.3245">
        <ele>1486.6</ele>
        <time>2021-10-02T07:40:59Z</time>
      </trkpt>
      <trkpt lat="42.94152" lon="0.32481">
        <ele>1486.2</ele>
        <time>2021-10-02T07:41:03Z</time>
      </trkpt>
      <trkpt lat="42.94156" lon="0.32503">
        <ele>1486</ele>
        <time>2021-10-02T07:41:06Z</time>
      </trkpt>
      <trkpt lat="42.94158" lon="0.32511">
        <ele>1486</ele>
        <time>2021-10-02T07:41:07Z</time>
      </trkpt>
      <trkpt lat="42.94165" lon="0.32549">
        <ele>1485.4</ele>
        <time>2021-10-02T07:41:12Z</time>
      </trkpt>
      <trkpt lat="42.94169" lon="0.32565">
        <ele>1485.2</ele>
        <time>2021-10-02T07:41:14Z</time>
      </trkpt>
      <trkpt lat="42.94175" lon="0.32601">
        <ele>1484.8</ele>
        <time>2021-10-02T07:41:19Z</time>
      </trkpt>
      <trkpt lat="42.94175" lon="0.32609">
        <ele>1484.6</ele>
        <time>2021-10-02T07:41:20Z</time>
      </trkpt>
      <trkpt lat="42.94177" lon="0.32616">
        <ele>1484.4</ele>
        <time>2021-10-02T07:41:21Z</time>
      </trkpt>
      <trkpt lat="42.9418" lon="0.32632">
        <ele>1484.2</ele>
        <time>2021-10-02T07:41:23Z</time>
      </trkpt>
      <trkpt lat="42.94184" lon="0.32646">
        <ele>1484</ele>
        <time>2021-10-02T07:41:25Z</time>
      </trkpt>
      <trkpt lat="42.94186" lon="0.32652">
        <ele>1484</ele>
        <time>2021-10-02T07:41:26Z</time>
      </trkpt>
      <trkpt lat="42.94188" lon="0.32658">
        <ele>1484</ele>
        <time>2021-10-02T07:41:27Z</time>
      </trkpt>
      <trkpt lat="42.94191" lon="0.32664">
        <ele>1484.2</ele>
        <time>2021-10-02T07:41:28Z</time>
      </trkpt>
      <trkpt lat="42.94193" lon="0.3267">
        <ele>1484</ele>
        <time>2021-10-02T07:41:29Z</time>
      </trkpt>
      <trkpt lat="42.94195" lon="0.32676">
        <ele>1484</ele>
        <time>2021-10-02T07:41:30Z</time>
      </trkpt>
      <trkpt lat="42.94196" lon="0.32682">
        <ele>1484</ele>
        <time>2021-10-02T07:41:31Z</time>
      </trkpt>
      <trkpt lat="42.94198" lon="0.32688">
        <ele>1484</ele>
        <time>2021-10-02T07:41:32Z</time>
      </trkpt>
      <trkpt lat="42.94199" lon="0.32694">
        <ele>1483.8</ele>
        <time>2021-10-02T07:41:33Z</time>
      </trkpt>
      <trkpt lat="42.942" lon="0.327">
        <ele>1483.8</ele>
        <time>2021-10-02T07:41:34Z</time>
      </trkpt>
      <trkpt lat="42.942" lon="0.32707">
        <ele>1483.6</ele>
        <time>2021-10-02T07:41:35Z</time>
      </trkpt>
      <trkpt lat="42.94201" lon="0.32713">
        <ele>1483.4</ele>
        <time>2021-10-02T07:41:36Z</time>
      </trkpt>
      <trkpt lat="42.94203" lon="0.32719">
        <ele>1483.2</ele>
        <time>2021-10-02T07:41:37Z</time>
      </trkpt>
      <trkpt lat="42.94205" lon="0.32725">
        <ele>1483.2</ele>
        <time>2021-10-02T07:41:38Z</time>
      </trkpt>
      <trkpt lat="42.94208" lon="0.32729">
        <ele>1483</ele>
        <time>2021-10-02T07:41:39Z</time>
      </trkpt>
      <trkpt lat="42.94211" lon="0.32734">
        <ele>1483</ele>
        <time>2021-10-02T07:41:40Z</time>
      </trkpt>
      <trkpt lat="42.94215" lon="0.32737">
        <ele>1482.8</ele>
        <time>2021-10-02T07:41:41Z</time>
      </trkpt>
      <trkpt lat="42.94218" lon="0.3274">
        <ele>1482.4</ele>
        <time>2021-10-02T07:41:42Z</time>
      </trkpt>
      <trkpt lat="42.94221" lon="0.32742">
        <ele>1482.4</ele>
        <time>2021-10-02T07:41:43Z</time>
      </trkpt>
      <trkpt lat="42.94224" lon="0.32744">
        <ele>1482</ele>
        <time>2021-10-02T07:41:44Z</time>
      </trkpt>
      <trkpt lat="42.94227" lon="0.32744">
        <ele>1481.6</ele>
        <time>2021-10-02T07:41:45Z</time>
      </trkpt>
      <trkpt lat="42.9423" lon="0.32744">
        <ele>1481.4</ele>
        <time>2021-10-02T07:41:46Z</time>
      </trkpt>
      <trkpt lat="42.94232" lon="0.32744">
        <ele>1481.4</ele>
        <time>2021-10-02T07:41:47Z</time>
      </trkpt>
      <trkpt lat="42.94234" lon="0.32745">
        <ele>1481.2</ele>
        <time>2021-10-02T07:41:48Z</time>
      </trkpt>
      <trkpt lat="42.94235" lon="0.32746">
        <ele>1481.2</ele>
        <time>2021-10-02T07:41:49Z</time>
      </trkpt>
      <trkpt lat="42.94236" lon="0.32746">
        <ele>1481</ele>
        <time>2021-10-02T07:41:50Z</time>
      </trkpt>
      <trkpt lat="42.94237" lon="0.32745">
        <ele>1481</ele>
        <time>2021-10-02T07:41:51Z</time>
      </trkpt>
      <trkpt lat="42.94238" lon="0.32742">
        <ele>1481</ele>
        <time>2021-10-02T07:41:52Z</time>
      </trkpt>
      <trkpt lat="42.94235" lon="0.32736">
        <ele>1481</ele>
        <time>2021-10-02T07:41:54Z</time>
      </trkpt>
      <trkpt lat="42.9423" lon="0.32733">
        <ele>1481</ele>
        <time>2021-10-02T07:41:56Z</time>
      </trkpt>
      <trkpt lat="42.94227" lon="0.32732">
        <ele>1481</ele>
        <time>2021-10-02T07:41:57Z</time>
      </trkpt>
      <trkpt lat="42.94224" lon="0.32731">
        <ele>1481</ele>
        <time>2021-10-02T07:41:58Z</time>
      </trkpt>
      <trkpt lat="42.94215" lon="0.32728">
        <ele>1481</ele>
        <time>2021-10-02T07:42:01Z</time>
      </trkpt>
      <trkpt lat="42.94213" lon="0.32727">
        <ele>1481</ele>
        <time>2021-10-02T07:42:02Z</time>
      </trkpt>
      <trkpt lat="42.9421" lon="0.32726">
        <ele>1481.2</ele>
        <time>2021-10-02T07:42:03Z</time>
      </trkpt>
      <trkpt lat="42.94208" lon="0.32725">
        <ele>1481.2</ele>
        <time>2021-10-02T07:42:04Z</time>
      </trkpt>
      <trkpt lat="42.94206" lon="0.32724">
        <ele>1481.2</ele>
        <time>2021-10-02T07:42:05Z</time>
      </trkpt>
      <trkpt lat="42.94204" lon="0.32723">
        <ele>1481.2</ele>
        <time>2021-10-02T07:42:06Z</time>
      </trkpt>
      <trkpt lat="42.94202" lon="0.32721">
        <ele>1481.4</ele>
        <time>2021-10-02T07:42:07Z</time>
      </trkpt>
      <trkpt lat="42.942" lon="0.3272">
        <ele>1481.4</ele>
        <time>2021-10-02T07:42:08Z</time>
      </trkpt>
      <trkpt lat="42.94198" lon="0.32719">
        <ele>1481.4</ele>
        <time>2021-10-02T07:42:09Z</time>
      </trkpt>
      <trkpt lat="42.94197" lon="0.32718">
        <ele>1481.6</ele>
        <time>2021-10-02T07:42:10Z</time>
      </trkpt>
      <trkpt lat="42.94195" lon="0.32717">
        <ele>1481.8</ele>
        <time>2021-10-02T07:42:11Z</time>
      </trkpt>
      <trkpt lat="42.94193" lon="0.32716">
        <ele>1482</ele>
        <time>2021-10-02T07:42:12Z</time>
      </trkpt>
      <trkpt lat="42.94192" lon="0.32715">
        <ele>1482.2</ele>
        <time>2021-10-02T07:42:13Z</time>
      </trkpt>
      <trkpt lat="42.9419" lon="0.32714">
        <ele>1482.2</ele>
        <time>2021-10-02T07:42:14Z</time>
      </trkpt>
      <trkpt lat="42.94189" lon="0.32713">
        <ele>1482.4</ele>
        <time>2021-10-02T07:42:15Z</time>
      </trkpt>
      <trkpt lat="42.94187" lon="0.32712">
        <ele>1482.4</ele>
        <time>2021-10-02T07:42:16Z</time>
      </trkpt>
      <trkpt lat="42.94186" lon="0.32711">
        <ele>1482.6</ele>
        <time>2021-10-02T07:42:17Z</time>
      </trkpt>
      <trkpt lat="42.94185" lon="0.3271">
        <ele>1482.8</ele>
        <time>2021-10-02T07:42:18Z</time>
      </trkpt>
      <trkpt lat="42.94183" lon="0.32709">
        <ele>1483</ele>
        <time>2021-10-02T07:42:19Z</time>
      </trkpt>
      <trkpt lat="42.94182" lon="0.32708">
        <ele>1483.2</ele>
        <time>2021-10-02T07:42:20Z</time>
      </trkpt>
      <trkpt lat="42.94181" lon="0.32706">
        <ele>1483.2</ele>
        <time>2021-10-02T07:42:21Z</time>
      </trkpt>
      <trkpt lat="42.9418" lon="0.32705">
        <ele>1483.6</ele>
        <time>2021-10-02T07:42:22Z</time>
      </trkpt>
      <trkpt lat="42.94179" lon="0.32704">
        <ele>1483.6</ele>
        <time>2021-10-02T07:42:23Z</time>
      </trkpt>
      <trkpt lat="42.94178" lon="0.32702">
        <ele>1484</ele>
        <time>2021-10-02T07:42:24Z</time>
      </trkpt>
      <trkpt lat="42.94177" lon="0.32701">
        <ele>1484.2</ele>
        <time>2021-10-02T07:42:25Z</time>
      </trkpt>
      <trkpt lat="42.94176" lon="0.327">
        <ele>1484.4</ele>
        <time>2021-10-02T07:42:26Z</time>
      </trkpt>
      <trkpt lat="42.94175" lon="0.32699">
        <ele>1484.6</ele>
        <time>2021-10-02T07:42:27Z</time>
      </trkpt>
      <trkpt lat="42.94172" lon="0.32697">
        <ele>1485</ele>
        <time>2021-10-02T07:42:29Z</time>
      </trkpt>
      <trkpt lat="42.94171" lon="0.32696">
        <ele>1485.4</ele>
        <time>2021-10-02T07:42:30Z</time>
      </trkpt>
      <trkpt lat="42.9417" lon="0.32694">
        <ele>1485.4</ele>
        <time>2021-10-02T07:42:31Z</time>
      </trkpt>
      <trkpt lat="42.94169" lon="0.32692">
        <ele>1485.6</ele>
        <time>2021-10-02T07:42:32Z</time>
      </trkpt>
      <trkpt lat="42.94168" lon="0.32691">
        <ele>1485.8</ele>
        <time>2021-10-02T07:42:33Z</time>
      </trkpt>
      <trkpt lat="42.94166" lon="0.3269">
        <ele>1486.2</ele>
        <time>2021-10-02T07:42:34Z</time>
      </trkpt>
      <trkpt lat="42.94165" lon="0.32689">
        <ele>1486.4</ele>
        <time>2021-10-02T07:42:35Z</time>
      </trkpt>
      <trkpt lat="42.94163" lon="0.32689">
        <ele>1486.4</ele>
        <time>2021-10-02T07:42:36Z</time>
      </trkpt>
      <trkpt lat="42.94162" lon="0.32688">
        <ele>1486.8</ele>
        <time>2021-10-02T07:42:37Z</time>
      </trkpt>
      <trkpt lat="42.9416" lon="0.32687">
        <ele>1487</ele>
        <time>2021-10-02T07:42:38Z</time>
      </trkpt>
      <trkpt lat="42.9416" lon="0.32686">
        <ele>1487</ele>
        <time>2021-10-02T07:42:39Z</time>
      </trkpt>
      <trkpt lat="42.94158" lon="0.32685">
        <ele>1487.2</ele>
        <time>2021-10-02T07:42:40Z</time>
      </trkpt>
      <trkpt lat="42.94157" lon="0.32684">
        <ele>1487.4</ele>
        <time>2021-10-02T07:42:41Z</time>
      </trkpt>
      <trkpt lat="42.94155" lon="0.32684">
        <ele>1487.8</ele>
        <time>2021-10-02T07:42:42Z</time>
      </trkpt>
      <trkpt lat="42.94154" lon="0.32683">
        <ele>1488.4</ele>
        <time>2021-10-02T07:42:43Z</time>
      </trkpt>
      <trkpt lat="42.94153" lon="0.32681">
        <ele>1488.6</ele>
        <time>2021-10-02T07:42:44Z</time>
      </trkpt>
      <trkpt lat="42.94152" lon="0.3268">
        <ele>1489</ele>
        <time>2021-10-02T07:42:45Z</time>
      </trkpt>
      <trkpt lat="42.9415" lon="0.32679">
        <ele>1489.2</ele>
        <time>2021-10-02T07:42:46Z</time>
      </trkpt>
      <trkpt lat="42.94149" lon="0.32679">
        <ele>1489.6</ele>
        <time>2021-10-02T07:42:47Z</time>
      </trkpt>
      <trkpt lat="42.94148" lon="0.32678">
        <ele>1489.6</ele>
        <time>2021-10-02T07:42:48Z</time>
      </trkpt>
      <trkpt lat="42.94146" lon="0.32678">
        <ele>1490.2</ele>
        <time>2021-10-02T07:42:49Z</time>
      </trkpt>
      <trkpt lat="42.94145" lon="0.32677">
        <ele>1490.2</ele>
        <time>2021-10-02T07:42:50Z</time>
      </trkpt>
      <trkpt lat="42.94144" lon="0.32676">
        <ele>1490.6</ele>
        <time>2021-10-02T07:42:51Z</time>
      </trkpt>
      <trkpt lat="42.94143" lon="0.32675">
        <ele>1491</ele>
        <time>2021-10-02T07:42:52Z</time>
      </trkpt>
      <trkpt lat="42.94142" lon="0.32673">
        <ele>1491.2</ele>
        <time>2021-10-02T07:42:53Z</time>
      </trkpt>
      <trkpt lat="42.94141" lon="0.32672">
        <ele>1491.6</ele>
        <time>2021-10-02T07:42:54Z</time>
      </trkpt>
      <trkpt lat="42.9414" lon="0.32671">
        <ele>1491.6</ele>
        <time>2021-10-02T07:42:55Z</time>
      </trkpt>
      <trkpt lat="42.94139" lon="0.3267">
        <ele>1491.8</ele>
        <time>2021-10-02T07:42:56Z</time>
      </trkpt>
      <trkpt lat="42.94137" lon="0.32669">
        <ele>1492</ele>
        <time>2021-10-02T07:42:57Z</time>
      </trkpt>
      <trkpt lat="42.94136" lon="0.32668">
        <ele>1492.2</ele>
        <time>2021-10-02T07:42:58Z</time>
      </trkpt>
      <trkpt lat="42.94135" lon="0.32667">
        <ele>1492.4</ele>
        <time>2021-10-02T07:42:59Z</time>
      </trkpt>
      <trkpt lat="42.94134" lon="0.32666">
        <ele>1492.6</ele>
        <time>2021-10-02T07:43:00Z</time>
      </trkpt>
      <trkpt lat="42.94133" lon="0.32664">
        <ele>1492.6</ele>
        <time>2021-10-02T07:43:01Z</time>
      </trkpt>
      <trkpt lat="42.94132" lon="0.32663">
        <ele>1492.8</ele>
        <time>2021-10-02T07:43:02Z</time>
      </trkpt>
      <trkpt lat="42.94132" lon="0.32661">
        <ele>1492.8</ele>
        <time>2021-10-02T07:43:03Z</time>
      </trkpt>
      <trkpt lat="42.94131" lon="0.32659">
        <ele>1493.2</ele>
        <time>2021-10-02T07:43:04Z</time>
      </trkpt>
      <trkpt lat="42.9413" lon="0.32658">
        <ele>1493.4</ele>
        <time>2021-10-02T07:43:05Z</time>
      </trkpt>
      <trkpt lat="42.9413" lon="0.32657">
        <ele>1493.6</ele>
        <time>2021-10-02T07:43:06Z</time>
      </trkpt>
      <trkpt lat="42.94129" lon="0.32655">
        <ele>1493.8</ele>
        <time>2021-10-02T07:43:07Z</time>
      </trkpt>
      <trkpt lat="42.94129" lon="0.32654">
        <ele>1494</ele>
        <time>2021-10-02T07:43:08Z</time>
      </trkpt>
      <trkpt lat="42.94128" lon="0.32652">
        <ele>1494.2</ele>
        <time>2021-10-02T07:43:09Z</time>
      </trkpt>
      <trkpt lat="42.94127" lon="0.3265">
        <ele>1494.4</ele>
        <time>2021-10-02T07:43:10Z</time>
      </trkpt>
      <trkpt lat="42.94127" lon="0.32648">
        <ele>1494.8</ele>
        <time>2021-10-02T07:43:11Z</time>
      </trkpt>
      <trkpt lat="42.94127" lon="0.32646">
        <ele>1495</ele>
        <time>2021-10-02T07:43:12Z</time>
      </trkpt>
      <trkpt lat="42.94127" lon="0.32645">
        <ele>1495.2</ele>
        <time>2021-10-02T07:43:13Z</time>
      </trkpt>
      <trkpt lat="42.94127" lon="0.32643">
        <ele>1495.2</ele>
        <time>2021-10-02T07:43:14Z</time>
      </trkpt>
      <trkpt lat="42.94127" lon="0.32641">
        <ele>1495.8</ele>
        <time>2021-10-02T07:43:15Z</time>
      </trkpt>
      <trkpt lat="42.94127" lon="0.32639">
        <ele>1495.8</ele>
        <time>2021-10-02T07:43:16Z</time>
      </trkpt>
      <trkpt lat="42.94127" lon="0.32637">
        <ele>1496</ele>
        <time>2021-10-02T07:43:17Z</time>
      </trkpt>
      <trkpt lat="42.94127" lon="0.32635">
        <ele>1496.2</ele>
        <time>2021-10-02T07:43:18Z</time>
      </trkpt>
      <trkpt lat="42.94127" lon="0.32633">
        <ele>1496.2</ele>
        <time>2021-10-02T07:43:19Z</time>
      </trkpt>
      <trkpt lat="42.94127" lon="0.32632">
        <ele>1496.4</ele>
        <time>2021-10-02T07:43:20Z</time>
      </trkpt>
      <trkpt lat="42.94126" lon="0.3263">
        <ele>1496.6</ele>
        <time>2021-10-02T07:43:21Z</time>
      </trkpt>
      <trkpt lat="42.94126" lon="0.32629">
        <ele>1496.8</ele>
        <time>2021-10-02T07:43:22Z</time>
      </trkpt>
      <trkpt lat="42.94126" lon="0.32627">
        <ele>1497</ele>
        <time>2021-10-02T07:43:23Z</time>
      </trkpt>
      <trkpt lat="42.94126" lon="0.32626">
        <ele>1497.2</ele>
        <time>2021-10-02T07:43:24Z</time>
      </trkpt>
      <trkpt lat="42.94125" lon="0.32624">
        <ele>1497.2</ele>
        <time>2021-10-02T07:43:25Z</time>
      </trkpt>
      <trkpt lat="42.94125" lon="0.32622">
        <ele>1497.4</ele>
        <time>2021-10-02T07:43:26Z</time>
      </trkpt>
      <trkpt lat="42.94125" lon="0.32621">
        <ele>1497.6</ele>
        <time>2021-10-02T07:43:27Z</time>
      </trkpt>
      <trkpt lat="42.94125" lon="0.3262">
        <ele>1497.8</ele>
        <time>2021-10-02T07:43:28Z</time>
      </trkpt>
      <trkpt lat="42.94124" lon="0.32618">
        <ele>1498</ele>
        <time>2021-10-02T07:43:29Z</time>
      </trkpt>
      <trkpt lat="42.94124" lon="0.32616">
        <ele>1498.4</ele>
        <time>2021-10-02T07:43:30Z</time>
      </trkpt>
      <trkpt lat="42.94123" lon="0.32615">
        <ele>1498.6</ele>
        <time>2021-10-02T07:43:31Z</time>
      </trkpt>
      <trkpt lat="42.94123" lon="0.32613">
        <ele>1498.8</ele>
        <time>2021-10-02T07:43:32Z</time>
      </trkpt>
      <trkpt lat="42.94122" lon="0.32612">
        <ele>1499</ele>
        <time>2021-10-02T07:43:33Z</time>
      </trkpt>
      <trkpt lat="42.94121" lon="0.3261">
        <ele>1499.6</ele>
        <time>2021-10-02T07:43:34Z</time>
      </trkpt>
      <trkpt lat="42.94121" lon="0.32609">
        <ele>1499.8</ele>
        <time>2021-10-02T07:43:35Z</time>
      </trkpt>
      <trkpt lat="42.9412" lon="0.32607">
        <ele>1500</ele>
        <time>2021-10-02T07:43:36Z</time>
      </trkpt>
      <trkpt lat="42.94119" lon="0.32606">
        <ele>1500.2</ele>
        <time>2021-10-02T07:43:37Z</time>
      </trkpt>
      <trkpt lat="42.94118" lon="0.32605">
        <ele>1500.6</ele>
        <time>2021-10-02T07:43:38Z</time>
      </trkpt>
      <trkpt lat="42.94118" lon="0.32604">
        <ele>1500.8</ele>
        <time>2021-10-02T07:43:39Z</time>
      </trkpt>
      <trkpt lat="42.94117" lon="0.32603">
        <ele>1501</ele>
        <time>2021-10-02T07:43:40Z</time>
      </trkpt>
      <trkpt lat="42.94116" lon="0.32602">
        <ele>1501.2</ele>
        <time>2021-10-02T07:43:41Z</time>
      </trkpt>
      <trkpt lat="42.94115" lon="0.326">
        <ele>1501.6</ele>
        <time>2021-10-02T07:43:42Z</time>
      </trkpt>
      <trkpt lat="42.94114" lon="0.32599">
        <ele>1501.6</ele>
        <time>2021-10-02T07:43:43Z</time>
      </trkpt>
      <trkpt lat="42.94113" lon="0.32598">
        <ele>1502</ele>
        <time>2021-10-02T07:43:44Z</time>
      </trkpt>
      <trkpt lat="42.94113" lon="0.32597">
        <ele>1502.6</ele>
        <time>2021-10-02T07:43:45Z</time>
      </trkpt>
      <trkpt lat="42.94112" lon="0.32595">
        <ele>1502.8</ele>
        <time>2021-10-02T07:43:46Z</time>
      </trkpt>
      <trkpt lat="42.94111" lon="0.32594">
        <ele>1503</ele>
        <time>2021-10-02T07:43:47Z</time>
      </trkpt>
      <trkpt lat="42.94111" lon="0.32593">
        <ele>1503</ele>
        <time>2021-10-02T07:43:48Z</time>
      </trkpt>
      <trkpt lat="42.9411" lon="0.32591">
        <ele>1503.4</ele>
        <time>2021-10-02T07:43:49Z</time>
      </trkpt>
      <trkpt lat="42.94109" lon="0.3259">
        <ele>1503.4</ele>
        <time>2021-10-02T07:43:50Z</time>
      </trkpt>
      <trkpt lat="42.94109" lon="0.32589">
        <ele>1503.8</ele>
        <time>2021-10-02T07:43:51Z</time>
      </trkpt>
      <trkpt lat="42.94108" lon="0.32588">
        <ele>1503.8</ele>
        <time>2021-10-02T07:43:52Z</time>
      </trkpt>
      <trkpt lat="42.94108" lon="0.32587">
        <ele>1504.4</ele>
        <time>2021-10-02T07:43:53Z</time>
      </trkpt>
      <trkpt lat="42.94107" lon="0.32585">
        <ele>1504.6</ele>
        <time>2021-10-02T07:43:54Z</time>
      </trkpt>
      <trkpt lat="42.94107" lon="0.32584">
        <ele>1504.8</ele>
        <time>2021-10-02T07:43:55Z</time>
      </trkpt>
      <trkpt lat="42.94106" lon="0.32583">
        <ele>1505</ele>
        <time>2021-10-02T07:43:56Z</time>
      </trkpt>
      <trkpt lat="42.94105" lon="0.32582">
        <ele>1505.4</ele>
        <time>2021-10-02T07:43:57Z</time>
      </trkpt>
      <trkpt lat="42.94104" lon="0.32581">
        <ele>1505.4</ele>
        <time>2021-10-02T07:43:58Z</time>
      </trkpt>
      <trkpt lat="42.94104" lon="0.32579">
        <ele>1505.6</ele>
        <time>2021-10-02T07:43:59Z</time>
      </trkpt>
      <trkpt lat="42.94103" lon="0.32578">
        <ele>1505.8</ele>
        <time>2021-10-02T07:44:00Z</time>
      </trkpt>
      <trkpt lat="42.94103" lon="0.32577">
        <ele>1506</ele>
        <time>2021-10-02T07:44:01Z</time>
      </trkpt>
      <trkpt lat="42.94102" lon="0.32575">
        <ele>1506.2</ele>
        <time>2021-10-02T07:44:02Z</time>
      </trkpt>
      <trkpt lat="42.94101" lon="0.32574">
        <ele>1506.4</ele>
        <time>2021-10-02T07:44:03Z</time>
      </trkpt>
      <trkpt lat="42.94101" lon="0.32573">
        <ele>1506.6</ele>
        <time>2021-10-02T07:44:04Z</time>
      </trkpt>
      <trkpt lat="42.941" lon="0.32572">
        <ele>1506.8</ele>
        <time>2021-10-02T07:44:05Z</time>
      </trkpt>
      <trkpt lat="42.94099" lon="0.32572">
        <ele>1506.8</ele>
        <time>2021-10-02T07:44:06Z</time>
      </trkpt>
      <trkpt lat="42.94098" lon="0.32571">
        <ele>1507</ele>
        <time>2021-10-02T07:44:07Z</time>
      </trkpt>
      <trkpt lat="42.94098" lon="0.3257">
        <ele>1507.2</ele>
        <time>2021-10-02T07:44:08Z</time>
      </trkpt>
      <trkpt lat="42.94097" lon="0.32569">
        <ele>1507.4</ele>
        <time>2021-10-02T07:44:09Z</time>
      </trkpt>
      <trkpt lat="42.94096" lon="0.32568">
        <ele>1507.8</ele>
        <time>2021-10-02T07:44:10Z</time>
      </trkpt>
      <trkpt lat="42.94096" lon="0.32566">
        <ele>1507.8</ele>
        <time>2021-10-02T07:44:11Z</time>
      </trkpt>
      <trkpt lat="42.94095" lon="0.32565">
        <ele>1508.2</ele>
        <time>2021-10-02T07:44:12Z</time>
      </trkpt>
      <trkpt lat="42.94094" lon="0.32563">
        <ele>1508.4</ele>
        <time>2021-10-02T07:44:13Z</time>
      </trkpt>
      <trkpt lat="42.94094" lon="0.32562">
        <ele>1508.6</ele>
        <time>2021-10-02T07:44:14Z</time>
      </trkpt>
      <trkpt lat="42.94093" lon="0.32561">
        <ele>1508.8</ele>
        <time>2021-10-02T07:44:15Z</time>
      </trkpt>
      <trkpt lat="42.94092" lon="0.32559">
        <ele>1509</ele>
        <time>2021-10-02T07:44:16Z</time>
      </trkpt>
      <trkpt lat="42.94092" lon="0.32558">
        <ele>1509.2</ele>
        <time>2021-10-02T07:44:17Z</time>
      </trkpt>
      <trkpt lat="42.94091" lon="0.32557">
        <ele>1509.4</ele>
        <time>2021-10-02T07:44:18Z</time>
      </trkpt>
      <trkpt lat="42.94091" lon="0.32556">
        <ele>1509.8</ele>
        <time>2021-10-02T07:44:19Z</time>
      </trkpt>
      <trkpt lat="42.94091" lon="0.32555">
        <ele>1510.2</ele>
        <time>2021-10-02T07:44:20Z</time>
      </trkpt>
      <trkpt lat="42.94091" lon="0.32553">
        <ele>1510.4</ele>
        <time>2021-10-02T07:44:21Z</time>
      </trkpt>
      <trkpt lat="42.9409" lon="0.32552">
        <ele>1510.6</ele>
        <time>2021-10-02T07:44:22Z</time>
      </trkpt>
      <trkpt lat="42.9409" lon="0.32551">
        <ele>1510.6</ele>
        <time>2021-10-02T07:44:23Z</time>
      </trkpt>
      <trkpt lat="42.94089" lon="0.32549">
        <ele>1511</ele>
        <time>2021-10-02T07:44:24Z</time>
      </trkpt>
      <trkpt lat="42.94089" lon="0.32548">
        <ele>1511.4</ele>
        <time>2021-10-02T07:44:25Z</time>
      </trkpt>
      <trkpt lat="42.94088" lon="0.32547">
        <ele>1511.6</ele>
        <time>2021-10-02T07:44:26Z</time>
      </trkpt>
      <trkpt lat="42.94088" lon="0.32546">
        <ele>1512</ele>
        <time>2021-10-02T07:44:27Z</time>
      </trkpt>
      <trkpt lat="42.94087" lon="0.32545">
        <ele>1512</ele>
        <time>2021-10-02T07:44:28Z</time>
      </trkpt>
      <trkpt lat="42.94087" lon="0.32543">
        <ele>1512.4</ele>
        <time>2021-10-02T07:44:29Z</time>
      </trkpt>
      <trkpt lat="42.94087" lon="0.32542">
        <ele>1512.6</ele>
        <time>2021-10-02T07:44:30Z</time>
      </trkpt>
      <trkpt lat="42.94086" lon="0.32541">
        <ele>1512.8</ele>
        <time>2021-10-02T07:44:31Z</time>
      </trkpt>
      <trkpt lat="42.94085" lon="0.32539">
        <ele>1513</ele>
        <time>2021-10-02T07:44:32Z</time>
      </trkpt>
      <trkpt lat="42.94085" lon="0.32538">
        <ele>1513.4</ele>
        <time>2021-10-02T07:44:33Z</time>
      </trkpt>
      <trkpt lat="42.94085" lon="0.32537">
        <ele>1513.4</ele>
        <time>2021-10-02T07:44:34Z</time>
      </trkpt>
      <trkpt lat="42.94085" lon="0.32535">
        <ele>1513.6</ele>
        <time>2021-10-02T07:44:35Z</time>
      </trkpt>
      <trkpt lat="42.94085" lon="0.32534">
        <ele>1513.8</ele>
        <time>2021-10-02T07:44:36Z</time>
      </trkpt>
      <trkpt lat="42.94084" lon="0.32533">
        <ele>1514</ele>
        <time>2021-10-02T07:44:37Z</time>
      </trkpt>
      <trkpt lat="42.94084" lon="0.32532">
        <ele>1514.2</ele>
        <time>2021-10-02T07:44:38Z</time>
      </trkpt>
      <trkpt lat="42.94084" lon="0.3253">
        <ele>1514.4</ele>
        <time>2021-10-02T07:44:39Z</time>
      </trkpt>
      <trkpt lat="42.94084" lon="0.32529">
        <ele>1514.6</ele>
        <time>2021-10-02T07:44:40Z</time>
      </trkpt>
      <trkpt lat="42.94084" lon="0.32528">
        <ele>1514.8</ele>
        <time>2021-10-02T07:44:41Z</time>
      </trkpt>
      <trkpt lat="42.94084" lon="0.32527">
        <ele>1515</ele>
        <time>2021-10-02T07:44:42Z</time>
      </trkpt>
      <trkpt lat="42.94083" lon="0.32526">
        <ele>1515.4</ele>
        <time>2021-10-02T07:44:43Z</time>
      </trkpt>
      <trkpt lat="42.94083" lon="0.32524">
        <ele>1515.6</ele>
        <time>2021-10-02T07:44:44Z</time>
      </trkpt>
      <trkpt lat="42.94082" lon="0.32523">
        <ele>1515.8</ele>
        <time>2021-10-02T07:44:45Z</time>
      </trkpt>
      <trkpt lat="42.94082" lon="0.32522">
        <ele>1516.2</ele>
        <time>2021-10-02T07:44:46Z</time>
      </trkpt>
      <trkpt lat="42.94081" lon="0.3252">
        <ele>1516.4</ele>
        <time>2021-10-02T07:44:47Z</time>
      </trkpt>
      <trkpt lat="42.94081" lon="0.32519">
        <ele>1516.6</ele>
        <time>2021-10-02T07:44:48Z</time>
      </trkpt>
      <trkpt lat="42.94081" lon="0.32518">
        <ele>1516.8</ele>
        <time>2021-10-02T07:44:49Z</time>
      </trkpt>
      <trkpt lat="42.9408" lon="0.32517">
        <ele>1517</ele>
        <time>2021-10-02T07:44:50Z</time>
      </trkpt>
      <trkpt lat="42.9408" lon="0.32515">
        <ele>1517.2</ele>
        <time>2021-10-02T07:44:51Z</time>
      </trkpt>
      <trkpt lat="42.94079" lon="0.32514">
        <ele>1517.4</ele>
        <time>2021-10-02T07:44:52Z</time>
      </trkpt>
      <trkpt lat="42.94079" lon="0.32512">
        <ele>1517.4</ele>
        <time>2021-10-02T07:44:53Z</time>
      </trkpt>
      <trkpt lat="42.94078" lon="0.32511">
        <ele>1517.8</ele>
        <time>2021-10-02T07:44:54Z</time>
      </trkpt>
      <trkpt lat="42.94078" lon="0.32509">
        <ele>1518.2</ele>
        <time>2021-10-02T07:44:55Z</time>
      </trkpt>
      <trkpt lat="42.94078" lon="0.32508">
        <ele>1518.4</ele>
        <time>2021-10-02T07:44:56Z</time>
      </trkpt>
      <trkpt lat="42.94078" lon="0.32507">
        <ele>1518.6</ele>
        <time>2021-10-02T07:44:57Z</time>
      </trkpt>
      <trkpt lat="42.94078" lon="0.32506">
        <ele>1518.8</ele>
        <time>2021-10-02T07:44:58Z</time>
      </trkpt>
      <trkpt lat="42.94077" lon="0.32504">
        <ele>1519</ele>
        <time>2021-10-02T07:44:59Z</time>
      </trkpt>
      <trkpt lat="42.94077" lon="0.32503">
        <ele>1519.2</ele>
        <time>2021-10-02T07:45:00Z</time>
      </trkpt>
      <trkpt lat="42.94076" lon="0.32502">
        <ele>1519.4</ele>
        <time>2021-10-02T07:45:01Z</time>
      </trkpt>
      <trkpt lat="42.94076" lon="0.32501">
        <ele>1519.6</ele>
        <time>2021-10-02T07:45:02Z</time>
      </trkpt>
      <trkpt lat="42.94076" lon="0.32499">
        <ele>1519.6</ele>
        <time>2021-10-02T07:45:03Z</time>
      </trkpt>
      <trkpt lat="42.94076" lon="0.32498">
        <ele>1520</ele>
        <time>2021-10-02T07:45:04Z</time>
      </trkpt>
      <trkpt lat="42.94075" lon="0.32496">
        <ele>1520.4</ele>
        <time>2021-10-02T07:45:05Z</time>
      </trkpt>
      <trkpt lat="42.94075" lon="0.32495">
        <ele>1520.6</ele>
        <time>2021-10-02T07:45:06Z</time>
      </trkpt>
      <trkpt lat="42.94075" lon="0.32493">
        <ele>1520.6</ele>
        <time>2021-10-02T07:45:07Z</time>
      </trkpt>
      <trkpt lat="42.94075" lon="0.32492">
        <ele>1520.8</ele>
        <time>2021-10-02T07:45:08Z</time>
      </trkpt>
      <trkpt lat="42.94074" lon="0.32491">
        <ele>1521</ele>
        <time>2021-10-02T07:45:09Z</time>
      </trkpt>
      <trkpt lat="42.94074" lon="0.3249">
        <ele>1521.2</ele>
        <time>2021-10-02T07:45:10Z</time>
      </trkpt>
      <trkpt lat="42.94074" lon="0.32489">
        <ele>1521.4</ele>
        <time>2021-10-02T07:45:11Z</time>
      </trkpt>
      <trkpt lat="42.94073" lon="0.32488">
        <ele>1521.6</ele>
        <time>2021-10-02T07:45:12Z</time>
      </trkpt>
      <trkpt lat="42.94073" lon="0.32487">
        <ele>1521.8</ele>
        <time>2021-10-02T07:45:13Z</time>
      </trkpt>
      <trkpt lat="42.94072" lon="0.32485">
        <ele>1521.8</ele>
        <time>2021-10-02T07:45:14Z</time>
      </trkpt>
      <trkpt lat="42.94072" lon="0.32484">
        <ele>1522</ele>
        <time>2021-10-02T07:45:15Z</time>
      </trkpt>
      <trkpt lat="42.94072" lon="0.32483">
        <ele>1522</ele>
        <time>2021-10-02T07:45:16Z</time>
      </trkpt>
      <trkpt lat="42.94071" lon="0.32482">
        <ele>1522.6</ele>
        <time>2021-10-02T07:45:17Z</time>
      </trkpt>
      <trkpt lat="42.94071" lon="0.32481">
        <ele>1522.6</ele>
        <time>2021-10-02T07:45:18Z</time>
      </trkpt>
      <trkpt lat="42.94071" lon="0.3248">
        <ele>1523</ele>
        <time>2021-10-02T07:45:19Z</time>
      </trkpt>
      <trkpt lat="42.94071" lon="0.32479">
        <ele>1523</ele>
        <time>2021-10-02T07:45:20Z</time>
      </trkpt>
      <trkpt lat="42.94071" lon="0.32478">
        <ele>1523.2</ele>
        <time>2021-10-02T07:45:21Z</time>
      </trkpt>
      <trkpt lat="42.94071" lon="0.32478">
        <ele>1523.2</ele>
        <time>2021-10-02T07:45:22Z</time>
      </trkpt>
      <trkpt lat="42.94071" lon="0.32478">
        <ele>1523.8</ele>
        <time>2021-10-02T07:45:24Z</time>
      </trkpt>
      <trkpt lat="42.94071" lon="0.32478">
        <ele>1524.6</ele>
        <time>2021-10-02T07:45:32Z</time>
      </trkpt>
      <trkpt lat="42.94071" lon="0.32478">
        <ele>1524.8</ele>
        <time>2021-10-02T07:45:55Z</time>
      </trkpt>
      <trkpt lat="42.94069" lon="0.3247">
        <ele>1525.4</ele>
        <time>2021-10-02T07:46:01Z</time>
      </trkpt>
      <trkpt lat="42.94068" lon="0.32465">
        <ele>1525.8</ele>
        <time>2021-10-02T07:46:04Z</time>
      </trkpt>
      <trkpt lat="42.94067" lon="0.3246">
        <ele>1526.4</ele>
        <time>2021-10-02T07:46:07Z</time>
      </trkpt>
      <trkpt lat="42.94066" lon="0.32459">
        <ele>1526.6</ele>
        <time>2021-10-02T07:46:08Z</time>
      </trkpt>
      <trkpt lat="42.94066" lon="0.32457">
        <ele>1527</ele>
        <time>2021-10-02T07:46:10Z</time>
      </trkpt>
      <trkpt lat="42.94066" lon="0.32456">
        <ele>1527</ele>
        <time>2021-10-02T07:46:11Z</time>
      </trkpt>
      <trkpt lat="42.94066" lon="0.32455">
        <ele>1527.4</ele>
        <time>2021-10-02T07:46:12Z</time>
      </trkpt>
      <trkpt lat="42.94066" lon="0.32455">
        <ele>1527.6</ele>
        <time>2021-10-02T07:46:13Z</time>
      </trkpt>
      <trkpt lat="42.94066" lon="0.32454">
        <ele>1528</ele>
        <time>2021-10-02T07:46:14Z</time>
      </trkpt>
      <trkpt lat="42.94065" lon="0.32452">
        <ele>1528</ele>
        <time>2021-10-02T07:46:15Z</time>
      </trkpt>
      <trkpt lat="42.94065" lon="0.32451">
        <ele>1528.2</ele>
        <time>2021-10-02T07:46:16Z</time>
      </trkpt>
      <trkpt lat="42.94065" lon="0.3245">
        <ele>1528.4</ele>
        <time>2021-10-02T07:46:17Z</time>
      </trkpt>
      <trkpt lat="42.94064" lon="0.32449">
        <ele>1528.8</ele>
        <time>2021-10-02T07:46:18Z</time>
      </trkpt>
      <trkpt lat="42.94064" lon="0.32448">
        <ele>1528.6</ele>
        <time>2021-10-02T07:46:19Z</time>
      </trkpt>
      <trkpt lat="42.94064" lon="0.32447">
        <ele>1528.8</ele>
        <time>2021-10-02T07:46:20Z</time>
      </trkpt>
      <trkpt lat="42.94064" lon="0.32446">
        <ele>1528.8</ele>
        <time>2021-10-02T07:46:21Z</time>
      </trkpt>
      <trkpt lat="42.94064" lon="0.32445">
        <ele>1529.2</ele>
        <time>2021-10-02T07:46:22Z</time>
      </trkpt>
      <trkpt lat="42.94063" lon="0.32444">
        <ele>1529.4</ele>
        <time>2021-10-02T07:46:23Z</time>
      </trkpt>
      <trkpt lat="42.94063" lon="0.32444">
        <ele>1529.4</ele>
        <time>2021-10-02T07:46:24Z</time>
      </trkpt>
      <trkpt lat="42.94063" lon="0.32443">
        <ele>1529.8</ele>
        <time>2021-10-02T07:46:25Z</time>
      </trkpt>
      <trkpt lat="42.94062" lon="0.32442">
        <ele>1530</ele>
        <time>2021-10-02T07:46:26Z</time>
      </trkpt>
      <trkpt lat="42.94062" lon="0.32441">
        <ele>1530.2</ele>
        <time>2021-10-02T07:46:27Z</time>
      </trkpt>
      <trkpt lat="42.94062" lon="0.32441">
        <ele>1530.6</ele>
        <time>2021-10-02T07:46:28Z</time>
      </trkpt>
      <trkpt lat="42.94061" lon="0.3244">
        <ele>1530.8</ele>
        <time>2021-10-02T07:46:29Z</time>
      </trkpt>
      <trkpt lat="42.94061" lon="0.3244">
        <ele>1530.8</ele>
        <time>2021-10-02T07:46:30Z</time>
      </trkpt>
      <trkpt lat="42.94061" lon="0.32439">
        <ele>1531.2</ele>
        <time>2021-10-02T07:46:31Z</time>
      </trkpt>
      <trkpt lat="42.94061" lon="0.32439">
        <ele>1531.4</ele>
        <time>2021-10-02T07:46:32Z</time>
      </trkpt>
      <trkpt lat="42.94061" lon="0.32438">
        <ele>1531.4</ele>
        <time>2021-10-02T07:46:33Z</time>
      </trkpt>
      <trkpt lat="42.94061" lon="0.32438">
        <ele>1531.4</ele>
        <time>2021-10-02T07:46:34Z</time>
      </trkpt>
      <trkpt lat="42.94061" lon="0.32438">
        <ele>1532</ele>
        <time>2021-10-02T07:46:35Z</time>
      </trkpt>
      <trkpt lat="42.9406" lon="0.32438">
        <ele>1532</ele>
        <time>2021-10-02T07:46:36Z</time>
      </trkpt>
      <trkpt lat="42.9406" lon="0.32437">
        <ele>1532.4</ele>
        <time>2021-10-02T07:46:37Z</time>
      </trkpt>
      <trkpt lat="42.9406" lon="0.32436">
        <ele>1532.6</ele>
        <time>2021-10-02T07:46:38Z</time>
      </trkpt>
      <trkpt lat="42.94059" lon="0.32436">
        <ele>1532.8</ele>
        <time>2021-10-02T07:46:39Z</time>
      </trkpt>
      <trkpt lat="42.94058" lon="0.32435">
        <ele>1532.8</ele>
        <time>2021-10-02T07:46:40Z</time>
      </trkpt>
      <trkpt lat="42.94058" lon="0.32435">
        <ele>1532.8</ele>
        <time>2021-10-02T07:46:41Z</time>
      </trkpt>
      <trkpt lat="42.94058" lon="0.32435">
        <ele>1532.8</ele>
        <time>2021-10-02T07:46:42Z</time>
      </trkpt>
      <trkpt lat="42.94057" lon="0.32434">
        <ele>1533.2</ele>
        <time>2021-10-02T07:46:43Z</time>
      </trkpt>
      <trkpt lat="42.94057" lon="0.32434">
        <ele>1533.4</ele>
        <time>2021-10-02T07:46:44Z</time>
      </trkpt>
      <trkpt lat="42.94057" lon="0.32434">
        <ele>1533.8</ele>
        <time>2021-10-02T07:46:45Z</time>
      </trkpt>
      <trkpt lat="42.94057" lon="0.32434">
        <ele>1534</ele>
        <time>2021-10-02T07:46:47Z</time>
      </trkpt>
      <trkpt lat="42.94057" lon="0.32434">
        <ele>1534</ele>
        <time>2021-10-02T07:46:48Z</time>
      </trkpt>
      <trkpt lat="42.94057" lon="0.32434">
        <ele>1534.6</ele>
        <time>2021-10-02T07:46:50Z</time>
      </trkpt>
      <trkpt lat="42.94056" lon="0.32432">
        <ele>1535.2</ele>
        <time>2021-10-02T07:46:53Z</time>
      </trkpt>
      <trkpt lat="42.94056" lon="0.32431">
        <ele>1535.4</ele>
        <time>2021-10-02T07:46:56Z</time>
      </trkpt>
      <trkpt lat="42.94056" lon="0.32431">
        <ele>1536.6</ele>
        <time>2021-10-02T07:47:02Z</time>
      </trkpt>
      <trkpt lat="42.94056" lon="0.32431">
        <ele>1537.2</ele>
        <time>2021-10-02T07:47:05Z</time>
      </trkpt>
      <trkpt lat="42.94055" lon="0.32429">
        <ele>1537.2</ele>
        <time>2021-10-02T07:47:06Z</time>
      </trkpt>
      <trkpt lat="42.94054" lon="0.32428">
        <ele>1537.6</ele>
        <time>2021-10-02T07:47:07Z</time>
      </trkpt>
      <trkpt lat="42.94054" lon="0.32427">
        <ele>1537.6</ele>
        <time>2021-10-02T07:47:08Z</time>
      </trkpt>
      <trkpt lat="42.94054" lon="0.32427">
        <ele>1537.8</ele>
        <time>2021-10-02T07:47:09Z</time>
      </trkpt>
      <trkpt lat="42.94054" lon="0.32427">
        <ele>1538.8</ele>
        <time>2021-10-02T07:47:13Z</time>
      </trkpt>
      <trkpt lat="42.94054" lon="0.32427">
        <ele>1538.8</ele>
        <time>2021-10-02T07:47:14Z</time>
      </trkpt>
      <trkpt lat="42.94053" lon="0.32426">
        <ele>1539.2</ele>
        <time>2021-10-02T07:47:16Z</time>
      </trkpt>
      <trkpt lat="42.94053" lon="0.32426">
        <ele>1540</ele>
        <time>2021-10-02T07:47:21Z</time>
      </trkpt>
      <trkpt lat="42.94052" lon="0.32424">
        <ele>1541</ele>
        <time>2021-10-02T07:47:28Z</time>
      </trkpt>
      <trkpt lat="42.94051" lon="0.3242">
        <ele>1542</ele>
        <time>2021-10-02T07:47:36Z</time>
      </trkpt>
      <trkpt lat="42.94049" lon="0.32418">
        <ele>1543.2</ele>
        <time>2021-10-02T07:47:43Z</time>
      </trkpt>
      <trkpt lat="42.94049" lon="0.32417">
        <ele>1544.2</ele>
        <time>2021-10-02T07:47:52Z</time>
      </trkpt>
      <trkpt lat="42.94048" lon="0.32416">
        <ele>1545.6</ele>
        <time>2021-10-02T07:48:02Z</time>
      </trkpt>
      <trkpt lat="42.94048" lon="0.32414">
        <ele>1546.6</ele>
        <time>2021-10-02T07:48:09Z</time>
      </trkpt>
      <trkpt lat="42.94048" lon="0.32414">
        <ele>1547.8</ele>
        <time>2021-10-02T07:48:17Z</time>
      </trkpt>
      <trkpt lat="42.94047" lon="0.32411">
        <ele>1548</ele>
        <time>2021-10-02T07:48:20Z</time>
      </trkpt>
      <trkpt lat="42.94044" lon="0.32407">
        <ele>1548.2</ele>
        <time>2021-10-02T07:48:22Z</time>
      </trkpt>
      <trkpt lat="42.94042" lon="0.32405">
        <ele>1548.4</ele>
        <time>2021-10-02T07:48:23Z</time>
      </trkpt>
      <trkpt lat="42.94041" lon="0.32404">
        <ele>1548.4</ele>
        <time>2021-10-02T07:48:24Z</time>
      </trkpt>
      <trkpt lat="42.94041" lon="0.32403">
        <ele>1548.6</ele>
        <time>2021-10-02T07:48:25Z</time>
      </trkpt>
      <trkpt lat="42.9404" lon="0.32402">
        <ele>1548.6</ele>
        <time>2021-10-02T07:48:26Z</time>
      </trkpt>
      <trkpt lat="42.94038" lon="0.32399">
        <ele>1548.8</ele>
        <time>2021-10-02T07:48:27Z</time>
      </trkpt>
      <trkpt lat="42.94037" lon="0.32395">
        <ele>1549</ele>
        <time>2021-10-02T07:48:28Z</time>
      </trkpt>
      <trkpt lat="42.94036" lon="0.32393">
        <ele>1549.2</ele>
        <time>2021-10-02T07:48:29Z</time>
      </trkpt>
      <trkpt lat="42.94036" lon="0.32393">
        <ele>1549.4</ele>
        <time>2021-10-02T07:48:30Z</time>
      </trkpt>
      <trkpt lat="42.94036" lon="0.32393">
        <ele>1549.6</ele>
        <time>2021-10-02T07:48:32Z</time>
      </trkpt>
      <trkpt lat="42.94034" lon="0.3239">
        <ele>1549.8</ele>
        <time>2021-10-02T07:48:33Z</time>
      </trkpt>
      <trkpt lat="42.94031" lon="0.32388">
        <ele>1549.8</ele>
        <time>2021-10-02T07:48:34Z</time>
      </trkpt>
      <trkpt lat="42.94029" lon="0.32386">
        <ele>1550</ele>
        <time>2021-10-02T07:48:35Z</time>
      </trkpt>
      <trkpt lat="42.94029" lon="0.32386">
        <ele>1550</ele>
        <time>2021-10-02T07:48:36Z</time>
      </trkpt>
      <trkpt lat="42.94029" lon="0.32386">
        <ele>1550.2</ele>
        <time>2021-10-02T07:48:37Z</time>
      </trkpt>
      <trkpt lat="42.94027" lon="0.32383">
        <ele>1550.4</ele>
        <time>2021-10-02T07:48:38Z</time>
      </trkpt>
      <trkpt lat="42.94024" lon="0.32381">
        <ele>1550.6</ele>
        <time>2021-10-02T07:48:39Z</time>
      </trkpt>
      <trkpt lat="42.94021" lon="0.32376">
        <ele>1550.8</ele>
        <time>2021-10-02T07:48:40Z</time>
      </trkpt>
      <trkpt lat="42.94021" lon="0.32376">
        <ele>1551</ele>
        <time>2021-10-02T07:48:41Z</time>
      </trkpt>
      <trkpt lat="42.9402" lon="0.32374">
        <ele>1551.2</ele>
        <time>2021-10-02T07:48:42Z</time>
      </trkpt>
      <trkpt lat="42.9402" lon="0.32372">
        <ele>1551.4</ele>
        <time>2021-10-02T07:48:43Z</time>
      </trkpt>
      <trkpt lat="42.94019" lon="0.3237">
        <ele>1551.6</ele>
        <time>2021-10-02T07:48:44Z</time>
      </trkpt>
      <trkpt lat="42.94018" lon="0.32367">
        <ele>1551.8</ele>
        <time>2021-10-02T07:48:45Z</time>
      </trkpt>
      <trkpt lat="42.94016" lon="0.32367">
        <ele>1552</ele>
        <time>2021-10-02T07:48:47Z</time>
      </trkpt>
      <trkpt lat="42.94015" lon="0.32366">
        <ele>1552.2</ele>
        <time>2021-10-02T07:48:48Z</time>
      </trkpt>
      <trkpt lat="42.94013" lon="0.32365">
        <ele>1552.2</ele>
        <time>2021-10-02T07:48:49Z</time>
      </trkpt>
      <trkpt lat="42.94012" lon="0.32364">
        <ele>1552.4</ele>
        <time>2021-10-02T07:48:50Z</time>
      </trkpt>
      <trkpt lat="42.94013" lon="0.32363">
        <ele>1552.6</ele>
        <time>2021-10-02T07:48:51Z</time>
      </trkpt>
      <trkpt lat="42.94011" lon="0.32362">
        <ele>1552.8</ele>
        <time>2021-10-02T07:48:52Z</time>
      </trkpt>
      <trkpt lat="42.94011" lon="0.32362">
        <ele>1553</ele>
        <time>2021-10-02T07:48:53Z</time>
      </trkpt>
      <trkpt lat="42.94011" lon="0.32362">
        <ele>1553.2</ele>
        <time>2021-10-02T07:48:54Z</time>
      </trkpt>
      <trkpt lat="42.94009" lon="0.32361">
        <ele>1553.4</ele>
        <time>2021-10-02T07:48:55Z</time>
      </trkpt>
      <trkpt lat="42.94008" lon="0.32362">
        <ele>1553.4</ele>
        <time>2021-10-02T07:48:56Z</time>
      </trkpt>
      <trkpt lat="42.94008" lon="0.32362">
        <ele>1553.6</ele>
        <time>2021-10-02T07:48:57Z</time>
      </trkpt>
      <trkpt lat="42.94007" lon="0.32362">
        <ele>1553.8</ele>
        <time>2021-10-02T07:48:58Z</time>
      </trkpt>
      <trkpt lat="42.94005" lon="0.32362">
        <ele>1554</ele>
        <time>2021-10-02T07:48:59Z</time>
      </trkpt>
      <trkpt lat="42.94004" lon="0.32362">
        <ele>1554</ele>
        <time>2021-10-02T07:49:00Z</time>
      </trkpt>
      <trkpt lat="42.94003" lon="0.32362">
        <ele>1554.2</ele>
        <time>2021-10-02T07:49:01Z</time>
      </trkpt>
      <trkpt lat="42.94002" lon="0.32363">
        <ele>1554.2</ele>
        <time>2021-10-02T07:49:02Z</time>
      </trkpt>
      <trkpt lat="42.94001" lon="0.32362">
        <ele>1554.2</ele>
        <time>2021-10-02T07:49:03Z</time>
      </trkpt>
      <trkpt lat="42.94001" lon="0.32362">
        <ele>1554.4</ele>
        <time>2021-10-02T07:49:04Z</time>
      </trkpt>
      <trkpt lat="42.94" lon="0.32362">
        <ele>1554.6</ele>
        <time>2021-10-02T07:49:05Z</time>
      </trkpt>
      <trkpt lat="42.93999" lon="0.32362">
        <ele>1554.6</ele>
        <time>2021-10-02T07:49:06Z</time>
      </trkpt>
      <trkpt lat="42.93998" lon="0.32363">
        <ele>1554.6</ele>
        <time>2021-10-02T07:49:07Z</time>
      </trkpt>
      <trkpt lat="42.93998" lon="0.32363">
        <ele>1554.8</ele>
        <time>2021-10-02T07:49:08Z</time>
      </trkpt>
      <trkpt lat="42.93997" lon="0.32363">
        <ele>1554.8</ele>
        <time>2021-10-02T07:49:09Z</time>
      </trkpt>
      <trkpt lat="42.93997" lon="0.32363">
        <ele>1555</ele>
        <time>2021-10-02T07:49:10Z</time>
      </trkpt>
      <trkpt lat="42.93996" lon="0.32363">
        <ele>1555</ele>
        <time>2021-10-02T07:49:11Z</time>
      </trkpt>
      <trkpt lat="42.93996" lon="0.32363">
        <ele>1555.2</ele>
        <time>2021-10-02T07:49:12Z</time>
      </trkpt>
      <trkpt lat="42.93996" lon="0.32363">
        <ele>1555.4</ele>
        <time>2021-10-02T07:49:13Z</time>
      </trkpt>
      <trkpt lat="42.93995" lon="0.32363">
        <ele>1555.6</ele>
        <time>2021-10-02T07:49:14Z</time>
      </trkpt>
      <trkpt lat="42.93995" lon="0.32363">
        <ele>1555.8</ele>
        <time>2021-10-02T07:49:15Z</time>
      </trkpt>
      <trkpt lat="42.93993" lon="0.32363">
        <ele>1555.8</ele>
        <time>2021-10-02T07:49:16Z</time>
      </trkpt>
      <trkpt lat="42.93992" lon="0.32363">
        <ele>1556</ele>
        <time>2021-10-02T07:49:17Z</time>
      </trkpt>
      <trkpt lat="42.93992" lon="0.32363">
        <ele>1556.2</ele>
        <time>2021-10-02T07:49:18Z</time>
      </trkpt>
      <trkpt lat="42.9399" lon="0.32363">
        <ele>1556.2</ele>
        <time>2021-10-02T07:49:19Z</time>
      </trkpt>
      <trkpt lat="42.93989" lon="0.32363">
        <ele>1556.4</ele>
        <time>2021-10-02T07:49:20Z</time>
      </trkpt>
      <trkpt lat="42.93988" lon="0.32363">
        <ele>1556.4</ele>
        <time>2021-10-02T07:49:21Z</time>
      </trkpt>
      <trkpt lat="42.93988" lon="0.32363">
        <ele>1556.6</ele>
        <time>2021-10-02T07:49:22Z</time>
      </trkpt>
      <trkpt lat="42.93987" lon="0.32363">
        <ele>1556.6</ele>
        <time>2021-10-02T07:49:23Z</time>
      </trkpt>
      <trkpt lat="42.93985" lon="0.32364">
        <ele>1556.8</ele>
        <time>2021-10-02T07:49:24Z</time>
      </trkpt>
      <trkpt lat="42.93984" lon="0.32364">
        <ele>1556.8</ele>
        <time>2021-10-02T07:49:25Z</time>
      </trkpt>
      <trkpt lat="42.93983" lon="0.32364">
        <ele>1557</ele>
        <time>2021-10-02T07:49:26Z</time>
      </trkpt>
      <trkpt lat="42.93983" lon="0.32364">
        <ele>1557.2</ele>
        <time>2021-10-02T07:49:27Z</time>
      </trkpt>
      <trkpt lat="42.93982" lon="0.32364">
        <ele>1557.4</ele>
        <time>2021-10-02T07:49:28Z</time>
      </trkpt>
      <trkpt lat="42.93981" lon="0.32364">
        <ele>1557.4</ele>
        <time>2021-10-02T07:49:29Z</time>
      </trkpt>
      <trkpt lat="42.9398" lon="0.32365">
        <ele>1557.6</ele>
        <time>2021-10-02T07:49:30Z</time>
      </trkpt>
      <trkpt lat="42.93979" lon="0.32365">
        <ele>1557.8</ele>
        <time>2021-10-02T07:49:31Z</time>
      </trkpt>
      <trkpt lat="42.93979" lon="0.32365">
        <ele>1558</ele>
        <time>2021-10-02T07:49:32Z</time>
      </trkpt>
      <trkpt lat="42.93978" lon="0.32365">
        <ele>1558</ele>
        <time>2021-10-02T07:49:33Z</time>
      </trkpt>
      <trkpt lat="42.93977" lon="0.32365">
        <ele>1558.2</ele>
        <time>2021-10-02T07:49:34Z</time>
      </trkpt>
      <trkpt lat="42.93976" lon="0.32366">
        <ele>1558.2</ele>
        <time>2021-10-02T07:49:35Z</time>
      </trkpt>
      <trkpt lat="42.93975" lon="0.32366">
        <ele>1558.4</ele>
        <time>2021-10-02T07:49:36Z</time>
      </trkpt>
      <trkpt lat="42.93975" lon="0.32366">
        <ele>1558.4</ele>
        <time>2021-10-02T07:49:37Z</time>
      </trkpt>
      <trkpt lat="42.93974" lon="0.32366">
        <ele>1558.6</ele>
        <time>2021-10-02T07:49:38Z</time>
      </trkpt>
      <trkpt lat="42.93973" lon="0.32367">
        <ele>1558.8</ele>
        <time>2021-10-02T07:49:39Z</time>
      </trkpt>
      <trkpt lat="42.93972" lon="0.32367">
        <ele>1558.8</ele>
        <time>2021-10-02T07:49:40Z</time>
      </trkpt>
      <trkpt lat="42.93972" lon="0.32367">
        <ele>1559</ele>
        <time>2021-10-02T07:49:41Z</time>
      </trkpt>
      <trkpt lat="42.93971" lon="0.32368">
        <ele>1559.2</ele>
        <time>2021-10-02T07:49:42Z</time>
      </trkpt>
      <trkpt lat="42.9397" lon="0.32368">
        <ele>1559.4</ele>
        <time>2021-10-02T07:49:43Z</time>
      </trkpt>
      <trkpt lat="42.93969" lon="0.32368">
        <ele>1559.6</ele>
        <time>2021-10-02T07:49:44Z</time>
      </trkpt>
      <trkpt lat="42.93968" lon="0.32368">
        <ele>1559.8</ele>
        <time>2021-10-02T07:49:45Z</time>
      </trkpt>
      <trkpt lat="42.93968" lon="0.32368">
        <ele>1560</ele>
        <time>2021-10-02T07:49:46Z</time>
      </trkpt>
      <trkpt lat="42.93967" lon="0.32368">
        <ele>1560.2</ele>
        <time>2021-10-02T07:49:47Z</time>
      </trkpt>
      <trkpt lat="42.93967" lon="0.32369">
        <ele>1560.4</ele>
        <time>2021-10-02T07:49:48Z</time>
      </trkpt>
      <trkpt lat="42.93966" lon="0.32369">
        <ele>1560.6</ele>
        <time>2021-10-02T07:49:49Z</time>
      </trkpt>
      <trkpt lat="42.93965" lon="0.32369">
        <ele>1560.6</ele>
        <time>2021-10-02T07:49:50Z</time>
      </trkpt>
      <trkpt lat="42.93965" lon="0.32369">
        <ele>1560.8</ele>
        <time>2021-10-02T07:49:51Z</time>
      </trkpt>
      <trkpt lat="42.93965" lon="0.32369">
        <ele>1561</ele>
        <time>2021-10-02T07:49:52Z</time>
      </trkpt>
      <trkpt lat="42.93965" lon="0.32369">
        <ele>1561.4</ele>
        <time>2021-10-02T07:49:53Z</time>
      </trkpt>
      <trkpt lat="42.93965" lon="0.32369">
        <ele>1561.4</ele>
        <time>2021-10-02T07:49:54Z</time>
      </trkpt>
      <trkpt lat="42.93964" lon="0.32369">
        <ele>1561.6</ele>
        <time>2021-10-02T07:49:55Z</time>
      </trkpt>
      <trkpt lat="42.93964" lon="0.32368">
        <ele>1561.6</ele>
        <time>2021-10-02T07:49:56Z</time>
      </trkpt>
      <trkpt lat="42.93964" lon="0.32368">
        <ele>1561.8</ele>
        <time>2021-10-02T07:49:57Z</time>
      </trkpt>
      <trkpt lat="42.93964" lon="0.32368">
        <ele>1561.8</ele>
        <time>2021-10-02T07:49:58Z</time>
      </trkpt>
      <trkpt lat="42.93964" lon="0.32368">
        <ele>1562</ele>
        <time>2021-10-02T07:49:59Z</time>
      </trkpt>
      <trkpt lat="42.93963" lon="0.32368">
        <ele>1562.2</ele>
        <time>2021-10-02T07:50:00Z</time>
      </trkpt>
      <trkpt lat="42.93963" lon="0.32368">
        <ele>1562.2</ele>
        <time>2021-10-02T07:50:01Z</time>
      </trkpt>
      <trkpt lat="42.93962" lon="0.32368">
        <ele>1562.4</ele>
        <time>2021-10-02T07:50:02Z</time>
      </trkpt>
      <trkpt lat="42.93962" lon="0.32368">
        <ele>1563</ele>
        <time>2021-10-02T07:50:06Z</time>
      </trkpt>
      <trkpt lat="42.93961" lon="0.32368">
        <ele>1563.2</ele>
        <time>2021-10-02T07:50:07Z</time>
      </trkpt>
      <trkpt lat="42.93961" lon="0.32368">
        <ele>1563.6</ele>
        <time>2021-10-02T07:50:10Z</time>
      </trkpt>
      <trkpt lat="42.9396" lon="0.32367">
        <ele>1563.6</ele>
        <time>2021-10-02T07:50:11Z</time>
      </trkpt>
      <trkpt lat="42.9396" lon="0.32367">
        <ele>1563.8</ele>
        <time>2021-10-02T07:50:12Z</time>
      </trkpt>
      <trkpt lat="42.9396" lon="0.32367">
        <ele>1564.2</ele>
        <time>2021-10-02T07:50:14Z</time>
      </trkpt>
      <trkpt lat="42.9396" lon="0.32367">
        <ele>1564.4</ele>
        <time>2021-10-02T07:50:16Z</time>
      </trkpt>
      <trkpt lat="42.93958" lon="0.32367">
        <ele>1564.6</ele>
        <time>2021-10-02T07:50:17Z</time>
      </trkpt>
      <trkpt lat="42.93957" lon="0.32367">
        <ele>1565</ele>
        <time>2021-10-02T07:50:20Z</time>
      </trkpt>
      <trkpt lat="42.93957" lon="0.32367">
        <ele>1565.2</ele>
        <time>2021-10-02T07:50:24Z</time>
      </trkpt>
      <trkpt lat="42.93954" lon="0.32365">
        <ele>1565.4</ele>
        <time>2021-10-02T07:50:44Z</time>
      </trkpt>
      <trkpt lat="42.93953" lon="0.32365">
        <ele>1566</ele>
        <time>2021-10-02T07:51:25Z</time>
      </trkpt>
      <trkpt lat="42.93952" lon="0.32365">
        <ele>1566.6</ele>
        <time>2021-10-02T07:51:35Z</time>
      </trkpt>
      <trkpt lat="42.93947" lon="0.32365">
        <ele>1567</ele>
        <time>2021-10-02T07:51:39Z</time>
      </trkpt>
      <trkpt lat="42.93946" lon="0.32365">
        <ele>1567.2</ele>
        <time>2021-10-02T07:51:40Z</time>
      </trkpt>
      <trkpt lat="42.93944" lon="0.32365">
        <ele>1567.4</ele>
        <time>2021-10-02T07:51:44Z</time>
      </trkpt>
      <trkpt lat="42.93941" lon="0.32365">
        <ele>1567.8</ele>
        <time>2021-10-02T07:51:46Z</time>
      </trkpt>
      <trkpt lat="42.93938" lon="0.32365">
        <ele>1568.4</ele>
        <time>2021-10-02T07:51:49Z</time>
      </trkpt>
      <trkpt lat="42.93936" lon="0.32365">
        <ele>1568.6</ele>
        <time>2021-10-02T07:51:50Z</time>
      </trkpt>
      <trkpt lat="42.93934" lon="0.32365">
        <ele>1568.8</ele>
        <time>2021-10-02T07:51:51Z</time>
      </trkpt>
      <trkpt lat="42.93932" lon="0.32364">
        <ele>1569</ele>
        <time>2021-10-02T07:51:52Z</time>
      </trkpt>
      <trkpt lat="42.9393" lon="0.32364">
        <ele>1569</ele>
        <time>2021-10-02T07:51:53Z</time>
      </trkpt>
      <trkpt lat="42.93928" lon="0.32364">
        <ele>1569.2</ele>
        <time>2021-10-02T07:51:54Z</time>
      </trkpt>
      <trkpt lat="42.93925" lon="0.32363">
        <ele>1569.4</ele>
        <time>2021-10-02T07:51:55Z</time>
      </trkpt>
      <trkpt lat="42.93923" lon="0.32363">
        <ele>1569.4</ele>
        <time>2021-10-02T07:51:56Z</time>
      </trkpt>
      <trkpt lat="42.93921" lon="0.32363">
        <ele>1569.6</ele>
        <time>2021-10-02T07:51:57Z</time>
      </trkpt>
      <trkpt lat="42.93919" lon="0.32362">
        <ele>1569.8</ele>
        <time>2021-10-02T07:51:58Z</time>
      </trkpt>
      <trkpt lat="42.93917" lon="0.32362">
        <ele>1570</ele>
        <time>2021-10-02T07:51:59Z</time>
      </trkpt>
      <trkpt lat="42.93915" lon="0.32362">
        <ele>1570.2</ele>
        <time>2021-10-02T07:52:00Z</time>
      </trkpt>
      <trkpt lat="42.93913" lon="0.32361">
        <ele>1570.4</ele>
        <time>2021-10-02T07:52:01Z</time>
      </trkpt>
      <trkpt lat="42.93912" lon="0.32361">
        <ele>1570.6</ele>
        <time>2021-10-02T07:52:02Z</time>
      </trkpt>
      <trkpt lat="42.9391" lon="0.3236">
        <ele>1570.6</ele>
        <time>2021-10-02T07:52:03Z</time>
      </trkpt>
      <trkpt lat="42.93908" lon="0.3236">
        <ele>1570.8</ele>
        <time>2021-10-02T07:52:04Z</time>
      </trkpt>
      <trkpt lat="42.93905" lon="0.3236">
        <ele>1571</ele>
        <time>2021-10-02T07:52:05Z</time>
      </trkpt>
      <trkpt lat="42.93903" lon="0.3236">
        <ele>1571.2</ele>
        <time>2021-10-02T07:52:06Z</time>
      </trkpt>
      <trkpt lat="42.93902" lon="0.32359">
        <ele>1571.4</ele>
        <time>2021-10-02T07:52:07Z</time>
      </trkpt>
      <trkpt lat="42.93901" lon="0.32359">
        <ele>1571.6</ele>
        <time>2021-10-02T07:52:08Z</time>
      </trkpt>
      <trkpt lat="42.93898" lon="0.32359">
        <ele>1571.6</ele>
        <time>2021-10-02T07:52:09Z</time>
      </trkpt>
      <trkpt lat="42.93896" lon="0.32359">
        <ele>1571.8</ele>
        <time>2021-10-02T07:52:10Z</time>
      </trkpt>
      <trkpt lat="42.93895" lon="0.32359">
        <ele>1572</ele>
        <time>2021-10-02T07:52:11Z</time>
      </trkpt>
      <trkpt lat="42.93893" lon="0.32358">
        <ele>1572</ele>
        <time>2021-10-02T07:52:12Z</time>
      </trkpt>
      <trkpt lat="42.93891" lon="0.32357">
        <ele>1572.2</ele>
        <time>2021-10-02T07:52:13Z</time>
      </trkpt>
      <trkpt lat="42.93891" lon="0.32357">
        <ele>1572.6</ele>
        <time>2021-10-02T07:52:14Z</time>
      </trkpt>
      <trkpt lat="42.9389" lon="0.32357">
        <ele>1572.6</ele>
        <time>2021-10-02T07:52:15Z</time>
      </trkpt>
      <trkpt lat="42.93889" lon="0.32356">
        <ele>1572.8</ele>
        <time>2021-10-02T07:52:16Z</time>
      </trkpt>
      <trkpt lat="42.93888" lon="0.32356">
        <ele>1573.2</ele>
        <time>2021-10-02T07:52:17Z</time>
      </trkpt>
      <trkpt lat="42.93886" lon="0.32356">
        <ele>1573.2</ele>
        <time>2021-10-02T07:52:18Z</time>
      </trkpt>
      <trkpt lat="42.93885" lon="0.32356">
        <ele>1573.4</ele>
        <time>2021-10-02T07:52:19Z</time>
      </trkpt>
      <trkpt lat="42.93883" lon="0.32355">
        <ele>1573.6</ele>
        <time>2021-10-02T07:52:20Z</time>
      </trkpt>
      <trkpt lat="42.93882" lon="0.32355">
        <ele>1573.6</ele>
        <time>2021-10-02T07:52:21Z</time>
      </trkpt>
      <trkpt lat="42.93881" lon="0.32354">
        <ele>1573.8</ele>
        <time>2021-10-02T07:52:22Z</time>
      </trkpt>
      <trkpt lat="42.93881" lon="0.32354">
        <ele>1574</ele>
        <time>2021-10-02T07:52:23Z</time>
      </trkpt>
      <trkpt lat="42.9388" lon="0.32354">
        <ele>1574</ele>
        <time>2021-10-02T07:52:24Z</time>
      </trkpt>
      <trkpt lat="42.93879" lon="0.32353">
        <ele>1574.2</ele>
        <time>2021-10-02T07:52:25Z</time>
      </trkpt>
      <trkpt lat="42.93878" lon="0.32353">
        <ele>1574.2</ele>
        <time>2021-10-02T07:52:26Z</time>
      </trkpt>
      <trkpt lat="42.93876" lon="0.32352">
        <ele>1574.4</ele>
        <time>2021-10-02T07:52:27Z</time>
      </trkpt>
      <trkpt lat="42.93875" lon="0.32352">
        <ele>1574.4</ele>
        <time>2021-10-02T07:52:28Z</time>
      </trkpt>
      <trkpt lat="42.93874" lon="0.32351">
        <ele>1574.6</ele>
        <time>2021-10-02T07:52:29Z</time>
      </trkpt>
      <trkpt lat="42.93872" lon="0.3235">
        <ele>1574.8</ele>
        <time>2021-10-02T07:52:30Z</time>
      </trkpt>
      <trkpt lat="42.93871" lon="0.32349">
        <ele>1574.8</ele>
        <time>2021-10-02T07:52:31Z</time>
      </trkpt>
      <trkpt lat="42.9387" lon="0.32349">
        <ele>1575</ele>
        <time>2021-10-02T07:52:32Z</time>
      </trkpt>
      <trkpt lat="42.93868" lon="0.32348">
        <ele>1575.2</ele>
        <time>2021-10-02T07:52:33Z</time>
      </trkpt>
      <trkpt lat="42.93867" lon="0.32347">
        <ele>1575.4</ele>
        <time>2021-10-02T07:52:34Z</time>
      </trkpt>
      <trkpt lat="42.93865" lon="0.32346">
        <ele>1575.6</ele>
        <time>2021-10-02T07:52:35Z</time>
      </trkpt>
      <trkpt lat="42.93864" lon="0.32345">
        <ele>1575.6</ele>
        <time>2021-10-02T07:52:36Z</time>
      </trkpt>
      <trkpt lat="42.93863" lon="0.32345">
        <ele>1575.8</ele>
        <time>2021-10-02T07:52:37Z</time>
      </trkpt>
      <trkpt lat="42.93862" lon="0.32344">
        <ele>1576</ele>
        <time>2021-10-02T07:52:38Z</time>
      </trkpt>
      <trkpt lat="42.9386" lon="0.32343">
        <ele>1576.2</ele>
        <time>2021-10-02T07:52:39Z</time>
      </trkpt>
      <trkpt lat="42.93859" lon="0.32343">
        <ele>1576.4</ele>
        <time>2021-10-02T07:52:40Z</time>
      </trkpt>
      <trkpt lat="42.93857" lon="0.32342">
        <ele>1576.4</ele>
        <time>2021-10-02T07:52:41Z</time>
      </trkpt>
      <trkpt lat="42.93855" lon="0.32342">
        <ele>1576.8</ele>
        <time>2021-10-02T07:52:42Z</time>
      </trkpt>
      <trkpt lat="42.93854" lon="0.3234">
        <ele>1576.8</ele>
        <time>2021-10-02T07:52:43Z</time>
      </trkpt>
      <trkpt lat="42.93853" lon="0.32339">
        <ele>1577</ele>
        <time>2021-10-02T07:52:44Z</time>
      </trkpt>
      <trkpt lat="42.93852" lon="0.32338">
        <ele>1577.2</ele>
        <time>2021-10-02T07:52:45Z</time>
      </trkpt>
      <trkpt lat="42.93851" lon="0.32337">
        <ele>1577.2</ele>
        <time>2021-10-02T07:52:46Z</time>
      </trkpt>
      <trkpt lat="42.9385" lon="0.32337">
        <ele>1577.4</ele>
        <time>2021-10-02T07:52:47Z</time>
      </trkpt>
      <trkpt lat="42.9385" lon="0.32336">
        <ele>1577.6</ele>
        <time>2021-10-02T07:52:48Z</time>
      </trkpt>
      <trkpt lat="42.9385" lon="0.32334">
        <ele>1577.8</ele>
        <time>2021-10-02T07:52:49Z</time>
      </trkpt>
      <trkpt lat="42.93849" lon="0.32334">
        <ele>1578</ele>
        <time>2021-10-02T07:52:50Z</time>
      </trkpt>
      <trkpt lat="42.93848" lon="0.32333">
        <ele>1578</ele>
        <time>2021-10-02T07:52:51Z</time>
      </trkpt>
      <trkpt lat="42.93847" lon="0.32332">
        <ele>1578.2</ele>
        <time>2021-10-02T07:52:52Z</time>
      </trkpt>
      <trkpt lat="42.93846" lon="0.32331">
        <ele>1578.4</ele>
        <time>2021-10-02T07:52:53Z</time>
      </trkpt>
      <trkpt lat="42.93845" lon="0.32331">
        <ele>1578.4</ele>
        <time>2021-10-02T07:52:54Z</time>
      </trkpt>
      <trkpt lat="42.93843" lon="0.3233">
        <ele>1578.6</ele>
        <time>2021-10-02T07:52:55Z</time>
      </trkpt>
      <trkpt lat="42.93842" lon="0.32329">
        <ele>1578.8</ele>
        <time>2021-10-02T07:52:56Z</time>
      </trkpt>
      <trkpt lat="42.93841" lon="0.32328">
        <ele>1579</ele>
        <time>2021-10-02T07:52:57Z</time>
      </trkpt>
      <trkpt lat="42.9384" lon="0.32327">
        <ele>1579.2</ele>
        <time>2021-10-02T07:52:58Z</time>
      </trkpt>
      <trkpt lat="42.93839" lon="0.32327">
        <ele>1579.4</ele>
        <time>2021-10-02T07:52:59Z</time>
      </trkpt>
      <trkpt lat="42.93839" lon="0.32326">
        <ele>1579.6</ele>
        <time>2021-10-02T07:53:00Z</time>
      </trkpt>
      <trkpt lat="42.93839" lon="0.32326">
        <ele>1580</ele>
        <time>2021-10-02T07:53:01Z</time>
      </trkpt>
      <trkpt lat="42.93838" lon="0.32326">
        <ele>1580</ele>
        <time>2021-10-02T07:53:02Z</time>
      </trkpt>
      <trkpt lat="42.93837" lon="0.32325">
        <ele>1580.2</ele>
        <time>2021-10-02T07:53:03Z</time>
      </trkpt>
      <trkpt lat="42.93835" lon="0.32324">
        <ele>1580.4</ele>
        <time>2021-10-02T07:53:04Z</time>
      </trkpt>
      <trkpt lat="42.93833" lon="0.32324">
        <ele>1580.6</ele>
        <time>2021-10-02T07:53:05Z</time>
      </trkpt>
      <trkpt lat="42.93831" lon="0.32322">
        <ele>1580.6</ele>
        <time>2021-10-02T07:53:06Z</time>
      </trkpt>
      <trkpt lat="42.9383" lon="0.32321">
        <ele>1580.8</ele>
        <time>2021-10-02T07:53:07Z</time>
      </trkpt>
      <trkpt lat="42.93828" lon="0.3232">
        <ele>1580.8</ele>
        <time>2021-10-02T07:53:08Z</time>
      </trkpt>
      <trkpt lat="42.93826" lon="0.32319">
        <ele>1580.8</ele>
        <time>2021-10-02T07:53:09Z</time>
      </trkpt>
      <trkpt lat="42.93824" lon="0.32317">
        <ele>1580.8</ele>
        <time>2021-10-02T07:53:10Z</time>
      </trkpt>
      <trkpt lat="42.93822" lon="0.32316">
        <ele>1581.2</ele>
        <time>2021-10-02T07:53:11Z</time>
      </trkpt>
      <trkpt lat="42.93821" lon="0.32314">
        <ele>1581.2</ele>
        <time>2021-10-02T07:53:12Z</time>
      </trkpt>
      <trkpt lat="42.93819" lon="0.32314">
        <ele>1581.6</ele>
        <time>2021-10-02T07:53:13Z</time>
      </trkpt>
      <trkpt lat="42.93817" lon="0.32312">
        <ele>1581.8</ele>
        <time>2021-10-02T07:53:14Z</time>
      </trkpt>
      <trkpt lat="42.93816" lon="0.32311">
        <ele>1582.2</ele>
        <time>2021-10-02T07:53:15Z</time>
      </trkpt>
      <trkpt lat="42.93815" lon="0.3231">
        <ele>1582.2</ele>
        <time>2021-10-02T07:53:16Z</time>
      </trkpt>
      <trkpt lat="42.93815" lon="0.32308">
        <ele>1582.4</ele>
        <time>2021-10-02T07:53:17Z</time>
      </trkpt>
      <trkpt lat="42.93812" lon="0.32306">
        <ele>1582.6</ele>
        <time>2021-10-02T07:53:18Z</time>
      </trkpt>
      <trkpt lat="42.93811" lon="0.32306">
        <ele>1582.6</ele>
        <time>2021-10-02T07:53:19Z</time>
      </trkpt>
      <trkpt lat="42.9381" lon="0.32305">
        <ele>1582.8</ele>
        <time>2021-10-02T07:53:20Z</time>
      </trkpt>
      <trkpt lat="42.93809" lon="0.32305">
        <ele>1583</ele>
        <time>2021-10-02T07:53:21Z</time>
      </trkpt>
      <trkpt lat="42.93807" lon="0.32304">
        <ele>1583</ele>
        <time>2021-10-02T07:53:22Z</time>
      </trkpt>
      <trkpt lat="42.93807" lon="0.32302">
        <ele>1583.2</ele>
        <time>2021-10-02T07:53:23Z</time>
      </trkpt>
      <trkpt lat="42.93806" lon="0.32301">
        <ele>1583.6</ele>
        <time>2021-10-02T07:53:24Z</time>
      </trkpt>
      <trkpt lat="42.93804" lon="0.32301">
        <ele>1583.6</ele>
        <time>2021-10-02T07:53:25Z</time>
      </trkpt>
      <trkpt lat="42.93803" lon="0.323">
        <ele>1583.8</ele>
        <time>2021-10-02T07:53:26Z</time>
      </trkpt>
      <trkpt lat="42.93802" lon="0.32299">
        <ele>1584</ele>
        <time>2021-10-02T07:53:27Z</time>
      </trkpt>
      <trkpt lat="42.93801" lon="0.32298">
        <ele>1584.2</ele>
        <time>2021-10-02T07:53:28Z</time>
      </trkpt>
      <trkpt lat="42.938" lon="0.32297">
        <ele>1584.2</ele>
        <time>2021-10-02T07:53:29Z</time>
      </trkpt>
      <trkpt lat="42.93799" lon="0.32296">
        <ele>1584.6</ele>
        <time>2021-10-02T07:53:30Z</time>
      </trkpt>
      <trkpt lat="42.93798" lon="0.32296">
        <ele>1584.6</ele>
        <time>2021-10-02T07:53:31Z</time>
      </trkpt>
      <trkpt lat="42.93797" lon="0.32295">
        <ele>1584.8</ele>
        <time>2021-10-02T07:53:32Z</time>
      </trkpt>
      <trkpt lat="42.93796" lon="0.32295">
        <ele>1585</ele>
        <time>2021-10-02T07:53:33Z</time>
      </trkpt>
      <trkpt lat="42.93794" lon="0.32294">
        <ele>1585.2</ele>
        <time>2021-10-02T07:53:34Z</time>
      </trkpt>
      <trkpt lat="42.93793" lon="0.32293">
        <ele>1585.2</ele>
        <time>2021-10-02T07:53:35Z</time>
      </trkpt>
      <trkpt lat="42.93791" lon="0.32293">
        <ele>1585.4</ele>
        <time>2021-10-02T07:53:36Z</time>
      </trkpt>
      <trkpt lat="42.9379" lon="0.32291">
        <ele>1585.6</ele>
        <time>2021-10-02T07:53:37Z</time>
      </trkpt>
      <trkpt lat="42.93788" lon="0.32291">
        <ele>1585.8</ele>
        <time>2021-10-02T07:53:38Z</time>
      </trkpt>
      <trkpt lat="42.93787" lon="0.3229">
        <ele>1586</ele>
        <time>2021-10-02T07:53:39Z</time>
      </trkpt>
      <trkpt lat="42.93785" lon="0.32289">
        <ele>1586</ele>
        <time>2021-10-02T07:53:40Z</time>
      </trkpt>
      <trkpt lat="42.93783" lon="0.32288">
        <ele>1586.2</ele>
        <time>2021-10-02T07:53:41Z</time>
      </trkpt>
      <trkpt lat="42.93782" lon="0.32287">
        <ele>1586.2</ele>
        <time>2021-10-02T07:53:42Z</time>
      </trkpt>
      <trkpt lat="42.93779" lon="0.32287">
        <ele>1586.4</ele>
        <time>2021-10-02T07:53:43Z</time>
      </trkpt>
      <trkpt lat="42.93778" lon="0.32286">
        <ele>1586.4</ele>
        <time>2021-10-02T07:53:44Z</time>
      </trkpt>
      <trkpt lat="42.93776" lon="0.32286">
        <ele>1586.6</ele>
        <time>2021-10-02T07:53:45Z</time>
      </trkpt>
      <trkpt lat="42.93775" lon="0.32285">
        <ele>1586.6</ele>
        <time>2021-10-02T07:53:46Z</time>
      </trkpt>
      <trkpt lat="42.93773" lon="0.32284">
        <ele>1586.8</ele>
        <time>2021-10-02T07:53:47Z</time>
      </trkpt>
      <trkpt lat="42.93772" lon="0.32283">
        <ele>1586.8</ele>
        <time>2021-10-02T07:53:48Z</time>
      </trkpt>
      <trkpt lat="42.9377" lon="0.32282">
        <ele>1587.2</ele>
        <time>2021-10-02T07:53:49Z</time>
      </trkpt>
      <trkpt lat="42.93769" lon="0.32281">
        <ele>1587.4</ele>
        <time>2021-10-02T07:53:50Z</time>
      </trkpt>
      <trkpt lat="42.93768" lon="0.3228">
        <ele>1587.6</ele>
        <time>2021-10-02T07:53:51Z</time>
      </trkpt>
      <trkpt lat="42.93767" lon="0.32279">
        <ele>1587.6</ele>
        <time>2021-10-02T07:53:52Z</time>
      </trkpt>
      <trkpt lat="42.93765" lon="0.32279">
        <ele>1587.8</ele>
        <time>2021-10-02T07:53:53Z</time>
      </trkpt>
      <trkpt lat="42.93764" lon="0.32278">
        <ele>1587.8</ele>
        <time>2021-10-02T07:53:54Z</time>
      </trkpt>
      <trkpt lat="42.93763" lon="0.32277">
        <ele>1588</ele>
        <time>2021-10-02T07:53:55Z</time>
      </trkpt>
      <trkpt lat="42.93761" lon="0.32276">
        <ele>1588.2</ele>
        <time>2021-10-02T07:53:56Z</time>
      </trkpt>
      <trkpt lat="42.93759" lon="0.32275">
        <ele>1588.2</ele>
        <time>2021-10-02T07:53:57Z</time>
      </trkpt>
      <trkpt lat="42.93758" lon="0.32274">
        <ele>1588.4</ele>
        <time>2021-10-02T07:53:58Z</time>
      </trkpt>
      <trkpt lat="42.93756" lon="0.32273">
        <ele>1588.4</ele>
        <time>2021-10-02T07:53:59Z</time>
      </trkpt>
      <trkpt lat="42.93754" lon="0.32271">
        <ele>1588.6</ele>
        <time>2021-10-02T07:54:00Z</time>
      </trkpt>
      <trkpt lat="42.93752" lon="0.32271">
        <ele>1588.6</ele>
        <time>2021-10-02T07:54:01Z</time>
      </trkpt>
      <trkpt lat="42.9375" lon="0.3227">
        <ele>1588.8</ele>
        <time>2021-10-02T07:54:02Z</time>
      </trkpt>
      <trkpt lat="42.93748" lon="0.32269">
        <ele>1588.8</ele>
        <time>2021-10-02T07:54:03Z</time>
      </trkpt>
      <trkpt lat="42.93746" lon="0.32269">
        <ele>1588.8</ele>
        <time>2021-10-02T07:54:04Z</time>
      </trkpt>
      <trkpt lat="42.93744" lon="0.32268">
        <ele>1589</ele>
        <time>2021-10-02T07:54:05Z</time>
      </trkpt>
      <trkpt lat="42.93742" lon="0.32268">
        <ele>1589.2</ele>
        <time>2021-10-02T07:54:06Z</time>
      </trkpt>
      <trkpt lat="42.93741" lon="0.32267">
        <ele>1589</ele>
        <time>2021-10-02T07:54:07Z</time>
      </trkpt>
      <trkpt lat="42.93739" lon="0.32267">
        <ele>1589.2</ele>
        <time>2021-10-02T07:54:08Z</time>
      </trkpt>
      <trkpt lat="42.93736" lon="0.32268">
        <ele>1589.2</ele>
        <time>2021-10-02T07:54:09Z</time>
      </trkpt>
      <trkpt lat="42.93734" lon="0.32269">
        <ele>1589.2</ele>
        <time>2021-10-02T07:54:10Z</time>
      </trkpt>
      <trkpt lat="42.93732" lon="0.32269">
        <ele>1589.2</ele>
        <time>2021-10-02T07:54:11Z</time>
      </trkpt>
      <trkpt lat="42.9373" lon="0.32269">
        <ele>1589.4</ele>
        <time>2021-10-02T07:54:12Z</time>
      </trkpt>
      <trkpt lat="42.93729" lon="0.32268">
        <ele>1589.4</ele>
        <time>2021-10-02T07:54:13Z</time>
      </trkpt>
      <trkpt lat="42.93726" lon="0.32268">
        <ele>1589.4</ele>
        <time>2021-10-02T07:54:14Z</time>
      </trkpt>
      <trkpt lat="42.93725" lon="0.32268">
        <ele>1589.4</ele>
        <time>2021-10-02T07:54:15Z</time>
      </trkpt>
      <trkpt lat="42.9372" lon="0.32268">
        <ele>1589.4</ele>
        <time>2021-10-02T07:54:17Z</time>
      </trkpt>
      <trkpt lat="42.93718" lon="0.32269">
        <ele>1589.6</ele>
        <time>2021-10-02T07:54:18Z</time>
      </trkpt>
      <trkpt lat="42.93705" lon="0.32269">
        <ele>1589.8</ele>
        <time>2021-10-02T07:54:24Z</time>
      </trkpt>
      <trkpt lat="42.93703" lon="0.32268">
        <ele>1590</ele>
        <time>2021-10-02T07:54:25Z</time>
      </trkpt>
      <trkpt lat="42.93701" lon="0.32268">
        <ele>1590</ele>
        <time>2021-10-02T07:54:26Z</time>
      </trkpt>
      <trkpt lat="42.93699" lon="0.32269">
        <ele>1590</ele>
        <time>2021-10-02T07:54:27Z</time>
      </trkpt>
      <trkpt lat="42.93697" lon="0.3227">
        <ele>1590.2</ele>
        <time>2021-10-02T07:54:28Z</time>
      </trkpt>
      <trkpt lat="42.93693" lon="0.32271">
        <ele>1590.4</ele>
        <time>2021-10-02T07:54:30Z</time>
      </trkpt>
      <trkpt lat="42.93684" lon="0.32272">
        <ele>1590.4</ele>
        <time>2021-10-02T07:54:34Z</time>
      </trkpt>
      <trkpt lat="42.93682" lon="0.32273">
        <ele>1590.4</ele>
        <time>2021-10-02T07:54:35Z</time>
      </trkpt>
      <trkpt lat="42.93673" lon="0.32275">
        <ele>1590.4</ele>
        <time>2021-10-02T07:54:39Z</time>
      </trkpt>
      <trkpt lat="42.9367" lon="0.32277">
        <ele>1590.4</ele>
        <time>2021-10-02T07:54:40Z</time>
      </trkpt>
      <trkpt lat="42.93655" lon="0.32283">
        <ele>1590.6</ele>
        <time>2021-10-02T07:54:46Z</time>
      </trkpt>
      <trkpt lat="42.93638" lon="0.32284">
        <ele>1591</ele>
        <time>2021-10-02T07:54:52Z</time>
      </trkpt>
      <trkpt lat="42.93633" lon="0.32285">
        <ele>1591</ele>
        <time>2021-10-02T07:54:54Z</time>
      </trkpt>
      <trkpt lat="42.93619" lon="0.32285">
        <ele>1591</ele>
        <time>2021-10-02T07:54:59Z</time>
      </trkpt>
      <trkpt lat="42.93617" lon="0.32284">
        <ele>1591</ele>
        <time>2021-10-02T07:55:00Z</time>
      </trkpt>
      <trkpt lat="42.93614" lon="0.32283">
        <ele>1591.2</ele>
        <time>2021-10-02T07:55:01Z</time>
      </trkpt>
      <trkpt lat="42.93612" lon="0.32282">
        <ele>1591.2</ele>
        <time>2021-10-02T07:55:02Z</time>
      </trkpt>
      <trkpt lat="42.93609" lon="0.32283">
        <ele>1591.4</ele>
        <time>2021-10-02T07:55:03Z</time>
      </trkpt>
      <trkpt lat="42.93606" lon="0.32283">
        <ele>1591.4</ele>
        <time>2021-10-02T07:55:04Z</time>
      </trkpt>
      <trkpt lat="42.93604" lon="0.32283">
        <ele>1591.2</ele>
        <time>2021-10-02T07:55:05Z</time>
      </trkpt>
      <trkpt lat="42.93599" lon="0.32282">
        <ele>1591.4</ele>
        <time>2021-10-02T07:55:07Z</time>
      </trkpt>
      <trkpt lat="42.93597" lon="0.32281">
        <ele>1591.4</ele>
        <time>2021-10-02T07:55:08Z</time>
      </trkpt>
      <trkpt lat="42.93595" lon="0.32281">
        <ele>1591.6</ele>
        <time>2021-10-02T07:55:09Z</time>
      </trkpt>
      <trkpt lat="42.93593" lon="0.3228">
        <ele>1591.6</ele>
        <time>2021-10-02T07:55:10Z</time>
      </trkpt>
      <trkpt lat="42.9359" lon="0.32279">
        <ele>1591.8</ele>
        <time>2021-10-02T07:55:11Z</time>
      </trkpt>
      <trkpt lat="42.93574" lon="0.32273">
        <ele>1592.6</ele>
        <time>2021-10-02T07:55:18Z</time>
      </trkpt>
      <trkpt lat="42.93572" lon="0.32273">
        <ele>1592.8</ele>
        <time>2021-10-02T07:55:19Z</time>
      </trkpt>
      <trkpt lat="42.93571" lon="0.32273">
        <ele>1593</ele>
        <time>2021-10-02T07:55:20Z</time>
      </trkpt>
      <trkpt lat="42.93569" lon="0.32273">
        <ele>1593.2</ele>
        <time>2021-10-02T07:55:21Z</time>
      </trkpt>
      <trkpt lat="42.93567" lon="0.32273">
        <ele>1593.6</ele>
        <time>2021-10-02T07:55:22Z</time>
      </trkpt>
      <trkpt lat="42.93562" lon="0.32273">
        <ele>1594</ele>
        <time>2021-10-02T07:55:24Z</time>
      </trkpt>
      <trkpt lat="42.93561" lon="0.32273">
        <ele>1594</ele>
        <time>2021-10-02T07:55:25Z</time>
      </trkpt>
      <trkpt lat="42.93559" lon="0.32272">
        <ele>1594.6</ele>
        <time>2021-10-02T07:55:26Z</time>
      </trkpt>
      <trkpt lat="42.93557" lon="0.3227">
        <ele>1594.6</ele>
        <time>2021-10-02T07:55:27Z</time>
      </trkpt>
      <trkpt lat="42.93554" lon="0.32267">
        <ele>1594.8</ele>
        <time>2021-10-02T07:55:28Z</time>
      </trkpt>
      <trkpt lat="42.93552" lon="0.32265">
        <ele>1595</ele>
        <time>2021-10-02T07:55:29Z</time>
      </trkpt>
      <trkpt lat="42.9355" lon="0.32264">
        <ele>1595.2</ele>
        <time>2021-10-02T07:55:30Z</time>
      </trkpt>
      <trkpt lat="42.93547" lon="0.32262">
        <ele>1595.4</ele>
        <time>2021-10-02T07:55:31Z</time>
      </trkpt>
      <trkpt lat="42.93545" lon="0.32261">
        <ele>1595.6</ele>
        <time>2021-10-02T07:55:32Z</time>
      </trkpt>
      <trkpt lat="42.93543" lon="0.3226">
        <ele>1595.6</ele>
        <time>2021-10-02T07:55:33Z</time>
      </trkpt>
      <trkpt lat="42.93541" lon="0.32259">
        <ele>1595.8</ele>
        <time>2021-10-02T07:55:34Z</time>
      </trkpt>
      <trkpt lat="42.9354" lon="0.32258">
        <ele>1595.8</ele>
        <time>2021-10-02T07:55:35Z</time>
      </trkpt>
      <trkpt lat="42.93537" lon="0.32257">
        <ele>1596</ele>
        <time>2021-10-02T07:55:36Z</time>
      </trkpt>
      <trkpt lat="42.93535" lon="0.32256">
        <ele>1596</ele>
        <time>2021-10-02T07:55:37Z</time>
      </trkpt>
      <trkpt lat="42.93533" lon="0.32255">
        <ele>1596.2</ele>
        <time>2021-10-02T07:55:38Z</time>
      </trkpt>
      <trkpt lat="42.93532" lon="0.32254">
        <ele>1596.4</ele>
        <time>2021-10-02T07:55:39Z</time>
      </trkpt>
      <trkpt lat="42.9353" lon="0.32252">
        <ele>1596.4</ele>
        <time>2021-10-02T07:55:40Z</time>
      </trkpt>
      <trkpt lat="42.93527" lon="0.3225">
        <ele>1596.4</ele>
        <time>2021-10-02T07:55:41Z</time>
      </trkpt>
      <trkpt lat="42.93525" lon="0.32248">
        <ele>1596.4</ele>
        <time>2021-10-02T07:55:42Z</time>
      </trkpt>
      <trkpt lat="42.93522" lon="0.32245">
        <ele>1596.6</ele>
        <time>2021-10-02T07:55:43Z</time>
      </trkpt>
      <trkpt lat="42.93519" lon="0.32242">
        <ele>1596.6</ele>
        <time>2021-10-02T07:55:44Z</time>
      </trkpt>
      <trkpt lat="42.93517" lon="0.3224">
        <ele>1596.6</ele>
        <time>2021-10-02T07:55:45Z</time>
      </trkpt>
      <trkpt lat="42.93515" lon="0.32237">
        <ele>1596.6</ele>
        <time>2021-10-02T07:55:46Z</time>
      </trkpt>
      <trkpt lat="42.93514" lon="0.32236">
        <ele>1596.6</ele>
        <time>2021-10-02T07:55:47Z</time>
      </trkpt>
      <trkpt lat="42.93513" lon="0.32236">
        <ele>1596.6</ele>
        <time>2021-10-02T07:55:48Z</time>
      </trkpt>
      <trkpt lat="42.93512" lon="0.32235">
        <ele>1596.6</ele>
        <time>2021-10-02T07:55:49Z</time>
      </trkpt>
      <trkpt lat="42.9351" lon="0.32233">
        <ele>1596.6</ele>
        <time>2021-10-02T07:55:50Z</time>
      </trkpt>
      <trkpt lat="42.93508" lon="0.32232">
        <ele>1596.6</ele>
        <time>2021-10-02T07:55:51Z</time>
      </trkpt>
      <trkpt lat="42.93505" lon="0.3223">
        <ele>1596.6</ele>
        <time>2021-10-02T07:55:52Z</time>
      </trkpt>
      <trkpt lat="42.93502" lon="0.32229">
        <ele>1596.6</ele>
        <time>2021-10-02T07:55:53Z</time>
      </trkpt>
      <trkpt lat="42.93501" lon="0.32227">
        <ele>1596.6</ele>
        <time>2021-10-02T07:55:54Z</time>
      </trkpt>
      <trkpt lat="42.93499" lon="0.32225">
        <ele>1596.6</ele>
        <time>2021-10-02T07:55:55Z</time>
      </trkpt>
      <trkpt lat="42.93496" lon="0.32224">
        <ele>1596.4</ele>
        <time>2021-10-02T07:55:56Z</time>
      </trkpt>
      <trkpt lat="42.93495" lon="0.32224">
        <ele>1596.4</ele>
        <time>2021-10-02T07:55:57Z</time>
      </trkpt>
      <trkpt lat="42.93493" lon="0.32224">
        <ele>1596.4</ele>
        <time>2021-10-02T07:55:58Z</time>
      </trkpt>
      <trkpt lat="42.93492" lon="0.32225">
        <ele>1596.6</ele>
        <time>2021-10-02T07:55:59Z</time>
      </trkpt>
      <trkpt lat="42.93487" lon="0.32223">
        <ele>1596.8</ele>
        <time>2021-10-02T07:56:02Z</time>
      </trkpt>
      <trkpt lat="42.93485" lon="0.32222">
        <ele>1597</ele>
        <time>2021-10-02T07:56:03Z</time>
      </trkpt>
      <trkpt lat="42.93483" lon="0.32222">
        <ele>1597.2</ele>
        <time>2021-10-02T07:56:04Z</time>
      </trkpt>
      <trkpt lat="42.93481" lon="0.3222">
        <ele>1597.4</ele>
        <time>2021-10-02T07:56:05Z</time>
      </trkpt>
      <trkpt lat="42.9348" lon="0.32219">
        <ele>1597.6</ele>
        <time>2021-10-02T07:56:06Z</time>
      </trkpt>
      <trkpt lat="42.93478" lon="0.32217">
        <ele>1597.6</ele>
        <time>2021-10-02T07:56:07Z</time>
      </trkpt>
      <trkpt lat="42.93477" lon="0.32215">
        <ele>1597.8</ele>
        <time>2021-10-02T07:56:08Z</time>
      </trkpt>
      <trkpt lat="42.93476" lon="0.32214">
        <ele>1598</ele>
        <time>2021-10-02T07:56:09Z</time>
      </trkpt>
      <trkpt lat="42.9347" lon="0.32211">
        <ele>1598.4</ele>
        <time>2021-10-02T07:56:12Z</time>
      </trkpt>
      <trkpt lat="42.93469" lon="0.32209">
        <ele>1598.6</ele>
        <time>2021-10-02T07:56:13Z</time>
      </trkpt>
      <trkpt lat="42.93465" lon="0.32206">
        <ele>1598.8</ele>
        <time>2021-10-02T07:56:15Z</time>
      </trkpt>
      <trkpt lat="42.93463" lon="0.32204">
        <ele>1599.2</ele>
        <time>2021-10-02T07:56:16Z</time>
      </trkpt>
      <trkpt lat="42.93462" lon="0.32203">
        <ele>1599.2</ele>
        <time>2021-10-02T07:56:17Z</time>
      </trkpt>
      <trkpt lat="42.9346" lon="0.32202">
        <ele>1599.4</ele>
        <time>2021-10-02T07:56:18Z</time>
      </trkpt>
      <trkpt lat="42.93458" lon="0.32201">
        <ele>1599.6</ele>
        <time>2021-10-02T07:56:19Z</time>
      </trkpt>
      <trkpt lat="42.93455" lon="0.322">
        <ele>1599.8</ele>
        <time>2021-10-02T07:56:20Z</time>
      </trkpt>
      <trkpt lat="42.93452" lon="0.32198">
        <ele>1600</ele>
        <time>2021-10-02T07:56:21Z</time>
      </trkpt>
      <trkpt lat="42.93451" lon="0.32197">
        <ele>1600</ele>
        <time>2021-10-02T07:56:22Z</time>
      </trkpt>
      <trkpt lat="42.93449" lon="0.32196">
        <ele>1600.2</ele>
        <time>2021-10-02T07:56:23Z</time>
      </trkpt>
      <trkpt lat="42.93447" lon="0.32196">
        <ele>1600.4</ele>
        <time>2021-10-02T07:56:24Z</time>
      </trkpt>
      <trkpt lat="42.93444" lon="0.32195">
        <ele>1600.6</ele>
        <time>2021-10-02T07:56:25Z</time>
      </trkpt>
      <trkpt lat="42.93443" lon="0.32194">
        <ele>1600.8</ele>
        <time>2021-10-02T07:56:26Z</time>
      </trkpt>
      <trkpt lat="42.93441" lon="0.32192">
        <ele>1601</ele>
        <time>2021-10-02T07:56:27Z</time>
      </trkpt>
      <trkpt lat="42.9344" lon="0.3219">
        <ele>1601</ele>
        <time>2021-10-02T07:56:28Z</time>
      </trkpt>
      <trkpt lat="42.93438" lon="0.32188">
        <ele>1601.2</ele>
        <time>2021-10-02T07:56:29Z</time>
      </trkpt>
      <trkpt lat="42.93437" lon="0.32186">
        <ele>1601.4</ele>
        <time>2021-10-02T07:56:30Z</time>
      </trkpt>
      <trkpt lat="42.93435" lon="0.32186">
        <ele>1601.6</ele>
        <time>2021-10-02T07:56:31Z</time>
      </trkpt>
      <trkpt lat="42.93433" lon="0.32185">
        <ele>1601.6</ele>
        <time>2021-10-02T07:56:32Z</time>
      </trkpt>
      <trkpt lat="42.93431" lon="0.32184">
        <ele>1601.8</ele>
        <time>2021-10-02T07:56:33Z</time>
      </trkpt>
      <trkpt lat="42.93429" lon="0.32181">
        <ele>1601.8</ele>
        <time>2021-10-02T07:56:34Z</time>
      </trkpt>
      <trkpt lat="42.93427" lon="0.32178">
        <ele>1601.8</ele>
        <time>2021-10-02T07:56:35Z</time>
      </trkpt>
      <trkpt lat="42.93425" lon="0.32176">
        <ele>1602</ele>
        <time>2021-10-02T07:56:36Z</time>
      </trkpt>
      <trkpt lat="42.93423" lon="0.32175">
        <ele>1602</ele>
        <time>2021-10-02T07:56:37Z</time>
      </trkpt>
      <trkpt lat="42.9342" lon="0.32174">
        <ele>1602</ele>
        <time>2021-10-02T07:56:38Z</time>
      </trkpt>
      <trkpt lat="42.93419" lon="0.32173">
        <ele>1602</ele>
        <time>2021-10-02T07:56:39Z</time>
      </trkpt>
      <trkpt lat="42.93416" lon="0.32171">
        <ele>1602.2</ele>
        <time>2021-10-02T07:56:40Z</time>
      </trkpt>
      <trkpt lat="42.93415" lon="0.32169">
        <ele>1602.2</ele>
        <time>2021-10-02T07:56:41Z</time>
      </trkpt>
      <trkpt lat="42.93413" lon="0.32167">
        <ele>1602.2</ele>
        <time>2021-10-02T07:56:42Z</time>
      </trkpt>
      <trkpt lat="42.93411" lon="0.32165">
        <ele>1602.4</ele>
        <time>2021-10-02T07:56:43Z</time>
      </trkpt>
      <trkpt lat="42.93409" lon="0.32164">
        <ele>1602.4</ele>
        <time>2021-10-02T07:56:44Z</time>
      </trkpt>
      <trkpt lat="42.93407" lon="0.32163">
        <ele>1602.4</ele>
        <time>2021-10-02T07:56:45Z</time>
      </trkpt>
      <trkpt lat="42.93405" lon="0.32161">
        <ele>1602.6</ele>
        <time>2021-10-02T07:56:46Z</time>
      </trkpt>
      <trkpt lat="42.93403" lon="0.32159">
        <ele>1602.6</ele>
        <time>2021-10-02T07:56:47Z</time>
      </trkpt>
      <trkpt lat="42.93402" lon="0.32157">
        <ele>1602.8</ele>
        <time>2021-10-02T07:56:48Z</time>
      </trkpt>
      <trkpt lat="42.934" lon="0.32156">
        <ele>1603</ele>
        <time>2021-10-02T07:56:49Z</time>
      </trkpt>
      <trkpt lat="42.93398" lon="0.32153">
        <ele>1603</ele>
        <time>2021-10-02T07:56:50Z</time>
      </trkpt>
      <trkpt lat="42.93396" lon="0.32151">
        <ele>1603.2</ele>
        <time>2021-10-02T07:56:51Z</time>
      </trkpt>
      <trkpt lat="42.93395" lon="0.32149">
        <ele>1603.2</ele>
        <time>2021-10-02T07:56:52Z</time>
      </trkpt>
      <trkpt lat="42.93394" lon="0.32146">
        <ele>1603.2</ele>
        <time>2021-10-02T07:56:53Z</time>
      </trkpt>
      <trkpt lat="42.93391" lon="0.3214">
        <ele>1603.2</ele>
        <time>2021-10-02T07:56:55Z</time>
      </trkpt>
      <trkpt lat="42.9339" lon="0.32137">
        <ele>1603.2</ele>
        <time>2021-10-02T07:56:56Z</time>
      </trkpt>
      <trkpt lat="42.93385" lon="0.32129">
        <ele>1603</ele>
        <time>2021-10-02T07:56:58Z</time>
      </trkpt>
      <trkpt lat="42.93381" lon="0.32124">
        <ele>1602.8</ele>
        <time>2021-10-02T07:56:59Z</time>
      </trkpt>
      <trkpt lat="42.93378" lon="0.32121">
        <ele>1602.6</ele>
        <time>2021-10-02T07:57:00Z</time>
      </trkpt>
      <trkpt lat="42.93367" lon="0.32109">
        <ele>1601.8</ele>
        <time>2021-10-02T07:57:03Z</time>
      </trkpt>
      <trkpt lat="42.93366" lon="0.32107">
        <ele>1601.6</ele>
        <time>2021-10-02T07:57:04Z</time>
      </trkpt>
      <trkpt lat="42.93364" lon="0.32104">
        <ele>1601.4</ele>
        <time>2021-10-02T07:57:05Z</time>
      </trkpt>
      <trkpt lat="42.93362" lon="0.32102">
        <ele>1601.4</ele>
        <time>2021-10-02T07:57:06Z</time>
      </trkpt>
      <trkpt lat="42.93358" lon="0.32097">
        <ele>1601</ele>
        <time>2021-10-02T07:57:08Z</time>
      </trkpt>
      <trkpt lat="42.93356" lon="0.32094">
        <ele>1601</ele>
        <time>2021-10-02T07:57:09Z</time>
      </trkpt>
      <trkpt lat="42.93351" lon="0.32088">
        <ele>1601</ele>
        <time>2021-10-02T07:57:11Z</time>
      </trkpt>
      <trkpt lat="42.93349" lon="0.32086">
        <ele>1601</ele>
        <time>2021-10-02T07:57:12Z</time>
      </trkpt>
      <trkpt lat="42.93346" lon="0.32083">
        <ele>1601</ele>
        <time>2021-10-02T07:57:13Z</time>
      </trkpt>
      <trkpt lat="42.93336" lon="0.32073">
        <ele>1601.4</ele>
        <time>2021-10-02T07:57:18Z</time>
      </trkpt>
      <trkpt lat="42.93331" lon="0.32068">
        <ele>1601.4</ele>
        <time>2021-10-02T07:57:20Z</time>
      </trkpt>
      <trkpt lat="42.93328" lon="0.32065">
        <ele>1601.4</ele>
        <time>2021-10-02T07:57:21Z</time>
      </trkpt>
      <trkpt lat="42.93322" lon="0.32057">
        <ele>1601.4</ele>
        <time>2021-10-02T07:57:23Z</time>
      </trkpt>
      <trkpt lat="42.93308" lon="0.32034">
        <ele>1601.2</ele>
        <time>2021-10-02T07:57:28Z</time>
      </trkpt>
      <trkpt lat="42.93306" lon="0.3203">
        <ele>1601.2</ele>
        <time>2021-10-02T07:57:29Z</time>
      </trkpt>
      <trkpt lat="42.93305" lon="0.32026">
        <ele>1601</ele>
        <time>2021-10-02T07:57:30Z</time>
      </trkpt>
      <trkpt lat="42.93303" lon="0.32021">
        <ele>1601</ele>
        <time>2021-10-02T07:57:31Z</time>
      </trkpt>
      <trkpt lat="42.93297" lon="0.32008">
        <ele>1600.8</ele>
        <time>2021-10-02T07:57:34Z</time>
      </trkpt>
      <trkpt lat="42.93289" lon="0.31987">
        <ele>1600.2</ele>
        <time>2021-10-02T07:57:38Z</time>
      </trkpt>
      <trkpt lat="42.9328" lon="0.31948">
        <ele>1599.8</ele>
        <time>2021-10-02T07:57:44Z</time>
      </trkpt>
      <trkpt lat="42.93279" lon="0.31942">
        <ele>1599.6</ele>
        <time>2021-10-02T07:57:45Z</time>
      </trkpt>
      <trkpt lat="42.93276" lon="0.31928">
        <ele>1599</ele>
        <time>2021-10-02T07:57:47Z</time>
      </trkpt>
      <trkpt lat="42.93273" lon="0.31917">
        <ele>1598.2</ele>
        <time>2021-10-02T07:57:49Z</time>
      </trkpt>
      <trkpt lat="42.93271" lon="0.31911">
        <ele>1597.6</ele>
        <time>2021-10-02T07:57:50Z</time>
      </trkpt>
      <trkpt lat="42.93269" lon="0.31906">
        <ele>1596.8</ele>
        <time>2021-10-02T07:57:51Z</time>
      </trkpt>
      <trkpt lat="42.93267" lon="0.319">
        <ele>1596.6</ele>
        <time>2021-10-02T07:57:52Z</time>
      </trkpt>
      <trkpt lat="42.93263" lon="0.31889">
        <ele>1596</ele>
        <time>2021-10-02T07:57:54Z</time>
      </trkpt>
      <trkpt lat="42.93261" lon="0.31884">
        <ele>1595.4</ele>
        <time>2021-10-02T07:57:55Z</time>
      </trkpt>
      <trkpt lat="42.93259" lon="0.31879">
        <ele>1595.2</ele>
        <time>2021-10-02T07:57:56Z</time>
      </trkpt>
      <trkpt lat="42.93257" lon="0.31875">
        <ele>1595</ele>
        <time>2021-10-02T07:57:57Z</time>
      </trkpt>
      <trkpt lat="42.93255" lon="0.31871">
        <ele>1594.8</ele>
        <time>2021-10-02T07:57:58Z</time>
      </trkpt>
      <trkpt lat="42.93253" lon="0.31867">
        <ele>1594.8</ele>
        <time>2021-10-02T07:57:59Z</time>
      </trkpt>
      <trkpt lat="42.93251" lon="0.31865">
        <ele>1594.6</ele>
        <time>2021-10-02T07:58:00Z</time>
      </trkpt>
      <trkpt lat="42.93248" lon="0.31863">
        <ele>1594.6</ele>
        <time>2021-10-02T07:58:01Z</time>
      </trkpt>
      <trkpt lat="42.93245" lon="0.31861">
        <ele>1594.4</ele>
        <time>2021-10-02T07:58:02Z</time>
      </trkpt>
      <trkpt lat="42.93242" lon="0.31861">
        <ele>1594.4</ele>
        <time>2021-10-02T07:58:03Z</time>
      </trkpt>
      <trkpt lat="42.9324" lon="0.3186">
        <ele>1594.4</ele>
        <time>2021-10-02T07:58:04Z</time>
      </trkpt>
      <trkpt lat="42.93228" lon="0.3186">
        <ele>1594.2</ele>
        <time>2021-10-02T07:58:08Z</time>
      </trkpt>
      <trkpt lat="42.93224" lon="0.31864">
        <ele>1594.2</ele>
        <time>2021-10-02T07:58:09Z</time>
      </trkpt>
      <trkpt lat="42.93222" lon="0.31866">
        <ele>1594.4</ele>
        <time>2021-10-02T07:58:10Z</time>
      </trkpt>
      <trkpt lat="42.93221" lon="0.31867">
        <ele>1594.4</ele>
        <time>2021-10-02T07:58:11Z</time>
      </trkpt>
      <trkpt lat="42.93221" lon="0.31867">
        <ele>1594.4</ele>
        <time>2021-10-02T07:58:12Z</time>
      </trkpt>
      <trkpt lat="42.93218" lon="0.3187">
        <ele>1594.4</ele>
        <time>2021-10-02T07:58:13Z</time>
      </trkpt>
      <trkpt lat="42.93216" lon="0.31871">
        <ele>1594.6</ele>
        <time>2021-10-02T07:58:14Z</time>
      </trkpt>
      <trkpt lat="42.93214" lon="0.31873">
        <ele>1594.6</ele>
        <time>2021-10-02T07:58:15Z</time>
      </trkpt>
      <trkpt lat="42.93201" lon="0.31879">
        <ele>1595.4</ele>
        <time>2021-10-02T07:58:21Z</time>
      </trkpt>
      <trkpt lat="42.93196" lon="0.31881">
        <ele>1595.4</ele>
        <time>2021-10-02T07:58:22Z</time>
      </trkpt>
      <trkpt lat="42.93184" lon="0.31885">
        <ele>1595.4</ele>
        <time>2021-10-02T07:58:25Z</time>
      </trkpt>
      <trkpt lat="42.93176" lon="0.31886">
        <ele>1595.4</ele>
        <time>2021-10-02T07:58:27Z</time>
      </trkpt>
      <trkpt lat="42.93172" lon="0.31887">
        <ele>1595.4</ele>
        <time>2021-10-02T07:58:28Z</time>
      </trkpt>
      <trkpt lat="42.93168" lon="0.31887">
        <ele>1595</ele>
        <time>2021-10-02T07:58:29Z</time>
      </trkpt>
      <trkpt lat="42.93164" lon="0.31888">
        <ele>1594.8</ele>
        <time>2021-10-02T07:58:30Z</time>
      </trkpt>
      <trkpt lat="42.93159" lon="0.31889">
        <ele>1593.6</ele>
        <time>2021-10-02T07:58:31Z</time>
      </trkpt>
      <trkpt lat="42.93149" lon="0.31891">
        <ele>1592</ele>
        <time>2021-10-02T07:58:33Z</time>
      </trkpt>
      <trkpt lat="42.93131" lon="0.31897">
        <ele>1591</ele>
        <time>2021-10-02T07:58:36Z</time>
      </trkpt>
      <trkpt lat="42.93113" lon="0.319">
        <ele>1590.2</ele>
        <time>2021-10-02T07:58:39Z</time>
      </trkpt>
      <trkpt lat="42.93106" lon="0.31901">
        <ele>1589.8</ele>
        <time>2021-10-02T07:58:40Z</time>
      </trkpt>
      <trkpt lat="42.9308" lon="0.31905">
        <ele>1588.2</ele>
        <time>2021-10-02T07:58:44Z</time>
      </trkpt>
      <trkpt lat="42.93068" lon="0.31906">
        <ele>1587</ele>
        <time>2021-10-02T07:58:46Z</time>
      </trkpt>
      <trkpt lat="42.93056" lon="0.31906">
        <ele>1585.8</ele>
        <time>2021-10-02T07:58:48Z</time>
      </trkpt>
      <trkpt lat="42.93043" lon="0.31903">
        <ele>1585.2</ele>
        <time>2021-10-02T07:58:50Z</time>
      </trkpt>
      <trkpt lat="42.93038" lon="0.31902">
        <ele>1584.6</ele>
        <time>2021-10-02T07:58:52Z</time>
      </trkpt>
      <trkpt lat="42.93028" lon="0.31896">
        <ele>1584.4</ele>
        <time>2021-10-02T07:58:53Z</time>
      </trkpt>
      <trkpt lat="42.93024" lon="0.31894">
        <ele>1584</ele>
        <time>2021-10-02T07:58:54Z</time>
      </trkpt>
      <trkpt lat="42.9302" lon="0.31891">
        <ele>1583.8</ele>
        <time>2021-10-02T07:58:55Z</time>
      </trkpt>
      <trkpt lat="42.93016" lon="0.31889">
        <ele>1583.6</ele>
        <time>2021-10-02T07:58:56Z</time>
      </trkpt>
      <trkpt lat="42.93013" lon="0.31887">
        <ele>1583.4</ele>
        <time>2021-10-02T07:58:57Z</time>
      </trkpt>
      <trkpt lat="42.9301" lon="0.31885">
        <ele>1583.4</ele>
        <time>2021-10-02T07:58:58Z</time>
      </trkpt>
      <trkpt lat="42.93008" lon="0.31883">
        <ele>1583.4</ele>
        <time>2021-10-02T07:58:59Z</time>
      </trkpt>
      <trkpt lat="42.93005" lon="0.31882">
        <ele>1583.4</ele>
        <time>2021-10-02T07:59:00Z</time>
      </trkpt>
      <trkpt lat="42.93005" lon="0.31882">
        <ele>1583.4</ele>
        <time>2021-10-02T07:59:01Z</time>
      </trkpt>
      <trkpt lat="42.93001" lon="0.31879">
        <ele>1583.4</ele>
        <time>2021-10-02T07:59:02Z</time>
      </trkpt>
      <trkpt lat="42.92999" lon="0.31877">
        <ele>1583.4</ele>
        <time>2021-10-02T07:59:03Z</time>
      </trkpt>
      <trkpt lat="42.92996" lon="0.31876">
        <ele>1583.4</ele>
        <time>2021-10-02T07:59:04Z</time>
      </trkpt>
      <trkpt lat="42.92993" lon="0.31873">
        <ele>1583.8</ele>
        <time>2021-10-02T07:59:06Z</time>
      </trkpt>
      <trkpt lat="42.92991" lon="0.31872">
        <ele>1584.2</ele>
        <time>2021-10-02T07:59:07Z</time>
      </trkpt>
      <trkpt lat="42.92987" lon="0.3187">
        <ele>1584.4</ele>
        <time>2021-10-02T07:59:09Z</time>
      </trkpt>
      <trkpt lat="42.92986" lon="0.31869">
        <ele>1584.4</ele>
        <time>2021-10-02T07:59:10Z</time>
      </trkpt>
      <trkpt lat="42.92985" lon="0.31867">
        <ele>1584.6</ele>
        <time>2021-10-02T07:59:11Z</time>
      </trkpt>
      <trkpt lat="42.92984" lon="0.31866">
        <ele>1584.8</ele>
        <time>2021-10-02T07:59:12Z</time>
      </trkpt>
      <trkpt lat="42.92983" lon="0.31865">
        <ele>1585</ele>
        <time>2021-10-02T07:59:13Z</time>
      </trkpt>
      <trkpt lat="42.92983" lon="0.31865">
        <ele>1585.2</ele>
        <time>2021-10-02T07:59:14Z</time>
      </trkpt>
      <trkpt lat="42.9298" lon="0.31861">
        <ele>1585.6</ele>
        <time>2021-10-02T07:59:15Z</time>
      </trkpt>
      <trkpt lat="42.92978" lon="0.3186">
        <ele>1585.8</ele>
        <time>2021-10-02T07:59:16Z</time>
      </trkpt>
      <trkpt lat="42.92977" lon="0.31858">
        <ele>1586</ele>
        <time>2021-10-02T07:59:17Z</time>
      </trkpt>
      <trkpt lat="42.92976" lon="0.31856">
        <ele>1586.2</ele>
        <time>2021-10-02T07:59:18Z</time>
      </trkpt>
      <trkpt lat="42.92975" lon="0.31855">
        <ele>1586.4</ele>
        <time>2021-10-02T07:59:19Z</time>
      </trkpt>
      <trkpt lat="42.92973" lon="0.31854">
        <ele>1586.6</ele>
        <time>2021-10-02T07:59:20Z</time>
      </trkpt>
      <trkpt lat="42.92972" lon="0.31853">
        <ele>1586.6</ele>
        <time>2021-10-02T07:59:21Z</time>
      </trkpt>
      <trkpt lat="42.9297" lon="0.31852">
        <ele>1586.8</ele>
        <time>2021-10-02T07:59:22Z</time>
      </trkpt>
      <trkpt lat="42.92965" lon="0.31851">
        <ele>1587.2</ele>
        <time>2021-10-02T07:59:24Z</time>
      </trkpt>
      <trkpt lat="42.92963" lon="0.31849">
        <ele>1587.4</ele>
        <time>2021-10-02T07:59:25Z</time>
      </trkpt>
      <trkpt lat="42.92962" lon="0.31848">
        <ele>1587.6</ele>
        <time>2021-10-02T07:59:26Z</time>
      </trkpt>
      <trkpt lat="42.9296" lon="0.31847">
        <ele>1587.8</ele>
        <time>2021-10-02T07:59:27Z</time>
      </trkpt>
      <trkpt lat="42.92958" lon="0.31846">
        <ele>1587.8</ele>
        <time>2021-10-02T07:59:28Z</time>
      </trkpt>
      <trkpt lat="42.92956" lon="0.31844">
        <ele>1588</ele>
        <time>2021-10-02T07:59:29Z</time>
      </trkpt>
      <trkpt lat="42.92955" lon="0.31843">
        <ele>1588.2</ele>
        <time>2021-10-02T07:59:30Z</time>
      </trkpt>
      <trkpt lat="42.92953" lon="0.31842">
        <ele>1588.4</ele>
        <time>2021-10-02T07:59:31Z</time>
      </trkpt>
      <trkpt lat="42.92951" lon="0.3184">
        <ele>1588.6</ele>
        <time>2021-10-02T07:59:32Z</time>
      </trkpt>
      <trkpt lat="42.92949" lon="0.31838">
        <ele>1588.8</ele>
        <time>2021-10-02T07:59:33Z</time>
      </trkpt>
      <trkpt lat="42.92948" lon="0.31837">
        <ele>1589</ele>
        <time>2021-10-02T07:59:34Z</time>
      </trkpt>
      <trkpt lat="42.92946" lon="0.31836">
        <ele>1589</ele>
        <time>2021-10-02T07:59:35Z</time>
      </trkpt>
      <trkpt lat="42.92944" lon="0.31835">
        <ele>1589.2</ele>
        <time>2021-10-02T07:59:36Z</time>
      </trkpt>
      <trkpt lat="42.92942" lon="0.31833">
        <ele>1589.2</ele>
        <time>2021-10-02T07:59:37Z</time>
      </trkpt>
      <trkpt lat="42.9294" lon="0.31831">
        <ele>1589.2</ele>
        <time>2021-10-02T07:59:38Z</time>
      </trkpt>
      <trkpt lat="42.92937" lon="0.31829">
        <ele>1589.2</ele>
        <time>2021-10-02T07:59:39Z</time>
      </trkpt>
      <trkpt lat="42.92935" lon="0.31828">
        <ele>1589.2</ele>
        <time>2021-10-02T07:59:40Z</time>
      </trkpt>
      <trkpt lat="42.92933" lon="0.31826">
        <ele>1589.2</ele>
        <time>2021-10-02T07:59:41Z</time>
      </trkpt>
      <trkpt lat="42.92931" lon="0.31824">
        <ele>1589.4</ele>
        <time>2021-10-02T07:59:42Z</time>
      </trkpt>
      <trkpt lat="42.92928" lon="0.31823">
        <ele>1589.4</ele>
        <time>2021-10-02T07:59:43Z</time>
      </trkpt>
      <trkpt lat="42.92926" lon="0.31822">
        <ele>1589.4</ele>
        <time>2021-10-02T07:59:44Z</time>
      </trkpt>
      <trkpt lat="42.92924" lon="0.31822">
        <ele>1589.4</ele>
        <time>2021-10-02T07:59:45Z</time>
      </trkpt>
      <trkpt lat="42.92923" lon="0.31821">
        <ele>1589.6</ele>
        <time>2021-10-02T07:59:46Z</time>
      </trkpt>
      <trkpt lat="42.92921" lon="0.3182">
        <ele>1589.8</ele>
        <time>2021-10-02T07:59:47Z</time>
      </trkpt>
      <trkpt lat="42.9292" lon="0.3182">
        <ele>1589.8</ele>
        <time>2021-10-02T07:59:48Z</time>
      </trkpt>
      <trkpt lat="42.92919" lon="0.3182">
        <ele>1589.8</ele>
        <time>2021-10-02T07:59:49Z</time>
      </trkpt>
      <trkpt lat="42.92917" lon="0.3182">
        <ele>1590</ele>
        <time>2021-10-02T07:59:50Z</time>
      </trkpt>
      <trkpt lat="42.92915" lon="0.31819">
        <ele>1590.2</ele>
        <time>2021-10-02T07:59:51Z</time>
      </trkpt>
      <trkpt lat="42.92912" lon="0.31816">
        <ele>1590.2</ele>
        <time>2021-10-02T07:59:52Z</time>
      </trkpt>
      <trkpt lat="42.92909" lon="0.31811">
        <ele>1590.2</ele>
        <time>2021-10-02T07:59:53Z</time>
      </trkpt>
      <trkpt lat="42.92906" lon="0.31807">
        <ele>1590.2</ele>
        <time>2021-10-02T07:59:54Z</time>
      </trkpt>
      <trkpt lat="42.92903" lon="0.31804">
        <ele>1590.2</ele>
        <time>2021-10-02T07:59:55Z</time>
      </trkpt>
      <trkpt lat="42.92901" lon="0.31802">
        <ele>1590.2</ele>
        <time>2021-10-02T07:59:56Z</time>
      </trkpt>
      <trkpt lat="42.92892" lon="0.31782">
        <ele>1589.8</ele>
        <time>2021-10-02T08:00:00Z</time>
      </trkpt>
      <trkpt lat="42.92877" lon="0.31747">
        <ele>1589.2</ele>
        <time>2021-10-02T08:00:05Z</time>
      </trkpt>
      <trkpt lat="42.92874" lon="0.31741">
        <ele>1589</ele>
        <time>2021-10-02T08:00:06Z</time>
      </trkpt>
      <trkpt lat="42.92868" lon="0.31731">
        <ele>1588.2</ele>
        <time>2021-10-02T08:00:09Z</time>
      </trkpt>
      <trkpt lat="42.92865" lon="0.31725">
        <ele>1587.4</ele>
        <time>2021-10-02T08:00:10Z</time>
      </trkpt>
      <trkpt lat="42.92863" lon="0.31724">
        <ele>1587.2</ele>
        <time>2021-10-02T08:00:11Z</time>
      </trkpt>
      <trkpt lat="42.92861" lon="0.31724">
        <ele>1587.2</ele>
        <time>2021-10-02T08:00:12Z</time>
      </trkpt>
      <trkpt lat="42.92861" lon="0.31724">
        <ele>1587</ele>
        <time>2021-10-02T08:00:13Z</time>
      </trkpt>
      <trkpt lat="42.92859" lon="0.31723">
        <ele>1587</ele>
        <time>2021-10-02T08:00:14Z</time>
      </trkpt>
      <trkpt lat="42.92857" lon="0.31723">
        <ele>1587</ele>
        <time>2021-10-02T08:00:15Z</time>
      </trkpt>
      <trkpt lat="42.92854" lon="0.31723">
        <ele>1587.2</ele>
        <time>2021-10-02T08:00:16Z</time>
      </trkpt>
      <trkpt lat="42.9285" lon="0.31723">
        <ele>1587.4</ele>
        <time>2021-10-02T08:00:18Z</time>
      </trkpt>
      <trkpt lat="42.92848" lon="0.31722">
        <ele>1587.6</ele>
        <time>2021-10-02T08:00:19Z</time>
      </trkpt>
      <trkpt lat="42.92846" lon="0.31722">
        <ele>1587.6</ele>
        <time>2021-10-02T08:00:20Z</time>
      </trkpt>
      <trkpt lat="42.92844" lon="0.31722">
        <ele>1588</ele>
        <time>2021-10-02T08:00:21Z</time>
      </trkpt>
      <trkpt lat="42.9284" lon="0.31722">
        <ele>1588.2</ele>
        <time>2021-10-02T08:00:23Z</time>
      </trkpt>
      <trkpt lat="42.92834" lon="0.31724">
        <ele>1588.4</ele>
        <time>2021-10-02T08:00:26Z</time>
      </trkpt>
      <trkpt lat="42.92832" lon="0.31723">
        <ele>1588.6</ele>
        <time>2021-10-02T08:00:27Z</time>
      </trkpt>
      <trkpt lat="42.9283" lon="0.31723">
        <ele>1588.6</ele>
        <time>2021-10-02T08:00:28Z</time>
      </trkpt>
      <trkpt lat="42.92828" lon="0.31723">
        <ele>1588.8</ele>
        <time>2021-10-02T08:00:29Z</time>
      </trkpt>
      <trkpt lat="42.92818" lon="0.31722">
        <ele>1589.2</ele>
        <time>2021-10-02T08:00:33Z</time>
      </trkpt>
      <trkpt lat="42.92814" lon="0.31723">
        <ele>1589</ele>
        <time>2021-10-02T08:00:36Z</time>
      </trkpt>
      <trkpt lat="42.92808" lon="0.3172">
        <ele>1589.2</ele>
        <time>2021-10-02T08:00:38Z</time>
      </trkpt>
      <trkpt lat="42.92805" lon="0.31719">
        <ele>1589.2</ele>
        <time>2021-10-02T08:00:39Z</time>
      </trkpt>
      <trkpt lat="42.928" lon="0.31719">
        <ele>1589.2</ele>
        <time>2021-10-02T08:00:42Z</time>
      </trkpt>
      <trkpt lat="42.928" lon="0.31719">
        <ele>1589.4</ele>
        <time>2021-10-02T08:00:43Z</time>
      </trkpt>
      <trkpt lat="42.92796" lon="0.3172">
        <ele>1589.4</ele>
        <time>2021-10-02T08:00:44Z</time>
      </trkpt>
      <trkpt lat="42.92794" lon="0.3172">
        <ele>1589.4</ele>
        <time>2021-10-02T08:00:45Z</time>
      </trkpt>
      <trkpt lat="42.92794" lon="0.3172">
        <ele>1589.4</ele>
        <time>2021-10-02T08:00:46Z</time>
      </trkpt>
      <trkpt lat="42.92791" lon="0.31719">
        <ele>1589.4</ele>
        <time>2021-10-02T08:00:47Z</time>
      </trkpt>
      <trkpt lat="42.92788" lon="0.31718">
        <ele>1589.4</ele>
        <time>2021-10-02T08:00:48Z</time>
      </trkpt>
      <trkpt lat="42.92783" lon="0.31719">
        <ele>1589.4</ele>
        <time>2021-10-02T08:00:50Z</time>
      </trkpt>
      <trkpt lat="42.92781" lon="0.31718">
        <ele>1589.4</ele>
        <time>2021-10-02T08:00:51Z</time>
      </trkpt>
      <trkpt lat="42.92763" lon="0.31716">
        <ele>1589.4</ele>
        <time>2021-10-02T08:00:57Z</time>
      </trkpt>
      <trkpt lat="42.92738" lon="0.31716">
        <ele>1589.4</ele>
        <time>2021-10-02T08:01:05Z</time>
      </trkpt>
      <trkpt lat="42.92729" lon="0.31716">
        <ele>1589.8</ele>
        <time>2021-10-02T08:01:09Z</time>
      </trkpt>
      <trkpt lat="42.92727" lon="0.31716">
        <ele>1589.8</ele>
        <time>2021-10-02T08:01:10Z</time>
      </trkpt>
      <trkpt lat="42.92725" lon="0.31717">
        <ele>1590.4</ele>
        <time>2021-10-02T08:01:11Z</time>
      </trkpt>
      <trkpt lat="42.92722" lon="0.31717">
        <ele>1590.4</ele>
        <time>2021-10-02T08:01:12Z</time>
      </trkpt>
      <trkpt lat="42.9272" lon="0.31718">
        <ele>1591</ele>
        <time>2021-10-02T08:01:13Z</time>
      </trkpt>
      <trkpt lat="42.92717" lon="0.31719">
        <ele>1591.2</ele>
        <time>2021-10-02T08:01:14Z</time>
      </trkpt>
      <trkpt lat="42.92716" lon="0.31719">
        <ele>1591.4</ele>
        <time>2021-10-02T08:01:15Z</time>
      </trkpt>
      <trkpt lat="42.92715" lon="0.31719">
        <ele>1591.6</ele>
        <time>2021-10-02T08:01:16Z</time>
      </trkpt>
      <trkpt lat="42.92713" lon="0.3172">
        <ele>1591.8</ele>
        <time>2021-10-02T08:01:17Z</time>
      </trkpt>
      <trkpt lat="42.92712" lon="0.3172">
        <ele>1592</ele>
        <time>2021-10-02T08:01:18Z</time>
      </trkpt>
      <trkpt lat="42.92712" lon="0.3172">
        <ele>1592</ele>
        <time>2021-10-02T08:01:19Z</time>
      </trkpt>
      <trkpt lat="42.92711" lon="0.3172">
        <ele>1592.2</ele>
        <time>2021-10-02T08:01:20Z</time>
      </trkpt>
      <trkpt lat="42.9271" lon="0.31721">
        <ele>1592.4</ele>
        <time>2021-10-02T08:01:31Z</time>
      </trkpt>
      <trkpt lat="42.9271" lon="0.31721">
        <ele>1592.4</ele>
        <time>2021-10-02T08:01:32Z</time>
      </trkpt>
      <trkpt lat="42.9271" lon="0.31721">
        <ele>1592</ele>
        <time>2021-10-02T08:01:40Z</time>
      </trkpt>
      <trkpt lat="42.92709" lon="0.31721">
        <ele>1591.4</ele>
        <time>2021-10-02T08:01:47Z</time>
      </trkpt>
      <trkpt lat="42.92709" lon="0.31721">
        <ele>1591</ele>
        <time>2021-10-02T08:01:49Z</time>
      </trkpt>
      <trkpt lat="42.92709" lon="0.31721">
        <ele>1590.6</ele>
        <time>2021-10-02T08:01:55Z</time>
      </trkpt>
      <trkpt lat="42.92702" lon="0.3172">
        <ele>1590.2</ele>
        <time>2021-10-02T08:02:01Z</time>
      </trkpt>
      <trkpt lat="42.92694" lon="0.3172">
        <ele>1590.2</ele>
        <time>2021-10-02T08:02:04Z</time>
      </trkpt>
      <trkpt lat="42.92692" lon="0.31719">
        <ele>1589.8</ele>
        <time>2021-10-02T08:02:05Z</time>
      </trkpt>
      <trkpt lat="42.92689" lon="0.31718">
        <ele>1589</ele>
        <time>2021-10-02T08:02:07Z</time>
      </trkpt>
      <trkpt lat="42.92687" lon="0.31718">
        <ele>1588.6</ele>
        <time>2021-10-02T08:02:08Z</time>
      </trkpt>
      <trkpt lat="42.92683" lon="0.31718">
        <ele>1587.4</ele>
        <time>2021-10-02T08:02:10Z</time>
      </trkpt>
      <trkpt lat="42.92678" lon="0.31719">
        <ele>1586</ele>
        <time>2021-10-02T08:02:13Z</time>
      </trkpt>
      <trkpt lat="42.92677" lon="0.31719">
        <ele>1585.2</ele>
        <time>2021-10-02T08:02:14Z</time>
      </trkpt>
      <trkpt lat="42.92675" lon="0.3172">
        <ele>1585</ele>
        <time>2021-10-02T08:02:15Z</time>
      </trkpt>
      <trkpt lat="42.92674" lon="0.3172">
        <ele>1584</ele>
        <time>2021-10-02T08:02:16Z</time>
      </trkpt>
      <trkpt lat="42.92672" lon="0.31721">
        <ele>1583.4</ele>
        <time>2021-10-02T08:02:17Z</time>
      </trkpt>
      <trkpt lat="42.92671" lon="0.31722">
        <ele>1583.2</ele>
        <time>2021-10-02T08:02:18Z</time>
      </trkpt>
      <trkpt lat="42.92671" lon="0.31722">
        <ele>1582.8</ele>
        <time>2021-10-02T08:02:19Z</time>
      </trkpt>
      <trkpt lat="42.92671" lon="0.31722">
        <ele>1582.4</ele>
        <time>2021-10-02T08:02:20Z</time>
      </trkpt>
      <trkpt lat="42.9267" lon="0.31722">
        <ele>1580.8</ele>
        <time>2021-10-02T08:02:23Z</time>
      </trkpt>
      <trkpt lat="42.9267" lon="0.31722">
        <ele>1580.6</ele>
        <time>2021-10-02T08:02:24Z</time>
      </trkpt>
      <trkpt lat="42.92668" lon="0.31722">
        <ele>1579.8</ele>
        <time>2021-10-02T08:02:31Z</time>
      </trkpt>
      <trkpt lat="42.92666" lon="0.31722">
        <ele>1579.8</ele>
        <time>2021-10-02T08:02:32Z</time>
      </trkpt>
      <trkpt lat="42.92663" lon="0.31722">
        <ele>1579.8</ele>
        <time>2021-10-02T08:02:34Z</time>
      </trkpt>
      <trkpt lat="42.92661" lon="0.31723">
        <ele>1579.6</ele>
        <time>2021-10-02T08:02:35Z</time>
      </trkpt>
      <trkpt lat="42.92659" lon="0.31724">
        <ele>1579.6</ele>
        <time>2021-10-02T08:02:36Z</time>
      </trkpt>
      <trkpt lat="42.92656" lon="0.31727">
        <ele>1579.4</ele>
        <time>2021-10-02T08:02:37Z</time>
      </trkpt>
      <trkpt lat="42.92653" lon="0.31728">
        <ele>1579.4</ele>
        <time>2021-10-02T08:02:38Z</time>
      </trkpt>
      <trkpt lat="42.9265" lon="0.31729">
        <ele>1579.2</ele>
        <time>2021-10-02T08:02:39Z</time>
      </trkpt>
      <trkpt lat="42.92647" lon="0.31731">
        <ele>1578.8</ele>
        <time>2021-10-02T08:02:40Z</time>
      </trkpt>
      <trkpt lat="42.92645" lon="0.31733">
        <ele>1577.6</ele>
        <time>2021-10-02T08:02:42Z</time>
      </trkpt>
      <trkpt lat="42.92645" lon="0.31733">
        <ele>1577.2</ele>
        <time>2021-10-02T08:02:43Z</time>
      </trkpt>
      <trkpt lat="42.92645" lon="0.31733">
        <ele>1576.2</ele>
        <time>2021-10-02T08:02:44Z</time>
      </trkpt>
      <trkpt lat="42.92645" lon="0.31733">
        <ele>1575.6</ele>
        <time>2021-10-02T08:02:45Z</time>
      </trkpt>
      <trkpt lat="42.92645" lon="0.31733">
        <ele>1574.8</ele>
        <time>2021-10-02T08:02:46Z</time>
      </trkpt>
      <trkpt lat="42.92644" lon="0.31735">
        <ele>1573.8</ele>
        <time>2021-10-02T08:02:51Z</time>
      </trkpt>
      <trkpt lat="42.92644" lon="0.31735">
        <ele>1573.6</ele>
        <time>2021-10-02T08:02:52Z</time>
      </trkpt>
      <trkpt lat="42.92646" lon="0.31738">
        <ele>1574.2</ele>
        <time>2021-10-02T08:02:59Z</time>
      </trkpt>
      <trkpt lat="42.92646" lon="0.31738">
        <ele>1574.8</ele>
        <time>2021-10-02T08:03:07Z</time>
      </trkpt>
      <trkpt lat="42.92646" lon="0.31738">
        <ele>1575.6</ele>
        <time>2021-10-02T08:03:29Z</time>
      </trkpt>
      <trkpt lat="42.92646" lon="0.31738">
        <ele>1575.8</ele>
        <time>2021-10-02T08:03:36Z</time>
      </trkpt>
      <trkpt lat="42.92643" lon="0.31739">
        <ele>1575.6</ele>
        <time>2021-10-02T08:03:39Z</time>
      </trkpt>
      <trkpt lat="42.9264" lon="0.31741">
        <ele>1575.2</ele>
        <time>2021-10-02T08:03:43Z</time>
      </trkpt>
      <trkpt lat="42.92637" lon="0.31743">
        <ele>1574.8</ele>
        <time>2021-10-02T08:03:45Z</time>
      </trkpt>
      <trkpt lat="42.92637" lon="0.31743">
        <ele>1574.6</ele>
        <time>2021-10-02T08:03:46Z</time>
      </trkpt>
      <trkpt lat="42.92633" lon="0.31745">
        <ele>1574.4</ele>
        <time>2021-10-02T08:03:47Z</time>
      </trkpt>
      <trkpt lat="42.9263" lon="0.31747">
        <ele>1573.4</ele>
        <time>2021-10-02T08:03:49Z</time>
      </trkpt>
      <trkpt lat="42.92629" lon="0.31748">
        <ele>1573.2</ele>
        <time>2021-10-02T08:03:50Z</time>
      </trkpt>
      <trkpt lat="42.92629" lon="0.31749">
        <ele>1572.8</ele>
        <time>2021-10-02T08:03:51Z</time>
      </trkpt>
      <trkpt lat="42.92629" lon="0.31749">
        <ele>1572.2</ele>
        <time>2021-10-02T08:03:52Z</time>
      </trkpt>
      <trkpt lat="42.92629" lon="0.31749">
        <ele>1571.8</ele>
        <time>2021-10-02T08:03:53Z</time>
      </trkpt>
      <trkpt lat="42.92629" lon="0.31749">
        <ele>1571.2</ele>
        <time>2021-10-02T08:03:54Z</time>
      </trkpt>
      <trkpt lat="42.92629" lon="0.31749">
        <ele>1570.4</ele>
        <time>2021-10-02T08:03:57Z</time>
      </trkpt>
      <trkpt lat="42.92629" lon="0.31748">
        <ele>1570.2</ele>
        <time>2021-10-02T08:04:02Z</time>
      </trkpt>
      <trkpt lat="42.9263" lon="0.31747">
        <ele>1570.6</ele>
        <time>2021-10-02T08:04:09Z</time>
      </trkpt>
      <trkpt lat="42.92632" lon="0.31745">
        <ele>1571</ele>
        <time>2021-10-02T08:04:11Z</time>
      </trkpt>
      <trkpt lat="42.92633" lon="0.31744">
        <ele>1571.4</ele>
        <time>2021-10-02T08:04:14Z</time>
      </trkpt>
      <trkpt lat="42.92633" lon="0.31744">
        <ele>1572</ele>
        <time>2021-10-02T08:04:16Z</time>
      </trkpt>
      <trkpt lat="42.92634" lon="0.31744">
        <ele>1572</ele>
        <time>2021-10-02T08:04:17Z</time>
      </trkpt>
      <trkpt lat="42.92635" lon="0.31743">
        <ele>1572.8</ele>
        <time>2021-10-02T08:04:21Z</time>
      </trkpt>
      <trkpt lat="42.92635" lon="0.31743">
        <ele>1573</ele>
        <time>2021-10-02T08:04:22Z</time>
      </trkpt>
      <trkpt lat="42.92637" lon="0.31742">
        <ele>1573.4</ele>
        <time>2021-10-02T08:04:25Z</time>
      </trkpt>
      <trkpt lat="42.92638" lon="0.31742">
        <ele>1573.6</ele>
        <time>2021-10-02T08:04:26Z</time>
      </trkpt>
      <trkpt lat="42.92642" lon="0.31739">
        <ele>1574</ele>
        <time>2021-10-02T08:04:29Z</time>
      </trkpt>
      <trkpt lat="42.92643" lon="0.31738">
        <ele>1574.2</ele>
        <time>2021-10-02T08:04:30Z</time>
      </trkpt>
      <trkpt lat="42.92644" lon="0.31738">
        <ele>1574.4</ele>
        <time>2021-10-02T08:04:31Z</time>
      </trkpt>
      <trkpt lat="42.92645" lon="0.31737">
        <ele>1574.6</ele>
        <time>2021-10-02T08:04:32Z</time>
      </trkpt>
      <trkpt lat="42.92646" lon="0.31737">
        <ele>1574.8</ele>
        <time>2021-10-02T08:04:33Z</time>
      </trkpt>
      <trkpt lat="42.92647" lon="0.31736">
        <ele>1575</ele>
        <time>2021-10-02T08:04:34Z</time>
      </trkpt>
      <trkpt lat="42.92648" lon="0.31735">
        <ele>1575.2</ele>
        <time>2021-10-02T08:04:35Z</time>
      </trkpt>
      <trkpt lat="42.92648" lon="0.31735">
        <ele>1575.6</ele>
        <time>2021-10-02T08:04:36Z</time>
      </trkpt>
      <trkpt lat="42.92648" lon="0.31734">
        <ele>1575.8</ele>
        <time>2021-10-02T08:04:37Z</time>
      </trkpt>
      <trkpt lat="42.92649" lon="0.31733">
        <ele>1576.2</ele>
        <time>2021-10-02T08:04:38Z</time>
      </trkpt>
      <trkpt lat="42.92649" lon="0.31733">
        <ele>1576.4</ele>
        <time>2021-10-02T08:04:39Z</time>
      </trkpt>
      <trkpt lat="42.92649" lon="0.31733">
        <ele>1576.6</ele>
        <time>2021-10-02T08:04:40Z</time>
      </trkpt>
      <trkpt lat="42.9265" lon="0.31732">
        <ele>1576.6</ele>
        <time>2021-10-02T08:04:41Z</time>
      </trkpt>
      <trkpt lat="42.9265" lon="0.31732">
        <ele>1576.8</ele>
        <time>2021-10-02T08:04:42Z</time>
      </trkpt>
      <trkpt lat="42.9265" lon="0.31732">
        <ele>1577</ele>
        <time>2021-10-02T08:04:43Z</time>
      </trkpt>
      <trkpt lat="42.92651" lon="0.31733">
        <ele>1577.2</ele>
        <time>2021-10-02T08:04:44Z</time>
      </trkpt>
      <trkpt lat="42.92653" lon="0.31733">
        <ele>1577.4</ele>
        <time>2021-10-02T08:04:45Z</time>
      </trkpt>
      <trkpt lat="42.92655" lon="0.31732">
        <ele>1577.8</ele>
        <time>2021-10-02T08:04:46Z</time>
      </trkpt>
      <trkpt lat="42.92655" lon="0.3173">
        <ele>1578</ele>
        <time>2021-10-02T08:04:47Z</time>
      </trkpt>
      <trkpt lat="42.92656" lon="0.3173">
        <ele>1578.2</ele>
        <time>2021-10-02T08:04:48Z</time>
      </trkpt>
      <trkpt lat="42.92656" lon="0.3173">
        <ele>1578.4</ele>
        <time>2021-10-02T08:04:49Z</time>
      </trkpt>
      <trkpt lat="42.92656" lon="0.3173">
        <ele>1578.4</ele>
        <time>2021-10-02T08:04:50Z</time>
      </trkpt>
      <trkpt lat="42.92659" lon="0.31727">
        <ele>1578.6</ele>
        <time>2021-10-02T08:04:51Z</time>
      </trkpt>
      <trkpt lat="42.92661" lon="0.31726">
        <ele>1578.8</ele>
        <time>2021-10-02T08:04:52Z</time>
      </trkpt>
      <trkpt lat="42.92661" lon="0.31726">
        <ele>1579</ele>
        <time>2021-10-02T08:04:53Z</time>
      </trkpt>
      <trkpt lat="42.92661" lon="0.31726">
        <ele>1579.2</ele>
        <time>2021-10-02T08:04:54Z</time>
      </trkpt>
      <trkpt lat="42.92662" lon="0.31726">
        <ele>1579.6</ele>
        <time>2021-10-02T08:04:55Z</time>
      </trkpt>
      <trkpt lat="42.92662" lon="0.31726">
        <ele>1579.8</ele>
        <time>2021-10-02T08:04:56Z</time>
      </trkpt>
      <trkpt lat="42.92663" lon="0.31727">
        <ele>1580</ele>
        <time>2021-10-02T08:04:57Z</time>
      </trkpt>
      <trkpt lat="42.92664" lon="0.31727">
        <ele>1580</ele>
        <time>2021-10-02T08:04:58Z</time>
      </trkpt>
      <trkpt lat="42.92664" lon="0.31727">
        <ele>1580.2</ele>
        <time>2021-10-02T08:04:59Z</time>
      </trkpt>
      <trkpt lat="42.92664" lon="0.31727">
        <ele>1580.4</ele>
        <time>2021-10-02T08:05:00Z</time>
      </trkpt>
      <trkpt lat="42.92664" lon="0.31727">
        <ele>1580.6</ele>
        <time>2021-10-02T08:05:01Z</time>
      </trkpt>
      <trkpt lat="42.92668" lon="0.31727">
        <ele>1581.2</ele>
        <time>2021-10-02T08:05:07Z</time>
      </trkpt>
      <trkpt lat="42.9267" lon="0.31727">
        <ele>1581.4</ele>
        <time>2021-10-02T08:05:08Z</time>
      </trkpt>
      <trkpt lat="42.9267" lon="0.31727">
        <ele>1581.6</ele>
        <time>2021-10-02T08:05:09Z</time>
      </trkpt>
      <trkpt lat="42.92671" lon="0.31726">
        <ele>1581.8</ele>
        <time>2021-10-02T08:05:10Z</time>
      </trkpt>
      <trkpt lat="42.92671" lon="0.31726">
        <ele>1581.8</ele>
        <time>2021-10-02T08:05:11Z</time>
      </trkpt>
      <trkpt lat="42.92672" lon="0.31725">
        <ele>1582.2</ele>
        <time>2021-10-02T08:05:12Z</time>
      </trkpt>
      <trkpt lat="42.92672" lon="0.31725">
        <ele>1582.2</ele>
        <time>2021-10-02T08:05:13Z</time>
      </trkpt>
      <trkpt lat="42.92673" lon="0.31724">
        <ele>1582.4</ele>
        <time>2021-10-02T08:05:14Z</time>
      </trkpt>
      <trkpt lat="42.92673" lon="0.31724">
        <ele>1582.4</ele>
        <time>2021-10-02T08:05:15Z</time>
      </trkpt>
      <trkpt lat="42.92674" lon="0.31724">
        <ele>1582.6</ele>
        <time>2021-10-02T08:05:16Z</time>
      </trkpt>
      <trkpt lat="42.92675" lon="0.31724">
        <ele>1582.8</ele>
        <time>2021-10-02T08:05:17Z</time>
      </trkpt>
      <trkpt lat="42.92675" lon="0.31725">
        <ele>1583</ele>
        <time>2021-10-02T08:05:18Z</time>
      </trkpt>
      <trkpt lat="42.92676" lon="0.31724">
        <ele>1583.2</ele>
        <time>2021-10-02T08:05:19Z</time>
      </trkpt>
      <trkpt lat="42.92677" lon="0.31724">
        <ele>1583.6</ele>
        <time>2021-10-02T08:05:20Z</time>
      </trkpt>
      <trkpt lat="42.92678" lon="0.31724">
        <ele>1583.6</ele>
        <time>2021-10-02T08:05:21Z</time>
      </trkpt>
      <trkpt lat="42.92678" lon="0.31724">
        <ele>1583.8</ele>
        <time>2021-10-02T08:05:22Z</time>
      </trkpt>
      <trkpt lat="42.92678" lon="0.31724">
        <ele>1584.4</ele>
        <time>2021-10-02T08:05:25Z</time>
      </trkpt>
      <trkpt lat="42.92678" lon="0.31723">
        <ele>1584.6</ele>
        <time>2021-10-02T08:05:26Z</time>
      </trkpt>
      <trkpt lat="42.92679" lon="0.31723">
        <ele>1584.8</ele>
        <time>2021-10-02T08:05:27Z</time>
      </trkpt>
      <trkpt lat="42.9268" lon="0.31723">
        <ele>1585</ele>
        <time>2021-10-02T08:05:28Z</time>
      </trkpt>
      <trkpt lat="42.92681" lon="0.31723">
        <ele>1585.4</ele>
        <time>2021-10-02T08:05:29Z</time>
      </trkpt>
      <trkpt lat="42.92682" lon="0.31723">
        <ele>1585.6</ele>
        <time>2021-10-02T08:05:30Z</time>
      </trkpt>
      <trkpt lat="42.92682" lon="0.31723">
        <ele>1585.8</ele>
        <time>2021-10-02T08:05:31Z</time>
      </trkpt>
      <trkpt lat="42.92683" lon="0.31724">
        <ele>1585.8</ele>
        <time>2021-10-02T08:05:32Z</time>
      </trkpt>
      <trkpt lat="42.92685" lon="0.31723">
        <ele>1586.2</ele>
        <time>2021-10-02T08:05:33Z</time>
      </trkpt>
      <trkpt lat="42.92686" lon="0.31724">
        <ele>1586.2</ele>
        <time>2021-10-02T08:05:34Z</time>
      </trkpt>
      <trkpt lat="42.92687" lon="0.31724">
        <ele>1586.4</ele>
        <time>2021-10-02T08:05:35Z</time>
      </trkpt>
      <trkpt lat="42.92687" lon="0.31723">
        <ele>1586.6</ele>
        <time>2021-10-02T08:05:36Z</time>
      </trkpt>
      <trkpt lat="42.92688" lon="0.31723">
        <ele>1587</ele>
        <time>2021-10-02T08:05:37Z</time>
      </trkpt>
      <trkpt lat="42.92689" lon="0.31724">
        <ele>1587.2</ele>
        <time>2021-10-02T08:05:38Z</time>
      </trkpt>
      <trkpt lat="42.9269" lon="0.31724">
        <ele>1587.4</ele>
        <time>2021-10-02T08:05:39Z</time>
      </trkpt>
      <trkpt lat="42.92692" lon="0.31723">
        <ele>1587.6</ele>
        <time>2021-10-02T08:05:40Z</time>
      </trkpt>
      <trkpt lat="42.92693" lon="0.31724">
        <ele>1587.8</ele>
        <time>2021-10-02T08:05:41Z</time>
      </trkpt>
      <trkpt lat="42.92693" lon="0.31724">
        <ele>1588</ele>
        <time>2021-10-02T08:05:42Z</time>
      </trkpt>
      <trkpt lat="42.92693" lon="0.31724">
        <ele>1588</ele>
        <time>2021-10-02T08:05:43Z</time>
      </trkpt>
      <trkpt lat="42.92694" lon="0.31724">
        <ele>1588</ele>
        <time>2021-10-02T08:05:44Z</time>
      </trkpt>
      <trkpt lat="42.92694" lon="0.31724">
        <ele>1588</ele>
        <time>2021-10-02T08:05:45Z</time>
      </trkpt>
      <trkpt lat="42.92695" lon="0.31723">
        <ele>1588.4</ele>
        <time>2021-10-02T08:05:46Z</time>
      </trkpt>
      <trkpt lat="42.92696" lon="0.31723">
        <ele>1588.6</ele>
        <time>2021-10-02T08:05:47Z</time>
      </trkpt>
      <trkpt lat="42.92697" lon="0.31723">
        <ele>1588.8</ele>
        <time>2021-10-02T08:05:48Z</time>
      </trkpt>
      <trkpt lat="42.92698" lon="0.31723">
        <ele>1589</ele>
        <time>2021-10-02T08:05:49Z</time>
      </trkpt>
      <trkpt lat="42.92698" lon="0.31723">
        <ele>1589.2</ele>
        <time>2021-10-02T08:05:50Z</time>
      </trkpt>
      <trkpt lat="42.92699" lon="0.31723">
        <ele>1589.2</ele>
        <time>2021-10-02T08:05:51Z</time>
      </trkpt>
      <trkpt lat="42.927" lon="0.31722">
        <ele>1589.4</ele>
        <time>2021-10-02T08:05:52Z</time>
      </trkpt>
      <trkpt lat="42.927" lon="0.31722">
        <ele>1589.6</ele>
        <time>2021-10-02T08:05:53Z</time>
      </trkpt>
      <trkpt lat="42.92701" lon="0.31722">
        <ele>1589.6</ele>
        <time>2021-10-02T08:05:54Z</time>
      </trkpt>
      <trkpt lat="42.92702" lon="0.31722">
        <ele>1589.8</ele>
        <time>2021-10-02T08:05:55Z</time>
      </trkpt>
      <trkpt lat="42.92703" lon="0.31722">
        <ele>1590.2</ele>
        <time>2021-10-02T08:05:56Z</time>
      </trkpt>
      <trkpt lat="42.92703" lon="0.31722">
        <ele>1590.2</ele>
        <time>2021-10-02T08:05:57Z</time>
      </trkpt>
      <trkpt lat="42.92704" lon="0.31722">
        <ele>1590.4</ele>
        <time>2021-10-02T08:05:58Z</time>
      </trkpt>
      <trkpt lat="42.92705" lon="0.31723">
        <ele>1590.4</ele>
        <time>2021-10-02T08:05:59Z</time>
      </trkpt>
      <trkpt lat="42.92705" lon="0.31723">
        <ele>1590.6</ele>
        <time>2021-10-02T08:06:00Z</time>
      </trkpt>
      <trkpt lat="42.92706" lon="0.31722">
        <ele>1590.8</ele>
        <time>2021-10-02T08:06:01Z</time>
      </trkpt>
      <trkpt lat="42.92706" lon="0.31722">
        <ele>1591.2</ele>
        <time>2021-10-02T08:06:02Z</time>
      </trkpt>
      <trkpt lat="42.92707" lon="0.31722">
        <ele>1591.4</ele>
        <time>2021-10-02T08:06:03Z</time>
      </trkpt>
      <trkpt lat="42.92708" lon="0.31722">
        <ele>1591.8</ele>
        <time>2021-10-02T08:06:04Z</time>
      </trkpt>
      <trkpt lat="42.92709" lon="0.31721">
        <ele>1592.2</ele>
        <time>2021-10-02T08:06:05Z</time>
      </trkpt>
      <trkpt lat="42.92709" lon="0.3172">
        <ele>1592.4</ele>
        <time>2021-10-02T08:06:06Z</time>
      </trkpt>
      <trkpt lat="42.9271" lon="0.31719">
        <ele>1592.6</ele>
        <time>2021-10-02T08:06:07Z</time>
      </trkpt>
      <trkpt lat="42.9271" lon="0.31718">
        <ele>1592.8</ele>
        <time>2021-10-02T08:06:08Z</time>
      </trkpt>
      <trkpt lat="42.9271" lon="0.31717">
        <ele>1593</ele>
        <time>2021-10-02T08:06:09Z</time>
      </trkpt>
      <trkpt lat="42.92709" lon="0.31716">
        <ele>1593</ele>
        <time>2021-10-02T08:06:10Z</time>
      </trkpt>
      <trkpt lat="42.92709" lon="0.31715">
        <ele>1593.2</ele>
        <time>2021-10-02T08:06:11Z</time>
      </trkpt>
      <trkpt lat="42.92708" lon="0.31714">
        <ele>1593.2</ele>
        <time>2021-10-02T08:06:12Z</time>
      </trkpt>
      <trkpt lat="42.92707" lon="0.31714">
        <ele>1593.6</ele>
        <time>2021-10-02T08:06:13Z</time>
      </trkpt>
      <trkpt lat="42.92706" lon="0.31713">
        <ele>1593.8</ele>
        <time>2021-10-02T08:06:14Z</time>
      </trkpt>
      <trkpt lat="42.92706" lon="0.31713">
        <ele>1594</ele>
        <time>2021-10-02T08:06:15Z</time>
      </trkpt>
      <trkpt lat="42.92705" lon="0.31712">
        <ele>1594.2</ele>
        <time>2021-10-02T08:06:16Z</time>
      </trkpt>
      <trkpt lat="42.92704" lon="0.31712">
        <ele>1594.4</ele>
        <time>2021-10-02T08:06:17Z</time>
      </trkpt>
      <trkpt lat="42.92703" lon="0.31712">
        <ele>1594.4</ele>
        <time>2021-10-02T08:06:18Z</time>
      </trkpt>
      <trkpt lat="42.92702" lon="0.31711">
        <ele>1594.4</ele>
        <time>2021-10-02T08:06:19Z</time>
      </trkpt>
      <trkpt lat="42.92701" lon="0.3171">
        <ele>1594.4</ele>
        <time>2021-10-02T08:06:20Z</time>
      </trkpt>
      <trkpt lat="42.927" lon="0.31709">
        <ele>1594.4</ele>
        <time>2021-10-02T08:06:21Z</time>
      </trkpt>
      <trkpt lat="42.927" lon="0.31709">
        <ele>1594.4</ele>
        <time>2021-10-02T08:06:22Z</time>
      </trkpt>
      <trkpt lat="42.92699" lon="0.31708">
        <ele>1594.4</ele>
        <time>2021-10-02T08:06:23Z</time>
      </trkpt>
      <trkpt lat="42.92698" lon="0.31707">
        <ele>1594.4</ele>
        <time>2021-10-02T08:06:24Z</time>
      </trkpt>
      <trkpt lat="42.92697" lon="0.31706">
        <ele>1594.2</ele>
        <time>2021-10-02T08:06:25Z</time>
      </trkpt>
      <trkpt lat="42.92695" lon="0.31705">
        <ele>1594.2</ele>
        <time>2021-10-02T08:06:26Z</time>
      </trkpt>
      <trkpt lat="42.92695" lon="0.31705">
        <ele>1594</ele>
        <time>2021-10-02T08:06:27Z</time>
      </trkpt>
      <trkpt lat="42.92694" lon="0.31704">
        <ele>1593.8</ele>
        <time>2021-10-02T08:06:28Z</time>
      </trkpt>
      <trkpt lat="42.92693" lon="0.31703">
        <ele>1593.8</ele>
        <time>2021-10-02T08:06:29Z</time>
      </trkpt>
      <trkpt lat="42.92692" lon="0.31703">
        <ele>1593.8</ele>
        <time>2021-10-02T08:06:30Z</time>
      </trkpt>
      <trkpt lat="42.92691" lon="0.31702">
        <ele>1593.8</ele>
        <time>2021-10-02T08:06:31Z</time>
      </trkpt>
      <trkpt lat="42.92691" lon="0.31702">
        <ele>1593.6</ele>
        <time>2021-10-02T08:06:33Z</time>
      </trkpt>
      <trkpt lat="42.92689" lon="0.317">
        <ele>1593.6</ele>
        <time>2021-10-02T08:06:35Z</time>
      </trkpt>
      <trkpt lat="42.92686" lon="0.31698">
        <ele>1593.6</ele>
        <time>2021-10-02T08:06:39Z</time>
      </trkpt>
      <trkpt lat="42.92685" lon="0.31698">
        <ele>1593.6</ele>
        <time>2021-10-02T08:06:40Z</time>
      </trkpt>
      <trkpt lat="42.92683" lon="0.31696">
        <ele>1593.8</ele>
        <time>2021-10-02T08:06:43Z</time>
      </trkpt>
      <trkpt lat="42.92682" lon="0.31695">
        <ele>1593.8</ele>
        <time>2021-10-02T08:06:44Z</time>
      </trkpt>
      <trkpt lat="42.92679" lon="0.31693">
        <ele>1593.8</ele>
        <time>2021-10-02T08:06:48Z</time>
      </trkpt>
      <trkpt lat="42.92678" lon="0.31693">
        <ele>1594</ele>
        <time>2021-10-02T08:06:50Z</time>
      </trkpt>
      <trkpt lat="42.92678" lon="0.31693">
        <ele>1594.4</ele>
        <time>2021-10-02T08:06:51Z</time>
      </trkpt>
      <trkpt lat="42.92677" lon="0.31692">
        <ele>1594.4</ele>
        <time>2021-10-02T08:06:52Z</time>
      </trkpt>
      <trkpt lat="42.92676" lon="0.31692">
        <ele>1594.6</ele>
        <time>2021-10-02T08:06:53Z</time>
      </trkpt>
      <trkpt lat="42.92676" lon="0.31692">
        <ele>1594.6</ele>
        <time>2021-10-02T08:06:54Z</time>
      </trkpt>
      <trkpt lat="42.92675" lon="0.31691">
        <ele>1595.2</ele>
        <time>2021-10-02T08:06:57Z</time>
      </trkpt>
      <trkpt lat="42.92674" lon="0.31691">
        <ele>1595.4</ele>
        <time>2021-10-02T08:06:58Z</time>
      </trkpt>
      <trkpt lat="42.92674" lon="0.3169">
        <ele>1595.4</ele>
        <time>2021-10-02T08:06:59Z</time>
      </trkpt>
      <trkpt lat="42.92673" lon="0.3169">
        <ele>1595.4</ele>
        <time>2021-10-02T08:07:00Z</time>
      </trkpt>
      <trkpt lat="42.92673" lon="0.3169">
        <ele>1595.6</ele>
        <time>2021-10-02T08:07:01Z</time>
      </trkpt>
      <trkpt lat="42.92673" lon="0.3169">
        <ele>1596.4</ele>
        <time>2021-10-02T08:07:04Z</time>
      </trkpt>
      <trkpt lat="42.92673" lon="0.3169">
        <ele>1597</ele>
        <time>2021-10-02T08:07:08Z</time>
      </trkpt>
      <trkpt lat="42.92673" lon="0.3169">
        <ele>1597.4</ele>
        <time>2021-10-02T08:07:13Z</time>
      </trkpt>
      <trkpt lat="42.92673" lon="0.3169">
        <ele>1597.6</ele>
        <time>2021-10-02T08:07:16Z</time>
      </trkpt>
      <trkpt lat="42.92673" lon="0.3169">
        <ele>1597.8</ele>
        <time>2021-10-02T08:07:17Z</time>
      </trkpt>
      <trkpt lat="42.92672" lon="0.3169">
        <ele>1598</ele>
        <time>2021-10-02T08:07:20Z</time>
      </trkpt>
      <trkpt lat="42.92672" lon="0.3169">
        <ele>1598.2</ele>
        <time>2021-10-02T08:07:21Z</time>
      </trkpt>
      <trkpt lat="42.92672" lon="0.3169">
        <ele>1598.2</ele>
        <time>2021-10-02T08:07:23Z</time>
      </trkpt>
      <trkpt lat="42.92672" lon="0.3169">
        <ele>1598.8</ele>
        <time>2021-10-02T08:07:26Z</time>
      </trkpt>
      <trkpt lat="42.9267" lon="0.3169">
        <ele>1599.4</ele>
        <time>2021-10-02T08:07:30Z</time>
      </trkpt>
      <trkpt lat="42.92669" lon="0.3169">
        <ele>1599.4</ele>
        <time>2021-10-02T08:07:31Z</time>
      </trkpt>
      <trkpt lat="42.92667" lon="0.3169">
        <ele>1599.4</ele>
        <time>2021-10-02T08:07:32Z</time>
      </trkpt>
      <trkpt lat="42.92665" lon="0.3169">
        <ele>1599.6</ele>
        <time>2021-10-02T08:07:33Z</time>
      </trkpt>
      <trkpt lat="42.92663" lon="0.31689">
        <ele>1599.8</ele>
        <time>2021-10-02T08:07:34Z</time>
      </trkpt>
      <trkpt lat="42.92662" lon="0.31689">
        <ele>1599.8</ele>
        <time>2021-10-02T08:07:35Z</time>
      </trkpt>
      <trkpt lat="42.92661" lon="0.31689">
        <ele>1599.8</ele>
        <time>2021-10-02T08:07:36Z</time>
      </trkpt>
      <trkpt lat="42.92659" lon="0.31688">
        <ele>1599.8</ele>
        <time>2021-10-02T08:07:37Z</time>
      </trkpt>
      <trkpt lat="42.92657" lon="0.31687">
        <ele>1600</ele>
        <time>2021-10-02T08:07:38Z</time>
      </trkpt>
      <trkpt lat="42.92656" lon="0.31687">
        <ele>1600</ele>
        <time>2021-10-02T08:07:39Z</time>
      </trkpt>
      <trkpt lat="42.92655" lon="0.31687">
        <ele>1600</ele>
        <time>2021-10-02T08:07:40Z</time>
      </trkpt>
      <trkpt lat="42.92654" lon="0.31685">
        <ele>1600</ele>
        <time>2021-10-02T08:07:41Z</time>
      </trkpt>
      <trkpt lat="42.92652" lon="0.31684">
        <ele>1600</ele>
        <time>2021-10-02T08:07:42Z</time>
      </trkpt>
      <trkpt lat="42.92652" lon="0.31684">
        <ele>1600</ele>
        <time>2021-10-02T08:07:43Z</time>
      </trkpt>
      <trkpt lat="42.92652" lon="0.31684">
        <ele>1600</ele>
        <time>2021-10-02T08:07:44Z</time>
      </trkpt>
      <trkpt lat="42.92652" lon="0.31684">
        <ele>1600</ele>
        <time>2021-10-02T08:07:45Z</time>
      </trkpt>
      <trkpt lat="42.92651" lon="0.31683">
        <ele>1600.2</ele>
        <time>2021-10-02T08:07:46Z</time>
      </trkpt>
      <trkpt lat="42.9265" lon="0.31682">
        <ele>1600.2</ele>
        <time>2021-10-02T08:07:48Z</time>
      </trkpt>
      <trkpt lat="42.92649" lon="0.31682">
        <ele>1600.2</ele>
        <time>2021-10-02T08:07:49Z</time>
      </trkpt>
      <trkpt lat="42.92648" lon="0.31682">
        <ele>1600.4</ele>
        <time>2021-10-02T08:07:50Z</time>
      </trkpt>
      <trkpt lat="42.92647" lon="0.31682">
        <ele>1600.6</ele>
        <time>2021-10-02T08:07:51Z</time>
      </trkpt>
      <trkpt lat="42.92644" lon="0.31681">
        <ele>1601</ele>
        <time>2021-10-02T08:07:54Z</time>
      </trkpt>
      <trkpt lat="42.92642" lon="0.3168">
        <ele>1601.4</ele>
        <time>2021-10-02T08:07:58Z</time>
      </trkpt>
      <trkpt lat="42.92635" lon="0.31677">
        <ele>1601.6</ele>
        <time>2021-10-02T08:08:05Z</time>
      </trkpt>
      <trkpt lat="42.92634" lon="0.31677">
        <ele>1601.6</ele>
        <time>2021-10-02T08:08:07Z</time>
      </trkpt>
      <trkpt lat="42.92633" lon="0.31677">
        <ele>1601.6</ele>
        <time>2021-10-02T08:08:08Z</time>
      </trkpt>
      <trkpt lat="42.92632" lon="0.31677">
        <ele>1601.8</ele>
        <time>2021-10-02T08:08:09Z</time>
      </trkpt>
      <trkpt lat="42.92629" lon="0.31675">
        <ele>1602</ele>
        <time>2021-10-02T08:08:12Z</time>
      </trkpt>
      <trkpt lat="42.92628" lon="0.31675">
        <ele>1602.2</ele>
        <time>2021-10-02T08:08:13Z</time>
      </trkpt>
      <trkpt lat="42.92627" lon="0.31674">
        <ele>1602.4</ele>
        <time>2021-10-02T08:08:14Z</time>
      </trkpt>
      <trkpt lat="42.92626" lon="0.31674">
        <ele>1602.4</ele>
        <time>2021-10-02T08:08:15Z</time>
      </trkpt>
      <trkpt lat="42.92625" lon="0.31674">
        <ele>1602.6</ele>
        <time>2021-10-02T08:08:16Z</time>
      </trkpt>
      <trkpt lat="42.92625" lon="0.31674">
        <ele>1602.6</ele>
        <time>2021-10-02T08:08:17Z</time>
      </trkpt>
      <trkpt lat="42.92621" lon="0.31672">
        <ele>1603.2</ele>
        <time>2021-10-02T08:08:21Z</time>
      </trkpt>
      <trkpt lat="42.92621" lon="0.31672">
        <ele>1603.4</ele>
        <time>2021-10-02T08:08:22Z</time>
      </trkpt>
      <trkpt lat="42.9262" lon="0.31672">
        <ele>1603.6</ele>
        <time>2021-10-02T08:08:23Z</time>
      </trkpt>
      <trkpt lat="42.92619" lon="0.31671">
        <ele>1604.2</ele>
        <time>2021-10-02T08:08:29Z</time>
      </trkpt>
      <trkpt lat="42.92618" lon="0.31672">
        <ele>1604.2</ele>
        <time>2021-10-02T08:08:30Z</time>
      </trkpt>
      <trkpt lat="42.92617" lon="0.31672">
        <ele>1604.4</ele>
        <time>2021-10-02T08:08:31Z</time>
      </trkpt>
      <trkpt lat="42.92616" lon="0.31671">
        <ele>1604.4</ele>
        <time>2021-10-02T08:08:32Z</time>
      </trkpt>
      <trkpt lat="42.92616" lon="0.31671">
        <ele>1604.6</ele>
        <time>2021-10-02T08:08:33Z</time>
      </trkpt>
      <trkpt lat="42.92616" lon="0.31672">
        <ele>1604.8</ele>
        <time>2021-10-02T08:08:35Z</time>
      </trkpt>
      <trkpt lat="42.92615" lon="0.31671">
        <ele>1605</ele>
        <time>2021-10-02T08:08:36Z</time>
      </trkpt>
      <trkpt lat="42.92614" lon="0.31671">
        <ele>1605</ele>
        <time>2021-10-02T08:08:37Z</time>
      </trkpt>
      <trkpt lat="42.92614" lon="0.31671">
        <ele>1605.2</ele>
        <time>2021-10-02T08:08:38Z</time>
      </trkpt>
      <trkpt lat="42.92614" lon="0.31671">
        <ele>1605.6</ele>
        <time>2021-10-02T08:08:39Z</time>
      </trkpt>
      <trkpt lat="42.92611" lon="0.31669">
        <ele>1606</ele>
        <time>2021-10-02T08:08:42Z</time>
      </trkpt>
      <trkpt lat="42.9261" lon="0.31668">
        <ele>1606</ele>
        <time>2021-10-02T08:08:43Z</time>
      </trkpt>
      <trkpt lat="42.92609" lon="0.31667">
        <ele>1606.2</ele>
        <time>2021-10-02T08:08:44Z</time>
      </trkpt>
      <trkpt lat="42.92608" lon="0.31666">
        <ele>1606.2</ele>
        <time>2021-10-02T08:08:45Z</time>
      </trkpt>
      <trkpt lat="42.92607" lon="0.31665">
        <ele>1606.2</ele>
        <time>2021-10-02T08:08:46Z</time>
      </trkpt>
      <trkpt lat="42.92607" lon="0.31664">
        <ele>1606.4</ele>
        <time>2021-10-02T08:08:47Z</time>
      </trkpt>
      <trkpt lat="42.92605" lon="0.31663">
        <ele>1606.6</ele>
        <time>2021-10-02T08:08:48Z</time>
      </trkpt>
      <trkpt lat="42.92605" lon="0.31662">
        <ele>1606.6</ele>
        <time>2021-10-02T08:08:49Z</time>
      </trkpt>
      <trkpt lat="42.92604" lon="0.31661">
        <ele>1606.8</ele>
        <time>2021-10-02T08:08:50Z</time>
      </trkpt>
      <trkpt lat="42.92603" lon="0.3166">
        <ele>1606.8</ele>
        <time>2021-10-02T08:08:51Z</time>
      </trkpt>
      <trkpt lat="42.92602" lon="0.3166">
        <ele>1606.8</ele>
        <time>2021-10-02T08:08:52Z</time>
      </trkpt>
      <trkpt lat="42.926" lon="0.31659">
        <ele>1607</ele>
        <time>2021-10-02T08:08:53Z</time>
      </trkpt>
      <trkpt lat="42.92599" lon="0.31658">
        <ele>1607</ele>
        <time>2021-10-02T08:08:54Z</time>
      </trkpt>
      <trkpt lat="42.92598" lon="0.31658">
        <ele>1607.2</ele>
        <time>2021-10-02T08:08:55Z</time>
      </trkpt>
      <trkpt lat="42.92597" lon="0.31657">
        <ele>1607.4</ele>
        <time>2021-10-02T08:08:56Z</time>
      </trkpt>
      <trkpt lat="42.92596" lon="0.31657">
        <ele>1607.6</ele>
        <time>2021-10-02T08:08:57Z</time>
      </trkpt>
      <trkpt lat="42.92595" lon="0.31657">
        <ele>1607.8</ele>
        <time>2021-10-02T08:08:58Z</time>
      </trkpt>
      <trkpt lat="42.92594" lon="0.31655">
        <ele>1608</ele>
        <time>2021-10-02T08:08:59Z</time>
      </trkpt>
      <trkpt lat="42.92593" lon="0.31654">
        <ele>1608</ele>
        <time>2021-10-02T08:09:00Z</time>
      </trkpt>
      <trkpt lat="42.92592" lon="0.31653">
        <ele>1608</ele>
        <time>2021-10-02T08:09:01Z</time>
      </trkpt>
      <trkpt lat="42.92592" lon="0.31651">
        <ele>1608.2</ele>
        <time>2021-10-02T08:09:02Z</time>
      </trkpt>
      <trkpt lat="42.92591" lon="0.31651">
        <ele>1608.4</ele>
        <time>2021-10-02T08:09:03Z</time>
      </trkpt>
      <trkpt lat="42.9259" lon="0.3165">
        <ele>1608.4</ele>
        <time>2021-10-02T08:09:04Z</time>
      </trkpt>
      <trkpt lat="42.92589" lon="0.31649">
        <ele>1608.6</ele>
        <time>2021-10-02T08:09:05Z</time>
      </trkpt>
      <trkpt lat="42.92588" lon="0.31649">
        <ele>1608.6</ele>
        <time>2021-10-02T08:09:06Z</time>
      </trkpt>
      <trkpt lat="42.92587" lon="0.31648">
        <ele>1608.8</ele>
        <time>2021-10-02T08:09:07Z</time>
      </trkpt>
      <trkpt lat="42.92586" lon="0.31647">
        <ele>1608.8</ele>
        <time>2021-10-02T08:09:08Z</time>
      </trkpt>
      <trkpt lat="42.92585" lon="0.31647">
        <ele>1608.8</ele>
        <time>2021-10-02T08:09:09Z</time>
      </trkpt>
      <trkpt lat="42.92584" lon="0.31647">
        <ele>1609</ele>
        <time>2021-10-02T08:09:10Z</time>
      </trkpt>
      <trkpt lat="42.92584" lon="0.31646">
        <ele>1609</ele>
        <time>2021-10-02T08:09:11Z</time>
      </trkpt>
      <trkpt lat="42.92583" lon="0.31646">
        <ele>1609</ele>
        <time>2021-10-02T08:09:12Z</time>
      </trkpt>
      <trkpt lat="42.92582" lon="0.31646">
        <ele>1609.2</ele>
        <time>2021-10-02T08:09:13Z</time>
      </trkpt>
      <trkpt lat="42.92581" lon="0.31645">
        <ele>1609.2</ele>
        <time>2021-10-02T08:09:14Z</time>
      </trkpt>
      <trkpt lat="42.9258" lon="0.31644">
        <ele>1609.4</ele>
        <time>2021-10-02T08:09:15Z</time>
      </trkpt>
      <trkpt lat="42.92579" lon="0.31644">
        <ele>1609.4</ele>
        <time>2021-10-02T08:09:16Z</time>
      </trkpt>
      <trkpt lat="42.92578" lon="0.31643">
        <ele>1609.6</ele>
        <time>2021-10-02T08:09:17Z</time>
      </trkpt>
      <trkpt lat="42.92577" lon="0.31643">
        <ele>1609.6</ele>
        <time>2021-10-02T08:09:18Z</time>
      </trkpt>
      <trkpt lat="42.92577" lon="0.31642">
        <ele>1609.8</ele>
        <time>2021-10-02T08:09:19Z</time>
      </trkpt>
      <trkpt lat="42.92575" lon="0.31641">
        <ele>1610</ele>
        <time>2021-10-02T08:09:21Z</time>
      </trkpt>
      <trkpt lat="42.92574" lon="0.31641">
        <ele>1610.4</ele>
        <time>2021-10-02T08:09:23Z</time>
      </trkpt>
      <trkpt lat="42.92574" lon="0.31641">
        <ele>1610.6</ele>
        <time>2021-10-02T08:09:24Z</time>
      </trkpt>
      <trkpt lat="42.92574" lon="0.31641">
        <ele>1610.8</ele>
        <time>2021-10-02T08:09:25Z</time>
      </trkpt>
      <trkpt lat="42.92573" lon="0.31641">
        <ele>1611</ele>
        <time>2021-10-02T08:09:26Z</time>
      </trkpt>
      <trkpt lat="42.92572" lon="0.31641">
        <ele>1611</ele>
        <time>2021-10-02T08:09:27Z</time>
      </trkpt>
      <trkpt lat="42.92571" lon="0.3164">
        <ele>1611.2</ele>
        <time>2021-10-02T08:09:28Z</time>
      </trkpt>
      <trkpt lat="42.9257" lon="0.3164">
        <ele>1611.2</ele>
        <time>2021-10-02T08:09:29Z</time>
      </trkpt>
      <trkpt lat="42.9257" lon="0.31639">
        <ele>1611.4</ele>
        <time>2021-10-02T08:09:30Z</time>
      </trkpt>
      <trkpt lat="42.92569" lon="0.31639">
        <ele>1611.6</ele>
        <time>2021-10-02T08:09:31Z</time>
      </trkpt>
      <trkpt lat="42.92569" lon="0.31639">
        <ele>1611.8</ele>
        <time>2021-10-02T08:09:32Z</time>
      </trkpt>
      <trkpt lat="42.92569" lon="0.31638">
        <ele>1612</ele>
        <time>2021-10-02T08:09:33Z</time>
      </trkpt>
      <trkpt lat="42.92568" lon="0.31638">
        <ele>1612.2</ele>
        <time>2021-10-02T08:09:34Z</time>
      </trkpt>
      <trkpt lat="42.92568" lon="0.31638">
        <ele>1612.6</ele>
        <time>2021-10-02T08:09:37Z</time>
      </trkpt>
      <trkpt lat="42.92567" lon="0.31637">
        <ele>1612.8</ele>
        <time>2021-10-02T08:09:38Z</time>
      </trkpt>
      <trkpt lat="42.92567" lon="0.31636">
        <ele>1612.8</ele>
        <time>2021-10-02T08:09:39Z</time>
      </trkpt>
      <trkpt lat="42.92566" lon="0.31636">
        <ele>1613.2</ele>
        <time>2021-10-02T08:09:40Z</time>
      </trkpt>
      <trkpt lat="42.92566" lon="0.31636">
        <ele>1613.4</ele>
        <time>2021-10-02T08:09:41Z</time>
      </trkpt>
      <trkpt lat="42.92566" lon="0.31636">
        <ele>1613.4</ele>
        <time>2021-10-02T08:09:42Z</time>
      </trkpt>
      <trkpt lat="42.92566" lon="0.31636">
        <ele>1613.8</ele>
        <time>2021-10-02T08:09:45Z</time>
      </trkpt>
      <trkpt lat="42.92565" lon="0.31635">
        <ele>1614.2</ele>
        <time>2021-10-02T08:09:48Z</time>
      </trkpt>
      <trkpt lat="42.92564" lon="0.31635">
        <ele>1614.8</ele>
        <time>2021-10-02T08:09:50Z</time>
      </trkpt>
      <trkpt lat="42.92563" lon="0.31635">
        <ele>1614.8</ele>
        <time>2021-10-02T08:09:51Z</time>
      </trkpt>
      <trkpt lat="42.92562" lon="0.31635">
        <ele>1614.8</ele>
        <time>2021-10-02T08:09:52Z</time>
      </trkpt>
      <trkpt lat="42.92562" lon="0.31635">
        <ele>1615.2</ele>
        <time>2021-10-02T08:09:53Z</time>
      </trkpt>
      <trkpt lat="42.92562" lon="0.31635">
        <ele>1615.4</ele>
        <time>2021-10-02T08:09:54Z</time>
      </trkpt>
      <trkpt lat="42.92562" lon="0.31635">
        <ele>1615.6</ele>
        <time>2021-10-02T08:09:55Z</time>
      </trkpt>
      <trkpt lat="42.92561" lon="0.31633">
        <ele>1616</ele>
        <time>2021-10-02T08:09:58Z</time>
      </trkpt>
      <trkpt lat="42.9256" lon="0.31633">
        <ele>1616.2</ele>
        <time>2021-10-02T08:09:59Z</time>
      </trkpt>
      <trkpt lat="42.9256" lon="0.31633">
        <ele>1616.2</ele>
        <time>2021-10-02T08:10:00Z</time>
      </trkpt>
      <trkpt lat="42.9256" lon="0.31633">
        <ele>1616.6</ele>
        <time>2021-10-02T08:10:04Z</time>
      </trkpt>
      <trkpt lat="42.9256" lon="0.31633">
        <ele>1616.8</ele>
        <time>2021-10-02T08:10:06Z</time>
      </trkpt>
      <trkpt lat="42.92558" lon="0.31631">
        <ele>1617.2</ele>
        <time>2021-10-02T08:10:10Z</time>
      </trkpt>
      <trkpt lat="42.92557" lon="0.31629">
        <ele>1617.4</ele>
        <time>2021-10-02T08:10:11Z</time>
      </trkpt>
      <trkpt lat="42.92556" lon="0.31628">
        <ele>1617.6</ele>
        <time>2021-10-02T08:10:12Z</time>
      </trkpt>
      <trkpt lat="42.92555" lon="0.31627">
        <ele>1617.8</ele>
        <time>2021-10-02T08:10:13Z</time>
      </trkpt>
      <trkpt lat="42.92553" lon="0.31626">
        <ele>1617.8</ele>
        <time>2021-10-02T08:10:14Z</time>
      </trkpt>
      <trkpt lat="42.92552" lon="0.31624">
        <ele>1618.2</ele>
        <time>2021-10-02T08:10:15Z</time>
      </trkpt>
      <trkpt lat="42.92551" lon="0.31623">
        <ele>1618.2</ele>
        <time>2021-10-02T08:10:16Z</time>
      </trkpt>
      <trkpt lat="42.9255" lon="0.31622">
        <ele>1618.2</ele>
        <time>2021-10-02T08:10:17Z</time>
      </trkpt>
      <trkpt lat="42.92549" lon="0.3162">
        <ele>1618.2</ele>
        <time>2021-10-02T08:10:18Z</time>
      </trkpt>
      <trkpt lat="42.92548" lon="0.31619">
        <ele>1618.2</ele>
        <time>2021-10-02T08:10:19Z</time>
      </trkpt>
      <trkpt lat="42.92548" lon="0.31618">
        <ele>1618.2</ele>
        <time>2021-10-02T08:10:20Z</time>
      </trkpt>
      <trkpt lat="42.92547" lon="0.31617">
        <ele>1618.2</ele>
        <time>2021-10-02T08:10:21Z</time>
      </trkpt>
      <trkpt lat="42.92546" lon="0.31617">
        <ele>1618.2</ele>
        <time>2021-10-02T08:10:22Z</time>
      </trkpt>
      <trkpt lat="42.92546" lon="0.31616">
        <ele>1618.2</ele>
        <time>2021-10-02T08:10:23Z</time>
      </trkpt>
      <trkpt lat="42.92546" lon="0.31616">
        <ele>1618.2</ele>
        <time>2021-10-02T08:10:24Z</time>
      </trkpt>
      <trkpt lat="42.92546" lon="0.31616">
        <ele>1618.2</ele>
        <time>2021-10-02T08:10:28Z</time>
      </trkpt>
      <trkpt lat="42.92544" lon="0.31615">
        <ele>1618.4</ele>
        <time>2021-10-02T08:10:30Z</time>
      </trkpt>
      <trkpt lat="42.92541" lon="0.31612">
        <ele>1618.6</ele>
        <time>2021-10-02T08:10:34Z</time>
      </trkpt>
      <trkpt lat="42.92538" lon="0.31611">
        <ele>1618.8</ele>
        <time>2021-10-02T08:10:38Z</time>
      </trkpt>
      <trkpt lat="42.92538" lon="0.31611">
        <ele>1618.8</ele>
        <time>2021-10-02T08:10:39Z</time>
      </trkpt>
      <trkpt lat="42.92538" lon="0.31611">
        <ele>1619</ele>
        <time>2021-10-02T08:10:40Z</time>
      </trkpt>
      <trkpt lat="42.92538" lon="0.31611">
        <ele>1619.2</ele>
        <time>2021-10-02T08:10:42Z</time>
      </trkpt>
      <trkpt lat="42.92536" lon="0.31609">
        <ele>1619.4</ele>
        <time>2021-10-02T08:10:47Z</time>
      </trkpt>
      <trkpt lat="42.92533" lon="0.31608">
        <ele>1619.4</ele>
        <time>2021-10-02T08:10:50Z</time>
      </trkpt>
      <trkpt lat="42.92532" lon="0.31607">
        <ele>1619.6</ele>
        <time>2021-10-02T08:10:51Z</time>
      </trkpt>
      <trkpt lat="42.92531" lon="0.31607">
        <ele>1619.6</ele>
        <time>2021-10-02T08:10:52Z</time>
      </trkpt>
      <trkpt lat="42.9253" lon="0.31605">
        <ele>1620</ele>
        <time>2021-10-02T08:10:54Z</time>
      </trkpt>
      <trkpt lat="42.92529" lon="0.31603">
        <ele>1620.2</ele>
        <time>2021-10-02T08:10:55Z</time>
      </trkpt>
      <trkpt lat="42.92529" lon="0.31603">
        <ele>1620.2</ele>
        <time>2021-10-02T08:10:56Z</time>
      </trkpt>
      <trkpt lat="42.92526" lon="0.31599">
        <ele>1620.4</ele>
        <time>2021-10-02T08:10:59Z</time>
      </trkpt>
      <trkpt lat="42.92521" lon="0.31594">
        <ele>1621.4</ele>
        <time>2021-10-02T08:11:06Z</time>
      </trkpt>
      <trkpt lat="42.92518" lon="0.31591">
        <ele>1622</ele>
        <time>2021-10-02T08:11:10Z</time>
      </trkpt>
      <trkpt lat="42.92517" lon="0.3159">
        <ele>1622</ele>
        <time>2021-10-02T08:11:11Z</time>
      </trkpt>
      <trkpt lat="42.92517" lon="0.3159">
        <ele>1622</ele>
        <time>2021-10-02T08:11:12Z</time>
      </trkpt>
      <trkpt lat="42.92516" lon="0.3159">
        <ele>1622</ele>
        <time>2021-10-02T08:11:13Z</time>
      </trkpt>
      <trkpt lat="42.92515" lon="0.31589">
        <ele>1622.2</ele>
        <time>2021-10-02T08:11:14Z</time>
      </trkpt>
      <trkpt lat="42.92513" lon="0.31589">
        <ele>1622.4</ele>
        <time>2021-10-02T08:11:16Z</time>
      </trkpt>
      <trkpt lat="42.92513" lon="0.31588">
        <ele>1622.6</ele>
        <time>2021-10-02T08:11:17Z</time>
      </trkpt>
      <trkpt lat="42.92512" lon="0.31588">
        <ele>1622.6</ele>
        <time>2021-10-02T08:11:18Z</time>
      </trkpt>
      <trkpt lat="42.92512" lon="0.31588">
        <ele>1622.6</ele>
        <time>2021-10-02T08:11:19Z</time>
      </trkpt>
      <trkpt lat="42.92511" lon="0.31588">
        <ele>1622.8</ele>
        <time>2021-10-02T08:11:20Z</time>
      </trkpt>
      <trkpt lat="42.9251" lon="0.31587">
        <ele>1623</ele>
        <time>2021-10-02T08:11:21Z</time>
      </trkpt>
      <trkpt lat="42.9251" lon="0.31587">
        <ele>1623.2</ele>
        <time>2021-10-02T08:11:22Z</time>
      </trkpt>
      <trkpt lat="42.92509" lon="0.31586">
        <ele>1623.4</ele>
        <time>2021-10-02T08:11:23Z</time>
      </trkpt>
      <trkpt lat="42.92508" lon="0.31586">
        <ele>1623.4</ele>
        <time>2021-10-02T08:11:24Z</time>
      </trkpt>
      <trkpt lat="42.92507" lon="0.31586">
        <ele>1623.6</ele>
        <time>2021-10-02T08:11:25Z</time>
      </trkpt>
      <trkpt lat="42.92507" lon="0.31586">
        <ele>1623.6</ele>
        <time>2021-10-02T08:11:26Z</time>
      </trkpt>
      <trkpt lat="42.92506" lon="0.31586">
        <ele>1623.8</ele>
        <time>2021-10-02T08:11:27Z</time>
      </trkpt>
      <trkpt lat="42.92506" lon="0.31585">
        <ele>1624</ele>
        <time>2021-10-02T08:11:28Z</time>
      </trkpt>
      <trkpt lat="42.92506" lon="0.31585">
        <ele>1624.6</ele>
        <time>2021-10-02T08:11:30Z</time>
      </trkpt>
      <trkpt lat="42.92506" lon="0.31585">
        <ele>1624.8</ele>
        <time>2021-10-02T08:11:35Z</time>
      </trkpt>
      <trkpt lat="42.92506" lon="0.31585">
        <ele>1625.2</ele>
        <time>2021-10-02T08:11:54Z</time>
      </trkpt>
      <trkpt lat="42.92506" lon="0.31585">
        <ele>1624.6</ele>
        <time>2021-10-02T08:12:39Z</time>
      </trkpt>
      <trkpt lat="42.92505" lon="0.31586">
        <ele>1625.8</ele>
        <time>2021-10-02T08:13:34Z</time>
      </trkpt>
      <trkpt lat="42.92505" lon="0.31586">
        <ele>1625.4</ele>
        <time>2021-10-02T08:14:19Z</time>
      </trkpt>
      <trkpt lat="42.92505" lon="0.31585">
        <ele>1625.6</ele>
        <time>2021-10-02T08:14:35Z</time>
      </trkpt>
      <trkpt lat="42.92505" lon="0.31585">
        <ele>1625.6</ele>
        <time>2021-10-02T08:14:36Z</time>
      </trkpt>
      <trkpt lat="42.92504" lon="0.31585">
        <ele>1625.8</ele>
        <time>2021-10-02T08:14:39Z</time>
      </trkpt>
      <trkpt lat="42.92501" lon="0.31581">
        <ele>1626.4</ele>
        <time>2021-10-02T08:14:46Z</time>
      </trkpt>
      <trkpt lat="42.925" lon="0.31579">
        <ele>1626.6</ele>
        <time>2021-10-02T08:14:47Z</time>
      </trkpt>
      <trkpt lat="42.92498" lon="0.31577">
        <ele>1626.8</ele>
        <time>2021-10-02T08:14:49Z</time>
      </trkpt>
      <trkpt lat="42.92496" lon="0.31574">
        <ele>1627.4</ele>
        <time>2021-10-02T08:14:51Z</time>
      </trkpt>
      <trkpt lat="42.92496" lon="0.31573">
        <ele>1627.6</ele>
        <time>2021-10-02T08:14:52Z</time>
      </trkpt>
      <trkpt lat="42.92495" lon="0.31572">
        <ele>1627.8</ele>
        <time>2021-10-02T08:14:53Z</time>
      </trkpt>
      <trkpt lat="42.92493" lon="0.3157">
        <ele>1628.2</ele>
        <time>2021-10-02T08:14:56Z</time>
      </trkpt>
      <trkpt lat="42.92492" lon="0.3157">
        <ele>1628.6</ele>
        <time>2021-10-02T08:14:57Z</time>
      </trkpt>
      <trkpt lat="42.92491" lon="0.3157">
        <ele>1628.8</ele>
        <time>2021-10-02T08:14:58Z</time>
      </trkpt>
      <trkpt lat="42.92491" lon="0.31569">
        <ele>1629</ele>
        <time>2021-10-02T08:14:59Z</time>
      </trkpt>
      <trkpt lat="42.9249" lon="0.31569">
        <ele>1629.2</ele>
        <time>2021-10-02T08:15:00Z</time>
      </trkpt>
      <trkpt lat="42.92489" lon="0.31569">
        <ele>1629.6</ele>
        <time>2021-10-02T08:15:01Z</time>
      </trkpt>
      <trkpt lat="42.92489" lon="0.31569">
        <ele>1630</ele>
        <time>2021-10-02T08:15:02Z</time>
      </trkpt>
      <trkpt lat="42.92489" lon="0.31569">
        <ele>1630.2</ele>
        <time>2021-10-02T08:15:03Z</time>
      </trkpt>
      <trkpt lat="42.92488" lon="0.31569">
        <ele>1630.4</ele>
        <time>2021-10-02T08:15:04Z</time>
      </trkpt>
      <trkpt lat="42.92487" lon="0.31569">
        <ele>1630.6</ele>
        <time>2021-10-02T08:15:05Z</time>
      </trkpt>
      <trkpt lat="42.92487" lon="0.31569">
        <ele>1631</ele>
        <time>2021-10-02T08:15:06Z</time>
      </trkpt>
      <trkpt lat="42.92487" lon="0.31569">
        <ele>1631</ele>
        <time>2021-10-02T08:15:07Z</time>
      </trkpt>
      <trkpt lat="42.92487" lon="0.31569">
        <ele>1631.2</ele>
        <time>2021-10-02T08:15:08Z</time>
      </trkpt>
      <trkpt lat="42.92487" lon="0.31569">
        <ele>1632</ele>
        <time>2021-10-02T08:15:15Z</time>
      </trkpt>
      <trkpt lat="42.92486" lon="0.31567">
        <ele>1632.8</ele>
        <time>2021-10-02T08:15:38Z</time>
      </trkpt>
      <trkpt lat="42.92485" lon="0.31563">
        <ele>1632.6</ele>
        <time>2021-10-02T08:15:41Z</time>
      </trkpt>
      <trkpt lat="42.92484" lon="0.31561">
        <ele>1632.6</ele>
        <time>2021-10-02T08:15:46Z</time>
      </trkpt>
      <trkpt lat="42.9248" lon="0.31553">
        <ele>1633</ele>
        <time>2021-10-02T08:15:52Z</time>
      </trkpt>
      <trkpt lat="42.9248" lon="0.31552">
        <ele>1633.2</ele>
        <time>2021-10-02T08:15:53Z</time>
      </trkpt>
      <trkpt lat="42.92479" lon="0.31551">
        <ele>1633.4</ele>
        <time>2021-10-02T08:15:54Z</time>
      </trkpt>
      <trkpt lat="42.92479" lon="0.31551">
        <ele>1633.6</ele>
        <time>2021-10-02T08:15:55Z</time>
      </trkpt>
      <trkpt lat="42.92479" lon="0.3155">
        <ele>1633.6</ele>
        <time>2021-10-02T08:15:56Z</time>
      </trkpt>
      <trkpt lat="42.92478" lon="0.3155">
        <ele>1634</ele>
        <time>2021-10-02T08:15:58Z</time>
      </trkpt>
      <trkpt lat="42.92478" lon="0.3155">
        <ele>1634.2</ele>
        <time>2021-10-02T08:15:59Z</time>
      </trkpt>
      <trkpt lat="42.92478" lon="0.3155">
        <ele>1635</ele>
        <time>2021-10-02T08:16:03Z</time>
      </trkpt>
      <trkpt lat="42.92478" lon="0.3155">
        <ele>1635.2</ele>
        <time>2021-10-02T08:16:20Z</time>
      </trkpt>
      <trkpt lat="42.92475" lon="0.31546">
        <ele>1635.2</ele>
        <time>2021-10-02T08:16:25Z</time>
      </trkpt>
      <trkpt lat="42.92475" lon="0.31546">
        <ele>1635</ele>
        <time>2021-10-02T08:16:26Z</time>
      </trkpt>
      <trkpt lat="42.92474" lon="0.31545">
        <ele>1635.2</ele>
        <time>2021-10-02T08:16:58Z</time>
      </trkpt>
      <trkpt lat="42.9247" lon="0.31543">
        <ele>1634.4</ele>
        <time>2021-10-02T08:17:33Z</time>
      </trkpt>
      <trkpt lat="42.92466" lon="0.31538">
        <ele>1634.4</ele>
        <time>2021-10-02T08:17:44Z</time>
      </trkpt>
      <trkpt lat="42.92466" lon="0.31538">
        <ele>1634.4</ele>
        <time>2021-10-02T08:17:45Z</time>
      </trkpt>
      <trkpt lat="42.92465" lon="0.31537">
        <ele>1634.4</ele>
        <time>2021-10-02T08:17:46Z</time>
      </trkpt>
      <trkpt lat="42.92463" lon="0.31536">
        <ele>1634.4</ele>
        <time>2021-10-02T08:17:51Z</time>
      </trkpt>
      <trkpt lat="42.9246" lon="0.31533">
        <ele>1634.4</ele>
        <time>2021-10-02T08:17:56Z</time>
      </trkpt>
      <trkpt lat="42.9246" lon="0.31533">
        <ele>1634.4</ele>
        <time>2021-10-02T08:17:57Z</time>
      </trkpt>
      <trkpt lat="42.9246" lon="0.31533">
        <ele>1634.4</ele>
        <time>2021-10-02T08:17:59Z</time>
      </trkpt>
      <trkpt lat="42.92459" lon="0.31532">
        <ele>1634.4</ele>
        <time>2021-10-02T08:18:00Z</time>
      </trkpt>
      <trkpt lat="42.92458" lon="0.3153">
        <ele>1634.6</ele>
        <time>2021-10-02T08:18:01Z</time>
      </trkpt>
      <trkpt lat="42.92455" lon="0.31527">
        <ele>1634.4</ele>
        <time>2021-10-02T08:18:04Z</time>
      </trkpt>
      <trkpt lat="42.92454" lon="0.31526">
        <ele>1634.4</ele>
        <time>2021-10-02T08:18:05Z</time>
      </trkpt>
      <trkpt lat="42.92454" lon="0.31526">
        <ele>1634.4</ele>
        <time>2021-10-02T08:18:06Z</time>
      </trkpt>
      <trkpt lat="42.92454" lon="0.31525">
        <ele>1634.4</ele>
        <time>2021-10-02T08:18:07Z</time>
      </trkpt>
      <trkpt lat="42.92453" lon="0.31524">
        <ele>1634.4</ele>
        <time>2021-10-02T08:18:09Z</time>
      </trkpt>
      <trkpt lat="42.92453" lon="0.31524">
        <ele>1634.4</ele>
        <time>2021-10-02T08:18:10Z</time>
      </trkpt>
      <trkpt lat="42.92453" lon="0.31524">
        <ele>1634.4</ele>
        <time>2021-10-02T08:18:11Z</time>
      </trkpt>
      <trkpt lat="42.92453" lon="0.31524">
        <ele>1634.4</ele>
        <time>2021-10-02T08:18:14Z</time>
      </trkpt>
      <trkpt lat="42.92456" lon="0.31521">
        <ele>1634.4</ele>
        <time>2021-10-02T08:18:49Z</time>
      </trkpt>
      <trkpt lat="42.92457" lon="0.31521">
        <ele>1634</ele>
        <time>2021-10-02T08:18:51Z</time>
      </trkpt>
      <trkpt lat="42.92457" lon="0.3152">
        <ele>1634</ele>
        <time>2021-10-02T08:18:52Z</time>
      </trkpt>
      <trkpt lat="42.92458" lon="0.3152">
        <ele>1633.6</ele>
        <time>2021-10-02T08:18:53Z</time>
      </trkpt>
      <trkpt lat="42.92458" lon="0.31519">
        <ele>1633.2</ele>
        <time>2021-10-02T08:18:55Z</time>
      </trkpt>
      <trkpt lat="42.92458" lon="0.31519">
        <ele>1633</ele>
        <time>2021-10-02T08:18:56Z</time>
      </trkpt>
      <trkpt lat="42.92459" lon="0.31519">
        <ele>1632.4</ele>
        <time>2021-10-02T08:19:11Z</time>
      </trkpt>
      <trkpt lat="42.92462" lon="0.31517">
        <ele>1632.2</ele>
        <time>2021-10-02T08:19:14Z</time>
      </trkpt>
      <trkpt lat="42.92463" lon="0.31517">
        <ele>1632.2</ele>
        <time>2021-10-02T08:19:15Z</time>
      </trkpt>
      <trkpt lat="42.92465" lon="0.31517">
        <ele>1632.2</ele>
        <time>2021-10-02T08:19:17Z</time>
      </trkpt>
      <trkpt lat="42.92466" lon="0.31518">
        <ele>1632</ele>
        <time>2021-10-02T08:19:18Z</time>
      </trkpt>
      <trkpt lat="42.92467" lon="0.31518">
        <ele>1631.6</ele>
        <time>2021-10-02T08:19:19Z</time>
      </trkpt>
      <trkpt lat="42.92469" lon="0.31518">
        <ele>1631</ele>
        <time>2021-10-02T08:19:22Z</time>
      </trkpt>
      <trkpt lat="42.9247" lon="0.31518">
        <ele>1630.8</ele>
        <time>2021-10-02T08:19:23Z</time>
      </trkpt>
      <trkpt lat="42.9247" lon="0.31517">
        <ele>1630.6</ele>
        <time>2021-10-02T08:19:24Z</time>
      </trkpt>
      <trkpt lat="42.92471" lon="0.31517">
        <ele>1630.4</ele>
        <time>2021-10-02T08:19:25Z</time>
      </trkpt>
      <trkpt lat="42.92472" lon="0.31517">
        <ele>1630.2</ele>
        <time>2021-10-02T08:19:26Z</time>
      </trkpt>
      <trkpt lat="42.92473" lon="0.31517">
        <ele>1629.8</ele>
        <time>2021-10-02T08:19:27Z</time>
      </trkpt>
      <trkpt lat="42.92473" lon="0.31517">
        <ele>1629.6</ele>
        <time>2021-10-02T08:19:28Z</time>
      </trkpt>
      <trkpt lat="42.92474" lon="0.31517">
        <ele>1629.6</ele>
        <time>2021-10-02T08:19:29Z</time>
      </trkpt>
      <trkpt lat="42.92475" lon="0.31518">
        <ele>1629.2</ele>
        <time>2021-10-02T08:19:30Z</time>
      </trkpt>
      <trkpt lat="42.92476" lon="0.31518">
        <ele>1628.8</ele>
        <time>2021-10-02T08:19:31Z</time>
      </trkpt>
      <trkpt lat="42.92478" lon="0.31519">
        <ele>1628.2</ele>
        <time>2021-10-02T08:19:33Z</time>
      </trkpt>
      <trkpt lat="42.9248" lon="0.31519">
        <ele>1628</ele>
        <time>2021-10-02T08:19:35Z</time>
      </trkpt>
      <trkpt lat="42.92481" lon="0.3152">
        <ele>1628</ele>
        <time>2021-10-02T08:19:36Z</time>
      </trkpt>
      <trkpt lat="42.92481" lon="0.3152">
        <ele>1627.8</ele>
        <time>2021-10-02T08:19:37Z</time>
      </trkpt>
      <trkpt lat="42.92482" lon="0.3152">
        <ele>1627.2</ele>
        <time>2021-10-02T08:19:38Z</time>
      </trkpt>
      <trkpt lat="42.92483" lon="0.3152">
        <ele>1626.6</ele>
        <time>2021-10-02T08:19:40Z</time>
      </trkpt>
      <trkpt lat="42.92484" lon="0.31521">
        <ele>1626.4</ele>
        <time>2021-10-02T08:19:41Z</time>
      </trkpt>
      <trkpt lat="42.92485" lon="0.31521">
        <ele>1626.2</ele>
        <time>2021-10-02T08:19:42Z</time>
      </trkpt>
      <trkpt lat="42.92486" lon="0.31521">
        <ele>1626.2</ele>
        <time>2021-10-02T08:19:43Z</time>
      </trkpt>
      <trkpt lat="42.92489" lon="0.31522">
        <ele>1625.6</ele>
        <time>2021-10-02T08:19:47Z</time>
      </trkpt>
      <trkpt lat="42.92489" lon="0.31522">
        <ele>1625.6</ele>
        <time>2021-10-02T08:19:48Z</time>
      </trkpt>
      <trkpt lat="42.92489" lon="0.31522">
        <ele>1625.2</ele>
        <time>2021-10-02T08:19:50Z</time>
      </trkpt>
      <trkpt lat="42.9249" lon="0.31523">
        <ele>1624.8</ele>
        <time>2021-10-02T08:19:52Z</time>
      </trkpt>
      <trkpt lat="42.9249" lon="0.31523">
        <ele>1624.4</ele>
        <time>2021-10-02T08:19:53Z</time>
      </trkpt>
      <trkpt lat="42.9249" lon="0.31523">
        <ele>1624</ele>
        <time>2021-10-02T08:19:58Z</time>
      </trkpt>
      <trkpt lat="42.9249" lon="0.31523">
        <ele>1623.2</ele>
        <time>2021-10-02T08:20:10Z</time>
      </trkpt>
      <trkpt lat="42.9249" lon="0.31523">
        <ele>1622.2</ele>
        <time>2021-10-02T08:20:15Z</time>
      </trkpt>
      <trkpt lat="42.92493" lon="0.31519">
        <ele>1621.2</ele>
        <time>2021-10-02T08:20:18Z</time>
      </trkpt>
      <trkpt lat="42.92496" lon="0.31514">
        <ele>1620.4</ele>
        <time>2021-10-02T08:20:22Z</time>
      </trkpt>
      <trkpt lat="42.92497" lon="0.31513">
        <ele>1620</ele>
        <time>2021-10-02T08:20:23Z</time>
      </trkpt>
      <trkpt lat="42.92499" lon="0.3151">
        <ele>1619.2</ele>
        <time>2021-10-02T08:20:26Z</time>
      </trkpt>
      <trkpt lat="42.92499" lon="0.3151">
        <ele>1618.8</ele>
        <time>2021-10-02T08:20:27Z</time>
      </trkpt>
      <trkpt lat="42.92499" lon="0.31509">
        <ele>1618.6</ele>
        <time>2021-10-02T08:20:28Z</time>
      </trkpt>
      <trkpt lat="42.92499" lon="0.31508">
        <ele>1618.4</ele>
        <time>2021-10-02T08:20:29Z</time>
      </trkpt>
      <trkpt lat="42.925" lon="0.31507">
        <ele>1617.8</ele>
        <time>2021-10-02T08:20:31Z</time>
      </trkpt>
      <trkpt lat="42.92499" lon="0.31504">
        <ele>1617.4</ele>
        <time>2021-10-02T08:20:34Z</time>
      </trkpt>
      <trkpt lat="42.92499" lon="0.31503">
        <ele>1617</ele>
        <time>2021-10-02T08:20:35Z</time>
      </trkpt>
      <trkpt lat="42.92499" lon="0.31502">
        <ele>1616.8</ele>
        <time>2021-10-02T08:20:36Z</time>
      </trkpt>
      <trkpt lat="42.925" lon="0.31501">
        <ele>1616.6</ele>
        <time>2021-10-02T08:20:37Z</time>
      </trkpt>
      <trkpt lat="42.925" lon="0.31501">
        <ele>1616.6</ele>
        <time>2021-10-02T08:20:38Z</time>
      </trkpt>
      <trkpt lat="42.925" lon="0.315">
        <ele>1616.4</ele>
        <time>2021-10-02T08:20:39Z</time>
      </trkpt>
      <trkpt lat="42.92501" lon="0.31499">
        <ele>1615.8</ele>
        <time>2021-10-02T08:20:42Z</time>
      </trkpt>
      <trkpt lat="42.92502" lon="0.31498">
        <ele>1615.4</ele>
        <time>2021-10-02T08:20:44Z</time>
      </trkpt>
      <trkpt lat="42.92502" lon="0.31498">
        <ele>1615.4</ele>
        <time>2021-10-02T08:20:45Z</time>
      </trkpt>
      <trkpt lat="42.92502" lon="0.31498">
        <ele>1614.6</ele>
        <time>2021-10-02T08:20:47Z</time>
      </trkpt>
      <trkpt lat="42.92502" lon="0.31497">
        <ele>1614.4</ele>
        <time>2021-10-02T08:20:48Z</time>
      </trkpt>
      <trkpt lat="42.92504" lon="0.31493">
        <ele>1613.6</ele>
        <time>2021-10-02T08:20:52Z</time>
      </trkpt>
      <trkpt lat="42.92505" lon="0.31491">
        <ele>1613.2</ele>
        <time>2021-10-02T08:20:54Z</time>
      </trkpt>
      <trkpt lat="42.92505" lon="0.3149">
        <ele>1613</ele>
        <time>2021-10-02T08:20:55Z</time>
      </trkpt>
      <trkpt lat="42.92505" lon="0.3149">
        <ele>1612.6</ele>
        <time>2021-10-02T08:20:56Z</time>
      </trkpt>
      <trkpt lat="42.92505" lon="0.3149">
        <ele>1612.2</ele>
        <time>2021-10-02T08:20:57Z</time>
      </trkpt>
      <trkpt lat="42.92505" lon="0.3149">
        <ele>1611.2</ele>
        <time>2021-10-02T08:20:59Z</time>
      </trkpt>
      <trkpt lat="42.92505" lon="0.3149">
        <ele>1610.4</ele>
        <time>2021-10-02T08:21:03Z</time>
      </trkpt>
      <trkpt lat="42.92505" lon="0.3149">
        <ele>1610.2</ele>
        <time>2021-10-02T08:21:04Z</time>
      </trkpt>
      <trkpt lat="42.92503" lon="0.31489">
        <ele>1610</ele>
        <time>2021-10-02T08:21:07Z</time>
      </trkpt>
      <trkpt lat="42.92503" lon="0.31489">
        <ele>1610</ele>
        <time>2021-10-02T08:21:09Z</time>
      </trkpt>
      <trkpt lat="42.92498" lon="0.31482">
        <ele>1609.8</ele>
        <time>2021-10-02T08:21:36Z</time>
      </trkpt>
      <trkpt lat="42.92493" lon="0.31476">
        <ele>1610</ele>
        <time>2021-10-02T08:21:39Z</time>
      </trkpt>
      <trkpt lat="42.92485" lon="0.31466">
        <ele>1610.6</ele>
        <time>2021-10-02T08:21:45Z</time>
      </trkpt>
      <trkpt lat="42.92477" lon="0.31457">
        <ele>1611.2</ele>
        <time>2021-10-02T08:21:51Z</time>
      </trkpt>
      <trkpt lat="42.92473" lon="0.31452">
        <ele>1611.8</ele>
        <time>2021-10-02T08:21:54Z</time>
      </trkpt>
      <trkpt lat="42.92471" lon="0.31449">
        <ele>1612.4</ele>
        <time>2021-10-02T08:21:56Z</time>
      </trkpt>
      <trkpt lat="42.92467" lon="0.31443">
        <ele>1613.2</ele>
        <time>2021-10-02T08:21:59Z</time>
      </trkpt>
      <trkpt lat="42.92466" lon="0.31442">
        <ele>1613.4</ele>
        <time>2021-10-02T08:22:00Z</time>
      </trkpt>
      <trkpt lat="42.92464" lon="0.3144">
        <ele>1613.4</ele>
        <time>2021-10-02T08:22:01Z</time>
      </trkpt>
      <trkpt lat="42.92463" lon="0.3144">
        <ele>1613.4</ele>
        <time>2021-10-02T08:22:02Z</time>
      </trkpt>
      <trkpt lat="42.92462" lon="0.31438">
        <ele>1613.6</ele>
        <time>2021-10-02T08:22:03Z</time>
      </trkpt>
      <trkpt lat="42.92461" lon="0.31437">
        <ele>1613.8</ele>
        <time>2021-10-02T08:22:04Z</time>
      </trkpt>
      <trkpt lat="42.9246" lon="0.31436">
        <ele>1614</ele>
        <time>2021-10-02T08:22:05Z</time>
      </trkpt>
      <trkpt lat="42.92458" lon="0.31434">
        <ele>1614.4</ele>
        <time>2021-10-02T08:22:06Z</time>
      </trkpt>
      <trkpt lat="42.92457" lon="0.31433">
        <ele>1614.6</ele>
        <time>2021-10-02T08:22:07Z</time>
      </trkpt>
      <trkpt lat="42.92456" lon="0.31432">
        <ele>1614.8</ele>
        <time>2021-10-02T08:22:08Z</time>
      </trkpt>
      <trkpt lat="42.92455" lon="0.31431">
        <ele>1615.2</ele>
        <time>2021-10-02T08:22:09Z</time>
      </trkpt>
      <trkpt lat="42.92455" lon="0.31431">
        <ele>1615.6</ele>
        <time>2021-10-02T08:22:11Z</time>
      </trkpt>
      <trkpt lat="42.92455" lon="0.31431">
        <ele>1615.6</ele>
        <time>2021-10-02T08:22:13Z</time>
      </trkpt>
      <trkpt lat="42.92454" lon="0.3143">
        <ele>1616</ele>
        <time>2021-10-02T08:22:23Z</time>
      </trkpt>
      <trkpt lat="42.92454" lon="0.31429">
        <ele>1615.8</ele>
        <time>2021-10-02T08:22:24Z</time>
      </trkpt>
      <trkpt lat="42.92453" lon="0.31429">
        <ele>1615.8</ele>
        <time>2021-10-02T08:22:25Z</time>
      </trkpt>
      <trkpt lat="42.92452" lon="0.31428">
        <ele>1615.8</ele>
        <time>2021-10-02T08:22:26Z</time>
      </trkpt>
      <trkpt lat="42.92451" lon="0.31427">
        <ele>1615.8</ele>
        <time>2021-10-02T08:22:27Z</time>
      </trkpt>
      <trkpt lat="42.9245" lon="0.31426">
        <ele>1615.8</ele>
        <time>2021-10-02T08:22:28Z</time>
      </trkpt>
      <trkpt lat="42.92448" lon="0.31424">
        <ele>1615.8</ele>
        <time>2021-10-02T08:22:29Z</time>
      </trkpt>
      <trkpt lat="42.92441" lon="0.3142">
        <ele>1615.8</ele>
        <time>2021-10-02T08:22:33Z</time>
      </trkpt>
      <trkpt lat="42.92433" lon="0.31415">
        <ele>1616.8</ele>
        <time>2021-10-02T08:22:38Z</time>
      </trkpt>
      <trkpt lat="42.92428" lon="0.31411">
        <ele>1617.2</ele>
        <time>2021-10-02T08:22:42Z</time>
      </trkpt>
      <trkpt lat="42.92427" lon="0.3141">
        <ele>1617.4</ele>
        <time>2021-10-02T08:22:43Z</time>
      </trkpt>
      <trkpt lat="42.92425" lon="0.31408">
        <ele>1618</ele>
        <time>2021-10-02T08:22:45Z</time>
      </trkpt>
      <trkpt lat="42.92424" lon="0.31407">
        <ele>1618</ele>
        <time>2021-10-02T08:22:46Z</time>
      </trkpt>
      <trkpt lat="42.92422" lon="0.31405">
        <ele>1618.2</ele>
        <time>2021-10-02T08:22:47Z</time>
      </trkpt>
      <trkpt lat="42.92417" lon="0.31401">
        <ele>1618.4</ele>
        <time>2021-10-02T08:22:50Z</time>
      </trkpt>
      <trkpt lat="42.92415" lon="0.31399">
        <ele>1618.4</ele>
        <time>2021-10-02T08:22:51Z</time>
      </trkpt>
      <trkpt lat="42.92414" lon="0.31397">
        <ele>1618.4</ele>
        <time>2021-10-02T08:22:52Z</time>
      </trkpt>
      <trkpt lat="42.92412" lon="0.31395">
        <ele>1618.4</ele>
        <time>2021-10-02T08:22:53Z</time>
      </trkpt>
      <trkpt lat="42.9241" lon="0.31394">
        <ele>1618.6</ele>
        <time>2021-10-02T08:22:54Z</time>
      </trkpt>
      <trkpt lat="42.92409" lon="0.31392">
        <ele>1618.6</ele>
        <time>2021-10-02T08:22:55Z</time>
      </trkpt>
      <trkpt lat="42.92408" lon="0.31391">
        <ele>1618.6</ele>
        <time>2021-10-02T08:22:56Z</time>
      </trkpt>
      <trkpt lat="42.92407" lon="0.3139">
        <ele>1618.6</ele>
        <time>2021-10-02T08:22:57Z</time>
      </trkpt>
      <trkpt lat="42.92405" lon="0.31388">
        <ele>1618.8</ele>
        <time>2021-10-02T08:22:58Z</time>
      </trkpt>
      <trkpt lat="42.92404" lon="0.31386">
        <ele>1618.8</ele>
        <time>2021-10-02T08:22:59Z</time>
      </trkpt>
      <trkpt lat="42.92403" lon="0.31385">
        <ele>1618.8</ele>
        <time>2021-10-02T08:23:00Z</time>
      </trkpt>
      <trkpt lat="42.92402" lon="0.31383">
        <ele>1619</ele>
        <time>2021-10-02T08:23:01Z</time>
      </trkpt>
      <trkpt lat="42.92401" lon="0.31382">
        <ele>1619.2</ele>
        <time>2021-10-02T08:23:02Z</time>
      </trkpt>
      <trkpt lat="42.92401" lon="0.31382">
        <ele>1619.2</ele>
        <time>2021-10-02T08:23:03Z</time>
      </trkpt>
      <trkpt lat="42.924" lon="0.31381">
        <ele>1619.2</ele>
        <time>2021-10-02T08:23:04Z</time>
      </trkpt>
      <trkpt lat="42.924" lon="0.31381">
        <ele>1619.4</ele>
        <time>2021-10-02T08:23:05Z</time>
      </trkpt>
      <trkpt lat="42.924" lon="0.31381">
        <ele>1619.4</ele>
        <time>2021-10-02T08:23:06Z</time>
      </trkpt>
      <trkpt lat="42.92396" lon="0.31381">
        <ele>1620</ele>
        <time>2021-10-02T08:23:15Z</time>
      </trkpt>
      <trkpt lat="42.92395" lon="0.31381">
        <ele>1620</ele>
        <time>2021-10-02T08:23:16Z</time>
      </trkpt>
      <trkpt lat="42.92393" lon="0.3138">
        <ele>1621</ele>
        <time>2021-10-02T08:23:20Z</time>
      </trkpt>
      <trkpt lat="42.92393" lon="0.3138">
        <ele>1621</ele>
        <time>2021-10-02T08:23:21Z</time>
      </trkpt>
      <trkpt lat="42.92393" lon="0.3138">
        <ele>1621</ele>
        <time>2021-10-02T08:23:22Z</time>
      </trkpt>
      <trkpt lat="42.9239" lon="0.31379">
        <ele>1621.4</ele>
        <time>2021-10-02T08:23:27Z</time>
      </trkpt>
      <trkpt lat="42.92389" lon="0.31378">
        <ele>1621.4</ele>
        <time>2021-10-02T08:23:28Z</time>
      </trkpt>
      <trkpt lat="42.92387" lon="0.31376">
        <ele>1621.4</ele>
        <time>2021-10-02T08:23:29Z</time>
      </trkpt>
      <trkpt lat="42.92386" lon="0.31374">
        <ele>1621.4</ele>
        <time>2021-10-02T08:23:30Z</time>
      </trkpt>
      <trkpt lat="42.92384" lon="0.31373">
        <ele>1621.4</ele>
        <time>2021-10-02T08:23:31Z</time>
      </trkpt>
      <trkpt lat="42.92383" lon="0.31371">
        <ele>1621.6</ele>
        <time>2021-10-02T08:23:32Z</time>
      </trkpt>
      <trkpt lat="42.92381" lon="0.31369">
        <ele>1621.6</ele>
        <time>2021-10-02T08:23:33Z</time>
      </trkpt>
      <trkpt lat="42.92379" lon="0.31367">
        <ele>1621.6</ele>
        <time>2021-10-02T08:23:35Z</time>
      </trkpt>
      <trkpt lat="42.92371" lon="0.3136">
        <ele>1622</ele>
        <time>2021-10-02T08:23:40Z</time>
      </trkpt>
      <trkpt lat="42.9237" lon="0.31359">
        <ele>1622</ele>
        <time>2021-10-02T08:23:41Z</time>
      </trkpt>
      <trkpt lat="42.92369" lon="0.31358">
        <ele>1622.2</ele>
        <time>2021-10-02T08:23:42Z</time>
      </trkpt>
      <trkpt lat="42.92367" lon="0.31356">
        <ele>1622.2</ele>
        <time>2021-10-02T08:23:43Z</time>
      </trkpt>
      <trkpt lat="42.92366" lon="0.31355">
        <ele>1622.4</ele>
        <time>2021-10-02T08:23:44Z</time>
      </trkpt>
      <trkpt lat="42.92365" lon="0.31353">
        <ele>1622.4</ele>
        <time>2021-10-02T08:23:45Z</time>
      </trkpt>
      <trkpt lat="42.92358" lon="0.31343">
        <ele>1623</ele>
        <time>2021-10-02T08:23:51Z</time>
      </trkpt>
      <trkpt lat="42.92357" lon="0.31341">
        <ele>1623.2</ele>
        <time>2021-10-02T08:23:53Z</time>
      </trkpt>
      <trkpt lat="42.92357" lon="0.31341">
        <ele>1623.4</ele>
        <time>2021-10-02T08:23:54Z</time>
      </trkpt>
      <trkpt lat="42.92354" lon="0.31336">
        <ele>1623.8</ele>
        <time>2021-10-02T08:24:01Z</time>
      </trkpt>
      <trkpt lat="42.92353" lon="0.31334">
        <ele>1623.8</ele>
        <time>2021-10-02T08:24:05Z</time>
      </trkpt>
      <trkpt lat="42.92353" lon="0.31332">
        <ele>1623.8</ele>
        <time>2021-10-02T08:24:09Z</time>
      </trkpt>
      <trkpt lat="42.92353" lon="0.3133">
        <ele>1623.8</ele>
        <time>2021-10-02T08:24:13Z</time>
      </trkpt>
      <trkpt lat="42.92353" lon="0.3133">
        <ele>1623.8</ele>
        <time>2021-10-02T08:24:14Z</time>
      </trkpt>
      <trkpt lat="42.92353" lon="0.3133">
        <ele>1623.6</ele>
        <time>2021-10-02T08:24:15Z</time>
      </trkpt>
      <trkpt lat="42.92353" lon="0.3133">
        <ele>1623.6</ele>
        <time>2021-10-02T08:24:16Z</time>
      </trkpt>
      <trkpt lat="42.92352" lon="0.31329">
        <ele>1623.2</ele>
        <time>2021-10-02T08:24:19Z</time>
      </trkpt>
      <trkpt lat="42.9235" lon="0.31326">
        <ele>1622.2</ele>
        <time>2021-10-02T08:24:24Z</time>
      </trkpt>
      <trkpt lat="42.92349" lon="0.31325">
        <ele>1622</ele>
        <time>2021-10-02T08:24:25Z</time>
      </trkpt>
      <trkpt lat="42.92349" lon="0.31325">
        <ele>1622</ele>
        <time>2021-10-02T08:24:27Z</time>
      </trkpt>
      <trkpt lat="42.92349" lon="0.31325">
        <ele>1621.8</ele>
        <time>2021-10-02T08:24:29Z</time>
      </trkpt>
      <trkpt lat="42.92347" lon="0.31325">
        <ele>1621.8</ele>
        <time>2021-10-02T08:24:34Z</time>
      </trkpt>
      <trkpt lat="42.92347" lon="0.31324">
        <ele>1622</ele>
        <time>2021-10-02T08:24:39Z</time>
      </trkpt>
      <trkpt lat="42.92343" lon="0.3132">
        <ele>1622.2</ele>
        <time>2021-10-02T08:24:42Z</time>
      </trkpt>
      <trkpt lat="42.92342" lon="0.31319">
        <ele>1622.4</ele>
        <time>2021-10-02T08:24:43Z</time>
      </trkpt>
      <trkpt lat="42.92341" lon="0.31318">
        <ele>1622.4</ele>
        <time>2021-10-02T08:24:44Z</time>
      </trkpt>
      <trkpt lat="42.9234" lon="0.31318">
        <ele>1622.4</ele>
        <time>2021-10-02T08:24:45Z</time>
      </trkpt>
      <trkpt lat="42.92337" lon="0.31316">
        <ele>1622.8</ele>
        <time>2021-10-02T08:24:48Z</time>
      </trkpt>
      <trkpt lat="42.92336" lon="0.31315">
        <ele>1623.2</ele>
        <time>2021-10-02T08:24:50Z</time>
      </trkpt>
      <trkpt lat="42.92336" lon="0.31315">
        <ele>1623.2</ele>
        <time>2021-10-02T08:24:51Z</time>
      </trkpt>
      <trkpt lat="42.92335" lon="0.31315">
        <ele>1623.6</ele>
        <time>2021-10-02T08:24:52Z</time>
      </trkpt>
      <trkpt lat="42.92335" lon="0.31315">
        <ele>1623.6</ele>
        <time>2021-10-02T08:24:53Z</time>
      </trkpt>
      <trkpt lat="42.92334" lon="0.31314">
        <ele>1623.8</ele>
        <time>2021-10-02T08:24:54Z</time>
      </trkpt>
      <trkpt lat="42.92333" lon="0.31313">
        <ele>1624</ele>
        <time>2021-10-02T08:24:56Z</time>
      </trkpt>
      <trkpt lat="42.92333" lon="0.31312">
        <ele>1624.2</ele>
        <time>2021-10-02T08:24:57Z</time>
      </trkpt>
      <trkpt lat="42.92331" lon="0.3131">
        <ele>1624.4</ele>
        <time>2021-10-02T08:24:59Z</time>
      </trkpt>
      <trkpt lat="42.9233" lon="0.3131">
        <ele>1624.4</ele>
        <time>2021-10-02T08:25:00Z</time>
      </trkpt>
      <trkpt lat="42.92329" lon="0.31309">
        <ele>1624.6</ele>
        <time>2021-10-02T08:25:01Z</time>
      </trkpt>
      <trkpt lat="42.92323" lon="0.31304">
        <ele>1624.6</ele>
        <time>2021-10-02T08:25:05Z</time>
      </trkpt>
      <trkpt lat="42.92321" lon="0.31303">
        <ele>1624.6</ele>
        <time>2021-10-02T08:25:06Z</time>
      </trkpt>
      <trkpt lat="42.92314" lon="0.31292">
        <ele>1624.8</ele>
        <time>2021-10-02T08:25:12Z</time>
      </trkpt>
      <trkpt lat="42.92305" lon="0.31279">
        <ele>1625</ele>
        <time>2021-10-02T08:25:17Z</time>
      </trkpt>
      <trkpt lat="42.923" lon="0.31273">
        <ele>1625</ele>
        <time>2021-10-02T08:25:20Z</time>
      </trkpt>
      <trkpt lat="42.92299" lon="0.31272">
        <ele>1625</ele>
        <time>2021-10-02T08:25:21Z</time>
      </trkpt>
      <trkpt lat="42.92299" lon="0.31271">
        <ele>1624.8</ele>
        <time>2021-10-02T08:25:22Z</time>
      </trkpt>
      <trkpt lat="42.92298" lon="0.31269">
        <ele>1624.8</ele>
        <time>2021-10-02T08:25:23Z</time>
      </trkpt>
      <trkpt lat="42.92297" lon="0.31268">
        <ele>1624.8</ele>
        <time>2021-10-02T08:25:24Z</time>
      </trkpt>
      <trkpt lat="42.92292" lon="0.31261">
        <ele>1624.6</ele>
        <time>2021-10-02T08:25:29Z</time>
      </trkpt>
      <trkpt lat="42.92291" lon="0.3126">
        <ele>1624.6</ele>
        <time>2021-10-02T08:25:30Z</time>
      </trkpt>
      <trkpt lat="42.92291" lon="0.31258">
        <ele>1624.6</ele>
        <time>2021-10-02T08:25:31Z</time>
      </trkpt>
      <trkpt lat="42.92289" lon="0.31257">
        <ele>1624.2</ele>
        <time>2021-10-02T08:25:34Z</time>
      </trkpt>
      <trkpt lat="42.92283" lon="0.31255">
        <ele>1624.2</ele>
        <time>2021-10-02T08:25:42Z</time>
      </trkpt>
      <trkpt lat="42.92279" lon="0.31254">
        <ele>1624.4</ele>
        <time>2021-10-02T08:25:44Z</time>
      </trkpt>
      <trkpt lat="42.92271" lon="0.31248">
        <ele>1624.4</ele>
        <time>2021-10-02T08:25:48Z</time>
      </trkpt>
      <trkpt lat="42.92267" lon="0.31246">
        <ele>1624.8</ele>
        <time>2021-10-02T08:25:50Z</time>
      </trkpt>
      <trkpt lat="42.92266" lon="0.31245">
        <ele>1624.8</ele>
        <time>2021-10-02T08:25:51Z</time>
      </trkpt>
      <trkpt lat="42.92264" lon="0.31245">
        <ele>1624.8</ele>
        <time>2021-10-02T08:25:52Z</time>
      </trkpt>
      <trkpt lat="42.92262" lon="0.31244">
        <ele>1624.8</ele>
        <time>2021-10-02T08:25:53Z</time>
      </trkpt>
      <trkpt lat="42.92261" lon="0.31243">
        <ele>1624.8</ele>
        <time>2021-10-02T08:25:54Z</time>
      </trkpt>
      <trkpt lat="42.92259" lon="0.31243">
        <ele>1624.8</ele>
        <time>2021-10-02T08:25:55Z</time>
      </trkpt>
      <trkpt lat="42.9225" lon="0.31237">
        <ele>1625</ele>
        <time>2021-10-02T08:26:00Z</time>
      </trkpt>
      <trkpt lat="42.92248" lon="0.31236">
        <ele>1625</ele>
        <time>2021-10-02T08:26:01Z</time>
      </trkpt>
      <trkpt lat="42.92247" lon="0.31235">
        <ele>1625</ele>
        <time>2021-10-02T08:26:02Z</time>
      </trkpt>
      <trkpt lat="42.92245" lon="0.31234">
        <ele>1625.2</ele>
        <time>2021-10-02T08:26:03Z</time>
      </trkpt>
      <trkpt lat="42.92242" lon="0.31231">
        <ele>1625.4</ele>
        <time>2021-10-02T08:26:05Z</time>
      </trkpt>
      <trkpt lat="42.9223" lon="0.31218">
        <ele>1626</ele>
        <time>2021-10-02T08:26:11Z</time>
      </trkpt>
      <trkpt lat="42.92227" lon="0.31216">
        <ele>1626.2</ele>
        <time>2021-10-02T08:26:12Z</time>
      </trkpt>
      <trkpt lat="42.92225" lon="0.31214">
        <ele>1626.2</ele>
        <time>2021-10-02T08:26:13Z</time>
      </trkpt>
      <trkpt lat="42.92214" lon="0.31203">
        <ele>1626</ele>
        <time>2021-10-02T08:26:17Z</time>
      </trkpt>
      <trkpt lat="42.92211" lon="0.312">
        <ele>1626</ele>
        <time>2021-10-02T08:26:18Z</time>
      </trkpt>
      <trkpt lat="42.92207" lon="0.31196">
        <ele>1625.8</ele>
        <time>2021-10-02T08:26:20Z</time>
      </trkpt>
      <trkpt lat="42.92206" lon="0.31194">
        <ele>1625.8</ele>
        <time>2021-10-02T08:26:21Z</time>
      </trkpt>
      <trkpt lat="42.92204" lon="0.31193">
        <ele>1625.8</ele>
        <time>2021-10-02T08:26:22Z</time>
      </trkpt>
      <trkpt lat="42.92204" lon="0.31193">
        <ele>1625.6</ele>
        <time>2021-10-02T08:26:23Z</time>
      </trkpt>
      <trkpt lat="42.92204" lon="0.31193">
        <ele>1625.6</ele>
        <time>2021-10-02T08:26:24Z</time>
      </trkpt>
      <trkpt lat="42.92203" lon="0.31192">
        <ele>1625.6</ele>
        <time>2021-10-02T08:26:26Z</time>
      </trkpt>
      <trkpt lat="42.92203" lon="0.31192">
        <ele>1625.6</ele>
        <time>2021-10-02T08:26:27Z</time>
      </trkpt>
      <trkpt lat="42.92203" lon="0.31191">
        <ele>1625.6</ele>
        <time>2021-10-02T08:26:28Z</time>
      </trkpt>
      <trkpt lat="42.92202" lon="0.3119">
        <ele>1625.6</ele>
        <time>2021-10-02T08:26:29Z</time>
      </trkpt>
      <trkpt lat="42.92198" lon="0.31185">
        <ele>1625.6</ele>
        <time>2021-10-02T08:26:34Z</time>
      </trkpt>
      <trkpt lat="42.92197" lon="0.31185">
        <ele>1625.6</ele>
        <time>2021-10-02T08:26:35Z</time>
      </trkpt>
      <trkpt lat="42.92196" lon="0.31184">
        <ele>1625.6</ele>
        <time>2021-10-02T08:26:36Z</time>
      </trkpt>
      <trkpt lat="42.92194" lon="0.31182">
        <ele>1625.6</ele>
        <time>2021-10-02T08:26:39Z</time>
      </trkpt>
      <trkpt lat="42.92193" lon="0.31182">
        <ele>1625.6</ele>
        <time>2021-10-02T08:26:40Z</time>
      </trkpt>
      <trkpt lat="42.92193" lon="0.31182">
        <ele>1625.6</ele>
        <time>2021-10-02T08:26:41Z</time>
      </trkpt>
      <trkpt lat="42.92192" lon="0.31182">
        <ele>1625.6</ele>
        <time>2021-10-02T08:26:42Z</time>
      </trkpt>
      <trkpt lat="42.92192" lon="0.31182">
        <ele>1625.8</ele>
        <time>2021-10-02T08:26:43Z</time>
      </trkpt>
      <trkpt lat="42.92192" lon="0.31182">
        <ele>1626.2</ele>
        <time>2021-10-02T08:26:50Z</time>
      </trkpt>
      <trkpt lat="42.92192" lon="0.31182">
        <ele>1626.2</ele>
        <time>2021-10-02T08:26:55Z</time>
      </trkpt>
      <trkpt lat="42.9219" lon="0.31179">
        <ele>1626.2</ele>
        <time>2021-10-02T08:26:57Z</time>
      </trkpt>
      <trkpt lat="42.92184" lon="0.31175">
        <ele>1626.2</ele>
        <time>2021-10-02T08:27:01Z</time>
      </trkpt>
      <trkpt lat="42.92184" lon="0.31174">
        <ele>1626.2</ele>
        <time>2021-10-02T08:27:02Z</time>
      </trkpt>
      <trkpt lat="42.92183" lon="0.31173">
        <ele>1626.2</ele>
        <time>2021-10-02T08:27:03Z</time>
      </trkpt>
      <trkpt lat="42.9218" lon="0.3117">
        <ele>1626.2</ele>
        <time>2021-10-02T08:27:05Z</time>
      </trkpt>
      <trkpt lat="42.92173" lon="0.3116">
        <ele>1626.2</ele>
        <time>2021-10-02T08:27:10Z</time>
      </trkpt>
      <trkpt lat="42.92172" lon="0.31157">
        <ele>1626.2</ele>
        <time>2021-10-02T08:27:11Z</time>
      </trkpt>
      <trkpt lat="42.92169" lon="0.31153">
        <ele>1626.2</ele>
        <time>2021-10-02T08:27:13Z</time>
      </trkpt>
      <trkpt lat="42.92159" lon="0.31135">
        <ele>1626</ele>
        <time>2021-10-02T08:27:22Z</time>
      </trkpt>
      <trkpt lat="42.92157" lon="0.31131">
        <ele>1626</ele>
        <time>2021-10-02T08:27:24Z</time>
      </trkpt>
      <trkpt lat="42.92157" lon="0.31129">
        <ele>1626</ele>
        <time>2021-10-02T08:27:25Z</time>
      </trkpt>
      <trkpt lat="42.92154" lon="0.31122">
        <ele>1626</ele>
        <time>2021-10-02T08:27:28Z</time>
      </trkpt>
      <trkpt lat="42.92153" lon="0.3112">
        <ele>1626</ele>
        <time>2021-10-02T08:27:29Z</time>
      </trkpt>
      <trkpt lat="42.92152" lon="0.31118">
        <ele>1626</ele>
        <time>2021-10-02T08:27:30Z</time>
      </trkpt>
      <trkpt lat="42.92151" lon="0.31115">
        <ele>1626</ele>
        <time>2021-10-02T08:27:31Z</time>
      </trkpt>
      <trkpt lat="42.9215" lon="0.31113">
        <ele>1626</ele>
        <time>2021-10-02T08:27:32Z</time>
      </trkpt>
      <trkpt lat="42.92146" lon="0.31103">
        <ele>1626.2</ele>
        <time>2021-10-02T08:27:37Z</time>
      </trkpt>
      <trkpt lat="42.92146" lon="0.311">
        <ele>1626.2</ele>
        <time>2021-10-02T08:27:38Z</time>
      </trkpt>
      <trkpt lat="42.92145" lon="0.31098">
        <ele>1626.2</ele>
        <time>2021-10-02T08:27:39Z</time>
      </trkpt>
      <trkpt lat="42.92143" lon="0.3108">
        <ele>1626.4</ele>
        <time>2021-10-02T08:27:44Z</time>
      </trkpt>
      <trkpt lat="42.92142" lon="0.31068">
        <ele>1626.4</ele>
        <time>2021-10-02T08:27:47Z</time>
      </trkpt>
      <trkpt lat="42.92141" lon="0.31065">
        <ele>1626</ele>
        <time>2021-10-02T08:27:48Z</time>
      </trkpt>
      <trkpt lat="42.92141" lon="0.31059">
        <ele>1625.8</ele>
        <time>2021-10-02T08:27:50Z</time>
      </trkpt>
      <trkpt lat="42.9214" lon="0.31051">
        <ele>1625.6</ele>
        <time>2021-10-02T08:27:53Z</time>
      </trkpt>
      <trkpt lat="42.9214" lon="0.3105">
        <ele>1625.6</ele>
        <time>2021-10-02T08:27:54Z</time>
      </trkpt>
      <trkpt lat="42.92139" lon="0.3105">
        <ele>1625.8</ele>
        <time>2021-10-02T08:27:55Z</time>
      </trkpt>
      <trkpt lat="42.9214" lon="0.31048">
        <ele>1626</ele>
        <time>2021-10-02T08:27:57Z</time>
      </trkpt>
      <trkpt lat="42.9214" lon="0.31047">
        <ele>1626</ele>
        <time>2021-10-02T08:27:58Z</time>
      </trkpt>
      <trkpt lat="42.92139" lon="0.31043">
        <ele>1626.2</ele>
        <time>2021-10-02T08:28:01Z</time>
      </trkpt>
      <trkpt lat="42.92139" lon="0.31041">
        <ele>1626.4</ele>
        <time>2021-10-02T08:28:04Z</time>
      </trkpt>
      <trkpt lat="42.9214" lon="0.31041">
        <ele>1626.4</ele>
        <time>2021-10-02T08:28:05Z</time>
      </trkpt>
      <trkpt lat="42.9214" lon="0.3104">
        <ele>1626.4</ele>
        <time>2021-10-02T08:28:06Z</time>
      </trkpt>
      <trkpt lat="42.9214" lon="0.3104">
        <ele>1626.4</ele>
        <time>2021-10-02T08:28:08Z</time>
      </trkpt>
      <trkpt lat="42.9214" lon="0.31037">
        <ele>1626.6</ele>
        <time>2021-10-02T08:28:12Z</time>
      </trkpt>
      <trkpt lat="42.9214" lon="0.31033">
        <ele>1626.6</ele>
        <time>2021-10-02T08:28:14Z</time>
      </trkpt>
      <trkpt lat="42.9214" lon="0.31031">
        <ele>1626.6</ele>
        <time>2021-10-02T08:28:15Z</time>
      </trkpt>
      <trkpt lat="42.9214" lon="0.31029">
        <ele>1626.6</ele>
        <time>2021-10-02T08:28:16Z</time>
      </trkpt>
      <trkpt lat="42.9214" lon="0.3102">
        <ele>1626.6</ele>
        <time>2021-10-02T08:28:20Z</time>
      </trkpt>
      <trkpt lat="42.9214" lon="0.31018">
        <ele>1626.6</ele>
        <time>2021-10-02T08:28:21Z</time>
      </trkpt>
      <trkpt lat="42.9214" lon="0.31015">
        <ele>1626.4</ele>
        <time>2021-10-02T08:28:22Z</time>
      </trkpt>
      <trkpt lat="42.9214" lon="0.30997">
        <ele>1626</ele>
        <time>2021-10-02T08:28:28Z</time>
      </trkpt>
      <trkpt lat="42.9214" lon="0.30995">
        <ele>1625.8</ele>
        <time>2021-10-02T08:28:29Z</time>
      </trkpt>
      <trkpt lat="42.9214" lon="0.30993">
        <ele>1625.8</ele>
        <time>2021-10-02T08:28:30Z</time>
      </trkpt>
      <trkpt lat="42.92139" lon="0.30978">
        <ele>1625.8</ele>
        <time>2021-10-02T08:28:36Z</time>
      </trkpt>
      <trkpt lat="42.92138" lon="0.30975">
        <ele>1625.8</ele>
        <time>2021-10-02T08:28:37Z</time>
      </trkpt>
      <trkpt lat="42.92138" lon="0.30973">
        <ele>1625.8</ele>
        <time>2021-10-02T08:28:38Z</time>
      </trkpt>
      <trkpt lat="42.92138" lon="0.30971">
        <ele>1625.8</ele>
        <time>2021-10-02T08:28:39Z</time>
      </trkpt>
      <trkpt lat="42.92138" lon="0.30947">
        <ele>1626</ele>
        <time>2021-10-02T08:28:47Z</time>
      </trkpt>
      <trkpt lat="42.9214" lon="0.30932">
        <ele>1625.8</ele>
        <time>2021-10-02T08:28:53Z</time>
      </trkpt>
      <trkpt lat="42.9214" lon="0.30931">
        <ele>1625.8</ele>
        <time>2021-10-02T08:28:54Z</time>
      </trkpt>
      <trkpt lat="42.9214" lon="0.30929">
        <ele>1625.6</ele>
        <time>2021-10-02T08:28:55Z</time>
      </trkpt>
      <trkpt lat="42.9214" lon="0.30927">
        <ele>1625.6</ele>
        <time>2021-10-02T08:28:56Z</time>
      </trkpt>
      <trkpt lat="42.9214" lon="0.30926">
        <ele>1625.6</ele>
        <time>2021-10-02T08:28:57Z</time>
      </trkpt>
      <trkpt lat="42.9214" lon="0.30925">
        <ele>1625.4</ele>
        <time>2021-10-02T08:28:58Z</time>
      </trkpt>
      <trkpt lat="42.9214" lon="0.30923">
        <ele>1625.4</ele>
        <time>2021-10-02T08:28:59Z</time>
      </trkpt>
      <trkpt lat="42.9214" lon="0.30921">
        <ele>1625.2</ele>
        <time>2021-10-02T08:29:00Z</time>
      </trkpt>
      <trkpt lat="42.92142" lon="0.30896">
        <ele>1624.6</ele>
        <time>2021-10-02T08:29:09Z</time>
      </trkpt>
      <trkpt lat="42.92142" lon="0.30891">
        <ele>1624.4</ele>
        <time>2021-10-02T08:29:10Z</time>
      </trkpt>
      <trkpt lat="42.92142" lon="0.30888">
        <ele>1624</ele>
        <time>2021-10-02T08:29:11Z</time>
      </trkpt>
      <trkpt lat="42.92143" lon="0.30882">
        <ele>1623.4</ele>
        <time>2021-10-02T08:29:13Z</time>
      </trkpt>
      <trkpt lat="42.92142" lon="0.30872">
        <ele>1622.8</ele>
        <time>2021-10-02T08:29:16Z</time>
      </trkpt>
      <trkpt lat="42.92143" lon="0.30865">
        <ele>1622.2</ele>
        <time>2021-10-02T08:29:18Z</time>
      </trkpt>
      <trkpt lat="42.92142" lon="0.3086">
        <ele>1621.4</ele>
        <time>2021-10-02T08:29:21Z</time>
      </trkpt>
      <trkpt lat="42.92142" lon="0.3086">
        <ele>1621.4</ele>
        <time>2021-10-02T08:29:22Z</time>
      </trkpt>
      <trkpt lat="42.92142" lon="0.3086">
        <ele>1621</ele>
        <time>2021-10-02T08:29:23Z</time>
      </trkpt>
      <trkpt lat="42.92142" lon="0.30859">
        <ele>1620.2</ele>
        <time>2021-10-02T08:29:27Z</time>
      </trkpt>
      <trkpt lat="42.92142" lon="0.30857">
        <ele>1619.8</ele>
        <time>2021-10-02T08:29:31Z</time>
      </trkpt>
      <trkpt lat="42.92143" lon="0.30855">
        <ele>1619.8</ele>
        <time>2021-10-02T08:29:32Z</time>
      </trkpt>
      <trkpt lat="42.92142" lon="0.3085">
        <ele>1619.6</ele>
        <time>2021-10-02T08:29:34Z</time>
      </trkpt>
      <trkpt lat="42.92141" lon="0.30848">
        <ele>1619.6</ele>
        <time>2021-10-02T08:29:35Z</time>
      </trkpt>
      <trkpt lat="42.92141" lon="0.30848">
        <ele>1619.6</ele>
        <time>2021-10-02T08:29:36Z</time>
      </trkpt>
      <trkpt lat="42.92141" lon="0.30848">
        <ele>1619.4</ele>
        <time>2021-10-02T08:29:37Z</time>
      </trkpt>
      <trkpt lat="42.92141" lon="0.30848">
        <ele>1619.2</ele>
        <time>2021-10-02T08:29:39Z</time>
      </trkpt>
      <trkpt lat="42.92141" lon="0.30844">
        <ele>1619</ele>
        <time>2021-10-02T08:29:42Z</time>
      </trkpt>
      <trkpt lat="42.92141" lon="0.30839">
        <ele>1618.8</ele>
        <time>2021-10-02T08:29:43Z</time>
      </trkpt>
      <trkpt lat="42.92137" lon="0.30816">
        <ele>1618.2</ele>
        <time>2021-10-02T08:29:48Z</time>
      </trkpt>
      <trkpt lat="42.92135" lon="0.30812">
        <ele>1617.8</ele>
        <time>2021-10-02T08:29:49Z</time>
      </trkpt>
      <trkpt lat="42.92135" lon="0.3081">
        <ele>1617.6</ele>
        <time>2021-10-02T08:29:50Z</time>
      </trkpt>
      <trkpt lat="42.92134" lon="0.30807">
        <ele>1617.2</ele>
        <time>2021-10-02T08:29:51Z</time>
      </trkpt>
      <trkpt lat="42.92133" lon="0.30805">
        <ele>1617.2</ele>
        <time>2021-10-02T08:29:52Z</time>
      </trkpt>
      <trkpt lat="42.92132" lon="0.30802">
        <ele>1617</ele>
        <time>2021-10-02T08:29:53Z</time>
      </trkpt>
      <trkpt lat="42.92131" lon="0.30799">
        <ele>1617</ele>
        <time>2021-10-02T08:29:54Z</time>
      </trkpt>
      <trkpt lat="42.9213" lon="0.30797">
        <ele>1617</ele>
        <time>2021-10-02T08:29:55Z</time>
      </trkpt>
      <trkpt lat="42.92125" lon="0.30783">
        <ele>1617</ele>
        <time>2021-10-02T08:30:00Z</time>
      </trkpt>
      <trkpt lat="42.92125" lon="0.30781">
        <ele>1617</ele>
        <time>2021-10-02T08:30:01Z</time>
      </trkpt>
      <trkpt lat="42.92124" lon="0.3078">
        <ele>1617</ele>
        <time>2021-10-02T08:30:02Z</time>
      </trkpt>
      <trkpt lat="42.92124" lon="0.30778">
        <ele>1617</ele>
        <time>2021-10-02T08:30:03Z</time>
      </trkpt>
      <trkpt lat="42.92123" lon="0.30777">
        <ele>1617</ele>
        <time>2021-10-02T08:30:04Z</time>
      </trkpt>
      <trkpt lat="42.92123" lon="0.30776">
        <ele>1617</ele>
        <time>2021-10-02T08:30:05Z</time>
      </trkpt>
      <trkpt lat="42.92122" lon="0.30773">
        <ele>1617</ele>
        <time>2021-10-02T08:30:06Z</time>
      </trkpt>
      <trkpt lat="42.92121" lon="0.3077">
        <ele>1617</ele>
        <time>2021-10-02T08:30:07Z</time>
      </trkpt>
      <trkpt lat="42.92116" lon="0.3076">
        <ele>1616.6</ele>
        <time>2021-10-02T08:30:10Z</time>
      </trkpt>
      <trkpt lat="42.92115" lon="0.30756">
        <ele>1616.4</ele>
        <time>2021-10-02T08:30:11Z</time>
      </trkpt>
      <trkpt lat="42.92113" lon="0.30754">
        <ele>1616.4</ele>
        <time>2021-10-02T08:30:12Z</time>
      </trkpt>
      <trkpt lat="42.92112" lon="0.30752">
        <ele>1616.2</ele>
        <time>2021-10-02T08:30:13Z</time>
      </trkpt>
      <trkpt lat="42.92112" lon="0.3075">
        <ele>1616.2</ele>
        <time>2021-10-02T08:30:14Z</time>
      </trkpt>
      <trkpt lat="42.92111" lon="0.30748">
        <ele>1616.2</ele>
        <time>2021-10-02T08:30:15Z</time>
      </trkpt>
      <trkpt lat="42.9211" lon="0.30746">
        <ele>1616</ele>
        <time>2021-10-02T08:30:16Z</time>
      </trkpt>
      <trkpt lat="42.92109" lon="0.30743">
        <ele>1616</ele>
        <time>2021-10-02T08:30:17Z</time>
      </trkpt>
      <trkpt lat="42.92104" lon="0.30734">
        <ele>1615.6</ele>
        <time>2021-10-02T08:30:20Z</time>
      </trkpt>
      <trkpt lat="42.92101" lon="0.3073">
        <ele>1615.4</ele>
        <time>2021-10-02T08:30:22Z</time>
      </trkpt>
      <trkpt lat="42.921" lon="0.30727">
        <ele>1615.2</ele>
        <time>2021-10-02T08:30:23Z</time>
      </trkpt>
      <trkpt lat="42.92099" lon="0.30725">
        <ele>1615.2</ele>
        <time>2021-10-02T08:30:24Z</time>
      </trkpt>
      <trkpt lat="42.92092" lon="0.30716">
        <ele>1614.8</ele>
        <time>2021-10-02T08:30:29Z</time>
      </trkpt>
      <trkpt lat="42.92092" lon="0.30715">
        <ele>1614.8</ele>
        <time>2021-10-02T08:30:30Z</time>
      </trkpt>
      <trkpt lat="42.92092" lon="0.30715">
        <ele>1614.6</ele>
        <time>2021-10-02T08:30:31Z</time>
      </trkpt>
      <trkpt lat="42.92092" lon="0.30715">
        <ele>1614.6</ele>
        <time>2021-10-02T08:30:32Z</time>
      </trkpt>
      <trkpt lat="42.92092" lon="0.30715">
        <ele>1614.8</ele>
        <time>2021-10-02T08:30:40Z</time>
      </trkpt>
      <trkpt lat="42.92088" lon="0.30711">
        <ele>1614.8</ele>
        <time>2021-10-02T08:31:57Z</time>
      </trkpt>
      <trkpt lat="42.92086" lon="0.30708">
        <ele>1614.8</ele>
        <time>2021-10-02T08:31:59Z</time>
      </trkpt>
      <trkpt lat="42.9208" lon="0.30701">
        <ele>1615.2</ele>
        <time>2021-10-02T08:32:05Z</time>
      </trkpt>
      <trkpt lat="42.92078" lon="0.30699">
        <ele>1615.4</ele>
        <time>2021-10-02T08:32:07Z</time>
      </trkpt>
      <trkpt lat="42.92077" lon="0.30698">
        <ele>1615.4</ele>
        <time>2021-10-02T08:32:08Z</time>
      </trkpt>
      <trkpt lat="42.92076" lon="0.30697">
        <ele>1615.4</ele>
        <time>2021-10-02T08:32:09Z</time>
      </trkpt>
      <trkpt lat="42.92075" lon="0.30697">
        <ele>1615.4</ele>
        <time>2021-10-02T08:32:10Z</time>
      </trkpt>
      <trkpt lat="42.92074" lon="0.30696">
        <ele>1615.4</ele>
        <time>2021-10-02T08:32:11Z</time>
      </trkpt>
      <trkpt lat="42.92074" lon="0.30694">
        <ele>1615.4</ele>
        <time>2021-10-02T08:32:12Z</time>
      </trkpt>
      <trkpt lat="42.92073" lon="0.30692">
        <ele>1615.6</ele>
        <time>2021-10-02T08:32:13Z</time>
      </trkpt>
      <trkpt lat="42.92071" lon="0.3069">
        <ele>1615.6</ele>
        <time>2021-10-02T08:32:14Z</time>
      </trkpt>
      <trkpt lat="42.92069" lon="0.30686">
        <ele>1615.8</ele>
        <time>2021-10-02T08:32:16Z</time>
      </trkpt>
      <trkpt lat="42.92067" lon="0.30685">
        <ele>1615.8</ele>
        <time>2021-10-02T08:32:17Z</time>
      </trkpt>
      <trkpt lat="42.92064" lon="0.30682">
        <ele>1615.8</ele>
        <time>2021-10-02T08:32:19Z</time>
      </trkpt>
      <trkpt lat="42.92055" lon="0.30671">
        <ele>1615.8</ele>
        <time>2021-10-02T08:32:26Z</time>
      </trkpt>
      <trkpt lat="42.92041" lon="0.30659">
        <ele>1615.4</ele>
        <time>2021-10-02T08:32:33Z</time>
      </trkpt>
      <trkpt lat="42.92037" lon="0.30654">
        <ele>1615.4</ele>
        <time>2021-10-02T08:32:36Z</time>
      </trkpt>
      <trkpt lat="42.92032" lon="0.30649">
        <ele>1615.4</ele>
        <time>2021-10-02T08:32:39Z</time>
      </trkpt>
      <trkpt lat="42.9203" lon="0.30648">
        <ele>1615.4</ele>
        <time>2021-10-02T08:32:40Z</time>
      </trkpt>
      <trkpt lat="42.92028" lon="0.30647">
        <ele>1615.2</ele>
        <time>2021-10-02T08:32:41Z</time>
      </trkpt>
      <trkpt lat="42.92026" lon="0.30646">
        <ele>1615.4</ele>
        <time>2021-10-02T08:32:42Z</time>
      </trkpt>
      <trkpt lat="42.92025" lon="0.30645">
        <ele>1615.4</ele>
        <time>2021-10-02T08:32:43Z</time>
      </trkpt>
      <trkpt lat="42.92023" lon="0.30643">
        <ele>1615.4</ele>
        <time>2021-10-02T08:32:44Z</time>
      </trkpt>
      <trkpt lat="42.92021" lon="0.30642">
        <ele>1615</ele>
        <time>2021-10-02T08:32:45Z</time>
      </trkpt>
      <trkpt lat="42.9202" lon="0.30641">
        <ele>1615</ele>
        <time>2021-10-02T08:32:46Z</time>
      </trkpt>
      <trkpt lat="42.92018" lon="0.3064">
        <ele>1615.2</ele>
        <time>2021-10-02T08:32:47Z</time>
      </trkpt>
      <trkpt lat="42.92016" lon="0.30639">
        <ele>1615.4</ele>
        <time>2021-10-02T08:32:48Z</time>
      </trkpt>
      <trkpt lat="42.91998" lon="0.30625">
        <ele>1615.6</ele>
        <time>2021-10-02T08:32:57Z</time>
      </trkpt>
      <trkpt lat="42.91984" lon="0.30615">
        <ele>1615.6</ele>
        <time>2021-10-02T08:33:04Z</time>
      </trkpt>
      <trkpt lat="42.91982" lon="0.30614">
        <ele>1615.6</ele>
        <time>2021-10-02T08:33:05Z</time>
      </trkpt>
      <trkpt lat="42.91981" lon="0.30612">
        <ele>1615.4</ele>
        <time>2021-10-02T08:33:06Z</time>
      </trkpt>
      <trkpt lat="42.91979" lon="0.30611">
        <ele>1615.2</ele>
        <time>2021-10-02T08:33:07Z</time>
      </trkpt>
      <trkpt lat="42.91978" lon="0.3061">
        <ele>1615.4</ele>
        <time>2021-10-02T08:33:08Z</time>
      </trkpt>
      <trkpt lat="42.91976" lon="0.30608">
        <ele>1615.4</ele>
        <time>2021-10-02T08:33:09Z</time>
      </trkpt>
      <trkpt lat="42.91974" lon="0.30607">
        <ele>1615.6</ele>
        <time>2021-10-02T08:33:10Z</time>
      </trkpt>
      <trkpt lat="42.91973" lon="0.30606">
        <ele>1615.6</ele>
        <time>2021-10-02T08:33:11Z</time>
      </trkpt>
      <trkpt lat="42.91971" lon="0.30605">
        <ele>1615.6</ele>
        <time>2021-10-02T08:33:12Z</time>
      </trkpt>
      <trkpt lat="42.91969" lon="0.30605">
        <ele>1615.8</ele>
        <time>2021-10-02T08:33:13Z</time>
      </trkpt>
      <trkpt lat="42.91957" lon="0.30605">
        <ele>1615.6</ele>
        <time>2021-10-02T08:33:20Z</time>
      </trkpt>
      <trkpt lat="42.91948" lon="0.30604">
        <ele>1615</ele>
        <time>2021-10-02T08:33:31Z</time>
      </trkpt>
      <trkpt lat="42.91939" lon="0.30604">
        <ele>1615</ele>
        <time>2021-10-02T08:33:35Z</time>
      </trkpt>
      <trkpt lat="42.91936" lon="0.30604">
        <ele>1614.8</ele>
        <time>2021-10-02T08:33:36Z</time>
      </trkpt>
      <trkpt lat="42.91932" lon="0.30606">
        <ele>1614.8</ele>
        <time>2021-10-02T08:33:38Z</time>
      </trkpt>
      <trkpt lat="42.91927" lon="0.30607">
        <ele>1614.6</ele>
        <time>2021-10-02T08:33:40Z</time>
      </trkpt>
      <trkpt lat="42.91923" lon="0.30608">
        <ele>1614.4</ele>
        <time>2021-10-02T08:33:42Z</time>
      </trkpt>
      <trkpt lat="42.91921" lon="0.30608">
        <ele>1614.4</ele>
        <time>2021-10-02T08:33:43Z</time>
      </trkpt>
      <trkpt lat="42.91916" lon="0.30609">
        <ele>1614.4</ele>
        <time>2021-10-02T08:33:45Z</time>
      </trkpt>
      <trkpt lat="42.91891" lon="0.30616">
        <ele>1614.4</ele>
        <time>2021-10-02T08:33:56Z</time>
      </trkpt>
      <trkpt lat="42.91886" lon="0.30619">
        <ele>1614.4</ele>
        <time>2021-10-02T08:33:59Z</time>
      </trkpt>
      <trkpt lat="42.91884" lon="0.30619">
        <ele>1614.4</ele>
        <time>2021-10-02T08:34:00Z</time>
      </trkpt>
      <trkpt lat="42.91882" lon="0.3062">
        <ele>1614.6</ele>
        <time>2021-10-02T08:34:01Z</time>
      </trkpt>
      <trkpt lat="42.9188" lon="0.30621">
        <ele>1614.6</ele>
        <time>2021-10-02T08:34:02Z</time>
      </trkpt>
      <trkpt lat="42.91878" lon="0.30621">
        <ele>1614.8</ele>
        <time>2021-10-02T08:34:03Z</time>
      </trkpt>
      <trkpt lat="42.91876" lon="0.30622">
        <ele>1614.8</ele>
        <time>2021-10-02T08:34:04Z</time>
      </trkpt>
      <trkpt lat="42.91872" lon="0.30624">
        <ele>1615</ele>
        <time>2021-10-02T08:34:06Z</time>
      </trkpt>
      <trkpt lat="42.91869" lon="0.30625">
        <ele>1615.2</ele>
        <time>2021-10-02T08:34:07Z</time>
      </trkpt>
      <trkpt lat="42.91861" lon="0.30626">
        <ele>1615.4</ele>
        <time>2021-10-02T08:34:10Z</time>
      </trkpt>
      <trkpt lat="42.9185" lon="0.3063">
        <ele>1615.6</ele>
        <time>2021-10-02T08:34:14Z</time>
      </trkpt>
      <trkpt lat="42.91847" lon="0.30631">
        <ele>1615.6</ele>
        <time>2021-10-02T08:34:15Z</time>
      </trkpt>
      <trkpt lat="42.91845" lon="0.30633">
        <ele>1615.6</ele>
        <time>2021-10-02T08:34:16Z</time>
      </trkpt>
      <trkpt lat="42.91843" lon="0.30634">
        <ele>1615.6</ele>
        <time>2021-10-02T08:34:17Z</time>
      </trkpt>
      <trkpt lat="42.91841" lon="0.30634">
        <ele>1615.6</ele>
        <time>2021-10-02T08:34:18Z</time>
      </trkpt>
      <trkpt lat="42.91839" lon="0.30635">
        <ele>1615.6</ele>
        <time>2021-10-02T08:34:19Z</time>
      </trkpt>
      <trkpt lat="42.91836" lon="0.30636">
        <ele>1615.6</ele>
        <time>2021-10-02T08:34:20Z</time>
      </trkpt>
      <trkpt lat="42.91834" lon="0.30636">
        <ele>1615.6</ele>
        <time>2021-10-02T08:34:21Z</time>
      </trkpt>
      <trkpt lat="42.91832" lon="0.30637">
        <ele>1615.4</ele>
        <time>2021-10-02T08:34:22Z</time>
      </trkpt>
      <trkpt lat="42.91829" lon="0.30638">
        <ele>1615.4</ele>
        <time>2021-10-02T08:34:23Z</time>
      </trkpt>
      <trkpt lat="42.91827" lon="0.30638">
        <ele>1615.4</ele>
        <time>2021-10-02T08:34:24Z</time>
      </trkpt>
      <trkpt lat="42.91825" lon="0.30639">
        <ele>1615.4</ele>
        <time>2021-10-02T08:34:25Z</time>
      </trkpt>
      <trkpt lat="42.91822" lon="0.3064">
        <ele>1615.6</ele>
        <time>2021-10-02T08:34:26Z</time>
      </trkpt>
      <trkpt lat="42.9182" lon="0.30641">
        <ele>1615.6</ele>
        <time>2021-10-02T08:34:27Z</time>
      </trkpt>
      <trkpt lat="42.91818" lon="0.30642">
        <ele>1615.6</ele>
        <time>2021-10-02T08:34:28Z</time>
      </trkpt>
      <trkpt lat="42.91816" lon="0.30643">
        <ele>1615.6</ele>
        <time>2021-10-02T08:34:29Z</time>
      </trkpt>
      <trkpt lat="42.91814" lon="0.30643">
        <ele>1615.6</ele>
        <time>2021-10-02T08:34:30Z</time>
      </trkpt>
      <trkpt lat="42.9181" lon="0.30644">
        <ele>1615.6</ele>
        <time>2021-10-02T08:34:32Z</time>
      </trkpt>
      <trkpt lat="42.91807" lon="0.30644">
        <ele>1615.8</ele>
        <time>2021-10-02T08:34:33Z</time>
      </trkpt>
      <trkpt lat="42.91791" lon="0.30648">
        <ele>1615.2</ele>
        <time>2021-10-02T08:34:39Z</time>
      </trkpt>
      <trkpt lat="42.91776" lon="0.30649">
        <ele>1614.4</ele>
        <time>2021-10-02T08:34:45Z</time>
      </trkpt>
      <trkpt lat="42.91773" lon="0.3065">
        <ele>1614.2</ele>
        <time>2021-10-02T08:34:46Z</time>
      </trkpt>
      <trkpt lat="42.91762" lon="0.30654">
        <ele>1613</ele>
        <time>2021-10-02T08:34:50Z</time>
      </trkpt>
      <trkpt lat="42.91755" lon="0.3066">
        <ele>1612.2</ele>
        <time>2021-10-02T08:34:53Z</time>
      </trkpt>
      <trkpt lat="42.91753" lon="0.30662">
        <ele>1612</ele>
        <time>2021-10-02T08:34:54Z</time>
      </trkpt>
      <trkpt lat="42.91739" lon="0.30668">
        <ele>1611.6</ele>
        <time>2021-10-02T08:34:59Z</time>
      </trkpt>
      <trkpt lat="42.91723" lon="0.30676">
        <ele>1611</ele>
        <time>2021-10-02T08:35:05Z</time>
      </trkpt>
      <trkpt lat="42.91722" lon="0.30677">
        <ele>1611</ele>
        <time>2021-10-02T08:35:06Z</time>
      </trkpt>
      <trkpt lat="42.9172" lon="0.30679">
        <ele>1610.8</ele>
        <time>2021-10-02T08:35:07Z</time>
      </trkpt>
      <trkpt lat="42.91718" lon="0.30679">
        <ele>1610.8</ele>
        <time>2021-10-02T08:35:08Z</time>
      </trkpt>
      <trkpt lat="42.91716" lon="0.3068">
        <ele>1610.8</ele>
        <time>2021-10-02T08:35:09Z</time>
      </trkpt>
      <trkpt lat="42.91709" lon="0.30683">
        <ele>1610.6</ele>
        <time>2021-10-02T08:35:12Z</time>
      </trkpt>
      <trkpt lat="42.91692" lon="0.30694">
        <ele>1610</ele>
        <time>2021-10-02T08:35:18Z</time>
      </trkpt>
      <trkpt lat="42.91684" lon="0.30702">
        <ele>1609.6</ele>
        <time>2021-10-02T08:35:22Z</time>
      </trkpt>
      <trkpt lat="42.91682" lon="0.30705">
        <ele>1609.4</ele>
        <time>2021-10-02T08:35:23Z</time>
      </trkpt>
      <trkpt lat="42.91677" lon="0.3071">
        <ele>1609.2</ele>
        <time>2021-10-02T08:35:26Z</time>
      </trkpt>
      <trkpt lat="42.91675" lon="0.30712">
        <ele>1609.2</ele>
        <time>2021-10-02T08:35:27Z</time>
      </trkpt>
      <trkpt lat="42.91672" lon="0.30714">
        <ele>1609.2</ele>
        <time>2021-10-02T08:35:28Z</time>
      </trkpt>
      <trkpt lat="42.9167" lon="0.30716">
        <ele>1609.2</ele>
        <time>2021-10-02T08:35:29Z</time>
      </trkpt>
      <trkpt lat="42.91659" lon="0.30732">
        <ele>1609.4</ele>
        <time>2021-10-02T08:35:35Z</time>
      </trkpt>
      <trkpt lat="42.91651" lon="0.30745">
        <ele>1609.6</ele>
        <time>2021-10-02T08:35:40Z</time>
      </trkpt>
      <trkpt lat="42.91642" lon="0.3076">
        <ele>1609.4</ele>
        <time>2021-10-02T08:35:45Z</time>
      </trkpt>
      <trkpt lat="42.91633" lon="0.30782">
        <ele>1609.4</ele>
        <time>2021-10-02T08:35:53Z</time>
      </trkpt>
      <trkpt lat="42.91633" lon="0.30785">
        <ele>1609.2</ele>
        <time>2021-10-02T08:35:54Z</time>
      </trkpt>
      <trkpt lat="42.91633" lon="0.30788">
        <ele>1609.6</ele>
        <time>2021-10-02T08:35:55Z</time>
      </trkpt>
      <trkpt lat="42.91632" lon="0.30791">
        <ele>1609.8</ele>
        <time>2021-10-02T08:35:56Z</time>
      </trkpt>
      <trkpt lat="42.91632" lon="0.30794">
        <ele>1609.8</ele>
        <time>2021-10-02T08:35:57Z</time>
      </trkpt>
      <trkpt lat="42.91632" lon="0.30798">
        <ele>1609.8</ele>
        <time>2021-10-02T08:35:58Z</time>
      </trkpt>
      <trkpt lat="42.91631" lon="0.30801">
        <ele>1609.8</ele>
        <time>2021-10-02T08:35:59Z</time>
      </trkpt>
      <trkpt lat="42.9163" lon="0.30818">
        <ele>1609.6</ele>
        <time>2021-10-02T08:36:04Z</time>
      </trkpt>
      <trkpt lat="42.91631" lon="0.30836">
        <ele>1609.6</ele>
        <time>2021-10-02T08:36:10Z</time>
      </trkpt>
      <trkpt lat="42.91632" lon="0.3084">
        <ele>1609.6</ele>
        <time>2021-10-02T08:36:11Z</time>
      </trkpt>
      <trkpt lat="42.91632" lon="0.30848">
        <ele>1609.6</ele>
        <time>2021-10-02T08:36:14Z</time>
      </trkpt>
      <trkpt lat="42.91632" lon="0.30851">
        <ele>1609.8</ele>
        <time>2021-10-02T08:36:15Z</time>
      </trkpt>
      <trkpt lat="42.91631" lon="0.30854">
        <ele>1609.8</ele>
        <time>2021-10-02T08:36:16Z</time>
      </trkpt>
      <trkpt lat="42.91631" lon="0.30858">
        <ele>1609.8</ele>
        <time>2021-10-02T08:36:17Z</time>
      </trkpt>
      <trkpt lat="42.91631" lon="0.30861">
        <ele>1609.8</ele>
        <time>2021-10-02T08:36:18Z</time>
      </trkpt>
      <trkpt lat="42.91632" lon="0.30886">
        <ele>1609.2</ele>
        <time>2021-10-02T08:36:25Z</time>
      </trkpt>
      <trkpt lat="42.91633" lon="0.30894">
        <ele>1608.8</ele>
        <time>2021-10-02T08:36:27Z</time>
      </trkpt>
      <trkpt lat="42.91635" lon="0.30907">
        <ele>1608</ele>
        <time>2021-10-02T08:36:30Z</time>
      </trkpt>
      <trkpt lat="42.91635" lon="0.30911">
        <ele>1607.8</ele>
        <time>2021-10-02T08:36:31Z</time>
      </trkpt>
      <trkpt lat="42.91636" lon="0.30914">
        <ele>1607.8</ele>
        <time>2021-10-02T08:36:32Z</time>
      </trkpt>
      <trkpt lat="42.91636" lon="0.30917">
        <ele>1607.2</ele>
        <time>2021-10-02T08:36:33Z</time>
      </trkpt>
      <trkpt lat="42.91636" lon="0.3092">
        <ele>1606.8</ele>
        <time>2021-10-02T08:36:34Z</time>
      </trkpt>
      <trkpt lat="42.91636" lon="0.30923">
        <ele>1606.8</ele>
        <time>2021-10-02T08:36:35Z</time>
      </trkpt>
      <trkpt lat="42.91636" lon="0.30926">
        <ele>1606.6</ele>
        <time>2021-10-02T08:36:36Z</time>
      </trkpt>
      <trkpt lat="42.91634" lon="0.30936">
        <ele>1606.4</ele>
        <time>2021-10-02T08:36:40Z</time>
      </trkpt>
      <trkpt lat="42.91633" lon="0.30938">
        <ele>1606.4</ele>
        <time>2021-10-02T08:36:41Z</time>
      </trkpt>
      <trkpt lat="42.91633" lon="0.3094">
        <ele>1606.4</ele>
        <time>2021-10-02T08:36:42Z</time>
      </trkpt>
      <trkpt lat="42.91633" lon="0.30941">
        <ele>1606.2</ele>
        <time>2021-10-02T08:36:43Z</time>
      </trkpt>
      <trkpt lat="42.91633" lon="0.30944">
        <ele>1606</ele>
        <time>2021-10-02T08:36:44Z</time>
      </trkpt>
      <trkpt lat="42.91633" lon="0.30953">
        <ele>1604.8</ele>
        <time>2021-10-02T08:36:48Z</time>
      </trkpt>
      <trkpt lat="42.91633" lon="0.30954">
        <ele>1604.6</ele>
        <time>2021-10-02T08:36:49Z</time>
      </trkpt>
      <trkpt lat="42.91633" lon="0.30954">
        <ele>1604</ele>
        <time>2021-10-02T08:36:50Z</time>
      </trkpt>
      <trkpt lat="42.91632" lon="0.30954">
        <ele>1603.8</ele>
        <time>2021-10-02T08:36:51Z</time>
      </trkpt>
      <trkpt lat="42.91633" lon="0.30955">
        <ele>1603.6</ele>
        <time>2021-10-02T08:36:52Z</time>
      </trkpt>
      <trkpt lat="42.91632" lon="0.30957">
        <ele>1603.4</ele>
        <time>2021-10-02T08:36:53Z</time>
      </trkpt>
      <trkpt lat="42.91632" lon="0.30959">
        <ele>1603</ele>
        <time>2021-10-02T08:36:56Z</time>
      </trkpt>
      <trkpt lat="42.91633" lon="0.3096">
        <ele>1603</ele>
        <time>2021-10-02T08:36:57Z</time>
      </trkpt>
      <trkpt lat="42.91633" lon="0.30961">
        <ele>1602.8</ele>
        <time>2021-10-02T08:36:58Z</time>
      </trkpt>
      <trkpt lat="42.91633" lon="0.30961">
        <ele>1602.6</ele>
        <time>2021-10-02T08:36:59Z</time>
      </trkpt>
      <trkpt lat="42.91633" lon="0.30962">
        <ele>1602.6</ele>
        <time>2021-10-02T08:37:00Z</time>
      </trkpt>
      <trkpt lat="42.91633" lon="0.30962">
        <ele>1602.4</ele>
        <time>2021-10-02T08:37:01Z</time>
      </trkpt>
      <trkpt lat="42.91633" lon="0.30962">
        <ele>1602.4</ele>
        <time>2021-10-02T08:37:02Z</time>
      </trkpt>
      <trkpt lat="42.91632" lon="0.30963">
        <ele>1602.2</ele>
        <time>2021-10-02T08:37:05Z</time>
      </trkpt>
      <trkpt lat="42.91632" lon="0.30964">
        <ele>1602.2</ele>
        <time>2021-10-02T08:37:06Z</time>
      </trkpt>
      <trkpt lat="42.9163" lon="0.30964">
        <ele>1602.2</ele>
        <time>2021-10-02T08:37:10Z</time>
      </trkpt>
      <trkpt lat="42.9163" lon="0.30964">
        <ele>1602.2</ele>
        <time>2021-10-02T08:37:14Z</time>
      </trkpt>
      <trkpt lat="42.91626" lon="0.30966">
        <ele>1602.2</ele>
        <time>2021-10-02T08:37:21Z</time>
      </trkpt>
      <trkpt lat="42.91625" lon="0.30967">
        <ele>1602</ele>
        <time>2021-10-02T08:37:22Z</time>
      </trkpt>
      <trkpt lat="42.91621" lon="0.30969">
        <ele>1602</ele>
        <time>2021-10-02T08:37:26Z</time>
      </trkpt>
      <trkpt lat="42.9162" lon="0.3097">
        <ele>1602</ele>
        <time>2021-10-02T08:37:27Z</time>
      </trkpt>
      <trkpt lat="42.91619" lon="0.30971">
        <ele>1602</ele>
        <time>2021-10-02T08:37:28Z</time>
      </trkpt>
      <trkpt lat="42.91618" lon="0.30971">
        <ele>1602</ele>
        <time>2021-10-02T08:37:33Z</time>
      </trkpt>
      <trkpt lat="42.91618" lon="0.30971">
        <ele>1602.4</ele>
        <time>2021-10-02T08:37:47Z</time>
      </trkpt>
      <trkpt lat="42.91618" lon="0.30971">
        <ele>1602.6</ele>
        <time>2021-10-02T08:37:59Z</time>
      </trkpt>
      <trkpt lat="42.91612" lon="0.30976">
        <ele>1602.4</ele>
        <time>2021-10-02T08:38:08Z</time>
      </trkpt>
      <trkpt lat="42.91609" lon="0.30979">
        <ele>1602.2</ele>
        <time>2021-10-02T08:38:11Z</time>
      </trkpt>
      <trkpt lat="42.91608" lon="0.3098">
        <ele>1602.4</ele>
        <time>2021-10-02T08:38:12Z</time>
      </trkpt>
      <trkpt lat="42.91604" lon="0.30985">
        <ele>1602.2</ele>
        <time>2021-10-02T08:38:15Z</time>
      </trkpt>
      <trkpt lat="42.91594" lon="0.31003">
        <ele>1602.2</ele>
        <time>2021-10-02T08:38:22Z</time>
      </trkpt>
      <trkpt lat="42.91593" lon="0.31007">
        <ele>1602.2</ele>
        <time>2021-10-02T08:38:23Z</time>
      </trkpt>
      <trkpt lat="42.91584" lon="0.31022">
        <ele>1602</ele>
        <time>2021-10-02T08:38:28Z</time>
      </trkpt>
      <trkpt lat="42.91581" lon="0.31023">
        <ele>1602</ele>
        <time>2021-10-02T08:38:29Z</time>
      </trkpt>
      <trkpt lat="42.91572" lon="0.31022">
        <ele>1601.4</ele>
        <time>2021-10-02T08:38:32Z</time>
      </trkpt>
      <trkpt lat="42.9157" lon="0.31023">
        <ele>1601.4</ele>
        <time>2021-10-02T08:38:33Z</time>
      </trkpt>
      <trkpt lat="42.91568" lon="0.31023">
        <ele>1601.4</ele>
        <time>2021-10-02T08:38:34Z</time>
      </trkpt>
      <trkpt lat="42.91566" lon="0.31024">
        <ele>1601.4</ele>
        <time>2021-10-02T08:38:35Z</time>
      </trkpt>
      <trkpt lat="42.91564" lon="0.31025">
        <ele>1601.4</ele>
        <time>2021-10-02T08:38:36Z</time>
      </trkpt>
      <trkpt lat="42.91561" lon="0.31025">
        <ele>1601.4</ele>
        <time>2021-10-02T08:38:37Z</time>
      </trkpt>
      <trkpt lat="42.91559" lon="0.31026">
        <ele>1601.4</ele>
        <time>2021-10-02T08:38:38Z</time>
      </trkpt>
      <trkpt lat="42.91557" lon="0.31026">
        <ele>1601.4</ele>
        <time>2021-10-02T08:38:39Z</time>
      </trkpt>
      <trkpt lat="42.91555" lon="0.31027">
        <ele>1601.4</ele>
        <time>2021-10-02T08:38:40Z</time>
      </trkpt>
      <trkpt lat="42.91552" lon="0.31027">
        <ele>1601.4</ele>
        <time>2021-10-02T08:38:41Z</time>
      </trkpt>
      <trkpt lat="42.9155" lon="0.31027">
        <ele>1601.4</ele>
        <time>2021-10-02T08:38:42Z</time>
      </trkpt>
      <trkpt lat="42.91548" lon="0.31028">
        <ele>1601.4</ele>
        <time>2021-10-02T08:38:43Z</time>
      </trkpt>
      <trkpt lat="42.91546" lon="0.31028">
        <ele>1601.4</ele>
        <time>2021-10-02T08:38:44Z</time>
      </trkpt>
      <trkpt lat="42.91543" lon="0.31028">
        <ele>1601.4</ele>
        <time>2021-10-02T08:38:45Z</time>
      </trkpt>
      <trkpt lat="42.91538" lon="0.3103">
        <ele>1601.4</ele>
        <time>2021-10-02T08:38:47Z</time>
      </trkpt>
      <trkpt lat="42.91534" lon="0.31031">
        <ele>1601.2</ele>
        <time>2021-10-02T08:38:49Z</time>
      </trkpt>
      <trkpt lat="42.91516" lon="0.31034">
        <ele>1601.2</ele>
        <time>2021-10-02T08:38:56Z</time>
      </trkpt>
      <trkpt lat="42.91493" lon="0.31037">
        <ele>1601</ele>
        <time>2021-10-02T08:39:04Z</time>
      </trkpt>
      <trkpt lat="42.9147" lon="0.31038">
        <ele>1600.6</ele>
        <time>2021-10-02T08:39:12Z</time>
      </trkpt>
      <trkpt lat="42.9145" lon="0.31035">
        <ele>1600.2</ele>
        <time>2021-10-02T08:39:19Z</time>
      </trkpt>
      <trkpt lat="42.91448" lon="0.31035">
        <ele>1600.2</ele>
        <time>2021-10-02T08:39:20Z</time>
      </trkpt>
      <trkpt lat="42.91445" lon="0.31035">
        <ele>1600.2</ele>
        <time>2021-10-02T08:39:21Z</time>
      </trkpt>
      <trkpt lat="42.91443" lon="0.31035">
        <ele>1600.2</ele>
        <time>2021-10-02T08:39:22Z</time>
      </trkpt>
      <trkpt lat="42.9144" lon="0.31035">
        <ele>1600.2</ele>
        <time>2021-10-02T08:39:23Z</time>
      </trkpt>
      <trkpt lat="42.91438" lon="0.31035">
        <ele>1600.2</ele>
        <time>2021-10-02T08:39:24Z</time>
      </trkpt>
      <trkpt lat="42.91436" lon="0.31034">
        <ele>1600.2</ele>
        <time>2021-10-02T08:39:25Z</time>
      </trkpt>
      <trkpt lat="42.91433" lon="0.31034">
        <ele>1600.2</ele>
        <time>2021-10-02T08:39:26Z</time>
      </trkpt>
      <trkpt lat="42.91431" lon="0.31033">
        <ele>1600.2</ele>
        <time>2021-10-02T08:39:27Z</time>
      </trkpt>
      <trkpt lat="42.91429" lon="0.31032">
        <ele>1600.2</ele>
        <time>2021-10-02T08:39:28Z</time>
      </trkpt>
      <trkpt lat="42.91428" lon="0.31032">
        <ele>1600.2</ele>
        <time>2021-10-02T08:39:29Z</time>
      </trkpt>
      <trkpt lat="42.91427" lon="0.31032">
        <ele>1600</ele>
        <time>2021-10-02T08:39:30Z</time>
      </trkpt>
      <trkpt lat="42.91427" lon="0.31032">
        <ele>1600</ele>
        <time>2021-10-02T08:39:31Z</time>
      </trkpt>
      <trkpt lat="42.91426" lon="0.31032">
        <ele>1600</ele>
        <time>2021-10-02T08:39:32Z</time>
      </trkpt>
      <trkpt lat="42.91424" lon="0.31031">
        <ele>1600</ele>
        <time>2021-10-02T08:39:33Z</time>
      </trkpt>
      <trkpt lat="42.91419" lon="0.31028">
        <ele>1599.8</ele>
        <time>2021-10-02T08:39:36Z</time>
      </trkpt>
      <trkpt lat="42.91414" lon="0.31025">
        <ele>1599.8</ele>
        <time>2021-10-02T08:39:39Z</time>
      </trkpt>
      <trkpt lat="42.91413" lon="0.31023">
        <ele>1599.8</ele>
        <time>2021-10-02T08:39:40Z</time>
      </trkpt>
      <trkpt lat="42.91406" lon="0.31017">
        <ele>1599.6</ele>
        <time>2021-10-02T08:39:43Z</time>
      </trkpt>
      <trkpt lat="42.91401" lon="0.31013">
        <ele>1599</ele>
        <time>2021-10-02T08:39:45Z</time>
      </trkpt>
      <trkpt lat="42.91398" lon="0.31011">
        <ele>1598.8</ele>
        <time>2021-10-02T08:39:46Z</time>
      </trkpt>
      <trkpt lat="42.91389" lon="0.31005">
        <ele>1597.6</ele>
        <time>2021-10-02T08:39:49Z</time>
      </trkpt>
      <trkpt lat="42.91375" lon="0.30997">
        <ele>1596.6</ele>
        <time>2021-10-02T08:39:53Z</time>
      </trkpt>
      <trkpt lat="42.91372" lon="0.30994">
        <ele>1596.6</ele>
        <time>2021-10-02T08:39:54Z</time>
      </trkpt>
      <trkpt lat="42.91365" lon="0.30988">
        <ele>1595.8</ele>
        <time>2021-10-02T08:39:56Z</time>
      </trkpt>
      <trkpt lat="42.91356" lon="0.3098">
        <ele>1595.4</ele>
        <time>2021-10-02T08:39:58Z</time>
      </trkpt>
      <trkpt lat="42.91353" lon="0.30975">
        <ele>1595.4</ele>
        <time>2021-10-02T08:39:59Z</time>
      </trkpt>
      <trkpt lat="42.9135" lon="0.30971">
        <ele>1595.4</ele>
        <time>2021-10-02T08:40:00Z</time>
      </trkpt>
      <trkpt lat="42.91347" lon="0.30967">
        <ele>1595.2</ele>
        <time>2021-10-02T08:40:01Z</time>
      </trkpt>
      <trkpt lat="42.91345" lon="0.30965">
        <ele>1595</ele>
        <time>2021-10-02T08:40:02Z</time>
      </trkpt>
      <trkpt lat="42.91344" lon="0.30962">
        <ele>1594.6</ele>
        <time>2021-10-02T08:40:03Z</time>
      </trkpt>
      <trkpt lat="42.91343" lon="0.3096">
        <ele>1594.4</ele>
        <time>2021-10-02T08:40:04Z</time>
      </trkpt>
      <trkpt lat="42.91342" lon="0.30957">
        <ele>1594.2</ele>
        <time>2021-10-02T08:40:05Z</time>
      </trkpt>
      <trkpt lat="42.9134" lon="0.30954">
        <ele>1593.8</ele>
        <time>2021-10-02T08:40:06Z</time>
      </trkpt>
      <trkpt lat="42.91339" lon="0.30952">
        <ele>1593.6</ele>
        <time>2021-10-02T08:40:07Z</time>
      </trkpt>
      <trkpt lat="42.91338" lon="0.30952">
        <ele>1593.2</ele>
        <time>2021-10-02T08:40:08Z</time>
      </trkpt>
      <trkpt lat="42.91338" lon="0.30951">
        <ele>1593</ele>
        <time>2021-10-02T08:40:09Z</time>
      </trkpt>
      <trkpt lat="42.91338" lon="0.30951">
        <ele>1592.6</ele>
        <time>2021-10-02T08:40:10Z</time>
      </trkpt>
      <trkpt lat="42.91338" lon="0.30951">
        <ele>1592.6</ele>
        <time>2021-10-02T08:40:11Z</time>
      </trkpt>
      <trkpt lat="42.91336" lon="0.30949">
        <ele>1592.2</ele>
        <time>2021-10-02T08:40:14Z</time>
      </trkpt>
      <trkpt lat="42.91329" lon="0.30939">
        <ele>1592</ele>
        <time>2021-10-02T08:40:19Z</time>
      </trkpt>
      <trkpt lat="42.91325" lon="0.30931">
        <ele>1591.8</ele>
        <time>2021-10-02T08:40:22Z</time>
      </trkpt>
      <trkpt lat="42.91323" lon="0.30928">
        <ele>1591.8</ele>
        <time>2021-10-02T08:40:23Z</time>
      </trkpt>
      <trkpt lat="42.91322" lon="0.30925">
        <ele>1591.8</ele>
        <time>2021-10-02T08:40:24Z</time>
      </trkpt>
      <trkpt lat="42.9132" lon="0.30922">
        <ele>1591.6</ele>
        <time>2021-10-02T08:40:25Z</time>
      </trkpt>
      <trkpt lat="42.91317" lon="0.30918">
        <ele>1591.4</ele>
        <time>2021-10-02T08:40:27Z</time>
      </trkpt>
      <trkpt lat="42.91314" lon="0.30914">
        <ele>1591.2</ele>
        <time>2021-10-02T08:40:29Z</time>
      </trkpt>
      <trkpt lat="42.91313" lon="0.30912">
        <ele>1591.2</ele>
        <time>2021-10-02T08:40:30Z</time>
      </trkpt>
      <trkpt lat="42.91312" lon="0.3091">
        <ele>1591.2</ele>
        <time>2021-10-02T08:40:31Z</time>
      </trkpt>
      <trkpt lat="42.91311" lon="0.30908">
        <ele>1591.2</ele>
        <time>2021-10-02T08:40:32Z</time>
      </trkpt>
      <trkpt lat="42.9131" lon="0.30905">
        <ele>1591.2</ele>
        <time>2021-10-02T08:40:33Z</time>
      </trkpt>
      <trkpt lat="42.91309" lon="0.30903">
        <ele>1591.2</ele>
        <time>2021-10-02T08:40:34Z</time>
      </trkpt>
      <trkpt lat="42.91308" lon="0.309">
        <ele>1591.2</ele>
        <time>2021-10-02T08:40:35Z</time>
      </trkpt>
      <trkpt lat="42.91307" lon="0.30898">
        <ele>1591.2</ele>
        <time>2021-10-02T08:40:36Z</time>
      </trkpt>
      <trkpt lat="42.91306" lon="0.30896">
        <ele>1591.4</ele>
        <time>2021-10-02T08:40:37Z</time>
      </trkpt>
      <trkpt lat="42.91306" lon="0.30894">
        <ele>1591.6</ele>
        <time>2021-10-02T08:40:38Z</time>
      </trkpt>
      <trkpt lat="42.91305" lon="0.30893">
        <ele>1591.6</ele>
        <time>2021-10-02T08:40:39Z</time>
      </trkpt>
      <trkpt lat="42.91305" lon="0.30891">
        <ele>1591.8</ele>
        <time>2021-10-02T08:40:40Z</time>
      </trkpt>
      <trkpt lat="42.91304" lon="0.30888">
        <ele>1591.8</ele>
        <time>2021-10-02T08:40:41Z</time>
      </trkpt>
      <trkpt lat="42.91303" lon="0.30886">
        <ele>1592.2</ele>
        <time>2021-10-02T08:40:42Z</time>
      </trkpt>
      <trkpt lat="42.91303" lon="0.30884">
        <ele>1592.2</ele>
        <time>2021-10-02T08:40:43Z</time>
      </trkpt>
      <trkpt lat="42.91303" lon="0.30883">
        <ele>1592.6</ele>
        <time>2021-10-02T08:40:44Z</time>
      </trkpt>
      <trkpt lat="42.91302" lon="0.3088">
        <ele>1592.8</ele>
        <time>2021-10-02T08:40:45Z</time>
      </trkpt>
      <trkpt lat="42.91302" lon="0.30878">
        <ele>1593.4</ele>
        <time>2021-10-02T08:40:46Z</time>
      </trkpt>
      <trkpt lat="42.91301" lon="0.30876">
        <ele>1593.6</ele>
        <time>2021-10-02T08:40:47Z</time>
      </trkpt>
      <trkpt lat="42.91301" lon="0.30875">
        <ele>1593.8</ele>
        <time>2021-10-02T08:40:48Z</time>
      </trkpt>
      <trkpt lat="42.91301" lon="0.30873">
        <ele>1594</ele>
        <time>2021-10-02T08:40:49Z</time>
      </trkpt>
      <trkpt lat="42.91301" lon="0.30871">
        <ele>1594.2</ele>
        <time>2021-10-02T08:40:50Z</time>
      </trkpt>
      <trkpt lat="42.91301" lon="0.30864">
        <ele>1595.2</ele>
        <time>2021-10-02T08:40:53Z</time>
      </trkpt>
      <trkpt lat="42.91301" lon="0.30862">
        <ele>1595.2</ele>
        <time>2021-10-02T08:40:54Z</time>
      </trkpt>
      <trkpt lat="42.913" lon="0.3086">
        <ele>1595.4</ele>
        <time>2021-10-02T08:40:55Z</time>
      </trkpt>
      <trkpt lat="42.913" lon="0.30858">
        <ele>1595.6</ele>
        <time>2021-10-02T08:40:56Z</time>
      </trkpt>
      <trkpt lat="42.913" lon="0.30855">
        <ele>1595.8</ele>
        <time>2021-10-02T08:40:57Z</time>
      </trkpt>
      <trkpt lat="42.913" lon="0.30853">
        <ele>1596</ele>
        <time>2021-10-02T08:40:58Z</time>
      </trkpt>
      <trkpt lat="42.913" lon="0.30851">
        <ele>1596.2</ele>
        <time>2021-10-02T08:40:59Z</time>
      </trkpt>
      <trkpt lat="42.913" lon="0.30848">
        <ele>1596.2</ele>
        <time>2021-10-02T08:41:00Z</time>
      </trkpt>
      <trkpt lat="42.913" lon="0.30846">
        <ele>1596.6</ele>
        <time>2021-10-02T08:41:01Z</time>
      </trkpt>
      <trkpt lat="42.913" lon="0.30844">
        <ele>1596.6</ele>
        <time>2021-10-02T08:41:02Z</time>
      </trkpt>
      <trkpt lat="42.913" lon="0.30842">
        <ele>1596.8</ele>
        <time>2021-10-02T08:41:03Z</time>
      </trkpt>
      <trkpt lat="42.91299" lon="0.3084">
        <ele>1596.8</ele>
        <time>2021-10-02T08:41:04Z</time>
      </trkpt>
      <trkpt lat="42.91298" lon="0.30837">
        <ele>1597</ele>
        <time>2021-10-02T08:41:05Z</time>
      </trkpt>
      <trkpt lat="42.91298" lon="0.30835">
        <ele>1597</ele>
        <time>2021-10-02T08:41:06Z</time>
      </trkpt>
      <trkpt lat="42.91297" lon="0.30834">
        <ele>1597</ele>
        <time>2021-10-02T08:41:07Z</time>
      </trkpt>
      <trkpt lat="42.91297" lon="0.30832">
        <ele>1597.2</ele>
        <time>2021-10-02T08:41:08Z</time>
      </trkpt>
      <trkpt lat="42.91297" lon="0.30831">
        <ele>1597.2</ele>
        <time>2021-10-02T08:41:09Z</time>
      </trkpt>
      <trkpt lat="42.91297" lon="0.30831">
        <ele>1597.8</ele>
        <time>2021-10-02T08:41:10Z</time>
      </trkpt>
      <trkpt lat="42.91297" lon="0.30831">
        <ele>1597.8</ele>
        <time>2021-10-02T08:41:11Z</time>
      </trkpt>
      <trkpt lat="42.91296" lon="0.3083">
        <ele>1598.4</ele>
        <time>2021-10-02T08:41:13Z</time>
      </trkpt>
      <trkpt lat="42.91295" lon="0.30829">
        <ele>1598.8</ele>
        <time>2021-10-02T08:41:14Z</time>
      </trkpt>
      <trkpt lat="42.91295" lon="0.30828">
        <ele>1598.8</ele>
        <time>2021-10-02T08:41:15Z</time>
      </trkpt>
      <trkpt lat="42.91295" lon="0.30827">
        <ele>1599</ele>
        <time>2021-10-02T08:41:16Z</time>
      </trkpt>
      <trkpt lat="42.91294" lon="0.30825">
        <ele>1599</ele>
        <time>2021-10-02T08:41:17Z</time>
      </trkpt>
      <trkpt lat="42.91294" lon="0.30824">
        <ele>1599</ele>
        <time>2021-10-02T08:41:18Z</time>
      </trkpt>
      <trkpt lat="42.91294" lon="0.30822">
        <ele>1599</ele>
        <time>2021-10-02T08:41:19Z</time>
      </trkpt>
      <trkpt lat="42.91293" lon="0.30821">
        <ele>1599.2</ele>
        <time>2021-10-02T08:41:20Z</time>
      </trkpt>
      <trkpt lat="42.91292" lon="0.3082">
        <ele>1599.2</ele>
        <time>2021-10-02T08:41:21Z</time>
      </trkpt>
      <trkpt lat="42.91292" lon="0.30819">
        <ele>1599.4</ele>
        <time>2021-10-02T08:41:22Z</time>
      </trkpt>
      <trkpt lat="42.91291" lon="0.30819">
        <ele>1599.6</ele>
        <time>2021-10-02T08:41:23Z</time>
      </trkpt>
      <trkpt lat="42.91291" lon="0.30818">
        <ele>1599.6</ele>
        <time>2021-10-02T08:41:24Z</time>
      </trkpt>
      <trkpt lat="42.91291" lon="0.30817">
        <ele>1599.6</ele>
        <time>2021-10-02T08:41:25Z</time>
      </trkpt>
      <trkpt lat="42.91291" lon="0.30817">
        <ele>1599.8</ele>
        <time>2021-10-02T08:41:26Z</time>
      </trkpt>
      <trkpt lat="42.91291" lon="0.30816">
        <ele>1600</ele>
        <time>2021-10-02T08:41:27Z</time>
      </trkpt>
      <trkpt lat="42.91291" lon="0.30815">
        <ele>1600</ele>
        <time>2021-10-02T08:41:28Z</time>
      </trkpt>
      <trkpt lat="42.9129" lon="0.30814">
        <ele>1600</ele>
        <time>2021-10-02T08:41:29Z</time>
      </trkpt>
      <trkpt lat="42.9129" lon="0.30812">
        <ele>1600.2</ele>
        <time>2021-10-02T08:41:30Z</time>
      </trkpt>
      <trkpt lat="42.9129" lon="0.30811">
        <ele>1600.4</ele>
        <time>2021-10-02T08:41:31Z</time>
      </trkpt>
      <trkpt lat="42.91289" lon="0.3081">
        <ele>1600.4</ele>
        <time>2021-10-02T08:41:32Z</time>
      </trkpt>
      <trkpt lat="42.91289" lon="0.30809">
        <ele>1600.8</ele>
        <time>2021-10-02T08:41:33Z</time>
      </trkpt>
      <trkpt lat="42.91288" lon="0.30808">
        <ele>1600.8</ele>
        <time>2021-10-02T08:41:34Z</time>
      </trkpt>
      <trkpt lat="42.91288" lon="0.30807">
        <ele>1601</ele>
        <time>2021-10-02T08:41:35Z</time>
      </trkpt>
      <trkpt lat="42.91287" lon="0.30805">
        <ele>1601</ele>
        <time>2021-10-02T08:41:36Z</time>
      </trkpt>
      <trkpt lat="42.91287" lon="0.30803">
        <ele>1601.2</ele>
        <time>2021-10-02T08:41:37Z</time>
      </trkpt>
      <trkpt lat="42.91286" lon="0.30802">
        <ele>1601.2</ele>
        <time>2021-10-02T08:41:38Z</time>
      </trkpt>
      <trkpt lat="42.91286" lon="0.308">
        <ele>1601.4</ele>
        <time>2021-10-02T08:41:39Z</time>
      </trkpt>
      <trkpt lat="42.91285" lon="0.30799">
        <ele>1601.4</ele>
        <time>2021-10-02T08:41:40Z</time>
      </trkpt>
      <trkpt lat="42.91285" lon="0.30798">
        <ele>1601.6</ele>
        <time>2021-10-02T08:41:41Z</time>
      </trkpt>
      <trkpt lat="42.91284" lon="0.30797">
        <ele>1601.6</ele>
        <time>2021-10-02T08:41:42Z</time>
      </trkpt>
      <trkpt lat="42.91284" lon="0.30796">
        <ele>1601.6</ele>
        <time>2021-10-02T08:41:43Z</time>
      </trkpt>
      <trkpt lat="42.91283" lon="0.30794">
        <ele>1601.8</ele>
        <time>2021-10-02T08:41:44Z</time>
      </trkpt>
      <trkpt lat="42.91283" lon="0.30793">
        <ele>1602</ele>
        <time>2021-10-02T08:41:45Z</time>
      </trkpt>
      <trkpt lat="42.91282" lon="0.30793">
        <ele>1602</ele>
        <time>2021-10-02T08:41:46Z</time>
      </trkpt>
      <trkpt lat="42.91282" lon="0.30792">
        <ele>1602.2</ele>
        <time>2021-10-02T08:41:47Z</time>
      </trkpt>
      <trkpt lat="42.91281" lon="0.30791">
        <ele>1602.2</ele>
        <time>2021-10-02T08:41:48Z</time>
      </trkpt>
      <trkpt lat="42.91281" lon="0.3079">
        <ele>1602.4</ele>
        <time>2021-10-02T08:41:49Z</time>
      </trkpt>
      <trkpt lat="42.9128" lon="0.30789">
        <ele>1602.4</ele>
        <time>2021-10-02T08:41:50Z</time>
      </trkpt>
      <trkpt lat="42.9128" lon="0.30789">
        <ele>1602.4</ele>
        <time>2021-10-02T08:41:51Z</time>
      </trkpt>
      <trkpt lat="42.9128" lon="0.30788">
        <ele>1602.6</ele>
        <time>2021-10-02T08:41:52Z</time>
      </trkpt>
      <trkpt lat="42.9128" lon="0.30788">
        <ele>1602.6</ele>
        <time>2021-10-02T08:41:53Z</time>
      </trkpt>
      <trkpt lat="42.91279" lon="0.30788">
        <ele>1602.8</ele>
        <time>2021-10-02T08:41:54Z</time>
      </trkpt>
      <trkpt lat="42.91279" lon="0.30787">
        <ele>1602.8</ele>
        <time>2021-10-02T08:41:55Z</time>
      </trkpt>
      <trkpt lat="42.91278" lon="0.30786">
        <ele>1602.8</ele>
        <time>2021-10-02T08:41:56Z</time>
      </trkpt>
      <trkpt lat="42.91278" lon="0.30785">
        <ele>1602.8</ele>
        <time>2021-10-02T08:41:57Z</time>
      </trkpt>
      <trkpt lat="42.91277" lon="0.30785">
        <ele>1603</ele>
        <time>2021-10-02T08:41:58Z</time>
      </trkpt>
      <trkpt lat="42.91277" lon="0.30784">
        <ele>1603</ele>
        <time>2021-10-02T08:41:59Z</time>
      </trkpt>
      <trkpt lat="42.91275" lon="0.30782">
        <ele>1603</ele>
        <time>2021-10-02T08:42:01Z</time>
      </trkpt>
      <trkpt lat="42.91274" lon="0.30781">
        <ele>1603.4</ele>
        <time>2021-10-02T08:42:03Z</time>
      </trkpt>
      <trkpt lat="42.91271" lon="0.30778">
        <ele>1603.6</ele>
        <time>2021-10-02T08:42:06Z</time>
      </trkpt>
      <trkpt lat="42.9127" lon="0.30776">
        <ele>1603.8</ele>
        <time>2021-10-02T08:42:07Z</time>
      </trkpt>
      <trkpt lat="42.9127" lon="0.30776">
        <ele>1603.8</ele>
        <time>2021-10-02T08:42:08Z</time>
      </trkpt>
      <trkpt lat="42.91269" lon="0.30775">
        <ele>1603.8</ele>
        <time>2021-10-02T08:42:09Z</time>
      </trkpt>
      <trkpt lat="42.91268" lon="0.30774">
        <ele>1603.8</ele>
        <time>2021-10-02T08:42:10Z</time>
      </trkpt>
      <trkpt lat="42.91267" lon="0.30774">
        <ele>1604</ele>
        <time>2021-10-02T08:42:11Z</time>
      </trkpt>
      <trkpt lat="42.91266" lon="0.30774">
        <ele>1604</ele>
        <time>2021-10-02T08:42:12Z</time>
      </trkpt>
      <trkpt lat="42.91266" lon="0.30774">
        <ele>1604</ele>
        <time>2021-10-02T08:42:13Z</time>
      </trkpt>
      <trkpt lat="42.91266" lon="0.30774">
        <ele>1604.2</ele>
        <time>2021-10-02T08:42:14Z</time>
      </trkpt>
      <trkpt lat="42.91264" lon="0.30773">
        <ele>1604.4</ele>
        <time>2021-10-02T08:42:16Z</time>
      </trkpt>
      <trkpt lat="42.91264" lon="0.30772">
        <ele>1604.4</ele>
        <time>2021-10-02T08:42:17Z</time>
      </trkpt>
      <trkpt lat="42.91263" lon="0.30771">
        <ele>1604.6</ele>
        <time>2021-10-02T08:42:19Z</time>
      </trkpt>
      <trkpt lat="42.91259" lon="0.30768">
        <ele>1604.8</ele>
        <time>2021-10-02T08:42:24Z</time>
      </trkpt>
      <trkpt lat="42.91258" lon="0.30766">
        <ele>1604.8</ele>
        <time>2021-10-02T08:42:26Z</time>
      </trkpt>
      <trkpt lat="42.91256" lon="0.30764">
        <ele>1604.8</ele>
        <time>2021-10-02T08:42:28Z</time>
      </trkpt>
      <trkpt lat="42.91253" lon="0.30762">
        <ele>1604.8</ele>
        <time>2021-10-02T08:42:32Z</time>
      </trkpt>
      <trkpt lat="42.91253" lon="0.30762">
        <ele>1604.8</ele>
        <time>2021-10-02T08:42:33Z</time>
      </trkpt>
      <trkpt lat="42.91253" lon="0.30762">
        <ele>1605</ele>
        <time>2021-10-02T08:42:34Z</time>
      </trkpt>
      <trkpt lat="42.91252" lon="0.30763">
        <ele>1605.2</ele>
        <time>2021-10-02T08:42:36Z</time>
      </trkpt>
      <trkpt lat="42.91252" lon="0.30763">
        <ele>1605.2</ele>
        <time>2021-10-02T08:42:37Z</time>
      </trkpt>
      <trkpt lat="42.91249" lon="0.30762">
        <ele>1605.2</ele>
        <time>2021-10-02T08:42:40Z</time>
      </trkpt>
      <trkpt lat="42.91248" lon="0.30761">
        <ele>1605.4</ele>
        <time>2021-10-02T08:42:41Z</time>
      </trkpt>
      <trkpt lat="42.91247" lon="0.3076">
        <ele>1605.6</ele>
        <time>2021-10-02T08:42:43Z</time>
      </trkpt>
      <trkpt lat="42.91246" lon="0.30759">
        <ele>1605.6</ele>
        <time>2021-10-02T08:42:44Z</time>
      </trkpt>
      <trkpt lat="42.91246" lon="0.30758">
        <ele>1605.8</ele>
        <time>2021-10-02T08:42:45Z</time>
      </trkpt>
      <trkpt lat="42.91245" lon="0.30757">
        <ele>1605.8</ele>
        <time>2021-10-02T08:42:46Z</time>
      </trkpt>
      <trkpt lat="42.91243" lon="0.30754">
        <ele>1606</ele>
        <time>2021-10-02T08:42:49Z</time>
      </trkpt>
      <trkpt lat="42.91242" lon="0.30753">
        <ele>1606.2</ele>
        <time>2021-10-02T08:42:50Z</time>
      </trkpt>
      <trkpt lat="42.91239" lon="0.30751">
        <ele>1606.2</ele>
        <time>2021-10-02T08:42:53Z</time>
      </trkpt>
      <trkpt lat="42.91238" lon="0.30749">
        <ele>1606.2</ele>
        <time>2021-10-02T08:42:55Z</time>
      </trkpt>
      <trkpt lat="42.91238" lon="0.30748">
        <ele>1606.4</ele>
        <time>2021-10-02T08:42:56Z</time>
      </trkpt>
      <trkpt lat="42.91237" lon="0.30747">
        <ele>1606.4</ele>
        <time>2021-10-02T08:42:57Z</time>
      </trkpt>
      <trkpt lat="42.91236" lon="0.30741">
        <ele>1606.4</ele>
        <time>2021-10-02T08:43:01Z</time>
      </trkpt>
      <trkpt lat="42.91235" lon="0.30739">
        <ele>1606.4</ele>
        <time>2021-10-02T08:43:02Z</time>
      </trkpt>
      <trkpt lat="42.91234" lon="0.30738">
        <ele>1606.2</ele>
        <time>2021-10-02T08:43:03Z</time>
      </trkpt>
      <trkpt lat="42.91233" lon="0.30736">
        <ele>1606.2</ele>
        <time>2021-10-02T08:43:04Z</time>
      </trkpt>
      <trkpt lat="42.91231" lon="0.3073">
        <ele>1606.2</ele>
        <time>2021-10-02T08:43:09Z</time>
      </trkpt>
      <trkpt lat="42.9123" lon="0.30729">
        <ele>1606.2</ele>
        <time>2021-10-02T08:43:10Z</time>
      </trkpt>
      <trkpt lat="42.9123" lon="0.30728">
        <ele>1606.2</ele>
        <time>2021-10-02T08:43:11Z</time>
      </trkpt>
      <trkpt lat="42.91229" lon="0.30726">
        <ele>1606.2</ele>
        <time>2021-10-02T08:43:12Z</time>
      </trkpt>
      <trkpt lat="42.91228" lon="0.30725">
        <ele>1606.4</ele>
        <time>2021-10-02T08:43:13Z</time>
      </trkpt>
      <trkpt lat="42.91227" lon="0.30722">
        <ele>1606.4</ele>
        <time>2021-10-02T08:43:15Z</time>
      </trkpt>
      <trkpt lat="42.91227" lon="0.30721">
        <ele>1606.4</ele>
        <time>2021-10-02T08:43:16Z</time>
      </trkpt>
      <trkpt lat="42.91226" lon="0.3072">
        <ele>1606.6</ele>
        <time>2021-10-02T08:43:17Z</time>
      </trkpt>
      <trkpt lat="42.91225" lon="0.30717">
        <ele>1606.8</ele>
        <time>2021-10-02T08:43:19Z</time>
      </trkpt>
      <trkpt lat="42.91225" lon="0.30716">
        <ele>1606.8</ele>
        <time>2021-10-02T08:43:20Z</time>
      </trkpt>
      <trkpt lat="42.91225" lon="0.30716">
        <ele>1607</ele>
        <time>2021-10-02T08:43:21Z</time>
      </trkpt>
      <trkpt lat="42.91224" lon="0.30715">
        <ele>1607.2</ele>
        <time>2021-10-02T08:43:22Z</time>
      </trkpt>
      <trkpt lat="42.91224" lon="0.30714">
        <ele>1607.2</ele>
        <time>2021-10-02T08:43:23Z</time>
      </trkpt>
      <trkpt lat="42.91223" lon="0.30714">
        <ele>1607.2</ele>
        <time>2021-10-02T08:43:24Z</time>
      </trkpt>
      <trkpt lat="42.91223" lon="0.30713">
        <ele>1607.4</ele>
        <time>2021-10-02T08:43:27Z</time>
      </trkpt>
      <trkpt lat="42.91223" lon="0.30713">
        <ele>1607.4</ele>
        <time>2021-10-02T08:43:28Z</time>
      </trkpt>
      <trkpt lat="42.91222" lon="0.30713">
        <ele>1607.4</ele>
        <time>2021-10-02T08:43:29Z</time>
      </trkpt>
      <trkpt lat="42.91221" lon="0.30712">
        <ele>1607.4</ele>
        <time>2021-10-02T08:43:30Z</time>
      </trkpt>
      <trkpt lat="42.91221" lon="0.30711">
        <ele>1607.6</ele>
        <time>2021-10-02T08:43:31Z</time>
      </trkpt>
      <trkpt lat="42.9122" lon="0.30711">
        <ele>1607.6</ele>
        <time>2021-10-02T08:43:33Z</time>
      </trkpt>
      <trkpt lat="42.91218" lon="0.30708">
        <ele>1607.6</ele>
        <time>2021-10-02T08:43:36Z</time>
      </trkpt>
      <trkpt lat="42.91218" lon="0.30707">
        <ele>1607.6</ele>
        <time>2021-10-02T08:43:37Z</time>
      </trkpt>
      <trkpt lat="42.91215" lon="0.30702">
        <ele>1608</ele>
        <time>2021-10-02T08:43:41Z</time>
      </trkpt>
      <trkpt lat="42.91213" lon="0.30699">
        <ele>1608</ele>
        <time>2021-10-02T08:43:44Z</time>
      </trkpt>
      <trkpt lat="42.91213" lon="0.30699">
        <ele>1608.2</ele>
        <time>2021-10-02T08:43:45Z</time>
      </trkpt>
      <trkpt lat="42.91212" lon="0.30698">
        <ele>1608.2</ele>
        <time>2021-10-02T08:43:46Z</time>
      </trkpt>
      <trkpt lat="42.91211" lon="0.30696">
        <ele>1608.4</ele>
        <time>2021-10-02T08:43:48Z</time>
      </trkpt>
      <trkpt lat="42.9121" lon="0.30695">
        <ele>1608.2</ele>
        <time>2021-10-02T08:43:49Z</time>
      </trkpt>
      <trkpt lat="42.91209" lon="0.30695">
        <ele>1608.2</ele>
        <time>2021-10-02T08:43:50Z</time>
      </trkpt>
      <trkpt lat="42.91209" lon="0.30694">
        <ele>1608.2</ele>
        <time>2021-10-02T08:43:51Z</time>
      </trkpt>
      <trkpt lat="42.91208" lon="0.30693">
        <ele>1608.2</ele>
        <time>2021-10-02T08:43:52Z</time>
      </trkpt>
      <trkpt lat="42.91207" lon="0.30692">
        <ele>1608.2</ele>
        <time>2021-10-02T08:43:53Z</time>
      </trkpt>
      <trkpt lat="42.91206" lon="0.30691">
        <ele>1608.2</ele>
        <time>2021-10-02T08:43:54Z</time>
      </trkpt>
      <trkpt lat="42.91206" lon="0.30691">
        <ele>1608.2</ele>
        <time>2021-10-02T08:43:55Z</time>
      </trkpt>
      <trkpt lat="42.91205" lon="0.3069">
        <ele>1608.2</ele>
        <time>2021-10-02T08:43:57Z</time>
      </trkpt>
      <trkpt lat="42.91205" lon="0.3069">
        <ele>1608</ele>
        <time>2021-10-02T08:43:58Z</time>
      </trkpt>
      <trkpt lat="42.91204" lon="0.30689">
        <ele>1608</ele>
        <time>2021-10-02T08:43:59Z</time>
      </trkpt>
      <trkpt lat="42.91203" lon="0.30689">
        <ele>1608</ele>
        <time>2021-10-02T08:44:00Z</time>
      </trkpt>
      <trkpt lat="42.91203" lon="0.30689">
        <ele>1608</ele>
        <time>2021-10-02T08:44:01Z</time>
      </trkpt>
      <trkpt lat="42.91202" lon="0.30688">
        <ele>1608.2</ele>
        <time>2021-10-02T08:44:02Z</time>
      </trkpt>
      <trkpt lat="42.91198" lon="0.30686">
        <ele>1608.2</ele>
        <time>2021-10-02T08:44:06Z</time>
      </trkpt>
      <trkpt lat="42.91197" lon="0.30686">
        <ele>1608.2</ele>
        <time>2021-10-02T08:44:07Z</time>
      </trkpt>
      <trkpt lat="42.91197" lon="0.30686">
        <ele>1608.2</ele>
        <time>2021-10-02T08:44:08Z</time>
      </trkpt>
      <trkpt lat="42.91196" lon="0.30686">
        <ele>1608.2</ele>
        <time>2021-10-02T08:44:10Z</time>
      </trkpt>
      <trkpt lat="42.91193" lon="0.30684">
        <ele>1608.6</ele>
        <time>2021-10-02T08:44:14Z</time>
      </trkpt>
      <trkpt lat="42.91192" lon="0.30683">
        <ele>1608.6</ele>
        <time>2021-10-02T08:44:15Z</time>
      </trkpt>
      <trkpt lat="42.91191" lon="0.30682">
        <ele>1608.8</ele>
        <time>2021-10-02T08:44:16Z</time>
      </trkpt>
      <trkpt lat="42.91189" lon="0.30681">
        <ele>1608.8</ele>
        <time>2021-10-02T08:44:18Z</time>
      </trkpt>
      <trkpt lat="42.91188" lon="0.3068">
        <ele>1608.8</ele>
        <time>2021-10-02T08:44:19Z</time>
      </trkpt>
      <trkpt lat="42.91187" lon="0.3068">
        <ele>1609</ele>
        <time>2021-10-02T08:44:20Z</time>
      </trkpt>
      <trkpt lat="42.91186" lon="0.30678">
        <ele>1609</ele>
        <time>2021-10-02T08:44:23Z</time>
      </trkpt>
      <trkpt lat="42.91186" lon="0.30677">
        <ele>1609</ele>
        <time>2021-10-02T08:44:24Z</time>
      </trkpt>
      <trkpt lat="42.91186" lon="0.30676">
        <ele>1609</ele>
        <time>2021-10-02T08:44:25Z</time>
      </trkpt>
      <trkpt lat="42.91185" lon="0.30675">
        <ele>1609</ele>
        <time>2021-10-02T08:44:26Z</time>
      </trkpt>
      <trkpt lat="42.91185" lon="0.30674">
        <ele>1609</ele>
        <time>2021-10-02T08:44:27Z</time>
      </trkpt>
      <trkpt lat="42.91185" lon="0.30674">
        <ele>1608.8</ele>
        <time>2021-10-02T08:44:28Z</time>
      </trkpt>
      <trkpt lat="42.91185" lon="0.30674">
        <ele>1608.6</ele>
        <time>2021-10-02T08:44:29Z</time>
      </trkpt>
      <trkpt lat="42.91183" lon="0.30673">
        <ele>1608.4</ele>
        <time>2021-10-02T08:44:31Z</time>
      </trkpt>
      <trkpt lat="42.91181" lon="0.30673">
        <ele>1608</ele>
        <time>2021-10-02T08:44:32Z</time>
      </trkpt>
      <trkpt lat="42.91179" lon="0.30672">
        <ele>1608</ele>
        <time>2021-10-02T08:44:33Z</time>
      </trkpt>
      <trkpt lat="42.91177" lon="0.30672">
        <ele>1607.8</ele>
        <time>2021-10-02T08:44:37Z</time>
      </trkpt>
      <trkpt lat="42.91171" lon="0.3067">
        <ele>1607.6</ele>
        <time>2021-10-02T08:44:47Z</time>
      </trkpt>
      <trkpt lat="42.91158" lon="0.30666">
        <ele>1607.6</ele>
        <time>2021-10-02T08:44:53Z</time>
      </trkpt>
      <trkpt lat="42.91157" lon="0.30665">
        <ele>1607.4</ele>
        <time>2021-10-02T08:44:54Z</time>
      </trkpt>
      <trkpt lat="42.91155" lon="0.30664">
        <ele>1607.4</ele>
        <time>2021-10-02T08:44:55Z</time>
      </trkpt>
      <trkpt lat="42.91147" lon="0.30662">
        <ele>1607.4</ele>
        <time>2021-10-02T08:45:00Z</time>
      </trkpt>
      <trkpt lat="42.91146" lon="0.30662">
        <ele>1607.4</ele>
        <time>2021-10-02T08:45:01Z</time>
      </trkpt>
      <trkpt lat="42.91145" lon="0.30662">
        <ele>1607.4</ele>
        <time>2021-10-02T08:45:02Z</time>
      </trkpt>
      <trkpt lat="42.91144" lon="0.30661">
        <ele>1607.4</ele>
        <time>2021-10-02T08:45:03Z</time>
      </trkpt>
      <trkpt lat="42.91142" lon="0.30661">
        <ele>1607.4</ele>
        <time>2021-10-02T08:45:04Z</time>
      </trkpt>
      <trkpt lat="42.91139" lon="0.3066">
        <ele>1607.4</ele>
        <time>2021-10-02T08:45:06Z</time>
      </trkpt>
      <trkpt lat="42.91138" lon="0.30659">
        <ele>1607.4</ele>
        <time>2021-10-02T08:45:07Z</time>
      </trkpt>
      <trkpt lat="42.91132" lon="0.30657">
        <ele>1607.4</ele>
        <time>2021-10-02T08:45:10Z</time>
      </trkpt>
      <trkpt lat="42.91126" lon="0.30652">
        <ele>1607.8</ele>
        <time>2021-10-02T08:45:16Z</time>
      </trkpt>
      <trkpt lat="42.91125" lon="0.30652">
        <ele>1607.8</ele>
        <time>2021-10-02T08:45:17Z</time>
      </trkpt>
      <trkpt lat="42.91125" lon="0.30651">
        <ele>1607.8</ele>
        <time>2021-10-02T08:45:18Z</time>
      </trkpt>
      <trkpt lat="42.91124" lon="0.30651">
        <ele>1607.8</ele>
        <time>2021-10-02T08:45:19Z</time>
      </trkpt>
      <trkpt lat="42.91124" lon="0.30651">
        <ele>1607.8</ele>
        <time>2021-10-02T08:45:20Z</time>
      </trkpt>
      <trkpt lat="42.91123" lon="0.3065">
        <ele>1607.8</ele>
        <time>2021-10-02T08:45:21Z</time>
      </trkpt>
      <trkpt lat="42.91122" lon="0.3065">
        <ele>1607.8</ele>
        <time>2021-10-02T08:45:22Z</time>
      </trkpt>
      <trkpt lat="42.91119" lon="0.30649">
        <ele>1607.8</ele>
        <time>2021-10-02T08:45:25Z</time>
      </trkpt>
      <trkpt lat="42.91107" lon="0.30642">
        <ele>1607.8</ele>
        <time>2021-10-02T08:45:33Z</time>
      </trkpt>
      <trkpt lat="42.9109" lon="0.30637">
        <ele>1607.4</ele>
        <time>2021-10-02T08:45:43Z</time>
      </trkpt>
      <trkpt lat="42.91088" lon="0.30636">
        <ele>1607.4</ele>
        <time>2021-10-02T08:45:44Z</time>
      </trkpt>
      <trkpt lat="42.91087" lon="0.30636">
        <ele>1607.2</ele>
        <time>2021-10-02T08:45:45Z</time>
      </trkpt>
      <trkpt lat="42.91085" lon="0.30635">
        <ele>1607.2</ele>
        <time>2021-10-02T08:45:46Z</time>
      </trkpt>
      <trkpt lat="42.91083" lon="0.30636">
        <ele>1607.2</ele>
        <time>2021-10-02T08:45:47Z</time>
      </trkpt>
      <trkpt lat="42.91081" lon="0.30635">
        <ele>1607.2</ele>
        <time>2021-10-02T08:45:48Z</time>
      </trkpt>
      <trkpt lat="42.91079" lon="0.30635">
        <ele>1607.2</ele>
        <time>2021-10-02T08:45:49Z</time>
      </trkpt>
      <trkpt lat="42.91075" lon="0.30635">
        <ele>1606.8</ele>
        <time>2021-10-02T08:45:52Z</time>
      </trkpt>
      <trkpt lat="42.91071" lon="0.30634">
        <ele>1606.6</ele>
        <time>2021-10-02T08:45:55Z</time>
      </trkpt>
      <trkpt lat="42.9107" lon="0.30634">
        <ele>1606.6</ele>
        <time>2021-10-02T08:45:56Z</time>
      </trkpt>
      <trkpt lat="42.91068" lon="0.30633">
        <ele>1606.6</ele>
        <time>2021-10-02T08:45:57Z</time>
      </trkpt>
      <trkpt lat="42.91066" lon="0.30632">
        <ele>1606.4</ele>
        <time>2021-10-02T08:45:58Z</time>
      </trkpt>
      <trkpt lat="42.91063" lon="0.30632">
        <ele>1606.4</ele>
        <time>2021-10-02T08:45:59Z</time>
      </trkpt>
      <trkpt lat="42.91062" lon="0.30632">
        <ele>1606.4</ele>
        <time>2021-10-02T08:46:00Z</time>
      </trkpt>
      <trkpt lat="42.91059" lon="0.30631">
        <ele>1606.2</ele>
        <time>2021-10-02T08:46:01Z</time>
      </trkpt>
      <trkpt lat="42.91054" lon="0.3063">
        <ele>1606</ele>
        <time>2021-10-02T08:46:03Z</time>
      </trkpt>
      <trkpt lat="42.91051" lon="0.30629">
        <ele>1605.8</ele>
        <time>2021-10-02T08:46:05Z</time>
      </trkpt>
      <trkpt lat="42.91038" lon="0.30628">
        <ele>1605</ele>
        <time>2021-10-02T08:46:11Z</time>
      </trkpt>
      <trkpt lat="42.91036" lon="0.30628">
        <ele>1605</ele>
        <time>2021-10-02T08:46:12Z</time>
      </trkpt>
      <trkpt lat="42.91017" lon="0.30633">
        <ele>1604.4</ele>
        <time>2021-10-02T08:46:20Z</time>
      </trkpt>
      <trkpt lat="42.91016" lon="0.30633">
        <ele>1604.4</ele>
        <time>2021-10-02T08:46:21Z</time>
      </trkpt>
      <trkpt lat="42.91014" lon="0.30633">
        <ele>1604.2</ele>
        <time>2021-10-02T08:46:22Z</time>
      </trkpt>
      <trkpt lat="42.91013" lon="0.30633">
        <ele>1604.2</ele>
        <time>2021-10-02T08:46:23Z</time>
      </trkpt>
      <trkpt lat="42.91011" lon="0.30633">
        <ele>1604.2</ele>
        <time>2021-10-02T08:46:24Z</time>
      </trkpt>
      <trkpt lat="42.91009" lon="0.30634">
        <ele>1604.2</ele>
        <time>2021-10-02T08:46:25Z</time>
      </trkpt>
      <trkpt lat="42.91007" lon="0.30634">
        <ele>1604.2</ele>
        <time>2021-10-02T08:46:26Z</time>
      </trkpt>
      <trkpt lat="42.91" lon="0.30637">
        <ele>1604</ele>
        <time>2021-10-02T08:46:29Z</time>
      </trkpt>
      <trkpt lat="42.9099" lon="0.30641">
        <ele>1604</ele>
        <time>2021-10-02T08:46:35Z</time>
      </trkpt>
      <trkpt lat="42.90986" lon="0.30641">
        <ele>1604</ele>
        <time>2021-10-02T08:46:37Z</time>
      </trkpt>
      <trkpt lat="42.90985" lon="0.30642">
        <ele>1604</ele>
        <time>2021-10-02T08:46:38Z</time>
      </trkpt>
      <trkpt lat="42.90983" lon="0.30643">
        <ele>1604</ele>
        <time>2021-10-02T08:46:39Z</time>
      </trkpt>
      <trkpt lat="42.9098" lon="0.30644">
        <ele>1604</ele>
        <time>2021-10-02T08:46:40Z</time>
      </trkpt>
      <trkpt lat="42.90977" lon="0.30645">
        <ele>1604</ele>
        <time>2021-10-02T08:46:42Z</time>
      </trkpt>
      <trkpt lat="42.90975" lon="0.30646">
        <ele>1604</ele>
        <time>2021-10-02T08:46:43Z</time>
      </trkpt>
      <trkpt lat="42.90971" lon="0.30648">
        <ele>1604.2</ele>
        <time>2021-10-02T08:46:47Z</time>
      </trkpt>
      <trkpt lat="42.90971" lon="0.30648">
        <ele>1604.2</ele>
        <time>2021-10-02T08:46:49Z</time>
      </trkpt>
      <trkpt lat="42.90965" lon="0.3065">
        <ele>1604.2</ele>
        <time>2021-10-02T08:46:54Z</time>
      </trkpt>
      <trkpt lat="42.90954" lon="0.30653">
        <ele>1604.2</ele>
        <time>2021-10-02T08:46:59Z</time>
      </trkpt>
      <trkpt lat="42.90947" lon="0.30655">
        <ele>1604</ele>
        <time>2021-10-02T08:47:02Z</time>
      </trkpt>
      <trkpt lat="42.90936" lon="0.30659">
        <ele>1603.8</ele>
        <time>2021-10-02T08:47:07Z</time>
      </trkpt>
      <trkpt lat="42.90934" lon="0.30659">
        <ele>1603.6</ele>
        <time>2021-10-02T08:47:08Z</time>
      </trkpt>
      <trkpt lat="42.90932" lon="0.3066">
        <ele>1603.4</ele>
        <time>2021-10-02T08:47:09Z</time>
      </trkpt>
      <trkpt lat="42.90929" lon="0.30661">
        <ele>1603.4</ele>
        <time>2021-10-02T08:47:10Z</time>
      </trkpt>
      <trkpt lat="42.90913" lon="0.30665">
        <ele>1603.2</ele>
        <time>2021-10-02T08:47:15Z</time>
      </trkpt>
      <trkpt lat="42.90902" lon="0.30671">
        <ele>1602.8</ele>
        <time>2021-10-02T08:47:18Z</time>
      </trkpt>
      <trkpt lat="42.90899" lon="0.30673">
        <ele>1602.8</ele>
        <time>2021-10-02T08:47:19Z</time>
      </trkpt>
      <trkpt lat="42.90895" lon="0.30675">
        <ele>1602.6</ele>
        <time>2021-10-02T08:47:20Z</time>
      </trkpt>
      <trkpt lat="42.90871" lon="0.30677">
        <ele>1602.2</ele>
        <time>2021-10-02T08:47:27Z</time>
      </trkpt>
      <trkpt lat="42.90865" lon="0.30677">
        <ele>1602.2</ele>
        <time>2021-10-02T08:47:29Z</time>
      </trkpt>
      <trkpt lat="42.90862" lon="0.30677">
        <ele>1602</ele>
        <time>2021-10-02T08:47:30Z</time>
      </trkpt>
      <trkpt lat="42.90857" lon="0.30676">
        <ele>1601.6</ele>
        <time>2021-10-02T08:47:32Z</time>
      </trkpt>
      <trkpt lat="42.90855" lon="0.30676">
        <ele>1601.4</ele>
        <time>2021-10-02T08:47:33Z</time>
      </trkpt>
      <trkpt lat="42.90853" lon="0.30676">
        <ele>1601.2</ele>
        <time>2021-10-02T08:47:34Z</time>
      </trkpt>
      <trkpt lat="42.9085" lon="0.30676">
        <ele>1601.2</ele>
        <time>2021-10-02T08:47:35Z</time>
      </trkpt>
      <trkpt lat="42.90845" lon="0.30673">
        <ele>1600.8</ele>
        <time>2021-10-02T08:47:37Z</time>
      </trkpt>
      <trkpt lat="42.90843" lon="0.30671">
        <ele>1600.6</ele>
        <time>2021-10-02T08:47:38Z</time>
      </trkpt>
      <trkpt lat="42.9084" lon="0.30669">
        <ele>1600.6</ele>
        <time>2021-10-02T08:47:39Z</time>
      </trkpt>
      <trkpt lat="42.90834" lon="0.30664">
        <ele>1600.2</ele>
        <time>2021-10-02T08:47:41Z</time>
      </trkpt>
      <trkpt lat="42.90829" lon="0.30657">
        <ele>1599.4</ele>
        <time>2021-10-02T08:47:43Z</time>
      </trkpt>
      <trkpt lat="42.90826" lon="0.30653">
        <ele>1599.2</ele>
        <time>2021-10-02T08:47:44Z</time>
      </trkpt>
      <trkpt lat="42.90814" lon="0.30633">
        <ele>1598.6</ele>
        <time>2021-10-02T08:47:50Z</time>
      </trkpt>
      <trkpt lat="42.90812" lon="0.30631">
        <ele>1598.4</ele>
        <time>2021-10-02T08:47:51Z</time>
      </trkpt>
      <trkpt lat="42.90811" lon="0.30629">
        <ele>1598.4</ele>
        <time>2021-10-02T08:47:52Z</time>
      </trkpt>
      <trkpt lat="42.90809" lon="0.30627">
        <ele>1598.4</ele>
        <time>2021-10-02T08:47:53Z</time>
      </trkpt>
      <trkpt lat="42.90808" lon="0.30625">
        <ele>1598.4</ele>
        <time>2021-10-02T08:47:54Z</time>
      </trkpt>
      <trkpt lat="42.90806" lon="0.30621">
        <ele>1598.6</ele>
        <time>2021-10-02T08:47:56Z</time>
      </trkpt>
      <trkpt lat="42.90805" lon="0.30618">
        <ele>1598.6</ele>
        <time>2021-10-02T08:47:57Z</time>
      </trkpt>
      <trkpt lat="42.90803" lon="0.30616">
        <ele>1598.6</ele>
        <time>2021-10-02T08:47:58Z</time>
      </trkpt>
      <trkpt lat="42.90801" lon="0.30614">
        <ele>1598.6</ele>
        <time>2021-10-02T08:47:59Z</time>
      </trkpt>
      <trkpt lat="42.908" lon="0.30612">
        <ele>1598.8</ele>
        <time>2021-10-02T08:48:00Z</time>
      </trkpt>
      <trkpt lat="42.90788" lon="0.30595">
        <ele>1599</ele>
        <time>2021-10-02T08:48:08Z</time>
      </trkpt>
      <trkpt lat="42.90786" lon="0.30592">
        <ele>1599</ele>
        <time>2021-10-02T08:48:10Z</time>
      </trkpt>
      <trkpt lat="42.90786" lon="0.3059">
        <ele>1599.2</ele>
        <time>2021-10-02T08:48:11Z</time>
      </trkpt>
      <trkpt lat="42.90784" lon="0.30589">
        <ele>1599.2</ele>
        <time>2021-10-02T08:48:12Z</time>
      </trkpt>
      <trkpt lat="42.90784" lon="0.30588">
        <ele>1599.2</ele>
        <time>2021-10-02T08:48:13Z</time>
      </trkpt>
      <trkpt lat="42.90784" lon="0.30588">
        <ele>1599.2</ele>
        <time>2021-10-02T08:48:14Z</time>
      </trkpt>
      <trkpt lat="42.90784" lon="0.30588">
        <ele>1599.4</ele>
        <time>2021-10-02T08:48:15Z</time>
      </trkpt>
      <trkpt lat="42.9078" lon="0.30581">
        <ele>1600.4</ele>
        <time>2021-10-02T08:50:24Z</time>
      </trkpt>
      <trkpt lat="42.90772" lon="0.30562">
        <ele>1600.4</ele>
        <time>2021-10-02T08:50:30Z</time>
      </trkpt>
      <trkpt lat="42.9077" lon="0.30558">
        <ele>1600.4</ele>
        <time>2021-10-02T08:50:31Z</time>
      </trkpt>
      <trkpt lat="42.90768" lon="0.30555">
        <ele>1600.2</ele>
        <time>2021-10-02T08:50:32Z</time>
      </trkpt>
      <trkpt lat="42.90765" lon="0.30549">
        <ele>1599.8</ele>
        <time>2021-10-02T08:50:35Z</time>
      </trkpt>
      <trkpt lat="42.90763" lon="0.30547">
        <ele>1599.8</ele>
        <time>2021-10-02T08:50:36Z</time>
      </trkpt>
      <trkpt lat="42.90761" lon="0.30546">
        <ele>1599.6</ele>
        <time>2021-10-02T08:50:37Z</time>
      </trkpt>
      <trkpt lat="42.9076" lon="0.30544">
        <ele>1599.4</ele>
        <time>2021-10-02T08:50:38Z</time>
      </trkpt>
      <trkpt lat="42.90758" lon="0.30542">
        <ele>1599.2</ele>
        <time>2021-10-02T08:50:39Z</time>
      </trkpt>
      <trkpt lat="42.90756" lon="0.30541">
        <ele>1599</ele>
        <time>2021-10-02T08:50:40Z</time>
      </trkpt>
      <trkpt lat="42.90754" lon="0.3054">
        <ele>1598.8</ele>
        <time>2021-10-02T08:50:41Z</time>
      </trkpt>
      <trkpt lat="42.90749" lon="0.30538">
        <ele>1598.4</ele>
        <time>2021-10-02T08:50:43Z</time>
      </trkpt>
      <trkpt lat="42.90746" lon="0.30539">
        <ele>1598.2</ele>
        <time>2021-10-02T08:50:44Z</time>
      </trkpt>
      <trkpt lat="42.9074" lon="0.3054">
        <ele>1597.6</ele>
        <time>2021-10-02T08:50:46Z</time>
      </trkpt>
      <trkpt lat="42.90736" lon="0.30539">
        <ele>1597.2</ele>
        <time>2021-10-02T08:50:48Z</time>
      </trkpt>
      <trkpt lat="42.90734" lon="0.30539">
        <ele>1596.8</ele>
        <time>2021-10-02T08:50:49Z</time>
      </trkpt>
      <trkpt lat="42.90732" lon="0.30538">
        <ele>1596.6</ele>
        <time>2021-10-02T08:50:50Z</time>
      </trkpt>
      <trkpt lat="42.9073" lon="0.30537">
        <ele>1596.4</ele>
        <time>2021-10-02T08:50:51Z</time>
      </trkpt>
      <trkpt lat="42.90728" lon="0.30536">
        <ele>1596.4</ele>
        <time>2021-10-02T08:50:52Z</time>
      </trkpt>
      <trkpt lat="42.90726" lon="0.30535">
        <ele>1596.2</ele>
        <time>2021-10-02T08:50:53Z</time>
      </trkpt>
      <trkpt lat="42.90725" lon="0.30534">
        <ele>1596.2</ele>
        <time>2021-10-02T08:50:54Z</time>
      </trkpt>
      <trkpt lat="42.90724" lon="0.30534">
        <ele>1596</ele>
        <time>2021-10-02T08:50:55Z</time>
      </trkpt>
      <trkpt lat="42.90723" lon="0.30534">
        <ele>1595.8</ele>
        <time>2021-10-02T08:50:56Z</time>
      </trkpt>
      <trkpt lat="42.90723" lon="0.30534">
        <ele>1595.4</ele>
        <time>2021-10-02T08:50:57Z</time>
      </trkpt>
      <trkpt lat="42.90723" lon="0.30534">
        <ele>1595</ele>
        <time>2021-10-02T08:50:58Z</time>
      </trkpt>
      <trkpt lat="42.90723" lon="0.30533">
        <ele>1594.6</ele>
        <time>2021-10-02T08:50:59Z</time>
      </trkpt>
      <trkpt lat="42.90722" lon="0.30533">
        <ele>1594.2</ele>
        <time>2021-10-02T08:51:00Z</time>
      </trkpt>
      <trkpt lat="42.90721" lon="0.30532">
        <ele>1594</ele>
        <time>2021-10-02T08:51:01Z</time>
      </trkpt>
      <trkpt lat="42.90718" lon="0.3053">
        <ele>1593.8</ele>
        <time>2021-10-02T08:51:03Z</time>
      </trkpt>
      <trkpt lat="42.90716" lon="0.30529">
        <ele>1593.6</ele>
        <time>2021-10-02T08:51:04Z</time>
      </trkpt>
      <trkpt lat="42.90713" lon="0.30529">
        <ele>1593.4</ele>
        <time>2021-10-02T08:51:06Z</time>
      </trkpt>
      <trkpt lat="42.90712" lon="0.3053">
        <ele>1593.2</ele>
        <time>2021-10-02T08:51:07Z</time>
      </trkpt>
      <trkpt lat="42.90712" lon="0.3053">
        <ele>1592.8</ele>
        <time>2021-10-02T08:51:08Z</time>
      </trkpt>
      <trkpt lat="42.90712" lon="0.3053">
        <ele>1592.4</ele>
        <time>2021-10-02T08:51:09Z</time>
      </trkpt>
      <trkpt lat="42.90712" lon="0.3053">
        <ele>1591.6</ele>
        <time>2021-10-02T08:51:11Z</time>
      </trkpt>
      <trkpt lat="42.90709" lon="0.30531">
        <ele>1590.6</ele>
        <time>2021-10-02T08:51:15Z</time>
      </trkpt>
      <trkpt lat="42.90706" lon="0.30531">
        <ele>1590.4</ele>
        <time>2021-10-02T08:51:17Z</time>
      </trkpt>
      <trkpt lat="42.90704" lon="0.3053">
        <ele>1590.2</ele>
        <time>2021-10-02T08:51:19Z</time>
      </trkpt>
      <trkpt lat="42.90702" lon="0.3053">
        <ele>1590.2</ele>
        <time>2021-10-02T08:51:20Z</time>
      </trkpt>
      <trkpt lat="42.90693" lon="0.30529">
        <ele>1589.6</ele>
        <time>2021-10-02T08:51:24Z</time>
      </trkpt>
      <trkpt lat="42.90692" lon="0.30528">
        <ele>1589.2</ele>
        <time>2021-10-02T08:51:25Z</time>
      </trkpt>
      <trkpt lat="42.90688" lon="0.30527">
        <ele>1588.4</ele>
        <time>2021-10-02T08:51:27Z</time>
      </trkpt>
      <trkpt lat="42.90686" lon="0.30526">
        <ele>1588.4</ele>
        <time>2021-10-02T08:51:28Z</time>
      </trkpt>
      <trkpt lat="42.90683" lon="0.30527">
        <ele>1587</ele>
        <time>2021-10-02T08:51:30Z</time>
      </trkpt>
      <trkpt lat="42.90682" lon="0.30527">
        <ele>1586.8</ele>
        <time>2021-10-02T08:51:31Z</time>
      </trkpt>
      <trkpt lat="42.90682" lon="0.30527">
        <ele>1586.2</ele>
        <time>2021-10-02T08:51:32Z</time>
      </trkpt>
      <trkpt lat="42.9068" lon="0.30527">
        <ele>1585.8</ele>
        <time>2021-10-02T08:51:33Z</time>
      </trkpt>
      <trkpt lat="42.90675" lon="0.30526">
        <ele>1584.6</ele>
        <time>2021-10-02T08:51:36Z</time>
      </trkpt>
      <trkpt lat="42.90664" lon="0.30519">
        <ele>1584</ele>
        <time>2021-10-02T08:51:41Z</time>
      </trkpt>
      <trkpt lat="42.90662" lon="0.30516">
        <ele>1583.4</ele>
        <time>2021-10-02T08:51:42Z</time>
      </trkpt>
      <trkpt lat="42.9066" lon="0.30512">
        <ele>1583</ele>
        <time>2021-10-02T08:51:43Z</time>
      </trkpt>
      <trkpt lat="42.90659" lon="0.30509">
        <ele>1582.4</ele>
        <time>2021-10-02T08:51:44Z</time>
      </trkpt>
      <trkpt lat="42.90658" lon="0.30506">
        <ele>1582.2</ele>
        <time>2021-10-02T08:51:45Z</time>
      </trkpt>
      <trkpt lat="42.90656" lon="0.30504">
        <ele>1581.6</ele>
        <time>2021-10-02T08:51:46Z</time>
      </trkpt>
      <trkpt lat="42.90655" lon="0.30503">
        <ele>1581</ele>
        <time>2021-10-02T08:51:47Z</time>
      </trkpt>
      <trkpt lat="42.90654" lon="0.30502">
        <ele>1580.6</ele>
        <time>2021-10-02T08:51:48Z</time>
      </trkpt>
      <trkpt lat="42.90653" lon="0.30501">
        <ele>1579.8</ele>
        <time>2021-10-02T08:51:49Z</time>
      </trkpt>
      <trkpt lat="42.90651" lon="0.305">
        <ele>1579.2</ele>
        <time>2021-10-02T08:51:50Z</time>
      </trkpt>
      <trkpt lat="42.90649" lon="0.305">
        <ele>1578.4</ele>
        <time>2021-10-02T08:51:51Z</time>
      </trkpt>
      <trkpt lat="42.90646" lon="0.30497">
        <ele>1577.6</ele>
        <time>2021-10-02T08:51:53Z</time>
      </trkpt>
      <trkpt lat="42.90643" lon="0.30496">
        <ele>1577.4</ele>
        <time>2021-10-02T08:51:54Z</time>
      </trkpt>
      <trkpt lat="42.90639" lon="0.30493">
        <ele>1576.4</ele>
        <time>2021-10-02T08:51:56Z</time>
      </trkpt>
      <trkpt lat="42.90631" lon="0.3049">
        <ele>1575.4</ele>
        <time>2021-10-02T08:51:59Z</time>
      </trkpt>
      <trkpt lat="42.90626" lon="0.30489">
        <ele>1574.6</ele>
        <time>2021-10-02T08:52:01Z</time>
      </trkpt>
      <trkpt lat="42.90622" lon="0.30489">
        <ele>1573.4</ele>
        <time>2021-10-02T08:52:04Z</time>
      </trkpt>
      <trkpt lat="42.90621" lon="0.30489">
        <ele>1573</ele>
        <time>2021-10-02T08:52:05Z</time>
      </trkpt>
      <trkpt lat="42.9062" lon="0.30489">
        <ele>1572.4</ele>
        <time>2021-10-02T08:52:06Z</time>
      </trkpt>
      <trkpt lat="42.90618" lon="0.30488">
        <ele>1572.2</ele>
        <time>2021-10-02T08:52:07Z</time>
      </trkpt>
      <trkpt lat="42.90614" lon="0.30488">
        <ele>1571.8</ele>
        <time>2021-10-02T08:52:09Z</time>
      </trkpt>
      <trkpt lat="42.90612" lon="0.30488">
        <ele>1571.4</ele>
        <time>2021-10-02T08:52:10Z</time>
      </trkpt>
      <trkpt lat="42.9061" lon="0.30487">
        <ele>1571.2</ele>
        <time>2021-10-02T08:52:11Z</time>
      </trkpt>
      <trkpt lat="42.90603" lon="0.30486">
        <ele>1570.2</ele>
        <time>2021-10-02T08:52:14Z</time>
      </trkpt>
      <trkpt lat="42.90596" lon="0.30486">
        <ele>1569.4</ele>
        <time>2021-10-02T08:52:16Z</time>
      </trkpt>
      <trkpt lat="42.90588" lon="0.30484">
        <ele>1568.6</ele>
        <time>2021-10-02T08:52:18Z</time>
      </trkpt>
      <trkpt lat="42.90581" lon="0.30482">
        <ele>1568.2</ele>
        <time>2021-10-02T08:52:20Z</time>
      </trkpt>
      <trkpt lat="42.90578" lon="0.3048">
        <ele>1567.8</ele>
        <time>2021-10-02T08:52:21Z</time>
      </trkpt>
      <trkpt lat="42.90576" lon="0.30478">
        <ele>1567.2</ele>
        <time>2021-10-02T08:52:22Z</time>
      </trkpt>
      <trkpt lat="42.90567" lon="0.30472">
        <ele>1565.8</ele>
        <time>2021-10-02T08:52:25Z</time>
      </trkpt>
      <trkpt lat="42.90566" lon="0.30471">
        <ele>1565.6</ele>
        <time>2021-10-02T08:52:26Z</time>
      </trkpt>
      <trkpt lat="42.90564" lon="0.30469">
        <ele>1565</ele>
        <time>2021-10-02T08:52:27Z</time>
      </trkpt>
      <trkpt lat="42.90563" lon="0.30468">
        <ele>1564.6</ele>
        <time>2021-10-02T08:52:28Z</time>
      </trkpt>
      <trkpt lat="42.90561" lon="0.30468">
        <ele>1564.2</ele>
        <time>2021-10-02T08:52:29Z</time>
      </trkpt>
      <trkpt lat="42.90561" lon="0.30468">
        <ele>1563.8</ele>
        <time>2021-10-02T08:52:30Z</time>
      </trkpt>
      <trkpt lat="42.90561" lon="0.30468">
        <ele>1563.2</ele>
        <time>2021-10-02T08:52:31Z</time>
      </trkpt>
      <trkpt lat="42.90561" lon="0.30468">
        <ele>1562.8</ele>
        <time>2021-10-02T08:52:32Z</time>
      </trkpt>
      <trkpt lat="42.9056" lon="0.30468">
        <ele>1562.2</ele>
        <time>2021-10-02T08:52:34Z</time>
      </trkpt>
      <trkpt lat="42.9056" lon="0.30468">
        <ele>1561.2</ele>
        <time>2021-10-02T08:52:38Z</time>
      </trkpt>
      <trkpt lat="42.90559" lon="0.30468">
        <ele>1560.8</ele>
        <time>2021-10-02T08:52:41Z</time>
      </trkpt>
      <trkpt lat="42.90556" lon="0.30468">
        <ele>1560.2</ele>
        <time>2021-10-02T08:52:46Z</time>
      </trkpt>
      <trkpt lat="42.90554" lon="0.30468">
        <ele>1560.2</ele>
        <time>2021-10-02T08:52:47Z</time>
      </trkpt>
      <trkpt lat="42.90543" lon="0.30468">
        <ele>1559.6</ele>
        <time>2021-10-02T08:52:51Z</time>
      </trkpt>
      <trkpt lat="42.9054" lon="0.30469">
        <ele>1559.4</ele>
        <time>2021-10-02T08:52:52Z</time>
      </trkpt>
      <trkpt lat="42.90534" lon="0.3047">
        <ele>1559.2</ele>
        <time>2021-10-02T08:52:54Z</time>
      </trkpt>
      <trkpt lat="42.90531" lon="0.30471">
        <ele>1559</ele>
        <time>2021-10-02T08:52:55Z</time>
      </trkpt>
      <trkpt lat="42.90517" lon="0.30476">
        <ele>1558</ele>
        <time>2021-10-02T08:53:00Z</time>
      </trkpt>
      <trkpt lat="42.90508" lon="0.30478">
        <ele>1557.4</ele>
        <time>2021-10-02T08:53:03Z</time>
      </trkpt>
      <trkpt lat="42.90503" lon="0.3048">
        <ele>1556.8</ele>
        <time>2021-10-02T08:53:05Z</time>
      </trkpt>
      <trkpt lat="42.90495" lon="0.30485">
        <ele>1555.6</ele>
        <time>2021-10-02T08:53:08Z</time>
      </trkpt>
      <trkpt lat="42.90492" lon="0.30487">
        <ele>1555.2</ele>
        <time>2021-10-02T08:53:09Z</time>
      </trkpt>
      <trkpt lat="42.90485" lon="0.3049">
        <ele>1554.6</ele>
        <time>2021-10-02T08:53:11Z</time>
      </trkpt>
      <trkpt lat="42.9047" lon="0.30496">
        <ele>1553.8</ele>
        <time>2021-10-02T08:53:16Z</time>
      </trkpt>
      <trkpt lat="42.90467" lon="0.30496">
        <ele>1553.4</ele>
        <time>2021-10-02T08:53:17Z</time>
      </trkpt>
      <trkpt lat="42.90455" lon="0.30496">
        <ele>1552.4</ele>
        <time>2021-10-02T08:53:21Z</time>
      </trkpt>
      <trkpt lat="42.90453" lon="0.30496">
        <ele>1551.8</ele>
        <time>2021-10-02T08:53:22Z</time>
      </trkpt>
      <trkpt lat="42.90451" lon="0.30496">
        <ele>1551.4</ele>
        <time>2021-10-02T08:53:23Z</time>
      </trkpt>
      <trkpt lat="42.90449" lon="0.30497">
        <ele>1551</ele>
        <time>2021-10-02T08:53:24Z</time>
      </trkpt>
      <trkpt lat="42.90448" lon="0.30497">
        <ele>1550.6</ele>
        <time>2021-10-02T08:53:25Z</time>
      </trkpt>
      <trkpt lat="42.90447" lon="0.30496">
        <ele>1550</ele>
        <time>2021-10-02T08:53:26Z</time>
      </trkpt>
      <trkpt lat="42.90446" lon="0.30496">
        <ele>1549.8</ele>
        <time>2021-10-02T08:53:27Z</time>
      </trkpt>
      <trkpt lat="42.90445" lon="0.30496">
        <ele>1549.4</ele>
        <time>2021-10-02T08:53:28Z</time>
      </trkpt>
      <trkpt lat="42.90443" lon="0.30496">
        <ele>1549.2</ele>
        <time>2021-10-02T08:53:29Z</time>
      </trkpt>
      <trkpt lat="42.90438" lon="0.30497">
        <ele>1548.8</ele>
        <time>2021-10-02T08:53:31Z</time>
      </trkpt>
      <trkpt lat="42.90429" lon="0.30499">
        <ele>1547.8</ele>
        <time>2021-10-02T08:53:34Z</time>
      </trkpt>
      <trkpt lat="42.90426" lon="0.30499">
        <ele>1547.6</ele>
        <time>2021-10-02T08:53:35Z</time>
      </trkpt>
      <trkpt lat="42.90423" lon="0.30499">
        <ele>1547.2</ele>
        <time>2021-10-02T08:53:36Z</time>
      </trkpt>
      <trkpt lat="42.9042" lon="0.30498">
        <ele>1546.4</ele>
        <time>2021-10-02T08:53:37Z</time>
      </trkpt>
      <trkpt lat="42.90413" lon="0.30498">
        <ele>1545.4</ele>
        <time>2021-10-02T08:53:40Z</time>
      </trkpt>
      <trkpt lat="42.90409" lon="0.30498">
        <ele>1544.8</ele>
        <time>2021-10-02T08:53:41Z</time>
      </trkpt>
      <trkpt lat="42.90402" lon="0.30499">
        <ele>1544</ele>
        <time>2021-10-02T08:53:43Z</time>
      </trkpt>
      <trkpt lat="42.90397" lon="0.305">
        <ele>1543.2</ele>
        <time>2021-10-02T08:53:45Z</time>
      </trkpt>
      <trkpt lat="42.90395" lon="0.305">
        <ele>1542.8</ele>
        <time>2021-10-02T08:53:46Z</time>
      </trkpt>
      <trkpt lat="42.90393" lon="0.305">
        <ele>1542</ele>
        <time>2021-10-02T08:53:47Z</time>
      </trkpt>
      <trkpt lat="42.90391" lon="0.305">
        <ele>1541.6</ele>
        <time>2021-10-02T08:53:48Z</time>
      </trkpt>
      <trkpt lat="42.90389" lon="0.305">
        <ele>1541.4</ele>
        <time>2021-10-02T08:53:49Z</time>
      </trkpt>
      <trkpt lat="42.9038" lon="0.30504">
        <ele>1541</ele>
        <time>2021-10-02T08:53:53Z</time>
      </trkpt>
      <trkpt lat="42.90377" lon="0.30504">
        <ele>1540.6</ele>
        <time>2021-10-02T08:53:54Z</time>
      </trkpt>
      <trkpt lat="42.90367" lon="0.30507">
        <ele>1539.4</ele>
        <time>2021-10-02T08:53:57Z</time>
      </trkpt>
      <trkpt lat="42.90363" lon="0.30508">
        <ele>1538.8</ele>
        <time>2021-10-02T08:53:58Z</time>
      </trkpt>
      <trkpt lat="42.90357" lon="0.3051">
        <ele>1538.4</ele>
        <time>2021-10-02T08:54:00Z</time>
      </trkpt>
      <trkpt lat="42.90342" lon="0.30512">
        <ele>1537</ele>
        <time>2021-10-02T08:54:04Z</time>
      </trkpt>
      <trkpt lat="42.90333" lon="0.30514">
        <ele>1536.2</ele>
        <time>2021-10-02T08:54:07Z</time>
      </trkpt>
      <trkpt lat="42.9033" lon="0.30513">
        <ele>1535.2</ele>
        <time>2021-10-02T08:54:08Z</time>
      </trkpt>
      <trkpt lat="42.90328" lon="0.30513">
        <ele>1534.8</ele>
        <time>2021-10-02T08:54:09Z</time>
      </trkpt>
      <trkpt lat="42.90325" lon="0.30513">
        <ele>1534.4</ele>
        <time>2021-10-02T08:54:10Z</time>
      </trkpt>
      <trkpt lat="42.90323" lon="0.30513">
        <ele>1534.2</ele>
        <time>2021-10-02T08:54:11Z</time>
      </trkpt>
      <trkpt lat="42.90321" lon="0.30513">
        <ele>1533.8</ele>
        <time>2021-10-02T08:54:12Z</time>
      </trkpt>
      <trkpt lat="42.90319" lon="0.30514">
        <ele>1533.6</ele>
        <time>2021-10-02T08:54:13Z</time>
      </trkpt>
      <trkpt lat="42.90317" lon="0.30514">
        <ele>1533.6</ele>
        <time>2021-10-02T08:54:14Z</time>
      </trkpt>
      <trkpt lat="42.90315" lon="0.30515">
        <ele>1533.2</ele>
        <time>2021-10-02T08:54:15Z</time>
      </trkpt>
      <trkpt lat="42.90315" lon="0.30516">
        <ele>1533</ele>
        <time>2021-10-02T08:54:16Z</time>
      </trkpt>
      <trkpt lat="42.90314" lon="0.30518">
        <ele>1532.8</ele>
        <time>2021-10-02T08:54:17Z</time>
      </trkpt>
      <trkpt lat="42.90313" lon="0.3052">
        <ele>1532.6</ele>
        <time>2021-10-02T08:54:18Z</time>
      </trkpt>
      <trkpt lat="42.90312" lon="0.30522">
        <ele>1532.2</ele>
        <time>2021-10-02T08:54:19Z</time>
      </trkpt>
      <trkpt lat="42.90311" lon="0.30525">
        <ele>1532.2</ele>
        <time>2021-10-02T08:54:20Z</time>
      </trkpt>
      <trkpt lat="42.9031" lon="0.30527">
        <ele>1532.2</ele>
        <time>2021-10-02T08:54:21Z</time>
      </trkpt>
      <trkpt lat="42.90309" lon="0.30528">
        <ele>1532.2</ele>
        <time>2021-10-02T08:54:22Z</time>
      </trkpt>
      <trkpt lat="42.90308" lon="0.3053">
        <ele>1532</ele>
        <time>2021-10-02T08:54:23Z</time>
      </trkpt>
      <trkpt lat="42.90307" lon="0.30531">
        <ele>1532</ele>
        <time>2021-10-02T08:54:24Z</time>
      </trkpt>
      <trkpt lat="42.90306" lon="0.30532">
        <ele>1532</ele>
        <time>2021-10-02T08:54:25Z</time>
      </trkpt>
      <trkpt lat="42.90303" lon="0.30535">
        <ele>1532.4</ele>
        <time>2021-10-02T08:54:28Z</time>
      </trkpt>
      <trkpt lat="42.90303" lon="0.30535">
        <ele>1532.4</ele>
        <time>2021-10-02T08:54:29Z</time>
      </trkpt>
      <trkpt lat="42.90303" lon="0.30535">
        <ele>1532.8</ele>
        <time>2021-10-02T08:54:46Z</time>
      </trkpt>
      <trkpt lat="42.90303" lon="0.30535">
        <ele>1532.8</ele>
        <time>2021-10-02T08:55:08Z</time>
      </trkpt>
      <trkpt lat="42.90305" lon="0.30528">
        <ele>1532.6</ele>
        <time>2021-10-02T08:55:12Z</time>
      </trkpt>
      <trkpt lat="42.90305" lon="0.30527">
        <ele>1532.6</ele>
        <time>2021-10-02T08:55:13Z</time>
      </trkpt>
      <trkpt lat="42.90307" lon="0.30523">
        <ele>1532.4</ele>
        <time>2021-10-02T08:55:15Z</time>
      </trkpt>
      <trkpt lat="42.90308" lon="0.30521">
        <ele>1532.4</ele>
        <time>2021-10-02T08:55:16Z</time>
      </trkpt>
      <trkpt lat="42.90309" lon="0.3052">
        <ele>1532.4</ele>
        <time>2021-10-02T08:55:17Z</time>
      </trkpt>
      <trkpt lat="42.90311" lon="0.30516">
        <ele>1532.2</ele>
        <time>2021-10-02T08:55:19Z</time>
      </trkpt>
      <trkpt lat="42.90311" lon="0.30515">
        <ele>1532</ele>
        <time>2021-10-02T08:55:20Z</time>
      </trkpt>
      <trkpt lat="42.90311" lon="0.30514">
        <ele>1532</ele>
        <time>2021-10-02T08:55:21Z</time>
      </trkpt>
      <trkpt lat="42.90311" lon="0.30513">
        <ele>1531.8</ele>
        <time>2021-10-02T08:55:25Z</time>
      </trkpt>
      <trkpt lat="42.9031" lon="0.30514">
        <ele>1531.4</ele>
        <time>2021-10-02T08:55:28Z</time>
      </trkpt>
      <trkpt lat="42.9031" lon="0.30514">
        <ele>1531.4</ele>
        <time>2021-10-02T08:55:29Z</time>
      </trkpt>
      <trkpt lat="42.9031" lon="0.30514">
        <ele>1531.4</ele>
        <time>2021-10-02T08:55:30Z</time>
      </trkpt>
      <trkpt lat="42.9031" lon="0.30514">
        <ele>1531.4</ele>
        <time>2021-10-02T08:55:31Z</time>
      </trkpt>
      <trkpt lat="42.90309" lon="0.30514">
        <ele>1531.2</ele>
        <time>2021-10-02T08:55:32Z</time>
      </trkpt>
      <trkpt lat="42.90309" lon="0.30514">
        <ele>1531.2</ele>
        <time>2021-10-02T08:55:33Z</time>
      </trkpt>
      <trkpt lat="42.90307" lon="0.30514">
        <ele>1531.2</ele>
        <time>2021-10-02T08:55:34Z</time>
      </trkpt>
      <trkpt lat="42.90304" lon="0.30515">
        <ele>1531</ele>
        <time>2021-10-02T08:55:36Z</time>
      </trkpt>
      <trkpt lat="42.90302" lon="0.30514">
        <ele>1531</ele>
        <time>2021-10-02T08:55:37Z</time>
      </trkpt>
      <trkpt lat="42.90299" lon="0.30511">
        <ele>1530.8</ele>
        <time>2021-10-02T08:55:39Z</time>
      </trkpt>
      <trkpt lat="42.90297" lon="0.3051">
        <ele>1530.8</ele>
        <time>2021-10-02T08:55:40Z</time>
      </trkpt>
      <trkpt lat="42.90295" lon="0.30508">
        <ele>1530.6</ele>
        <time>2021-10-02T08:55:41Z</time>
      </trkpt>
      <trkpt lat="42.90294" lon="0.30507">
        <ele>1530.6</ele>
        <time>2021-10-02T08:55:42Z</time>
      </trkpt>
      <trkpt lat="42.90291" lon="0.30506">
        <ele>1530.6</ele>
        <time>2021-10-02T08:55:43Z</time>
      </trkpt>
      <trkpt lat="42.90287" lon="0.30506">
        <ele>1530.4</ele>
        <time>2021-10-02T08:55:45Z</time>
      </trkpt>
      <trkpt lat="42.90285" lon="0.30506">
        <ele>1530.4</ele>
        <time>2021-10-02T08:55:46Z</time>
      </trkpt>
      <trkpt lat="42.90284" lon="0.30507">
        <ele>1530.4</ele>
        <time>2021-10-02T08:55:47Z</time>
      </trkpt>
      <trkpt lat="42.90281" lon="0.30508">
        <ele>1530.6</ele>
        <time>2021-10-02T08:55:48Z</time>
      </trkpt>
      <trkpt lat="42.9028" lon="0.30508">
        <ele>1530.6</ele>
        <time>2021-10-02T08:55:49Z</time>
      </trkpt>
      <trkpt lat="42.90268" lon="0.30509">
        <ele>1531.6</ele>
        <time>2021-10-02T08:55:55Z</time>
      </trkpt>
      <trkpt lat="42.90249" lon="0.3051">
        <ele>1532.6</ele>
        <time>2021-10-02T08:56:05Z</time>
      </trkpt>
      <trkpt lat="42.90247" lon="0.30511">
        <ele>1532.6</ele>
        <time>2021-10-02T08:56:06Z</time>
      </trkpt>
      <trkpt lat="42.90245" lon="0.30511">
        <ele>1532.6</ele>
        <time>2021-10-02T08:56:07Z</time>
      </trkpt>
      <trkpt lat="42.90243" lon="0.30512">
        <ele>1532.6</ele>
        <time>2021-10-02T08:56:08Z</time>
      </trkpt>
      <trkpt lat="42.90242" lon="0.30512">
        <ele>1532.8</ele>
        <time>2021-10-02T08:56:09Z</time>
      </trkpt>
      <trkpt lat="42.90239" lon="0.30512">
        <ele>1533</ele>
        <time>2021-10-02T08:56:10Z</time>
      </trkpt>
      <trkpt lat="42.90238" lon="0.30512">
        <ele>1533.2</ele>
        <time>2021-10-02T08:56:11Z</time>
      </trkpt>
      <trkpt lat="42.90236" lon="0.30512">
        <ele>1533.2</ele>
        <time>2021-10-02T08:56:12Z</time>
      </trkpt>
      <trkpt lat="42.90235" lon="0.30513">
        <ele>1533.4</ele>
        <time>2021-10-02T08:56:13Z</time>
      </trkpt>
      <trkpt lat="42.90233" lon="0.30514">
        <ele>1533.6</ele>
        <time>2021-10-02T08:56:14Z</time>
      </trkpt>
      <trkpt lat="42.90229" lon="0.30516">
        <ele>1533.8</ele>
        <time>2021-10-02T08:56:16Z</time>
      </trkpt>
      <trkpt lat="42.90228" lon="0.30516">
        <ele>1534</ele>
        <time>2021-10-02T08:56:17Z</time>
      </trkpt>
      <trkpt lat="42.90226" lon="0.30517">
        <ele>1534.2</ele>
        <time>2021-10-02T08:56:18Z</time>
      </trkpt>
      <trkpt lat="42.90225" lon="0.30517">
        <ele>1534.2</ele>
        <time>2021-10-02T08:56:19Z</time>
      </trkpt>
      <trkpt lat="42.90223" lon="0.30518">
        <ele>1534.4</ele>
        <time>2021-10-02T08:56:20Z</time>
      </trkpt>
      <trkpt lat="42.90222" lon="0.3052">
        <ele>1534.4</ele>
        <time>2021-10-02T08:56:21Z</time>
      </trkpt>
      <trkpt lat="42.90219" lon="0.30522">
        <ele>1534.6</ele>
        <time>2021-10-02T08:56:23Z</time>
      </trkpt>
      <trkpt lat="42.90217" lon="0.30523">
        <ele>1534.6</ele>
        <time>2021-10-02T08:56:24Z</time>
      </trkpt>
      <trkpt lat="42.90215" lon="0.30525">
        <ele>1534.6</ele>
        <time>2021-10-02T08:56:25Z</time>
      </trkpt>
      <trkpt lat="42.90214" lon="0.30526">
        <ele>1535</ele>
        <time>2021-10-02T08:56:26Z</time>
      </trkpt>
      <trkpt lat="42.90212" lon="0.30527">
        <ele>1535</ele>
        <time>2021-10-02T08:56:27Z</time>
      </trkpt>
      <trkpt lat="42.90211" lon="0.30527">
        <ele>1535.2</ele>
        <time>2021-10-02T08:56:28Z</time>
      </trkpt>
      <trkpt lat="42.90209" lon="0.30528">
        <ele>1535.4</ele>
        <time>2021-10-02T08:56:29Z</time>
      </trkpt>
      <trkpt lat="42.90208" lon="0.30529">
        <ele>1535.4</ele>
        <time>2021-10-02T08:56:30Z</time>
      </trkpt>
      <trkpt lat="42.90207" lon="0.3053">
        <ele>1535.6</ele>
        <time>2021-10-02T08:56:31Z</time>
      </trkpt>
      <trkpt lat="42.90205" lon="0.30531">
        <ele>1535.6</ele>
        <time>2021-10-02T08:56:32Z</time>
      </trkpt>
      <trkpt lat="42.90204" lon="0.30532">
        <ele>1535.8</ele>
        <time>2021-10-02T08:56:33Z</time>
      </trkpt>
      <trkpt lat="42.90202" lon="0.30533">
        <ele>1535.8</ele>
        <time>2021-10-02T08:56:34Z</time>
      </trkpt>
      <trkpt lat="42.90201" lon="0.30534">
        <ele>1535.8</ele>
        <time>2021-10-02T08:56:35Z</time>
      </trkpt>
      <trkpt lat="42.90199" lon="0.30536">
        <ele>1535.8</ele>
        <time>2021-10-02T08:56:36Z</time>
      </trkpt>
      <trkpt lat="42.90198" lon="0.30537">
        <ele>1536</ele>
        <time>2021-10-02T08:56:37Z</time>
      </trkpt>
      <trkpt lat="42.90196" lon="0.30538">
        <ele>1536</ele>
        <time>2021-10-02T08:56:38Z</time>
      </trkpt>
      <trkpt lat="42.90195" lon="0.30538">
        <ele>1536</ele>
        <time>2021-10-02T08:56:39Z</time>
      </trkpt>
      <trkpt lat="42.90193" lon="0.30539">
        <ele>1536.2</ele>
        <time>2021-10-02T08:56:40Z</time>
      </trkpt>
      <trkpt lat="42.90191" lon="0.3054">
        <ele>1536.4</ele>
        <time>2021-10-02T08:56:41Z</time>
      </trkpt>
      <trkpt lat="42.90189" lon="0.30542">
        <ele>1536.4</ele>
        <time>2021-10-02T08:56:42Z</time>
      </trkpt>
      <trkpt lat="42.90188" lon="0.30544">
        <ele>1536.4</ele>
        <time>2021-10-02T08:56:43Z</time>
      </trkpt>
      <trkpt lat="42.90177" lon="0.30556">
        <ele>1536.6</ele>
        <time>2021-10-02T08:56:50Z</time>
      </trkpt>
      <trkpt lat="42.90163" lon="0.30563">
        <ele>1536.8</ele>
        <time>2021-10-02T08:56:57Z</time>
      </trkpt>
      <trkpt lat="42.90159" lon="0.30566">
        <ele>1536.8</ele>
        <time>2021-10-02T08:57:00Z</time>
      </trkpt>
      <trkpt lat="42.90158" lon="0.30567">
        <ele>1536.8</ele>
        <time>2021-10-02T08:57:01Z</time>
      </trkpt>
      <trkpt lat="42.90157" lon="0.30569">
        <ele>1536.8</ele>
        <time>2021-10-02T08:57:02Z</time>
      </trkpt>
      <trkpt lat="42.90155" lon="0.3057">
        <ele>1536.8</ele>
        <time>2021-10-02T08:57:03Z</time>
      </trkpt>
      <trkpt lat="42.90153" lon="0.30571">
        <ele>1536.8</ele>
        <time>2021-10-02T08:57:04Z</time>
      </trkpt>
      <trkpt lat="42.90152" lon="0.30573">
        <ele>1536.8</ele>
        <time>2021-10-02T08:57:05Z</time>
      </trkpt>
      <trkpt lat="42.9015" lon="0.30573">
        <ele>1536.8</ele>
        <time>2021-10-02T08:57:06Z</time>
      </trkpt>
      <trkpt lat="42.90148" lon="0.30574">
        <ele>1537.2</ele>
        <time>2021-10-02T08:57:07Z</time>
      </trkpt>
      <trkpt lat="42.90147" lon="0.30575">
        <ele>1537.2</ele>
        <time>2021-10-02T08:57:08Z</time>
      </trkpt>
      <trkpt lat="42.90146" lon="0.30576">
        <ele>1537.4</ele>
        <time>2021-10-02T08:57:09Z</time>
      </trkpt>
      <trkpt lat="42.90144" lon="0.30576">
        <ele>1537.4</ele>
        <time>2021-10-02T08:57:10Z</time>
      </trkpt>
      <trkpt lat="42.90141" lon="0.30576">
        <ele>1537.6</ele>
        <time>2021-10-02T08:57:12Z</time>
      </trkpt>
      <trkpt lat="42.90136" lon="0.30578">
        <ele>1537.6</ele>
        <time>2021-10-02T08:57:15Z</time>
      </trkpt>
      <trkpt lat="42.90135" lon="0.30579">
        <ele>1537.6</ele>
        <time>2021-10-02T08:57:16Z</time>
      </trkpt>
      <trkpt lat="42.90133" lon="0.3058">
        <ele>1537.8</ele>
        <time>2021-10-02T08:57:17Z</time>
      </trkpt>
      <trkpt lat="42.90132" lon="0.30581">
        <ele>1537.8</ele>
        <time>2021-10-02T08:57:18Z</time>
      </trkpt>
      <trkpt lat="42.90131" lon="0.30581">
        <ele>1537.8</ele>
        <time>2021-10-02T08:57:19Z</time>
      </trkpt>
      <trkpt lat="42.90129" lon="0.30582">
        <ele>1537.8</ele>
        <time>2021-10-02T08:57:20Z</time>
      </trkpt>
      <trkpt lat="42.90127" lon="0.30581">
        <ele>1537.8</ele>
        <time>2021-10-02T08:57:22Z</time>
      </trkpt>
      <trkpt lat="42.90126" lon="0.3058">
        <ele>1537.8</ele>
        <time>2021-10-02T08:57:23Z</time>
      </trkpt>
      <trkpt lat="42.90125" lon="0.30579">
        <ele>1537.8</ele>
        <time>2021-10-02T08:57:24Z</time>
      </trkpt>
      <trkpt lat="42.90124" lon="0.30577">
        <ele>1537.8</ele>
        <time>2021-10-02T08:57:25Z</time>
      </trkpt>
      <trkpt lat="42.90123" lon="0.30575">
        <ele>1537.8</ele>
        <time>2021-10-02T08:57:26Z</time>
      </trkpt>
      <trkpt lat="42.90122" lon="0.30572">
        <ele>1537.6</ele>
        <time>2021-10-02T08:57:27Z</time>
      </trkpt>
      <trkpt lat="42.90114" lon="0.30564">
        <ele>1537.6</ele>
        <time>2021-10-02T08:57:33Z</time>
      </trkpt>
      <trkpt lat="42.90108" lon="0.30559">
        <ele>1537.6</ele>
        <time>2021-10-02T08:57:37Z</time>
      </trkpt>
      <trkpt lat="42.90107" lon="0.30558">
        <ele>1537.8</ele>
        <time>2021-10-02T08:57:38Z</time>
      </trkpt>
      <trkpt lat="42.90106" lon="0.30557">
        <ele>1537.8</ele>
        <time>2021-10-02T08:57:39Z</time>
      </trkpt>
      <trkpt lat="42.90104" lon="0.30557">
        <ele>1538</ele>
        <time>2021-10-02T08:57:40Z</time>
      </trkpt>
      <trkpt lat="42.90103" lon="0.30556">
        <ele>1538.2</ele>
        <time>2021-10-02T08:57:41Z</time>
      </trkpt>
      <trkpt lat="42.90102" lon="0.30555">
        <ele>1538.4</ele>
        <time>2021-10-02T08:57:42Z</time>
      </trkpt>
      <trkpt lat="42.901" lon="0.30554">
        <ele>1538.6</ele>
        <time>2021-10-02T08:57:43Z</time>
      </trkpt>
      <trkpt lat="42.90099" lon="0.30553">
        <ele>1538.6</ele>
        <time>2021-10-02T08:57:44Z</time>
      </trkpt>
      <trkpt lat="42.90098" lon="0.30552">
        <ele>1538.8</ele>
        <time>2021-10-02T08:57:45Z</time>
      </trkpt>
      <trkpt lat="42.90097" lon="0.3055">
        <ele>1538.8</ele>
        <time>2021-10-02T08:57:46Z</time>
      </trkpt>
      <trkpt lat="42.90093" lon="0.30546">
        <ele>1539.4</ele>
        <time>2021-10-02T08:57:49Z</time>
      </trkpt>
      <trkpt lat="42.90088" lon="0.3054">
        <ele>1539.8</ele>
        <time>2021-10-02T08:57:53Z</time>
      </trkpt>
      <trkpt lat="42.90082" lon="0.30535">
        <ele>1540.2</ele>
        <time>2021-10-02T08:57:57Z</time>
      </trkpt>
      <trkpt lat="42.9008" lon="0.30534">
        <ele>1540.6</ele>
        <time>2021-10-02T08:57:58Z</time>
      </trkpt>
      <trkpt lat="42.90077" lon="0.30531">
        <ele>1540.8</ele>
        <time>2021-10-02T08:58:00Z</time>
      </trkpt>
      <trkpt lat="42.90075" lon="0.30529">
        <ele>1540.8</ele>
        <time>2021-10-02T08:58:01Z</time>
      </trkpt>
      <trkpt lat="42.90074" lon="0.30528">
        <ele>1541</ele>
        <time>2021-10-02T08:58:02Z</time>
      </trkpt>
      <trkpt lat="42.90072" lon="0.30527">
        <ele>1541</ele>
        <time>2021-10-02T08:58:03Z</time>
      </trkpt>
      <trkpt lat="42.90071" lon="0.30525">
        <ele>1541</ele>
        <time>2021-10-02T08:58:04Z</time>
      </trkpt>
      <trkpt lat="42.90069" lon="0.30524">
        <ele>1541.2</ele>
        <time>2021-10-02T08:58:05Z</time>
      </trkpt>
      <trkpt lat="42.90068" lon="0.30522">
        <ele>1541.4</ele>
        <time>2021-10-02T08:58:06Z</time>
      </trkpt>
      <trkpt lat="42.90066" lon="0.30521">
        <ele>1541.4</ele>
        <time>2021-10-02T08:58:07Z</time>
      </trkpt>
      <trkpt lat="42.90065" lon="0.30518">
        <ele>1541.6</ele>
        <time>2021-10-02T08:58:08Z</time>
      </trkpt>
      <trkpt lat="42.90063" lon="0.30516">
        <ele>1541.6</ele>
        <time>2021-10-02T08:58:09Z</time>
      </trkpt>
      <trkpt lat="42.90062" lon="0.30514">
        <ele>1541.8</ele>
        <time>2021-10-02T08:58:10Z</time>
      </trkpt>
      <trkpt lat="42.9006" lon="0.30513">
        <ele>1542</ele>
        <time>2021-10-02T08:58:11Z</time>
      </trkpt>
      <trkpt lat="42.90059" lon="0.30511">
        <ele>1542</ele>
        <time>2021-10-02T08:58:12Z</time>
      </trkpt>
      <trkpt lat="42.90058" lon="0.30509">
        <ele>1542</ele>
        <time>2021-10-02T08:58:13Z</time>
      </trkpt>
      <trkpt lat="42.90056" lon="0.30507">
        <ele>1542.2</ele>
        <time>2021-10-02T08:58:14Z</time>
      </trkpt>
      <trkpt lat="42.90055" lon="0.30506">
        <ele>1542.2</ele>
        <time>2021-10-02T08:58:15Z</time>
      </trkpt>
      <trkpt lat="42.90054" lon="0.30504">
        <ele>1542.4</ele>
        <time>2021-10-02T08:58:16Z</time>
      </trkpt>
      <trkpt lat="42.90053" lon="0.30502">
        <ele>1542.6</ele>
        <time>2021-10-02T08:58:17Z</time>
      </trkpt>
      <trkpt lat="42.90051" lon="0.305">
        <ele>1542.6</ele>
        <time>2021-10-02T08:58:18Z</time>
      </trkpt>
      <trkpt lat="42.9005" lon="0.30498">
        <ele>1542.8</ele>
        <time>2021-10-02T08:58:19Z</time>
      </trkpt>
      <trkpt lat="42.90049" lon="0.30496">
        <ele>1542.8</ele>
        <time>2021-10-02T08:58:20Z</time>
      </trkpt>
      <trkpt lat="42.90048" lon="0.30494">
        <ele>1542.8</ele>
        <time>2021-10-02T08:58:21Z</time>
      </trkpt>
      <trkpt lat="42.90047" lon="0.30492">
        <ele>1543</ele>
        <time>2021-10-02T08:58:22Z</time>
      </trkpt>
      <trkpt lat="42.90046" lon="0.3049">
        <ele>1543.2</ele>
        <time>2021-10-02T08:58:23Z</time>
      </trkpt>
      <trkpt lat="42.90045" lon="0.30488">
        <ele>1543.2</ele>
        <time>2021-10-02T08:58:24Z</time>
      </trkpt>
      <trkpt lat="42.90044" lon="0.30486">
        <ele>1543.4</ele>
        <time>2021-10-02T08:58:25Z</time>
      </trkpt>
      <trkpt lat="42.90042" lon="0.30483">
        <ele>1543.6</ele>
        <time>2021-10-02T08:58:26Z</time>
      </trkpt>
      <trkpt lat="42.90041" lon="0.30481">
        <ele>1543.6</ele>
        <time>2021-10-02T08:58:27Z</time>
      </trkpt>
      <trkpt lat="42.90039" lon="0.30478">
        <ele>1543.6</ele>
        <time>2021-10-02T08:58:28Z</time>
      </trkpt>
      <trkpt lat="42.90038" lon="0.30476">
        <ele>1544</ele>
        <time>2021-10-02T08:58:29Z</time>
      </trkpt>
      <trkpt lat="42.90037" lon="0.30474">
        <ele>1544</ele>
        <time>2021-10-02T08:58:30Z</time>
      </trkpt>
      <trkpt lat="42.90036" lon="0.30472">
        <ele>1544.2</ele>
        <time>2021-10-02T08:58:31Z</time>
      </trkpt>
      <trkpt lat="42.90034" lon="0.30469">
        <ele>1544.2</ele>
        <time>2021-10-02T08:58:32Z</time>
      </trkpt>
      <trkpt lat="42.90033" lon="0.30466">
        <ele>1544.4</ele>
        <time>2021-10-02T08:58:33Z</time>
      </trkpt>
      <trkpt lat="42.90032" lon="0.30464">
        <ele>1544.4</ele>
        <time>2021-10-02T08:58:34Z</time>
      </trkpt>
      <trkpt lat="42.90031" lon="0.30462">
        <ele>1544.4</ele>
        <time>2021-10-02T08:58:35Z</time>
      </trkpt>
      <trkpt lat="42.9003" lon="0.30459">
        <ele>1544.6</ele>
        <time>2021-10-02T08:58:36Z</time>
      </trkpt>
      <trkpt lat="42.90029" lon="0.30457">
        <ele>1544.6</ele>
        <time>2021-10-02T08:58:37Z</time>
      </trkpt>
      <trkpt lat="42.90028" lon="0.30455">
        <ele>1545</ele>
        <time>2021-10-02T08:58:38Z</time>
      </trkpt>
      <trkpt lat="42.90027" lon="0.30453">
        <ele>1545</ele>
        <time>2021-10-02T08:58:39Z</time>
      </trkpt>
      <trkpt lat="42.90025" lon="0.3045">
        <ele>1545.4</ele>
        <time>2021-10-02T08:58:40Z</time>
      </trkpt>
      <trkpt lat="42.90024" lon="0.30447">
        <ele>1545.4</ele>
        <time>2021-10-02T08:58:41Z</time>
      </trkpt>
      <trkpt lat="42.90023" lon="0.30445">
        <ele>1545.6</ele>
        <time>2021-10-02T08:58:42Z</time>
      </trkpt>
      <trkpt lat="42.90022" lon="0.30443">
        <ele>1545.6</ele>
        <time>2021-10-02T08:58:43Z</time>
      </trkpt>
      <trkpt lat="42.90022" lon="0.30441">
        <ele>1545.8</ele>
        <time>2021-10-02T08:58:44Z</time>
      </trkpt>
      <trkpt lat="42.90021" lon="0.30439">
        <ele>1545.8</ele>
        <time>2021-10-02T08:58:45Z</time>
      </trkpt>
      <trkpt lat="42.9002" lon="0.30436">
        <ele>1546</ele>
        <time>2021-10-02T08:58:46Z</time>
      </trkpt>
      <trkpt lat="42.90019" lon="0.30434">
        <ele>1546.2</ele>
        <time>2021-10-02T08:58:47Z</time>
      </trkpt>
      <trkpt lat="42.90018" lon="0.30432">
        <ele>1546.4</ele>
        <time>2021-10-02T08:58:48Z</time>
      </trkpt>
      <trkpt lat="42.90017" lon="0.3043">
        <ele>1546.6</ele>
        <time>2021-10-02T08:58:49Z</time>
      </trkpt>
      <trkpt lat="42.90015" lon="0.30427">
        <ele>1546.6</ele>
        <time>2021-10-02T08:58:50Z</time>
      </trkpt>
      <trkpt lat="42.90015" lon="0.30425">
        <ele>1547</ele>
        <time>2021-10-02T08:58:51Z</time>
      </trkpt>
      <trkpt lat="42.90014" lon="0.30423">
        <ele>1547</ele>
        <time>2021-10-02T08:58:52Z</time>
      </trkpt>
      <trkpt lat="42.90013" lon="0.30421">
        <ele>1547.2</ele>
        <time>2021-10-02T08:58:53Z</time>
      </trkpt>
      <trkpt lat="42.90011" lon="0.30418">
        <ele>1547.4</ele>
        <time>2021-10-02T08:58:54Z</time>
      </trkpt>
      <trkpt lat="42.9001" lon="0.30417">
        <ele>1547.4</ele>
        <time>2021-10-02T08:58:55Z</time>
      </trkpt>
      <trkpt lat="42.90009" lon="0.30415">
        <ele>1547.6</ele>
        <time>2021-10-02T08:58:56Z</time>
      </trkpt>
      <trkpt lat="42.90007" lon="0.30414">
        <ele>1547.6</ele>
        <time>2021-10-02T08:58:57Z</time>
      </trkpt>
      <trkpt lat="42.90006" lon="0.30412">
        <ele>1547.8</ele>
        <time>2021-10-02T08:58:58Z</time>
      </trkpt>
      <trkpt lat="42.90004" lon="0.30411">
        <ele>1548.2</ele>
        <time>2021-10-02T08:58:59Z</time>
      </trkpt>
      <trkpt lat="42.90002" lon="0.3041">
        <ele>1548.2</ele>
        <time>2021-10-02T08:59:00Z</time>
      </trkpt>
      <trkpt lat="42.90001" lon="0.30409">
        <ele>1548.6</ele>
        <time>2021-10-02T08:59:01Z</time>
      </trkpt>
      <trkpt lat="42.9" lon="0.30408">
        <ele>1548.6</ele>
        <time>2021-10-02T08:59:02Z</time>
      </trkpt>
      <trkpt lat="42.89999" lon="0.30408">
        <ele>1549</ele>
        <time>2021-10-02T08:59:03Z</time>
      </trkpt>
      <trkpt lat="42.89998" lon="0.30407">
        <ele>1549</ele>
        <time>2021-10-02T08:59:04Z</time>
      </trkpt>
      <trkpt lat="42.89998" lon="0.30407">
        <ele>1549.2</ele>
        <time>2021-10-02T08:59:06Z</time>
      </trkpt>
      <trkpt lat="42.89998" lon="0.30407">
        <ele>1549.2</ele>
        <time>2021-10-02T08:59:10Z</time>
      </trkpt>
      <trkpt lat="42.89998" lon="0.30407">
        <ele>1549.2</ele>
        <time>2021-10-02T08:59:21Z</time>
      </trkpt>
      <trkpt lat="42.89998" lon="0.30407">
        <ele>1549</ele>
        <time>2021-10-02T09:00:01Z</time>
      </trkpt>
      <trkpt lat="42.89998" lon="0.30407">
        <ele>1549.2</ele>
        <time>2021-10-02T09:00:05Z</time>
      </trkpt>
      <trkpt lat="42.89999" lon="0.30408">
        <ele>1548.8</ele>
        <time>2021-10-02T09:00:52Z</time>
      </trkpt>
      <trkpt lat="42.90007" lon="0.30415">
        <ele>1549.2</ele>
        <time>2021-10-02T09:01:04Z</time>
      </trkpt>
      <trkpt lat="42.90013" lon="0.30424">
        <ele>1549</ele>
        <time>2021-10-02T09:01:06Z</time>
      </trkpt>
      <trkpt lat="42.90019" lon="0.30437">
        <ele>1549</ele>
        <time>2021-10-02T09:01:08Z</time>
      </trkpt>
      <trkpt lat="42.90032" lon="0.30465">
        <ele>1548.4</ele>
        <time>2021-10-02T09:01:12Z</time>
      </trkpt>
      <trkpt lat="42.90039" lon="0.30481">
        <ele>1547.6</ele>
        <time>2021-10-02T09:01:14Z</time>
      </trkpt>
      <trkpt lat="42.90043" lon="0.30489">
        <ele>1547.4</ele>
        <time>2021-10-02T09:01:15Z</time>
      </trkpt>
      <trkpt lat="42.90052" lon="0.30504">
        <ele>1546.8</ele>
        <time>2021-10-02T09:01:17Z</time>
      </trkpt>
      <trkpt lat="42.90056" lon="0.30509">
        <ele>1546.2</ele>
        <time>2021-10-02T09:01:18Z</time>
      </trkpt>
      <trkpt lat="42.90059" lon="0.30514">
        <ele>1546.2</ele>
        <time>2021-10-02T09:01:19Z</time>
      </trkpt>
      <trkpt lat="42.90061" lon="0.30518">
        <ele>1545.8</ele>
        <time>2021-10-02T09:01:20Z</time>
      </trkpt>
      <trkpt lat="42.90063" lon="0.3052">
        <ele>1545.6</ele>
        <time>2021-10-02T09:01:21Z</time>
      </trkpt>
      <trkpt lat="42.90063" lon="0.30521">
        <ele>1544.8</ele>
        <time>2021-10-02T09:01:22Z</time>
      </trkpt>
      <trkpt lat="42.90064" lon="0.30521">
        <ele>1543.6</ele>
        <time>2021-10-02T09:01:26Z</time>
      </trkpt>
      <trkpt lat="42.90074" lon="0.30531">
        <ele>1542.8</ele>
        <time>2021-10-02T09:01:30Z</time>
      </trkpt>
      <trkpt lat="42.90081" lon="0.30538">
        <ele>1542.6</ele>
        <time>2021-10-02T09:01:32Z</time>
      </trkpt>
      <trkpt lat="42.90094" lon="0.3055">
        <ele>1542</ele>
        <time>2021-10-02T09:01:35Z</time>
      </trkpt>
      <trkpt lat="42.90104" lon="0.3056">
        <ele>1541.4</ele>
        <time>2021-10-02T09:01:37Z</time>
      </trkpt>
      <trkpt lat="42.90116" lon="0.30569">
        <ele>1540.8</ele>
        <time>2021-10-02T09:01:39Z</time>
      </trkpt>
      <trkpt lat="42.90124" lon="0.30572">
        <ele>1541</ele>
        <time>2021-10-02T09:01:40Z</time>
      </trkpt>
      <trkpt lat="42.90132" lon="0.30572">
        <ele>1540.4</ele>
        <time>2021-10-02T09:01:41Z</time>
      </trkpt>
      <trkpt lat="42.90139" lon="0.30569">
        <ele>1540.4</ele>
        <time>2021-10-02T09:01:42Z</time>
      </trkpt>
      <trkpt lat="42.90147" lon="0.30564">
        <ele>1540</ele>
        <time>2021-10-02T09:01:43Z</time>
      </trkpt>
      <trkpt lat="42.9016" lon="0.30549">
        <ele>1539.2</ele>
        <time>2021-10-02T09:01:45Z</time>
      </trkpt>
      <trkpt lat="42.90167" lon="0.3054">
        <ele>1538.8</ele>
        <time>2021-10-02T09:01:46Z</time>
      </trkpt>
      <trkpt lat="42.90175" lon="0.30531">
        <ele>1538</ele>
        <time>2021-10-02T09:01:47Z</time>
      </trkpt>
      <trkpt lat="42.90181" lon="0.30523">
        <ele>1537.6</ele>
        <time>2021-10-02T09:01:48Z</time>
      </trkpt>
      <trkpt lat="42.9019" lon="0.30509">
        <ele>1536.6</ele>
        <time>2021-10-02T09:01:49Z</time>
      </trkpt>
      <trkpt lat="42.90206" lon="0.30487">
        <ele>1535.2</ele>
        <time>2021-10-02T09:01:51Z</time>
      </trkpt>
      <trkpt lat="42.90225" lon="0.30469">
        <ele>1534</ele>
        <time>2021-10-02T09:01:53Z</time>
      </trkpt>
      <trkpt lat="42.90236" lon="0.3046">
        <ele>1532.8</ele>
        <time>2021-10-02T09:01:54Z</time>
      </trkpt>
      <trkpt lat="42.90259" lon="0.30444">
        <ele>1531.2</ele>
        <time>2021-10-02T09:01:56Z</time>
      </trkpt>
      <trkpt lat="42.90284" lon="0.30428">
        <ele>1529.4</ele>
        <time>2021-10-02T09:01:58Z</time>
      </trkpt>
      <trkpt lat="42.90295" lon="0.30421">
        <ele>1528.6</ele>
        <time>2021-10-02T09:01:59Z</time>
      </trkpt>
      <trkpt lat="42.90308" lon="0.30413">
        <ele>1527.4</ele>
        <time>2021-10-02T09:02:00Z</time>
      </trkpt>
      <trkpt lat="42.90335" lon="0.30395">
        <ele>1525.2</ele>
        <time>2021-10-02T09:02:02Z</time>
      </trkpt>
      <trkpt lat="42.90366" lon="0.30374">
        <ele>1522.8</ele>
        <time>2021-10-02T09:02:04Z</time>
      </trkpt>
      <trkpt lat="42.90391" lon="0.30355">
        <ele>1520</ele>
        <time>2021-10-02T09:02:06Z</time>
      </trkpt>
      <trkpt lat="42.90407" lon="0.3034">
        <ele>1519</ele>
        <time>2021-10-02T09:02:07Z</time>
      </trkpt>
      <trkpt lat="42.90416" lon="0.30329">
        <ele>1517.4</ele>
        <time>2021-10-02T09:02:08Z</time>
      </trkpt>
      <trkpt lat="42.90429" lon="0.30315">
        <ele>1515.4</ele>
        <time>2021-10-02T09:02:09Z</time>
      </trkpt>
      <trkpt lat="42.90441" lon="0.303">
        <ele>1514</ele>
        <time>2021-10-02T09:02:10Z</time>
      </trkpt>
      <trkpt lat="42.90456" lon="0.30283">
        <ele>1511.8</ele>
        <time>2021-10-02T09:02:11Z</time>
      </trkpt>
      <trkpt lat="42.90479" lon="0.30254">
        <ele>1509</ele>
        <time>2021-10-02T09:02:13Z</time>
      </trkpt>
      <trkpt lat="42.90488" lon="0.30244">
        <ele>1507.6</ele>
        <time>2021-10-02T09:02:14Z</time>
      </trkpt>
      <trkpt lat="42.90501" lon="0.30231">
        <ele>1505</ele>
        <time>2021-10-02T09:02:15Z</time>
      </trkpt>
      <trkpt lat="42.90526" lon="0.30206">
        <ele>1501.8</ele>
        <time>2021-10-02T09:02:17Z</time>
      </trkpt>
      <trkpt lat="42.90539" lon="0.30193">
        <ele>1500.8</ele>
        <time>2021-10-02T09:02:18Z</time>
      </trkpt>
      <trkpt lat="42.90551" lon="0.30181">
        <ele>1498.6</ele>
        <time>2021-10-02T09:02:19Z</time>
      </trkpt>
      <trkpt lat="42.90565" lon="0.30167">
        <ele>1497.8</ele>
        <time>2021-10-02T09:02:20Z</time>
      </trkpt>
      <trkpt lat="42.90574" lon="0.3016">
        <ele>1495.8</ele>
        <time>2021-10-02T09:02:21Z</time>
      </trkpt>
      <trkpt lat="42.90587" lon="0.30152">
        <ele>1495.2</ele>
        <time>2021-10-02T09:02:22Z</time>
      </trkpt>
      <trkpt lat="42.90596" lon="0.3015">
        <ele>1493.8</ele>
        <time>2021-10-02T09:02:23Z</time>
      </trkpt>
      <trkpt lat="42.90606" lon="0.30148">
        <ele>1492.4</ele>
        <time>2021-10-02T09:02:24Z</time>
      </trkpt>
      <trkpt lat="42.90617" lon="0.30145">
        <ele>1490.2</ele>
        <time>2021-10-02T09:02:25Z</time>
      </trkpt>
      <trkpt lat="42.90625" lon="0.30142">
        <ele>1488.6</ele>
        <time>2021-10-02T09:02:26Z</time>
      </trkpt>
      <trkpt lat="42.9063" lon="0.30138">
        <ele>1487.8</ele>
        <time>2021-10-02T09:02:27Z</time>
      </trkpt>
      <trkpt lat="42.90634" lon="0.30133">
        <ele>1486.4</ele>
        <time>2021-10-02T09:02:28Z</time>
      </trkpt>
      <trkpt lat="42.90637" lon="0.30124">
        <ele>1486</ele>
        <time>2021-10-02T09:02:29Z</time>
      </trkpt>
      <trkpt lat="42.90636" lon="0.30119">
        <ele>1484.6</ele>
        <time>2021-10-02T09:02:30Z</time>
      </trkpt>
      <trkpt lat="42.90633" lon="0.30112">
        <ele>1483.8</ele>
        <time>2021-10-02T09:02:31Z</time>
      </trkpt>
      <trkpt lat="42.90629" lon="0.30107">
        <ele>1483</ele>
        <time>2021-10-02T09:02:32Z</time>
      </trkpt>
      <trkpt lat="42.90626" lon="0.30102">
        <ele>1482.2</ele>
        <time>2021-10-02T09:02:33Z</time>
      </trkpt>
      <trkpt lat="42.90615" lon="0.30101">
        <ele>1481.2</ele>
        <time>2021-10-02T09:02:34Z</time>
      </trkpt>
      <trkpt lat="42.90607" lon="0.30103">
        <ele>1480.8</ele>
        <time>2021-10-02T09:02:35Z</time>
      </trkpt>
      <trkpt lat="42.906" lon="0.30104">
        <ele>1480</ele>
        <time>2021-10-02T09:02:36Z</time>
      </trkpt>
      <trkpt lat="42.90576" lon="0.30111">
        <ele>1478.8</ele>
        <time>2021-10-02T09:02:39Z</time>
      </trkpt>
      <trkpt lat="42.9057" lon="0.30113">
        <ele>1478.2</ele>
        <time>2021-10-02T09:02:40Z</time>
      </trkpt>
      <trkpt lat="42.90562" lon="0.30115">
        <ele>1477.8</ele>
        <time>2021-10-02T09:02:41Z</time>
      </trkpt>
      <trkpt lat="42.90537" lon="0.30122">
        <ele>1476.6</ele>
        <time>2021-10-02T09:02:44Z</time>
      </trkpt>
      <trkpt lat="42.90524" lon="0.30129">
        <ele>1475.4</ele>
        <time>2021-10-02T09:02:46Z</time>
      </trkpt>
      <trkpt lat="42.90511" lon="0.30136">
        <ele>1474.4</ele>
        <time>2021-10-02T09:02:48Z</time>
      </trkpt>
      <trkpt lat="42.90507" lon="0.30137">
        <ele>1474</ele>
        <time>2021-10-02T09:02:49Z</time>
      </trkpt>
      <trkpt lat="42.90503" lon="0.30135">
        <ele>1473.8</ele>
        <time>2021-10-02T09:02:50Z</time>
      </trkpt>
      <trkpt lat="42.90499" lon="0.30132">
        <ele>1473.6</ele>
        <time>2021-10-02T09:02:51Z</time>
      </trkpt>
      <trkpt lat="42.90497" lon="0.3013">
        <ele>1473.4</ele>
        <time>2021-10-02T09:02:52Z</time>
      </trkpt>
      <trkpt lat="42.90494" lon="0.30126">
        <ele>1473</ele>
        <time>2021-10-02T09:02:53Z</time>
      </trkpt>
      <trkpt lat="42.90493" lon="0.30125">
        <ele>1472.8</ele>
        <time>2021-10-02T09:02:54Z</time>
      </trkpt>
      <trkpt lat="42.90492" lon="0.30124">
        <ele>1472.6</ele>
        <time>2021-10-02T09:02:55Z</time>
      </trkpt>
      <trkpt lat="42.90492" lon="0.30124">
        <ele>1472.4</ele>
        <time>2021-10-02T09:02:57Z</time>
      </trkpt>
      <trkpt lat="42.90492" lon="0.30124">
        <ele>1471.8</ele>
        <time>2021-10-02T09:03:01Z</time>
      </trkpt>
      <trkpt lat="42.90493" lon="0.30124">
        <ele>1472.2</ele>
        <time>2021-10-02T09:03:17Z</time>
      </trkpt>
      <trkpt lat="42.90501" lon="0.30117">
        <ele>1472</ele>
        <time>2021-10-02T09:03:20Z</time>
      </trkpt>
      <trkpt lat="42.90506" lon="0.30115">
        <ele>1471.8</ele>
        <time>2021-10-02T09:03:21Z</time>
      </trkpt>
      <trkpt lat="42.90511" lon="0.30113">
        <ele>1471.8</ele>
        <time>2021-10-02T09:03:22Z</time>
      </trkpt>
      <trkpt lat="42.90523" lon="0.3011">
        <ele>1471.6</ele>
        <time>2021-10-02T09:03:24Z</time>
      </trkpt>
      <trkpt lat="42.90529" lon="0.30108">
        <ele>1471.4</ele>
        <time>2021-10-02T09:03:25Z</time>
      </trkpt>
      <trkpt lat="42.90542" lon="0.30102">
        <ele>1470.8</ele>
        <time>2021-10-02T09:03:27Z</time>
      </trkpt>
      <trkpt lat="42.90549" lon="0.30098">
        <ele>1470.6</ele>
        <time>2021-10-02T09:03:28Z</time>
      </trkpt>
      <trkpt lat="42.90571" lon="0.30083">
        <ele>1469.6</ele>
        <time>2021-10-02T09:03:31Z</time>
      </trkpt>
      <trkpt lat="42.90587" lon="0.30072">
        <ele>1468.8</ele>
        <time>2021-10-02T09:03:33Z</time>
      </trkpt>
      <trkpt lat="42.90596" lon="0.30066">
        <ele>1468.2</ele>
        <time>2021-10-02T09:03:34Z</time>
      </trkpt>
      <trkpt lat="42.90605" lon="0.30062">
        <ele>1468</ele>
        <time>2021-10-02T09:03:35Z</time>
      </trkpt>
      <trkpt lat="42.90615" lon="0.30058">
        <ele>1467</ele>
        <time>2021-10-02T09:03:36Z</time>
      </trkpt>
      <trkpt lat="42.90625" lon="0.30054">
        <ele>1466.6</ele>
        <time>2021-10-02T09:03:37Z</time>
      </trkpt>
      <trkpt lat="42.90635" lon="0.3005">
        <ele>1465.8</ele>
        <time>2021-10-02T09:03:38Z</time>
      </trkpt>
      <trkpt lat="42.90669" lon="0.3004">
        <ele>1464.6</ele>
        <time>2021-10-02T09:03:41Z</time>
      </trkpt>
      <trkpt lat="42.90681" lon="0.30037">
        <ele>1463.4</ele>
        <time>2021-10-02T09:03:42Z</time>
      </trkpt>
      <trkpt lat="42.90706" lon="0.3003">
        <ele>1461.8</ele>
        <time>2021-10-02T09:03:44Z</time>
      </trkpt>
      <trkpt lat="42.90732" lon="0.3002">
        <ele>1460</ele>
        <time>2021-10-02T09:03:46Z</time>
      </trkpt>
      <trkpt lat="42.90744" lon="0.30014">
        <ele>1459.4</ele>
        <time>2021-10-02T09:03:47Z</time>
      </trkpt>
      <trkpt lat="42.90758" lon="0.30008">
        <ele>1458</ele>
        <time>2021-10-02T09:03:48Z</time>
      </trkpt>
      <trkpt lat="42.90784" lon="0.29997">
        <ele>1456.2</ele>
        <time>2021-10-02T09:03:50Z</time>
      </trkpt>
      <trkpt lat="42.90798" lon="0.29991">
        <ele>1454.6</ele>
        <time>2021-10-02T09:03:51Z</time>
      </trkpt>
      <trkpt lat="42.90825" lon="0.2998">
        <ele>1451.8</ele>
        <time>2021-10-02T09:03:53Z</time>
      </trkpt>
      <trkpt lat="42.90838" lon="0.29974">
        <ele>1450.8</ele>
        <time>2021-10-02T09:03:54Z</time>
      </trkpt>
      <trkpt lat="42.90852" lon="0.29969">
        <ele>1449.4</ele>
        <time>2021-10-02T09:03:55Z</time>
      </trkpt>
      <trkpt lat="42.9088" lon="0.29956">
        <ele>1447.8</ele>
        <time>2021-10-02T09:03:57Z</time>
      </trkpt>
      <trkpt lat="42.90908" lon="0.29942">
        <ele>1445.6</ele>
        <time>2021-10-02T09:03:59Z</time>
      </trkpt>
      <trkpt lat="42.90922" lon="0.29934">
        <ele>1444.4</ele>
        <time>2021-10-02T09:04:00Z</time>
      </trkpt>
      <trkpt lat="42.90935" lon="0.29925">
        <ele>1442.4</ele>
        <time>2021-10-02T09:04:01Z</time>
      </trkpt>
      <trkpt lat="42.90962" lon="0.29906">
        <ele>1440.2</ele>
        <time>2021-10-02T09:04:03Z</time>
      </trkpt>
      <trkpt lat="42.90988" lon="0.29887">
        <ele>1438</ele>
        <time>2021-10-02T09:04:05Z</time>
      </trkpt>
      <trkpt lat="42.91001" lon="0.29878">
        <ele>1437.4</ele>
        <time>2021-10-02T09:04:06Z</time>
      </trkpt>
      <trkpt lat="42.91012" lon="0.2987">
        <ele>1435.8</ele>
        <time>2021-10-02T09:04:07Z</time>
      </trkpt>
      <trkpt lat="42.91022" lon="0.29862">
        <ele>1434.2</ele>
        <time>2021-10-02T09:04:08Z</time>
      </trkpt>
      <trkpt lat="42.91031" lon="0.29855">
        <ele>1433.4</ele>
        <time>2021-10-02T09:04:09Z</time>
      </trkpt>
      <trkpt lat="42.91038" lon="0.29847">
        <ele>1431.8</ele>
        <time>2021-10-02T09:04:10Z</time>
      </trkpt>
      <trkpt lat="42.91045" lon="0.29839">
        <ele>1431.2</ele>
        <time>2021-10-02T09:04:11Z</time>
      </trkpt>
      <trkpt lat="42.9105" lon="0.29829">
        <ele>1430</ele>
        <time>2021-10-02T09:04:12Z</time>
      </trkpt>
      <trkpt lat="42.91053" lon="0.29817">
        <ele>1429.4</ele>
        <time>2021-10-02T09:04:13Z</time>
      </trkpt>
      <trkpt lat="42.91054" lon="0.29805">
        <ele>1428.8</ele>
        <time>2021-10-02T09:04:14Z</time>
      </trkpt>
      <trkpt lat="42.91054" lon="0.29793">
        <ele>1428.2</ele>
        <time>2021-10-02T09:04:15Z</time>
      </trkpt>
      <trkpt lat="42.91053" lon="0.29781">
        <ele>1427</ele>
        <time>2021-10-02T09:04:16Z</time>
      </trkpt>
      <trkpt lat="42.91051" lon="0.29769">
        <ele>1426.6</ele>
        <time>2021-10-02T09:04:17Z</time>
      </trkpt>
      <trkpt lat="42.91049" lon="0.29758">
        <ele>1426</ele>
        <time>2021-10-02T09:04:18Z</time>
      </trkpt>
      <trkpt lat="42.91046" lon="0.29747">
        <ele>1425.6</ele>
        <time>2021-10-02T09:04:19Z</time>
      </trkpt>
      <trkpt lat="42.91042" lon="0.29738">
        <ele>1425.2</ele>
        <time>2021-10-02T09:04:20Z</time>
      </trkpt>
      <trkpt lat="42.91038" lon="0.2973">
        <ele>1425</ele>
        <time>2021-10-02T09:04:21Z</time>
      </trkpt>
      <trkpt lat="42.91035" lon="0.29722">
        <ele>1424.4</ele>
        <time>2021-10-02T09:04:22Z</time>
      </trkpt>
      <trkpt lat="42.91032" lon="0.29715">
        <ele>1424.2</ele>
        <time>2021-10-02T09:04:23Z</time>
      </trkpt>
      <trkpt lat="42.91029" lon="0.29708">
        <ele>1424</ele>
        <time>2021-10-02T09:04:24Z</time>
      </trkpt>
      <trkpt lat="42.91024" lon="0.29701">
        <ele>1424</ele>
        <time>2021-10-02T09:04:25Z</time>
      </trkpt>
      <trkpt lat="42.9102" lon="0.29695">
        <ele>1424</ele>
        <time>2021-10-02T09:04:26Z</time>
      </trkpt>
      <trkpt lat="42.91016" lon="0.29689">
        <ele>1423.8</ele>
        <time>2021-10-02T09:04:27Z</time>
      </trkpt>
      <trkpt lat="42.91012" lon="0.29682">
        <ele>1423.8</ele>
        <time>2021-10-02T09:04:28Z</time>
      </trkpt>
      <trkpt lat="42.90998" lon="0.29653">
        <ele>1423.6</ele>
        <time>2021-10-02T09:04:32Z</time>
      </trkpt>
      <trkpt lat="42.90975" lon="0.29613">
        <ele>1423</ele>
        <time>2021-10-02T09:04:37Z</time>
      </trkpt>
      <trkpt lat="42.9097" lon="0.29605">
        <ele>1423</ele>
        <time>2021-10-02T09:04:38Z</time>
      </trkpt>
      <trkpt lat="42.90947" lon="0.29563">
        <ele>1422</ele>
        <time>2021-10-02T09:04:43Z</time>
      </trkpt>
      <trkpt lat="42.90944" lon="0.29556">
        <ele>1421.8</ele>
        <time>2021-10-02T09:04:44Z</time>
      </trkpt>
      <trkpt lat="42.90922" lon="0.29523">
        <ele>1420.8</ele>
        <time>2021-10-02T09:04:48Z</time>
      </trkpt>
      <trkpt lat="42.90904" lon="0.29498">
        <ele>1420.2</ele>
        <time>2021-10-02T09:04:51Z</time>
      </trkpt>
      <trkpt lat="42.90897" lon="0.29488">
        <ele>1419.6</ele>
        <time>2021-10-02T09:04:52Z</time>
      </trkpt>
      <trkpt lat="42.90892" lon="0.29482">
        <ele>1419.4</ele>
        <time>2021-10-02T09:04:53Z</time>
      </trkpt>
      <trkpt lat="42.90887" lon="0.29474">
        <ele>1419.2</ele>
        <time>2021-10-02T09:04:54Z</time>
      </trkpt>
      <trkpt lat="42.90874" lon="0.29455">
        <ele>1418.2</ele>
        <time>2021-10-02T09:04:56Z</time>
      </trkpt>
      <trkpt lat="42.90868" lon="0.29446">
        <ele>1417.2</ele>
        <time>2021-10-02T09:04:57Z</time>
      </trkpt>
      <trkpt lat="42.90862" lon="0.29437">
        <ele>1417</ele>
        <time>2021-10-02T09:04:58Z</time>
      </trkpt>
      <trkpt lat="42.9085" lon="0.29419">
        <ele>1415.6</ele>
        <time>2021-10-02T09:05:00Z</time>
      </trkpt>
      <trkpt lat="42.90844" lon="0.2941">
        <ele>1414.6</ele>
        <time>2021-10-02T09:05:01Z</time>
      </trkpt>
      <trkpt lat="42.90825" lon="0.29382">
        <ele>1413.4</ele>
        <time>2021-10-02T09:05:04Z</time>
      </trkpt>
      <trkpt lat="42.90819" lon="0.29372">
        <ele>1412.8</ele>
        <time>2021-10-02T09:05:05Z</time>
      </trkpt>
      <trkpt lat="42.90809" lon="0.29352">
        <ele>1412</ele>
        <time>2021-10-02T09:05:07Z</time>
      </trkpt>
      <trkpt lat="42.90805" lon="0.29343">
        <ele>1411.8</ele>
        <time>2021-10-02T09:05:08Z</time>
      </trkpt>
      <trkpt lat="42.908" lon="0.29335">
        <ele>1411.4</ele>
        <time>2021-10-02T09:05:09Z</time>
      </trkpt>
      <trkpt lat="42.90796" lon="0.29329">
        <ele>1411.4</ele>
        <time>2021-10-02T09:05:10Z</time>
      </trkpt>
      <trkpt lat="42.90791" lon="0.29323">
        <ele>1410.4</ele>
        <time>2021-10-02T09:05:11Z</time>
      </trkpt>
      <trkpt lat="42.90786" lon="0.29317">
        <ele>1410</ele>
        <time>2021-10-02T09:05:12Z</time>
      </trkpt>
      <trkpt lat="42.90783" lon="0.29314">
        <ele>1409.4</ele>
        <time>2021-10-02T09:05:13Z</time>
      </trkpt>
      <trkpt lat="42.90777" lon="0.29309">
        <ele>1409</ele>
        <time>2021-10-02T09:05:14Z</time>
      </trkpt>
      <trkpt lat="42.90774" lon="0.29306">
        <ele>1409</ele>
        <time>2021-10-02T09:05:15Z</time>
      </trkpt>
      <trkpt lat="42.9077" lon="0.29302">
        <ele>1408.6</ele>
        <time>2021-10-02T09:05:16Z</time>
      </trkpt>
      <trkpt lat="42.90765" lon="0.29298">
        <ele>1408.4</ele>
        <time>2021-10-02T09:05:17Z</time>
      </trkpt>
      <trkpt lat="42.90762" lon="0.29294">
        <ele>1407.8</ele>
        <time>2021-10-02T09:05:18Z</time>
      </trkpt>
      <trkpt lat="42.90753" lon="0.29284">
        <ele>1407.4</ele>
        <time>2021-10-02T09:05:20Z</time>
      </trkpt>
      <trkpt lat="42.90744" lon="0.29272">
        <ele>1406.4</ele>
        <time>2021-10-02T09:05:22Z</time>
      </trkpt>
      <trkpt lat="42.90734" lon="0.29258">
        <ele>1405.4</ele>
        <time>2021-10-02T09:05:24Z</time>
      </trkpt>
      <trkpt lat="42.90729" lon="0.29252">
        <ele>1405.4</ele>
        <time>2021-10-02T09:05:25Z</time>
      </trkpt>
      <trkpt lat="42.90722" lon="0.29243">
        <ele>1405</ele>
        <time>2021-10-02T09:05:26Z</time>
      </trkpt>
      <trkpt lat="42.90707" lon="0.29222">
        <ele>1403.8</ele>
        <time>2021-10-02T09:05:29Z</time>
      </trkpt>
      <trkpt lat="42.90702" lon="0.29214">
        <ele>1403.4</ele>
        <time>2021-10-02T09:05:30Z</time>
      </trkpt>
      <trkpt lat="42.90699" lon="0.29207">
        <ele>1402.8</ele>
        <time>2021-10-02T09:05:31Z</time>
      </trkpt>
      <trkpt lat="42.90696" lon="0.29202">
        <ele>1402.6</ele>
        <time>2021-10-02T09:05:32Z</time>
      </trkpt>
      <trkpt lat="42.90693" lon="0.29195">
        <ele>1401.8</ele>
        <time>2021-10-02T09:05:33Z</time>
      </trkpt>
      <trkpt lat="42.9069" lon="0.29189">
        <ele>1401.4</ele>
        <time>2021-10-02T09:05:34Z</time>
      </trkpt>
      <trkpt lat="42.90689" lon="0.29185">
        <ele>1400.6</ele>
        <time>2021-10-02T09:05:35Z</time>
      </trkpt>
      <trkpt lat="42.90687" lon="0.29179">
        <ele>1400.2</ele>
        <time>2021-10-02T09:05:36Z</time>
      </trkpt>
      <trkpt lat="42.90685" lon="0.29172">
        <ele>1399.6</ele>
        <time>2021-10-02T09:05:37Z</time>
      </trkpt>
      <trkpt lat="42.90682" lon="0.2916">
        <ele>1399</ele>
        <time>2021-10-02T09:05:39Z</time>
      </trkpt>
      <trkpt lat="42.9068" lon="0.29147">
        <ele>1398.4</ele>
        <time>2021-10-02T09:05:41Z</time>
      </trkpt>
      <trkpt lat="42.90679" lon="0.29142">
        <ele>1398.2</ele>
        <time>2021-10-02T09:05:42Z</time>
      </trkpt>
      <trkpt lat="42.90677" lon="0.29134">
        <ele>1397.6</ele>
        <time>2021-10-02T09:05:43Z</time>
      </trkpt>
      <trkpt lat="42.90676" lon="0.29129">
        <ele>1397.4</ele>
        <time>2021-10-02T09:05:44Z</time>
      </trkpt>
      <trkpt lat="42.90674" lon="0.29124">
        <ele>1396.4</ele>
        <time>2021-10-02T09:05:45Z</time>
      </trkpt>
      <trkpt lat="42.90672" lon="0.29118">
        <ele>1396.2</ele>
        <time>2021-10-02T09:05:46Z</time>
      </trkpt>
      <trkpt lat="42.9067" lon="0.29114">
        <ele>1395.8</ele>
        <time>2021-10-02T09:05:47Z</time>
      </trkpt>
      <trkpt lat="42.90668" lon="0.29111">
        <ele>1395.4</ele>
        <time>2021-10-02T09:05:48Z</time>
      </trkpt>
      <trkpt lat="42.90665" lon="0.29107">
        <ele>1395</ele>
        <time>2021-10-02T09:05:49Z</time>
      </trkpt>
      <trkpt lat="42.90663" lon="0.29104">
        <ele>1394.4</ele>
        <time>2021-10-02T09:05:50Z</time>
      </trkpt>
      <trkpt lat="42.90662" lon="0.29101">
        <ele>1394.2</ele>
        <time>2021-10-02T09:05:51Z</time>
      </trkpt>
      <trkpt lat="42.9066" lon="0.29098">
        <ele>1393.6</ele>
        <time>2021-10-02T09:05:52Z</time>
      </trkpt>
      <trkpt lat="42.90658" lon="0.29096">
        <ele>1393.4</ele>
        <time>2021-10-02T09:05:53Z</time>
      </trkpt>
      <trkpt lat="42.90657" lon="0.29095">
        <ele>1392.8</ele>
        <time>2021-10-02T09:05:54Z</time>
      </trkpt>
      <trkpt lat="42.90655" lon="0.29093">
        <ele>1392.4</ele>
        <time>2021-10-02T09:05:55Z</time>
      </trkpt>
      <trkpt lat="42.90654" lon="0.29091">
        <ele>1392</ele>
        <time>2021-10-02T09:05:56Z</time>
      </trkpt>
      <trkpt lat="42.90652" lon="0.29088">
        <ele>1391.6</ele>
        <time>2021-10-02T09:05:58Z</time>
      </trkpt>
      <trkpt lat="42.90651" lon="0.29087">
        <ele>1391.4</ele>
        <time>2021-10-02T09:05:59Z</time>
      </trkpt>
      <trkpt lat="42.9065" lon="0.29086">
        <ele>1391</ele>
        <time>2021-10-02T09:06:00Z</time>
      </trkpt>
      <trkpt lat="42.90648" lon="0.29084">
        <ele>1390.8</ele>
        <time>2021-10-02T09:06:01Z</time>
      </trkpt>
      <trkpt lat="42.90648" lon="0.29083">
        <ele>1390.6</ele>
        <time>2021-10-02T09:06:02Z</time>
      </trkpt>
      <trkpt lat="42.90647" lon="0.29082">
        <ele>1390.4</ele>
        <time>2021-10-02T09:06:03Z</time>
      </trkpt>
      <trkpt lat="42.90646" lon="0.2908">
        <ele>1390.2</ele>
        <time>2021-10-02T09:06:04Z</time>
      </trkpt>
      <trkpt lat="42.90645" lon="0.29079">
        <ele>1390</ele>
        <time>2021-10-02T09:06:05Z</time>
      </trkpt>
      <trkpt lat="42.90644" lon="0.29081">
        <ele>1389.8</ele>
        <time>2021-10-02T09:06:08Z</time>
      </trkpt>
      <trkpt lat="42.90644" lon="0.29083">
        <ele>1389.8</ele>
        <time>2021-10-02T09:06:09Z</time>
      </trkpt>
      <trkpt lat="42.90647" lon="0.29085">
        <ele>1389.6</ele>
        <time>2021-10-02T09:06:12Z</time>
      </trkpt>
      <trkpt lat="42.90648" lon="0.29085">
        <ele>1389.6</ele>
        <time>2021-10-02T09:06:13Z</time>
      </trkpt>
      <trkpt lat="42.90649" lon="0.29085">
        <ele>1389.4</ele>
        <time>2021-10-02T09:06:14Z</time>
      </trkpt>
      <trkpt lat="42.9065" lon="0.29085">
        <ele>1389.4</ele>
        <time>2021-10-02T09:06:15Z</time>
      </trkpt>
      <trkpt lat="42.90652" lon="0.29085">
        <ele>1389.4</ele>
        <time>2021-10-02T09:06:17Z</time>
      </trkpt>
      <trkpt lat="42.90654" lon="0.29086">
        <ele>1389.4</ele>
        <time>2021-10-02T09:06:18Z</time>
      </trkpt>
      <trkpt lat="42.90655" lon="0.29088">
        <ele>1389.6</ele>
        <time>2021-10-02T09:06:19Z</time>
      </trkpt>
      <trkpt lat="42.90656" lon="0.29089">
        <ele>1389.6</ele>
        <time>2021-10-02T09:06:20Z</time>
      </trkpt>
      <trkpt lat="42.90656" lon="0.29091">
        <ele>1389.6</ele>
        <time>2021-10-02T09:06:21Z</time>
      </trkpt>
      <trkpt lat="42.90657" lon="0.29092">
        <ele>1389.6</ele>
        <time>2021-10-02T09:06:22Z</time>
      </trkpt>
      <trkpt lat="42.90663" lon="0.29104">
        <ele>1390.6</ele>
        <time>2021-10-02T09:06:28Z</time>
      </trkpt>
      <trkpt lat="42.90669" lon="0.29115">
        <ele>1391.6</ele>
        <time>2021-10-02T09:06:34Z</time>
      </trkpt>
      <trkpt lat="42.90671" lon="0.29118">
        <ele>1391.8</ele>
        <time>2021-10-02T09:06:35Z</time>
      </trkpt>
      <trkpt lat="42.90673" lon="0.29123">
        <ele>1392.4</ele>
        <time>2021-10-02T09:06:38Z</time>
      </trkpt>
      <trkpt lat="42.90674" lon="0.29126">
        <ele>1392.6</ele>
        <time>2021-10-02T09:06:39Z</time>
      </trkpt>
      <trkpt lat="42.90675" lon="0.29131">
        <ele>1392.8</ele>
        <time>2021-10-02T09:06:41Z</time>
      </trkpt>
      <trkpt lat="42.90676" lon="0.29139">
        <ele>1393.2</ele>
        <time>2021-10-02T09:06:44Z</time>
      </trkpt>
      <trkpt lat="42.90677" lon="0.29141">
        <ele>1393.4</ele>
        <time>2021-10-02T09:06:45Z</time>
      </trkpt>
      <trkpt lat="42.90677" lon="0.29144">
        <ele>1393.4</ele>
        <time>2021-10-02T09:06:46Z</time>
      </trkpt>
      <trkpt lat="42.90677" lon="0.29146">
        <ele>1393.6</ele>
        <time>2021-10-02T09:06:47Z</time>
      </trkpt>
      <trkpt lat="42.90677" lon="0.29149">
        <ele>1393.6</ele>
        <time>2021-10-02T09:06:48Z</time>
      </trkpt>
      <trkpt lat="42.90677" lon="0.29151">
        <ele>1394</ele>
        <time>2021-10-02T09:06:49Z</time>
      </trkpt>
      <trkpt lat="42.90678" lon="0.29153">
        <ele>1394</ele>
        <time>2021-10-02T09:06:50Z</time>
      </trkpt>
      <trkpt lat="42.90678" lon="0.29156">
        <ele>1394.4</ele>
        <time>2021-10-02T09:06:51Z</time>
      </trkpt>
      <trkpt lat="42.90678" lon="0.29158">
        <ele>1394.4</ele>
        <time>2021-10-02T09:06:52Z</time>
      </trkpt>
      <trkpt lat="42.90679" lon="0.2916">
        <ele>1394.6</ele>
        <time>2021-10-02T09:06:53Z</time>
      </trkpt>
      <trkpt lat="42.9068" lon="0.29164">
        <ele>1395</ele>
        <time>2021-10-02T09:06:54Z</time>
      </trkpt>
      <trkpt lat="42.9068" lon="0.29166">
        <ele>1395</ele>
        <time>2021-10-02T09:06:55Z</time>
      </trkpt>
      <trkpt lat="42.90681" lon="0.29169">
        <ele>1395.2</ele>
        <time>2021-10-02T09:06:56Z</time>
      </trkpt>
      <trkpt lat="42.90682" lon="0.29171">
        <ele>1395.4</ele>
        <time>2021-10-02T09:06:57Z</time>
      </trkpt>
      <trkpt lat="42.90682" lon="0.29174">
        <ele>1395.6</ele>
        <time>2021-10-02T09:06:58Z</time>
      </trkpt>
      <trkpt lat="42.90683" lon="0.29177">
        <ele>1395.8</ele>
        <time>2021-10-02T09:06:59Z</time>
      </trkpt>
      <trkpt lat="42.90684" lon="0.29179">
        <ele>1396</ele>
        <time>2021-10-02T09:07:00Z</time>
      </trkpt>
      <trkpt lat="42.90684" lon="0.29181">
        <ele>1396.2</ele>
        <time>2021-10-02T09:07:01Z</time>
      </trkpt>
      <trkpt lat="42.90685" lon="0.29183">
        <ele>1396.4</ele>
        <time>2021-10-02T09:07:02Z</time>
      </trkpt>
      <trkpt lat="42.90687" lon="0.29186">
        <ele>1396.6</ele>
        <time>2021-10-02T09:07:03Z</time>
      </trkpt>
      <trkpt lat="42.90688" lon="0.29188">
        <ele>1396.8</ele>
        <time>2021-10-02T09:07:04Z</time>
      </trkpt>
      <trkpt lat="42.90689" lon="0.2919">
        <ele>1397</ele>
        <time>2021-10-02T09:07:05Z</time>
      </trkpt>
      <trkpt lat="42.9069" lon="0.29192">
        <ele>1397.4</ele>
        <time>2021-10-02T09:07:06Z</time>
      </trkpt>
      <trkpt lat="42.90691" lon="0.29195">
        <ele>1397.6</ele>
        <time>2021-10-02T09:07:07Z</time>
      </trkpt>
      <trkpt lat="42.90691" lon="0.29197">
        <ele>1397.8</ele>
        <time>2021-10-02T09:07:08Z</time>
      </trkpt>
      <trkpt lat="42.90692" lon="0.292">
        <ele>1398</ele>
        <time>2021-10-02T09:07:09Z</time>
      </trkpt>
      <trkpt lat="42.90693" lon="0.29202">
        <ele>1398.2</ele>
        <time>2021-10-02T09:07:10Z</time>
      </trkpt>
      <trkpt lat="42.90694" lon="0.29205">
        <ele>1398.4</ele>
        <time>2021-10-02T09:07:11Z</time>
      </trkpt>
      <trkpt lat="42.90695" lon="0.29208">
        <ele>1398.4</ele>
        <time>2021-10-02T09:07:12Z</time>
      </trkpt>
      <trkpt lat="42.90695" lon="0.29211">
        <ele>1398.6</ele>
        <time>2021-10-02T09:07:13Z</time>
      </trkpt>
      <trkpt lat="42.90696" lon="0.29213">
        <ele>1398.8</ele>
        <time>2021-10-02T09:07:14Z</time>
      </trkpt>
      <trkpt lat="42.90697" lon="0.29215">
        <ele>1399</ele>
        <time>2021-10-02T09:07:15Z</time>
      </trkpt>
      <trkpt lat="42.90698" lon="0.29217">
        <ele>1398.8</ele>
        <time>2021-10-02T09:07:16Z</time>
      </trkpt>
      <trkpt lat="42.907" lon="0.29219">
        <ele>1399</ele>
        <time>2021-10-02T09:07:17Z</time>
      </trkpt>
      <trkpt lat="42.90702" lon="0.29221">
        <ele>1399</ele>
        <time>2021-10-02T09:07:18Z</time>
      </trkpt>
      <trkpt lat="42.90703" lon="0.29222">
        <ele>1399.2</ele>
        <time>2021-10-02T09:07:19Z</time>
      </trkpt>
      <trkpt lat="42.90704" lon="0.29224">
        <ele>1399.2</ele>
        <time>2021-10-02T09:07:20Z</time>
      </trkpt>
      <trkpt lat="42.90705" lon="0.29226">
        <ele>1399.6</ele>
        <time>2021-10-02T09:07:21Z</time>
      </trkpt>
      <trkpt lat="42.90706" lon="0.29229">
        <ele>1399.6</ele>
        <time>2021-10-02T09:07:22Z</time>
      </trkpt>
      <trkpt lat="42.90707" lon="0.2923">
        <ele>1399.8</ele>
        <time>2021-10-02T09:07:23Z</time>
      </trkpt>
      <trkpt lat="42.90707" lon="0.29233">
        <ele>1399.8</ele>
        <time>2021-10-02T09:07:24Z</time>
      </trkpt>
      <trkpt lat="42.90708" lon="0.29235">
        <ele>1400</ele>
        <time>2021-10-02T09:07:25Z</time>
      </trkpt>
      <trkpt lat="42.90709" lon="0.29236">
        <ele>1400.2</ele>
        <time>2021-10-02T09:07:26Z</time>
      </trkpt>
      <trkpt lat="42.90711" lon="0.29238">
        <ele>1400.4</ele>
        <time>2021-10-02T09:07:27Z</time>
      </trkpt>
      <trkpt lat="42.90712" lon="0.2924">
        <ele>1400.6</ele>
        <time>2021-10-02T09:07:28Z</time>
      </trkpt>
      <trkpt lat="42.90713" lon="0.29242">
        <ele>1400.8</ele>
        <time>2021-10-02T09:07:29Z</time>
      </trkpt>
      <trkpt lat="42.90715" lon="0.29244">
        <ele>1401</ele>
        <time>2021-10-02T09:07:30Z</time>
      </trkpt>
      <trkpt lat="42.90716" lon="0.29245">
        <ele>1401.2</ele>
        <time>2021-10-02T09:07:31Z</time>
      </trkpt>
      <trkpt lat="42.90718" lon="0.29248">
        <ele>1401.4</ele>
        <time>2021-10-02T09:07:32Z</time>
      </trkpt>
      <trkpt lat="42.90719" lon="0.29249">
        <ele>1401.4</ele>
        <time>2021-10-02T09:07:33Z</time>
      </trkpt>
      <trkpt lat="42.90721" lon="0.2925">
        <ele>1401.4</ele>
        <time>2021-10-02T09:07:34Z</time>
      </trkpt>
      <trkpt lat="42.90723" lon="0.29251">
        <ele>1401.4</ele>
        <time>2021-10-02T09:07:35Z</time>
      </trkpt>
      <trkpt lat="42.90725" lon="0.29254">
        <ele>1401.6</ele>
        <time>2021-10-02T09:07:36Z</time>
      </trkpt>
      <trkpt lat="42.90726" lon="0.29255">
        <ele>1401.8</ele>
        <time>2021-10-02T09:07:37Z</time>
      </trkpt>
      <trkpt lat="42.90727" lon="0.29257">
        <ele>1402</ele>
        <time>2021-10-02T09:07:38Z</time>
      </trkpt>
      <trkpt lat="42.90729" lon="0.29259">
        <ele>1402.2</ele>
        <time>2021-10-02T09:07:39Z</time>
      </trkpt>
      <trkpt lat="42.9073" lon="0.29261">
        <ele>1402.4</ele>
        <time>2021-10-02T09:07:40Z</time>
      </trkpt>
      <trkpt lat="42.90731" lon="0.29262">
        <ele>1402.4</ele>
        <time>2021-10-02T09:07:41Z</time>
      </trkpt>
      <trkpt lat="42.90733" lon="0.29264">
        <ele>1402.6</ele>
        <time>2021-10-02T09:07:42Z</time>
      </trkpt>
      <trkpt lat="42.90734" lon="0.29265">
        <ele>1402.6</ele>
        <time>2021-10-02T09:07:43Z</time>
      </trkpt>
      <trkpt lat="42.90735" lon="0.29268">
        <ele>1402.6</ele>
        <time>2021-10-02T09:07:44Z</time>
      </trkpt>
      <trkpt lat="42.90737" lon="0.29269">
        <ele>1402.8</ele>
        <time>2021-10-02T09:07:45Z</time>
      </trkpt>
      <trkpt lat="42.90738" lon="0.29271">
        <ele>1403</ele>
        <time>2021-10-02T09:07:46Z</time>
      </trkpt>
      <trkpt lat="42.9074" lon="0.29273">
        <ele>1403.2</ele>
        <time>2021-10-02T09:07:47Z</time>
      </trkpt>
      <trkpt lat="42.90741" lon="0.29275">
        <ele>1403.2</ele>
        <time>2021-10-02T09:07:48Z</time>
      </trkpt>
      <trkpt lat="42.90742" lon="0.29277">
        <ele>1403.4</ele>
        <time>2021-10-02T09:07:49Z</time>
      </trkpt>
      <trkpt lat="42.90744" lon="0.29278">
        <ele>1403.4</ele>
        <time>2021-10-02T09:07:50Z</time>
      </trkpt>
      <trkpt lat="42.90746" lon="0.29281">
        <ele>1403.6</ele>
        <time>2021-10-02T09:07:51Z</time>
      </trkpt>
      <trkpt lat="42.90747" lon="0.29282">
        <ele>1403.6</ele>
        <time>2021-10-02T09:07:52Z</time>
      </trkpt>
      <trkpt lat="42.90748" lon="0.29284">
        <ele>1403.8</ele>
        <time>2021-10-02T09:07:53Z</time>
      </trkpt>
      <trkpt lat="42.90749" lon="0.29286">
        <ele>1403.8</ele>
        <time>2021-10-02T09:07:54Z</time>
      </trkpt>
      <trkpt lat="42.90751" lon="0.29288">
        <ele>1403.8</ele>
        <time>2021-10-02T09:07:55Z</time>
      </trkpt>
      <trkpt lat="42.90753" lon="0.29291">
        <ele>1403.8</ele>
        <time>2021-10-02T09:07:56Z</time>
      </trkpt>
      <trkpt lat="42.90754" lon="0.29293">
        <ele>1403.8</ele>
        <time>2021-10-02T09:07:57Z</time>
      </trkpt>
      <trkpt lat="42.90755" lon="0.29294">
        <ele>1404</ele>
        <time>2021-10-02T09:07:58Z</time>
      </trkpt>
      <trkpt lat="42.90757" lon="0.29296">
        <ele>1404.2</ele>
        <time>2021-10-02T09:07:59Z</time>
      </trkpt>
      <trkpt lat="42.90758" lon="0.29297">
        <ele>1404.2</ele>
        <time>2021-10-02T09:08:00Z</time>
      </trkpt>
      <trkpt lat="42.9076" lon="0.29299">
        <ele>1404.4</ele>
        <time>2021-10-02T09:08:01Z</time>
      </trkpt>
      <trkpt lat="42.90762" lon="0.29301">
        <ele>1404.4</ele>
        <time>2021-10-02T09:08:02Z</time>
      </trkpt>
      <trkpt lat="42.90763" lon="0.29302">
        <ele>1404.6</ele>
        <time>2021-10-02T09:08:03Z</time>
      </trkpt>
      <trkpt lat="42.90764" lon="0.29303">
        <ele>1404.6</ele>
        <time>2021-10-02T09:08:04Z</time>
      </trkpt>
      <trkpt lat="42.90766" lon="0.29305">
        <ele>1404.8</ele>
        <time>2021-10-02T09:08:05Z</time>
      </trkpt>
      <trkpt lat="42.90767" lon="0.29306">
        <ele>1404.8</ele>
        <time>2021-10-02T09:08:06Z</time>
      </trkpt>
      <trkpt lat="42.90769" lon="0.29308">
        <ele>1404.8</ele>
        <time>2021-10-02T09:08:07Z</time>
      </trkpt>
      <trkpt lat="42.9077" lon="0.2931">
        <ele>1405</ele>
        <time>2021-10-02T09:08:08Z</time>
      </trkpt>
      <trkpt lat="42.90772" lon="0.29311">
        <ele>1405</ele>
        <time>2021-10-02T09:08:09Z</time>
      </trkpt>
      <trkpt lat="42.90773" lon="0.29313">
        <ele>1405.2</ele>
        <time>2021-10-02T09:08:10Z</time>
      </trkpt>
      <trkpt lat="42.90775" lon="0.29314">
        <ele>1405.4</ele>
        <time>2021-10-02T09:08:11Z</time>
      </trkpt>
      <trkpt lat="42.90776" lon="0.29315">
        <ele>1405.6</ele>
        <time>2021-10-02T09:08:12Z</time>
      </trkpt>
      <trkpt lat="42.90777" lon="0.29317">
        <ele>1405.6</ele>
        <time>2021-10-02T09:08:13Z</time>
      </trkpt>
      <trkpt lat="42.90779" lon="0.29319">
        <ele>1406</ele>
        <time>2021-10-02T09:08:14Z</time>
      </trkpt>
      <trkpt lat="42.9078" lon="0.29321">
        <ele>1406.2</ele>
        <time>2021-10-02T09:08:15Z</time>
      </trkpt>
      <trkpt lat="42.90782" lon="0.29322">
        <ele>1406.4</ele>
        <time>2021-10-02T09:08:16Z</time>
      </trkpt>
      <trkpt lat="42.90783" lon="0.29324">
        <ele>1406.6</ele>
        <time>2021-10-02T09:08:17Z</time>
      </trkpt>
      <trkpt lat="42.90786" lon="0.29325">
        <ele>1406.6</ele>
        <time>2021-10-02T09:08:18Z</time>
      </trkpt>
      <trkpt lat="42.90787" lon="0.29326">
        <ele>1406.8</ele>
        <time>2021-10-02T09:08:19Z</time>
      </trkpt>
      <trkpt lat="42.90789" lon="0.29328">
        <ele>1407</ele>
        <time>2021-10-02T09:08:20Z</time>
      </trkpt>
      <trkpt lat="42.9079" lon="0.29329">
        <ele>1407</ele>
        <time>2021-10-02T09:08:21Z</time>
      </trkpt>
      <trkpt lat="42.90792" lon="0.29331">
        <ele>1407.2</ele>
        <time>2021-10-02T09:08:22Z</time>
      </trkpt>
      <trkpt lat="42.90793" lon="0.29333">
        <ele>1407.2</ele>
        <time>2021-10-02T09:08:23Z</time>
      </trkpt>
      <trkpt lat="42.90794" lon="0.29335">
        <ele>1407.4</ele>
        <time>2021-10-02T09:08:24Z</time>
      </trkpt>
      <trkpt lat="42.90795" lon="0.29336">
        <ele>1407.8</ele>
        <time>2021-10-02T09:08:25Z</time>
      </trkpt>
      <trkpt lat="42.90796" lon="0.29338">
        <ele>1407.8</ele>
        <time>2021-10-02T09:08:26Z</time>
      </trkpt>
      <trkpt lat="42.90798" lon="0.2934">
        <ele>1408</ele>
        <time>2021-10-02T09:08:27Z</time>
      </trkpt>
      <trkpt lat="42.90799" lon="0.29342">
        <ele>1408</ele>
        <time>2021-10-02T09:08:28Z</time>
      </trkpt>
      <trkpt lat="42.90801" lon="0.29345">
        <ele>1408.2</ele>
        <time>2021-10-02T09:08:29Z</time>
      </trkpt>
      <trkpt lat="42.90803" lon="0.29347">
        <ele>1408.2</ele>
        <time>2021-10-02T09:08:30Z</time>
      </trkpt>
      <trkpt lat="42.90804" lon="0.2935">
        <ele>1408.2</ele>
        <time>2021-10-02T09:08:31Z</time>
      </trkpt>
      <trkpt lat="42.90806" lon="0.29352">
        <ele>1408.2</ele>
        <time>2021-10-02T09:08:32Z</time>
      </trkpt>
      <trkpt lat="42.90807" lon="0.29355">
        <ele>1408.4</ele>
        <time>2021-10-02T09:08:33Z</time>
      </trkpt>
      <trkpt lat="42.90808" lon="0.29357">
        <ele>1408.4</ele>
        <time>2021-10-02T09:08:34Z</time>
      </trkpt>
      <trkpt lat="42.90809" lon="0.29359">
        <ele>1408.6</ele>
        <time>2021-10-02T09:08:35Z</time>
      </trkpt>
      <trkpt lat="42.90811" lon="0.29361">
        <ele>1408.6</ele>
        <time>2021-10-02T09:08:36Z</time>
      </trkpt>
      <trkpt lat="42.90811" lon="0.29363">
        <ele>1408.6</ele>
        <time>2021-10-02T09:08:37Z</time>
      </trkpt>
      <trkpt lat="42.90812" lon="0.29366">
        <ele>1408.6</ele>
        <time>2021-10-02T09:08:38Z</time>
      </trkpt>
      <trkpt lat="42.90814" lon="0.29368">
        <ele>1408.6</ele>
        <time>2021-10-02T09:08:39Z</time>
      </trkpt>
      <trkpt lat="42.90815" lon="0.2937">
        <ele>1408.8</ele>
        <time>2021-10-02T09:08:40Z</time>
      </trkpt>
      <trkpt lat="42.90816" lon="0.29372">
        <ele>1408.8</ele>
        <time>2021-10-02T09:08:41Z</time>
      </trkpt>
      <trkpt lat="42.90817" lon="0.29375">
        <ele>1409</ele>
        <time>2021-10-02T09:08:42Z</time>
      </trkpt>
      <trkpt lat="42.90819" lon="0.29377">
        <ele>1409</ele>
        <time>2021-10-02T09:08:43Z</time>
      </trkpt>
      <trkpt lat="42.9082" lon="0.29379">
        <ele>1409</ele>
        <time>2021-10-02T09:08:44Z</time>
      </trkpt>
      <trkpt lat="42.90822" lon="0.29381">
        <ele>1409.2</ele>
        <time>2021-10-02T09:08:45Z</time>
      </trkpt>
      <trkpt lat="42.90825" lon="0.29388">
        <ele>1409.4</ele>
        <time>2021-10-02T09:08:48Z</time>
      </trkpt>
      <trkpt lat="42.90828" lon="0.29392">
        <ele>1409.8</ele>
        <time>2021-10-02T09:08:50Z</time>
      </trkpt>
      <trkpt lat="42.90834" lon="0.29402">
        <ele>1410.2</ele>
        <time>2021-10-02T09:08:55Z</time>
      </trkpt>
      <trkpt lat="42.90835" lon="0.29404">
        <ele>1410.4</ele>
        <time>2021-10-02T09:08:57Z</time>
      </trkpt>
      <trkpt lat="42.9084" lon="0.2941">
        <ele>1410.6</ele>
        <time>2021-10-02T09:09:00Z</time>
      </trkpt>
      <trkpt lat="42.90841" lon="0.29412">
        <ele>1410.8</ele>
        <time>2021-10-02T09:09:01Z</time>
      </trkpt>
      <trkpt lat="42.90843" lon="0.29414">
        <ele>1410.8</ele>
        <time>2021-10-02T09:09:02Z</time>
      </trkpt>
      <trkpt lat="42.90844" lon="0.29416">
        <ele>1410.8</ele>
        <time>2021-10-02T09:09:03Z</time>
      </trkpt>
      <trkpt lat="42.90846" lon="0.29419">
        <ele>1411</ele>
        <time>2021-10-02T09:09:04Z</time>
      </trkpt>
      <trkpt lat="42.90847" lon="0.29421">
        <ele>1411</ele>
        <time>2021-10-02T09:09:05Z</time>
      </trkpt>
      <trkpt lat="42.90848" lon="0.29423">
        <ele>1411.2</ele>
        <time>2021-10-02T09:09:06Z</time>
      </trkpt>
      <trkpt lat="42.90849" lon="0.29425">
        <ele>1411.2</ele>
        <time>2021-10-02T09:09:07Z</time>
      </trkpt>
      <trkpt lat="42.90851" lon="0.29428">
        <ele>1411.2</ele>
        <time>2021-10-02T09:09:08Z</time>
      </trkpt>
      <trkpt lat="42.90852" lon="0.29429">
        <ele>1411.4</ele>
        <time>2021-10-02T09:09:09Z</time>
      </trkpt>
      <trkpt lat="42.90854" lon="0.29432">
        <ele>1411.4</ele>
        <time>2021-10-02T09:09:10Z</time>
      </trkpt>
      <trkpt lat="42.90855" lon="0.29434">
        <ele>1411.8</ele>
        <time>2021-10-02T09:09:11Z</time>
      </trkpt>
      <trkpt lat="42.90856" lon="0.29436">
        <ele>1411.8</ele>
        <time>2021-10-02T09:09:12Z</time>
      </trkpt>
      <trkpt lat="42.90858" lon="0.29438">
        <ele>1411.8</ele>
        <time>2021-10-02T09:09:13Z</time>
      </trkpt>
      <trkpt lat="42.90867" lon="0.29452">
        <ele>1412.2</ele>
        <time>2021-10-02T09:09:20Z</time>
      </trkpt>
      <trkpt lat="42.90868" lon="0.29454">
        <ele>1412.4</ele>
        <time>2021-10-02T09:09:21Z</time>
      </trkpt>
      <trkpt lat="42.9087" lon="0.29457">
        <ele>1412.6</ele>
        <time>2021-10-02T09:09:22Z</time>
      </trkpt>
      <trkpt lat="42.90872" lon="0.29461">
        <ele>1412.6</ele>
        <time>2021-10-02T09:09:24Z</time>
      </trkpt>
      <trkpt lat="42.90874" lon="0.29463">
        <ele>1412.8</ele>
        <time>2021-10-02T09:09:25Z</time>
      </trkpt>
      <trkpt lat="42.90875" lon="0.29465">
        <ele>1412.8</ele>
        <time>2021-10-02T09:09:26Z</time>
      </trkpt>
      <trkpt lat="42.9088" lon="0.29471">
        <ele>1413</ele>
        <time>2021-10-02T09:09:29Z</time>
      </trkpt>
      <trkpt lat="42.90883" lon="0.29475">
        <ele>1413.4</ele>
        <time>2021-10-02T09:09:31Z</time>
      </trkpt>
      <trkpt lat="42.90894" lon="0.29489">
        <ele>1414.2</ele>
        <time>2021-10-02T09:09:38Z</time>
      </trkpt>
      <trkpt lat="42.90896" lon="0.29491">
        <ele>1414.4</ele>
        <time>2021-10-02T09:09:39Z</time>
      </trkpt>
      <trkpt lat="42.90903" lon="0.29498">
        <ele>1415.2</ele>
        <time>2021-10-02T09:09:43Z</time>
      </trkpt>
      <trkpt lat="42.90904" lon="0.295">
        <ele>1415.4</ele>
        <time>2021-10-02T09:09:44Z</time>
      </trkpt>
      <trkpt lat="42.90906" lon="0.29501">
        <ele>1415.6</ele>
        <time>2021-10-02T09:09:45Z</time>
      </trkpt>
      <trkpt lat="42.90907" lon="0.29503">
        <ele>1415.8</ele>
        <time>2021-10-02T09:09:46Z</time>
      </trkpt>
      <trkpt lat="42.90908" lon="0.29505">
        <ele>1416</ele>
        <time>2021-10-02T09:09:47Z</time>
      </trkpt>
      <trkpt lat="42.9091" lon="0.29508">
        <ele>1416</ele>
        <time>2021-10-02T09:09:48Z</time>
      </trkpt>
      <trkpt lat="42.9091" lon="0.29511">
        <ele>1416</ele>
        <time>2021-10-02T09:09:49Z</time>
      </trkpt>
      <trkpt lat="42.90911" lon="0.29513">
        <ele>1416</ele>
        <time>2021-10-02T09:09:50Z</time>
      </trkpt>
      <trkpt lat="42.90912" lon="0.29515">
        <ele>1416.2</ele>
        <time>2021-10-02T09:09:51Z</time>
      </trkpt>
      <trkpt lat="42.90913" lon="0.29517">
        <ele>1416.2</ele>
        <time>2021-10-02T09:09:52Z</time>
      </trkpt>
      <trkpt lat="42.90915" lon="0.2952">
        <ele>1416.2</ele>
        <time>2021-10-02T09:09:53Z</time>
      </trkpt>
      <trkpt lat="42.90916" lon="0.29522">
        <ele>1416.4</ele>
        <time>2021-10-02T09:09:54Z</time>
      </trkpt>
      <trkpt lat="42.90917" lon="0.29524">
        <ele>1416.4</ele>
        <time>2021-10-02T09:09:55Z</time>
      </trkpt>
      <trkpt lat="42.90919" lon="0.29526">
        <ele>1416.6</ele>
        <time>2021-10-02T09:09:56Z</time>
      </trkpt>
      <trkpt lat="42.9092" lon="0.29528">
        <ele>1416.6</ele>
        <time>2021-10-02T09:09:57Z</time>
      </trkpt>
      <trkpt lat="42.90922" lon="0.2953">
        <ele>1416.8</ele>
        <time>2021-10-02T09:09:58Z</time>
      </trkpt>
      <trkpt lat="42.90924" lon="0.29532">
        <ele>1416.8</ele>
        <time>2021-10-02T09:09:59Z</time>
      </trkpt>
      <trkpt lat="42.90925" lon="0.29534">
        <ele>1417</ele>
        <time>2021-10-02T09:10:00Z</time>
      </trkpt>
      <trkpt lat="42.90927" lon="0.29537">
        <ele>1417</ele>
        <time>2021-10-02T09:10:01Z</time>
      </trkpt>
      <trkpt lat="42.90928" lon="0.29539">
        <ele>1417.2</ele>
        <time>2021-10-02T09:10:02Z</time>
      </trkpt>
      <trkpt lat="42.90929" lon="0.29541">
        <ele>1417.2</ele>
        <time>2021-10-02T09:10:03Z</time>
      </trkpt>
      <trkpt lat="42.90931" lon="0.29544">
        <ele>1417.2</ele>
        <time>2021-10-02T09:10:04Z</time>
      </trkpt>
      <trkpt lat="42.90932" lon="0.29547">
        <ele>1417.4</ele>
        <time>2021-10-02T09:10:05Z</time>
      </trkpt>
      <trkpt lat="42.90934" lon="0.29549">
        <ele>1417.4</ele>
        <time>2021-10-02T09:10:06Z</time>
      </trkpt>
      <trkpt lat="42.90935" lon="0.29551">
        <ele>1417.4</ele>
        <time>2021-10-02T09:10:07Z</time>
      </trkpt>
      <trkpt lat="42.90936" lon="0.29554">
        <ele>1417.8</ele>
        <time>2021-10-02T09:10:08Z</time>
      </trkpt>
      <trkpt lat="42.90938" lon="0.29556">
        <ele>1418</ele>
        <time>2021-10-02T09:10:09Z</time>
      </trkpt>
      <trkpt lat="42.9094" lon="0.29558">
        <ele>1418.2</ele>
        <time>2021-10-02T09:10:10Z</time>
      </trkpt>
      <trkpt lat="42.90941" lon="0.29561">
        <ele>1418.4</ele>
        <time>2021-10-02T09:10:11Z</time>
      </trkpt>
      <trkpt lat="42.90942" lon="0.29563">
        <ele>1418.6</ele>
        <time>2021-10-02T09:10:12Z</time>
      </trkpt>
      <trkpt lat="42.90944" lon="0.29565">
        <ele>1418.6</ele>
        <time>2021-10-02T09:10:13Z</time>
      </trkpt>
      <trkpt lat="42.90945" lon="0.29568">
        <ele>1418.6</ele>
        <time>2021-10-02T09:10:14Z</time>
      </trkpt>
      <trkpt lat="42.90947" lon="0.2957">
        <ele>1418.8</ele>
        <time>2021-10-02T09:10:15Z</time>
      </trkpt>
      <trkpt lat="42.90948" lon="0.29573">
        <ele>1418.8</ele>
        <time>2021-10-02T09:10:16Z</time>
      </trkpt>
      <trkpt lat="42.9095" lon="0.29575">
        <ele>1419</ele>
        <time>2021-10-02T09:10:17Z</time>
      </trkpt>
      <trkpt lat="42.90951" lon="0.29578">
        <ele>1419</ele>
        <time>2021-10-02T09:10:18Z</time>
      </trkpt>
      <trkpt lat="42.90953" lon="0.2958">
        <ele>1419</ele>
        <time>2021-10-02T09:10:19Z</time>
      </trkpt>
      <trkpt lat="42.90954" lon="0.29582">
        <ele>1419.2</ele>
        <time>2021-10-02T09:10:20Z</time>
      </trkpt>
      <trkpt lat="42.90955" lon="0.29585">
        <ele>1419.2</ele>
        <time>2021-10-02T09:10:21Z</time>
      </trkpt>
      <trkpt lat="42.90957" lon="0.29587">
        <ele>1419.2</ele>
        <time>2021-10-02T09:10:22Z</time>
      </trkpt>
      <trkpt lat="42.90958" lon="0.2959">
        <ele>1419.2</ele>
        <time>2021-10-02T09:10:23Z</time>
      </trkpt>
      <trkpt lat="42.90959" lon="0.29593">
        <ele>1419.4</ele>
        <time>2021-10-02T09:10:24Z</time>
      </trkpt>
      <trkpt lat="42.90961" lon="0.29595">
        <ele>1419.4</ele>
        <time>2021-10-02T09:10:25Z</time>
      </trkpt>
      <trkpt lat="42.90962" lon="0.29598">
        <ele>1419.4</ele>
        <time>2021-10-02T09:10:26Z</time>
      </trkpt>
      <trkpt lat="42.90963" lon="0.296">
        <ele>1419.6</ele>
        <time>2021-10-02T09:10:27Z</time>
      </trkpt>
      <trkpt lat="42.90964" lon="0.29603">
        <ele>1419.6</ele>
        <time>2021-10-02T09:10:28Z</time>
      </trkpt>
      <trkpt lat="42.90971" lon="0.29616">
        <ele>1420.2</ele>
        <time>2021-10-02T09:10:33Z</time>
      </trkpt>
      <trkpt lat="42.90978" lon="0.29628">
        <ele>1420.4</ele>
        <time>2021-10-02T09:10:38Z</time>
      </trkpt>
      <trkpt lat="42.90981" lon="0.29633">
        <ele>1420.4</ele>
        <time>2021-10-02T09:10:40Z</time>
      </trkpt>
      <trkpt lat="42.90985" lon="0.2964">
        <ele>1420.6</ele>
        <time>2021-10-02T09:10:43Z</time>
      </trkpt>
      <trkpt lat="42.90986" lon="0.29643">
        <ele>1420.6</ele>
        <time>2021-10-02T09:10:44Z</time>
      </trkpt>
      <trkpt lat="42.90994" lon="0.29657">
        <ele>1421</ele>
        <time>2021-10-02T09:10:50Z</time>
      </trkpt>
      <trkpt lat="42.90995" lon="0.2966">
        <ele>1421.2</ele>
        <time>2021-10-02T09:10:51Z</time>
      </trkpt>
      <trkpt lat="42.90998" lon="0.29665">
        <ele>1421.4</ele>
        <time>2021-10-02T09:10:53Z</time>
      </trkpt>
      <trkpt lat="42.91" lon="0.29667">
        <ele>1421.6</ele>
        <time>2021-10-02T09:10:54Z</time>
      </trkpt>
      <trkpt lat="42.91007" lon="0.2968">
        <ele>1422.2</ele>
        <time>2021-10-02T09:10:59Z</time>
      </trkpt>
      <trkpt lat="42.91017" lon="0.297">
        <ele>1422.8</ele>
        <time>2021-10-02T09:11:07Z</time>
      </trkpt>
      <trkpt lat="42.91019" lon="0.29703">
        <ele>1423</ele>
        <time>2021-10-02T09:11:08Z</time>
      </trkpt>
      <trkpt lat="42.91032" lon="0.29729">
        <ele>1423.4</ele>
        <time>2021-10-02T09:11:17Z</time>
      </trkpt>
      <trkpt lat="42.91041" lon="0.29753">
        <ele>1423.2</ele>
        <time>2021-10-02T09:11:24Z</time>
      </trkpt>
      <trkpt lat="42.91043" lon="0.29755">
        <ele>1423</ele>
        <time>2021-10-02T09:11:25Z</time>
      </trkpt>
      <trkpt lat="42.91044" lon="0.29756">
        <ele>1423</ele>
        <time>2021-10-02T09:11:26Z</time>
      </trkpt>
      <trkpt lat="42.91046" lon="0.29758">
        <ele>1422.8</ele>
        <time>2021-10-02T09:11:27Z</time>
      </trkpt>
      <trkpt lat="42.91048" lon="0.29758">
        <ele>1422.8</ele>
        <time>2021-10-02T09:11:28Z</time>
      </trkpt>
      <trkpt lat="42.91051" lon="0.29757">
        <ele>1422.6</ele>
        <time>2021-10-02T09:11:29Z</time>
      </trkpt>
      <trkpt lat="42.91053" lon="0.29756">
        <ele>1422.6</ele>
        <time>2021-10-02T09:11:30Z</time>
      </trkpt>
      <trkpt lat="42.91056" lon="0.29754">
        <ele>1422.4</ele>
        <time>2021-10-02T09:11:31Z</time>
      </trkpt>
      <trkpt lat="42.91059" lon="0.29754">
        <ele>1422.4</ele>
        <time>2021-10-02T09:11:32Z</time>
      </trkpt>
      <trkpt lat="42.91064" lon="0.29756">
        <ele>1422.4</ele>
        <time>2021-10-02T09:11:34Z</time>
      </trkpt>
      <trkpt lat="42.91088" lon="0.29757">
        <ele>1422</ele>
        <time>2021-10-02T09:11:40Z</time>
      </trkpt>
      <trkpt lat="42.91096" lon="0.29756">
        <ele>1421.8</ele>
        <time>2021-10-02T09:11:42Z</time>
      </trkpt>
      <trkpt lat="42.911" lon="0.29756">
        <ele>1421.6</ele>
        <time>2021-10-02T09:11:43Z</time>
      </trkpt>
      <trkpt lat="42.91104" lon="0.29756">
        <ele>1421.2</ele>
        <time>2021-10-02T09:11:44Z</time>
      </trkpt>
      <trkpt lat="42.91108" lon="0.29755">
        <ele>1421</ele>
        <time>2021-10-02T09:11:45Z</time>
      </trkpt>
      <trkpt lat="42.91116" lon="0.29753">
        <ele>1421</ele>
        <time>2021-10-02T09:11:47Z</time>
      </trkpt>
      <trkpt lat="42.9112" lon="0.29752">
        <ele>1420.8</ele>
        <time>2021-10-02T09:11:48Z</time>
      </trkpt>
      <trkpt lat="42.91122" lon="0.29752">
        <ele>1420.8</ele>
        <time>2021-10-02T09:11:49Z</time>
      </trkpt>
      <trkpt lat="42.91125" lon="0.29751">
        <ele>1420.4</ele>
        <time>2021-10-02T09:11:50Z</time>
      </trkpt>
      <trkpt lat="42.91128" lon="0.29751">
        <ele>1420.4</ele>
        <time>2021-10-02T09:11:51Z</time>
      </trkpt>
      <trkpt lat="42.9113" lon="0.29751">
        <ele>1420</ele>
        <time>2021-10-02T09:11:52Z</time>
      </trkpt>
      <trkpt lat="42.91133" lon="0.2975">
        <ele>1419.8</ele>
        <time>2021-10-02T09:11:53Z</time>
      </trkpt>
      <trkpt lat="42.91135" lon="0.29749">
        <ele>1419.6</ele>
        <time>2021-10-02T09:11:54Z</time>
      </trkpt>
      <trkpt lat="42.91137" lon="0.29749">
        <ele>1419.4</ele>
        <time>2021-10-02T09:11:55Z</time>
      </trkpt>
      <trkpt lat="42.91139" lon="0.2975">
        <ele>1419</ele>
        <time>2021-10-02T09:11:56Z</time>
      </trkpt>
      <trkpt lat="42.9114" lon="0.29751">
        <ele>1418.4</ele>
        <time>2021-10-02T09:11:57Z</time>
      </trkpt>
      <trkpt lat="42.91141" lon="0.29751">
        <ele>1418.2</ele>
        <time>2021-10-02T09:11:58Z</time>
      </trkpt>
      <trkpt lat="42.91143" lon="0.29751">
        <ele>1418</ele>
        <time>2021-10-02T09:11:59Z</time>
      </trkpt>
      <trkpt lat="42.91145" lon="0.2975">
        <ele>1417.6</ele>
        <time>2021-10-02T09:12:01Z</time>
      </trkpt>
      <trkpt lat="42.91145" lon="0.29749">
        <ele>1417.6</ele>
        <time>2021-10-02T09:12:02Z</time>
      </trkpt>
      <trkpt lat="42.91145" lon="0.29748">
        <ele>1417.4</ele>
        <time>2021-10-02T09:12:03Z</time>
      </trkpt>
      <trkpt lat="42.91144" lon="0.29747">
        <ele>1417</ele>
        <time>2021-10-02T09:12:07Z</time>
      </trkpt>
      <trkpt lat="42.9114" lon="0.29748">
        <ele>1416.8</ele>
        <time>2021-10-02T09:12:10Z</time>
      </trkpt>
      <trkpt lat="42.91138" lon="0.29749">
        <ele>1416.8</ele>
        <time>2021-10-02T09:12:11Z</time>
      </trkpt>
      <trkpt lat="42.91137" lon="0.2975">
        <ele>1416.8</ele>
        <time>2021-10-02T09:12:12Z</time>
      </trkpt>
      <trkpt lat="42.91123" lon="0.29754">
        <ele>1417.6</ele>
        <time>2021-10-02T09:12:20Z</time>
      </trkpt>
      <trkpt lat="42.91112" lon="0.29756">
        <ele>1418.4</ele>
        <time>2021-10-02T09:12:26Z</time>
      </trkpt>
      <trkpt lat="42.9111" lon="0.29756">
        <ele>1418.6</ele>
        <time>2021-10-02T09:12:27Z</time>
      </trkpt>
      <trkpt lat="42.91096" lon="0.29758">
        <ele>1419.4</ele>
        <time>2021-10-02T09:12:34Z</time>
      </trkpt>
      <trkpt lat="42.91095" lon="0.29758">
        <ele>1419.4</ele>
        <time>2021-10-02T09:12:35Z</time>
      </trkpt>
      <trkpt lat="42.91091" lon="0.29758">
        <ele>1419.6</ele>
        <time>2021-10-02T09:12:37Z</time>
      </trkpt>
      <trkpt lat="42.91083" lon="0.29757">
        <ele>1420</ele>
        <time>2021-10-02T09:12:41Z</time>
      </trkpt>
      <trkpt lat="42.9108" lon="0.29758">
        <ele>1420.2</ele>
        <time>2021-10-02T09:12:43Z</time>
      </trkpt>
      <trkpt lat="42.91078" lon="0.29759">
        <ele>1420.4</ele>
        <time>2021-10-02T09:12:44Z</time>
      </trkpt>
      <trkpt lat="42.91076" lon="0.29759">
        <ele>1420.6</ele>
        <time>2021-10-02T09:12:45Z</time>
      </trkpt>
      <trkpt lat="42.91072" lon="0.29759">
        <ele>1421</ele>
        <time>2021-10-02T09:12:47Z</time>
      </trkpt>
      <trkpt lat="42.91071" lon="0.29758">
        <ele>1421.2</ele>
        <time>2021-10-02T09:12:48Z</time>
      </trkpt>
      <trkpt lat="42.91069" lon="0.29758">
        <ele>1421.2</ele>
        <time>2021-10-02T09:12:49Z</time>
      </trkpt>
      <trkpt lat="42.91067" lon="0.29758">
        <ele>1421.4</ele>
        <time>2021-10-02T09:12:50Z</time>
      </trkpt>
      <trkpt lat="42.91065" lon="0.29758">
        <ele>1421.6</ele>
        <time>2021-10-02T09:12:51Z</time>
      </trkpt>
      <trkpt lat="42.91063" lon="0.29757">
        <ele>1421.4</ele>
        <time>2021-10-02T09:12:52Z</time>
      </trkpt>
      <trkpt lat="42.91062" lon="0.29757">
        <ele>1421.6</ele>
        <time>2021-10-02T09:12:53Z</time>
      </trkpt>
      <trkpt lat="42.9106" lon="0.29757">
        <ele>1421.8</ele>
        <time>2021-10-02T09:12:54Z</time>
      </trkpt>
      <trkpt lat="42.91058" lon="0.29756">
        <ele>1421.8</ele>
        <time>2021-10-02T09:12:55Z</time>
      </trkpt>
      <trkpt lat="42.91056" lon="0.29756">
        <ele>1422</ele>
        <time>2021-10-02T09:12:56Z</time>
      </trkpt>
      <trkpt lat="42.91055" lon="0.29757">
        <ele>1422</ele>
        <time>2021-10-02T09:12:57Z</time>
      </trkpt>
      <trkpt lat="42.91053" lon="0.29757">
        <ele>1422.2</ele>
        <time>2021-10-02T09:12:58Z</time>
      </trkpt>
      <trkpt lat="42.91052" lon="0.29758">
        <ele>1422.2</ele>
        <time>2021-10-02T09:12:59Z</time>
      </trkpt>
      <trkpt lat="42.91051" lon="0.29759">
        <ele>1422.4</ele>
        <time>2021-10-02T09:13:00Z</time>
      </trkpt>
      <trkpt lat="42.9105" lon="0.29759">
        <ele>1422.4</ele>
        <time>2021-10-02T09:13:01Z</time>
      </trkpt>
      <trkpt lat="42.9105" lon="0.29759">
        <ele>1422.6</ele>
        <time>2021-10-02T09:13:06Z</time>
      </trkpt>
      <trkpt lat="42.9105" lon="0.29759">
        <ele>1422.6</ele>
        <time>2021-10-02T09:13:54Z</time>
      </trkpt>
      <trkpt lat="42.91051" lon="0.29758">
        <ele>1423.6</ele>
        <time>2021-10-02T09:15:45Z</time>
      </trkpt>
      <trkpt lat="42.91051" lon="0.29758">
        <ele>1422.6</ele>
        <time>2021-10-02T09:17:37Z</time>
      </trkpt>
      <trkpt lat="42.91047" lon="0.29758">
        <ele>1422.6</ele>
        <time>2021-10-02T09:17:51Z</time>
      </trkpt>
      <trkpt lat="42.91046" lon="0.29758">
        <ele>1422.6</ele>
        <time>2021-10-02T09:17:52Z</time>
      </trkpt>
      <trkpt lat="42.91045" lon="0.29759">
        <ele>1422.6</ele>
        <time>2021-10-02T09:17:53Z</time>
      </trkpt>
      <trkpt lat="42.91041" lon="0.29754">
        <ele>1422.6</ele>
        <time>2021-10-02T09:17:56Z</time>
      </trkpt>
      <trkpt lat="42.91039" lon="0.29749">
        <ele>1422.6</ele>
        <time>2021-10-02T09:17:58Z</time>
      </trkpt>
      <trkpt lat="42.91038" lon="0.29747">
        <ele>1422.6</ele>
        <time>2021-10-02T09:17:59Z</time>
      </trkpt>
      <trkpt lat="42.91038" lon="0.29744">
        <ele>1422.6</ele>
        <time>2021-10-02T09:18:00Z</time>
      </trkpt>
      <trkpt lat="42.91037" lon="0.29742">
        <ele>1422.6</ele>
        <time>2021-10-02T09:18:01Z</time>
      </trkpt>
      <trkpt lat="42.91035" lon="0.29735">
        <ele>1423.2</ele>
        <time>2021-10-02T09:18:04Z</time>
      </trkpt>
      <trkpt lat="42.91033" lon="0.29731">
        <ele>1423.4</ele>
        <time>2021-10-02T09:18:06Z</time>
      </trkpt>
      <trkpt lat="42.91032" lon="0.29729">
        <ele>1423.4</ele>
        <time>2021-10-02T09:18:07Z</time>
      </trkpt>
      <trkpt lat="42.91031" lon="0.29727">
        <ele>1423.6</ele>
        <time>2021-10-02T09:18:08Z</time>
      </trkpt>
      <trkpt lat="42.9103" lon="0.29725">
        <ele>1423.6</ele>
        <time>2021-10-02T09:18:09Z</time>
      </trkpt>
      <trkpt lat="42.91029" lon="0.29723">
        <ele>1423.6</ele>
        <time>2021-10-02T09:18:10Z</time>
      </trkpt>
      <trkpt lat="42.91029" lon="0.2972">
        <ele>1423.6</ele>
        <time>2021-10-02T09:18:11Z</time>
      </trkpt>
      <trkpt lat="42.91027" lon="0.29716">
        <ele>1423.6</ele>
        <time>2021-10-02T09:18:13Z</time>
      </trkpt>
      <trkpt lat="42.9102" lon="0.29701">
        <ele>1424</ele>
        <time>2021-10-02T09:18:20Z</time>
      </trkpt>
      <trkpt lat="42.91019" lon="0.29699">
        <ele>1424</ele>
        <time>2021-10-02T09:18:21Z</time>
      </trkpt>
      <trkpt lat="42.91011" lon="0.29685">
        <ele>1424</ele>
        <time>2021-10-02T09:18:27Z</time>
      </trkpt>
      <trkpt lat="42.91004" lon="0.2967">
        <ele>1423.8</ele>
        <time>2021-10-02T09:18:34Z</time>
      </trkpt>
      <trkpt lat="42.91004" lon="0.29668">
        <ele>1423.6</ele>
        <time>2021-10-02T09:18:35Z</time>
      </trkpt>
      <trkpt lat="42.91003" lon="0.29666">
        <ele>1423.6</ele>
        <time>2021-10-02T09:18:36Z</time>
      </trkpt>
      <trkpt lat="42.91002" lon="0.29665">
        <ele>1423.6</ele>
        <time>2021-10-02T09:18:37Z</time>
      </trkpt>
      <trkpt lat="42.91002" lon="0.29663">
        <ele>1423.4</ele>
        <time>2021-10-02T09:18:38Z</time>
      </trkpt>
      <trkpt lat="42.91001" lon="0.29662">
        <ele>1423.4</ele>
        <time>2021-10-02T09:18:39Z</time>
      </trkpt>
      <trkpt lat="42.91" lon="0.2966">
        <ele>1423.4</ele>
        <time>2021-10-02T09:18:40Z</time>
      </trkpt>
      <trkpt lat="42.90999" lon="0.29659">
        <ele>1423.4</ele>
        <time>2021-10-02T09:18:41Z</time>
      </trkpt>
      <trkpt lat="42.90999" lon="0.29657">
        <ele>1423.2</ele>
        <time>2021-10-02T09:18:42Z</time>
      </trkpt>
      <trkpt lat="42.90993" lon="0.29648">
        <ele>1422.8</ele>
        <time>2021-10-02T09:18:47Z</time>
      </trkpt>
      <trkpt lat="42.90992" lon="0.29646">
        <ele>1422.8</ele>
        <time>2021-10-02T09:18:48Z</time>
      </trkpt>
      <trkpt lat="42.9099" lon="0.29646">
        <ele>1422.6</ele>
        <time>2021-10-02T09:18:49Z</time>
      </trkpt>
      <trkpt lat="42.90988" lon="0.29646">
        <ele>1422.4</ele>
        <time>2021-10-02T09:18:50Z</time>
      </trkpt>
      <trkpt lat="42.90988" lon="0.2965">
        <ele>1422.4</ele>
        <time>2021-10-02T09:18:52Z</time>
      </trkpt>
      <trkpt lat="42.90997" lon="0.29665">
        <ele>1422.6</ele>
        <time>2021-10-02T09:18:58Z</time>
      </trkpt>
      <trkpt lat="42.91008" lon="0.29686">
        <ele>1422.8</ele>
        <time>2021-10-02T09:19:06Z</time>
      </trkpt>
      <trkpt lat="42.91015" lon="0.297">
        <ele>1423.2</ele>
        <time>2021-10-02T09:19:12Z</time>
      </trkpt>
      <trkpt lat="42.91016" lon="0.29703">
        <ele>1423.4</ele>
        <time>2021-10-02T09:19:13Z</time>
      </trkpt>
      <trkpt lat="42.91018" lon="0.29705">
        <ele>1423.4</ele>
        <time>2021-10-02T09:19:14Z</time>
      </trkpt>
      <trkpt lat="42.91018" lon="0.29707">
        <ele>1423.4</ele>
        <time>2021-10-02T09:19:15Z</time>
      </trkpt>
      <trkpt lat="42.9102" lon="0.2971">
        <ele>1423.6</ele>
        <time>2021-10-02T09:19:16Z</time>
      </trkpt>
      <trkpt lat="42.91021" lon="0.29711">
        <ele>1423.6</ele>
        <time>2021-10-02T09:19:17Z</time>
      </trkpt>
      <trkpt lat="42.91022" lon="0.29713">
        <ele>1423.6</ele>
        <time>2021-10-02T09:19:18Z</time>
      </trkpt>
      <trkpt lat="42.91023" lon="0.29715">
        <ele>1423.8</ele>
        <time>2021-10-02T09:19:19Z</time>
      </trkpt>
      <trkpt lat="42.91024" lon="0.29718">
        <ele>1423.8</ele>
        <time>2021-10-02T09:19:20Z</time>
      </trkpt>
      <trkpt lat="42.91025" lon="0.2972">
        <ele>1423.8</ele>
        <time>2021-10-02T09:19:21Z</time>
      </trkpt>
      <trkpt lat="42.91026" lon="0.29722">
        <ele>1423.8</ele>
        <time>2021-10-02T09:19:22Z</time>
      </trkpt>
      <trkpt lat="42.91027" lon="0.29725">
        <ele>1423.8</ele>
        <time>2021-10-02T09:19:23Z</time>
      </trkpt>
      <trkpt lat="42.91029" lon="0.29727">
        <ele>1423.8</ele>
        <time>2021-10-02T09:19:24Z</time>
      </trkpt>
      <trkpt lat="42.9103" lon="0.29729">
        <ele>1423.8</ele>
        <time>2021-10-02T09:19:25Z</time>
      </trkpt>
      <trkpt lat="42.91032" lon="0.29734">
        <ele>1424</ele>
        <time>2021-10-02T09:19:27Z</time>
      </trkpt>
      <trkpt lat="42.91042" lon="0.29756">
        <ele>1423.6</ele>
        <time>2021-10-02T09:19:35Z</time>
      </trkpt>
      <trkpt lat="42.91044" lon="0.29757">
        <ele>1423.6</ele>
        <time>2021-10-02T09:19:36Z</time>
      </trkpt>
      <trkpt lat="42.91045" lon="0.29757">
        <ele>1423.6</ele>
        <time>2021-10-02T09:19:37Z</time>
      </trkpt>
      <trkpt lat="42.91046" lon="0.29756">
        <ele>1423.2</ele>
        <time>2021-10-02T09:19:39Z</time>
      </trkpt>
      <trkpt lat="42.91046" lon="0.29756">
        <ele>1423.4</ele>
        <time>2021-10-02T09:19:58Z</time>
      </trkpt>
      <trkpt lat="42.91054" lon="0.29756">
        <ele>1423.4</ele>
        <time>2021-10-02T09:20:05Z</time>
      </trkpt>
      <trkpt lat="42.91075" lon="0.29757">
        <ele>1423.4</ele>
        <time>2021-10-02T09:20:11Z</time>
      </trkpt>
      <trkpt lat="42.91102" lon="0.29756">
        <ele>1422.8</ele>
        <time>2021-10-02T09:20:17Z</time>
      </trkpt>
      <trkpt lat="42.91105" lon="0.29756">
        <ele>1422.4</ele>
        <time>2021-10-02T09:20:18Z</time>
      </trkpt>
      <trkpt lat="42.91109" lon="0.29755">
        <ele>1422.4</ele>
        <time>2021-10-02T09:20:19Z</time>
      </trkpt>
      <trkpt lat="42.91113" lon="0.29755">
        <ele>1421.8</ele>
        <time>2021-10-02T09:20:20Z</time>
      </trkpt>
      <trkpt lat="42.91116" lon="0.29755">
        <ele>1421.8</ele>
        <time>2021-10-02T09:20:21Z</time>
      </trkpt>
      <trkpt lat="42.9112" lon="0.29754">
        <ele>1421.6</ele>
        <time>2021-10-02T09:20:22Z</time>
      </trkpt>
      <trkpt lat="42.91123" lon="0.29754">
        <ele>1421.4</ele>
        <time>2021-10-02T09:20:23Z</time>
      </trkpt>
      <trkpt lat="42.91127" lon="0.29754">
        <ele>1421</ele>
        <time>2021-10-02T09:20:24Z</time>
      </trkpt>
      <trkpt lat="42.9113" lon="0.29754">
        <ele>1420.8</ele>
        <time>2021-10-02T09:20:25Z</time>
      </trkpt>
      <trkpt lat="42.91136" lon="0.29753">
        <ele>1420.6</ele>
        <time>2021-10-02T09:20:27Z</time>
      </trkpt>
      <trkpt lat="42.91138" lon="0.29752">
        <ele>1420.4</ele>
        <time>2021-10-02T09:20:28Z</time>
      </trkpt>
      <trkpt lat="42.91141" lon="0.29752">
        <ele>1420</ele>
        <time>2021-10-02T09:20:29Z</time>
      </trkpt>
      <trkpt lat="42.91144" lon="0.29751">
        <ele>1419.8</ele>
        <time>2021-10-02T09:20:30Z</time>
      </trkpt>
      <trkpt lat="42.91146" lon="0.29751">
        <ele>1419.6</ele>
        <time>2021-10-02T09:20:31Z</time>
      </trkpt>
      <trkpt lat="42.91148" lon="0.2975">
        <ele>1419.4</ele>
        <time>2021-10-02T09:20:32Z</time>
      </trkpt>
      <trkpt lat="42.9115" lon="0.29749">
        <ele>1419</ele>
        <time>2021-10-02T09:20:33Z</time>
      </trkpt>
      <trkpt lat="42.91159" lon="0.29744">
        <ele>1418</ele>
        <time>2021-10-02T09:20:36Z</time>
      </trkpt>
      <trkpt lat="42.91171" lon="0.29737">
        <ele>1417</ele>
        <time>2021-10-02T09:20:39Z</time>
      </trkpt>
      <trkpt lat="42.9119" lon="0.29727">
        <ele>1415.8</ele>
        <time>2021-10-02T09:20:43Z</time>
      </trkpt>
      <trkpt lat="42.91195" lon="0.29724">
        <ele>1415.2</ele>
        <time>2021-10-02T09:20:44Z</time>
      </trkpt>
      <trkpt lat="42.912" lon="0.29722">
        <ele>1415</ele>
        <time>2021-10-02T09:20:45Z</time>
      </trkpt>
      <trkpt lat="42.91204" lon="0.2972">
        <ele>1414.4</ele>
        <time>2021-10-02T09:20:46Z</time>
      </trkpt>
      <trkpt lat="42.91214" lon="0.29715">
        <ele>1412.8</ele>
        <time>2021-10-02T09:20:48Z</time>
      </trkpt>
      <trkpt lat="42.91225" lon="0.29715">
        <ele>1411.2</ele>
        <time>2021-10-02T09:20:50Z</time>
      </trkpt>
      <trkpt lat="42.9123" lon="0.29716">
        <ele>1410.6</ele>
        <time>2021-10-02T09:20:51Z</time>
      </trkpt>
      <trkpt lat="42.91235" lon="0.29719">
        <ele>1409.8</ele>
        <time>2021-10-02T09:20:52Z</time>
      </trkpt>
      <trkpt lat="42.91239" lon="0.29722">
        <ele>1409.6</ele>
        <time>2021-10-02T09:20:53Z</time>
      </trkpt>
      <trkpt lat="42.91245" lon="0.29726">
        <ele>1409</ele>
        <time>2021-10-02T09:20:54Z</time>
      </trkpt>
      <trkpt lat="42.9125" lon="0.29732">
        <ele>1408.6</ele>
        <time>2021-10-02T09:20:55Z</time>
      </trkpt>
      <trkpt lat="42.91253" lon="0.29737">
        <ele>1408.2</ele>
        <time>2021-10-02T09:20:56Z</time>
      </trkpt>
      <trkpt lat="42.91256" lon="0.29742">
        <ele>1407.6</ele>
        <time>2021-10-02T09:20:57Z</time>
      </trkpt>
      <trkpt lat="42.91259" lon="0.29747">
        <ele>1407.2</ele>
        <time>2021-10-02T09:20:58Z</time>
      </trkpt>
      <trkpt lat="42.91261" lon="0.29752">
        <ele>1406.8</ele>
        <time>2021-10-02T09:20:59Z</time>
      </trkpt>
      <trkpt lat="42.91262" lon="0.29757">
        <ele>1406.6</ele>
        <time>2021-10-02T09:21:00Z</time>
      </trkpt>
      <trkpt lat="42.91263" lon="0.29762">
        <ele>1406.4</ele>
        <time>2021-10-02T09:21:01Z</time>
      </trkpt>
      <trkpt lat="42.91265" lon="0.29767">
        <ele>1406.2</ele>
        <time>2021-10-02T09:21:02Z</time>
      </trkpt>
      <trkpt lat="42.91266" lon="0.29771">
        <ele>1405.8</ele>
        <time>2021-10-02T09:21:03Z</time>
      </trkpt>
      <trkpt lat="42.91268" lon="0.29775">
        <ele>1405.8</ele>
        <time>2021-10-02T09:21:04Z</time>
      </trkpt>
      <trkpt lat="42.9127" lon="0.29777">
        <ele>1405.4</ele>
        <time>2021-10-02T09:21:05Z</time>
      </trkpt>
      <trkpt lat="42.91273" lon="0.29778">
        <ele>1405.2</ele>
        <time>2021-10-02T09:21:06Z</time>
      </trkpt>
      <trkpt lat="42.91276" lon="0.29778">
        <ele>1404.8</ele>
        <time>2021-10-02T09:21:07Z</time>
      </trkpt>
      <trkpt lat="42.91282" lon="0.29777">
        <ele>1404.4</ele>
        <time>2021-10-02T09:21:09Z</time>
      </trkpt>
      <trkpt lat="42.91285" lon="0.29777">
        <ele>1404.4</ele>
        <time>2021-10-02T09:21:10Z</time>
      </trkpt>
      <trkpt lat="42.91288" lon="0.29777">
        <ele>1404.2</ele>
        <time>2021-10-02T09:21:11Z</time>
      </trkpt>
      <trkpt lat="42.91291" lon="0.29777">
        <ele>1404</ele>
        <time>2021-10-02T09:21:12Z</time>
      </trkpt>
      <trkpt lat="42.913" lon="0.29776">
        <ele>1403.8</ele>
        <time>2021-10-02T09:21:15Z</time>
      </trkpt>
      <trkpt lat="42.91305" lon="0.29776">
        <ele>1403.4</ele>
        <time>2021-10-02T09:21:17Z</time>
      </trkpt>
      <trkpt lat="42.91308" lon="0.29776">
        <ele>1402.8</ele>
        <time>2021-10-02T09:21:18Z</time>
      </trkpt>
      <trkpt lat="42.91314" lon="0.29778">
        <ele>1402.2</ele>
        <time>2021-10-02T09:21:20Z</time>
      </trkpt>
      <trkpt lat="42.91319" lon="0.29782">
        <ele>1401.6</ele>
        <time>2021-10-02T09:21:22Z</time>
      </trkpt>
      <trkpt lat="42.91321" lon="0.29784">
        <ele>1401.4</ele>
        <time>2021-10-02T09:21:23Z</time>
      </trkpt>
      <trkpt lat="42.91323" lon="0.29785">
        <ele>1400.6</ele>
        <time>2021-10-02T09:21:24Z</time>
      </trkpt>
      <trkpt lat="42.91325" lon="0.29785">
        <ele>1400.2</ele>
        <time>2021-10-02T09:21:25Z</time>
      </trkpt>
      <trkpt lat="42.91327" lon="0.29785">
        <ele>1399.4</ele>
        <time>2021-10-02T09:21:26Z</time>
      </trkpt>
      <trkpt lat="42.91328" lon="0.29784">
        <ele>1398.8</ele>
        <time>2021-10-02T09:21:27Z</time>
      </trkpt>
      <trkpt lat="42.91329" lon="0.29782">
        <ele>1398.6</ele>
        <time>2021-10-02T09:21:28Z</time>
      </trkpt>
      <trkpt lat="42.9133" lon="0.2978">
        <ele>1398.2</ele>
        <time>2021-10-02T09:21:29Z</time>
      </trkpt>
      <trkpt lat="42.91332" lon="0.29778">
        <ele>1398</ele>
        <time>2021-10-02T09:21:30Z</time>
      </trkpt>
      <trkpt lat="42.91333" lon="0.29776">
        <ele>1398</ele>
        <time>2021-10-02T09:21:31Z</time>
      </trkpt>
      <trkpt lat="42.91334" lon="0.29774">
        <ele>1397.8</ele>
        <time>2021-10-02T09:21:32Z</time>
      </trkpt>
      <trkpt lat="42.91335" lon="0.29773">
        <ele>1397.8</ele>
        <time>2021-10-02T09:21:33Z</time>
      </trkpt>
      <trkpt lat="42.91336" lon="0.29772">
        <ele>1397.8</ele>
        <time>2021-10-02T09:21:34Z</time>
      </trkpt>
      <trkpt lat="42.91337" lon="0.29771">
        <ele>1397.8</ele>
        <time>2021-10-02T09:21:35Z</time>
      </trkpt>
      <trkpt lat="42.91338" lon="0.2977">
        <ele>1397.8</ele>
        <time>2021-10-02T09:21:36Z</time>
      </trkpt>
      <trkpt lat="42.91345" lon="0.29761">
        <ele>1398.6</ele>
        <time>2021-10-02T09:21:40Z</time>
      </trkpt>
      <trkpt lat="42.91347" lon="0.29759">
        <ele>1398.6</ele>
        <time>2021-10-02T09:21:41Z</time>
      </trkpt>
      <trkpt lat="42.91348" lon="0.29758">
        <ele>1398.6</ele>
        <time>2021-10-02T09:21:42Z</time>
      </trkpt>
      <trkpt lat="42.91351" lon="0.29756">
        <ele>1398.6</ele>
        <time>2021-10-02T09:21:43Z</time>
      </trkpt>
      <trkpt lat="42.9136" lon="0.29746">
        <ele>1398.6</ele>
        <time>2021-10-02T09:21:46Z</time>
      </trkpt>
      <trkpt lat="42.91365" lon="0.29741">
        <ele>1398.4</ele>
        <time>2021-10-02T09:21:48Z</time>
      </trkpt>
      <trkpt lat="42.91368" lon="0.2974">
        <ele>1398.4</ele>
        <time>2021-10-02T09:21:49Z</time>
      </trkpt>
      <trkpt lat="42.91371" lon="0.29738">
        <ele>1398.4</ele>
        <time>2021-10-02T09:21:50Z</time>
      </trkpt>
      <trkpt lat="42.91374" lon="0.29736">
        <ele>1398.4</ele>
        <time>2021-10-02T09:21:51Z</time>
      </trkpt>
      <trkpt lat="42.9138" lon="0.29732">
        <ele>1398.4</ele>
        <time>2021-10-02T09:21:52Z</time>
      </trkpt>
      <trkpt lat="42.91383" lon="0.2973">
        <ele>1398.4</ele>
        <time>2021-10-02T09:21:53Z</time>
      </trkpt>
      <trkpt lat="42.91385" lon="0.29729">
        <ele>1398.4</ele>
        <time>2021-10-02T09:21:54Z</time>
      </trkpt>
      <trkpt lat="42.91389" lon="0.29727">
        <ele>1398.6</ele>
        <time>2021-10-02T09:21:55Z</time>
      </trkpt>
      <trkpt lat="42.91392" lon="0.29725">
        <ele>1398.8</ele>
        <time>2021-10-02T09:21:56Z</time>
      </trkpt>
      <trkpt lat="42.91394" lon="0.29722">
        <ele>1399</ele>
        <time>2021-10-02T09:21:57Z</time>
      </trkpt>
      <trkpt lat="42.91396" lon="0.29719">
        <ele>1399.2</ele>
        <time>2021-10-02T09:21:58Z</time>
      </trkpt>
      <trkpt lat="42.91407" lon="0.29709">
        <ele>1399.8</ele>
        <time>2021-10-02T09:22:02Z</time>
      </trkpt>
      <trkpt lat="42.9142" lon="0.29694">
        <ele>1400</ele>
        <time>2021-10-02T09:22:06Z</time>
      </trkpt>
      <trkpt lat="42.9143" lon="0.29682">
        <ele>1400</ele>
        <time>2021-10-02T09:22:09Z</time>
      </trkpt>
      <trkpt lat="42.91436" lon="0.29676">
        <ele>1400</ele>
        <time>2021-10-02T09:22:11Z</time>
      </trkpt>
      <trkpt lat="42.91448" lon="0.29662">
        <ele>1400</ele>
        <time>2021-10-02T09:22:14Z</time>
      </trkpt>
      <trkpt lat="42.91451" lon="0.29658">
        <ele>1400</ele>
        <time>2021-10-02T09:22:15Z</time>
      </trkpt>
      <trkpt lat="42.91454" lon="0.29654">
        <ele>1399.6</ele>
        <time>2021-10-02T09:22:16Z</time>
      </trkpt>
      <trkpt lat="42.91456" lon="0.29652">
        <ele>1399.4</ele>
        <time>2021-10-02T09:22:17Z</time>
      </trkpt>
      <trkpt lat="42.9146" lon="0.29647">
        <ele>1399.2</ele>
        <time>2021-10-02T09:22:18Z</time>
      </trkpt>
      <trkpt lat="42.91464" lon="0.29644">
        <ele>1398.8</ele>
        <time>2021-10-02T09:22:19Z</time>
      </trkpt>
      <trkpt lat="42.9147" lon="0.29639">
        <ele>1398.4</ele>
        <time>2021-10-02T09:22:20Z</time>
      </trkpt>
      <trkpt lat="42.91475" lon="0.29635">
        <ele>1398</ele>
        <time>2021-10-02T09:22:21Z</time>
      </trkpt>
      <trkpt lat="42.9148" lon="0.29633">
        <ele>1397.2</ele>
        <time>2021-10-02T09:22:22Z</time>
      </trkpt>
      <trkpt lat="42.91493" lon="0.29626">
        <ele>1396.2</ele>
        <time>2021-10-02T09:22:24Z</time>
      </trkpt>
      <trkpt lat="42.915" lon="0.2962">
        <ele>1396</ele>
        <time>2021-10-02T09:22:25Z</time>
      </trkpt>
      <trkpt lat="42.91508" lon="0.29612">
        <ele>1395.6</ele>
        <time>2021-10-02T09:22:26Z</time>
      </trkpt>
      <trkpt lat="42.91522" lon="0.29602">
        <ele>1395</ele>
        <time>2021-10-02T09:22:28Z</time>
      </trkpt>
      <trkpt lat="42.91528" lon="0.29598">
        <ele>1394.6</ele>
        <time>2021-10-02T09:22:29Z</time>
      </trkpt>
      <trkpt lat="42.91535" lon="0.29593">
        <ele>1394</ele>
        <time>2021-10-02T09:22:30Z</time>
      </trkpt>
      <trkpt lat="42.91542" lon="0.29589">
        <ele>1393</ele>
        <time>2021-10-02T09:22:31Z</time>
      </trkpt>
      <trkpt lat="42.91559" lon="0.29578">
        <ele>1391.6</ele>
        <time>2021-10-02T09:22:33Z</time>
      </trkpt>
      <trkpt lat="42.91565" lon="0.29574">
        <ele>1390.4</ele>
        <time>2021-10-02T09:22:34Z</time>
      </trkpt>
      <trkpt lat="42.9157" lon="0.2957">
        <ele>1388.8</ele>
        <time>2021-10-02T09:22:35Z</time>
      </trkpt>
      <trkpt lat="42.91577" lon="0.29564">
        <ele>1388.4</ele>
        <time>2021-10-02T09:22:36Z</time>
      </trkpt>
      <trkpt lat="42.91584" lon="0.2956">
        <ele>1387.4</ele>
        <time>2021-10-02T09:22:37Z</time>
      </trkpt>
      <trkpt lat="42.91602" lon="0.29551">
        <ele>1385.2</ele>
        <time>2021-10-02T09:22:39Z</time>
      </trkpt>
      <trkpt lat="42.91614" lon="0.29545">
        <ele>1383</ele>
        <time>2021-10-02T09:22:41Z</time>
      </trkpt>
      <trkpt lat="42.91621" lon="0.29542">
        <ele>1382.6</ele>
        <time>2021-10-02T09:22:42Z</time>
      </trkpt>
      <trkpt lat="42.91628" lon="0.29538">
        <ele>1381.4</ele>
        <time>2021-10-02T09:22:43Z</time>
      </trkpt>
      <trkpt lat="42.91645" lon="0.29532">
        <ele>1379.6</ele>
        <time>2021-10-02T09:22:45Z</time>
      </trkpt>
      <trkpt lat="42.91654" lon="0.29529">
        <ele>1378.4</ele>
        <time>2021-10-02T09:22:46Z</time>
      </trkpt>
      <trkpt lat="42.91663" lon="0.29527">
        <ele>1377.4</ele>
        <time>2021-10-02T09:22:47Z</time>
      </trkpt>
      <trkpt lat="42.9167" lon="0.29524">
        <ele>1375.2</ele>
        <time>2021-10-02T09:22:48Z</time>
      </trkpt>
      <trkpt lat="42.91678" lon="0.29523">
        <ele>1374.2</ele>
        <time>2021-10-02T09:22:49Z</time>
      </trkpt>
      <trkpt lat="42.91686" lon="0.29523">
        <ele>1372.2</ele>
        <time>2021-10-02T09:22:50Z</time>
      </trkpt>
      <trkpt lat="42.91692" lon="0.29524">
        <ele>1371.8</ele>
        <time>2021-10-02T09:22:51Z</time>
      </trkpt>
      <trkpt lat="42.91697" lon="0.29526">
        <ele>1370.8</ele>
        <time>2021-10-02T09:22:52Z</time>
      </trkpt>
      <trkpt lat="42.91702" lon="0.29528">
        <ele>1370.4</ele>
        <time>2021-10-02T09:22:53Z</time>
      </trkpt>
      <trkpt lat="42.91707" lon="0.29528">
        <ele>1368.8</ele>
        <time>2021-10-02T09:22:54Z</time>
      </trkpt>
      <trkpt lat="42.91718" lon="0.29527">
        <ele>1367.6</ele>
        <time>2021-10-02T09:22:56Z</time>
      </trkpt>
      <trkpt lat="42.91723" lon="0.29526">
        <ele>1367.4</ele>
        <time>2021-10-02T09:22:57Z</time>
      </trkpt>
      <trkpt lat="42.91728" lon="0.29527">
        <ele>1366.2</ele>
        <time>2021-10-02T09:22:58Z</time>
      </trkpt>
      <trkpt lat="42.91733" lon="0.29528">
        <ele>1365.6</ele>
        <time>2021-10-02T09:22:59Z</time>
      </trkpt>
      <trkpt lat="42.91737" lon="0.29529">
        <ele>1364.8</ele>
        <time>2021-10-02T09:23:00Z</time>
      </trkpt>
      <trkpt lat="42.91741" lon="0.29531">
        <ele>1364.4</ele>
        <time>2021-10-02T09:23:01Z</time>
      </trkpt>
      <trkpt lat="42.91744" lon="0.29532">
        <ele>1362.8</ele>
        <time>2021-10-02T09:23:02Z</time>
      </trkpt>
      <trkpt lat="42.91748" lon="0.29535">
        <ele>1361.4</ele>
        <time>2021-10-02T09:23:03Z</time>
      </trkpt>
      <trkpt lat="42.91752" lon="0.29537">
        <ele>1360.8</ele>
        <time>2021-10-02T09:23:04Z</time>
      </trkpt>
      <trkpt lat="42.91756" lon="0.29538">
        <ele>1360</ele>
        <time>2021-10-02T09:23:05Z</time>
      </trkpt>
      <trkpt lat="42.91761" lon="0.29539">
        <ele>1359.6</ele>
        <time>2021-10-02T09:23:06Z</time>
      </trkpt>
      <trkpt lat="42.91766" lon="0.29542">
        <ele>1358.4</ele>
        <time>2021-10-02T09:23:07Z</time>
      </trkpt>
      <trkpt lat="42.91773" lon="0.29548">
        <ele>1356.8</ele>
        <time>2021-10-02T09:23:09Z</time>
      </trkpt>
      <trkpt lat="42.91775" lon="0.29552">
        <ele>1356.6</ele>
        <time>2021-10-02T09:23:10Z</time>
      </trkpt>
      <trkpt lat="42.91777" lon="0.29556">
        <ele>1355.4</ele>
        <time>2021-10-02T09:23:11Z</time>
      </trkpt>
      <trkpt lat="42.9178" lon="0.29561">
        <ele>1354.8</ele>
        <time>2021-10-02T09:23:12Z</time>
      </trkpt>
      <trkpt lat="42.91784" lon="0.29567">
        <ele>1353.6</ele>
        <time>2021-10-02T09:23:13Z</time>
      </trkpt>
      <trkpt lat="42.91798" lon="0.29581">
        <ele>1351.4</ele>
        <time>2021-10-02T09:23:15Z</time>
      </trkpt>
      <trkpt lat="42.91809" lon="0.29591">
        <ele>1348.4</ele>
        <time>2021-10-02T09:23:17Z</time>
      </trkpt>
      <trkpt lat="42.91815" lon="0.29596">
        <ele>1347.6</ele>
        <time>2021-10-02T09:23:18Z</time>
      </trkpt>
      <trkpt lat="42.91818" lon="0.29599">
        <ele>1345.2</ele>
        <time>2021-10-02T09:23:19Z</time>
      </trkpt>
      <trkpt lat="42.91822" lon="0.29602">
        <ele>1343.8</ele>
        <time>2021-10-02T09:23:20Z</time>
      </trkpt>
      <trkpt lat="42.91826" lon="0.29603">
        <ele>1343.2</ele>
        <time>2021-10-02T09:23:21Z</time>
      </trkpt>
      <trkpt lat="42.91829" lon="0.29604">
        <ele>1342</ele>
        <time>2021-10-02T09:23:22Z</time>
      </trkpt>
      <trkpt lat="42.91832" lon="0.29603">
        <ele>1341.6</ele>
        <time>2021-10-02T09:23:23Z</time>
      </trkpt>
      <trkpt lat="42.91835" lon="0.29603">
        <ele>1341</ele>
        <time>2021-10-02T09:23:24Z</time>
      </trkpt>
      <trkpt lat="42.91839" lon="0.29603">
        <ele>1340.8</ele>
        <time>2021-10-02T09:23:25Z</time>
      </trkpt>
      <trkpt lat="42.91846" lon="0.29603">
        <ele>1339.8</ele>
        <time>2021-10-02T09:23:27Z</time>
      </trkpt>
      <trkpt lat="42.91849" lon="0.29603">
        <ele>1339</ele>
        <time>2021-10-02T09:23:28Z</time>
      </trkpt>
      <trkpt lat="42.91853" lon="0.29603">
        <ele>1338.8</ele>
        <time>2021-10-02T09:23:29Z</time>
      </trkpt>
      <trkpt lat="42.91864" lon="0.296">
        <ele>1337.8</ele>
        <time>2021-10-02T09:23:31Z</time>
      </trkpt>
      <trkpt lat="42.9187" lon="0.29599">
        <ele>1336.8</ele>
        <time>2021-10-02T09:23:32Z</time>
      </trkpt>
      <trkpt lat="42.91873" lon="0.29595">
        <ele>1336.4</ele>
        <time>2021-10-02T09:23:33Z</time>
      </trkpt>
      <trkpt lat="42.91875" lon="0.29592">
        <ele>1335.6</ele>
        <time>2021-10-02T09:23:34Z</time>
      </trkpt>
      <trkpt lat="42.9188" lon="0.29589">
        <ele>1335</ele>
        <time>2021-10-02T09:23:35Z</time>
      </trkpt>
      <trkpt lat="42.91883" lon="0.29587">
        <ele>1334</ele>
        <time>2021-10-02T09:23:36Z</time>
      </trkpt>
      <trkpt lat="42.91887" lon="0.29586">
        <ele>1332.8</ele>
        <time>2021-10-02T09:23:37Z</time>
      </trkpt>
      <trkpt lat="42.91891" lon="0.29585">
        <ele>1332.2</ele>
        <time>2021-10-02T09:23:38Z</time>
      </trkpt>
      <trkpt lat="42.91896" lon="0.29584">
        <ele>1331</ele>
        <time>2021-10-02T09:23:39Z</time>
      </trkpt>
      <trkpt lat="42.919" lon="0.29582">
        <ele>1330.4</ele>
        <time>2021-10-02T09:23:40Z</time>
      </trkpt>
      <trkpt lat="42.91903" lon="0.2958">
        <ele>1329</ele>
        <time>2021-10-02T09:23:41Z</time>
      </trkpt>
      <trkpt lat="42.91905" lon="0.29577">
        <ele>1328.2</ele>
        <time>2021-10-02T09:23:42Z</time>
      </trkpt>
      <trkpt lat="42.91908" lon="0.29576">
        <ele>1327.2</ele>
        <time>2021-10-02T09:23:43Z</time>
      </trkpt>
      <trkpt lat="42.91911" lon="0.29574">
        <ele>1326.8</ele>
        <time>2021-10-02T09:23:44Z</time>
      </trkpt>
      <trkpt lat="42.91913" lon="0.29573">
        <ele>1326.2</ele>
        <time>2021-10-02T09:23:45Z</time>
      </trkpt>
      <trkpt lat="42.91916" lon="0.29571">
        <ele>1326</ele>
        <time>2021-10-02T09:23:46Z</time>
      </trkpt>
      <trkpt lat="42.91918" lon="0.2957">
        <ele>1325.2</ele>
        <time>2021-10-02T09:23:47Z</time>
      </trkpt>
      <trkpt lat="42.91919" lon="0.29569">
        <ele>1324.6</ele>
        <time>2021-10-02T09:23:48Z</time>
      </trkpt>
      <trkpt lat="42.9192" lon="0.29569">
        <ele>1323.6</ele>
        <time>2021-10-02T09:23:49Z</time>
      </trkpt>
      <trkpt lat="42.9192" lon="0.29569">
        <ele>1323</ele>
        <time>2021-10-02T09:23:50Z</time>
      </trkpt>
      <trkpt lat="42.9192" lon="0.29569">
        <ele>1322</ele>
        <time>2021-10-02T09:23:51Z</time>
      </trkpt>
      <trkpt lat="42.9192" lon="0.29569">
        <ele>1320.8</ele>
        <time>2021-10-02T09:23:53Z</time>
      </trkpt>
      <trkpt lat="42.9192" lon="0.29569">
        <ele>1320</ele>
        <time>2021-10-02T09:23:56Z</time>
      </trkpt>
      <trkpt lat="42.9192" lon="0.29569">
        <ele>1319.6</ele>
        <time>2021-10-02T09:24:04Z</time>
      </trkpt>
      <trkpt lat="42.9192" lon="0.29569">
        <ele>1319.6</ele>
        <time>2021-10-02T09:24:11Z</time>
      </trkpt>
      <trkpt lat="42.9192" lon="0.29569">
        <ele>1319.6</ele>
        <time>2021-10-02T09:24:20Z</time>
      </trkpt>
      <trkpt lat="42.91922" lon="0.29567">
        <ele>1319.4</ele>
        <time>2021-10-02T09:24:22Z</time>
      </trkpt>
      <trkpt lat="42.91923" lon="0.29566">
        <ele>1319.4</ele>
        <time>2021-10-02T09:24:23Z</time>
      </trkpt>
      <trkpt lat="42.91925" lon="0.29564">
        <ele>1319.2</ele>
        <time>2021-10-02T09:24:24Z</time>
      </trkpt>
      <trkpt lat="42.91928" lon="0.29563">
        <ele>1319.2</ele>
        <time>2021-10-02T09:24:25Z</time>
      </trkpt>
      <trkpt lat="42.91932" lon="0.29563">
        <ele>1318.8</ele>
        <time>2021-10-02T09:24:26Z</time>
      </trkpt>
      <trkpt lat="42.91935" lon="0.29561">
        <ele>1318.6</ele>
        <time>2021-10-02T09:24:27Z</time>
      </trkpt>
      <trkpt lat="42.91939" lon="0.2956">
        <ele>1318</ele>
        <time>2021-10-02T09:24:28Z</time>
      </trkpt>
      <trkpt lat="42.91942" lon="0.29559">
        <ele>1317.8</ele>
        <time>2021-10-02T09:24:29Z</time>
      </trkpt>
      <trkpt lat="42.91945" lon="0.29557">
        <ele>1316.8</ele>
        <time>2021-10-02T09:24:30Z</time>
      </trkpt>
      <trkpt lat="42.91948" lon="0.29556">
        <ele>1316.2</ele>
        <time>2021-10-02T09:24:31Z</time>
      </trkpt>
      <trkpt lat="42.91951" lon="0.29555">
        <ele>1314.4</ele>
        <time>2021-10-02T09:24:32Z</time>
      </trkpt>
      <trkpt lat="42.91956" lon="0.29553">
        <ele>1313.4</ele>
        <time>2021-10-02T09:24:33Z</time>
      </trkpt>
      <trkpt lat="42.91962" lon="0.2955">
        <ele>1312</ele>
        <time>2021-10-02T09:24:34Z</time>
      </trkpt>
      <trkpt lat="42.91972" lon="0.29545">
        <ele>1310.6</ele>
        <time>2021-10-02T09:24:36Z</time>
      </trkpt>
      <trkpt lat="42.91976" lon="0.29543">
        <ele>1310.2</ele>
        <time>2021-10-02T09:24:37Z</time>
      </trkpt>
      <trkpt lat="42.9198" lon="0.29542">
        <ele>1309.4</ele>
        <time>2021-10-02T09:24:38Z</time>
      </trkpt>
      <trkpt lat="42.91985" lon="0.2954">
        <ele>1309.2</ele>
        <time>2021-10-02T09:24:39Z</time>
      </trkpt>
      <trkpt lat="42.91989" lon="0.29538">
        <ele>1308.4</ele>
        <time>2021-10-02T09:24:40Z</time>
      </trkpt>
      <trkpt lat="42.91993" lon="0.29537">
        <ele>1307.2</ele>
        <time>2021-10-02T09:24:41Z</time>
      </trkpt>
      <trkpt lat="42.92003" lon="0.29536">
        <ele>1305</ele>
        <time>2021-10-02T09:24:43Z</time>
      </trkpt>
      <trkpt lat="42.9201" lon="0.29533">
        <ele>1304.6</ele>
        <time>2021-10-02T09:24:44Z</time>
      </trkpt>
      <trkpt lat="42.92017" lon="0.29531">
        <ele>1303.2</ele>
        <time>2021-10-02T09:24:45Z</time>
      </trkpt>
      <trkpt lat="42.92025" lon="0.29527">
        <ele>1302.8</ele>
        <time>2021-10-02T09:24:46Z</time>
      </trkpt>
      <trkpt lat="42.92032" lon="0.29522">
        <ele>1301.6</ele>
        <time>2021-10-02T09:24:47Z</time>
      </trkpt>
      <trkpt lat="42.9204" lon="0.2952">
        <ele>1301</ele>
        <time>2021-10-02T09:24:48Z</time>
      </trkpt>
      <trkpt lat="42.92047" lon="0.29519">
        <ele>1300.4</ele>
        <time>2021-10-02T09:24:49Z</time>
      </trkpt>
      <trkpt lat="42.92055" lon="0.29517">
        <ele>1300</ele>
        <time>2021-10-02T09:24:50Z</time>
      </trkpt>
      <trkpt lat="42.92062" lon="0.29515">
        <ele>1298.2</ele>
        <time>2021-10-02T09:24:51Z</time>
      </trkpt>
      <trkpt lat="42.9207" lon="0.29512">
        <ele>1297.8</ele>
        <time>2021-10-02T09:24:52Z</time>
      </trkpt>
      <trkpt lat="42.92077" lon="0.29511">
        <ele>1294.8</ele>
        <time>2021-10-02T09:24:53Z</time>
      </trkpt>
      <trkpt lat="42.92084" lon="0.2951">
        <ele>1293.6</ele>
        <time>2021-10-02T09:24:54Z</time>
      </trkpt>
      <trkpt lat="42.92093" lon="0.2951">
        <ele>1292.6</ele>
        <time>2021-10-02T09:24:55Z</time>
      </trkpt>
      <trkpt lat="42.92098" lon="0.29505">
        <ele>1291.2</ele>
        <time>2021-10-02T09:24:56Z</time>
      </trkpt>
      <trkpt lat="42.92104" lon="0.29503">
        <ele>1289.4</ele>
        <time>2021-10-02T09:24:57Z</time>
      </trkpt>
      <trkpt lat="42.92111" lon="0.29503">
        <ele>1287.2</ele>
        <time>2021-10-02T09:24:58Z</time>
      </trkpt>
      <trkpt lat="42.92117" lon="0.29503">
        <ele>1286</ele>
        <time>2021-10-02T09:24:59Z</time>
      </trkpt>
      <trkpt lat="42.92124" lon="0.29501">
        <ele>1284.2</ele>
        <time>2021-10-02T09:25:00Z</time>
      </trkpt>
      <trkpt lat="42.92129" lon="0.29498">
        <ele>1283.6</ele>
        <time>2021-10-02T09:25:01Z</time>
      </trkpt>
      <trkpt lat="42.92131" lon="0.29495">
        <ele>1281.8</ele>
        <time>2021-10-02T09:25:02Z</time>
      </trkpt>
      <trkpt lat="42.92134" lon="0.29492">
        <ele>1281.2</ele>
        <time>2021-10-02T09:25:03Z</time>
      </trkpt>
      <trkpt lat="42.92136" lon="0.29489">
        <ele>1280</ele>
        <time>2021-10-02T09:25:04Z</time>
      </trkpt>
      <trkpt lat="42.92139" lon="0.29487">
        <ele>1279.6</ele>
        <time>2021-10-02T09:25:05Z</time>
      </trkpt>
      <trkpt lat="42.92143" lon="0.29484">
        <ele>1278.8</ele>
        <time>2021-10-02T09:25:06Z</time>
      </trkpt>
      <trkpt lat="42.92146" lon="0.29481">
        <ele>1278.4</ele>
        <time>2021-10-02T09:25:07Z</time>
      </trkpt>
      <trkpt lat="42.92149" lon="0.29478">
        <ele>1277.6</ele>
        <time>2021-10-02T09:25:08Z</time>
      </trkpt>
      <trkpt lat="42.92155" lon="0.29472">
        <ele>1276.2</ele>
        <time>2021-10-02T09:25:10Z</time>
      </trkpt>
      <trkpt lat="42.92157" lon="0.29468">
        <ele>1276</ele>
        <time>2021-10-02T09:25:11Z</time>
      </trkpt>
      <trkpt lat="42.92163" lon="0.29464">
        <ele>1275.4</ele>
        <time>2021-10-02T09:25:12Z</time>
      </trkpt>
      <trkpt lat="42.92168" lon="0.29459">
        <ele>1275.2</ele>
        <time>2021-10-02T09:25:13Z</time>
      </trkpt>
      <trkpt lat="42.92172" lon="0.29455">
        <ele>1274.2</ele>
        <time>2021-10-02T09:25:14Z</time>
      </trkpt>
      <trkpt lat="42.92178" lon="0.29449">
        <ele>1273</ele>
        <time>2021-10-02T09:25:15Z</time>
      </trkpt>
      <trkpt lat="42.92187" lon="0.2944">
        <ele>1271.2</ele>
        <time>2021-10-02T09:25:17Z</time>
      </trkpt>
      <trkpt lat="42.92192" lon="0.29437">
        <ele>1270.6</ele>
        <time>2021-10-02T09:25:18Z</time>
      </trkpt>
      <trkpt lat="42.92195" lon="0.29435">
        <ele>1269.6</ele>
        <time>2021-10-02T09:25:19Z</time>
      </trkpt>
      <trkpt lat="42.92199" lon="0.29432">
        <ele>1269</ele>
        <time>2021-10-02T09:25:20Z</time>
      </trkpt>
      <trkpt lat="42.92201" lon="0.29429">
        <ele>1267.6</ele>
        <time>2021-10-02T09:25:21Z</time>
      </trkpt>
      <trkpt lat="42.92203" lon="0.29426">
        <ele>1266.6</ele>
        <time>2021-10-02T09:25:22Z</time>
      </trkpt>
      <trkpt lat="42.92203" lon="0.29425">
        <ele>1265.2</ele>
        <time>2021-10-02T09:25:23Z</time>
      </trkpt>
      <trkpt lat="42.92205" lon="0.29424">
        <ele>1264.4</ele>
        <time>2021-10-02T09:25:24Z</time>
      </trkpt>
      <trkpt lat="42.92208" lon="0.2942">
        <ele>1263.2</ele>
        <time>2021-10-02T09:25:25Z</time>
      </trkpt>
      <trkpt lat="42.92213" lon="0.29414">
        <ele>1262.2</ele>
        <time>2021-10-02T09:25:27Z</time>
      </trkpt>
      <trkpt lat="42.92216" lon="0.29411">
        <ele>1262</ele>
        <time>2021-10-02T09:25:28Z</time>
      </trkpt>
      <trkpt lat="42.92221" lon="0.29408">
        <ele>1260.8</ele>
        <time>2021-10-02T09:25:29Z</time>
      </trkpt>
      <trkpt lat="42.92227" lon="0.29405">
        <ele>1260.4</ele>
        <time>2021-10-02T09:25:30Z</time>
      </trkpt>
      <trkpt lat="42.92233" lon="0.29401">
        <ele>1259.6</ele>
        <time>2021-10-02T09:25:31Z</time>
      </trkpt>
      <trkpt lat="42.92247" lon="0.29393">
        <ele>1258</ele>
        <time>2021-10-02T09:25:33Z</time>
      </trkpt>
      <trkpt lat="42.92254" lon="0.29389">
        <ele>1256.8</ele>
        <time>2021-10-02T09:25:34Z</time>
      </trkpt>
      <trkpt lat="42.92261" lon="0.29383">
        <ele>1256.2</ele>
        <time>2021-10-02T09:25:35Z</time>
      </trkpt>
      <trkpt lat="42.92267" lon="0.29378">
        <ele>1255</ele>
        <time>2021-10-02T09:25:36Z</time>
      </trkpt>
      <trkpt lat="42.92273" lon="0.29374">
        <ele>1254.2</ele>
        <time>2021-10-02T09:25:37Z</time>
      </trkpt>
      <trkpt lat="42.92278" lon="0.29372">
        <ele>1252.2</ele>
        <time>2021-10-02T09:25:38Z</time>
      </trkpt>
      <trkpt lat="42.92282" lon="0.29369">
        <ele>1251.8</ele>
        <time>2021-10-02T09:25:39Z</time>
      </trkpt>
      <trkpt lat="42.92285" lon="0.29368">
        <ele>1251.2</ele>
        <time>2021-10-02T09:25:40Z</time>
      </trkpt>
      <trkpt lat="42.9229" lon="0.29365">
        <ele>1249.8</ele>
        <time>2021-10-02T09:25:41Z</time>
      </trkpt>
      <trkpt lat="42.92294" lon="0.29363">
        <ele>1247.8</ele>
        <time>2021-10-02T09:25:42Z</time>
      </trkpt>
      <trkpt lat="42.92296" lon="0.29359">
        <ele>1246.6</ele>
        <time>2021-10-02T09:25:43Z</time>
      </trkpt>
      <trkpt lat="42.92298" lon="0.29357">
        <ele>1245</ele>
        <time>2021-10-02T09:25:44Z</time>
      </trkpt>
      <trkpt lat="42.923" lon="0.29355">
        <ele>1244.6</ele>
        <time>2021-10-02T09:25:45Z</time>
      </trkpt>
      <trkpt lat="42.92302" lon="0.29353">
        <ele>1243.4</ele>
        <time>2021-10-02T09:25:46Z</time>
      </trkpt>
      <trkpt lat="42.92305" lon="0.29351">
        <ele>1243</ele>
        <time>2021-10-02T09:25:47Z</time>
      </trkpt>
      <trkpt lat="42.92309" lon="0.29348">
        <ele>1242.4</ele>
        <time>2021-10-02T09:25:48Z</time>
      </trkpt>
      <trkpt lat="42.92311" lon="0.29347">
        <ele>1242</ele>
        <time>2021-10-02T09:25:49Z</time>
      </trkpt>
      <trkpt lat="42.92313" lon="0.29347">
        <ele>1241.4</ele>
        <time>2021-10-02T09:25:50Z</time>
      </trkpt>
      <trkpt lat="42.92315" lon="0.29346">
        <ele>1240.8</ele>
        <time>2021-10-02T09:25:51Z</time>
      </trkpt>
      <trkpt lat="42.92319" lon="0.29345">
        <ele>1240.4</ele>
        <time>2021-10-02T09:25:52Z</time>
      </trkpt>
      <trkpt lat="42.92322" lon="0.29343">
        <ele>1239.8</ele>
        <time>2021-10-02T09:25:53Z</time>
      </trkpt>
      <trkpt lat="42.92326" lon="0.29341">
        <ele>1239.6</ele>
        <time>2021-10-02T09:25:54Z</time>
      </trkpt>
      <trkpt lat="42.92333" lon="0.29339">
        <ele>1238.2</ele>
        <time>2021-10-02T09:25:56Z</time>
      </trkpt>
      <trkpt lat="42.92337" lon="0.29336">
        <ele>1237.4</ele>
        <time>2021-10-02T09:25:57Z</time>
      </trkpt>
      <trkpt lat="42.92338" lon="0.29332">
        <ele>1237</ele>
        <time>2021-10-02T09:25:58Z</time>
      </trkpt>
      <trkpt lat="42.9234" lon="0.29331">
        <ele>1236.6</ele>
        <time>2021-10-02T09:25:59Z</time>
      </trkpt>
      <trkpt lat="42.9234" lon="0.2933">
        <ele>1236.2</ele>
        <time>2021-10-02T09:26:00Z</time>
      </trkpt>
      <trkpt lat="42.9234" lon="0.29328">
        <ele>1235.8</ele>
        <time>2021-10-02T09:26:01Z</time>
      </trkpt>
      <trkpt lat="42.92342" lon="0.29326">
        <ele>1235.4</ele>
        <time>2021-10-02T09:26:02Z</time>
      </trkpt>
      <trkpt lat="42.92343" lon="0.29324">
        <ele>1234.8</ele>
        <time>2021-10-02T09:26:03Z</time>
      </trkpt>
      <trkpt lat="42.92346" lon="0.29323">
        <ele>1234.6</ele>
        <time>2021-10-02T09:26:04Z</time>
      </trkpt>
      <trkpt lat="42.92349" lon="0.29322">
        <ele>1234.2</ele>
        <time>2021-10-02T09:26:05Z</time>
      </trkpt>
      <trkpt lat="42.92352" lon="0.29321">
        <ele>1234</ele>
        <time>2021-10-02T09:26:06Z</time>
      </trkpt>
      <trkpt lat="42.92356" lon="0.2932">
        <ele>1233.6</ele>
        <time>2021-10-02T09:26:07Z</time>
      </trkpt>
      <trkpt lat="42.9236" lon="0.2932">
        <ele>1233.4</ele>
        <time>2021-10-02T09:26:08Z</time>
      </trkpt>
      <trkpt lat="42.92384" lon="0.29312">
        <ele>1232.6</ele>
        <time>2021-10-02T09:26:12Z</time>
      </trkpt>
      <trkpt lat="42.92391" lon="0.2931">
        <ele>1232.6</ele>
        <time>2021-10-02T09:26:13Z</time>
      </trkpt>
      <trkpt lat="42.92406" lon="0.29305">
        <ele>1232.2</ele>
        <time>2021-10-02T09:26:15Z</time>
      </trkpt>
      <trkpt lat="42.92423" lon="0.293">
        <ele>1231.2</ele>
        <time>2021-10-02T09:26:17Z</time>
      </trkpt>
      <trkpt lat="42.92443" lon="0.29294">
        <ele>1230</ele>
        <time>2021-10-02T09:26:19Z</time>
      </trkpt>
      <trkpt lat="42.92465" lon="0.29289">
        <ele>1229</ele>
        <time>2021-10-02T09:26:21Z</time>
      </trkpt>
      <trkpt lat="42.92474" lon="0.29287">
        <ele>1228</ele>
        <time>2021-10-02T09:26:22Z</time>
      </trkpt>
      <trkpt lat="42.92485" lon="0.29285">
        <ele>1227.4</ele>
        <time>2021-10-02T09:26:23Z</time>
      </trkpt>
      <trkpt lat="42.925" lon="0.29283">
        <ele>1226.4</ele>
        <time>2021-10-02T09:26:24Z</time>
      </trkpt>
      <trkpt lat="42.92525" lon="0.29285">
        <ele>1225</ele>
        <time>2021-10-02T09:26:26Z</time>
      </trkpt>
      <trkpt lat="42.9255" lon="0.29288">
        <ele>1223.8</ele>
        <time>2021-10-02T09:26:28Z</time>
      </trkpt>
      <trkpt lat="42.92562" lon="0.29293">
        <ele>1222.8</ele>
        <time>2021-10-02T09:26:29Z</time>
      </trkpt>
      <trkpt lat="42.92575" lon="0.29298">
        <ele>1222.2</ele>
        <time>2021-10-02T09:26:30Z</time>
      </trkpt>
      <trkpt lat="42.92585" lon="0.29303">
        <ele>1221</ele>
        <time>2021-10-02T09:26:31Z</time>
      </trkpt>
      <trkpt lat="42.92613" lon="0.29317">
        <ele>1219</ele>
        <time>2021-10-02T09:26:33Z</time>
      </trkpt>
      <trkpt lat="42.92641" lon="0.29326">
        <ele>1216.6</ele>
        <time>2021-10-02T09:26:35Z</time>
      </trkpt>
      <trkpt lat="42.92667" lon="0.29333">
        <ele>1214.4</ele>
        <time>2021-10-02T09:26:37Z</time>
      </trkpt>
      <trkpt lat="42.92698" lon="0.29341">
        <ele>1212</ele>
        <time>2021-10-02T09:26:39Z</time>
      </trkpt>
      <trkpt lat="42.92723" lon="0.29348">
        <ele>1209.4</ele>
        <time>2021-10-02T09:26:41Z</time>
      </trkpt>
      <trkpt lat="42.9274" lon="0.29353">
        <ele>1207.8</ele>
        <time>2021-10-02T09:26:42Z</time>
      </trkpt>
      <trkpt lat="42.92765" lon="0.2936">
        <ele>1205.6</ele>
        <time>2021-10-02T09:26:44Z</time>
      </trkpt>
      <trkpt lat="42.92794" lon="0.29363">
        <ele>1203.2</ele>
        <time>2021-10-02T09:26:46Z</time>
      </trkpt>
      <trkpt lat="42.92823" lon="0.29363">
        <ele>1201.8</ele>
        <time>2021-10-02T09:26:48Z</time>
      </trkpt>
      <trkpt lat="42.92852" lon="0.29362">
        <ele>1199.4</ele>
        <time>2021-10-02T09:26:50Z</time>
      </trkpt>
      <trkpt lat="42.92886" lon="0.29366">
        <ele>1196.6</ele>
        <time>2021-10-02T09:26:52Z</time>
      </trkpt>
      <trkpt lat="42.92902" lon="0.29369">
        <ele>1195.6</ele>
        <time>2021-10-02T09:26:53Z</time>
      </trkpt>
      <trkpt lat="42.92917" lon="0.29373">
        <ele>1193.6</ele>
        <time>2021-10-02T09:26:54Z</time>
      </trkpt>
      <trkpt lat="42.92932" lon="0.29375">
        <ele>1192</ele>
        <time>2021-10-02T09:26:55Z</time>
      </trkpt>
      <trkpt lat="42.92948" lon="0.29377">
        <ele>1189.8</ele>
        <time>2021-10-02T09:26:56Z</time>
      </trkpt>
      <trkpt lat="42.92964" lon="0.29379">
        <ele>1188.6</ele>
        <time>2021-10-02T09:26:57Z</time>
      </trkpt>
      <trkpt lat="42.92977" lon="0.29381">
        <ele>1187</ele>
        <time>2021-10-02T09:26:58Z</time>
      </trkpt>
      <trkpt lat="42.93011" lon="0.29385">
        <ele>1184.4</ele>
        <time>2021-10-02T09:27:00Z</time>
      </trkpt>
      <trkpt lat="42.93026" lon="0.29386">
        <ele>1182.2</ele>
        <time>2021-10-02T09:27:01Z</time>
      </trkpt>
      <trkpt lat="42.93041" lon="0.29387">
        <ele>1181.4</ele>
        <time>2021-10-02T09:27:02Z</time>
      </trkpt>
      <trkpt lat="42.93056" lon="0.29387">
        <ele>1180</ele>
        <time>2021-10-02T09:27:03Z</time>
      </trkpt>
      <trkpt lat="42.9307" lon="0.29385">
        <ele>1179.2</ele>
        <time>2021-10-02T09:27:04Z</time>
      </trkpt>
      <trkpt lat="42.93085" lon="0.29384">
        <ele>1178.2</ele>
        <time>2021-10-02T09:27:05Z</time>
      </trkpt>
      <trkpt lat="42.9311" lon="0.29382">
        <ele>1176</ele>
        <time>2021-10-02T09:27:07Z</time>
      </trkpt>
      <trkpt lat="42.93125" lon="0.29382">
        <ele>1175.4</ele>
        <time>2021-10-02T09:27:08Z</time>
      </trkpt>
      <trkpt lat="42.93138" lon="0.29383">
        <ele>1174.4</ele>
        <time>2021-10-02T09:27:09Z</time>
      </trkpt>
      <trkpt lat="42.93154" lon="0.29382">
        <ele>1173.8</ele>
        <time>2021-10-02T09:27:10Z</time>
      </trkpt>
      <trkpt lat="42.93167" lon="0.2938">
        <ele>1172.6</ele>
        <time>2021-10-02T09:27:11Z</time>
      </trkpt>
      <trkpt lat="42.93176" lon="0.29377">
        <ele>1172</ele>
        <time>2021-10-02T09:27:12Z</time>
      </trkpt>
      <trkpt lat="42.9319" lon="0.29372">
        <ele>1170.8</ele>
        <time>2021-10-02T09:27:13Z</time>
      </trkpt>
      <trkpt lat="42.93199" lon="0.29367">
        <ele>1170.4</ele>
        <time>2021-10-02T09:27:14Z</time>
      </trkpt>
      <trkpt lat="42.9321" lon="0.2936">
        <ele>1168.6</ele>
        <time>2021-10-02T09:27:15Z</time>
      </trkpt>
      <trkpt lat="42.93232" lon="0.29343">
        <ele>1166.4</ele>
        <time>2021-10-02T09:27:17Z</time>
      </trkpt>
      <trkpt lat="42.93244" lon="0.29335">
        <ele>1164.6</ele>
        <time>2021-10-02T09:27:18Z</time>
      </trkpt>
      <trkpt lat="42.93266" lon="0.29319">
        <ele>1161.8</ele>
        <time>2021-10-02T09:27:20Z</time>
      </trkpt>
      <trkpt lat="42.93277" lon="0.29311">
        <ele>1161.2</ele>
        <time>2021-10-02T09:27:21Z</time>
      </trkpt>
      <trkpt lat="42.93287" lon="0.29303">
        <ele>1160.2</ele>
        <time>2021-10-02T09:27:22Z</time>
      </trkpt>
      <trkpt lat="42.93299" lon="0.29292">
        <ele>1159.8</ele>
        <time>2021-10-02T09:27:23Z</time>
      </trkpt>
      <trkpt lat="42.93307" lon="0.29284">
        <ele>1159</ele>
        <time>2021-10-02T09:27:24Z</time>
      </trkpt>
      <trkpt lat="42.93324" lon="0.2926">
        <ele>1157.8</ele>
        <time>2021-10-02T09:27:26Z</time>
      </trkpt>
      <trkpt lat="42.93352" lon="0.2922">
        <ele>1156.8</ele>
        <time>2021-10-02T09:27:29Z</time>
      </trkpt>
      <trkpt lat="42.93371" lon="0.29203">
        <ele>1155.2</ele>
        <time>2021-10-02T09:27:31Z</time>
      </trkpt>
      <trkpt lat="42.93385" lon="0.29194">
        <ele>1154</ele>
        <time>2021-10-02T09:27:32Z</time>
      </trkpt>
      <trkpt lat="42.93396" lon="0.29186">
        <ele>1153.6</ele>
        <time>2021-10-02T09:27:33Z</time>
      </trkpt>
      <trkpt lat="42.93407" lon="0.29177">
        <ele>1152.8</ele>
        <time>2021-10-02T09:27:34Z</time>
      </trkpt>
      <trkpt lat="42.93427" lon="0.29162">
        <ele>1151</ele>
        <time>2021-10-02T09:27:36Z</time>
      </trkpt>
      <trkpt lat="42.9344" lon="0.29153">
        <ele>1149.8</ele>
        <time>2021-10-02T09:27:37Z</time>
      </trkpt>
      <trkpt lat="42.93463" lon="0.29139">
        <ele>1149</ele>
        <time>2021-10-02T09:27:39Z</time>
      </trkpt>
      <trkpt lat="42.93471" lon="0.29135">
        <ele>1148.6</ele>
        <time>2021-10-02T09:27:40Z</time>
      </trkpt>
      <trkpt lat="42.93484" lon="0.29128">
        <ele>1147.6</ele>
        <time>2021-10-02T09:27:41Z</time>
      </trkpt>
      <trkpt lat="42.93494" lon="0.29124">
        <ele>1147.2</ele>
        <time>2021-10-02T09:27:42Z</time>
      </trkpt>
      <trkpt lat="42.93503" lon="0.2912">
        <ele>1146.4</ele>
        <time>2021-10-02T09:27:43Z</time>
      </trkpt>
      <trkpt lat="42.9351" lon="0.29118">
        <ele>1146</ele>
        <time>2021-10-02T09:27:44Z</time>
      </trkpt>
      <trkpt lat="42.93519" lon="0.29118">
        <ele>1145</ele>
        <time>2021-10-02T09:27:45Z</time>
      </trkpt>
      <trkpt lat="42.9353" lon="0.29121">
        <ele>1144.6</ele>
        <time>2021-10-02T09:27:46Z</time>
      </trkpt>
      <trkpt lat="42.93539" lon="0.29126">
        <ele>1144.2</ele>
        <time>2021-10-02T09:27:47Z</time>
      </trkpt>
      <trkpt lat="42.93547" lon="0.29131">
        <ele>1143.8</ele>
        <time>2021-10-02T09:27:48Z</time>
      </trkpt>
      <trkpt lat="42.93555" lon="0.29137">
        <ele>1143.2</ele>
        <time>2021-10-02T09:27:49Z</time>
      </trkpt>
      <trkpt lat="42.9357" lon="0.29151">
        <ele>1142.8</ele>
        <time>2021-10-02T09:27:51Z</time>
      </trkpt>
      <trkpt lat="42.93577" lon="0.29158">
        <ele>1142.8</ele>
        <time>2021-10-02T09:27:52Z</time>
      </trkpt>
      <trkpt lat="42.93599" lon="0.29178">
        <ele>1141.4</ele>
        <time>2021-10-02T09:27:55Z</time>
      </trkpt>
      <trkpt lat="42.93621" lon="0.29199">
        <ele>1140.4</ele>
        <time>2021-10-02T09:27:58Z</time>
      </trkpt>
      <trkpt lat="42.93628" lon="0.29206">
        <ele>1140.2</ele>
        <time>2021-10-02T09:27:59Z</time>
      </trkpt>
      <trkpt lat="42.93657" lon="0.29232">
        <ele>1139</ele>
        <time>2021-10-02T09:28:03Z</time>
      </trkpt>
      <trkpt lat="42.93674" lon="0.29245">
        <ele>1138.2</ele>
        <time>2021-10-02T09:28:05Z</time>
      </trkpt>
      <trkpt lat="42.93681" lon="0.29249">
        <ele>1137.8</ele>
        <time>2021-10-02T09:28:06Z</time>
      </trkpt>
      <trkpt lat="42.93689" lon="0.29251">
        <ele>1137.6</ele>
        <time>2021-10-02T09:28:07Z</time>
      </trkpt>
      <trkpt lat="42.93696" lon="0.29252">
        <ele>1137.2</ele>
        <time>2021-10-02T09:28:08Z</time>
      </trkpt>
      <trkpt lat="42.93706" lon="0.29251">
        <ele>1137.2</ele>
        <time>2021-10-02T09:28:09Z</time>
      </trkpt>
      <trkpt lat="42.93714" lon="0.29249">
        <ele>1136.8</ele>
        <time>2021-10-02T09:28:10Z</time>
      </trkpt>
      <trkpt lat="42.93721" lon="0.29245">
        <ele>1136.6</ele>
        <time>2021-10-02T09:28:11Z</time>
      </trkpt>
      <trkpt lat="42.93737" lon="0.29235">
        <ele>1136</ele>
        <time>2021-10-02T09:28:13Z</time>
      </trkpt>
      <trkpt lat="42.93751" lon="0.2922">
        <ele>1135.6</ele>
        <time>2021-10-02T09:28:15Z</time>
      </trkpt>
      <trkpt lat="42.93771" lon="0.29197">
        <ele>1134.8</ele>
        <time>2021-10-02T09:28:18Z</time>
      </trkpt>
      <trkpt lat="42.93779" lon="0.29189">
        <ele>1134.4</ele>
        <time>2021-10-02T09:28:19Z</time>
      </trkpt>
      <trkpt lat="42.9381" lon="0.29157">
        <ele>1132.6</ele>
        <time>2021-10-02T09:28:23Z</time>
      </trkpt>
      <trkpt lat="42.93824" lon="0.29137">
        <ele>1131.4</ele>
        <time>2021-10-02T09:28:25Z</time>
      </trkpt>
      <trkpt lat="42.93829" lon="0.29129">
        <ele>1131</ele>
        <time>2021-10-02T09:28:26Z</time>
      </trkpt>
      <trkpt lat="42.93836" lon="0.29123">
        <ele>1130.2</ele>
        <time>2021-10-02T09:28:27Z</time>
      </trkpt>
      <trkpt lat="42.93847" lon="0.2912">
        <ele>1129.8</ele>
        <time>2021-10-02T09:28:28Z</time>
      </trkpt>
      <trkpt lat="42.93856" lon="0.29122">
        <ele>1129</ele>
        <time>2021-10-02T09:28:29Z</time>
      </trkpt>
      <trkpt lat="42.93864" lon="0.29125">
        <ele>1128</ele>
        <time>2021-10-02T09:28:30Z</time>
      </trkpt>
      <trkpt lat="42.93872" lon="0.29127">
        <ele>1127.6</ele>
        <time>2021-10-02T09:28:31Z</time>
      </trkpt>
      <trkpt lat="42.93879" lon="0.29129">
        <ele>1127</ele>
        <time>2021-10-02T09:28:32Z</time>
      </trkpt>
      <trkpt lat="42.93886" lon="0.29131">
        <ele>1126.6</ele>
        <time>2021-10-02T09:28:33Z</time>
      </trkpt>
      <trkpt lat="42.93894" lon="0.29132">
        <ele>1126.2</ele>
        <time>2021-10-02T09:28:34Z</time>
      </trkpt>
      <trkpt lat="42.939" lon="0.29132">
        <ele>1126</ele>
        <time>2021-10-02T09:28:35Z</time>
      </trkpt>
      <trkpt lat="42.93907" lon="0.29132">
        <ele>1125.8</ele>
        <time>2021-10-02T09:28:36Z</time>
      </trkpt>
      <trkpt lat="42.93914" lon="0.29132">
        <ele>1125.6</ele>
        <time>2021-10-02T09:28:37Z</time>
      </trkpt>
      <trkpt lat="42.9392" lon="0.29132">
        <ele>1125.6</ele>
        <time>2021-10-02T09:28:38Z</time>
      </trkpt>
      <trkpt lat="42.93926" lon="0.29133">
        <ele>1125.6</ele>
        <time>2021-10-02T09:28:39Z</time>
      </trkpt>
      <trkpt lat="42.93932" lon="0.29133">
        <ele>1125.6</ele>
        <time>2021-10-02T09:28:40Z</time>
      </trkpt>
      <trkpt lat="42.93938" lon="0.29133">
        <ele>1125.8</ele>
        <time>2021-10-02T09:28:41Z</time>
      </trkpt>
      <trkpt lat="42.93955" lon="0.29127">
        <ele>1127</ele>
        <time>2021-10-02T09:28:44Z</time>
      </trkpt>
      <trkpt lat="42.9396" lon="0.29124">
        <ele>1127.2</ele>
        <time>2021-10-02T09:28:45Z</time>
      </trkpt>
      <trkpt lat="42.93965" lon="0.29121">
        <ele>1127.6</ele>
        <time>2021-10-02T09:28:46Z</time>
      </trkpt>
      <trkpt lat="42.9397" lon="0.29117">
        <ele>1127.8</ele>
        <time>2021-10-02T09:28:47Z</time>
      </trkpt>
      <trkpt lat="42.93975" lon="0.29113">
        <ele>1128</ele>
        <time>2021-10-02T09:28:48Z</time>
      </trkpt>
      <trkpt lat="42.9398" lon="0.29107">
        <ele>1128.2</ele>
        <time>2021-10-02T09:28:49Z</time>
      </trkpt>
      <trkpt lat="42.93994" lon="0.29082">
        <ele>1128.2</ele>
        <time>2021-10-02T09:28:52Z</time>
      </trkpt>
      <trkpt lat="42.94005" lon="0.29039">
        <ele>1128</ele>
        <time>2021-10-02T09:28:56Z</time>
      </trkpt>
      <trkpt lat="42.94006" lon="0.29027">
        <ele>1127.6</ele>
        <time>2021-10-02T09:28:57Z</time>
      </trkpt>
      <trkpt lat="42.94006" lon="0.29015">
        <ele>1127.6</ele>
        <time>2021-10-02T09:28:58Z</time>
      </trkpt>
      <trkpt lat="42.94007" lon="0.2899">
        <ele>1127.2</ele>
        <time>2021-10-02T09:29:00Z</time>
      </trkpt>
      <trkpt lat="42.9401" lon="0.28952">
        <ele>1126.2</ele>
        <time>2021-10-02T09:29:03Z</time>
      </trkpt>
      <trkpt lat="42.94014" lon="0.28926">
        <ele>1125.6</ele>
        <time>2021-10-02T09:29:05Z</time>
      </trkpt>
      <trkpt lat="42.94018" lon="0.28899">
        <ele>1125</ele>
        <time>2021-10-02T09:29:07Z</time>
      </trkpt>
      <trkpt lat="42.94026" lon="0.28859">
        <ele>1124.2</ele>
        <time>2021-10-02T09:29:10Z</time>
      </trkpt>
      <trkpt lat="42.9403" lon="0.28846">
        <ele>1124</ele>
        <time>2021-10-02T09:29:11Z</time>
      </trkpt>
      <trkpt lat="42.94038" lon="0.28818">
        <ele>1122.6</ele>
        <time>2021-10-02T09:29:13Z</time>
      </trkpt>
      <trkpt lat="42.94047" lon="0.28791">
        <ele>1121.6</ele>
        <time>2021-10-02T09:29:15Z</time>
      </trkpt>
      <trkpt lat="42.94058" lon="0.28748">
        <ele>1120</ele>
        <time>2021-10-02T09:29:18Z</time>
      </trkpt>
      <trkpt lat="42.94066" lon="0.28719">
        <ele>1118.8</ele>
        <time>2021-10-02T09:29:20Z</time>
      </trkpt>
      <trkpt lat="42.94077" lon="0.28675">
        <ele>1117.4</ele>
        <time>2021-10-02T09:29:23Z</time>
      </trkpt>
      <trkpt lat="42.94082" lon="0.28662">
        <ele>1116.6</ele>
        <time>2021-10-02T09:29:24Z</time>
      </trkpt>
      <trkpt lat="42.94089" lon="0.28649">
        <ele>1116.2</ele>
        <time>2021-10-02T09:29:25Z</time>
      </trkpt>
      <trkpt lat="42.94104" lon="0.28626">
        <ele>1114.8</ele>
        <time>2021-10-02T09:29:27Z</time>
      </trkpt>
      <trkpt lat="42.94119" lon="0.28605">
        <ele>1114</ele>
        <time>2021-10-02T09:29:29Z</time>
      </trkpt>
      <trkpt lat="42.94135" lon="0.28587">
        <ele>1113.2</ele>
        <time>2021-10-02T09:29:31Z</time>
      </trkpt>
      <trkpt lat="42.94142" lon="0.2858">
        <ele>1113</ele>
        <time>2021-10-02T09:29:32Z</time>
      </trkpt>
      <trkpt lat="42.94152" lon="0.2857">
        <ele>1112.4</ele>
        <time>2021-10-02T09:29:33Z</time>
      </trkpt>
      <trkpt lat="42.9416" lon="0.28562">
        <ele>1112</ele>
        <time>2021-10-02T09:29:34Z</time>
      </trkpt>
      <trkpt lat="42.94166" lon="0.28555">
        <ele>1111.4</ele>
        <time>2021-10-02T09:29:35Z</time>
      </trkpt>
      <trkpt lat="42.94175" lon="0.28545">
        <ele>1111.2</ele>
        <time>2021-10-02T09:29:36Z</time>
      </trkpt>
      <trkpt lat="42.94182" lon="0.28537">
        <ele>1110.8</ele>
        <time>2021-10-02T09:29:37Z</time>
      </trkpt>
      <trkpt lat="42.94189" lon="0.28529">
        <ele>1110.6</ele>
        <time>2021-10-02T09:29:38Z</time>
      </trkpt>
      <trkpt lat="42.94196" lon="0.28522">
        <ele>1110.4</ele>
        <time>2021-10-02T09:29:39Z</time>
      </trkpt>
      <trkpt lat="42.94202" lon="0.28515">
        <ele>1110.4</ele>
        <time>2021-10-02T09:29:40Z</time>
      </trkpt>
      <trkpt lat="42.94208" lon="0.28509">
        <ele>1110.2</ele>
        <time>2021-10-02T09:29:41Z</time>
      </trkpt>
      <trkpt lat="42.94214" lon="0.28503">
        <ele>1110.2</ele>
        <time>2021-10-02T09:29:42Z</time>
      </trkpt>
      <trkpt lat="42.94219" lon="0.28498">
        <ele>1110</ele>
        <time>2021-10-02T09:29:43Z</time>
      </trkpt>
      <trkpt lat="42.94223" lon="0.28494">
        <ele>1110</ele>
        <time>2021-10-02T09:29:44Z</time>
      </trkpt>
      <trkpt lat="42.94226" lon="0.28492">
        <ele>1109.4</ele>
        <time>2021-10-02T09:29:45Z</time>
      </trkpt>
      <trkpt lat="42.94229" lon="0.2849">
        <ele>1109.2</ele>
        <time>2021-10-02T09:29:46Z</time>
      </trkpt>
      <trkpt lat="42.94232" lon="0.28488">
        <ele>1109</ele>
        <time>2021-10-02T09:29:47Z</time>
      </trkpt>
      <trkpt lat="42.94235" lon="0.28487">
        <ele>1108.6</ele>
        <time>2021-10-02T09:29:48Z</time>
      </trkpt>
      <trkpt lat="42.94236" lon="0.28486">
        <ele>1108.4</ele>
        <time>2021-10-02T09:29:49Z</time>
      </trkpt>
      <trkpt lat="42.94237" lon="0.28485">
        <ele>1108</ele>
        <time>2021-10-02T09:29:50Z</time>
      </trkpt>
      <trkpt lat="42.94237" lon="0.28485">
        <ele>1107</ele>
        <time>2021-10-02T09:29:56Z</time>
      </trkpt>
      <trkpt lat="42.94237" lon="0.28485">
        <ele>1107</ele>
        <time>2021-10-02T09:29:58Z</time>
      </trkpt>
      <trkpt lat="42.94237" lon="0.28485">
        <ele>1106.8</ele>
        <time>2021-10-02T09:30:00Z</time>
      </trkpt>
      <trkpt lat="42.94237" lon="0.28485">
        <ele>1106.6</ele>
        <time>2021-10-02T09:30:15Z</time>
      </trkpt>
      <trkpt lat="42.94237" lon="0.28485">
        <ele>1106.6</ele>
        <time>2021-10-02T09:30:16Z</time>
      </trkpt>
    </trkseg>
  </trk>
</gpx>